<?xml version="1.0" encoding="UTF-8"?>
<TrainingCenterDatabase xmlns="http://www.garmin.com/xmlschemas/TrainingCenterDatabase/v2" xmlns:xsi="http://www.w3.org/2001/XMLSchema-instance" xsi:schemaLocation="http://www.garmin.com/xmlschemas/TrainingCenterDatabase/v2 http://www.garmin.com/xmlschemas/TrainingCenterDatabasev2.xsd">
  <Activities>
    <Activity Sport="Other">
      <Id>2021-01-13T14:24:58.000Z</Id>
      <Lap StartTime="2021-01-13T14:24:58.000Z">
        <TotalTimeSeconds>8369</TotalTimeSeconds>
        <DistanceMeters>53950</DistanceMeters>
        <Track>
          <Trackpoint>
            <Time>2021-01-13T14:24:58.000Z</Time>
            <Position>
              <LatitudeDegrees>43.354074172675609588623046875</LatitudeDegrees>
              <LongitudeDegrees>-3.94879982806742191314697265625</LongitudeDegrees>
            </Position>
            <AltitudeMeters>34</AltitudeMeters>
            <DistanceMeters>0</DistanceMeters>
          </Trackpoint>
          <Trackpoint>
            <Time>2021-01-13T14:24:59.000Z</Time>
            <Position>
              <LatitudeDegrees>43.35407325066626071929931640625</LatitudeDegrees>
              <LongitudeDegrees>-3.9488002471625804901123046875</LongitudeDegrees>
            </Position>
            <AltitudeMeters>34</AltitudeMeters>
            <DistanceMeters>0.13438806824978</DistanceMeters>
          </Trackpoint>
          <Trackpoint>
            <Time>2021-01-13T14:25:01.000Z</Time>
            <Position>
              <LatitudeDegrees>43.35407258011400699615478515625</LatitudeDegrees>
              <LongitudeDegrees>-3.948775939643383026123046875</LongitudeDegrees>
            </Position>
            <AltitudeMeters>34</AltitudeMeters>
            <DistanceMeters>2.1049039577824</DistanceMeters>
          </Trackpoint>
          <Trackpoint>
            <Time>2021-01-13T14:25:03.000Z</Time>
            <Position>
              <LatitudeDegrees>43.35408314131200313568115234375</LatitudeDegrees>
              <LongitudeDegrees>-3.94872623495757579803466796875</LongitudeDegrees>
            </Position>
            <AltitudeMeters>34</AltitudeMeters>
            <DistanceMeters>6.2957867625732</DistanceMeters>
          </Trackpoint>
          <Trackpoint>
            <Time>2021-01-13T14:25:05.000Z</Time>
            <Position>
              <LatitudeDegrees>43.354121111333370208740234375</LatitudeDegrees>
              <LongitudeDegrees>-3.94867091439664363861083984375</LongitudeDegrees>
            </Position>
            <AltitudeMeters>34</AltitudeMeters>
            <DistanceMeters>12.452755246472</DistanceMeters>
          </Trackpoint>
          <Trackpoint>
            <Time>2021-01-13T14:25:07.000Z</Time>
            <Position>
              <LatitudeDegrees>43.354178108274936676025390625</LatitudeDegrees>
              <LongitudeDegrees>-3.94866605289280414581298828125</LongitudeDegrees>
            </Position>
            <AltitudeMeters>34</AltitudeMeters>
            <DistanceMeters>18.808898889457</DistanceMeters>
          </Trackpoint>
          <Trackpoint>
            <Time>2021-01-13T14:25:09.000Z</Time>
            <Position>
              <LatitudeDegrees>43.35424683988094329833984375</LatitudeDegrees>
              <LongitudeDegrees>-3.94871634431183338165283203125</LongitudeDegrees>
            </Position>
            <AltitudeMeters>34</AltitudeMeters>
            <DistanceMeters>27.474584996623</DistanceMeters>
          </Trackpoint>
          <Trackpoint>
            <Time>2021-01-13T14:25:11.000Z</Time>
            <Position>
              <LatitudeDegrees>43.35431766696274280548095703125</LatitudeDegrees>
              <LongitudeDegrees>-3.9487767778337001800537109375</LongitudeDegrees>
            </Position>
            <AltitudeMeters>34</AltitudeMeters>
            <DistanceMeters>36.752229561047</DistanceMeters>
          </Trackpoint>
          <Trackpoint>
            <Time>2021-01-13T14:25:12.000Z</Time>
            <Position>
              <LatitudeDegrees>43.35435622371733188629150390625</LatitudeDegrees>
              <LongitudeDegrees>-3.94880133680999279022216796875</LongitudeDegrees>
            </Position>
            <AltitudeMeters>34</AltitudeMeters>
            <DistanceMeters>41.480703868393</DistanceMeters>
          </Trackpoint>
          <Trackpoint>
            <Time>2021-01-13T14:25:13.000Z</Time>
            <Position>
              <LatitudeDegrees>43.35439679212868213653564453125</LatitudeDegrees>
              <LongitudeDegrees>-3.9488218724727630615234375</LongitudeDegrees>
            </Position>
            <AltitudeMeters>34</AltitudeMeters>
            <DistanceMeters>46.292472358491</DistanceMeters>
          </Trackpoint>
          <Trackpoint>
            <Time>2021-01-13T14:25:15.000Z</Time>
            <Position>
              <LatitudeDegrees>43.35447625257074832916259765625</LatitudeDegrees>
              <LongitudeDegrees>-3.94886503927409648895263671875</LongitudeDegrees>
            </Position>
            <AltitudeMeters>34.40000152587890625</AltitudeMeters>
            <DistanceMeters>55.800843688897</DistanceMeters>
          </Trackpoint>
          <Trackpoint>
            <Time>2021-01-13T14:25:17.000Z</Time>
            <Position>
              <LatitudeDegrees>43.35455135442316532135009765625</LatitudeDegrees>
              <LongitudeDegrees>-3.94891667179763317108154296875</LongitudeDegrees>
            </Position>
            <AltitudeMeters>34.59999847412109375</AltitudeMeters>
            <DistanceMeters>65.145888862116</DistanceMeters>
          </Trackpoint>
          <Trackpoint>
            <Time>2021-01-13T14:25:19.000Z</Time>
            <Position>
              <LatitudeDegrees>43.3546298928558826446533203125</LatitudeDegrees>
              <LongitudeDegrees>-3.94896335899829864501953125</LongitudeDegrees>
            </Position>
            <AltitudeMeters>35</AltitudeMeters>
            <DistanceMeters>74.669443230265</DistanceMeters>
          </Trackpoint>
          <Trackpoint>
            <Time>2021-01-13T14:25:20.000Z</Time>
            <Position>
              <LatitudeDegrees>43.35466970689594745635986328125</LatitudeDegrees>
              <LongitudeDegrees>-3.9489873312413692474365234375</LongitudeDegrees>
            </Position>
            <AltitudeMeters>35</AltitudeMeters>
            <DistanceMeters>79.507413687257</DistanceMeters>
          </Trackpoint>
          <Trackpoint>
            <Time>2021-01-13T14:25:21.000Z</Time>
            <Position>
              <LatitudeDegrees>43.354709856212139129638671875</LatitudeDegrees>
              <LongitudeDegrees>-3.9490114711225032806396484375</LongitudeDegrees>
            </Position>
            <AltitudeMeters>35.200000762939453125</AltitudeMeters>
            <DistanceMeters>84.384423155505</DistanceMeters>
          </Trackpoint>
          <Trackpoint>
            <Time>2021-01-13T14:25:23.000Z</Time>
            <Position>
              <LatitudeDegrees>43.3547908253967761993408203125</LatitudeDegrees>
              <LongitudeDegrees>-3.9490651153028011322021484375</LongitudeDegrees>
            </Position>
            <AltitudeMeters>35.40000152587890625</AltitudeMeters>
            <DistanceMeters>94.387987877739</DistanceMeters>
          </Trackpoint>
          <Trackpoint>
            <Time>2021-01-13T14:25:25.000Z</Time>
            <Position>
              <LatitudeDegrees>43.35486902855336666107177734375</LatitudeDegrees>
              <LongitudeDegrees>-3.94912588410079479217529296875</LongitudeDegrees>
            </Position>
            <AltitudeMeters>35.59999847412109375</AltitudeMeters>
            <DistanceMeters>104.38523180203</DistanceMeters>
          </Trackpoint>
          <Trackpoint>
            <Time>2021-01-13T14:25:27.000Z</Time>
            <Position>
              <LatitudeDegrees>43.3549447171390056610107421875</LatitudeDegrees>
              <LongitudeDegrees>-3.949201405048370361328125</LongitudeDegrees>
            </Position>
            <AltitudeMeters>35.59999847412109375</AltitudeMeters>
            <DistanceMeters>114.79315172013</DistanceMeters>
          </Trackpoint>
          <Trackpoint>
            <Time>2021-01-13T14:25:29.000Z</Time>
            <Position>
              <LatitudeDegrees>43.3550090901553630828857421875</LatitudeDegrees>
              <LongitudeDegrees>-3.94929419271647930145263671875</LongitudeDegrees>
            </Position>
            <AltitudeMeters>35.799999237060546875</AltitudeMeters>
            <DistanceMeters>125.17196580942</DistanceMeters>
          </Trackpoint>
          <Trackpoint>
            <Time>2021-01-13T14:25:30.000Z</Time>
            <Position>
              <LatitudeDegrees>43.35503633134067058563232421875</LatitudeDegrees>
              <LongitudeDegrees>-3.94934582524001598358154296875</LongitudeDegrees>
            </Position>
            <AltitudeMeters>35.799999237060546875</AltitudeMeters>
            <DistanceMeters>130.33498679161</DistanceMeters>
          </Trackpoint>
          <Trackpoint>
            <Time>2021-01-13T14:25:31.000Z</Time>
            <Position>
              <LatitudeDegrees>43.35506013594567775726318359375</LatitudeDegrees>
              <LongitudeDegrees>-3.94940181635320186614990234375</LongitudeDegrees>
            </Position>
            <AltitudeMeters>36</AltitudeMeters>
            <DistanceMeters>135.58386888502</DistanceMeters>
          </Trackpoint>
          <Trackpoint>
            <Time>2021-01-13T14:25:32.000Z</Time>
            <Position>
              <LatitudeDegrees>43.35508058778941631317138671875</LatitudeDegrees>
              <LongitudeDegrees>-3.94946132786571979522705078125</LongitudeDegrees>
            </Position>
            <AltitudeMeters>36.200000762939453125</AltitudeMeters>
            <DistanceMeters>140.91130074881</DistanceMeters>
          </Trackpoint>
          <Trackpoint>
            <Time>2021-01-13T14:25:33.000Z</Time>
            <Position>
              <LatitudeDegrees>43.3550972677767276763916015625</LatitudeDegrees>
              <LongitudeDegrees>-3.949523605406284332275390625</LongitudeDegrees>
            </Position>
            <AltitudeMeters>36.200000762939453125</AltitudeMeters>
            <DistanceMeters>146.28262220991</DistanceMeters>
          </Trackpoint>
          <Trackpoint>
            <Time>2021-01-13T14:25:35.000Z</Time>
            <Position>
              <LatitudeDegrees>43.35512124001979827880859375</LatitudeDegrees>
              <LongitudeDegrees>-3.949655704200267791748046875</LongitudeDegrees>
            </Position>
            <AltitudeMeters>36.200000762939453125</AltitudeMeters>
            <DistanceMeters>157.30080480562</DistanceMeters>
          </Trackpoint>
          <Trackpoint>
            <Time>2021-01-13T14:25:36.000Z</Time>
            <Position>
              <LatitudeDegrees>43.3551286160945892333984375</LatitudeDegrees>
              <LongitudeDegrees>-3.949723429977893829345703125</LongitudeDegrees>
            </Position>
            <AltitudeMeters>36.200000762939453125</AltitudeMeters>
            <DistanceMeters>162.84339626291</DistanceMeters>
          </Trackpoint>
          <Trackpoint>
            <Time>2021-01-13T14:25:37.000Z</Time>
            <Position>
              <LatitudeDegrees>43.35513490252196788787841796875</LatitudeDegrees>
              <LongitudeDegrees>-3.949791491031646728515625</LongitudeDegrees>
            </Position>
            <AltitudeMeters>36.200000762939453125</AltitudeMeters>
            <DistanceMeters>168.39575440874</DistanceMeters>
          </Trackpoint>
          <Trackpoint>
            <Time>2021-01-13T14:25:39.000Z</Time>
            <Position>
              <LatitudeDegrees>43.35514194332063198089599609375</LatitudeDegrees>
              <LongitudeDegrees>-3.9499307982623577117919921875</LongitudeDegrees>
            </Position>
            <AltitudeMeters>36.200000762939453125</AltitudeMeters>
            <DistanceMeters>179.69634470618</DistanceMeters>
          </Trackpoint>
          <Trackpoint>
            <Time>2021-01-13T14:25:41.000Z</Time>
            <Position>
              <LatitudeDegrees>43.3551542647182941436767578125</LatitudeDegrees>
              <LongitudeDegrees>-3.95007739774882793426513671875</LongitudeDegrees>
            </Position>
            <AltitudeMeters>36.200000762939453125</AltitudeMeters>
            <DistanceMeters>191.63950540629</DistanceMeters>
          </Trackpoint>
          <Trackpoint>
            <Time>2021-01-13T14:25:42.000Z</Time>
            <Position>
              <LatitudeDegrees>43.35516273044049739837646484375</LatitudeDegrees>
              <LongitudeDegrees>-3.95015166141092777252197265625</LongitudeDegrees>
            </Position>
            <AltitudeMeters>36.200000762939453125</AltitudeMeters>
            <DistanceMeters>197.72269973718</DistanceMeters>
          </Trackpoint>
          <Trackpoint>
            <Time>2021-01-13T14:25:43.000Z</Time>
            <Position>
              <LatitudeDegrees>43.35517161525785923004150390625</LatitudeDegrees>
              <LongitudeDegrees>-3.9502251707017421722412109375</LongitudeDegrees>
            </Position>
            <AltitudeMeters>36</AltitudeMeters>
            <DistanceMeters>203.75371523345</DistanceMeters>
          </Trackpoint>
          <Trackpoint>
            <Time>2021-01-13T14:25:45.000Z</Time>
            <Position>
              <LatitudeDegrees>43.35519231855869293212890625</LatitudeDegrees>
              <LongitudeDegrees>-3.95036942325532436370849609375</LongitudeDegrees>
            </Position>
            <AltitudeMeters>35.799999237060546875</AltitudeMeters>
            <DistanceMeters>215.65370089706</DistanceMeters>
          </Trackpoint>
          <Trackpoint>
            <Time>2021-01-13T14:25:46.000Z</Time>
            <Position>
              <LatitudeDegrees>43.35520631633698940277099609375</LatitudeDegrees>
              <LongitudeDegrees>-3.95043798722326755523681640625</LongitudeDegrees>
            </Position>
            <AltitudeMeters>35.799999237060546875</AltitudeMeters>
            <DistanceMeters>221.41830680846</DistanceMeters>
          </Trackpoint>
          <Trackpoint>
            <Time>2021-01-13T14:25:47.000Z</Time>
            <Position>
              <LatitudeDegrees>43.35522576235234737396240234375</LatitudeDegrees>
              <LongitudeDegrees>-3.95050487481057643890380859375</LongitudeDegrees>
            </Position>
            <AltitudeMeters>35.59999847412109375</AltitudeMeters>
            <DistanceMeters>227.24833320077</DistanceMeters>
          </Trackpoint>
          <Trackpoint>
            <Time>2021-01-13T14:25:48.000Z</Time>
            <Position>
              <LatitudeDegrees>43.35525023750960826873779296875</LatitudeDegrees>
              <LongitudeDegrees>-3.95057008601725101470947265625</LongitudeDegrees>
            </Position>
            <AltitudeMeters>35.59999847412109375</AltitudeMeters>
            <DistanceMeters>233.18731279242</DistanceMeters>
          </Trackpoint>
          <Trackpoint>
            <Time>2021-01-13T14:25:49.000Z</Time>
            <Position>
              <LatitudeDegrees>43.35528041236102581024169921875</LatitudeDegrees>
              <LongitudeDegrees>-3.9506318606436252593994140625</LongitudeDegrees>
            </Position>
            <AltitudeMeters>35.40000152587890625</AltitudeMeters>
            <DistanceMeters>239.2100876575</DistanceMeters>
          </Trackpoint>
          <Trackpoint>
            <Time>2021-01-13T14:25:51.000Z</Time>
            <Position>
              <LatitudeDegrees>43.35535920225083827972412109375</LatitudeDegrees>
              <LongitudeDegrees>-3.95073655061423778533935546875</LongitudeDegrees>
            </Position>
            <AltitudeMeters>35.200000762939453125</AltitudeMeters>
            <DistanceMeters>251.40390735135</DistanceMeters>
          </Trackpoint>
          <Trackpoint>
            <Time>2021-01-13T14:25:53.000Z</Time>
            <Position>
              <LatitudeDegrees>43.355458192527294158935546875</LatitudeDegrees>
              <LongitudeDegrees>-3.95080980844795703887939453125</LongitudeDegrees>
            </Position>
            <AltitudeMeters>34.799999237060546875</AltitudeMeters>
            <DistanceMeters>263.91571798101</DistanceMeters>
          </Trackpoint>
          <Trackpoint>
            <Time>2021-01-13T14:25:54.000Z</Time>
            <Position>
              <LatitudeDegrees>43.35551007650792598724365234375</LatitudeDegrees>
              <LongitudeDegrees>-3.95083998329937458038330078125</LongitudeDegrees>
            </Position>
            <AltitudeMeters>34.40000152587890625</AltitudeMeters>
            <DistanceMeters>270.18460087066</DistanceMeters>
          </Trackpoint>
          <Trackpoint>
            <Time>2021-01-13T14:25:55.000Z</Time>
            <Position>
              <LatitudeDegrees>43.3555626310408115386962890625</LatitudeDegrees>
              <LongitudeDegrees>-3.95087166689336299896240234375</LongitudeDegrees>
            </Position>
            <AltitudeMeters>34.200000762939453125</AltitudeMeters>
            <DistanceMeters>276.57192310879</DistanceMeters>
          </Trackpoint>
          <Trackpoint>
            <Time>2021-01-13T14:25:57.000Z</Time>
            <Position>
              <LatitudeDegrees>43.3556662313640117645263671875</LatitudeDegrees>
              <LongitudeDegrees>-3.95093746483325958251953125</LongitudeDegrees>
            </Position>
            <AltitudeMeters>34</AltitudeMeters>
            <DistanceMeters>289.27283983141</DistanceMeters>
          </Trackpoint>
          <Trackpoint>
            <Time>2021-01-13T14:25:59.000Z</Time>
            <Position>
              <LatitudeDegrees>43.3557694964110851287841796875</LatitudeDegrees>
              <LongitudeDegrees>-3.9510103873908519744873046875</LongitudeDegrees>
            </Position>
            <AltitudeMeters>33.59999847412109375</AltitudeMeters>
            <DistanceMeters>302.19297888418</DistanceMeters>
          </Trackpoint>
          <Trackpoint>
            <Time>2021-01-13T14:26:01.000Z</Time>
            <Position>
              <LatitudeDegrees>43.35586798377335071563720703125</LatitudeDegrees>
              <LongitudeDegrees>-3.951098062098026275634765625</LongitudeDegrees>
            </Position>
            <AltitudeMeters>33.40000152587890625</AltitudeMeters>
            <DistanceMeters>315.25076979286</DistanceMeters>
          </Trackpoint>
          <Trackpoint>
            <Time>2021-01-13T14:26:02.000Z</Time>
            <Position>
              <LatitudeDegrees>43.35591374896466732025146484375</LatitudeDegrees>
              <LongitudeDegrees>-3.951148353517055511474609375</LongitudeDegrees>
            </Position>
            <AltitudeMeters>33.40000152587890625</AltitudeMeters>
            <DistanceMeters>321.77101517921</DistanceMeters>
          </Trackpoint>
          <Trackpoint>
            <Time>2021-01-13T14:26:03.000Z</Time>
            <Position>
              <LatitudeDegrees>43.3559547364711761474609375</LatitudeDegrees>
              <LongitudeDegrees>-3.95120543427765369415283203125</LongitudeDegrees>
            </Position>
            <AltitudeMeters>33.200000762939453125</AltitudeMeters>
            <DistanceMeters>328.26350290275</DistanceMeters>
          </Trackpoint>
          <Trackpoint>
            <Time>2021-01-13T14:26:05.000Z</Time>
            <Position>
              <LatitudeDegrees>43.3560165949165821075439453125</LatitudeDegrees>
              <LongitudeDegrees>-3.951335437595844268798828125</LongitudeDegrees>
            </Position>
            <AltitudeMeters>33.200000762939453125</AltitudeMeters>
            <DistanceMeters>340.83722861874</DistanceMeters>
          </Trackpoint>
          <Trackpoint>
            <Time>2021-01-13T14:26:06.000Z</Time>
            <Position>
              <LatitudeDegrees>43.35604081861674785614013671875</LatitudeDegrees>
              <LongitudeDegrees>-3.95140375010669231414794921875</LongitudeDegrees>
            </Position>
            <AltitudeMeters>33</AltitudeMeters>
            <DistanceMeters>346.98832773192</DistanceMeters>
          </Trackpoint>
          <Trackpoint>
            <Time>2021-01-13T14:26:07.000Z</Time>
            <Position>
              <LatitudeDegrees>43.35606805980205535888671875</LatitudeDegrees>
              <LongitudeDegrees>-3.95146912895143032073974609375</LongitudeDegrees>
            </Position>
            <AltitudeMeters>33</AltitudeMeters>
            <DistanceMeters>353.08634829569</DistanceMeters>
          </Trackpoint>
          <Trackpoint>
            <Time>2021-01-13T14:26:09.000Z</Time>
            <Position>
              <LatitudeDegrees>43.3561185188591480255126953125</LatitudeDegrees>
              <LongitudeDegrees>-3.9516004733741283416748046875</LongitudeDegrees>
            </Position>
            <AltitudeMeters>33</AltitudeMeters>
            <DistanceMeters>365.10788494493</DistanceMeters>
          </Trackpoint>
          <Trackpoint>
            <Time>2021-01-13T14:26:11.000Z</Time>
            <Position>
              <LatitudeDegrees>43.35615213029086589813232421875</LatitudeDegrees>
              <LongitudeDegrees>-3.9517427980899810791015625</LongitudeDegrees>
            </Position>
            <AltitudeMeters>33</AltitudeMeters>
            <DistanceMeters>377.21810672351</DistanceMeters>
          </Trackpoint>
          <Trackpoint>
            <Time>2021-01-13T14:26:13.000Z</Time>
            <Position>
              <LatitudeDegrees>43.3561594225466251373291015625</LatitudeDegrees>
              <LongitudeDegrees>-3.9518921636044979095458984375</LongitudeDegrees>
            </Position>
            <AltitudeMeters>33</AltitudeMeters>
            <DistanceMeters>389.33317430566</DistanceMeters>
          </Trackpoint>
          <Trackpoint>
            <Time>2021-01-13T14:26:15.000Z</Time>
            <Position>
              <LatitudeDegrees>43.35614626295864582061767578125</LatitudeDegrees>
              <LongitudeDegrees>-3.9520400203764438629150390625</LongitudeDegrees>
            </Position>
            <AltitudeMeters>33.200000762939453125</AltitudeMeters>
            <DistanceMeters>401.38771660872</DistanceMeters>
          </Trackpoint>
          <Trackpoint>
            <Time>2021-01-13T14:26:17.000Z</Time>
            <Position>
              <LatitudeDegrees>43.3561183512210845947265625</LatitudeDegrees>
              <LongitudeDegrees>-3.95218024961650371551513671875</LongitudeDegrees>
            </Position>
            <AltitudeMeters>33.40000152587890625</AltitudeMeters>
            <DistanceMeters>413.15339006525</DistanceMeters>
          </Trackpoint>
          <Trackpoint>
            <Time>2021-01-13T14:26:18.000Z</Time>
            <Position>
              <LatitudeDegrees>43.3561007492244243621826171875</LatitudeDegrees>
              <LongitudeDegrees>-3.95224596373736858367919921875</LongitudeDegrees>
            </Position>
            <AltitudeMeters>33.40000152587890625</AltitudeMeters>
            <DistanceMeters>418.82083939552</DistanceMeters>
          </Trackpoint>
          <Trackpoint>
            <Time>2021-01-13T14:26:19.000Z</Time>
            <Position>
              <LatitudeDegrees>43.356082476675510406494140625</LatitudeDegrees>
              <LongitudeDegrees>-3.95230983383953571319580078125</LongitudeDegrees>
            </Position>
            <AltitudeMeters>33.40000152587890625</AltitudeMeters>
            <DistanceMeters>424.37401065671</DistanceMeters>
          </Trackpoint>
          <Trackpoint>
            <Time>2021-01-13T14:26:21.000Z</Time>
            <Position>
              <LatitudeDegrees>43.3560457639396190643310546875</LatitudeDegrees>
              <LongitudeDegrees>-3.9524470455944538116455078125</LongitudeDegrees>
            </Position>
            <AltitudeMeters>33.799999237060546875</AltitudeMeters>
            <DistanceMeters>436.20588604105</DistanceMeters>
          </Trackpoint>
          <Trackpoint>
            <Time>2021-01-13T14:26:23.000Z</Time>
            <Position>
              <LatitudeDegrees>43.35602992214262485504150390625</LatitudeDegrees>
              <LongitudeDegrees>-3.9526064693927764892578125</LongitudeDegrees>
            </Position>
            <AltitudeMeters>33.799999237060546875</AltitudeMeters>
            <DistanceMeters>449.22732011677</DistanceMeters>
          </Trackpoint>
          <Trackpoint>
            <Time>2021-01-13T14:26:25.000Z</Time>
            <Position>
              <LatitudeDegrees>43.35602690465748310089111328125</LatitudeDegrees>
              <LongitudeDegrees>-3.95278693176805973052978515625</LongitudeDegrees>
            </Position>
            <AltitudeMeters>34</AltitudeMeters>
            <DistanceMeters>463.83549476399</DistanceMeters>
          </Trackpoint>
          <Trackpoint>
            <Time>2021-01-13T14:26:27.000Z</Time>
            <Position>
              <LatitudeDegrees>43.356028832495212554931640625</LatitudeDegrees>
              <LongitudeDegrees>-3.952975608408451080322265625</LongitudeDegrees>
            </Position>
            <AltitudeMeters>34.200000762939453125</AltitudeMeters>
            <DistanceMeters>479.10643855163</DistanceMeters>
          </Trackpoint>
          <Trackpoint>
            <Time>2021-01-13T14:26:29.000Z</Time>
            <Position>
              <LatitudeDegrees>43.356036208570003509521484375</LatitudeDegrees>
              <LongitudeDegrees>-3.9531578309834003448486328125</LongitudeDegrees>
            </Position>
            <AltitudeMeters>34.200000762939453125</AltitudeMeters>
            <DistanceMeters>493.8765982261</DistanceMeters>
          </Trackpoint>
          <Trackpoint>
            <Time>2021-01-13T14:26:31.000Z</Time>
            <Position>
              <LatitudeDegrees>43.35608012974262237548828125</LatitudeDegrees>
              <LongitudeDegrees>-3.95331650041043758392333984375</LongitudeDegrees>
            </Position>
            <AltitudeMeters>34.200000762939453125</AltitudeMeters>
            <DistanceMeters>507.61642275691</DistanceMeters>
          </Trackpoint>
          <Trackpoint>
            <Time>2021-01-13T14:26:33.000Z</Time>
            <Position>
              <LatitudeDegrees>43.3561641164124011993408203125</LatitudeDegrees>
              <LongitudeDegrees>-3.95342915318906307220458984375</LongitudeDegrees>
            </Position>
            <AltitudeMeters>33.59999847412109375</AltitudeMeters>
            <DistanceMeters>520.6738678875</DistanceMeters>
          </Trackpoint>
          <Trackpoint>
            <Time>2021-01-13T14:26:34.000Z</Time>
            <Position>
              <LatitudeDegrees>43.35620242170989513397216796875</LatitudeDegrees>
              <LongitudeDegrees>-3.9534864015877246856689453125</LongitudeDegrees>
            </Position>
            <AltitudeMeters>33.40000152587890625</AltitudeMeters>
            <DistanceMeters>526.97006003744</DistanceMeters>
          </Trackpoint>
          <Trackpoint>
            <Time>2021-01-13T14:26:35.000Z</Time>
            <Position>
              <LatitudeDegrees>43.35623075254261493682861328125</LatitudeDegrees>
              <LongitudeDegrees>-3.953546583652496337890625</LongitudeDegrees>
            </Position>
            <AltitudeMeters>33.40000152587890625</AltitudeMeters>
            <DistanceMeters>532.77213940462</DistanceMeters>
          </Trackpoint>
          <Trackpoint>
            <Time>2021-01-13T14:26:37.000Z</Time>
            <Position>
              <LatitudeDegrees>43.3562667109072208404541015625</LatitudeDegrees>
              <LongitudeDegrees>-3.9536647684872150421142578125</LongitudeDegrees>
            </Position>
            <AltitudeMeters>32.40000152587890625</AltitudeMeters>
            <DistanceMeters>543.14007217779</DistanceMeters>
          </Trackpoint>
          <Trackpoint>
            <Time>2021-01-13T14:26:38.000Z</Time>
            <Position>
              <LatitudeDegrees>43.3562792837619781494140625</LatitudeDegrees>
              <LongitudeDegrees>-3.95371665246784687042236328125</LongitudeDegrees>
            </Position>
            <AltitudeMeters>32.40000152587890625</AltitudeMeters>
            <DistanceMeters>547.56468580278</DistanceMeters>
          </Trackpoint>
          <Trackpoint>
            <Time>2021-01-13T14:26:39.000Z</Time>
            <Position>
              <LatitudeDegrees>43.3562895096838474273681640625</LatitudeDegrees>
              <LongitudeDegrees>-3.95376409403979778289794921875</LongitudeDegrees>
            </Position>
            <AltitudeMeters>32.200000762939453125</AltitudeMeters>
            <DistanceMeters>551.56936004228</DistanceMeters>
          </Trackpoint>
          <Trackpoint>
            <Time>2021-01-13T14:26:41.000Z</Time>
            <Position>
              <LatitudeDegrees>43.35630384273827075958251953125</LatitudeDegrees>
              <LongitudeDegrees>-3.953835926949977874755859375</LongitudeDegrees>
            </Position>
            <AltitudeMeters>31.799999237060546875</AltitudeMeters>
            <DistanceMeters>557.5966311938</DistanceMeters>
          </Trackpoint>
          <Trackpoint>
            <Time>2021-01-13T14:26:42.000Z</Time>
            <Position>
              <LatitudeDegrees>43.3563102968037128448486328125</LatitudeDegrees>
              <LongitudeDegrees>-3.95386165939271450042724609375</LongitudeDegrees>
            </Position>
            <AltitudeMeters>31.799999237060546875</AltitudeMeters>
            <DistanceMeters>559.79870999584</DistanceMeters>
          </Trackpoint>
          <Trackpoint>
            <Time>2021-01-13T14:26:43.000Z</Time>
            <Position>
              <LatitudeDegrees>43.3563156612217426300048828125</LatitudeDegrees>
              <LongitudeDegrees>-3.95388915203511714935302734375</LongitudeDegrees>
            </Position>
            <AltitudeMeters>31.3999996185302734375</AltitudeMeters>
            <DistanceMeters>562.10298535896</DistanceMeters>
          </Trackpoint>
          <Trackpoint>
            <Time>2021-01-13T14:26:45.000Z</Time>
            <Position>
              <LatitudeDegrees>43.35631038062274456024169921875</LatitudeDegrees>
              <LongitudeDegrees>-3.953969366848468780517578125</LongitudeDegrees>
            </Position>
            <AltitudeMeters>31.200000762939453125</AltitudeMeters>
            <DistanceMeters>568.62184566926</DistanceMeters>
          </Trackpoint>
          <Trackpoint>
            <Time>2021-01-13T14:26:46.000Z</Time>
            <Position>
              <LatitudeDegrees>43.35630468092858791351318359375</LatitudeDegrees>
              <LongitudeDegrees>-3.95402058027684688568115234375</LongitudeDegrees>
            </Position>
            <AltitudeMeters>31.200000762939453125</AltitudeMeters>
            <DistanceMeters>572.81380568337</DistanceMeters>
          </Trackpoint>
          <Trackpoint>
            <Time>2021-01-13T14:26:47.000Z</Time>
            <Position>
              <LatitudeDegrees>43.3563099615275859832763671875</LatitudeDegrees>
              <LongitudeDegrees>-3.9540818519890308380126953125</LongitudeDegrees>
            </Position>
            <AltitudeMeters>31</AltitudeMeters>
            <DistanceMeters>577.80700516485</DistanceMeters>
          </Trackpoint>
          <Trackpoint>
            <Time>2021-01-13T14:26:49.000Z</Time>
            <Position>
              <LatitudeDegrees>43.35635145194828510284423828125</LatitudeDegrees>
              <LongitudeDegrees>-3.954213447868824005126953125</LongitudeDegrees>
            </Position>
            <AltitudeMeters>31</AltitudeMeters>
            <DistanceMeters>589.41505412652</DistanceMeters>
          </Trackpoint>
          <Trackpoint>
            <Time>2021-01-13T14:26:51.000Z</Time>
            <Position>
              <LatitudeDegrees>43.35640207864344120025634765625</LatitudeDegrees>
              <LongitudeDegrees>-3.9543507434427738189697265625</LongitudeDegrees>
            </Position>
            <AltitudeMeters>31</AltitudeMeters>
            <DistanceMeters>601.87334268951</DistanceMeters>
          </Trackpoint>
          <Trackpoint>
            <Time>2021-01-13T14:26:53.000Z</Time>
            <Position>
              <LatitudeDegrees>43.3564393781125545501708984375</LatitudeDegrees>
              <LongitudeDegrees>-3.95450036041438579559326171875</LongitudeDegrees>
            </Position>
            <AltitudeMeters>30.799999237060546875</AltitudeMeters>
            <DistanceMeters>614.673409369</DistanceMeters>
          </Trackpoint>
          <Trackpoint>
            <Time>2021-01-13T14:26:55.000Z</Time>
            <Position>
              <LatitudeDegrees>43.3564762584865093231201171875</LatitudeDegrees>
              <LongitudeDegrees>-3.95465391688048839569091796875</LongitudeDegrees>
            </Position>
            <AltitudeMeters>30.799999237060546875</AltitudeMeters>
            <DistanceMeters>627.76055802378</DistanceMeters>
          </Trackpoint>
          <Trackpoint>
            <Time>2021-01-13T14:26:57.000Z</Time>
            <Position>
              <LatitudeDegrees>43.3565208502113819122314453125</LatitudeDegrees>
              <LongitudeDegrees>-3.95480495877563953399658203125</LongitudeDegrees>
            </Position>
            <AltitudeMeters>30.799999237060546875</AltitudeMeters>
            <DistanceMeters>640.95319587149</DistanceMeters>
          </Trackpoint>
          <Trackpoint>
            <Time>2021-01-13T14:26:59.000Z</Time>
            <Position>
              <LatitudeDegrees>43.35656619630753993988037109375</LatitudeDegrees>
              <LongitudeDegrees>-3.95495683886110782623291015625</LongitudeDegrees>
            </Position>
            <AltitudeMeters>30.6000003814697265625</AltitudeMeters>
            <DistanceMeters>654.23995599123</DistanceMeters>
          </Trackpoint>
          <Trackpoint>
            <Time>2021-01-13T14:27:01.000Z</Time>
            <Position>
              <LatitudeDegrees>43.35660047829151153564453125</LatitudeDegrees>
              <LongitudeDegrees>-3.95511391572654247283935546875</LongitudeDegrees>
            </Position>
            <AltitudeMeters>30.6000003814697265625</AltitudeMeters>
            <DistanceMeters>667.51175583586</DistanceMeters>
          </Trackpoint>
          <Trackpoint>
            <Time>2021-01-13T14:27:03.000Z</Time>
            <Position>
              <LatitudeDegrees>43.35662939585745334625244140625</LatitudeDegrees>
              <LongitudeDegrees>-3.95527216605842113494873046875</LongitudeDegrees>
            </Position>
            <AltitudeMeters>30.3999996185302734375</AltitudeMeters>
            <DistanceMeters>680.71670854811</DistanceMeters>
          </Trackpoint>
          <Trackpoint>
            <Time>2021-01-13T14:27:04.000Z</Time>
            <Position>
              <LatitudeDegrees>43.35664448328316211700439453125</LatitudeDegrees>
              <LongitudeDegrees>-3.95534911192953586578369140625</LongitudeDegrees>
            </Position>
            <AltitudeMeters>30.3999996185302734375</AltitudeMeters>
            <DistanceMeters>687.16593579646</DistanceMeters>
          </Trackpoint>
          <Trackpoint>
            <Time>2021-01-13T14:27:05.000Z</Time>
            <Position>
              <LatitudeDegrees>43.3566636778414249420166015625</LatitudeDegrees>
              <LongitudeDegrees>-3.9554246328771114349365234375</LongitudeDegrees>
            </Position>
            <AltitudeMeters>30.200000762939453125</AltitudeMeters>
            <DistanceMeters>693.64031722273</DistanceMeters>
          </Trackpoint>
          <Trackpoint>
            <Time>2021-01-13T14:27:06.000Z</Time>
            <Position>
              <LatitudeDegrees>43.35668723098933696746826171875</LatitudeDegrees>
              <LongitudeDegrees>-3.955497555434703826904296875</LongitudeDegrees>
            </Position>
            <AltitudeMeters>30</AltitudeMeters>
            <DistanceMeters>700.09794008398</DistanceMeters>
          </Trackpoint>
          <Trackpoint>
            <Time>2021-01-13T14:27:07.000Z</Time>
            <Position>
              <LatitudeDegrees>43.3567149750888347625732421875</LatitudeDegrees>
              <LongitudeDegrees>-3.955567963421344757080078125</LongitudeDegrees>
            </Position>
            <AltitudeMeters>30</AltitudeMeters>
            <DistanceMeters>706.57789806721</DistanceMeters>
          </Trackpoint>
          <Trackpoint>
            <Time>2021-01-13T14:27:09.000Z</Time>
            <Position>
              <LatitudeDegrees>43.3567754924297332763671875</LatitudeDegrees>
              <LongitudeDegrees>-3.9557089470326900482177734375</LongitudeDegrees>
            </Position>
            <AltitudeMeters>29.799999237060546875</AltitudeMeters>
            <DistanceMeters>719.82756659691</DistanceMeters>
          </Trackpoint>
          <Trackpoint>
            <Time>2021-01-13T14:27:11.000Z</Time>
            <Position>
              <LatitudeDegrees>43.35682955570518970489501953125</LatitudeDegrees>
              <LongitudeDegrees>-3.9558304846286773681640625</LongitudeDegrees>
            </Position>
            <AltitudeMeters>29.6000003814697265625</AltitudeMeters>
            <DistanceMeters>731.35756162761</DistanceMeters>
          </Trackpoint>
          <Trackpoint>
            <Time>2021-01-13T14:27:13.000Z</Time>
            <Position>
              <LatitudeDegrees>43.35684992372989654541015625</LatitudeDegrees>
              <LongitudeDegrees>-3.95593014545738697052001953125</LongitudeDegrees>
            </Position>
            <AltitudeMeters>29.6000003814697265625</AltitudeMeters>
            <DistanceMeters>739.73501673775</DistanceMeters>
          </Trackpoint>
          <Trackpoint>
            <Time>2021-01-13T14:27:14.000Z</Time>
            <Position>
              <LatitudeDegrees>43.356835842132568359375</LatitudeDegrees>
              <LongitudeDegrees>-3.9559758268296718597412109375</LongitudeDegrees>
            </Position>
            <AltitudeMeters>29.200000762939453125</AltitudeMeters>
            <DistanceMeters>743.75094957196</DistanceMeters>
          </Trackpoint>
          <Trackpoint>
            <Time>2021-01-13T14:27:15.000Z</Time>
            <Position>
              <LatitudeDegrees>43.35680860094726085662841796875</LatitudeDegrees>
              <LongitudeDegrees>-3.956013880670070648193359375</LongitudeDegrees>
            </Position>
            <AltitudeMeters>29.200000762939453125</AltitudeMeters>
            <DistanceMeters>748.07231487544</DistanceMeters>
          </Trackpoint>
          <Trackpoint>
            <Time>2021-01-13T14:27:16.000Z</Time>
            <Position>
              <LatitudeDegrees>43.35677683353424072265625</LatitudeDegrees>
              <LongitudeDegrees>-3.956050090491771697998046875</LongitudeDegrees>
            </Position>
            <AltitudeMeters>29</AltitudeMeters>
            <DistanceMeters>752.66516350925</DistanceMeters>
          </Trackpoint>
          <Trackpoint>
            <Time>2021-01-13T14:27:17.000Z</Time>
            <Position>
              <LatitudeDegrees>43.35674791596829891204833984375</LatitudeDegrees>
              <LongitudeDegrees>-3.95608571358025074005126953125</LongitudeDegrees>
            </Position>
            <AltitudeMeters>28.799999237060546875</AltitudeMeters>
            <DistanceMeters>756.98443867219</DistanceMeters>
          </Trackpoint>
          <Trackpoint>
            <Time>2021-01-13T14:27:19.000Z</Time>
            <Position>
              <LatitudeDegrees>43.35668496787548065185546875</LatitudeDegrees>
              <LongitudeDegrees>-3.9561617374420166015625</LongitudeDegrees>
            </Position>
            <AltitudeMeters>28.200000762939453125</AltitudeMeters>
            <DistanceMeters>766.3086853443</DistanceMeters>
          </Trackpoint>
          <Trackpoint>
            <Time>2021-01-13T14:27:20.000Z</Time>
            <Position>
              <LatitudeDegrees>43.35665169171988964080810546875</LatitudeDegrees>
              <LongitudeDegrees>-3.956195600330829620361328125</LongitudeDegrees>
            </Position>
            <AltitudeMeters>27.799999237060546875</AltitudeMeters>
            <DistanceMeters>770.91625625746</DistanceMeters>
          </Trackpoint>
          <Trackpoint>
            <Time>2021-01-13T14:27:21.000Z</Time>
            <Position>
              <LatitudeDegrees>43.35661665536463260650634765625</LatitudeDegrees>
              <LongitudeDegrees>-3.95622451789677143096923828125</LongitudeDegrees>
            </Position>
            <AltitudeMeters>27.6000003814697265625</AltitudeMeters>
            <DistanceMeters>775.46365936876</DistanceMeters>
          </Trackpoint>
          <Trackpoint>
            <Time>2021-01-13T14:27:23.000Z</Time>
            <Position>
              <LatitudeDegrees>43.35654675029218196868896484375</LatitudeDegrees>
              <LongitudeDegrees>-3.956283442676067352294921875</LongitudeDegrees>
            </Position>
            <AltitudeMeters>27.6000003814697265625</AltitudeMeters>
            <DistanceMeters>784.58869826674</DistanceMeters>
          </Trackpoint>
          <Trackpoint>
            <Time>2021-01-13T14:27:25.000Z</Time>
            <Position>
              <LatitudeDegrees>43.35647801868617534637451171875</LatitudeDegrees>
              <LongitudeDegrees>-3.9563540183007717132568359375</LongitudeDegrees>
            </Position>
            <AltitudeMeters>27.3999996185302734375</AltitudeMeters>
            <DistanceMeters>794.13545486513</DistanceMeters>
          </Trackpoint>
          <Trackpoint>
            <Time>2021-01-13T14:27:26.000Z</Time>
            <Position>
              <LatitudeDegrees>43.3564427308738231658935546875</LatitudeDegrees>
              <LongitudeDegrees>-3.95639173686504364013671875</LongitudeDegrees>
            </Position>
            <AltitudeMeters>27.3999996185302734375</AltitudeMeters>
            <DistanceMeters>799.10962911383</DistanceMeters>
          </Trackpoint>
          <Trackpoint>
            <Time>2021-01-13T14:27:27.000Z</Time>
            <Position>
              <LatitudeDegrees>43.35640727542340755462646484375</LatitudeDegrees>
              <LongitudeDegrees>-3.9564321376383304595947265625</LongitudeDegrees>
            </Position>
            <AltitudeMeters>27.3999996185302734375</AltitudeMeters>
            <DistanceMeters>804.23402783944</DistanceMeters>
          </Trackpoint>
          <Trackpoint>
            <Time>2021-01-13T14:27:28.000Z</Time>
            <Position>
              <LatitudeDegrees>43.3563719876110553741455078125</LatitudeDegrees>
              <LongitudeDegrees>-3.95646910183131694793701171875</LongitudeDegrees>
            </Position>
            <AltitudeMeters>27.3999996185302734375</AltitudeMeters>
            <DistanceMeters>809.16993163163</DistanceMeters>
          </Trackpoint>
          <Trackpoint>
            <Time>2021-01-13T14:27:29.000Z</Time>
            <Position>
              <LatitudeDegrees>43.35634558461606502532958984375</LatitudeDegrees>
              <LongitudeDegrees>-3.9565119333565235137939453125</LongitudeDegrees>
            </Position>
            <AltitudeMeters>27.3999996185302734375</AltitudeMeters>
            <DistanceMeters>813.71534854362</DistanceMeters>
          </Trackpoint>
          <Trackpoint>
            <Time>2021-01-13T14:27:30.000Z</Time>
            <Position>
              <LatitudeDegrees>43.35632622241973876953125</LatitudeDegrees>
              <LongitudeDegrees>-3.9565588720142841339111328125</LongitudeDegrees>
            </Position>
            <AltitudeMeters>27.6000003814697265625</AltitudeMeters>
            <DistanceMeters>818.08244385396</DistanceMeters>
          </Trackpoint>
          <Trackpoint>
            <Time>2021-01-13T14:27:31.000Z</Time>
            <Position>
              <LatitudeDegrees>43.3563143201172351837158203125</LatitudeDegrees>
              <LongitudeDegrees>-3.95661260001361370086669921875</LongitudeDegrees>
            </Position>
            <AltitudeMeters>27.799999237060546875</AltitudeMeters>
            <DistanceMeters>822.62786076595</DistanceMeters>
          </Trackpoint>
          <Trackpoint>
            <Time>2021-01-13T14:27:32.000Z</Time>
            <Position>
              <LatitudeDegrees>43.3563062734901905059814453125</LatitudeDegrees>
              <LongitudeDegrees>-3.9566673338413238525390625</LongitudeDegrees>
            </Position>
            <AltitudeMeters>28</AltitudeMeters>
            <DistanceMeters>827.14737765564</DistanceMeters>
          </Trackpoint>
          <Trackpoint>
            <Time>2021-01-13T14:27:33.000Z</Time>
            <Position>
              <LatitudeDegrees>43.3563009090721607208251953125</LatitudeDegrees>
              <LongitudeDegrees>-3.95672190003097057342529296875</LongitudeDegrees>
            </Position>
            <AltitudeMeters>28.3999996185302734375</AltitudeMeters>
            <DistanceMeters>831.60351253918</DistanceMeters>
          </Trackpoint>
          <Trackpoint>
            <Time>2021-01-13T14:27:35.000Z</Time>
            <Position>
              <LatitudeDegrees>43.35629629902541637420654296875</LatitudeDegrees>
              <LongitudeDegrees>-3.956831954419612884521484375</LongitudeDegrees>
            </Position>
            <AltitudeMeters>29.3999996185302734375</AltitudeMeters>
            <DistanceMeters>840.52489661212</DistanceMeters>
          </Trackpoint>
          <Trackpoint>
            <Time>2021-01-13T14:27:37.000Z</Time>
            <Position>
              <LatitudeDegrees>43.35629194043576717376708984375</LatitudeDegrees>
              <LongitudeDegrees>-3.9569377340376377105712890625</LongitudeDegrees>
            </Position>
            <AltitudeMeters>30</AltitudeMeters>
            <DistanceMeters>849.0983919468</DistanceMeters>
          </Trackpoint>
          <Trackpoint>
            <Time>2021-01-13T14:27:38.000Z</Time>
            <Position>
              <LatitudeDegrees>43.35628842003643512725830078125</LatitudeDegrees>
              <LongitudeDegrees>-3.95698961801826953887939453125</LongitudeDegrees>
            </Position>
            <AltitudeMeters>30.6000003814697265625</AltitudeMeters>
            <DistanceMeters>853.31505182379</DistanceMeters>
          </Trackpoint>
          <Trackpoint>
            <Time>2021-01-13T14:27:39.000Z</Time>
            <Position>
              <LatitudeDegrees>43.3562868274748325347900390625</LatitudeDegrees>
              <LongitudeDegrees>-3.9570406638085842132568359375</LongitudeDegrees>
            </Position>
            <AltitudeMeters>31</AltitudeMeters>
            <DistanceMeters>857.45062491404</DistanceMeters>
          </Trackpoint>
          <Trackpoint>
            <Time>2021-01-13T14:27:41.000Z</Time>
            <Position>
              <LatitudeDegrees>43.3562834747135639190673828125</LatitudeDegrees>
              <LongitudeDegrees>-3.9571409113705158233642578125</LongitudeDegrees>
            </Position>
            <AltitudeMeters>31.6000003814697265625</AltitudeMeters>
            <DistanceMeters>865.57249098183</DistanceMeters>
          </Trackpoint>
          <Trackpoint>
            <Time>2021-01-13T14:27:42.000Z</Time>
            <Position>
              <LatitudeDegrees>43.356282301247119903564453125</LatitudeDegrees>
              <LongitudeDegrees>-3.9571917057037353515625</LongitudeDegrees>
            </Position>
            <AltitudeMeters>32</AltitudeMeters>
            <DistanceMeters>869.68617099563</DistanceMeters>
          </Trackpoint>
          <Trackpoint>
            <Time>2021-01-13T14:27:43.000Z</Time>
            <Position>
              <LatitudeDegrees>43.35628406144678592681884765625</LatitudeDegrees>
              <LongitudeDegrees>-3.957243673503398895263671875</LongitudeDegrees>
            </Position>
            <AltitudeMeters>32.40000152587890625</AltitudeMeters>
            <DistanceMeters>873.8974736606</DistanceMeters>
          </Trackpoint>
          <Trackpoint>
            <Time>2021-01-13T14:27:45.000Z</Time>
            <Position>
              <LatitudeDegrees>43.35628137923777103424072265625</LatitudeDegrees>
              <LongitudeDegrees>-3.95734249614179134368896484375</LongitudeDegrees>
            </Position>
            <AltitudeMeters>33</AltitudeMeters>
            <DistanceMeters>881.90005462804</DistanceMeters>
          </Trackpoint>
          <Trackpoint>
            <Time>2021-01-13T14:27:47.000Z</Time>
            <Position>
              <LatitudeDegrees>43.35630618967115879058837890625</LatitudeDegrees>
              <LongitudeDegrees>-3.9574403129518032073974609375</LongitudeDegrees>
            </Position>
            <AltitudeMeters>33.40000152587890625</AltitudeMeters>
            <DistanceMeters>890.28397465627</DistanceMeters>
          </Trackpoint>
          <Trackpoint>
            <Time>2021-01-13T14:27:49.000Z</Time>
            <Position>
              <LatitudeDegrees>43.356376849114894866943359375</LatitudeDegrees>
              <LongitudeDegrees>-3.957513906061649322509765625</LongitudeDegrees>
            </Position>
            <AltitudeMeters>33.799999237060546875</AltitudeMeters>
            <DistanceMeters>900.14937702581</DistanceMeters>
          </Trackpoint>
          <Trackpoint>
            <Time>2021-01-13T14:27:50.000Z</Time>
            <Position>
              <LatitudeDegrees>43.35642051883041858673095703125</LatitudeDegrees>
              <LongitudeDegrees>-3.95754282362759113311767578125</LongitudeDegrees>
            </Position>
            <AltitudeMeters>34.200000762939453125</AltitudeMeters>
            <DistanceMeters>905.54334646422</DistanceMeters>
          </Trackpoint>
          <Trackpoint>
            <Time>2021-01-13T14:27:51.000Z</Time>
            <Position>
              <LatitudeDegrees>43.35646511055529117584228515625</LatitudeDegrees>
              <LongitudeDegrees>-3.957569561898708343505859375</LongitudeDegrees>
            </Position>
            <AltitudeMeters>34.40000152587890625</AltitudeMeters>
            <DistanceMeters>910.95820179133</DistanceMeters>
          </Trackpoint>
          <Trackpoint>
            <Time>2021-01-13T14:27:53.000Z</Time>
            <Position>
              <LatitudeDegrees>43.35655814968049526214599609375</LatitudeDegrees>
              <LongitudeDegrees>-3.95761189050972461700439453125</LongitudeDegrees>
            </Position>
            <AltitudeMeters>34.59999847412109375</AltitudeMeters>
            <DistanceMeters>921.86518244927</DistanceMeters>
          </Trackpoint>
          <Trackpoint>
            <Time>2021-01-13T14:27:55.000Z</Time>
            <Position>
              <LatitudeDegrees>43.356656469404697418212890625</LatitudeDegrees>
              <LongitudeDegrees>-3.95765262655913829803466796875</LongitudeDegrees>
            </Position>
            <AltitudeMeters>35</AltitudeMeters>
            <DistanceMeters>933.29449064523</DistanceMeters>
          </Trackpoint>
          <Trackpoint>
            <Time>2021-01-13T14:27:56.000Z</Time>
            <Position>
              <LatitudeDegrees>43.35670667700469493865966796875</LatitudeDegrees>
              <LongitudeDegrees>-3.95767743699252605438232421875</LongitudeDegrees>
            </Position>
            <AltitudeMeters>35</AltitudeMeters>
            <DistanceMeters>939.23194956611</DistanceMeters>
          </Trackpoint>
          <Trackpoint>
            <Time>2021-01-13T14:27:57.000Z</Time>
            <Position>
              <LatitudeDegrees>43.35675680078566074371337890625</LatitudeDegrees>
              <LongitudeDegrees>-3.95770467817783355712890625</LongitudeDegrees>
            </Position>
            <AltitudeMeters>35.200000762939453125</AltitudeMeters>
            <DistanceMeters>945.22993460717</DistanceMeters>
          </Trackpoint>
          <Trackpoint>
            <Time>2021-01-13T14:27:59.000Z</Time>
            <Position>
              <LatitudeDegrees>43.3568586409091949462890625</LatitudeDegrees>
              <LongitudeDegrees>-3.95776544697582721710205078125</LongitudeDegrees>
            </Position>
            <AltitudeMeters>35.40000152587890625</AltitudeMeters>
            <DistanceMeters>957.58560020484</DistanceMeters>
          </Trackpoint>
          <Trackpoint>
            <Time>2021-01-13T14:28:01.000Z</Time>
            <Position>
              <LatitudeDegrees>43.356963582336902618408203125</LatitudeDegrees>
              <LongitudeDegrees>-3.95783183164894580841064453125</LongitudeDegrees>
            </Position>
            <AltitudeMeters>35.40000152587890625</AltitudeMeters>
            <DistanceMeters>970.44198069199</DistanceMeters>
          </Trackpoint>
          <Trackpoint>
            <Time>2021-01-13T14:28:03.000Z</Time>
            <Position>
              <LatitudeDegrees>43.357068188488483428955078125</LatitudeDegrees>
              <LongitudeDegrees>-3.9579103700816631317138671875</LongitudeDegrees>
            </Position>
            <AltitudeMeters>35.40000152587890625</AltitudeMeters>
            <DistanceMeters>983.70663445718</DistanceMeters>
          </Trackpoint>
          <Trackpoint>
            <Time>2021-01-13T14:28:05.000Z</Time>
            <Position>
              <LatitudeDegrees>43.35716784931719303131103515625</LatitudeDegrees>
              <LongitudeDegrees>-3.9580012299120426177978515625</LongitudeDegrees>
            </Position>
            <AltitudeMeters>35.40000152587890625</AltitudeMeters>
            <DistanceMeters>997.01512495655</DistanceMeters>
          </Trackpoint>
          <Trackpoint>
            <Time>2021-01-13T14:28:06.000Z</Time>
            <Position>
              <LatitudeDegrees>43.3572111837565898895263671875</LatitudeDegrees>
              <LongitudeDegrees>-3.95805562846362590789794921875</LongitudeDegrees>
            </Position>
            <AltitudeMeters>35.40000152587890625</AltitudeMeters>
            <DistanceMeters>1003.545057649</DistanceMeters>
          </Trackpoint>
          <Trackpoint>
            <Time>2021-01-13T14:28:07.000Z</Time>
            <Position>
              <LatitudeDegrees>43.35724898613989353179931640625</LatitudeDegrees>
              <LongitudeDegrees>-3.95811798982322216033935546875</LongitudeDegrees>
            </Position>
            <AltitudeMeters>35.40000152587890625</AltitudeMeters>
            <DistanceMeters>1010.1149713016</DistanceMeters>
          </Trackpoint>
          <Trackpoint>
            <Time>2021-01-13T14:28:08.000Z</Time>
            <Position>
              <LatitudeDegrees>43.35728335194289684295654296875</LatitudeDegrees>
              <LongitudeDegrees>-3.95818403922021389007568359375</LongitudeDegrees>
            </Position>
            <AltitudeMeters>35.40000152587890625</AltitudeMeters>
            <DistanceMeters>1016.6876332972</DistanceMeters>
          </Trackpoint>
          <Trackpoint>
            <Time>2021-01-13T14:28:09.000Z</Time>
            <Position>
              <LatitudeDegrees>43.35731402970850467681884765625</LatitudeDegrees>
              <LongitudeDegrees>-3.95825327374041080474853515625</LongitudeDegrees>
            </Position>
            <AltitudeMeters>35.40000152587890625</AltitudeMeters>
            <DistanceMeters>1023.2492950139</DistanceMeters>
          </Trackpoint>
          <Trackpoint>
            <Time>2021-01-13T14:28:11.000Z</Time>
            <Position>
              <LatitudeDegrees>43.3573548495769500732421875</LatitudeDegrees>
              <LongitudeDegrees>-3.95840431563556194305419921875</LongitudeDegrees>
            </Position>
            <AltitudeMeters>35.200000762939453125</AltitudeMeters>
            <DistanceMeters>1036.2890933037</DistanceMeters>
          </Trackpoint>
          <Trackpoint>
            <Time>2021-01-13T14:28:12.000Z</Time>
            <Position>
              <LatitudeDegrees>43.35736398585140705108642578125</LatitudeDegrees>
              <LongitudeDegrees>-3.95848461426794528961181640625</LongitudeDegrees>
            </Position>
            <AltitudeMeters>35</AltitudeMeters>
            <DistanceMeters>1042.8665621363</DistanceMeters>
          </Trackpoint>
          <Trackpoint>
            <Time>2021-01-13T14:28:13.000Z</Time>
            <Position>
              <LatitudeDegrees>43.357366584241390228271484375</LatitudeDegrees>
              <LongitudeDegrees>-3.9585671760141849517822265625</LongitudeDegrees>
            </Position>
            <AltitudeMeters>34.799999237060546875</AltitudeMeters>
            <DistanceMeters>1049.5549848728</DistanceMeters>
          </Trackpoint>
          <Trackpoint>
            <Time>2021-01-13T14:28:15.000Z</Time>
            <Position>
              <LatitudeDegrees>43.35735795088112354278564453125</LatitudeDegrees>
              <LongitudeDegrees>-3.958736993372440338134765625</LongitudeDegrees>
            </Position>
            <AltitudeMeters>34.200000762939453125</AltitudeMeters>
            <DistanceMeters>1063.3312367805</DistanceMeters>
          </Trackpoint>
          <Trackpoint>
            <Time>2021-01-13T14:28:16.000Z</Time>
            <Position>
              <LatitudeDegrees>43.35735057480633258819580078125</LatitudeDegrees>
              <LongitudeDegrees>-3.95882441662251949310302734375</LongitudeDegrees>
            </Position>
            <AltitudeMeters>34</AltitudeMeters>
            <DistanceMeters>1070.4525364729</DistanceMeters>
          </Trackpoint>
          <Trackpoint>
            <Time>2021-01-13T14:28:17.000Z</Time>
            <Position>
              <LatitudeDegrees>43.35734051652252674102783203125</LatitudeDegrees>
              <LongitudeDegrees>-3.958912678062915802001953125</LongitudeDegrees>
            </Position>
            <AltitudeMeters>33.799999237060546875</AltitudeMeters>
            <DistanceMeters>1077.6833139284</DistanceMeters>
          </Trackpoint>
          <Trackpoint>
            <Time>2021-01-13T14:28:19.000Z</Time>
            <Position>
              <LatitudeDegrees>43.35731268860399723052978515625</LatitudeDegrees>
              <LongitudeDegrees>-3.9590908773243427276611328125</LongitudeDegrees>
            </Position>
            <AltitudeMeters>33.59999847412109375</AltitudeMeters>
            <DistanceMeters>1092.4332844966</DistanceMeters>
          </Trackpoint>
          <Trackpoint>
            <Time>2021-01-13T14:28:21.000Z</Time>
            <Position>
              <LatitudeDegrees>43.35727773606777191162109375</LatitudeDegrees>
              <LongitudeDegrees>-3.95926781930029392242431640625</LongitudeDegrees>
            </Position>
            <AltitudeMeters>32.799999237060546875</AltitudeMeters>
            <DistanceMeters>1107.2714556729</DistanceMeters>
          </Trackpoint>
          <Trackpoint>
            <Time>2021-01-13T14:28:23.000Z</Time>
            <Position>
              <LatitudeDegrees>43.35722920484840869903564453125</LatitudeDegrees>
              <LongitudeDegrees>-3.95944082178175449371337890625</LongitudeDegrees>
            </Position>
            <AltitudeMeters>32.40000152587890625</AltitudeMeters>
            <DistanceMeters>1122.2778558528</DistanceMeters>
          </Trackpoint>
          <Trackpoint>
            <Time>2021-01-13T14:28:24.000Z</Time>
            <Position>
              <LatitudeDegrees>43.35719819180667400360107421875</LatitudeDegrees>
              <LongitudeDegrees>-3.95952514372766017913818359375</LongitudeDegrees>
            </Position>
            <AltitudeMeters>32.200000762939453125</AltitudeMeters>
            <DistanceMeters>1129.9255878779</DistanceMeters>
          </Trackpoint>
          <Trackpoint>
            <Time>2021-01-13T14:28:25.000Z</Time>
            <Position>
              <LatitudeDegrees>43.3571622334420680999755859375</LatitudeDegrees>
              <LongitudeDegrees>-3.9596065320074558258056640625</LongitudeDegrees>
            </Position>
            <AltitudeMeters>32</AltitudeMeters>
            <DistanceMeters>1137.6327172299</DistanceMeters>
          </Trackpoint>
          <Trackpoint>
            <Time>2021-01-13T14:28:27.000Z</Time>
            <Position>
              <LatitudeDegrees>43.35706986486911773681640625</LatitudeDegrees>
              <LongitudeDegrees>-3.9597513712942600250244140625</LongitudeDegrees>
            </Position>
            <AltitudeMeters>31.799999237060546875</AltitudeMeters>
            <DistanceMeters>1153.2240500104</DistanceMeters>
          </Trackpoint>
          <Trackpoint>
            <Time>2021-01-13T14:28:28.000Z</Time>
            <Position>
              <LatitudeDegrees>43.35701831616461277008056640625</LatitudeDegrees>
              <LongitudeDegrees>-3.9598187617957592010498046875</LongitudeDegrees>
            </Position>
            <AltitudeMeters>31.799999237060546875</AltitudeMeters>
            <DistanceMeters>1161.1398380599</DistanceMeters>
          </Trackpoint>
          <Trackpoint>
            <Time>2021-01-13T14:28:29.000Z</Time>
            <Position>
              <LatitudeDegrees>43.35696450434625148773193359375</LatitudeDegrees>
              <LongitudeDegrees>-3.95988439209759235382080078125</LongitudeDegrees>
            </Position>
            <AltitudeMeters>31.3999996185302734375</AltitudeMeters>
            <DistanceMeters>1169.1446755002</DistanceMeters>
          </Trackpoint>
          <Trackpoint>
            <Time>2021-01-13T14:28:31.000Z</Time>
            <Position>
              <LatitudeDegrees>43.35685352794826030731201171875</LatitudeDegrees>
              <LongitudeDegrees>-3.960015736520290374755859375</LongitudeDegrees>
            </Position>
            <AltitudeMeters>30.3999996185302734375</AltitudeMeters>
            <DistanceMeters>1185.4405795274</DistanceMeters>
          </Trackpoint>
          <Trackpoint>
            <Time>2021-01-13T14:28:33.000Z</Time>
            <Position>
              <LatitudeDegrees>43.35673634894192218780517578125</LatitudeDegrees>
              <LongitudeDegrees>-3.960148505866527557373046875</LongitudeDegrees>
            </Position>
            <AltitudeMeters>30</AltitudeMeters>
            <DistanceMeters>1202.3387769849</DistanceMeters>
          </Trackpoint>
          <Trackpoint>
            <Time>2021-01-13T14:28:35.000Z</Time>
            <Position>
              <LatitudeDegrees>43.35661799646914005279541015625</LatitudeDegrees>
              <LongitudeDegrees>-3.96029166877269744873046875</LongitudeDegrees>
            </Position>
            <AltitudeMeters>29.3999996185302734375</AltitudeMeters>
            <DistanceMeters>1219.8814394171</DistanceMeters>
          </Trackpoint>
          <Trackpoint>
            <Time>2021-01-13T14:28:36.000Z</Time>
            <Position>
              <LatitudeDegrees>43.35656150244176387786865234375</LatitudeDegrees>
              <LongitudeDegrees>-3.960369117558002471923828125</LongitudeDegrees>
            </Position>
            <AltitudeMeters>29</AltitudeMeters>
            <DistanceMeters>1228.7591929168</DistanceMeters>
          </Trackpoint>
          <Trackpoint>
            <Time>2021-01-13T14:28:37.000Z</Time>
            <Position>
              <LatitudeDegrees>43.35650903172791004180908203125</LatitudeDegrees>
              <LongitudeDegrees>-3.9604494161903858184814453125</LongitudeDegrees>
            </Position>
            <AltitudeMeters>28.6000003814697265625</AltitudeMeters>
            <DistanceMeters>1237.4964846172</DistanceMeters>
          </Trackpoint>
          <Trackpoint>
            <Time>2021-01-13T14:28:38.000Z</Time>
            <Position>
              <LatitudeDegrees>43.35646024905145168304443359375</LatitudeDegrees>
              <LongitudeDegrees>-3.9605322293937206268310546875</LongitudeDegrees>
            </Position>
            <AltitudeMeters>28.200000762939453125</AltitudeMeters>
            <DistanceMeters>1246.1214350371</DistanceMeters>
          </Trackpoint>
          <Trackpoint>
            <Time>2021-01-13T14:28:39.000Z</Time>
            <Position>
              <LatitudeDegrees>43.356415741145610809326171875</LatitudeDegrees>
              <LongitudeDegrees>-3.960615210235118865966796875</LongitudeDegrees>
            </Position>
            <AltitudeMeters>28</AltitudeMeters>
            <DistanceMeters>1254.4664904315</DistanceMeters>
          </Trackpoint>
          <Trackpoint>
            <Time>2021-01-13T14:28:40.000Z</Time>
            <Position>
              <LatitudeDegrees>43.3563756756484508514404296875</LatitudeDegrees>
              <LongitudeDegrees>-3.9606978558003902435302734375</LongitudeDegrees>
            </Position>
            <AltitudeMeters>27.6000003814697265625</AltitudeMeters>
            <DistanceMeters>1262.5050989574</DistanceMeters>
          </Trackpoint>
          <Trackpoint>
            <Time>2021-01-13T14:28:41.000Z</Time>
            <Position>
              <LatitudeDegrees>43.35633896291255950927734375</LatitudeDegrees>
              <LongitudeDegrees>-3.96077848970890045166015625</LongitudeDegrees>
            </Position>
            <AltitudeMeters>27.3999996185302734375</AltitudeMeters>
            <DistanceMeters>1270.2040223742</DistanceMeters>
          </Trackpoint>
          <Trackpoint>
            <Time>2021-01-13T14:28:42.000Z</Time>
            <Position>
              <LatitudeDegrees>43.35630409419536590576171875</LatitudeDegrees>
              <LongitudeDegrees>-3.96085602231323719024658203125</LongitudeDegrees>
            </Position>
            <AltitudeMeters>26.799999237060546875</AltitudeMeters>
            <DistanceMeters>1277.5819150818</DistanceMeters>
          </Trackpoint>
          <Trackpoint>
            <Time>2021-01-13T14:28:43.000Z</Time>
            <Position>
              <LatitudeDegrees>43.356269560754299163818359375</LatitudeDegrees>
              <LongitudeDegrees>-3.96093137562274932861328125</LongitudeDegrees>
            </Position>
            <AltitudeMeters>26.6000003814697265625</AltitudeMeters>
            <DistanceMeters>1284.7901783857</DistanceMeters>
          </Trackpoint>
          <Trackpoint>
            <Time>2021-01-13T14:28:45.000Z</Time>
            <Position>
              <LatitudeDegrees>43.3562063612043857574462890625</LatitudeDegrees>
              <LongitudeDegrees>-3.96108023822307586669921875</LongitudeDegrees>
            </Position>
            <AltitudeMeters>26</AltitudeMeters>
            <DistanceMeters>1298.740669686</DistanceMeters>
          </Trackpoint>
          <Trackpoint>
            <Time>2021-01-13T14:28:47.000Z</Time>
            <Position>
              <LatitudeDegrees>43.35614391602575778961181640625</LatitudeDegrees>
              <LongitudeDegrees>-3.96122516132891178131103515625</LongitudeDegrees>
            </Position>
            <AltitudeMeters>25.6000003814697265625</AltitudeMeters>
            <DistanceMeters>1312.3739401464</DistanceMeters>
          </Trackpoint>
          <Trackpoint>
            <Time>2021-01-13T14:28:49.000Z</Time>
            <Position>
              <LatitudeDegrees>43.3560829795897006988525390625</LatitudeDegrees>
              <LongitudeDegrees>-3.96136949770152568817138671875</LongitudeDegrees>
            </Position>
            <AltitudeMeters>25.200000762939453125</AltitudeMeters>
            <DistanceMeters>1325.8811110002</DistanceMeters>
          </Trackpoint>
          <Trackpoint>
            <Time>2021-01-13T14:28:51.000Z</Time>
            <Position>
              <LatitudeDegrees>43.35603293962776660919189453125</LatitudeDegrees>
              <LongitudeDegrees>-3.96151651628315448760986328125</LongitudeDegrees>
            </Position>
            <AltitudeMeters>25</AltitudeMeters>
            <DistanceMeters>1339.0175017086</DistanceMeters>
          </Trackpoint>
          <Trackpoint>
            <Time>2021-01-13T14:28:53.000Z</Time>
            <Position>
              <LatitudeDegrees>43.3560108952224254608154296875</LatitudeDegrees>
              <LongitudeDegrees>-3.96167392842471599578857421875</LongitudeDegrees>
            </Position>
            <AltitudeMeters>24.799999237060546875</AltitudeMeters>
            <DistanceMeters>1351.9906495441</DistanceMeters>
          </Trackpoint>
          <Trackpoint>
            <Time>2021-01-13T14:28:54.000Z</Time>
            <Position>
              <LatitudeDegrees>43.3560129068791866302490234375</LatitudeDegrees>
              <LongitudeDegrees>-3.96175405941903591156005859375</LongitudeDegrees>
            </Position>
            <AltitudeMeters>24.799999237060546875</AltitudeMeters>
            <DistanceMeters>1358.4803549715</DistanceMeters>
          </Trackpoint>
          <Trackpoint>
            <Time>2021-01-13T14:28:55.000Z</Time>
            <Position>
              <LatitudeDegrees>43.3560219593346118927001953125</LatitudeDegrees>
              <LongitudeDegrees>-3.9618334360420703887939453125</LongitudeDegrees>
            </Position>
            <AltitudeMeters>24.799999237060546875</AltitudeMeters>
            <DistanceMeters>1364.982571356</DistanceMeters>
          </Trackpoint>
          <Trackpoint>
            <Time>2021-01-13T14:28:57.000Z</Time>
            <Position>
              <LatitudeDegrees>43.35606462322175502777099609375</LatitudeDegrees>
              <LongitudeDegrees>-3.96198221482336521148681640625</LongitudeDegrees>
            </Position>
            <AltitudeMeters>24.6000003814697265625</AltitudeMeters>
            <DistanceMeters>1377.9250563583</DistanceMeters>
          </Trackpoint>
          <Trackpoint>
            <Time>2021-01-13T14:28:58.000Z</Time>
            <Position>
              <LatitudeDegrees>43.35609622299671173095703125</LatitudeDegrees>
              <LongitudeDegrees>-3.962050862610340118408203125</LongitudeDegrees>
            </Position>
            <AltitudeMeters>24.6000003814697265625</AltitudeMeters>
            <DistanceMeters>1384.4997788572</DistanceMeters>
          </Trackpoint>
          <Trackpoint>
            <Time>2021-01-13T14:28:59.000Z</Time>
            <Position>
              <LatitudeDegrees>43.35613251663744449615478515625</LatitudeDegrees>
              <LongitudeDegrees>-3.9621154032647609710693359375</LongitudeDegrees>
            </Position>
            <AltitudeMeters>24.6000003814697265625</AltitudeMeters>
            <DistanceMeters>1391.1025971246</DistanceMeters>
          </Trackpoint>
          <Trackpoint>
            <Time>2021-01-13T14:29:00.000Z</Time>
            <Position>
              <LatitudeDegrees>43.35617157630622386932373046875</LatitudeDegrees>
              <LongitudeDegrees>-3.96217684261500835418701171875</LongitudeDegrees>
            </Position>
            <AltitudeMeters>24.6000003814697265625</AltitudeMeters>
            <DistanceMeters>1397.7081500444</DistanceMeters>
          </Trackpoint>
          <Trackpoint>
            <Time>2021-01-13T14:29:01.000Z</Time>
            <Position>
              <LatitudeDegrees>43.356211893260478973388671875</LatitudeDegrees>
              <LongitudeDegrees>-3.96223635412752628326416015625</LongitudeDegrees>
            </Position>
            <AltitudeMeters>24.6000003814697265625</AltitudeMeters>
            <DistanceMeters>1404.2911081071</DistanceMeters>
          </Trackpoint>
          <Trackpoint>
            <Time>2021-01-13T14:29:03.000Z</Time>
            <Position>
              <LatitudeDegrees>43.35629344917833805084228515625</LatitudeDegrees>
              <LongitudeDegrees>-3.9623562991619110107421875</LongitudeDegrees>
            </Position>
            <AltitudeMeters>24.799999237060546875</AltitudeMeters>
            <DistanceMeters>1417.5809262084</DistanceMeters>
          </Trackpoint>
          <Trackpoint>
            <Time>2021-01-13T14:29:04.000Z</Time>
            <Position>
              <LatitudeDegrees>43.35633602924644947052001953125</LatitudeDegrees>
              <LongitudeDegrees>-3.96241597831249237060546875</LongitudeDegrees>
            </Position>
            <AltitudeMeters>24.799999237060546875</AltitudeMeters>
            <DistanceMeters>1424.3472019618</DistanceMeters>
          </Trackpoint>
          <Trackpoint>
            <Time>2021-01-13T14:29:05.000Z</Time>
            <Position>
              <LatitudeDegrees>43.3563796989619731903076171875</LatitudeDegrees>
              <LongitudeDegrees>-3.962473981082439422607421875</LongitudeDegrees>
            </Position>
            <AltitudeMeters>24.799999237060546875</AltitudeMeters>
            <DistanceMeters>1431.1034610173</DistanceMeters>
          </Trackpoint>
          <Trackpoint>
            <Time>2021-01-13T14:29:07.000Z</Time>
            <Position>
              <LatitudeDegrees>43.356468379497528076171875</LatitudeDegrees>
              <LongitudeDegrees>-3.96259023807942867279052734375</LongitudeDegrees>
            </Position>
            <AltitudeMeters>25</AltitudeMeters>
            <DistanceMeters>1444.7397117532</DistanceMeters>
          </Trackpoint>
          <Trackpoint>
            <Time>2021-01-13T14:29:09.000Z</Time>
            <Position>
              <LatitudeDegrees>43.35655462928116321563720703125</LatitudeDegrees>
              <LongitudeDegrees>-3.962709009647369384765625</LongitudeDegrees>
            </Position>
            <AltitudeMeters>25.200000762939453125</AltitudeMeters>
            <DistanceMeters>1458.3242118253</DistanceMeters>
          </Trackpoint>
          <Trackpoint>
            <Time>2021-01-13T14:29:11.000Z</Time>
            <Position>
              <LatitudeDegrees>43.35663962177932262420654296875</LatitudeDegrees>
              <LongitudeDegrees>-3.962830044329166412353515625</LongitudeDegrees>
            </Position>
            <AltitudeMeters>25.200000762939453125</AltitudeMeters>
            <DistanceMeters>1471.9419080274</DistanceMeters>
          </Trackpoint>
          <Trackpoint>
            <Time>2021-01-13T14:29:13.000Z</Time>
            <Position>
              <LatitudeDegrees>43.35672981105744838714599609375</LatitudeDegrees>
              <LongitudeDegrees>-3.96294915117323398590087890625</LongitudeDegrees>
            </Position>
            <AltitudeMeters>25.200000762939453125</AltitudeMeters>
            <DistanceMeters>1485.8586993088</DistanceMeters>
          </Trackpoint>
          <Trackpoint>
            <Time>2021-01-13T14:29:14.000Z</Time>
            <Position>
              <LatitudeDegrees>43.35677624680101871490478515625</LatitudeDegrees>
              <LongitudeDegrees>-3.96300933323800563812255859375</LongitudeDegrees>
            </Position>
            <AltitudeMeters>25.200000762939453125</AltitudeMeters>
            <DistanceMeters>1492.9609529664</DistanceMeters>
          </Trackpoint>
          <Trackpoint>
            <Time>2021-01-13T14:29:15.000Z</Time>
            <Position>
              <LatitudeDegrees>43.35682310163974761962890625</LatitudeDegrees>
              <LongitudeDegrees>-3.9630711078643798828125</LongitudeDegrees>
            </Position>
            <AltitudeMeters>25.200000762939453125</AltitudeMeters>
            <DistanceMeters>1500.1854835287</DistanceMeters>
          </Trackpoint>
          <Trackpoint>
            <Time>2021-01-13T14:29:17.000Z</Time>
            <Position>
              <LatitudeDegrees>43.35691974498331546783447265625</LatitudeDegrees>
              <LongitudeDegrees>-3.96319759078323841094970703125</LongitudeDegrees>
            </Position>
            <AltitudeMeters>25.200000762939453125</AltitudeMeters>
            <DistanceMeters>1515.0339968029</DistanceMeters>
          </Trackpoint>
          <Trackpoint>
            <Time>2021-01-13T14:29:19.000Z</Time>
            <Position>
              <LatitudeDegrees>43.3570160530507564544677734375</LatitudeDegrees>
              <LongitudeDegrees>-3.9633291028439998626708984375</LongitudeDegrees>
            </Position>
            <AltitudeMeters>25.200000762939453125</AltitudeMeters>
            <DistanceMeters>1530.1393591483</DistanceMeters>
          </Trackpoint>
          <Trackpoint>
            <Time>2021-01-13T14:29:21.000Z</Time>
            <Position>
              <LatitudeDegrees>43.357104398310184478759765625</LatitudeDegrees>
              <LongitudeDegrees>-3.96346882916986942291259765625</LongitudeDegrees>
            </Position>
            <AltitudeMeters>25.200000762939453125</AltitudeMeters>
            <DistanceMeters>1545.1240807292</DistanceMeters>
          </Trackpoint>
          <Trackpoint>
            <Time>2021-01-13T14:29:22.000Z</Time>
            <Position>
              <LatitudeDegrees>43.35714320652186870574951171875</LatitudeDegrees>
              <LongitudeDegrees>-3.96354258991777896881103515625</LongitudeDegrees>
            </Position>
            <AltitudeMeters>25.200000762939453125</AltitudeMeters>
            <DistanceMeters>1552.4915626263</DistanceMeters>
          </Trackpoint>
          <Trackpoint>
            <Time>2021-01-13T14:29:23.000Z</Time>
            <Position>
              <LatitudeDegrees>43.357176817953586578369140625</LatitudeDegrees>
              <LongitudeDegrees>-3.9636184461414813995361328125</LongitudeDegrees>
            </Position>
            <AltitudeMeters>25</AltitudeMeters>
            <DistanceMeters>1559.6803822435</DistanceMeters>
          </Trackpoint>
          <Trackpoint>
            <Time>2021-01-13T14:29:25.000Z</Time>
            <Position>
              <LatitudeDegrees>43.35722233168780803680419921875</LatitudeDegrees>
              <LongitudeDegrees>-3.9637807197868824005126953125</LongitudeDegrees>
            </Position>
            <AltitudeMeters>25</AltitudeMeters>
            <DistanceMeters>1573.7558885286</DistanceMeters>
          </Trackpoint>
          <Trackpoint>
            <Time>2021-01-13T14:29:26.000Z</Time>
            <Position>
              <LatitudeDegrees>43.3572396822273731231689453125</LatitudeDegrees>
              <LongitudeDegrees>-3.96386303007602691650390625</LongitudeDegrees>
            </Position>
            <AltitudeMeters>24.799999237060546875</AltitudeMeters>
            <DistanceMeters>1580.690885799</DistanceMeters>
          </Trackpoint>
          <Trackpoint>
            <Time>2021-01-13T14:29:27.000Z</Time>
            <Position>
              <LatitudeDegrees>43.35725803859531879425048828125</LatitudeDegrees>
              <LongitudeDegrees>-3.96394240669906139373779296875</LongitudeDegrees>
            </Position>
            <AltitudeMeters>24.6000003814697265625</AltitudeMeters>
            <DistanceMeters>1587.4317570087</DistanceMeters>
          </Trackpoint>
          <Trackpoint>
            <Time>2021-01-13T14:29:29.000Z</Time>
            <Position>
              <LatitudeDegrees>43.35733917541801929473876953125</LatitudeDegrees>
              <LongitudeDegrees>-3.9640593342483043670654296875</LongitudeDegrees>
            </Position>
            <AltitudeMeters>24.3999996185302734375</AltitudeMeters>
            <DistanceMeters>1600.511658702</DistanceMeters>
          </Trackpoint>
          <Trackpoint>
            <Time>2021-01-13T14:29:31.000Z</Time>
            <Position>
              <LatitudeDegrees>43.3574549295008182525634765625</LatitudeDegrees>
              <LongitudeDegrees>-3.9641294069588184356689453125</LongitudeDegrees>
            </Position>
            <AltitudeMeters>24.200000762939453125</AltitudeMeters>
            <DistanceMeters>1614.5878065179</DistanceMeters>
          </Trackpoint>
          <Trackpoint>
            <Time>2021-01-13T14:29:33.000Z</Time>
            <Position>
              <LatitudeDegrees>43.3575726114213466644287109375</LatitudeDegrees>
              <LongitudeDegrees>-3.9641967974603176116943359375</LongitudeDegrees>
            </Position>
            <AltitudeMeters>23.799999237060546875</AltitudeMeters>
            <DistanceMeters>1628.7757755088</DistanceMeters>
          </Trackpoint>
          <Trackpoint>
            <Time>2021-01-13T14:29:35.000Z</Time>
            <Position>
              <LatitudeDegrees>43.357687778770923614501953125</LatitudeDegrees>
              <LongitudeDegrees>-3.96426611579954624176025390625</LongitudeDegrees>
            </Position>
            <AltitudeMeters>23.3999996185302734375</AltitudeMeters>
            <DistanceMeters>1642.7679550167</DistanceMeters>
          </Trackpoint>
          <Trackpoint>
            <Time>2021-01-13T14:29:37.000Z</Time>
            <Position>
              <LatitudeDegrees>43.35780403576791286468505859375</LatitudeDegrees>
              <LongitudeDegrees>-3.96433669142425060272216796875</LongitudeDegrees>
            </Position>
            <AltitudeMeters>23.200000762939453125</AltitudeMeters>
            <DistanceMeters>1656.9119400825</DistanceMeters>
          </Trackpoint>
          <Trackpoint>
            <Time>2021-01-13T14:29:39.000Z</Time>
            <Position>
              <LatitudeDegrees>43.35792004130780696868896484375</LatitudeDegrees>
              <LongitudeDegrees>-3.96440927870571613311767578125</LongitudeDegrees>
            </Position>
            <AltitudeMeters>22.799999237060546875</AltitudeMeters>
            <DistanceMeters>1671.0967264159</DistanceMeters>
          </Trackpoint>
          <Trackpoint>
            <Time>2021-01-13T14:29:41.000Z</Time>
            <Position>
              <LatitudeDegrees>43.3580376394093036651611328125</LatitudeDegrees>
              <LongitudeDegrees>-3.96447951905429363250732421875</LongitudeDegrees>
            </Position>
            <AltitudeMeters>22.6000003814697265625</AltitudeMeters>
            <DistanceMeters>1685.3665625681</DistanceMeters>
          </Trackpoint>
          <Trackpoint>
            <Time>2021-01-13T14:29:43.000Z</Time>
            <Position>
              <LatitudeDegrees>43.35815540514886379241943359375</LatitudeDegrees>
              <LongitudeDegrees>-3.9645464904606342315673828125</LongitudeDegrees>
            </Position>
            <AltitudeMeters>22.3999996185302734375</AltitudeMeters>
            <DistanceMeters>1699.5507122843</DistanceMeters>
          </Trackpoint>
          <Trackpoint>
            <Time>2021-01-13T14:29:45.000Z</Time>
            <Position>
              <LatitudeDegrees>43.3582750149071216583251953125</LatitudeDegrees>
              <LongitudeDegrees>-3.96460608579218387603759765625</LongitudeDegrees>
            </Position>
            <AltitudeMeters>22.200000762939453125</AltitudeMeters>
            <DistanceMeters>1713.7103304742</DistanceMeters>
          </Trackpoint>
          <Trackpoint>
            <Time>2021-01-13T14:29:46.000Z</Time>
            <Position>
              <LatitudeDegrees>43.35833611898124217987060546875</LatitudeDegrees>
              <LongitudeDegrees>-3.96462670527398586273193359375</LongitudeDegrees>
            </Position>
            <AltitudeMeters>22.200000762939453125</AltitudeMeters>
            <DistanceMeters>1720.7127097192</DistanceMeters>
          </Trackpoint>
          <Trackpoint>
            <Time>2021-01-13T14:29:47.000Z</Time>
            <Position>
              <LatitudeDegrees>43.358398564159870147705078125</LatitudeDegrees>
              <LongitudeDegrees>-3.964637182652950286865234375</LongitudeDegrees>
            </Position>
            <AltitudeMeters>22.200000762939453125</AltitudeMeters>
            <DistanceMeters>1727.7150889642</DistanceMeters>
          </Trackpoint>
          <Trackpoint>
            <Time>2021-01-13T14:29:49.000Z</Time>
            <Position>
              <LatitudeDegrees>43.35852622054517269134521484375</LatitudeDegrees>
              <LongitudeDegrees>-3.96464162506163120269775390625</LongitudeDegrees>
            </Position>
            <AltitudeMeters>22.200000762939453125</AltitudeMeters>
            <DistanceMeters>1741.9278582247</DistanceMeters>
          </Trackpoint>
          <Trackpoint>
            <Time>2021-01-13T14:29:50.000Z</Time>
            <Position>
              <LatitudeDegrees>43.3585905097424983978271484375</LatitudeDegrees>
              <LongitudeDegrees>-3.96464221179485321044921875</LongitudeDegrees>
            </Position>
            <AltitudeMeters>22</AltitudeMeters>
            <DistanceMeters>1749.0833130277</DistanceMeters>
          </Trackpoint>
          <Trackpoint>
            <Time>2021-01-13T14:29:51.000Z</Time>
            <Position>
              <LatitudeDegrees>43.35865496657788753509521484375</LatitudeDegrees>
              <LongitudeDegrees>-3.96464296616613864898681640625</LongitudeDegrees>
            </Position>
            <AltitudeMeters>22</AltitudeMeters>
            <DistanceMeters>1756.2576726319</DistanceMeters>
          </Trackpoint>
          <Trackpoint>
            <Time>2021-01-13T14:29:53.000Z</Time>
            <Position>
              <LatitudeDegrees>43.358783461153507232666015625</LatitudeDegrees>
              <LongitudeDegrees>-3.9646443910896778106689453125</LongitudeDegrees>
            </Position>
            <AltitudeMeters>22</AltitudeMeters>
            <DistanceMeters>1770.5603769832</DistanceMeters>
          </Trackpoint>
          <Trackpoint>
            <Time>2021-01-13T14:29:55.000Z</Time>
            <Position>
              <LatitudeDegrees>43.35891061462461948394775390625</LatitudeDegrees>
              <LongitudeDegrees>-3.964645564556121826171875</LongitudeDegrees>
            </Position>
            <AltitudeMeters>21.799999237060546875</AltitudeMeters>
            <DistanceMeters>1784.7132973772</DistanceMeters>
          </Trackpoint>
          <Trackpoint>
            <Time>2021-01-13T14:29:57.000Z</Time>
            <Position>
              <LatitudeDegrees>43.35903835482895374298095703125</LatitudeDegrees>
              <LongitudeDegrees>-3.96464447490870952606201171875</LongitudeDegrees>
            </Position>
            <AltitudeMeters>21.799999237060546875</AltitudeMeters>
            <DistanceMeters>1798.9311485255</DistanceMeters>
          </Trackpoint>
          <Trackpoint>
            <Time>2021-01-13T14:29:58.000Z</Time>
            <Position>
              <LatitudeDegrees>43.359102308750152587890625</LatitudeDegrees>
              <LongitudeDegrees>-3.96464481018483638763427734375</LongitudeDegrees>
            </Position>
            <AltitudeMeters>21.799999237060546875</AltitudeMeters>
            <DistanceMeters>1806.0499116908</DistanceMeters>
          </Trackpoint>
          <Trackpoint>
            <Time>2021-01-13T14:29:59.000Z</Time>
            <Position>
              <LatitudeDegrees>43.3591665141284465789794921875</LatitudeDegrees>
              <LongitudeDegrees>-3.964644558727741241455078125</LongitudeDegrees>
            </Position>
            <AltitudeMeters>21.799999237060546875</AltitudeMeters>
            <DistanceMeters>1813.1965271392</DistanceMeters>
          </Trackpoint>
          <Trackpoint>
            <Time>2021-01-13T14:30:01.000Z</Time>
            <Position>
              <LatitudeDegrees>43.359296433627605438232421875</LatitudeDegrees>
              <LongitudeDegrees>-3.9646437205374240875244140625</LongitudeDegrees>
            </Position>
            <AltitudeMeters>21.6000003814697265625</AltitudeMeters>
            <DistanceMeters>1827.6571453906</DistanceMeters>
          </Trackpoint>
          <Trackpoint>
            <Time>2021-01-13T14:30:03.000Z</Time>
            <Position>
              <LatitudeDegrees>43.35942945443093776702880859375</LatitudeDegrees>
              <LongitudeDegrees>-3.9646396972239017486572265625</LongitudeDegrees>
            </Position>
            <AltitudeMeters>21.6000003814697265625</AltitudeMeters>
            <DistanceMeters>1842.4663812451</DistanceMeters>
          </Trackpoint>
          <Trackpoint>
            <Time>2021-01-13T14:30:05.000Z</Time>
            <Position>
              <LatitudeDegrees>43.3595644868910312652587890625</LatitudeDegrees>
              <LongitudeDegrees>-3.96463559009134769439697265625</LongitudeDegrees>
            </Position>
            <AltitudeMeters>21.3999996185302734375</AltitudeMeters>
            <DistanceMeters>1857.4992350356</DistanceMeters>
          </Trackpoint>
          <Trackpoint>
            <Time>2021-01-13T14:30:07.000Z</Time>
            <Position>
              <LatitudeDegrees>43.35970086045563220977783203125</LatitudeDegrees>
              <LongitudeDegrees>-3.96463324315845966339111328125</LongitudeDegrees>
            </Position>
            <AltitudeMeters>21.3999996185302734375</AltitudeMeters>
            <DistanceMeters>1872.6791392084</DistanceMeters>
          </Trackpoint>
          <Trackpoint>
            <Time>2021-01-13T14:30:09.000Z</Time>
            <Position>
              <LatitudeDegrees>43.35984100587666034698486328125</LatitudeDegrees>
              <LongitudeDegrees>-3.96463206969201564788818359375</LongitudeDegrees>
            </Position>
            <AltitudeMeters>21.6000003814697265625</AltitudeMeters>
            <DistanceMeters>1888.2777099693</DistanceMeters>
          </Trackpoint>
          <Trackpoint>
            <Time>2021-01-13T14:30:11.000Z</Time>
            <Position>
              <LatitudeDegrees>43.35998483933508396148681640625</LatitudeDegrees>
              <LongitudeDegrees>-3.96463123150169849395751953125</LongitudeDegrees>
            </Position>
            <AltitudeMeters>21.3999996185302734375</AltitudeMeters>
            <DistanceMeters>1904.2868208013</DistanceMeters>
          </Trackpoint>
          <Trackpoint>
            <Time>2021-01-13T14:30:13.000Z</Time>
            <Position>
              <LatitudeDegrees>43.36013068445026874542236328125</LatitudeDegrees>
              <LongitudeDegrees>-3.96463156677782535552978515625</LongitudeDegrees>
            </Position>
            <AltitudeMeters>21.200000762939453125</AltitudeMeters>
            <DistanceMeters>1920.5199871834</DistanceMeters>
          </Trackpoint>
          <Trackpoint>
            <Time>2021-01-13T14:30:15.000Z</Time>
            <Position>
              <LatitudeDegrees>43.36027870886027812957763671875</LatitudeDegrees>
              <LongitudeDegrees>-3.96462553180754184722900390625</LongitudeDegrees>
            </Position>
            <AltitudeMeters>21.200000762939453125</AltitudeMeters>
            <DistanceMeters>1937.0026714276</DistanceMeters>
          </Trackpoint>
          <Trackpoint>
            <Time>2021-01-13T14:30:16.000Z</Time>
            <Position>
              <LatitudeDegrees>43.36035288870334625244140625</LatitudeDegrees>
              <LongitudeDegrees>-3.9646118693053722381591796875</LongitudeDegrees>
            </Position>
            <AltitudeMeters>21.3999996185302734375</AltitudeMeters>
            <DistanceMeters>1945.3325638276</DistanceMeters>
          </Trackpoint>
          <Trackpoint>
            <Time>2021-01-13T14:30:17.000Z</Time>
            <Position>
              <LatitudeDegrees>43.36042421869933605194091796875</LatitudeDegrees>
              <LongitudeDegrees>-3.96458362229168415069580078125</LongitudeDegrees>
            </Position>
            <AltitudeMeters>21.3999996185302734375</AltitudeMeters>
            <DistanceMeters>1953.5949713409</DistanceMeters>
          </Trackpoint>
          <Trackpoint>
            <Time>2021-01-13T14:30:18.000Z</Time>
            <Position>
              <LatitudeDegrees>43.36049160920083522796630859375</LatitudeDegrees>
              <LongitudeDegrees>-3.96454271860420703887939453125</LongitudeDegrees>
            </Position>
            <AltitudeMeters>21.200000762939453125</AltitudeMeters>
            <DistanceMeters>1961.7937449717</DistanceMeters>
          </Trackpoint>
          <Trackpoint>
            <Time>2021-01-13T14:30:19.000Z</Time>
            <Position>
              <LatitudeDegrees>43.360555730760097503662109375</LatitudeDegrees>
              <LongitudeDegrees>-3.9644958637654781341552734375</LongitudeDegrees>
            </Position>
            <AltitudeMeters>21.200000762939453125</AltitudeMeters>
            <DistanceMeters>1969.8760449535</DistanceMeters>
          </Trackpoint>
          <Trackpoint>
            <Time>2021-01-13T14:30:21.000Z</Time>
            <Position>
              <LatitudeDegrees>43.36068958975374698638916015625</LatitudeDegrees>
              <LongitudeDegrees>-3.96440684795379638671875</LongitudeDegrees>
            </Position>
            <AltitudeMeters>21.200000762939453125</AltitudeMeters>
            <DistanceMeters>1986.4246137229</DistanceMeters>
          </Trackpoint>
          <Trackpoint>
            <Time>2021-01-13T14:30:23.000Z</Time>
            <Position>
              <LatitudeDegrees>43.3608304895460605621337890625</LatitudeDegrees>
              <LongitudeDegrees>-3.96435379050672054290771484375</LongitudeDegrees>
            </Position>
            <AltitudeMeters>21.3999996185302734375</AltitudeMeters>
            <DistanceMeters>2002.6836262358</DistanceMeters>
          </Trackpoint>
          <Trackpoint>
            <Time>2021-01-13T14:30:25.000Z</Time>
            <Position>
              <LatitudeDegrees>43.3609733171761035919189453125</LatitudeDegrees>
              <LongitudeDegrees>-3.964319340884685516357421875</LongitudeDegrees>
            </Position>
            <AltitudeMeters>21.3999996185302734375</AltitudeMeters>
            <DistanceMeters>2018.8230681439</DistanceMeters>
          </Trackpoint>
          <Trackpoint>
            <Time>2021-01-13T14:30:27.000Z</Time>
            <Position>
              <LatitudeDegrees>43.3611137978732585906982421875</LatitudeDegrees>
              <LongitudeDegrees>-3.96428489126265048980712890625</LongitudeDegrees>
            </Position>
            <AltitudeMeters>21.200000762939453125</AltitudeMeters>
            <DistanceMeters>2034.705611563</DistanceMeters>
          </Trackpoint>
          <Trackpoint>
            <Time>2021-01-13T14:30:29.000Z</Time>
            <Position>
              <LatitudeDegrees>43.36125536821782588958740234375</LatitudeDegrees>
              <LongitudeDegrees>-3.96425236947834491729736328125</LongitudeDegrees>
            </Position>
            <AltitudeMeters>21</AltitudeMeters>
            <DistanceMeters>2050.6808430311</DistanceMeters>
          </Trackpoint>
          <Trackpoint>
            <Time>2021-01-13T14:30:31.000Z</Time>
            <Position>
              <LatitudeDegrees>43.36139626801013946533203125</LatitudeDegrees>
              <LongitudeDegrees>-3.96422244608402252197265625</LongitudeDegrees>
            </Position>
            <AltitudeMeters>20.6000003814697265625</AltitudeMeters>
            <DistanceMeters>2066.5491662456</DistanceMeters>
          </Trackpoint>
          <Trackpoint>
            <Time>2021-01-13T14:30:33.000Z</Time>
            <Position>
              <LatitudeDegrees>43.36153574287891387939453125</LatitudeDegrees>
              <LongitudeDegrees>-3.964195288717746734619140625</LongitudeDegrees>
            </Position>
            <AltitudeMeters>20.3999996185302734375</AltitudeMeters>
            <DistanceMeters>2082.2277102137</DistanceMeters>
          </Trackpoint>
          <Trackpoint>
            <Time>2021-01-13T14:30:34.000Z</Time>
            <Position>
              <LatitudeDegrees>43.3616056479513645172119140625</LatitudeDegrees>
              <LongitudeDegrees>-3.96418246440589427947998046875</LongitudeDegrees>
            </Position>
            <AltitudeMeters>20.3999996185302734375</AltitudeMeters>
            <DistanceMeters>2090.0770548727</DistanceMeters>
          </Trackpoint>
          <Trackpoint>
            <Time>2021-01-13T14:30:35.000Z</Time>
            <Position>
              <LatitudeDegrees>43.3616750501096248626708984375</LatitudeDegrees>
              <LongitudeDegrees>-3.9641679637134075164794921875</LongitudeDegrees>
            </Position>
            <AltitudeMeters>20.3999996185302734375</AltitudeMeters>
            <DistanceMeters>2097.890077128</DistanceMeters>
          </Trackpoint>
          <Trackpoint>
            <Time>2021-01-13T14:30:37.000Z</Time>
            <Position>
              <LatitudeDegrees>43.36181360296905040740966796875</LatitudeDegrees>
              <LongitudeDegrees>-3.9641408063471317291259765625</LongitudeDegrees>
            </Position>
            <AltitudeMeters>20.200000762939453125</AltitudeMeters>
            <DistanceMeters>2113.467213711</DistanceMeters>
          </Trackpoint>
          <Trackpoint>
            <Time>2021-01-13T14:30:39.000Z</Time>
            <Position>
              <LatitudeDegrees>43.36195291019976139068603515625</LatitudeDegrees>
              <LongitudeDegrees>-3.9641129784286022186279296875</LongitudeDegrees>
            </Position>
            <AltitudeMeters>20</AltitudeMeters>
            <DistanceMeters>2129.1348107844</DistanceMeters>
          </Trackpoint>
          <Trackpoint>
            <Time>2021-01-13T14:30:41.000Z</Time>
            <Position>
              <LatitudeDegrees>43.36209272034466266632080078125</LatitudeDegrees>
              <LongitudeDegrees>-3.964083977043628692626953125</LongitudeDegrees>
            </Position>
            <AltitudeMeters>20</AltitudeMeters>
            <DistanceMeters>2144.8719921251</DistanceMeters>
          </Trackpoint>
          <Trackpoint>
            <Time>2021-01-13T14:30:43.000Z</Time>
            <Position>
              <LatitudeDegrees>43.36223169229924678802490234375</LatitudeDegrees>
              <LongitudeDegrees>-3.964055143296718597412109375</LongitudeDegrees>
            </Position>
            <AltitudeMeters>20</AltitudeMeters>
            <DistanceMeters>2160.5147863601</DistanceMeters>
          </Trackpoint>
          <Trackpoint>
            <Time>2021-01-13T14:30:45.000Z</Time>
            <Position>
              <LatitudeDegrees>43.3623714186251163482666015625</LatitudeDegrees>
              <LongitudeDegrees>-3.96402689628303050994873046875</LongitudeDegrees>
            </Position>
            <AltitudeMeters>20</AltitudeMeters>
            <DistanceMeters>2176.23359521</DistanceMeters>
          </Trackpoint>
          <Trackpoint>
            <Time>2021-01-13T14:30:47.000Z</Time>
            <Position>
              <LatitudeDegrees>43.36251215077936649322509765625</LatitudeDegrees>
              <LongitudeDegrees>-3.964001499116420745849609375</LongitudeDegrees>
            </Position>
            <AltitudeMeters>20</AltitudeMeters>
            <DistanceMeters>2192.0314828143</DistanceMeters>
          </Trackpoint>
          <Trackpoint>
            <Time>2021-01-13T14:30:49.000Z</Time>
            <Position>
              <LatitudeDegrees>43.36265346966683864593505859375</LatitudeDegrees>
              <LongitudeDegrees>-3.963977359235286712646484375</LongitudeDegrees>
            </Position>
            <AltitudeMeters>20</AltitudeMeters>
            <DistanceMeters>2207.8813006893</DistanceMeters>
          </Trackpoint>
          <Trackpoint>
            <Time>2021-01-13T14:30:51.000Z</Time>
            <Position>
              <LatitudeDegrees>43.362790681421756744384765625</LatitudeDegrees>
              <LongitudeDegrees>-3.96394978277385234832763671875</LongitudeDegrees>
            </Position>
            <AltitudeMeters>20</AltitudeMeters>
            <DistanceMeters>2223.3154646314</DistanceMeters>
          </Trackpoint>
          <Trackpoint>
            <Time>2021-01-13T14:30:53.000Z</Time>
            <Position>
              <LatitudeDegrees>43.3629279769957065582275390625</LatitudeDegrees>
              <LongitudeDegrees>-3.96392631344497203826904296875</LongitudeDegrees>
            </Position>
            <AltitudeMeters>20.200000762939453125</AltitudeMeters>
            <DistanceMeters>2238.7144843216</DistanceMeters>
          </Trackpoint>
          <Trackpoint>
            <Time>2021-01-13T14:30:54.000Z</Time>
            <Position>
              <LatitudeDegrees>43.36299645714461803436279296875</LatitudeDegrees>
              <LongitudeDegrees>-3.96391625516116619110107421875</LongitudeDegrees>
            </Position>
            <AltitudeMeters>20.200000762939453125</AltitudeMeters>
            <DistanceMeters>2246.3793181322</DistanceMeters>
          </Trackpoint>
          <Trackpoint>
            <Time>2021-01-13T14:30:55.000Z</Time>
            <Position>
              <LatitudeDegrees>43.36306401528418064117431640625</LatitudeDegrees>
              <LongitudeDegrees>-3.96390502341091632843017578125</LongitudeDegrees>
            </Position>
            <AltitudeMeters>20.200000762939453125</AltitudeMeters>
            <DistanceMeters>2253.9528936136</DistanceMeters>
          </Trackpoint>
          <Trackpoint>
            <Time>2021-01-13T14:30:57.000Z</Time>
            <Position>
              <LatitudeDegrees>43.36319929920136928558349609375</LatitudeDegrees>
              <LongitudeDegrees>-3.96388390101492404937744140625</LongitudeDegrees>
            </Position>
            <AltitudeMeters>20.3999996185302734375</AltitudeMeters>
            <DistanceMeters>2269.1068988282</DistanceMeters>
          </Trackpoint>
          <Trackpoint>
            <Time>2021-01-13T14:30:59.000Z</Time>
            <Position>
              <LatitudeDegrees>43.36333491839468479156494140625</LatitudeDegrees>
              <LongitudeDegrees>-3.963867388665676116943359375</LongitudeDegrees>
            </Position>
            <AltitudeMeters>20.3999996185302734375</AltitudeMeters>
            <DistanceMeters>2284.2606060964</DistanceMeters>
          </Trackpoint>
          <Trackpoint>
            <Time>2021-01-13T14:31:01.000Z</Time>
            <Position>
              <LatitudeDegrees>43.36347221396863460540771484375</LatitudeDegrees>
              <LongitudeDegrees>-3.9638578332960605621337890625</LongitudeDegrees>
            </Position>
            <AltitudeMeters>20.3999996185302734375</AltitudeMeters>
            <DistanceMeters>2299.561382609</DistanceMeters>
          </Trackpoint>
          <Trackpoint>
            <Time>2021-01-13T14:31:03.000Z</Time>
            <Position>
              <LatitudeDegrees>43.3636116050183773040771484375</LatitudeDegrees>
              <LongitudeDegrees>-3.96385322324931621551513671875</LongitudeDegrees>
            </Position>
            <AltitudeMeters>20.3999996185302734375</AltitudeMeters>
            <DistanceMeters>2315.080149917</DistanceMeters>
          </Trackpoint>
          <Trackpoint>
            <Time>2021-01-13T14:31:04.000Z</Time>
            <Position>
              <LatitudeDegrees>43.363681174814701080322265625</LatitudeDegrees>
              <LongitudeDegrees>-3.963853977620601654052734375</LongitudeDegrees>
            </Position>
            <AltitudeMeters>20.3999996185302734375</AltitudeMeters>
            <DistanceMeters>2322.8240983714</DistanceMeters>
          </Trackpoint>
          <Trackpoint>
            <Time>2021-01-13T14:31:05.000Z</Time>
            <Position>
              <LatitudeDegrees>43.36375066079199314117431640625</LatitudeDegrees>
              <LongitudeDegrees>-3.96385758183896541595458984375</LongitudeDegrees>
            </Position>
            <AltitudeMeters>20.3999996185302734375</AltitudeMeters>
            <DistanceMeters>2330.5639644638</DistanceMeters>
          </Trackpoint>
          <Trackpoint>
            <Time>2021-01-13T14:31:07.000Z</Time>
            <Position>
              <LatitudeDegrees>43.36388627998530864715576171875</LatitudeDegrees>
              <LongitudeDegrees>-3.9638702385127544403076171875</LongitudeDegrees>
            </Position>
            <AltitudeMeters>20.3999996185302734375</AltitudeMeters>
            <DistanceMeters>2345.6932201528</DistanceMeters>
          </Trackpoint>
          <Trackpoint>
            <Time>2021-01-13T14:31:09.000Z</Time>
            <Position>
              <LatitudeDegrees>43.36402039043605327606201171875</LatitudeDegrees>
              <LongitudeDegrees>-3.96389245055615901947021484375</LongitudeDegrees>
            </Position>
            <AltitudeMeters>20.200000762939453125</AltitudeMeters>
            <DistanceMeters>2360.7278759036</DistanceMeters>
          </Trackpoint>
          <Trackpoint>
            <Time>2021-01-13T14:31:11.000Z</Time>
            <Position>
              <LatitudeDegrees>43.364150561392307281494140625</LatitudeDegrees>
              <LongitudeDegrees>-3.96393100731074810028076171875</LongitudeDegrees>
            </Position>
            <AltitudeMeters>20.200000762939453125</AltitudeMeters>
            <DistanceMeters>2375.548388021</DistanceMeters>
          </Trackpoint>
          <Trackpoint>
            <Time>2021-01-13T14:31:13.000Z</Time>
            <Position>
              <LatitudeDegrees>43.3642776310443878173828125</LatitudeDegrees>
              <LongitudeDegrees>-3.96398582495748996734619140625</LongitudeDegrees>
            </Position>
            <AltitudeMeters>20.200000762939453125</AltitudeMeters>
            <DistanceMeters>2390.3707279133</DistanceMeters>
          </Trackpoint>
          <Trackpoint>
            <Time>2021-01-13T14:31:15.000Z</Time>
            <Position>
              <LatitudeDegrees>43.364402353763580322265625</LatitudeDegrees>
              <LongitudeDegrees>-3.9640496112406253814697265625</LongitudeDegrees>
            </Position>
            <AltitudeMeters>20</AltitudeMeters>
            <DistanceMeters>2405.1808783792</DistanceMeters>
          </Trackpoint>
          <Trackpoint>
            <Time>2021-01-13T14:31:17.000Z</Time>
            <Position>
              <LatitudeDegrees>43.36452565155923366546630859375</LatitudeDegrees>
              <LongitudeDegrees>-3.9641220308840274810791015625</LongitudeDegrees>
            </Position>
            <AltitudeMeters>20</AltitudeMeters>
            <DistanceMeters>2420.1030985569</DistanceMeters>
          </Trackpoint>
          <Trackpoint>
            <Time>2021-01-13T14:31:18.000Z</Time>
            <Position>
              <LatitudeDegrees>43.3645860850811004638671875</LatitudeDegrees>
              <LongitudeDegrees>-3.964161761105060577392578125</LongitudeDegrees>
            </Position>
            <AltitudeMeters>20</AltitudeMeters>
            <DistanceMeters>2427.5577005205</DistanceMeters>
          </Trackpoint>
          <Trackpoint>
            <Time>2021-01-13T14:31:19.000Z</Time>
            <Position>
              <LatitudeDegrees>43.3646452613174915313720703125</LatitudeDegrees>
              <LongitudeDegrees>-3.96420207805931568145751953125</LongitudeDegrees>
            </Position>
            <AltitudeMeters>20</AltitudeMeters>
            <DistanceMeters>2434.9080030561</DistanceMeters>
          </Trackpoint>
          <Trackpoint>
            <Time>2021-01-13T14:31:21.000Z</Time>
            <Position>
              <LatitudeDegrees>43.36475975811481475830078125</LatitudeDegrees>
              <LongitudeDegrees>-3.96429008804261684417724609375</LongitudeDegrees>
            </Position>
            <AltitudeMeters>20</AltitudeMeters>
            <DistanceMeters>2449.5065931987</DistanceMeters>
          </Trackpoint>
          <Trackpoint>
            <Time>2021-01-13T14:31:23.000Z</Time>
            <Position>
              <LatitudeDegrees>43.36486511863768100738525390625</LatitudeDegrees>
              <LongitudeDegrees>-3.964400477707386016845703125</LongitudeDegrees>
            </Position>
            <AltitudeMeters>19.799999237060546875</AltitudeMeters>
            <DistanceMeters>2464.2476840521</DistanceMeters>
          </Trackpoint>
          <Trackpoint>
            <Time>2021-01-13T14:31:24.000Z</Time>
            <Position>
              <LatitudeDegrees>43.36491532623767852783203125</LatitudeDegrees>
              <LongitudeDegrees>-3.96446124650537967681884765625</LongitudeDegrees>
            </Position>
            <AltitudeMeters>19.6000003814697265625</AltitudeMeters>
            <DistanceMeters>2471.6913759493</DistanceMeters>
          </Trackpoint>
          <Trackpoint>
            <Time>2021-01-13T14:31:25.000Z</Time>
            <Position>
              <LatitudeDegrees>43.36496419273316860198974609375</LatitudeDegrees>
              <LongitudeDegrees>-3.964523859322071075439453125</LongitudeDegrees>
            </Position>
            <AltitudeMeters>19.6000003814697265625</AltitudeMeters>
            <DistanceMeters>2479.1241417659</DistanceMeters>
          </Trackpoint>
          <Trackpoint>
            <Time>2021-01-13T14:31:27.000Z</Time>
            <Position>
              <LatitudeDegrees>43.3650626800954341888427734375</LatitudeDegrees>
              <LongitudeDegrees>-3.9646480791270732879638671875</LongitudeDegrees>
            </Position>
            <AltitudeMeters>19.6000003814697265625</AltitudeMeters>
            <DistanceMeters>2493.9969610202</DistanceMeters>
          </Trackpoint>
          <Trackpoint>
            <Time>2021-01-13T14:31:29.000Z</Time>
            <Position>
              <LatitudeDegrees>43.36516083218157291412353515625</LatitudeDegrees>
              <LongitudeDegrees>-3.96477162837982177734375</LongitudeDegrees>
            </Position>
            <AltitudeMeters>19.6000003814697265625</AltitudeMeters>
            <DistanceMeters>2508.8055871023</DistanceMeters>
          </Trackpoint>
          <Trackpoint>
            <Time>2021-01-13T14:31:31.000Z</Time>
            <Position>
              <LatitudeDegrees>43.36525722406804561614990234375</LatitudeDegrees>
              <LongitudeDegrees>-3.9648951776325702667236328125</LongitudeDegrees>
            </Position>
            <AltitudeMeters>19.6000003814697265625</AltitudeMeters>
            <DistanceMeters>2523.4702136067</DistanceMeters>
          </Trackpoint>
          <Trackpoint>
            <Time>2021-01-13T14:31:33.000Z</Time>
            <Position>
              <LatitudeDegrees>43.36535520851612091064453125</LatitudeDegrees>
              <LongitudeDegrees>-3.965015374124050140380859375</LongitudeDegrees>
            </Position>
            <AltitudeMeters>19.6000003814697265625</AltitudeMeters>
            <DistanceMeters>2538.0827146792</DistanceMeters>
          </Trackpoint>
          <Trackpoint>
            <Time>2021-01-13T14:31:35.000Z</Time>
            <Position>
              <LatitudeDegrees>43.3654512651264667510986328125</LatitudeDegrees>
              <LongitudeDegrees>-3.96513565443456172943115234375</LongitudeDegrees>
            </Position>
            <AltitudeMeters>19.3999996185302734375</AltitudeMeters>
            <DistanceMeters>2552.5398979931</DistanceMeters>
          </Trackpoint>
          <Trackpoint>
            <Time>2021-01-13T14:31:36.000Z</Time>
            <Position>
              <LatitudeDegrees>43.3654992096126079559326171875</LatitudeDegrees>
              <LongitudeDegrees>-3.96519533358514308929443359375</LongitudeDegrees>
            </Position>
            <AltitudeMeters>19.3999996185302734375</AltitudeMeters>
            <DistanceMeters>2559.7356229969</DistanceMeters>
          </Trackpoint>
          <Trackpoint>
            <Time>2021-01-13T14:31:37.000Z</Time>
            <Position>
              <LatitudeDegrees>43.36554757319390773773193359375</LatitudeDegrees>
              <LongitudeDegrees>-3.96525434218347072601318359375</LongitudeDegrees>
            </Position>
            <AltitudeMeters>19.200000762939453125</AltitudeMeters>
            <DistanceMeters>2566.9307205121</DistanceMeters>
          </Trackpoint>
          <Trackpoint>
            <Time>2021-01-13T14:31:39.000Z</Time>
            <Position>
              <LatitudeDegrees>43.3656455576419830322265625</LatitudeDegrees>
              <LongitudeDegrees>-3.9653729461133480072021484375</LongitudeDegrees>
            </Position>
            <AltitudeMeters>18.799999237060546875</AltitudeMeters>
            <DistanceMeters>2581.4576915142</DistanceMeters>
          </Trackpoint>
          <Trackpoint>
            <Time>2021-01-13T14:31:41.000Z</Time>
            <Position>
              <LatitudeDegrees>43.36573750711977481842041015625</LatitudeDegrees>
              <LongitudeDegrees>-3.96550454199314117431640625</LongitudeDegrees>
            </Position>
            <AltitudeMeters>18.6000003814697265625</AltitudeMeters>
            <DistanceMeters>2596.2269341007</DistanceMeters>
          </Trackpoint>
          <Trackpoint>
            <Time>2021-01-13T14:31:42.000Z</Time>
            <Position>
              <LatitudeDegrees>43.36577723734080791473388671875</LatitudeDegrees>
              <LongitudeDegrees>-3.965577296912670135498046875</LongitudeDegrees>
            </Position>
            <AltitudeMeters>18.6000003814697265625</AltitudeMeters>
            <DistanceMeters>2603.5901249151</DistanceMeters>
          </Trackpoint>
          <Trackpoint>
            <Time>2021-01-13T14:31:43.000Z</Time>
            <Position>
              <LatitudeDegrees>43.36581059731543064117431640625</LatitudeDegrees>
              <LongitudeDegrees>-3.9656559191644191741943359375</LongitudeDegrees>
            </Position>
            <AltitudeMeters>18.6000003814697265625</AltitudeMeters>
            <DistanceMeters>2610.9563810437</DistanceMeters>
          </Trackpoint>
          <Trackpoint>
            <Time>2021-01-13T14:31:45.000Z</Time>
            <Position>
              <LatitudeDegrees>43.36585820652544498443603515625</LatitudeDegrees>
              <LongitudeDegrees>-3.9658248983323574066162109375</LongitudeDegrees>
            </Position>
            <AltitudeMeters>18.6000003814697265625</AltitudeMeters>
            <DistanceMeters>2625.62008386</DistanceMeters>
          </Trackpoint>
          <Trackpoint>
            <Time>2021-01-13T14:31:46.000Z</Time>
            <Position>
              <LatitudeDegrees>43.36587580852210521697998046875</LatitudeDegrees>
              <LongitudeDegrees>-3.96591299213469028472900390625</LongitudeDegrees>
            </Position>
            <AltitudeMeters>18.6000003814697265625</AltitudeMeters>
            <DistanceMeters>2633.0120384433</DistanceMeters>
          </Trackpoint>
          <Trackpoint>
            <Time>2021-01-13T14:31:47.000Z</Time>
            <Position>
              <LatitudeDegrees>43.36589139886200428009033203125</LatitudeDegrees>
              <LongitudeDegrees>-3.96600167267024517059326171875</LongitudeDegrees>
            </Position>
            <AltitudeMeters>18.6000003814697265625</AltitudeMeters>
            <DistanceMeters>2640.3942136877</DistanceMeters>
          </Trackpoint>
          <Trackpoint>
            <Time>2021-01-13T14:31:48.000Z</Time>
            <Position>
              <LatitudeDegrees>43.3659055642783641815185546875</LatitudeDegrees>
              <LongitudeDegrees>-3.96609001792967319488525390625</LongitudeDegrees>
            </Position>
            <AltitudeMeters>18.3999996185302734375</AltitudeMeters>
            <DistanceMeters>2647.714355327</DistanceMeters>
          </Trackpoint>
          <Trackpoint>
            <Time>2021-01-13T14:31:49.000Z</Time>
            <Position>
              <LatitudeDegrees>43.365918137133121490478515625</LatitudeDegrees>
              <LongitudeDegrees>-3.96617911756038665771484375</LongitudeDegrees>
            </Position>
            <AltitudeMeters>18.3999996185302734375</AltitudeMeters>
            <DistanceMeters>2655.057897832</DistanceMeters>
          </Trackpoint>
          <Trackpoint>
            <Time>2021-01-13T14:31:51.000Z</Time>
            <Position>
              <LatitudeDegrees>43.3659407682716846466064453125</LatitudeDegrees>
              <LongitudeDegrees>-3.96635840646922588348388671875</LongitudeDegrees>
            </Position>
            <AltitudeMeters>18.200000762939453125</AltitudeMeters>
            <DistanceMeters>2669.7818264948</DistanceMeters>
          </Trackpoint>
          <Trackpoint>
            <Time>2021-01-13T14:31:53.000Z</Time>
            <Position>
              <LatitudeDegrees>43.36596197448670864105224609375</LatitudeDegrees>
              <LongitudeDegrees>-3.966536186635494232177734375</LongitudeDegrees>
            </Position>
            <AltitudeMeters>18</AltitudeMeters>
            <DistanceMeters>2684.3590607619</DistanceMeters>
          </Trackpoint>
          <Trackpoint>
            <Time>2021-01-13T14:31:55.000Z</Time>
            <Position>
              <LatitudeDegrees>43.3659835159778594970703125</LatitudeDegrees>
              <LongitudeDegrees>-3.96671245805919170379638671875</LongitudeDegrees>
            </Position>
            <AltitudeMeters>18</AltitudeMeters>
            <DistanceMeters>2698.8221766373</DistanceMeters>
          </Trackpoint>
          <Trackpoint>
            <Time>2021-01-13T14:31:57.000Z</Time>
            <Position>
              <LatitudeDegrees>43.3660064823925495147705078125</LatitudeDegrees>
              <LongitudeDegrees>-3.96689099259674549102783203125</LongitudeDegrees>
            </Position>
            <AltitudeMeters>17.799999237060546875</AltitudeMeters>
            <DistanceMeters>2713.4926518159</DistanceMeters>
          </Trackpoint>
          <Trackpoint>
            <Time>2021-01-13T14:31:59.000Z</Time>
            <Position>
              <LatitudeDegrees>43.36603037081658840179443359375</LatitudeDegrees>
              <LongitudeDegrees>-3.96707204170525074005126953125</LongitudeDegrees>
            </Position>
            <AltitudeMeters>17.799999237060546875</AltitudeMeters>
            <DistanceMeters>2728.3815519305</DistanceMeters>
          </Trackpoint>
          <Trackpoint>
            <Time>2021-01-13T14:32:01.000Z</Time>
            <Position>
              <LatitudeDegrees>43.36605736054480075836181640625</LatitudeDegrees>
              <LongitudeDegrees>-3.96725258789956569671630859375</LongitudeDegrees>
            </Position>
            <AltitudeMeters>17.799999237060546875</AltitudeMeters>
            <DistanceMeters>2743.296205903</DistanceMeters>
          </Trackpoint>
          <Trackpoint>
            <Time>2021-01-13T14:32:03.000Z</Time>
            <Position>
              <LatitudeDegrees>43.36609340272843837738037109375</LatitudeDegrees>
              <LongitudeDegrees>-3.96742810495197772979736328125</LongitudeDegrees>
            </Position>
            <AltitudeMeters>17.799999237060546875</AltitudeMeters>
            <DistanceMeters>2758.0538271095</DistanceMeters>
          </Trackpoint>
          <Trackpoint>
            <Time>2021-01-13T14:32:05.000Z</Time>
            <Position>
              <LatitudeDegrees>43.3661446161568164825439453125</LatitudeDegrees>
              <LongitudeDegrees>-3.96759306080639362335205078125</LongitudeDegrees>
            </Position>
            <AltitudeMeters>17.799999237060546875</AltitudeMeters>
            <DistanceMeters>2772.5671163002</DistanceMeters>
          </Trackpoint>
          <Trackpoint>
            <Time>2021-01-13T14:32:07.000Z</Time>
            <Position>
              <LatitudeDegrees>43.3662103302776813507080078125</LatitudeDegrees>
              <LongitudeDegrees>-3.9677394926548004150390625</LongitudeDegrees>
            </Position>
            <AltitudeMeters>17.799999237060546875</AltitudeMeters>
            <DistanceMeters>2786.4910432338</DistanceMeters>
          </Trackpoint>
          <Trackpoint>
            <Time>2021-01-13T14:32:09.000Z</Time>
            <Position>
              <LatitudeDegrees>43.36627813987433910369873046875</LatitudeDegrees>
              <LongitudeDegrees>-3.967875950038433074951171875</LongitudeDegrees>
            </Position>
            <AltitudeMeters>17.799999237060546875</AltitudeMeters>
            <DistanceMeters>2799.8655258136</DistanceMeters>
          </Trackpoint>
          <Trackpoint>
            <Time>2021-01-13T14:32:11.000Z</Time>
            <Position>
              <LatitudeDegrees>43.36633966304361820220947265625</LatitudeDegrees>
              <LongitudeDegrees>-3.9680088870227336883544921875</LongitudeDegrees>
            </Position>
            <AltitudeMeters>18</AltitudeMeters>
            <DistanceMeters>2812.6168220791</DistanceMeters>
          </Trackpoint>
          <Trackpoint>
            <Time>2021-01-13T14:32:12.000Z</Time>
            <Position>
              <LatitudeDegrees>43.3663551695644855499267578125</LatitudeDegrees>
              <LongitudeDegrees>-3.96807803772389888763427734375</LongitudeDegrees>
            </Position>
            <AltitudeMeters>18</AltitudeMeters>
            <DistanceMeters>2818.4715782808</DistanceMeters>
          </Trackpoint>
          <Trackpoint>
            <Time>2021-01-13T14:32:13.000Z</Time>
            <Position>
              <LatitudeDegrees>43.36634905077517032623291015625</LatitudeDegrees>
              <LongitudeDegrees>-3.96814425475895404815673828125</LongitudeDegrees>
            </Position>
            <AltitudeMeters>18</AltitudeMeters>
            <DistanceMeters>2823.8722399915</DistanceMeters>
          </Trackpoint>
          <Trackpoint>
            <Time>2021-01-13T14:32:15.000Z</Time>
            <Position>
              <LatitudeDegrees>43.36628166027367115020751953125</LatitudeDegrees>
              <LongitudeDegrees>-3.968217261135578155517578125</LongitudeDegrees>
            </Position>
            <AltitudeMeters>18</AltitudeMeters>
            <DistanceMeters>2833.4194695177</DistanceMeters>
          </Trackpoint>
          <Trackpoint>
            <Time>2021-01-13T14:32:17.000Z</Time>
            <Position>
              <LatitudeDegrees>43.366175629198551177978515625</LatitudeDegrees>
              <LongitudeDegrees>-3.96819320507347583770751953125</LongitudeDegrees>
            </Position>
            <AltitudeMeters>18</AltitudeMeters>
            <DistanceMeters>2845.3803850806</DistanceMeters>
          </Trackpoint>
          <Trackpoint>
            <Time>2021-01-13T14:32:18.000Z</Time>
            <Position>
              <LatitudeDegrees>43.3661208115518093109130859375</LatitudeDegrees>
              <LongitudeDegrees>-3.9681713283061981201171875</LongitudeDegrees>
            </Position>
            <AltitudeMeters>18</AltitudeMeters>
            <DistanceMeters>2851.7322652393</DistanceMeters>
          </Trackpoint>
          <Trackpoint>
            <Time>2021-01-13T14:32:19.000Z</Time>
            <Position>
              <LatitudeDegrees>43.3660634793341159820556640625</LatitudeDegrees>
              <LongitudeDegrees>-3.96815665997564792633056640625</LongitudeDegrees>
            </Position>
            <AltitudeMeters>18</AltitudeMeters>
            <DistanceMeters>2858.2219706668</DistanceMeters>
          </Trackpoint>
          <Trackpoint>
            <Time>2021-01-13T14:32:21.000Z</Time>
            <Position>
              <LatitudeDegrees>43.3659434504806995391845703125</LatitudeDegrees>
              <LongitudeDegrees>-3.96814559586346149444580078125</LongitudeDegrees>
            </Position>
            <AltitudeMeters>18</AltitudeMeters>
            <DistanceMeters>2871.6116359993</DistanceMeters>
          </Trackpoint>
          <Trackpoint>
            <Time>2021-01-13T14:32:23.000Z</Time>
            <Position>
              <LatitudeDegrees>43.36582585237920284271240234375</LatitudeDegrees>
              <LongitudeDegrees>-3.9681312628090381622314453125</LongitudeDegrees>
            </Position>
            <AltitudeMeters>18.200000762939453125</AltitudeMeters>
            <DistanceMeters>2884.7521505159</DistanceMeters>
          </Trackpoint>
          <Trackpoint>
            <Time>2021-01-13T14:32:25.000Z</Time>
            <Position>
              <LatitudeDegrees>43.36570666171610355377197265625</LatitudeDegrees>
              <LongitudeDegrees>-3.9681339450180530548095703125</LongitudeDegrees>
            </Position>
            <AltitudeMeters>18</AltitudeMeters>
            <DistanceMeters>2898.0205479456</DistanceMeters>
          </Trackpoint>
          <Trackpoint>
            <Time>2021-01-13T14:32:27.000Z</Time>
            <Position>
              <LatitudeDegrees>43.3655870519578456878662109375</LatitudeDegrees>
              <LongitudeDegrees>-3.9681486971676349639892578125</LongitudeDegrees>
            </Position>
            <AltitudeMeters>18</AltitudeMeters>
            <DistanceMeters>2911.3869260056</DistanceMeters>
          </Trackpoint>
          <Trackpoint>
            <Time>2021-01-13T14:32:29.000Z</Time>
            <Position>
              <LatitudeDegrees>43.3654658496379852294921875</LatitudeDegrees>
              <LongitudeDegrees>-3.968164287507534027099609375</LongitudeDegrees>
            </Position>
            <AltitudeMeters>18.200000762939453125</AltitudeMeters>
            <DistanceMeters>2924.9354829012</DistanceMeters>
          </Trackpoint>
          <Trackpoint>
            <Time>2021-01-13T14:32:31.000Z</Time>
            <Position>
              <LatitudeDegrees>43.36534523405134677886962890625</LatitudeDegrees>
              <LongitudeDegrees>-3.96818482317030429840087890625</LongitudeDegrees>
            </Position>
            <AltitudeMeters>18.200000762939453125</AltitudeMeters>
            <DistanceMeters>2938.46269507</DistanceMeters>
          </Trackpoint>
          <Trackpoint>
            <Time>2021-01-13T14:32:33.000Z</Time>
            <Position>
              <LatitudeDegrees>43.36522470228374004364013671875</LatitudeDegrees>
              <LongitudeDegrees>-3.9682204462587833404541015625</LongitudeDegrees>
            </Position>
            <AltitudeMeters>18.3999996185302734375</AltitudeMeters>
            <DistanceMeters>2952.1844341702</DistanceMeters>
          </Trackpoint>
          <Trackpoint>
            <Time>2021-01-13T14:32:35.000Z</Time>
            <Position>
              <LatitudeDegrees>43.3651009015738964080810546875</LatitudeDegrees>
              <LongitudeDegrees>-3.9682573266327381134033203125</LongitudeDegrees>
            </Position>
            <AltitudeMeters>18.6000003814697265625</AltitudeMeters>
            <DistanceMeters>2966.2833374169</DistanceMeters>
          </Trackpoint>
          <Trackpoint>
            <Time>2021-01-13T14:32:37.000Z</Time>
            <Position>
              <LatitudeDegrees>43.3649776875972747802734375</LatitudeDegrees>
              <LongitudeDegrees>-3.968299739062786102294921875</LongitudeDegrees>
            </Position>
            <AltitudeMeters>18.6000003814697265625</AltitudeMeters>
            <DistanceMeters>2980.4199785237</DistanceMeters>
          </Trackpoint>
          <Trackpoint>
            <Time>2021-01-13T14:32:39.000Z</Time>
            <Position>
              <LatitudeDegrees>43.3648596704006195068359375</LatitudeDegrees>
              <LongitudeDegrees>-3.9683711528778076171875</LongitudeDegrees>
            </Position>
            <AltitudeMeters>18.799999237060546875</AltitudeMeters>
            <DistanceMeters>2994.7699563365</DistanceMeters>
          </Trackpoint>
          <Trackpoint>
            <Time>2021-01-13T14:32:41.000Z</Time>
            <Position>
              <LatitudeDegrees>43.36474894545972347259521484375</LatitudeDegrees>
              <LongitudeDegrees>-3.96845497190952301025390625</LongitudeDegrees>
            </Position>
            <AltitudeMeters>19</AltitudeMeters>
            <DistanceMeters>3008.8364781184</DistanceMeters>
          </Trackpoint>
          <Trackpoint>
            <Time>2021-01-13T14:32:42.000Z</Time>
            <Position>
              <LatitudeDegrees>43.36469764821231365203857421875</LatitudeDegrees>
              <LongitudeDegrees>-3.9685047604143619537353515625</LongitudeDegrees>
            </Position>
            <AltitudeMeters>19</AltitudeMeters>
            <DistanceMeters>3015.8246576674</DistanceMeters>
          </Trackpoint>
          <Trackpoint>
            <Time>2021-01-13T14:32:43.000Z</Time>
            <Position>
              <LatitudeDegrees>43.36465003900229930877685546875</LatitudeDegrees>
              <LongitudeDegrees>-3.96856083534657955169677734375</LongitudeDegrees>
            </Position>
            <AltitudeMeters>19</AltitudeMeters>
            <DistanceMeters>3022.8011977864</DistanceMeters>
          </Trackpoint>
          <Trackpoint>
            <Time>2021-01-13T14:32:45.000Z</Time>
            <Position>
              <LatitudeDegrees>43.364562280476093292236328125</LatitudeDegrees>
              <LongitudeDegrees>-3.96868354640901088714599609375</LongitudeDegrees>
            </Position>
            <AltitudeMeters>19.200000762939453125</AltitudeMeters>
            <DistanceMeters>3036.7296636862</DistanceMeters>
          </Trackpoint>
          <Trackpoint>
            <Time>2021-01-13T14:32:47.000Z</Time>
            <Position>
              <LatitudeDegrees>43.36447871290147304534912109375</LatitudeDegrees>
              <LongitudeDegrees>-3.96881162188947200775146484375</LongitudeDegrees>
            </Position>
            <AltitudeMeters>19.200000762939453125</AltitudeMeters>
            <DistanceMeters>3050.6548876183</DistanceMeters>
          </Trackpoint>
          <Trackpoint>
            <Time>2021-01-13T14:32:48.000Z</Time>
            <Position>
              <LatitudeDegrees>43.364437557756900787353515625</LatitudeDegrees>
              <LongitudeDegrees>-3.96887733601033687591552734375</LongitudeDegrees>
            </Position>
            <AltitudeMeters>19.200000762939453125</AltitudeMeters>
            <DistanceMeters>3057.6727246729</DistanceMeters>
          </Trackpoint>
          <Trackpoint>
            <Time>2021-01-13T14:32:49.000Z</Time>
            <Position>
              <LatitudeDegrees>43.36439522914588451385498046875</LatitudeDegrees>
              <LongitudeDegrees>-3.9689416252076625823974609375</LongitudeDegrees>
            </Position>
            <AltitudeMeters>19.200000762939453125</AltitudeMeters>
            <DistanceMeters>3064.6905617275</DistanceMeters>
          </Trackpoint>
          <Trackpoint>
            <Time>2021-01-13T14:32:51.000Z</Time>
            <Position>
              <LatitudeDegrees>43.36430738680064678192138671875</LatitudeDegrees>
              <LongitudeDegrees>-3.9690653420984745025634765625</LongitudeDegrees>
            </Position>
            <AltitudeMeters>19.200000762939453125</AltitudeMeters>
            <DistanceMeters>3078.6833865865</DistanceMeters>
          </Trackpoint>
          <Trackpoint>
            <Time>2021-01-13T14:32:53.000Z</Time>
            <Position>
              <LatitudeDegrees>43.36420990526676177978515625</LatitudeDegrees>
              <LongitudeDegrees>-3.9691749773919582366943359375</LongitudeDegrees>
            </Position>
            <AltitudeMeters>19.200000762939453125</AltitudeMeters>
            <DistanceMeters>3092.6984578603</DistanceMeters>
          </Trackpoint>
          <Trackpoint>
            <Time>2021-01-13T14:32:54.000Z</Time>
            <Position>
              <LatitudeDegrees>43.36415491998195648193359375</LatitudeDegrees>
              <LongitudeDegrees>-3.969221413135528564453125</LongitudeDegrees>
            </Position>
            <AltitudeMeters>19.200000762939453125</AltitudeMeters>
            <DistanceMeters>3099.8797367555</DistanceMeters>
          </Trackpoint>
          <Trackpoint>
            <Time>2021-01-13T14:32:55.000Z</Time>
            <Position>
              <LatitudeDegrees>43.36409565992653369903564453125</LatitudeDegrees>
              <LongitudeDegrees>-3.969261646270751953125</LongitudeDegrees>
            </Position>
            <AltitudeMeters>19.200000762939453125</AltitudeMeters>
            <DistanceMeters>3107.2355656043</DistanceMeters>
          </Trackpoint>
          <Trackpoint>
            <Time>2021-01-13T14:32:57.000Z</Time>
            <Position>
              <LatitudeDegrees>43.3639733679592609405517578125</LatitudeDegrees>
              <LongitudeDegrees>-3.96933515556156635284423828125</LongitudeDegrees>
            </Position>
            <AltitudeMeters>19.200000762939453125</AltitudeMeters>
            <DistanceMeters>3122.0895511917</DistanceMeters>
          </Trackpoint>
          <Trackpoint>
            <Time>2021-01-13T14:32:59.000Z</Time>
            <Position>
              <LatitudeDegrees>43.3638523332774639129638671875</LatitudeDegrees>
              <LongitudeDegrees>-3.96940405480563640594482421875</LongitudeDegrees>
            </Position>
            <AltitudeMeters>19.200000762939453125</AltitudeMeters>
            <DistanceMeters>3136.6689534228</DistanceMeters>
          </Trackpoint>
          <Trackpoint>
            <Time>2021-01-13T14:33:00.000Z</Time>
            <Position>
              <LatitudeDegrees>43.3637916482985019683837890625</LatitudeDegrees>
              <LongitudeDegrees>-3.9694351516664028167724609375</LongitudeDegrees>
            </Position>
            <AltitudeMeters>19.200000762939453125</AltitudeMeters>
            <DistanceMeters>3143.8772167267</DistanceMeters>
          </Trackpoint>
          <Trackpoint>
            <Time>2021-01-13T14:33:01.000Z</Time>
            <Position>
              <LatitudeDegrees>43.36373071186244487762451171875</LatitudeDegrees>
              <LongitudeDegrees>-3.9694646559655666351318359375</LongitudeDegrees>
            </Position>
            <AltitudeMeters>19.200000762939453125</AltitudeMeters>
            <DistanceMeters>3151.0679202888</DistanceMeters>
          </Trackpoint>
          <Trackpoint>
            <Time>2021-01-13T14:33:03.000Z</Time>
            <Position>
              <LatitudeDegrees>43.36360883899033069610595703125</LatitudeDegrees>
              <LongitudeDegrees>-3.96951653994619846343994140625</LongitudeDegrees>
            </Position>
            <AltitudeMeters>19.200000762939453125</AltitudeMeters>
            <DistanceMeters>3165.2673409404</DistanceMeters>
          </Trackpoint>
          <Trackpoint>
            <Time>2021-01-13T14:33:05.000Z</Time>
            <Position>
              <LatitudeDegrees>43.36348679848015308380126953125</LatitudeDegrees>
              <LongitudeDegrees>-3.9695625565946102142333984375</LongitudeDegrees>
            </Position>
            <AltitudeMeters>19.200000762939453125</AltitudeMeters>
            <DistanceMeters>3179.3518259974</DistanceMeters>
          </Trackpoint>
          <Trackpoint>
            <Time>2021-01-13T14:33:07.000Z</Time>
            <Position>
              <LatitudeDegrees>43.36336442269384860992431640625</LatitudeDegrees>
              <LongitudeDegrees>-3.96960807032883167266845703125</LongitudeDegrees>
            </Position>
            <AltitudeMeters>19</AltitudeMeters>
            <DistanceMeters>3193.4612932192</DistanceMeters>
          </Trackpoint>
          <Trackpoint>
            <Time>2021-01-13T14:33:09.000Z</Time>
            <Position>
              <LatitudeDegrees>43.3632414601743221282958984375</LatitudeDegrees>
              <LongitudeDegrees>-3.96965249441564083099365234375</LongitudeDegrees>
            </Position>
            <AltitudeMeters>19</AltitudeMeters>
            <DistanceMeters>3207.611661238</DistanceMeters>
          </Trackpoint>
          <Trackpoint>
            <Time>2021-01-13T14:33:10.000Z</Time>
            <Position>
              <LatitudeDegrees>43.36317993700504302978515625</LatitudeDegrees>
              <LongitudeDegrees>-3.96967269480228424072265625</LongitudeDegrees>
            </Position>
            <AltitudeMeters>19</AltitudeMeters>
            <DistanceMeters>3214.6513387537</DistanceMeters>
          </Trackpoint>
          <Trackpoint>
            <Time>2021-01-13T14:33:11.000Z</Time>
            <Position>
              <LatitudeDegrees>43.363118581473827362060546875</LatitudeDegrees>
              <LongitudeDegrees>-3.96969138644635677337646484375</LongitudeDegrees>
            </Position>
            <AltitudeMeters>19</AltitudeMeters>
            <DistanceMeters>3221.6459762835</DistanceMeters>
          </Trackpoint>
          <Trackpoint>
            <Time>2021-01-13T14:33:13.000Z</Time>
            <Position>
              <LatitudeDegrees>43.36299545131623744964599609375</LatitudeDegrees>
              <LongitudeDegrees>-3.96971954964101314544677734375</LongitudeDegrees>
            </Position>
            <AltitudeMeters>19</AltitudeMeters>
            <DistanceMeters>3235.5387389286</DistanceMeters>
          </Trackpoint>
          <Trackpoint>
            <Time>2021-01-13T14:33:15.000Z</Time>
            <Position>
              <LatitudeDegrees>43.36287139914929866790771484375</LatitudeDegrees>
              <LongitudeDegrees>-3.96974033676087856292724609375</LongitudeDegrees>
            </Position>
            <AltitudeMeters>19.200000762939453125</AltitudeMeters>
            <DistanceMeters>3249.4477416871</DistanceMeters>
          </Trackpoint>
          <Trackpoint>
            <Time>2021-01-13T14:33:17.000Z</Time>
            <Position>
              <LatitudeDegrees>43.36274701170623302459716796875</LatitudeDegrees>
              <LongitudeDegrees>-3.96975810639560222625732421875</LongitudeDegrees>
            </Position>
            <AltitudeMeters>19.200000762939453125</AltitudeMeters>
            <DistanceMeters>3263.3664794182</DistanceMeters>
          </Trackpoint>
          <Trackpoint>
            <Time>2021-01-13T14:33:19.000Z</Time>
            <Position>
              <LatitudeDegrees>43.36262228898704051971435546875</LatitudeDegrees>
              <LongitudeDegrees>-3.969776295125484466552734375</LongitudeDegrees>
            </Position>
            <AltitudeMeters>19.200000762939453125</AltitudeMeters>
            <DistanceMeters>3277.3260299003</DistanceMeters>
          </Trackpoint>
          <Trackpoint>
            <Time>2021-01-13T14:33:21.000Z</Time>
            <Position>
              <LatitudeDegrees>43.36249538697302341461181640625</LatitudeDegrees>
              <LongitudeDegrees>-3.9697887003421783447265625</LongitudeDegrees>
            </Position>
            <AltitudeMeters>19.3999996185302734375</AltitudeMeters>
            <DistanceMeters>3291.4862858103</DistanceMeters>
          </Trackpoint>
          <Trackpoint>
            <Time>2021-01-13T14:33:23.000Z</Time>
            <Position>
              <LatitudeDegrees>43.36237016133964061737060546875</LatitudeDegrees>
              <LongitudeDegrees>-3.969804458320140838623046875</LongitudeDegrees>
            </Position>
            <AltitudeMeters>19.3999996185302734375</AltitudeMeters>
            <DistanceMeters>3305.4823369784</DistanceMeters>
          </Trackpoint>
          <Trackpoint>
            <Time>2021-01-13T14:33:25.000Z</Time>
            <Position>
              <LatitudeDegrees>43.36224610917270183563232421875</LatitudeDegrees>
              <LongitudeDegrees>-3.96982113830745220184326171875</LongitudeDegrees>
            </Position>
            <AltitudeMeters>19.200000762939453125</AltitudeMeters>
            <DistanceMeters>3319.3555863932</DistanceMeters>
          </Trackpoint>
          <Trackpoint>
            <Time>2021-01-13T14:33:27.000Z</Time>
            <Position>
              <LatitudeDegrees>43.36211644113063812255859375</LatitudeDegrees>
              <LongitudeDegrees>-3.96982197649776935577392578125</LongitudeDegrees>
            </Position>
            <AltitudeMeters>19.3999996185302734375</AltitudeMeters>
            <DistanceMeters>3333.7880765918</DistanceMeters>
          </Trackpoint>
          <Trackpoint>
            <Time>2021-01-13T14:33:28.000Z</Time>
            <Position>
              <LatitudeDegrees>43.36205097846686840057373046875</LatitudeDegrees>
              <LongitudeDegrees>-3.9698287658393383026123046875</LongitudeDegrees>
            </Position>
            <AltitudeMeters>19.3999996185302734375</AltitudeMeters>
            <DistanceMeters>3341.0946361062</DistanceMeters>
          </Trackpoint>
          <Trackpoint>
            <Time>2021-01-13T14:33:29.000Z</Time>
            <Position>
              <LatitudeDegrees>43.36198895238339900970458984375</LatitudeDegrees>
              <LongitudeDegrees>-3.96984460763633251190185546875</LongitudeDegrees>
            </Position>
            <AltitudeMeters>19.3999996185302734375</AltitudeMeters>
            <DistanceMeters>3348.1163322961</DistanceMeters>
          </Trackpoint>
          <Trackpoint>
            <Time>2021-01-13T14:33:31.000Z</Time>
            <Position>
              <LatitudeDegrees>43.3618721924722194671630859375</LatitudeDegrees>
              <LongitudeDegrees>-3.9698887802660465240478515625</LongitudeDegrees>
            </Position>
            <AltitudeMeters>19.6000003814697265625</AltitudeMeters>
            <DistanceMeters>3361.5947252975</DistanceMeters>
          </Trackpoint>
          <Trackpoint>
            <Time>2021-01-13T14:33:32.000Z</Time>
            <Position>
              <LatitudeDegrees>43.36181477643549442291259765625</LatitudeDegrees>
              <LongitudeDegrees>-3.9699135906994342803955078125</LongitudeDegrees>
            </Position>
            <AltitudeMeters>19.6000003814697265625</AltitudeMeters>
            <DistanceMeters>3368.2925921052</DistanceMeters>
          </Trackpoint>
          <Trackpoint>
            <Time>2021-01-13T14:33:33.000Z</Time>
            <Position>
              <LatitudeDegrees>43.36175710894167423248291015625</LatitudeDegrees>
              <LongitudeDegrees>-3.96994016133248805999755859375</LongitudeDegrees>
            </Position>
            <AltitudeMeters>19.799999237060546875</AltitudeMeters>
            <DistanceMeters>3375.0615364746</DistanceMeters>
          </Trackpoint>
          <Trackpoint>
            <Time>2021-01-13T14:33:35.000Z</Time>
            <Position>
              <LatitudeDegrees>43.3616445399820804595947265625</LatitudeDegrees>
              <LongitudeDegrees>-3.96999849937856197357177734375</LongitudeDegrees>
            </Position>
            <AltitudeMeters>19.799999237060546875</AltitudeMeters>
            <DistanceMeters>3388.4505273838</DistanceMeters>
          </Trackpoint>
          <Trackpoint>
            <Time>2021-01-13T14:33:37.000Z</Time>
            <Position>
              <LatitudeDegrees>43.3615337312221527099609375</LatitudeDegrees>
              <LongitudeDegrees>-3.97006505168974399566650390625</LongitudeDegrees>
            </Position>
            <AltitudeMeters>20</AltitudeMeters>
            <DistanceMeters>3401.9081353867</DistanceMeters>
          </Trackpoint>
          <Trackpoint>
            <Time>2021-01-13T14:33:39.000Z</Time>
            <Position>
              <LatitudeDegrees>43.36142417974770069122314453125</LatitudeDegrees>
              <LongitudeDegrees>-3.97014132700860500335693359375</LongitudeDegrees>
            </Position>
            <AltitudeMeters>20.200000762939453125</AltitudeMeters>
            <DistanceMeters>3415.5744835123</DistanceMeters>
          </Trackpoint>
          <Trackpoint>
            <Time>2021-01-13T14:33:40.000Z</Time>
            <Position>
              <LatitudeDegrees>43.36137103848159313201904296875</LatitudeDegrees>
              <LongitudeDegrees>-3.97018424235284328460693359375</LongitudeDegrees>
            </Position>
            <AltitudeMeters>20.200000762939453125</AltitudeMeters>
            <DistanceMeters>3422.4335430887</DistanceMeters>
          </Trackpoint>
          <Trackpoint>
            <Time>2021-01-13T14:33:41.000Z</Time>
            <Position>
              <LatitudeDegrees>43.36131840012967586517333984375</LatitudeDegrees>
              <LongitudeDegrees>-3.9702280797064304351806640625</LongitudeDegrees>
            </Position>
            <AltitudeMeters>20.200000762939453125</AltitudeMeters>
            <DistanceMeters>3429.2820624214</DistanceMeters>
          </Trackpoint>
          <Trackpoint>
            <Time>2021-01-13T14:33:43.000Z</Time>
            <Position>
              <LatitudeDegrees>43.3612254448235034942626953125</LatitudeDegrees>
              <LongitudeDegrees>-3.97032237611711025238037109375</LongitudeDegrees>
            </Position>
            <AltitudeMeters>20.200000762939453125</AltitudeMeters>
            <DistanceMeters>3442.1377405084</DistanceMeters>
          </Trackpoint>
          <Trackpoint>
            <Time>2021-01-13T14:33:45.000Z</Time>
            <Position>
              <LatitudeDegrees>43.36118311621248722076416015625</LatitudeDegrees>
              <LongitudeDegrees>-3.9704564027488231658935546875</LongitudeDegrees>
            </Position>
            <AltitudeMeters>20.200000762939453125</AltitudeMeters>
            <DistanceMeters>3453.9623632787</DistanceMeters>
          </Trackpoint>
          <Trackpoint>
            <Time>2021-01-13T14:33:47.000Z</Time>
            <Position>
              <LatitudeDegrees>43.36120977066457271575927734375</LatitudeDegrees>
              <LongitudeDegrees>-3.97059747017920017242431640625</LongitudeDegrees>
            </Position>
            <AltitudeMeters>20.3999996185302734375</AltitudeMeters>
            <DistanceMeters>3465.7567826208</DistanceMeters>
          </Trackpoint>
          <Trackpoint>
            <Time>2021-01-13T14:33:48.000Z</Time>
            <Position>
              <LatitudeDegrees>43.36122787557542324066162109375</LatitudeDegrees>
              <LongitudeDegrees>-3.9706662856042385101318359375</LongitudeDegrees>
            </Position>
            <AltitudeMeters>20.3999996185302734375</AltitudeMeters>
            <DistanceMeters>3471.6790133583</DistanceMeters>
          </Trackpoint>
          <Trackpoint>
            <Time>2021-01-13T14:33:49.000Z</Time>
            <Position>
              <LatitudeDegrees>43.36124430410563945770263671875</LatitudeDegrees>
              <LongitudeDegrees>-3.97073510102927684783935546875</LongitudeDegrees>
            </Position>
            <AltitudeMeters>20.3999996185302734375</AltitudeMeters>
            <DistanceMeters>3477.5399357083</DistanceMeters>
          </Trackpoint>
          <Trackpoint>
            <Time>2021-01-13T14:33:51.000Z</Time>
            <Position>
              <LatitudeDegrees>43.3612708747386932373046875</LatitudeDegrees>
              <LongitudeDegrees>-3.97087725810706615447998046875</LongitudeDegrees>
            </Position>
            <AltitudeMeters>20.6000003814697265625</AltitudeMeters>
            <DistanceMeters>3489.4175147666</DistanceMeters>
          </Trackpoint>
          <Trackpoint>
            <Time>2021-01-13T14:33:53.000Z</Time>
            <Position>
              <LatitudeDegrees>43.361283950507640838623046875</LatitudeDegrees>
              <LongitudeDegrees>-3.97102276794612407684326171875</LongitudeDegrees>
            </Position>
            <AltitudeMeters>20.799999237060546875</AltitudeMeters>
            <DistanceMeters>3501.2817817733</DistanceMeters>
          </Trackpoint>
          <Trackpoint>
            <Time>2021-01-13T14:33:54.000Z</Time>
            <Position>
              <LatitudeDegrees>43.36128537543118000030517578125</LatitudeDegrees>
              <LongitudeDegrees>-3.9710964448750019073486328125</LongitudeDegrees>
            </Position>
            <AltitudeMeters>20.799999237060546875</AltitudeMeters>
            <DistanceMeters>3507.2450393593</DistanceMeters>
          </Trackpoint>
          <Trackpoint>
            <Time>2021-01-13T14:33:55.000Z</Time>
            <Position>
              <LatitudeDegrees>43.36127984337508678436279296875</LatitudeDegrees>
              <LongitudeDegrees>-3.971169702708721160888671875</LongitudeDegrees>
            </Position>
            <AltitudeMeters>21.200000762939453125</AltitudeMeters>
            <DistanceMeters>3513.203752356</DistanceMeters>
          </Trackpoint>
          <Trackpoint>
            <Time>2021-01-13T14:33:57.000Z</Time>
            <Position>
              <LatitudeDegrees>43.3612495847046375274658203125</LatitudeDegrees>
              <LongitudeDegrees>-3.97130758501589298248291015625</LongitudeDegrees>
            </Position>
            <AltitudeMeters>21.3999996185302734375</AltitudeMeters>
            <DistanceMeters>3524.8583827607</DistanceMeters>
          </Trackpoint>
          <Trackpoint>
            <Time>2021-01-13T14:33:58.000Z</Time>
            <Position>
              <LatitudeDegrees>43.36122888140380382537841796875</LatitudeDegrees>
              <LongitudeDegrees>-3.971372880041599273681640625</LongitudeDegrees>
            </Position>
            <AltitudeMeters>21.6000003814697265625</AltitudeMeters>
            <DistanceMeters>3530.6222053844</DistanceMeters>
          </Trackpoint>
          <Trackpoint>
            <Time>2021-01-13T14:33:59.000Z</Time>
            <Position>
              <LatitudeDegrees>43.36121119558811187744140625</LatitudeDegrees>
              <LongitudeDegrees>-3.97143985144793987274169921875</LongitudeDegrees>
            </Position>
            <AltitudeMeters>21.6000003814697265625</AltitudeMeters>
            <DistanceMeters>3536.3875944771</DistanceMeters>
          </Trackpoint>
          <Trackpoint>
            <Time>2021-01-13T14:34:00.000Z</Time>
            <Position>
              <LatitudeDegrees>43.361197449266910552978515625</LatitudeDegrees>
              <LongitudeDegrees>-3.97150791250169277191162109375</LongitudeDegrees>
            </Position>
            <AltitudeMeters>21.6000003814697265625</AltitudeMeters>
            <DistanceMeters>3542.1042234357</DistanceMeters>
          </Trackpoint>
          <Trackpoint>
            <Time>2021-01-13T14:34:01.000Z</Time>
            <Position>
              <LatitudeDegrees>43.36118445731699466705322265625</LatitudeDegrees>
              <LongitudeDegrees>-3.97157547064125537872314453125</LongitudeDegrees>
            </Position>
            <AltitudeMeters>21.799999237060546875</AltitudeMeters>
            <DistanceMeters>3547.7589118169</DistanceMeters>
          </Trackpoint>
          <Trackpoint>
            <Time>2021-01-13T14:34:03.000Z</Time>
            <Position>
              <LatitudeDegrees>43.36115621030330657958984375</LatitudeDegrees>
              <LongitudeDegrees>-3.971708826720714569091796875</LongitudeDegrees>
            </Position>
            <AltitudeMeters>22.200000762939453125</AltitudeMeters>
            <DistanceMeters>3558.9986079628</DistanceMeters>
          </Trackpoint>
          <Trackpoint>
            <Time>2021-01-13T14:34:04.000Z</Time>
            <Position>
              <LatitudeDegrees>43.3611422963440418243408203125</LatitudeDegrees>
              <LongitudeDegrees>-3.971774540841579437255859375</LongitudeDegrees>
            </Position>
            <AltitudeMeters>22.200000762939453125</AltitudeMeters>
            <DistanceMeters>3564.5363096163</DistanceMeters>
          </Trackpoint>
          <Trackpoint>
            <Time>2021-01-13T14:34:05.000Z</Time>
            <Position>
              <LatitudeDegrees>43.36112813092768192291259765625</LatitudeDegrees>
              <LongitudeDegrees>-3.97183983586728572845458984375</LongitudeDegrees>
            </Position>
            <AltitudeMeters>22.3999996185302734375</AltitudeMeters>
            <DistanceMeters>3570.0511348595</DistanceMeters>
          </Trackpoint>
          <Trackpoint>
            <Time>2021-01-13T14:34:07.000Z</Time>
            <Position>
              <LatitudeDegrees>43.36109854280948638916015625</LatitudeDegrees>
              <LongitudeDegrees>-3.97196807898581027984619140625</LongitudeDegrees>
            </Position>
            <AltitudeMeters>22.6000003814697265625</AltitudeMeters>
            <DistanceMeters>3580.9386420802</DistanceMeters>
          </Trackpoint>
          <Trackpoint>
            <Time>2021-01-13T14:34:08.000Z</Time>
            <Position>
              <LatitudeDegrees>43.361082784831523895263671875</LatitudeDegrees>
              <LongitudeDegrees>-3.97203211672604084014892578125</LongitudeDegrees>
            </Position>
            <AltitudeMeters>22.799999237060546875</AltitudeMeters>
            <DistanceMeters>3586.4090783823</DistanceMeters>
          </Trackpoint>
          <Trackpoint>
            <Time>2021-01-13T14:34:09.000Z</Time>
            <Position>
              <LatitudeDegrees>43.36106644012033939361572265625</LatitudeDegrees>
              <LongitudeDegrees>-3.97209615446627140045166015625</LongitudeDegrees>
            </Position>
            <AltitudeMeters>22.799999237060546875</AltitudeMeters>
            <DistanceMeters>3591.9009319239</DistanceMeters>
          </Trackpoint>
          <Trackpoint>
            <Time>2021-01-13T14:34:11.000Z</Time>
            <Position>
              <LatitudeDegrees>43.36102419532835483551025390625</LatitudeDegrees>
              <LongitudeDegrees>-3.97222020663321018218994140625</LongitudeDegrees>
            </Position>
            <AltitudeMeters>23</AltitudeMeters>
            <DistanceMeters>3602.9861148385</DistanceMeters>
          </Trackpoint>
          <Trackpoint>
            <Time>2021-01-13T14:34:12.000Z</Time>
            <Position>
              <LatitudeDegrees>43.36099737323820590972900390625</LatitudeDegrees>
              <LongitudeDegrees>-3.97227887995541095733642578125</LongitudeDegrees>
            </Position>
            <AltitudeMeters>23</AltitudeMeters>
            <DistanceMeters>3608.5951063994</DistanceMeters>
          </Trackpoint>
          <Trackpoint>
            <Time>2021-01-13T14:34:13.000Z</Time>
            <Position>
              <LatitudeDegrees>43.36096451617777347564697265625</LatitudeDegrees>
              <LongitudeDegrees>-3.9723336137831211090087890625</LongitudeDegrees>
            </Position>
            <AltitudeMeters>23.200000762939453125</AltitudeMeters>
            <DistanceMeters>3614.3400980794</DistanceMeters>
          </Trackpoint>
          <Trackpoint>
            <Time>2021-01-13T14:34:15.000Z</Time>
            <Position>
              <LatitudeDegrees>43.3608864806592464447021484375</LatitudeDegrees>
              <LongitudeDegrees>-3.972436375916004180908203125</LongitudeDegrees>
            </Position>
            <AltitudeMeters>23.3999996185302734375</AltitudeMeters>
            <DistanceMeters>3626.3653899333</DistanceMeters>
          </Trackpoint>
          <Trackpoint>
            <Time>2021-01-13T14:34:17.000Z</Time>
            <Position>
              <LatitudeDegrees>43.36079603992402553558349609375</LatitudeDegrees>
              <LongitudeDegrees>-3.97252664901316165924072265625</LongitudeDegrees>
            </Position>
            <AltitudeMeters>23.6000003814697265625</AltitudeMeters>
            <DistanceMeters>3638.8033668443</DistanceMeters>
          </Trackpoint>
          <Trackpoint>
            <Time>2021-01-13T14:34:18.000Z</Time>
            <Position>
              <LatitudeDegrees>43.36074373684823513031005859375</LatitudeDegrees>
              <LongitudeDegrees>-3.9725612662732601165771484375</LongitudeDegrees>
            </Position>
            <AltitudeMeters>23.799999237060546875</AltitudeMeters>
            <DistanceMeters>3645.2637858187</DistanceMeters>
          </Trackpoint>
          <Trackpoint>
            <Time>2021-01-13T14:34:19.000Z</Time>
            <Position>
              <LatitudeDegrees>43.36068858392536640167236328125</LatitudeDegrees>
              <LongitudeDegrees>-3.97258825600147247314453125</LongitudeDegrees>
            </Position>
            <AltitudeMeters>24</AltitudeMeters>
            <DistanceMeters>3651.778489134</DistanceMeters>
          </Trackpoint>
          <Trackpoint>
            <Time>2021-01-13T14:34:21.000Z</Time>
            <Position>
              <LatitudeDegrees>43.36057492531836032867431640625</LatitudeDegrees>
              <LongitudeDegrees>-3.97262706421315670013427734375</LongitudeDegrees>
            </Position>
            <AltitudeMeters>24.200000762939453125</AltitudeMeters>
            <DistanceMeters>3664.8123998341</DistanceMeters>
          </Trackpoint>
          <Trackpoint>
            <Time>2021-01-13T14:34:22.000Z</Time>
            <Position>
              <LatitudeDegrees>43.36051709018647670745849609375</LatitudeDegrees>
              <LongitudeDegrees>-3.97263930179178714752197265625</LongitudeDegrees>
            </Position>
            <AltitudeMeters>24.200000762939453125</AltitudeMeters>
            <DistanceMeters>3671.3243303452</DistanceMeters>
          </Trackpoint>
          <Trackpoint>
            <Time>2021-01-13T14:34:23.000Z</Time>
            <Position>
              <LatitudeDegrees>43.3604581654071807861328125</LatitudeDegrees>
              <LongitudeDegrees>-3.97264902479946613311767578125</LongitudeDegrees>
            </Position>
            <AltitudeMeters>24.200000762939453125</AltitudeMeters>
            <DistanceMeters>3677.9298832651</DistanceMeters>
          </Trackpoint>
          <Trackpoint>
            <Time>2021-01-13T14:34:25.000Z</Time>
            <Position>
              <LatitudeDegrees>43.36034207604825496673583984375</LatitudeDegrees>
              <LongitudeDegrees>-3.97267282940447330474853515625</LongitudeDegrees>
            </Position>
            <AltitudeMeters>24.200000762939453125</AltitudeMeters>
            <DistanceMeters>3690.9938966144</DistanceMeters>
          </Trackpoint>
          <Trackpoint>
            <Time>2021-01-13T14:34:27.000Z</Time>
            <Position>
              <LatitudeDegrees>43.36023797281086444854736328125</LatitudeDegrees>
              <LongitudeDegrees>-3.97272144444286823272705078125</LongitudeDegrees>
            </Position>
            <AltitudeMeters>24.200000762939453125</AltitudeMeters>
            <DistanceMeters>3703.2305925571</DistanceMeters>
          </Trackpoint>
          <Trackpoint>
            <Time>2021-01-13T14:34:28.000Z</Time>
            <Position>
              <LatitudeDegrees>43.3601887710392475128173828125</LatitudeDegrees>
              <LongitudeDegrees>-3.97275321185588836669921875</LongitudeDegrees>
            </Position>
            <AltitudeMeters>24.200000762939453125</AltitudeMeters>
            <DistanceMeters>3709.2810412928</DistanceMeters>
          </Trackpoint>
          <Trackpoint>
            <Time>2021-01-13T14:34:29.000Z</Time>
            <Position>
              <LatitudeDegrees>43.36014342494308948516845703125</LatitudeDegrees>
              <LongitudeDegrees>-3.97279000841081142425537109375</LongitudeDegrees>
            </Position>
            <AltitudeMeters>24</AltitudeMeters>
            <DistanceMeters>3715.1404227141</DistanceMeters>
          </Trackpoint>
          <Trackpoint>
            <Time>2021-01-13T14:34:30.000Z</Time>
            <Position>
              <LatitudeDegrees>43.360100425779819488525390625</LatitudeDegrees>
              <LongitudeDegrees>-3.9728304930031299591064453125</LongitudeDegrees>
            </Position>
            <AltitudeMeters>23.799999237060546875</AltitudeMeters>
            <DistanceMeters>3720.9409455207</DistanceMeters>
          </Trackpoint>
          <Trackpoint>
            <Time>2021-01-13T14:34:31.000Z</Time>
            <Position>
              <LatitudeDegrees>43.36005910299718379974365234375</LatitudeDegrees>
              <LongitudeDegrees>-3.97287466563284397125244140625</LongitudeDegrees>
            </Position>
            <AltitudeMeters>23.6000003814697265625</AltitudeMeters>
            <DistanceMeters>3726.7663233862</DistanceMeters>
          </Trackpoint>
          <Trackpoint>
            <Time>2021-01-13T14:34:33.000Z</Time>
            <Position>
              <LatitudeDegrees>43.35997545160353183746337890625</LatitudeDegrees>
              <LongitudeDegrees>-3.9729679562151432037353515625</LongitudeDegrees>
            </Position>
            <AltitudeMeters>23.3999996185302734375</AltitudeMeters>
            <DistanceMeters>3738.7532569548</DistanceMeters>
          </Trackpoint>
          <Trackpoint>
            <Time>2021-01-13T14:34:34.000Z</Time>
            <Position>
              <LatitudeDegrees>43.35993471555411815643310546875</LatitudeDegrees>
              <LongitudeDegrees>-3.97301598452031612396240234375</LongitudeDegrees>
            </Position>
            <AltitudeMeters>23.200000762939453125</AltitudeMeters>
            <DistanceMeters>3744.7255933446</DistanceMeters>
          </Trackpoint>
          <Trackpoint>
            <Time>2021-01-13T14:34:35.000Z</Time>
            <Position>
              <LatitudeDegrees>43.35989288985729217529296875</LatitudeDegrees>
              <LongitudeDegrees>-3.97306225262582302093505859375</LongitudeDegrees>
            </Position>
            <AltitudeMeters>23.200000762939453125</AltitudeMeters>
            <DistanceMeters>3750.699441527</DistanceMeters>
          </Trackpoint>
          <Trackpoint>
            <Time>2021-01-13T14:34:37.000Z</Time>
            <Position>
              <LatitudeDegrees>43.35980747826397418975830078125</LatitudeDegrees>
              <LongitudeDegrees>-3.97315017879009246826171875</LongitudeDegrees>
            </Position>
            <AltitudeMeters>23</AltitudeMeters>
            <DistanceMeters>3762.5739791463</DistanceMeters>
          </Trackpoint>
          <Trackpoint>
            <Time>2021-01-13T14:34:39.000Z</Time>
            <Position>
              <LatitudeDegrees>43.3597240783274173736572265625</LatitudeDegrees>
              <LongitudeDegrees>-3.9732391946017742156982421875</LongitudeDegrees>
            </Position>
            <AltitudeMeters>22.799999237060546875</AltitudeMeters>
            <DistanceMeters>3774.3239084547</DistanceMeters>
          </Trackpoint>
          <Trackpoint>
            <Time>2021-01-13T14:34:41.000Z</Time>
            <Position>
              <LatitudeDegrees>43.35964419879019260406494140625</LatitudeDegrees>
              <LongitudeDegrees>-3.9733350835740566253662109375</LongitudeDegrees>
            </Position>
            <AltitudeMeters>22.6000003814697265625</AltitudeMeters>
            <DistanceMeters>3786.1252163905</DistanceMeters>
          </Trackpoint>
          <Trackpoint>
            <Time>2021-01-13T14:34:42.000Z</Time>
            <Position>
              <LatitudeDegrees>43.3596043847501277923583984375</LatitudeDegrees>
              <LongitudeDegrees>-3.9733843691647052764892578125</LongitudeDegrees>
            </Position>
            <AltitudeMeters>22.6000003814697265625</AltitudeMeters>
            <DistanceMeters>3792.0869594983</DistanceMeters>
          </Trackpoint>
          <Trackpoint>
            <Time>2021-01-13T14:34:43.000Z</Time>
            <Position>
              <LatitudeDegrees>43.35956431925296783447265625</LatitudeDegrees>
              <LongitudeDegrees>-3.97343340329825878143310546875</LongitudeDegrees>
            </Position>
            <AltitudeMeters>22.6000003814697265625</AltitudeMeters>
            <DistanceMeters>3798.0562711544</DistanceMeters>
          </Trackpoint>
          <Trackpoint>
            <Time>2021-01-13T14:34:45.000Z</Time>
            <Position>
              <LatitudeDegrees>43.35948527790606021881103515625</LatitudeDegrees>
              <LongitudeDegrees>-3.9735317230224609375</LongitudeDegrees>
            </Position>
            <AltitudeMeters>22.6000003814697265625</AltitudeMeters>
            <DistanceMeters>3809.9182545952</DistanceMeters>
          </Trackpoint>
          <Trackpoint>
            <Time>2021-01-13T14:34:46.000Z</Time>
            <Position>
              <LatitudeDegrees>43.35945166647434234619140625</LatitudeDegrees>
              <LongitudeDegrees>-3.9735872112214565277099609375</LongitudeDegrees>
            </Position>
            <AltitudeMeters>22.6000003814697265625</AltitudeMeters>
            <DistanceMeters>3815.7629769314</DistanceMeters>
          </Trackpoint>
          <Trackpoint>
            <Time>2021-01-13T14:34:47.000Z</Time>
            <Position>
              <LatitudeDegrees>43.3594255149364471435546875</LatitudeDegrees>
              <LongitudeDegrees>-3.97365032695233821868896484375</LongitudeDegrees>
            </Position>
            <AltitudeMeters>22.799999237060546875</AltitudeMeters>
            <DistanceMeters>3821.6423589251</DistanceMeters>
          </Trackpoint>
          <Trackpoint>
            <Time>2021-01-13T14:34:48.000Z</Time>
            <Position>
              <LatitudeDegrees>43.3594042249023914337158203125</LatitudeDegrees>
              <LongitudeDegrees>-3.973715789616107940673828125</LongitudeDegrees>
            </Position>
            <AltitudeMeters>22.799999237060546875</AltitudeMeters>
            <DistanceMeters>3827.4459944353</DistanceMeters>
          </Trackpoint>
          <Trackpoint>
            <Time>2021-01-13T14:34:49.000Z</Time>
            <Position>
              <LatitudeDegrees>43.35938469506800174713134765625</LatitudeDegrees>
              <LongitudeDegrees>-3.9737813360989093780517578125</LongitudeDegrees>
            </Position>
            <AltitudeMeters>22.799999237060546875</AltitudeMeters>
            <DistanceMeters>3833.1791853668</DistanceMeters>
          </Trackpoint>
          <Trackpoint>
            <Time>2021-01-13T14:34:51.000Z</Time>
            <Position>
              <LatitudeDegrees>43.359347395598888397216796875</LatitudeDegrees>
              <LongitudeDegrees>-3.9739147759974002838134765625</LongitudeDegrees>
            </Position>
            <AltitudeMeters>23</AltitudeMeters>
            <DistanceMeters>3844.7482731896</DistanceMeters>
          </Trackpoint>
          <Trackpoint>
            <Time>2021-01-13T14:34:53.000Z</Time>
            <Position>
              <LatitudeDegrees>43.35930640809237957000732421875</LatitudeDegrees>
              <LongitudeDegrees>-3.97405131720006465911865234375</LongitudeDegrees>
            </Position>
            <AltitudeMeters>23</AltitudeMeters>
            <DistanceMeters>3856.7027698248</DistanceMeters>
          </Trackpoint>
          <Trackpoint>
            <Time>2021-01-13T14:34:55.000Z</Time>
            <Position>
              <LatitudeDegrees>43.35925427265465259552001953125</LatitudeDegrees>
              <LongitudeDegrees>-3.9741840027272701263427734375</LongitudeDegrees>
            </Position>
            <AltitudeMeters>23.200000762939453125</AltitudeMeters>
            <DistanceMeters>3868.9076926439</DistanceMeters>
          </Trackpoint>
          <Trackpoint>
            <Time>2021-01-13T14:34:57.000Z</Time>
            <Position>
              <LatitudeDegrees>43.3591946773231029510498046875</LatitudeDegrees>
              <LongitudeDegrees>-3.9743150956928730010986328125</LongitudeDegrees>
            </Position>
            <AltitudeMeters>23.200000762939453125</AltitudeMeters>
            <DistanceMeters>3881.4187815285</DistanceMeters>
          </Trackpoint>
          <Trackpoint>
            <Time>2021-01-13T14:34:58.000Z</Time>
            <Position>
              <LatitudeDegrees>43.35916006006300449371337890625</LatitudeDegrees>
              <LongitudeDegrees>-3.97437888197600841522216796875</LongitudeDegrees>
            </Position>
            <AltitudeMeters>23.3999996185302734375</AltitudeMeters>
            <DistanceMeters>3887.8596022203</DistanceMeters>
          </Trackpoint>
          <Trackpoint>
            <Time>2021-01-13T14:34:59.000Z</Time>
            <Position>
              <LatitudeDegrees>43.35912250913679599761962890625</LatitudeDegrees>
              <LongitudeDegrees>-3.97444023750722408294677734375</LongitudeDegrees>
            </Position>
            <AltitudeMeters>23.6000003814697265625</AltitudeMeters>
            <DistanceMeters>3894.3493076477</DistanceMeters>
          </Trackpoint>
          <Trackpoint>
            <Time>2021-01-13T14:35:01.000Z</Time>
            <Position>
              <LatitudeDegrees>43.3590434677898883819580078125</LatitudeDegrees>
              <LongitudeDegrees>-3.97456370294094085693359375</LongitudeDegrees>
            </Position>
            <AltitudeMeters>23.799999237060546875</AltitudeMeters>
            <DistanceMeters>3907.6618686444</DistanceMeters>
          </Trackpoint>
          <Trackpoint>
            <Time>2021-01-13T14:35:02.000Z</Time>
            <Position>
              <LatitudeDegrees>43.359000720083713531494140625</LatitudeDegrees>
              <LongitudeDegrees>-3.97462396882474422454833984375</LongitudeDegrees>
            </Position>
            <AltitudeMeters>24</AltitudeMeters>
            <DistanceMeters>3914.4746942639</DistanceMeters>
          </Trackpoint>
          <Trackpoint>
            <Time>2021-01-13T14:35:03.000Z</Time>
            <Position>
              <LatitudeDegrees>43.35895478725433349609375</LatitudeDegrees>
              <LongitudeDegrees>-3.97468180395662784576416015625</LongitudeDegrees>
            </Position>
            <AltitudeMeters>24</AltitudeMeters>
            <DistanceMeters>3921.406435514</DistanceMeters>
          </Trackpoint>
          <Trackpoint>
            <Time>2021-01-13T14:35:05.000Z</Time>
            <Position>
              <LatitudeDegrees>43.35886099375784397125244140625</LatitudeDegrees>
              <LongitudeDegrees>-3.974795378744602203369140625</LongitudeDegrees>
            </Position>
            <AltitudeMeters>24</AltitudeMeters>
            <DistanceMeters>3935.3154382725</DistanceMeters>
          </Trackpoint>
          <Trackpoint>
            <Time>2021-01-13T14:35:07.000Z</Time>
            <Position>
              <LatitudeDegrees>43.35876761935651302337646484375</LatitudeDegrees>
              <LongitudeDegrees>-3.9749115519225597381591796875</LongitudeDegrees>
            </Position>
            <AltitudeMeters>24.3999996185302734375</AltitudeMeters>
            <DistanceMeters>3949.3298652196</DistanceMeters>
          </Trackpoint>
          <Trackpoint>
            <Time>2021-01-13T14:35:09.000Z</Time>
            <Position>
              <LatitudeDegrees>43.3586813695728778839111328125</LatitudeDegrees>
              <LongitudeDegrees>-3.97503736428916454315185546875</LongitudeDegrees>
            </Position>
            <AltitudeMeters>24.6000003814697265625</AltitudeMeters>
            <DistanceMeters>3963.3236580494</DistanceMeters>
          </Trackpoint>
          <Trackpoint>
            <Time>2021-01-13T14:35:10.000Z</Time>
            <Position>
              <LatitudeDegrees>43.35864054970443248748779296875</LatitudeDegrees>
              <LongitudeDegrees>-3.97510307841002941131591796875</LongitudeDegrees>
            </Position>
            <AltitudeMeters>24.6000003814697265625</AltitudeMeters>
            <DistanceMeters>3970.3182955792</DistanceMeters>
          </Trackpoint>
          <Trackpoint>
            <Time>2021-01-13T14:35:11.000Z</Time>
            <Position>
              <LatitudeDegrees>43.3586015738546848297119140625</LatitudeDegrees>
              <LongitudeDegrees>-3.9751690439879894256591796875</LongitudeDegrees>
            </Position>
            <AltitudeMeters>24.6000003814697265625</AltitudeMeters>
            <DistanceMeters>3977.1970745818</DistanceMeters>
          </Trackpoint>
          <Trackpoint>
            <Time>2021-01-13T14:35:13.000Z</Time>
            <Position>
              <LatitudeDegrees>43.35852957330644130706787109375</LatitudeDegrees>
              <LongitudeDegrees>-3.9753021486103534698486328125</LongitudeDegrees>
            </Position>
            <AltitudeMeters>24.799999237060546875</AltitudeMeters>
            <DistanceMeters>3990.6224358738</DistanceMeters>
          </Trackpoint>
          <Trackpoint>
            <Time>2021-01-13T14:35:15.000Z</Time>
            <Position>
              <LatitudeDegrees>43.3584527112543582916259765625</LatitudeDegrees>
              <LongitudeDegrees>-3.975418321788311004638671875</LongitudeDegrees>
            </Position>
            <AltitudeMeters>25.3999996185302734375</AltitudeMeters>
            <DistanceMeters>4003.3336576015</DistanceMeters>
          </Trackpoint>
          <Trackpoint>
            <Time>2021-01-13T14:35:16.000Z</Time>
            <Position>
              <LatitudeDegrees>43.3584131486713886260986328125</LatitudeDegrees>
              <LongitudeDegrees>-3.97547297179698944091796875</LongitudeDegrees>
            </Position>
            <AltitudeMeters>25.799999237060546875</AltitudeMeters>
            <DistanceMeters>4009.5751117413</DistanceMeters>
          </Trackpoint>
          <Trackpoint>
            <Time>2021-01-13T14:35:17.000Z</Time>
            <Position>
              <LatitudeDegrees>43.3583742566406726837158203125</LatitudeDegrees>
              <LongitudeDegrees>-3.9755284599959850311279296875</LongitudeDegrees>
            </Position>
            <AltitudeMeters>26</AltitudeMeters>
            <DistanceMeters>4015.8122239995</DistanceMeters>
          </Trackpoint>
          <Trackpoint>
            <Time>2021-01-13T14:35:19.000Z</Time>
            <Position>
              <LatitudeDegrees>43.35829135961830615997314453125</LatitudeDegrees>
              <LongitudeDegrees>-3.97563180886209011077880859375</LongitudeDegrees>
            </Position>
            <AltitudeMeters>26.799999237060546875</AltitudeMeters>
            <DistanceMeters>4028.2654377553</DistanceMeters>
          </Trackpoint>
          <Trackpoint>
            <Time>2021-01-13T14:35:21.000Z</Time>
            <Position>
              <LatitudeDegrees>43.35820519365370273590087890625</LatitudeDegrees>
              <LongitudeDegrees>-3.9757297933101654052734375</LongitudeDegrees>
            </Position>
            <AltitudeMeters>27.3999996185302734375</AltitudeMeters>
            <DistanceMeters>4040.7092213785</DistanceMeters>
          </Trackpoint>
          <Trackpoint>
            <Time>2021-01-13T14:35:23.000Z</Time>
            <Position>
              <LatitudeDegrees>43.35812070406973361968994140625</LatitudeDegrees>
              <LongitudeDegrees>-3.975829370319843292236328125</LongitudeDegrees>
            </Position>
            <AltitudeMeters>28</AltitudeMeters>
            <DistanceMeters>4053.0933571305</DistanceMeters>
          </Trackpoint>
          <Trackpoint>
            <Time>2021-01-13T14:35:25.000Z</Time>
            <Position>
              <LatitudeDegrees>43.35803336463868618011474609375</LatitudeDegrees>
              <LongitudeDegrees>-3.97592769004404544830322265625</LongitudeDegrees>
            </Position>
            <AltitudeMeters>28.3999996185302734375</AltitudeMeters>
            <DistanceMeters>4065.6555868663</DistanceMeters>
          </Trackpoint>
          <Trackpoint>
            <Time>2021-01-13T14:35:27.000Z</Time>
            <Position>
              <LatitudeDegrees>43.357941918075084686279296875</LatitudeDegrees>
              <LongitudeDegrees>-3.97601854987442493438720703125</LongitudeDegrees>
            </Position>
            <AltitudeMeters>29</AltitudeMeters>
            <DistanceMeters>4078.2117050815</DistanceMeters>
          </Trackpoint>
          <Trackpoint>
            <Time>2021-01-13T14:35:29.000Z</Time>
            <Position>
              <LatitudeDegrees>43.35785214789211750030517578125</LatitudeDegrees>
              <LongitudeDegrees>-3.9761058054864406585693359375</LongitudeDegrees>
            </Position>
            <AltitudeMeters>29.6000003814697265625</AltitudeMeters>
            <DistanceMeters>4090.4465560088</DistanceMeters>
          </Trackpoint>
          <Trackpoint>
            <Time>2021-01-13T14:35:30.000Z</Time>
            <Position>
              <LatitudeDegrees>43.35780772380530834197998046875</LatitudeDegrees>
              <LongitudeDegrees>-3.97614930756390094757080078125</LongitudeDegrees>
            </Position>
            <AltitudeMeters>29.799999237060546875</AltitudeMeters>
            <DistanceMeters>4096.5163757665</DistanceMeters>
          </Trackpoint>
          <Trackpoint>
            <Time>2021-01-13T14:35:31.000Z</Time>
            <Position>
              <LatitudeDegrees>43.3577637188136577606201171875</LatitudeDegrees>
              <LongitudeDegrees>-3.97619339637458324432373046875</LongitudeDegrees>
            </Position>
            <AltitudeMeters>30</AltitudeMeters>
            <DistanceMeters>4102.5772627456</DistanceMeters>
          </Trackpoint>
          <Trackpoint>
            <Time>2021-01-13T14:35:33.000Z</Time>
            <Position>
              <LatitudeDegrees>43.35767713375389575958251953125</LatitudeDegrees>
              <LongitudeDegrees>-3.97627721540629863739013671875</LongitudeDegrees>
            </Position>
            <AltitudeMeters>30.6000003814697265625</AltitudeMeters>
            <DistanceMeters>4114.3621079168</DistanceMeters>
          </Trackpoint>
          <Trackpoint>
            <Time>2021-01-13T14:35:34.000Z</Time>
            <Position>
              <LatitudeDegrees>43.35763405077159404754638671875</LatitudeDegrees>
              <LongitudeDegrees>-3.9763166941702365875244140625</LongitudeDegrees>
            </Position>
            <AltitudeMeters>30.799999237060546875</AltitudeMeters>
            <DistanceMeters>4120.1251471463</DistanceMeters>
          </Trackpoint>
          <Trackpoint>
            <Time>2021-01-13T14:35:35.000Z</Time>
            <Position>
              <LatitudeDegrees>43.35758945904672145843505859375</LatitudeDegrees>
              <LongitudeDegrees>-3.9763534069061279296875</LongitudeDegrees>
            </Position>
            <AltitudeMeters>30.799999237060546875</AltitudeMeters>
            <DistanceMeters>4125.910081312</DistanceMeters>
          </Trackpoint>
          <Trackpoint>
            <Time>2021-01-13T14:35:37.000Z</Time>
            <Position>
              <LatitudeDegrees>43.35749709047377109527587890625</LatitudeDegrees>
              <LongitudeDegrees>-3.9764129184186458587646484375</LongitudeDegrees>
            </Position>
            <AltitudeMeters>31</AltitudeMeters>
            <DistanceMeters>4137.2636860804</DistanceMeters>
          </Trackpoint>
          <Trackpoint>
            <Time>2021-01-13T14:35:38.000Z</Time>
            <Position>
              <LatitudeDegrees>43.35744881071150302886962890625</LatitudeDegrees>
              <LongitudeDegrees>-3.97643144242465496063232421875</LongitudeDegrees>
            </Position>
            <AltitudeMeters>31</AltitudeMeters>
            <DistanceMeters>4142.8436236767</DistanceMeters>
          </Trackpoint>
          <Trackpoint>
            <Time>2021-01-13T14:35:39.000Z</Time>
            <Position>
              <LatitudeDegrees>43.35739986039698123931884765625</LatitudeDegrees>
              <LongitudeDegrees>-3.9764457754790782928466796875</LongitudeDegrees>
            </Position>
            <AltitudeMeters>31.200000762939453125</AltitudeMeters>
            <DistanceMeters>4148.4138429418</DistanceMeters>
          </Trackpoint>
          <Trackpoint>
            <Time>2021-01-13T14:35:41.000Z</Time>
            <Position>
              <LatitudeDegrees>43.3572966791689395904541015625</LatitudeDegrees>
              <LongitudeDegrees>-3.97645642049610614776611328125</LongitudeDegrees>
            </Position>
            <AltitudeMeters>31.3999996185302734375</AltitudeMeters>
            <DistanceMeters>4159.9301241442</DistanceMeters>
          </Trackpoint>
          <Trackpoint>
            <Time>2021-01-13T14:35:42.000Z</Time>
            <Position>
              <LatitudeDegrees>43.35724429227411746978759765625</LatitudeDegrees>
              <LongitudeDegrees>-3.9764561690390110015869140625</LongitudeDegrees>
            </Position>
            <AltitudeMeters>31.6000003814697265625</AltitudeMeters>
            <DistanceMeters>4165.7601505365</DistanceMeters>
          </Trackpoint>
          <Trackpoint>
            <Time>2021-01-13T14:35:43.000Z</Time>
            <Position>
              <LatitudeDegrees>43.35719282738864421844482421875</LatitudeDegrees>
              <LongitudeDegrees>-3.97645323537290096282958984375</LongitudeDegrees>
            </Position>
            <AltitudeMeters>32</AltitudeMeters>
            <DistanceMeters>4171.4933414679</DistanceMeters>
          </Trackpoint>
          <Trackpoint>
            <Time>2021-01-13T14:35:45.000Z</Time>
            <Position>
              <LatitudeDegrees>43.35708922706544399261474609375</LatitudeDegrees>
              <LongitudeDegrees>-3.9764437638223171234130859375</LongitudeDegrees>
            </Position>
            <AltitudeMeters>32.40000152587890625</AltitudeMeters>
            <DistanceMeters>4183.049933985</DistanceMeters>
          </Trackpoint>
          <Trackpoint>
            <Time>2021-01-13T14:35:47.000Z</Time>
            <Position>
              <LatitudeDegrees>43.35698663257062435150146484375</LatitudeDegrees>
              <LongitudeDegrees>-3.97643429227173328399658203125</LongitudeDegrees>
            </Position>
            <AltitudeMeters>32.799999237060546875</AltitudeMeters>
            <DistanceMeters>4194.4950328879</DistanceMeters>
          </Trackpoint>
          <Trackpoint>
            <Time>2021-01-13T14:35:49.000Z</Time>
            <Position>
              <LatitudeDegrees>43.35688403807580471038818359375</LatitudeDegrees>
              <LongitudeDegrees>-3.9764249883592128753662109375</LongitudeDegrees>
            </Position>
            <AltitudeMeters>33</AltitudeMeters>
            <DistanceMeters>4205.9389482435</DistanceMeters>
          </Trackpoint>
          <Trackpoint>
            <Time>2021-01-13T14:35:51.000Z</Time>
            <Position>
              <LatitudeDegrees>43.35678286850452423095703125</LatitudeDegrees>
              <LongitudeDegrees>-3.9764186181128025054931640625</LongitudeDegrees>
            </Position>
            <AltitudeMeters>33.40000152587890625</AltitudeMeters>
            <DistanceMeters>4217.211536044</DistanceMeters>
          </Trackpoint>
          <Trackpoint>
            <Time>2021-01-13T14:35:53.000Z</Time>
            <Position>
              <LatitudeDegrees>43.35668203420937061309814453125</LatitudeDegrees>
              <LongitudeDegrees>-3.9764109067618846893310546875</LongitudeDegrees>
            </Position>
            <AltitudeMeters>33.59999847412109375</AltitudeMeters>
            <DistanceMeters>4228.4520355704</DistanceMeters>
          </Trackpoint>
          <Trackpoint>
            <Time>2021-01-13T14:35:55.000Z</Time>
            <Position>
              <LatitudeDegrees>43.35657675750553607940673828125</LatitudeDegrees>
              <LongitudeDegrees>-3.97639967501163482666015625</LongitudeDegrees>
            </Position>
            <AltitudeMeters>34</AltitudeMeters>
            <DistanceMeters>4240.2046543972</DistanceMeters>
          </Trackpoint>
          <Trackpoint>
            <Time>2021-01-13T14:35:56.000Z</Time>
            <Position>
              <LatitudeDegrees>43.35652193985879421234130859375</LatitudeDegrees>
              <LongitudeDegrees>-3.97638760507106781005859375</LongitudeDegrees>
            </Position>
            <AltitudeMeters>34.200000762939453125</AltitudeMeters>
            <DistanceMeters>4246.3843140384</DistanceMeters>
          </Trackpoint>
          <Trackpoint>
            <Time>2021-01-13T14:35:57.000Z</Time>
            <Position>
              <LatitudeDegrees>43.356464691460132598876953125</LatitudeDegrees>
              <LongitudeDegrees>-3.97637092508375644683837890625</LongitudeDegrees>
            </Position>
            <AltitudeMeters>34.200000762939453125</AltitudeMeters>
            <DistanceMeters>4252.8983242633</DistanceMeters>
          </Trackpoint>
          <Trackpoint>
            <Time>2021-01-13T14:35:59.000Z</Time>
            <Position>
              <LatitudeDegrees>43.356344997882843017578125</LatitudeDegrees>
              <LongitudeDegrees>-3.9763361401855945587158203125</LongitudeDegrees>
            </Position>
            <AltitudeMeters>34.200000762939453125</AltitudeMeters>
            <DistanceMeters>4266.5146941741</DistanceMeters>
          </Trackpoint>
          <Trackpoint>
            <Time>2021-01-13T14:36:00.000Z</Time>
            <Position>
              <LatitudeDegrees>43.35628238506615161895751953125</LatitudeDegrees>
              <LongitudeDegrees>-3.97632180713117122650146484375</LongitudeDegrees>
            </Position>
            <AltitudeMeters>34.40000152587890625</AltitudeMeters>
            <DistanceMeters>4273.5787017073</DistanceMeters>
          </Trackpoint>
          <Trackpoint>
            <Time>2021-01-13T14:36:01.000Z</Time>
            <Position>
              <LatitudeDegrees>43.35622019134461879730224609375</LatitudeDegrees>
              <LongitudeDegrees>-3.97631677798926830291748046875</LongitudeDegrees>
            </Position>
            <AltitudeMeters>34.40000152587890625</AltitudeMeters>
            <DistanceMeters>4280.5130478959</DistanceMeters>
          </Trackpoint>
          <Trackpoint>
            <Time>2021-01-13T14:36:03.000Z</Time>
            <Position>
              <LatitudeDegrees>43.35609714500606060028076171875</LatitudeDegrees>
              <LongitudeDegrees>-3.9763589389622211456298828125</LongitudeDegrees>
            </Position>
            <AltitudeMeters>34.40000152587890625</AltitudeMeters>
            <DistanceMeters>4294.6269944154</DistanceMeters>
          </Trackpoint>
          <Trackpoint>
            <Time>2021-01-13T14:36:05.000Z</Time>
            <Position>
              <LatitudeDegrees>43.3560005016624927520751953125</LatitudeDegrees>
              <LongitudeDegrees>-3.97647251375019550323486328125</LongitudeDegrees>
            </Position>
            <AltitudeMeters>34.40000152587890625</AltitudeMeters>
            <DistanceMeters>4308.7754478506</DistanceMeters>
          </Trackpoint>
          <Trackpoint>
            <Time>2021-01-13T14:36:06.000Z</Time>
            <Position>
              <LatitudeDegrees>43.35596806369721889495849609375</LatitudeDegrees>
              <LongitudeDegrees>-3.976550884544849395751953125</LongitudeDegrees>
            </Position>
            <AltitudeMeters>34.200000762939453125</AltitudeMeters>
            <DistanceMeters>4316.0733510335</DistanceMeters>
          </Trackpoint>
          <Trackpoint>
            <Time>2021-01-13T14:36:07.000Z</Time>
            <Position>
              <LatitudeDegrees>43.3559401519596576690673828125</LatitudeDegrees>
              <LongitudeDegrees>-3.97663277573883533477783203125</LongitudeDegrees>
            </Position>
            <AltitudeMeters>34.200000762939453125</AltitudeMeters>
            <DistanceMeters>4323.3922589757</DistanceMeters>
          </Trackpoint>
          <Trackpoint>
            <Time>2021-01-13T14:36:08.000Z</Time>
            <Position>
              <LatitudeDegrees>43.3559131622314453125</LatitudeDegrees>
              <LongitudeDegrees>-3.97671659477055072784423828125</LongitudeDegrees>
            </Position>
            <AltitudeMeters>34</AltitudeMeters>
            <DistanceMeters>4330.8104316516</DistanceMeters>
          </Trackpoint>
          <Trackpoint>
            <Time>2021-01-13T14:36:09.000Z</Time>
            <Position>
              <LatitudeDegrees>43.3558868430554866790771484375</LatitudeDegrees>
              <LongitudeDegrees>-3.97680426947772502899169921875</LongitudeDegrees>
            </Position>
            <AltitudeMeters>34</AltitudeMeters>
            <DistanceMeters>4338.4858611979</DistanceMeters>
          </Trackpoint>
          <Trackpoint>
            <Time>2021-01-13T14:36:11.000Z</Time>
            <Position>
              <LatitudeDegrees>43.3558295108377933502197265625</LatitudeDegrees>
              <LongitudeDegrees>-3.97698297165334224700927734375</LongitudeDegrees>
            </Position>
            <AltitudeMeters>33.40000152587890625</AltitudeMeters>
            <DistanceMeters>4354.2928917604</DistanceMeters>
          </Trackpoint>
          <Trackpoint>
            <Time>2021-01-13T14:36:12.000Z</Time>
            <Position>
              <LatitudeDegrees>43.35579891689121723175048828125</LatitudeDegrees>
              <LongitudeDegrees>-3.97707601077854633331298828125</LongitudeDegrees>
            </Position>
            <AltitudeMeters>32.59999847412109375</AltitudeMeters>
            <DistanceMeters>4362.5563921125</DistanceMeters>
          </Trackpoint>
          <Trackpoint>
            <Time>2021-01-13T14:36:13.000Z</Time>
            <Position>
              <LatitudeDegrees>43.3557574264705181121826171875</LatitudeDegrees>
              <LongitudeDegrees>-3.9771602489054203033447265625</LongitudeDegrees>
            </Position>
            <AltitudeMeters>32.40000152587890625</AltitudeMeters>
            <DistanceMeters>4370.7903349069</DistanceMeters>
          </Trackpoint>
          <Trackpoint>
            <Time>2021-01-13T14:36:15.000Z</Time>
            <Position>
              <LatitudeDegrees>43.3556373976171016693115234375</LatitudeDegrees>
              <LongitudeDegrees>-3.977258317172527313232421875</LongitudeDegrees>
            </Position>
            <AltitudeMeters>32.200000762939453125</AltitudeMeters>
            <DistanceMeters>4386.3291641432</DistanceMeters>
          </Trackpoint>
          <Trackpoint>
            <Time>2021-01-13T14:36:17.000Z</Time>
            <Position>
              <LatitudeDegrees>43.3554922230541706085205078125</LatitudeDegrees>
              <LongitudeDegrees>-3.97720928303897380828857421875</LongitudeDegrees>
            </Position>
            <AltitudeMeters>31.799999237060546875</AltitudeMeters>
            <DistanceMeters>4402.9672536809</DistanceMeters>
          </Trackpoint>
          <Trackpoint>
            <Time>2021-01-13T14:36:18.000Z</Time>
            <Position>
              <LatitudeDegrees>43.35542843677103519439697265625</LatitudeDegrees>
              <LongitudeDegrees>-3.97714809514582157135009765625</LongitudeDegrees>
            </Position>
            <AltitudeMeters>31.3999996185302734375</AltitudeMeters>
            <DistanceMeters>4411.6230346541</DistanceMeters>
          </Trackpoint>
          <Trackpoint>
            <Time>2021-01-13T14:36:19.000Z</Time>
            <Position>
              <LatitudeDegrees>43.355371020734310150146484375</LatitudeDegrees>
              <LongitudeDegrees>-3.97707785479724407196044921875</LongitudeDegrees>
            </Position>
            <AltitudeMeters>31.200000762939453125</AltitudeMeters>
            <DistanceMeters>4420.1764947346</DistanceMeters>
          </Trackpoint>
          <Trackpoint>
            <Time>2021-01-13T14:36:20.000Z</Time>
            <Position>
              <LatitudeDegrees>43.3553136885166168212890625</LatitudeDegrees>
              <LongitudeDegrees>-3.97700585424900054931640625</LongitudeDegrees>
            </Position>
            <AltitudeMeters>31.200000762939453125</AltitudeMeters>
            <DistanceMeters>4428.8181804609</DistanceMeters>
          </Trackpoint>
          <Trackpoint>
            <Time>2021-01-13T14:36:21.000Z</Time>
            <Position>
              <LatitudeDegrees>43.355256021022796630859375</LatitudeDegrees>
              <LongitudeDegrees>-3.97693745791912078857421875</LongitudeDegrees>
            </Position>
            <AltitudeMeters>30.799999237060546875</AltitudeMeters>
            <DistanceMeters>4437.2936897737</DistanceMeters>
          </Trackpoint>
          <Trackpoint>
            <Time>2021-01-13T14:36:23.000Z</Time>
            <Position>
              <LatitudeDegrees>43.35514227859675884246826171875</LatitudeDegrees>
              <LongitudeDegrees>-3.976797647774219512939453125</LongitudeDegrees>
            </Position>
            <AltitudeMeters>30</AltitudeMeters>
            <DistanceMeters>4454.2729188654</DistanceMeters>
          </Trackpoint>
          <Trackpoint>
            <Time>2021-01-13T14:36:25.000Z</Time>
            <Position>
              <LatitudeDegrees>43.35503482259809970855712890625</LatitudeDegrees>
              <LongitudeDegrees>-3.97665540687739849090576171875</LongitudeDegrees>
            </Position>
            <AltitudeMeters>29.799999237060546875</AltitudeMeters>
            <DistanceMeters>4470.8727014751</DistanceMeters>
          </Trackpoint>
          <Trackpoint>
            <Time>2021-01-13T14:36:27.000Z</Time>
            <Position>
              <LatitudeDegrees>43.35492753423750400543212890625</LatitudeDegrees>
              <LongitudeDegrees>-3.97651844657957553863525390625</LongitudeDegrees>
            </Position>
            <AltitudeMeters>29.3999996185302734375</AltitudeMeters>
            <DistanceMeters>4487.165280373</DistanceMeters>
          </Trackpoint>
          <Trackpoint>
            <Time>2021-01-13T14:36:28.000Z</Time>
            <Position>
              <LatitudeDegrees>43.3548749797046184539794921875</LatitudeDegrees>
              <LongitudeDegrees>-3.97645440883934497833251953125</LongitudeDegrees>
            </Position>
            <AltitudeMeters>29.200000762939453125</AltitudeMeters>
            <DistanceMeters>4494.9794583153</DistanceMeters>
          </Trackpoint>
          <Trackpoint>
            <Time>2021-01-13T14:36:29.000Z</Time>
            <Position>
              <LatitudeDegrees>43.3548240177333354949951171875</LatitudeDegrees>
              <LongitudeDegrees>-3.9763924665749073028564453125</LongitudeDegrees>
            </Position>
            <AltitudeMeters>28.799999237060546875</AltitudeMeters>
            <DistanceMeters>4502.5488595491</DistanceMeters>
          </Trackpoint>
          <Trackpoint>
            <Time>2021-01-13T14:36:31.000Z</Time>
            <Position>
              <LatitudeDegrees>43.35471597500145435333251953125</LatitudeDegrees>
              <LongitudeDegrees>-3.97627118043601512908935546875</LongitudeDegrees>
            </Position>
            <AltitudeMeters>28.6000003814697265625</AltitudeMeters>
            <DistanceMeters>4518.0716994899</DistanceMeters>
          </Trackpoint>
          <Trackpoint>
            <Time>2021-01-13T14:36:33.000Z</Time>
            <Position>
              <LatitudeDegrees>43.354590833187103271484375</LatitudeDegrees>
              <LongitudeDegrees>-3.97616489790380001068115234375</LongitudeDegrees>
            </Position>
            <AltitudeMeters>27.799999237060546875</AltitudeMeters>
            <DistanceMeters>4534.4416887554</DistanceMeters>
          </Trackpoint>
          <Trackpoint>
            <Time>2021-01-13T14:36:34.000Z</Time>
            <Position>
              <LatitudeDegrees>43.3545229397714138031005859375</LatitudeDegrees>
              <LongitudeDegrees>-3.976119719445705413818359375</LongitudeDegrees>
            </Position>
            <AltitudeMeters>27.6000003814697265625</AltitudeMeters>
            <DistanceMeters>4542.8363725832</DistanceMeters>
          </Trackpoint>
          <Trackpoint>
            <Time>2021-01-13T14:36:35.000Z</Time>
            <Position>
              <LatitudeDegrees>43.35445445962250232696533203125</LatitudeDegrees>
              <LongitudeDegrees>-3.9760739542543888092041015625</LongitudeDegrees>
            </Position>
            <AltitudeMeters>27.3999996185302734375</AltitudeMeters>
            <DistanceMeters>4551.3108163973</DistanceMeters>
          </Trackpoint>
          <Trackpoint>
            <Time>2021-01-13T14:36:37.000Z</Time>
            <Position>
              <LatitudeDegrees>43.3543184213340282440185546875</LatitudeDegrees>
              <LongitudeDegrees>-3.9759804122149944305419921875</LongitudeDegrees>
            </Position>
            <AltitudeMeters>27.200000762939453125</AltitudeMeters>
            <DistanceMeters>4568.2394461713</DistanceMeters>
          </Trackpoint>
          <Trackpoint>
            <Time>2021-01-13T14:36:39.000Z</Time>
            <Position>
              <LatitudeDegrees>43.3541802875697612762451171875</LatitudeDegrees>
              <LongitudeDegrees>-3.97588611580431461334228515625</LongitudeDegrees>
            </Position>
            <AltitudeMeters>27</AltitudeMeters>
            <DistanceMeters>4585.4035437003</DistanceMeters>
          </Trackpoint>
          <Trackpoint>
            <Time>2021-01-13T14:36:41.000Z</Time>
            <Position>
              <LatitudeDegrees>43.354042656719684600830078125</LatitudeDegrees>
              <LongitudeDegrees>-3.97578771226108074188232421875</LongitudeDegrees>
            </Position>
            <AltitudeMeters>27</AltitudeMeters>
            <DistanceMeters>4602.6686189511</DistanceMeters>
          </Trackpoint>
          <Trackpoint>
            <Time>2021-01-13T14:36:42.000Z</Time>
            <Position>
              <LatitudeDegrees>43.35397535003721714019775390625</LatitudeDegrees>
              <LongitudeDegrees>-3.9757373370230197906494140625</LongitudeDegrees>
            </Position>
            <AltitudeMeters>26.799999237060546875</AltitudeMeters>
            <DistanceMeters>4611.1972334784</DistanceMeters>
          </Trackpoint>
          <Trackpoint>
            <Time>2021-01-13T14:36:43.000Z</Time>
            <Position>
              <LatitudeDegrees>43.35391097702085971832275390625</LatitudeDegrees>
              <LongitudeDegrees>-3.9756841957569122314453125</LongitudeDegrees>
            </Position>
            <AltitudeMeters>26.799999237060546875</AltitudeMeters>
            <DistanceMeters>4619.5541833537</DistanceMeters>
          </Trackpoint>
          <Trackpoint>
            <Time>2021-01-13T14:36:44.000Z</Time>
            <Position>
              <LatitudeDegrees>43.35384861566126346588134765625</LatitudeDegrees>
              <LongitudeDegrees>-3.9756307192146778106689453125</LongitudeDegrees>
            </Position>
            <AltitudeMeters>26.799999237060546875</AltitudeMeters>
            <DistanceMeters>4627.7342118652</DistanceMeters>
          </Trackpoint>
          <Trackpoint>
            <Time>2021-01-13T14:36:45.000Z</Time>
            <Position>
              <LatitudeDegrees>43.35378642193973064422607421875</LatitudeDegrees>
              <LongitudeDegrees>-3.97558872587978839874267578125</LongitudeDegrees>
            </Position>
            <AltitudeMeters>26.799999237060546875</AltitudeMeters>
            <DistanceMeters>4635.4460264027</DistanceMeters>
          </Trackpoint>
          <Trackpoint>
            <Time>2021-01-13T14:36:46.000Z</Time>
            <Position>
              <LatitudeDegrees>43.35372121073305606842041015625</LatitudeDegrees>
              <LongitudeDegrees>-3.97557112388312816619873046875</LongitudeDegrees>
            </Position>
            <AltitudeMeters>26.799999237060546875</AltitudeMeters>
            <DistanceMeters>4642.8422553808</DistanceMeters>
          </Trackpoint>
          <Trackpoint>
            <Time>2021-01-13T14:36:47.000Z</Time>
            <Position>
              <LatitudeDegrees>43.3536569215357303619384765625</LatitudeDegrees>
              <LongitudeDegrees>-3.97558989934623241424560546875</LongitudeDegrees>
            </Position>
            <AltitudeMeters>26.799999237060546875</AltitudeMeters>
            <DistanceMeters>4650.1574609833</DistanceMeters>
          </Trackpoint>
          <Trackpoint>
            <Time>2021-01-13T14:36:48.000Z</Time>
            <Position>
              <LatitudeDegrees>43.35360319353640079498291015625</LatitudeDegrees>
              <LongitudeDegrees>-3.97564387880265712738037109375</LongitudeDegrees>
            </Position>
            <AltitudeMeters>26.799999237060546875</AltitudeMeters>
            <DistanceMeters>4657.5628410711</DistanceMeters>
          </Trackpoint>
          <Trackpoint>
            <Time>2021-01-13T14:36:49.000Z</Time>
            <Position>
              <LatitudeDegrees>43.35356287658214569091796875</LatitudeDegrees>
              <LongitudeDegrees>-3.9757192321121692657470703125</LongitudeDegrees>
            </Position>
            <AltitudeMeters>26.6000003814697265625</AltitudeMeters>
            <DistanceMeters>4665.1352241451</DistanceMeters>
          </Trackpoint>
          <Trackpoint>
            <Time>2021-01-13T14:36:50.000Z</Time>
            <Position>
              <LatitudeDegrees>43.35352809168398380279541015625</LatitudeDegrees>
              <LongitudeDegrees>-3.97580648772418498992919921875</LongitudeDegrees>
            </Position>
            <AltitudeMeters>26.6000003814697265625</AltitudeMeters>
            <DistanceMeters>4673.1884228276</DistanceMeters>
          </Trackpoint>
          <Trackpoint>
            <Time>2021-01-13T14:36:51.000Z</Time>
            <Position>
              <LatitudeDegrees>43.3534906245768070220947265625</LatitudeDegrees>
              <LongitudeDegrees>-3.9758975990116596221923828125</LongitudeDegrees>
            </Position>
            <AltitudeMeters>26.6000003814697265625</AltitudeMeters>
            <DistanceMeters>4681.6591363409</DistanceMeters>
          </Trackpoint>
          <Trackpoint>
            <Time>2021-01-13T14:36:53.000Z</Time>
            <Position>
              <LatitudeDegrees>43.35340730845928192138671875</LatitudeDegrees>
              <LongitudeDegrees>-3.9760820008814334869384765625</LongitudeDegrees>
            </Position>
            <AltitudeMeters>26.6000003814697265625</AltitudeMeters>
            <DistanceMeters>4699.2293162884</DistanceMeters>
          </Trackpoint>
          <Trackpoint>
            <Time>2021-01-13T14:36:55.000Z</Time>
            <Position>
              <LatitudeDegrees>43.353310413658618927001953125</LatitudeDegrees>
              <LongitudeDegrees>-3.97625223733484745025634765625</LongitudeDegrees>
            </Position>
            <AltitudeMeters>26.3999996185302734375</AltitudeMeters>
            <DistanceMeters>4716.7261060398</DistanceMeters>
          </Trackpoint>
          <Trackpoint>
            <Time>2021-01-13T14:36:56.000Z</Time>
            <Position>
              <LatitudeDegrees>43.353256098926067352294921875</LatitudeDegrees>
              <LongitudeDegrees>-3.97632591426372528076171875</LongitudeDegrees>
            </Position>
            <AltitudeMeters>26.200000762939453125</AltitudeMeters>
            <DistanceMeters>4725.2170500585</DistanceMeters>
          </Trackpoint>
          <Trackpoint>
            <Time>2021-01-13T14:36:57.000Z</Time>
            <Position>
              <LatitudeDegrees>43.35319675505161285400390625</LatitudeDegrees>
              <LongitudeDegrees>-3.9763931371271610260009765625</LongitudeDegrees>
            </Position>
            <AltitudeMeters>26.200000762939453125</AltitudeMeters>
            <DistanceMeters>4733.7742043684</DistanceMeters>
          </Trackpoint>
          <Trackpoint>
            <Time>2021-01-13T14:36:59.000Z</Time>
            <Position>
              <LatitudeDegrees>43.353078067302703857421875</LatitudeDegrees>
              <LongitudeDegrees>-3.97653118707239627838134765625</LongitudeDegrees>
            </Position>
            <AltitudeMeters>26</AltitudeMeters>
            <DistanceMeters>4751.0758526748</DistanceMeters>
          </Trackpoint>
          <Trackpoint>
            <Time>2021-01-13T14:37:01.000Z</Time>
            <Position>
              <LatitudeDegrees>43.352968432009220123291015625</LatitudeDegrees>
              <LongitudeDegrees>-3.97667552344501018524169921875</LongitudeDegrees>
            </Position>
            <AltitudeMeters>26</AltitudeMeters>
            <DistanceMeters>4767.9687054765</DistanceMeters>
          </Trackpoint>
          <Trackpoint>
            <Time>2021-01-13T14:37:02.000Z</Time>
            <Position>
              <LatitudeDegrees>43.3529162965714931488037109375</LatitudeDegrees>
              <LongitudeDegrees>-3.97675146348774433135986328125</LongitudeDegrees>
            </Position>
            <AltitudeMeters>26</AltitudeMeters>
            <DistanceMeters>4776.4212769684</DistanceMeters>
          </Trackpoint>
          <Trackpoint>
            <Time>2021-01-13T14:37:03.000Z</Time>
            <Position>
              <LatitudeDegrees>43.35286550223827362060546875</LatitudeDegrees>
              <LongitudeDegrees>-3.976825810968875885009765625</LongitudeDegrees>
            </Position>
            <AltitudeMeters>26</AltitudeMeters>
            <DistanceMeters>4784.6771244112</DistanceMeters>
          </Trackpoint>
          <Trackpoint>
            <Time>2021-01-13T14:37:05.000Z</Time>
            <Position>
              <LatitudeDegrees>43.35276885889470577239990234375</LatitudeDegrees>
              <LongitudeDegrees>-3.97696302272379398345947265625</LongitudeDegrees>
            </Position>
            <AltitudeMeters>26</AltitudeMeters>
            <DistanceMeters>4800.137302075</DistanceMeters>
          </Trackpoint>
          <Trackpoint>
            <Time>2021-01-13T14:37:07.000Z</Time>
            <Position>
              <LatitudeDegrees>43.3526822738349437713623046875</LatitudeDegrees>
              <LongitudeDegrees>-3.977070562541484832763671875</LongitudeDegrees>
            </Position>
            <AltitudeMeters>26</AltitudeMeters>
            <DistanceMeters>4813.1226252299</DistanceMeters>
          </Trackpoint>
          <Trackpoint>
            <Time>2021-01-13T14:37:09.000Z</Time>
            <Position>
              <LatitudeDegrees>43.352603651583194732666015625</LatitudeDegrees>
              <LongitudeDegrees>-3.977182544767856597900390625</LongitudeDegrees>
            </Position>
            <AltitudeMeters>26</AltitudeMeters>
            <DistanceMeters>4825.7207450729</DistanceMeters>
          </Trackpoint>
          <Trackpoint>
            <Time>2021-01-13T14:37:11.000Z</Time>
            <Position>
              <LatitudeDegrees>43.35254103876650333404541015625</LatitudeDegrees>
              <LongitudeDegrees>-3.97733652032911777496337890625</LongitudeDegrees>
            </Position>
            <AltitudeMeters>26.200000762939453125</AltitudeMeters>
            <DistanceMeters>4839.9988053683</DistanceMeters>
          </Trackpoint>
          <Trackpoint>
            <Time>2021-01-13T14:37:13.000Z</Time>
            <Position>
              <LatitudeDegrees>43.35247633047401905059814453125</LatitudeDegrees>
              <LongitudeDegrees>-3.977497033774852752685546875</LongitudeDegrees>
            </Position>
            <AltitudeMeters>26.200000762939453125</AltitudeMeters>
            <DistanceMeters>4854.8527909557</DistanceMeters>
          </Trackpoint>
          <Trackpoint>
            <Time>2021-01-13T14:37:15.000Z</Time>
            <Position>
              <LatitudeDegrees>43.35240944288671016693115234375</LatitudeDegrees>
              <LongitudeDegrees>-3.97765872068703174591064453125</LongitudeDegrees>
            </Position>
            <AltitudeMeters>26.3999996185302734375</AltitudeMeters>
            <DistanceMeters>4869.9084536411</DistanceMeters>
          </Trackpoint>
          <Trackpoint>
            <Time>2021-01-13T14:37:17.000Z</Time>
            <Position>
              <LatitudeDegrees>43.3523404598236083984375</LatitudeDegrees>
              <LongitudeDegrees>-3.977818898856639862060546875</LongitudeDegrees>
            </Position>
            <AltitudeMeters>26.3999996185302734375</AltitudeMeters>
            <DistanceMeters>4884.9755078257</DistanceMeters>
          </Trackpoint>
          <Trackpoint>
            <Time>2021-01-13T14:37:19.000Z</Time>
            <Position>
              <LatitudeDegrees>43.3522718958556652069091796875</LatitudeDegrees>
              <LongitudeDegrees>-3.97798041813075542449951171875</LongitudeDegrees>
            </Position>
            <AltitudeMeters>26.3999996185302734375</AltitudeMeters>
            <DistanceMeters>4900.1125207308</DistanceMeters>
          </Trackpoint>
          <Trackpoint>
            <Time>2021-01-13T14:37:21.000Z</Time>
            <Position>
              <LatitudeDegrees>43.352203331887722015380859375</LatitudeDegrees>
              <LongitudeDegrees>-3.9781412668526172637939453125</LongitudeDegrees>
            </Position>
            <AltitudeMeters>26.3999996185302734375</AltitudeMeters>
            <DistanceMeters>4915.202332115</DistanceMeters>
          </Trackpoint>
          <Trackpoint>
            <Time>2021-01-13T14:37:23.000Z</Time>
            <Position>
              <LatitudeDegrees>43.3521354384720325469970703125</LatitudeDegrees>
              <LongitudeDegrees>-3.9782995171844959259033203125</LongitudeDegrees>
            </Position>
            <AltitudeMeters>26.3999996185302734375</AltitudeMeters>
            <DistanceMeters>4930.0733297988</DistanceMeters>
          </Trackpoint>
          <Trackpoint>
            <Time>2021-01-13T14:37:25.000Z</Time>
            <Position>
              <LatitudeDegrees>43.35206888616085052490234375</LatitudeDegrees>
              <LongitudeDegrees>-3.9784554205834865570068359375</LongitudeDegrees>
            </Position>
            <AltitudeMeters>26.6000003814697265625</AltitudeMeters>
            <DistanceMeters>4944.7049753773</DistanceMeters>
          </Trackpoint>
          <Trackpoint>
            <Time>2021-01-13T14:37:27.000Z</Time>
            <Position>
              <LatitudeDegrees>43.352004177868366241455078125</LatitudeDegrees>
              <LongitudeDegrees>-3.9786089770495891571044921875</LongitudeDegrees>
            </Position>
            <AltitudeMeters>26.799999237060546875</AltitudeMeters>
            <DistanceMeters>4959.0691048903</DistanceMeters>
          </Trackpoint>
          <Trackpoint>
            <Time>2021-01-13T14:37:29.000Z</Time>
            <Position>
              <LatitudeDegrees>43.3519421517848968505859375</LatitudeDegrees>
              <LongitudeDegrees>-3.97875708527863025665283203125</LongitudeDegrees>
            </Position>
            <AltitudeMeters>27</AltitudeMeters>
            <DistanceMeters>4972.9019397353</DistanceMeters>
          </Trackpoint>
          <Trackpoint>
            <Time>2021-01-13T14:37:31.000Z</Time>
            <Position>
              <LatitudeDegrees>43.35188054479658603668212890625</LatitudeDegrees>
              <LongitudeDegrees>-3.97890192456543445587158203125</LongitudeDegrees>
            </Position>
            <AltitudeMeters>27.200000762939453125</AltitudeMeters>
            <DistanceMeters>4986.4824508189</DistanceMeters>
          </Trackpoint>
          <Trackpoint>
            <Time>2021-01-13T14:37:33.000Z</Time>
            <Position>
              <LatitudeDegrees>43.35181851871311664581298828125</LatitudeDegrees>
              <LongitudeDegrees>-3.97904642857611179351806640625</LongitudeDegrees>
            </Position>
            <AltitudeMeters>27.200000762939453125</AltitudeMeters>
            <DistanceMeters>5000.0629619025</DistanceMeters>
          </Trackpoint>
          <Trackpoint>
            <Time>2021-01-13T14:37:35.000Z</Time>
            <Position>
              <LatitudeDegrees>43.3517572470009326934814453125</LatitudeDegrees>
              <LongitudeDegrees>-3.979190178215503692626953125</LongitudeDegrees>
            </Position>
            <AltitudeMeters>27.200000762939453125</AltitudeMeters>
            <DistanceMeters>5013.5483877209</DistanceMeters>
          </Trackpoint>
          <Trackpoint>
            <Time>2021-01-13T14:37:37.000Z</Time>
            <Position>
              <LatitudeDegrees>43.35169530473649501800537109375</LatitudeDegrees>
              <LongitudeDegrees>-3.97933426313102245330810546875</LongitudeDegrees>
            </Position>
            <AltitudeMeters>27.3999996185302734375</AltitudeMeters>
            <DistanceMeters>5027.0952782708</DistanceMeters>
          </Trackpoint>
          <Trackpoint>
            <Time>2021-01-13T14:37:39.000Z</Time>
            <Position>
              <LatitudeDegrees>43.351635374128818511962890625</LatitudeDegrees>
              <LongitudeDegrees>-3.97947776131331920623779296875</LongitudeDegrees>
            </Position>
            <AltitudeMeters>27.799999237060546875</AltitudeMeters>
            <DistanceMeters>5040.488315211</DistanceMeters>
          </Trackpoint>
          <Trackpoint>
            <Time>2021-01-13T14:37:41.000Z</Time>
            <Position>
              <LatitudeDegrees>43.35157460533082485198974609375</LatitudeDegrees>
              <LongitudeDegrees>-3.979617655277252197265625</LongitudeDegrees>
            </Position>
            <AltitudeMeters>28</AltitudeMeters>
            <DistanceMeters>5053.6768455485</DistanceMeters>
          </Trackpoint>
          <Trackpoint>
            <Time>2021-01-13T14:37:43.000Z</Time>
            <Position>
              <LatitudeDegrees>43.35151475854218006134033203125</LatitudeDegrees>
              <LongitudeDegrees>-3.97975780069828033447265625</LongitudeDegrees>
            </Position>
            <AltitudeMeters>28.200000762939453125</AltitudeMeters>
            <DistanceMeters>5066.8304102618</DistanceMeters>
          </Trackpoint>
          <Trackpoint>
            <Time>2021-01-13T14:37:44.000Z</Time>
            <Position>
              <LatitudeDegrees>43.35148542188107967376708984375</LatitudeDegrees>
              <LongitudeDegrees>-3.979828543961048126220703125</LongitudeDegrees>
            </Position>
            <AltitudeMeters>28.200000762939453125</AltitudeMeters>
            <DistanceMeters>5073.4209085507</DistanceMeters>
          </Trackpoint>
          <Trackpoint>
            <Time>2021-01-13T14:37:45.000Z</Time>
            <Position>
              <LatitudeDegrees>43.35145591758191585540771484375</LatitudeDegrees>
              <LongitudeDegrees>-3.9798997901380062103271484375</LongitudeDegrees>
            </Position>
            <AltitudeMeters>28.3999996185302734375</AltitudeMeters>
            <DistanceMeters>5080.0564682664</DistanceMeters>
          </Trackpoint>
          <Trackpoint>
            <Time>2021-01-13T14:37:47.000Z</Time>
            <Position>
              <LatitudeDegrees>43.351395986974239349365234375</LatitudeDegrees>
              <LongitudeDegrees>-3.98004337213933467864990234375</LongitudeDegrees>
            </Position>
            <AltitudeMeters>28.6000003814697265625</AltitudeMeters>
            <DistanceMeters>5093.4548980142</DistanceMeters>
          </Trackpoint>
          <Trackpoint>
            <Time>2021-01-13T14:37:49.000Z</Time>
            <Position>
              <LatitudeDegrees>43.35133421234786510467529296875</LatitudeDegrees>
              <LongitudeDegrees>-3.980187289416790008544921875</LongitudeDegrees>
            </Position>
            <AltitudeMeters>28.799999237060546875</AltitudeMeters>
            <DistanceMeters>5106.9811088225</DistanceMeters>
          </Trackpoint>
          <Trackpoint>
            <Time>2021-01-13T14:37:50.000Z</Time>
            <Position>
              <LatitudeDegrees>43.35130286403000354766845703125</LatitudeDegrees>
              <LongitudeDegrees>-3.98025937378406524658203125</LongitudeDegrees>
            </Position>
            <AltitudeMeters>29</AltitudeMeters>
            <DistanceMeters>5113.7793388304</DistanceMeters>
          </Trackpoint>
          <Trackpoint>
            <Time>2021-01-13T14:37:51.000Z</Time>
            <Position>
              <LatitudeDegrees>43.3512717671692371368408203125</LatitudeDegrees>
              <LongitudeDegrees>-3.9803322963416576385498046875</LongitudeDegrees>
            </Position>
            <AltitudeMeters>29.200000762939453125</AltitudeMeters>
            <DistanceMeters>5120.621262265</DistanceMeters>
          </Trackpoint>
          <Trackpoint>
            <Time>2021-01-13T14:37:53.000Z</Time>
            <Position>
              <LatitudeDegrees>43.35121016018092632293701171875</LatitudeDegrees>
              <LongitudeDegrees>-3.98047638125717639923095703125</LongitudeDegrees>
            </Position>
            <AltitudeMeters>29.3999996185302734375</AltitudeMeters>
            <DistanceMeters>5134.1491419663</DistanceMeters>
          </Trackpoint>
          <Trackpoint>
            <Time>2021-01-13T14:37:55.000Z</Time>
            <Position>
              <LatitudeDegrees>43.35114754736423492431640625</LatitudeDegrees>
              <LongitudeDegrees>-3.98061937652528285980224609375</LongitudeDegrees>
            </Position>
            <AltitudeMeters>29.6000003814697265625</AltitudeMeters>
            <DistanceMeters>5147.6586525055</DistanceMeters>
          </Trackpoint>
          <Trackpoint>
            <Time>2021-01-13T14:37:57.000Z</Time>
            <Position>
              <LatitudeDegrees>43.35108644329011440277099609375</LatitudeDegrees>
              <LongitudeDegrees>-3.98076362907886505126953125</LongitudeDegrees>
            </Position>
            <AltitudeMeters>29.6000003814697265625</AltitudeMeters>
            <DistanceMeters>5161.1701681669</DistanceMeters>
          </Trackpoint>
          <Trackpoint>
            <Time>2021-01-13T14:37:59.000Z</Time>
            <Position>
              <LatitudeDegrees>43.3510233275592327117919921875</LatitudeDegrees>
              <LongitudeDegrees>-3.9809079654514789581298828125</LongitudeDegrees>
            </Position>
            <AltitudeMeters>29.799999237060546875</AltitudeMeters>
            <DistanceMeters>5174.8014514149</DistanceMeters>
          </Trackpoint>
          <Trackpoint>
            <Time>2021-01-13T14:38:00.000Z</Time>
            <Position>
              <LatitudeDegrees>43.3509928174316883087158203125</LatitudeDegrees>
              <LongitudeDegrees>-3.98097912780940532684326171875</LongitudeDegrees>
            </Position>
            <AltitudeMeters>30</AltitudeMeters>
            <DistanceMeters>5181.4864980356</DistanceMeters>
          </Trackpoint>
          <Trackpoint>
            <Time>2021-01-13T14:38:01.000Z</Time>
            <Position>
              <LatitudeDegrees>43.35096289403736591339111328125</LatitudeDegrees>
              <LongitudeDegrees>-3.98104953579604625701904296875</LongitudeDegrees>
            </Position>
            <AltitudeMeters>30</AltitudeMeters>
            <DistanceMeters>5188.0865805173</DistanceMeters>
          </Trackpoint>
          <Trackpoint>
            <Time>2021-01-13T14:38:03.000Z</Time>
            <Position>
              <LatitudeDegrees>43.35090321488678455352783203125</LatitudeDegrees>
              <LongitudeDegrees>-3.98118968121707439422607421875</LongitudeDegrees>
            </Position>
            <AltitudeMeters>30.3999996185302734375</AltitudeMeters>
            <DistanceMeters>5201.2312175484</DistanceMeters>
          </Trackpoint>
          <Trackpoint>
            <Time>2021-01-13T14:38:05.000Z</Time>
            <Position>
              <LatitudeDegrees>43.3508449606597423553466796875</LatitudeDegrees>
              <LongitudeDegrees>-3.98132965900003910064697265625</LongitudeDegrees>
            </Position>
            <AltitudeMeters>30.6000003814697265625</AltitudeMeters>
            <DistanceMeters>5214.2841667303</DistanceMeters>
          </Trackpoint>
          <Trackpoint>
            <Time>2021-01-13T14:38:07.000Z</Time>
            <Position>
              <LatitudeDegrees>43.35078519769012928009033203125</LatitudeDegrees>
              <LongitudeDegrees>-3.98146712221205234527587890625</LongitudeDegrees>
            </Position>
            <AltitudeMeters>30.6000003814697265625</AltitudeMeters>
            <DistanceMeters>5227.2461728372</DistanceMeters>
          </Trackpoint>
          <Trackpoint>
            <Time>2021-01-13T14:38:09.000Z</Time>
            <Position>
              <LatitudeDegrees>43.35072644054889678955078125</LatitudeDegrees>
              <LongitudeDegrees>-3.98160508833825588226318359375</LongitudeDegrees>
            </Position>
            <AltitudeMeters>31</AltitudeMeters>
            <DistanceMeters>5240.186564546</DistanceMeters>
          </Trackpoint>
          <Trackpoint>
            <Time>2021-01-13T14:38:10.000Z</Time>
            <Position>
              <LatitudeDegrees>43.3506974391639232635498046875</LatitudeDegrees>
              <LongitudeDegrees>-3.9816749095916748046875</LongitudeDegrees>
            </Position>
            <AltitudeMeters>31</AltitudeMeters>
            <DistanceMeters>5246.6943336355</DistanceMeters>
          </Trackpoint>
          <Trackpoint>
            <Time>2021-01-13T14:38:11.000Z</Time>
            <Position>
              <LatitudeDegrees>43.3506682701408863067626953125</LatitudeDegrees>
              <LongitudeDegrees>-3.98174473084509372711181640625</LongitudeDegrees>
            </Position>
            <AltitudeMeters>31.200000762939453125</AltitudeMeters>
            <DistanceMeters>5253.2118085754</DistanceMeters>
          </Trackpoint>
          <Trackpoint>
            <Time>2021-01-13T14:38:13.000Z</Time>
            <Position>
              <LatitudeDegrees>43.3506075851619243621826171875</LatitudeDegrees>
              <LongitudeDegrees>-3.98188420571386814117431640625</LongitudeDegrees>
            </Position>
            <AltitudeMeters>31.6000003814697265625</AltitudeMeters>
            <DistanceMeters>5266.3667462405</DistanceMeters>
          </Trackpoint>
          <Trackpoint>
            <Time>2021-01-13T14:38:15.000Z</Time>
            <Position>
              <LatitudeDegrees>43.3505482412874698638916015625</LatitudeDegrees>
              <LongitudeDegrees>-3.9820254407823085784912109375</LongitudeDegrees>
            </Position>
            <AltitudeMeters>31.799999237060546875</AltitudeMeters>
            <DistanceMeters>5279.5689633089</DistanceMeters>
          </Trackpoint>
          <Trackpoint>
            <Time>2021-01-13T14:38:17.000Z</Time>
            <Position>
              <LatitudeDegrees>43.35048948414623737335205078125</LatitudeDegrees>
              <LongitudeDegrees>-3.98216701112687587738037109375</LongitudeDegrees>
            </Position>
            <AltitudeMeters>32</AltitudeMeters>
            <DistanceMeters>5292.7622856173</DistanceMeters>
          </Trackpoint>
          <Trackpoint>
            <Time>2021-01-13T14:38:18.000Z</Time>
            <Position>
              <LatitudeDegrees>43.35046031512320041656494140625</LatitudeDegrees>
              <LongitudeDegrees>-3.9822373352944850921630859375</LongitudeDegrees>
            </Position>
            <AltitudeMeters>32.200000762939453125</AltitudeMeters>
            <DistanceMeters>5299.31499601</DistanceMeters>
          </Trackpoint>
          <Trackpoint>
            <Time>2021-01-13T14:38:19.000Z</Time>
            <Position>
              <LatitudeDegrees>43.3504307270050048828125</LatitudeDegrees>
              <LongitudeDegrees>-3.9823077432811260223388671875</LongitudeDegrees>
            </Position>
            <AltitudeMeters>32.200000762939453125</AltitudeMeters>
            <DistanceMeters>5305.8965821944</DistanceMeters>
          </Trackpoint>
          <Trackpoint>
            <Time>2021-01-13T14:38:21.000Z</Time>
            <Position>
              <LatitudeDegrees>43.3503703773021697998046875</LatitudeDegrees>
              <LongitudeDegrees>-3.98244830779731273651123046875</LongitudeDegrees>
            </Position>
            <AltitudeMeters>32.59999847412109375</AltitudeMeters>
            <DistanceMeters>5319.108371538</DistanceMeters>
          </Trackpoint>
          <Trackpoint>
            <Time>2021-01-13T14:38:22.000Z</Time>
            <Position>
              <LatitudeDegrees>43.3503407053649425506591796875</LatitudeDegrees>
              <LongitudeDegrees>-3.98251854814589023590087890625</LongitudeDegrees>
            </Position>
            <AltitudeMeters>32.799999237060546875</AltitudeMeters>
            <DistanceMeters>5325.6830940369</DistanceMeters>
          </Trackpoint>
          <Trackpoint>
            <Time>2021-01-13T14:38:23.000Z</Time>
            <Position>
              <LatitudeDegrees>43.3503113687038421630859375</LatitudeDegrees>
              <LongitudeDegrees>-3.98258895613253116607666015625</LongitudeDegrees>
            </Position>
            <AltitudeMeters>33</AltitudeMeters>
            <DistanceMeters>5332.2502581963</DistanceMeters>
          </Trackpoint>
          <Trackpoint>
            <Time>2021-01-13T14:38:25.000Z</Time>
            <Position>
              <LatitudeDegrees>43.3502523601055145263671875</LatitudeDegrees>
              <LongitudeDegrees>-3.982728011906147003173828125</LongitudeDegrees>
            </Position>
            <AltitudeMeters>33.200000762939453125</AltitudeMeters>
            <DistanceMeters>5345.2810508603</DistanceMeters>
          </Trackpoint>
          <Trackpoint>
            <Time>2021-01-13T14:38:27.000Z</Time>
            <Position>
              <LatitudeDegrees>43.35019410587847232818603515625</LatitudeDegrees>
              <LongitudeDegrees>-3.9828671514987945556640625</LongitudeDegrees>
            </Position>
            <AltitudeMeters>33.40000152587890625</AltitudeMeters>
            <DistanceMeters>5358.2754111533</DistanceMeters>
          </Trackpoint>
          <Trackpoint>
            <Time>2021-01-13T14:38:29.000Z</Time>
            <Position>
              <LatitudeDegrees>43.35013568401336669921875</LatitudeDegrees>
              <LongitudeDegrees>-3.98300704546272754669189453125</LongitudeDegrees>
            </Position>
            <AltitudeMeters>33.799999237060546875</AltitudeMeters>
            <DistanceMeters>5371.3325104967</DistanceMeters>
          </Trackpoint>
          <Trackpoint>
            <Time>2021-01-13T14:38:31.000Z</Time>
            <Position>
              <LatitudeDegrees>43.35007734596729278564453125</LatitudeDegrees>
              <LongitudeDegrees>-3.9831461012363433837890625</LongitudeDegrees>
            </Position>
            <AltitudeMeters>33.799999237060546875</AltitudeMeters>
            <DistanceMeters>5384.3258283638</DistanceMeters>
          </Trackpoint>
          <Trackpoint>
            <Time>2021-01-13T14:38:33.000Z</Time>
            <Position>
              <LatitudeDegrees>43.35001875646412372589111328125</LatitudeDegrees>
              <LongitudeDegrees>-3.98328197188675403594970703125</LongitudeDegrees>
            </Position>
            <AltitudeMeters>33.799999237060546875</AltitudeMeters>
            <DistanceMeters>5397.1107184186</DistanceMeters>
          </Trackpoint>
          <Trackpoint>
            <Time>2021-01-13T14:38:34.000Z</Time>
            <Position>
              <LatitudeDegrees>43.34998958744108676910400390625</LatitudeDegrees>
              <LongitudeDegrees>-3.983350284397602081298828125</LongitudeDegrees>
            </Position>
            <AltitudeMeters>33.799999237060546875</AltitudeMeters>
            <DistanceMeters>5403.5220293588</DistanceMeters>
          </Trackpoint>
          <Trackpoint>
            <Time>2021-01-13T14:38:35.000Z</Time>
            <Position>
              <LatitudeDegrees>43.34996142424643039703369140625</LatitudeDegrees>
              <LongitudeDegrees>-3.98341876454651355743408203125</LongitudeDegrees>
            </Position>
            <AltitudeMeters>34</AltitudeMeters>
            <DistanceMeters>5409.8902373729</DistanceMeters>
          </Trackpoint>
          <Trackpoint>
            <Time>2021-01-13T14:38:37.000Z</Time>
            <Position>
              <LatitudeDegrees>43.34990442730486392974853515625</LatitudeDegrees>
              <LongitudeDegrees>-3.98355421610176563262939453125</LongitudeDegrees>
            </Position>
            <AltitudeMeters>34.40000152587890625</AltitudeMeters>
            <DistanceMeters>5422.5562682469</DistanceMeters>
          </Trackpoint>
          <Trackpoint>
            <Time>2021-01-13T14:38:39.000Z</Time>
            <Position>
              <LatitudeDegrees>43.34984776563942432403564453125</LatitudeDegrees>
              <LongitudeDegrees>-3.98368681780993938446044921875</LongitudeDegrees>
            </Position>
            <AltitudeMeters>34.59999847412109375</AltitudeMeters>
            <DistanceMeters>5435.0044051267</DistanceMeters>
          </Trackpoint>
          <Trackpoint>
            <Time>2021-01-13T14:38:41.000Z</Time>
            <Position>
              <LatitudeDegrees>43.34979210980236530303955078125</LatitudeDegrees>
              <LongitudeDegrees>-3.98381598293781280517578125</LongitudeDegrees>
            </Position>
            <AltitudeMeters>35.200000762939453125</AltitudeMeters>
            <DistanceMeters>5447.1563119766</DistanceMeters>
          </Trackpoint>
          <Trackpoint>
            <Time>2021-01-13T14:38:43.000Z</Time>
            <Position>
              <LatitudeDegrees>43.34973796270787715911865234375</LatitudeDegrees>
              <LongitudeDegrees>-3.9839391969144344329833984375</LongitudeDegrees>
            </Position>
            <AltitudeMeters>35.40000152587890625</AltitudeMeters>
            <DistanceMeters>5458.8086177318</DistanceMeters>
          </Trackpoint>
          <Trackpoint>
            <Time>2021-01-13T14:38:44.000Z</Time>
            <Position>
              <LatitudeDegrees>43.3497120626270771026611328125</LatitudeDegrees>
              <LongitudeDegrees>-3.98400030098855495452880859375</LongitudeDegrees>
            </Position>
            <AltitudeMeters>35.40000152587890625</AltitudeMeters>
            <DistanceMeters>5464.5323505469</DistanceMeters>
          </Trackpoint>
          <Trackpoint>
            <Time>2021-01-13T14:38:45.000Z</Time>
            <Position>
              <LatitudeDegrees>43.34968616254627704620361328125</LatitudeDegrees>
              <LongitudeDegrees>-3.98406232707202434539794921875</LongitudeDegrees>
            </Position>
            <AltitudeMeters>35.40000152587890625</AltitudeMeters>
            <DistanceMeters>5470.321965712</DistanceMeters>
          </Trackpoint>
          <Trackpoint>
            <Time>2021-01-13T14:38:47.000Z</Time>
            <Position>
              <LatitudeDegrees>43.349633105099201202392578125</LatitudeDegrees>
              <LongitudeDegrees>-3.9841896481812000274658203125</LongitudeDegrees>
            </Position>
            <AltitudeMeters>35.799999237060546875</AltitudeMeters>
            <DistanceMeters>5482.1991646329</DistanceMeters>
          </Trackpoint>
          <Trackpoint>
            <Time>2021-01-13T14:38:49.000Z</Time>
            <Position>
              <LatitudeDegrees>43.34957736544311046600341796875</LatitudeDegrees>
              <LongitudeDegrees>-3.98432015441358089447021484375</LongitudeDegrees>
            </Position>
            <AltitudeMeters>36.200000762939453125</AltitudeMeters>
            <DistanceMeters>5494.4491364837</DistanceMeters>
          </Trackpoint>
          <Trackpoint>
            <Time>2021-01-13T14:38:51.000Z</Time>
            <Position>
              <LatitudeDegrees>43.34952170960605144500732421875</LatitudeDegrees>
              <LongitudeDegrees>-3.9844504930078983306884765625</LongitudeDegrees>
            </Position>
            <AltitudeMeters>36.40000152587890625</AltitudeMeters>
            <DistanceMeters>5506.6828802681</DistanceMeters>
          </Trackpoint>
          <Trackpoint>
            <Time>2021-01-13T14:38:52.000Z</Time>
            <Position>
              <LatitudeDegrees>43.3494944684207439422607421875</LatitudeDegrees>
              <LongitudeDegrees>-3.98451545275747776031494140625</LongitudeDegrees>
            </Position>
            <AltitudeMeters>36.40000152587890625</AltitudeMeters>
            <DistanceMeters>5512.7512121426</DistanceMeters>
          </Trackpoint>
          <Trackpoint>
            <Time>2021-01-13T14:38:53.000Z</Time>
            <Position>
              <LatitudeDegrees>43.34946739487349987030029296875</LatitudeDegrees>
              <LongitudeDegrees>-3.98458041250705718994140625</LongitudeDegrees>
            </Position>
            <AltitudeMeters>36.40000152587890625</AltitudeMeters>
            <DistanceMeters>5518.810609045</DistanceMeters>
          </Trackpoint>
          <Trackpoint>
            <Time>2021-01-13T14:38:55.000Z</Time>
            <Position>
              <LatitudeDegrees>43.34941324777901172637939453125</LatitudeDegrees>
              <LongitudeDegrees>-3.9847071468830108642578125</LongitudeDegrees>
            </Position>
            <AltitudeMeters>36.799999237060546875</AltitudeMeters>
            <DistanceMeters>5530.7075589979</DistanceMeters>
          </Trackpoint>
          <Trackpoint>
            <Time>2021-01-13T14:38:56.000Z</Time>
            <Position>
              <LatitudeDegrees>43.34938609041273593902587890625</LatitudeDegrees>
              <LongitudeDegrees>-3.9847688376903533935546875</LongitudeDegrees>
            </Position>
            <AltitudeMeters>37</AltitudeMeters>
            <DistanceMeters>5536.5453247092</DistanceMeters>
          </Trackpoint>
          <Trackpoint>
            <Time>2021-01-13T14:38:57.000Z</Time>
            <Position>
              <LatitudeDegrees>43.349360190331935882568359375</LatitudeDegrees>
              <LongitudeDegrees>-3.98482977412641048431396484375</LongitudeDegrees>
            </Position>
            <AltitudeMeters>37.40000152587890625</AltitudeMeters>
            <DistanceMeters>5542.2580032638</DistanceMeters>
          </Trackpoint>
          <Trackpoint>
            <Time>2021-01-13T14:38:59.000Z</Time>
            <Position>
              <LatitudeDegrees>43.34930889308452606201171875</LatitudeDegrees>
              <LongitudeDegrees>-3.98495265282690525054931640625</LongitudeDegrees>
            </Position>
            <AltitudeMeters>37.59999847412109375</AltitudeMeters>
            <DistanceMeters>5553.7255663551</DistanceMeters>
          </Trackpoint>
          <Trackpoint>
            <Time>2021-01-13T14:39:01.000Z</Time>
            <Position>
              <LatitudeDegrees>43.34925633855164051055908203125</LatitudeDegrees>
              <LongitudeDegrees>-3.98507469333708286285400390625</LongitudeDegrees>
            </Position>
            <AltitudeMeters>38</AltitudeMeters>
            <DistanceMeters>5565.2053283571</DistanceMeters>
          </Trackpoint>
          <Trackpoint>
            <Time>2021-01-13T14:39:03.000Z</Time>
            <Position>
              <LatitudeDegrees>43.3492044545710086822509765625</LatitudeDegrees>
              <LongitudeDegrees>-3.98520008660852909088134765625</LongitudeDegrees>
            </Position>
            <AltitudeMeters>38.59999847412109375</AltitudeMeters>
            <DistanceMeters>5576.8824065149</DistanceMeters>
          </Trackpoint>
          <Trackpoint>
            <Time>2021-01-13T14:39:04.000Z</Time>
            <Position>
              <LatitudeDegrees>43.34917788393795490264892578125</LatitudeDegrees>
              <LongitudeDegrees>-3.9852625317871570587158203125</LongitudeDegrees>
            </Position>
            <AltitudeMeters>38.799999237060546875</AltitudeMeters>
            <DistanceMeters>5582.7379338403</DistanceMeters>
          </Trackpoint>
          <Trackpoint>
            <Time>2021-01-13T14:39:05.000Z</Time>
            <Position>
              <LatitudeDegrees>43.34915064275264739990234375</LatitudeDegrees>
              <LongitudeDegrees>-3.98532430641353130340576171875</LongitudeDegrees>
            </Position>
            <AltitudeMeters>39</AltitudeMeters>
            <DistanceMeters>5588.5849732122</DistanceMeters>
          </Trackpoint>
          <Trackpoint>
            <Time>2021-01-13T14:39:06.000Z</Time>
            <Position>
              <LatitudeDegrees>43.34912373684346675872802734375</LatitudeDegrees>
              <LongitudeDegrees>-3.98538549430668354034423828125</LongitudeDegrees>
            </Position>
            <AltitudeMeters>39.200000762939453125</AltitudeMeters>
            <DistanceMeters>5594.3722483509</DistanceMeters>
          </Trackpoint>
          <Trackpoint>
            <Time>2021-01-13T14:39:07.000Z</Time>
            <Position>
              <LatitudeDegrees>43.34909691475331783294677734375</LatitudeDegrees>
              <LongitudeDegrees>-3.98544701747596263885498046875</LongitudeDegrees>
            </Position>
            <AltitudeMeters>39.200000762939453125</AltitudeMeters>
            <DistanceMeters>5600.1774395871</DistanceMeters>
          </Trackpoint>
          <Trackpoint>
            <Time>2021-01-13T14:39:09.000Z</Time>
            <Position>
              <LatitudeDegrees>43.34904444403946399688720703125</LatitudeDegrees>
              <LongitudeDegrees>-3.98557308129966259002685546875</LongitudeDegrees>
            </Position>
            <AltitudeMeters>39.59999847412109375</AltitudeMeters>
            <DistanceMeters>5611.9335154619</DistanceMeters>
          </Trackpoint>
          <Trackpoint>
            <Time>2021-01-13T14:39:10.000Z</Time>
            <Position>
              <LatitudeDegrees>43.34901812486350536346435546875</LatitudeDegrees>
              <LongitudeDegrees>-3.985636867582798004150390625</LongitudeDegrees>
            </Position>
            <AltitudeMeters>40</AltitudeMeters>
            <DistanceMeters>5617.8694533224</DistanceMeters>
          </Trackpoint>
          <Trackpoint>
            <Time>2021-01-13T14:39:11.000Z</Time>
            <Position>
              <LatitudeDegrees>43.3489912189543247222900390625</LatitudeDegrees>
              <LongitudeDegrees>-3.98570115678012371063232421875</LongitudeDegrees>
            </Position>
            <AltitudeMeters>40.200000762939453125</AltitudeMeters>
            <DistanceMeters>5623.8719532193</DistanceMeters>
          </Trackpoint>
          <Trackpoint>
            <Time>2021-01-13T14:39:13.000Z</Time>
            <Position>
              <LatitudeDegrees>43.34893531166017055511474609375</LatitudeDegrees>
              <LongitudeDegrees>-3.985826969146728515625</LongitudeDegrees>
            </Position>
            <AltitudeMeters>40.799999237060546875</AltitudeMeters>
            <DistanceMeters>5635.8060374185</DistanceMeters>
          </Trackpoint>
          <Trackpoint>
            <Time>2021-01-13T14:39:14.000Z</Time>
            <Position>
              <LatitudeDegrees>43.34890815429389476776123046875</LatitudeDegrees>
              <LongitudeDegrees>-3.98589042015373706817626953125</LongitudeDegrees>
            </Position>
            <AltitudeMeters>41</AltitudeMeters>
            <DistanceMeters>5641.7655080874</DistanceMeters>
          </Trackpoint>
          <Trackpoint>
            <Time>2021-01-13T14:39:15.000Z</Time>
            <Position>
              <LatitudeDegrees>43.34888183511793613433837890625</LatitudeDegrees>
              <LongitudeDegrees>-3.9859538711607456207275390625</LongitudeDegrees>
            </Position>
            <AltitudeMeters>41.200000762939453125</AltitudeMeters>
            <DistanceMeters>5647.6778194726</DistanceMeters>
          </Trackpoint>
          <Trackpoint>
            <Time>2021-01-13T14:39:17.000Z</Time>
            <Position>
              <LatitudeDegrees>43.3488296158611774444580078125</LatitudeDegrees>
              <LongitudeDegrees>-3.98607783950865268707275390625</LongitudeDegrees>
            </Position>
            <AltitudeMeters>41.59999847412109375</AltitudeMeters>
            <DistanceMeters>5659.2734151127</DistanceMeters>
          </Trackpoint>
          <Trackpoint>
            <Time>2021-01-13T14:39:19.000Z</Time>
            <Position>
              <LatitudeDegrees>43.34877647459506988525390625</LatitudeDegrees>
              <LongitudeDegrees>-3.98619736544787883758544921875</LongitudeDegrees>
            </Position>
            <AltitudeMeters>41.799999237060546875</AltitudeMeters>
            <DistanceMeters>5670.6122963807</DistanceMeters>
          </Trackpoint>
          <Trackpoint>
            <Time>2021-01-13T14:39:20.000Z</Time>
            <Position>
              <LatitudeDegrees>43.34875099360942840576171875</LatitudeDegrees>
              <LongitudeDegrees>-3.98625637404620647430419921875</LongitudeDegrees>
            </Position>
            <AltitudeMeters>42</AltitudeMeters>
            <DistanceMeters>5676.1670935155</DistanceMeters>
          </Trackpoint>
          <Trackpoint>
            <Time>2021-01-13T14:39:21.000Z</Time>
            <Position>
              <LatitudeDegrees>43.34872777573764324188232421875</LatitudeDegrees>
              <LongitudeDegrees>-3.98631580173969268798828125</LongitudeDegrees>
            </Position>
            <AltitudeMeters>42.200000762939453125</AltitudeMeters>
            <DistanceMeters>5681.6276166057</DistanceMeters>
          </Trackpoint>
          <Trackpoint>
            <Time>2021-01-13T14:39:23.000Z</Time>
            <Position>
              <LatitudeDegrees>43.34868133999407291412353515625</LatitudeDegrees>
              <LongitudeDegrees>-3.9864336512982845306396484375</LongitudeDegrees>
            </Position>
            <AltitudeMeters>42.59999847412109375</AltitudeMeters>
            <DistanceMeters>5692.4756558855</DistanceMeters>
          </Trackpoint>
          <Trackpoint>
            <Time>2021-01-13T14:39:25.000Z</Time>
            <Position>
              <LatitudeDegrees>43.3486323058605194091796875</LatitudeDegrees>
              <LongitudeDegrees>-3.98654907010495662689208984375</LongitudeDegrees>
            </Position>
            <AltitudeMeters>42.799999237060546875</AltitudeMeters>
            <DistanceMeters>5703.2945213929</DistanceMeters>
          </Trackpoint>
          <Trackpoint>
            <Time>2021-01-13T14:39:27.000Z</Time>
            <Position>
              <LatitudeDegrees>43.34858478046953678131103515625</LatitudeDegrees>
              <LongitudeDegrees>-3.9866629801690578460693359375</LongitudeDegrees>
            </Position>
            <AltitudeMeters>43</AltitudeMeters>
            <DistanceMeters>5713.9235047117</DistanceMeters>
          </Trackpoint>
          <Trackpoint>
            <Time>2021-01-13T14:39:29.000Z</Time>
            <Position>
              <LatitudeDegrees>43.34853566251695156097412109375</LatitudeDegrees>
              <LongitudeDegrees>-3.98677756078541278839111328125</LongitudeDegrees>
            </Position>
            <AltitudeMeters>43.200000762939453125</AltitudeMeters>
            <DistanceMeters>5724.6888194345</DistanceMeters>
          </Trackpoint>
          <Trackpoint>
            <Time>2021-01-13T14:39:31.000Z</Time>
            <Position>
              <LatitudeDegrees>43.34848604165017604827880859375</LatitudeDegrees>
              <LongitudeDegrees>-3.98689473979175090789794921875</LongitudeDegrees>
            </Position>
            <AltitudeMeters>43.40000152587890625</AltitudeMeters>
            <DistanceMeters>5735.664302101</DistanceMeters>
          </Trackpoint>
          <Trackpoint>
            <Time>2021-01-13T14:39:33.000Z</Time>
            <Position>
              <LatitudeDegrees>43.34843507967889308929443359375</LatitudeDegrees>
              <LongitudeDegrees>-3.987014181911945343017578125</LongitudeDegrees>
            </Position>
            <AltitudeMeters>44</AltitudeMeters>
            <DistanceMeters>5746.8730243103</DistanceMeters>
          </Trackpoint>
          <Trackpoint>
            <Time>2021-01-13T14:39:35.000Z</Time>
            <Position>
              <LatitudeDegrees>43.3483833633363246917724609375</LatitudeDegrees>
              <LongitudeDegrees>-3.98713546805083751678466796875</LongitudeDegrees>
            </Position>
            <AltitudeMeters>44.200000762939453125</AltitudeMeters>
            <DistanceMeters>5758.2524485578</DistanceMeters>
          </Trackpoint>
          <Trackpoint>
            <Time>2021-01-13T14:39:37.000Z</Time>
            <Position>
              <LatitudeDegrees>43.3483310602605342864990234375</LatitudeDegrees>
              <LongitudeDegrees>-3.98725851438939571380615234375</LongitudeDegrees>
            </Position>
            <AltitudeMeters>44.59999847412109375</AltitudeMeters>
            <DistanceMeters>5769.7879245549</DistanceMeters>
          </Trackpoint>
          <Trackpoint>
            <Time>2021-01-13T14:39:39.000Z</Time>
            <Position>
              <LatitudeDegrees>43.34827733226120471954345703125</LatitudeDegrees>
              <LongitudeDegrees>-3.98738063871860504150390625</LongitudeDegrees>
            </Position>
            <AltitudeMeters>44.799999237060546875</AltitudeMeters>
            <DistanceMeters>5781.3406095173</DistanceMeters>
          </Trackpoint>
          <Trackpoint>
            <Time>2021-01-13T14:39:41.000Z</Time>
            <Position>
              <LatitudeDegrees>43.34822368808090686798095703125</LatitudeDegrees>
              <LongitudeDegrees>-3.987505696713924407958984375</LongitudeDegrees>
            </Position>
            <AltitudeMeters>45</AltitudeMeters>
            <DistanceMeters>5793.0924599731</DistanceMeters>
          </Trackpoint>
          <Trackpoint>
            <Time>2021-01-13T14:39:43.000Z</Time>
            <Position>
              <LatitudeDegrees>43.3481701277196407318115234375</LatitudeDegrees>
              <LongitudeDegrees>-3.9876325987279415130615234375</LongitudeDegrees>
            </Position>
            <AltitudeMeters>45.200000762939453125</AltitudeMeters>
            <DistanceMeters>5804.9681382232</DistanceMeters>
          </Trackpoint>
          <Trackpoint>
            <Time>2021-01-13T14:39:45.000Z</Time>
            <Position>
              <LatitudeDegrees>43.34811757318675518035888671875</LatitudeDegrees>
              <LongitudeDegrees>-3.98775824345648288726806640625</LongitudeDegrees>
            </Position>
            <AltitudeMeters>45.200000762939453125</AltitudeMeters>
            <DistanceMeters>5816.6996085097</DistanceMeters>
          </Trackpoint>
          <Trackpoint>
            <Time>2021-01-13T14:39:46.000Z</Time>
            <Position>
              <LatitudeDegrees>43.34809117019176483154296875</LatitudeDegrees>
              <LongitudeDegrees>-3.98782211355865001678466796875</LongitudeDegrees>
            </Position>
            <AltitudeMeters>45.200000762939453125</AltitudeMeters>
            <DistanceMeters>5822.6446668947</DistanceMeters>
          </Trackpoint>
          <Trackpoint>
            <Time>2021-01-13T14:39:47.000Z</Time>
            <Position>
              <LatitudeDegrees>43.34806510247290134429931640625</LatitudeDegrees>
              <LongitudeDegrees>-3.98788548074662685394287109375</LongitudeDegrees>
            </Position>
            <AltitudeMeters>45.40000152587890625</AltitudeMeters>
            <DistanceMeters>5828.5370894803</DistanceMeters>
          </Trackpoint>
          <Trackpoint>
            <Time>2021-01-13T14:39:49.000Z</Time>
            <Position>
              <LatitudeDegrees>43.34801204502582550048828125</LatitudeDegrees>
              <LongitudeDegrees>-3.98801238276064395904541015625</LongitudeDegrees>
            </Position>
            <AltitudeMeters>45.40000152587890625</AltitudeMeters>
            <DistanceMeters>5840.3853622826</DistanceMeters>
          </Trackpoint>
          <Trackpoint>
            <Time>2021-01-13T14:39:51.000Z</Time>
            <Position>
              <LatitudeDegrees>43.34795881994068622589111328125</LatitudeDegrees>
              <LongitudeDegrees>-3.98813777603209018707275390625</LongitudeDegrees>
            </Position>
            <AltitudeMeters>45.59999847412109375</AltitudeMeters>
            <DistanceMeters>5852.1372127384</DistanceMeters>
          </Trackpoint>
          <Trackpoint>
            <Time>2021-01-13T14:39:53.000Z</Time>
            <Position>
              <LatitudeDegrees>43.3479072712361812591552734375</LatitudeDegrees>
              <LongitudeDegrees>-3.98826065473258495330810546875</LongitudeDegrees>
            </Position>
            <AltitudeMeters>45.799999237060546875</AltitudeMeters>
            <DistanceMeters>5863.6189410928</DistanceMeters>
          </Trackpoint>
          <Trackpoint>
            <Time>2021-01-13T14:39:55.000Z</Time>
            <Position>
              <LatitudeDegrees>43.34785639308393001556396484375</LatitudeDegrees>
              <LongitudeDegrees>-3.9883822761476039886474609375</LongitudeDegrees>
            </Position>
            <AltitudeMeters>45.799999237060546875</AltitudeMeters>
            <DistanceMeters>5874.9749316571</DistanceMeters>
          </Trackpoint>
          <Trackpoint>
            <Time>2021-01-13T14:39:57.000Z</Time>
            <Position>
              <LatitudeDegrees>43.3478083647787570953369140625</LatitudeDegrees>
              <LongitudeDegrees>-3.98849350400269031524658203125</LongitudeDegrees>
            </Position>
            <AltitudeMeters>45.799999237060546875</AltitudeMeters>
            <DistanceMeters>5885.4451335668</DistanceMeters>
          </Trackpoint>
          <Trackpoint>
            <Time>2021-01-13T14:39:58.000Z</Time>
            <Position>
              <LatitudeDegrees>43.34778665564954280853271484375</LatitudeDegrees>
              <LongitudeDegrees>-3.98854547180235385894775390625</LongitudeDegrees>
            </Position>
            <AltitudeMeters>46</AltitudeMeters>
            <DistanceMeters>5890.2961519354</DistanceMeters>
          </Trackpoint>
          <Trackpoint>
            <Time>2021-01-13T14:39:59.000Z</Time>
            <Position>
              <LatitudeDegrees>43.3477661199867725372314453125</LatitudeDegrees>
              <LongitudeDegrees>-3.98859593085944652557373046875</LongitudeDegrees>
            </Position>
            <AltitudeMeters>46.200000762939453125</AltitudeMeters>
            <DistanceMeters>5894.9766396721</DistanceMeters>
          </Trackpoint>
          <Trackpoint>
            <Time>2021-01-13T14:40:00.000Z</Time>
            <Position>
              <LatitudeDegrees>43.3477460034191608428955078125</LatitudeDegrees>
              <LongitudeDegrees>-3.9886446297168731689453125</LongitudeDegrees>
            </Position>
            <AltitudeMeters>46.40000152587890625</AltitudeMeters>
            <DistanceMeters>5899.5101211142</DistanceMeters>
          </Trackpoint>
          <Trackpoint>
            <Time>2021-01-13T14:40:01.000Z</Time>
            <Position>
              <LatitudeDegrees>43.34772597067058086395263671875</LatitudeDegrees>
              <LongitudeDegrees>-3.98869232274591922760009765625</LongitudeDegrees>
            </Position>
            <AltitudeMeters>46.59999847412109375</AltitudeMeters>
            <DistanceMeters>5903.9672691011</DistanceMeters>
          </Trackpoint>
          <Trackpoint>
            <Time>2021-01-13T14:40:03.000Z</Time>
            <Position>
              <LatitudeDegrees>43.34768540225923061370849609375</LatitudeDegrees>
              <LongitudeDegrees>-3.988788127899169921875</LongitudeDegrees>
            </Position>
            <AltitudeMeters>46.799999237060546875</AltitudeMeters>
            <DistanceMeters>5912.9406292104</DistanceMeters>
          </Trackpoint>
          <Trackpoint>
            <Time>2021-01-13T14:40:05.000Z</Time>
            <Position>
              <LatitudeDegrees>43.34764751605689525604248046875</LatitudeDegrees>
              <LongitudeDegrees>-3.98888133466243743896484375</LongitudeDegrees>
            </Position>
            <AltitudeMeters>47.200000762939453125</AltitudeMeters>
            <DistanceMeters>5921.5828373928</DistanceMeters>
          </Trackpoint>
          <Trackpoint>
            <Time>2021-01-13T14:40:07.000Z</Time>
            <Position>
              <LatitudeDegrees>43.34760694764554500579833984375</LatitudeDegrees>
              <LongitudeDegrees>-3.98897496052086353302001953125</LongitudeDegrees>
            </Position>
            <AltitudeMeters>47.40000152587890625</AltitudeMeters>
            <DistanceMeters>5930.4044698264</DistanceMeters>
          </Trackpoint>
          <Trackpoint>
            <Time>2021-01-13T14:40:09.000Z</Time>
            <Position>
              <LatitudeDegrees>43.3475686423480510711669921875</LatitudeDegrees>
              <LongitudeDegrees>-3.98906799964606761932373046875</LongitudeDegrees>
            </Position>
            <AltitudeMeters>47.799999237060546875</AltitudeMeters>
            <DistanceMeters>5939.0576423009</DistanceMeters>
          </Trackpoint>
          <Trackpoint>
            <Time>2021-01-13T14:40:10.000Z</Time>
            <Position>
              <LatitudeDegrees>43.34754936397075653076171875</LatitudeDegrees>
              <LongitudeDegrees>-3.9891140162944793701171875</LongitudeDegrees>
            </Position>
            <AltitudeMeters>48</AltitudeMeters>
            <DistanceMeters>5943.3559601584</DistanceMeters>
          </Trackpoint>
          <Trackpoint>
            <Time>2021-01-13T14:40:11.000Z</Time>
            <Position>
              <LatitudeDegrees>43.34753033705055713653564453125</LatitudeDegrees>
              <LongitudeDegrees>-3.98915953002870082855224609375</LongitudeDegrees>
            </Position>
            <AltitudeMeters>48.200000762939453125</AltitudeMeters>
            <DistanceMeters>5947.6056840186</DistanceMeters>
          </Trackpoint>
          <Trackpoint>
            <Time>2021-01-13T14:40:13.000Z</Time>
            <Position>
              <LatitudeDegrees>43.34749077446758747100830078125</LatitudeDegrees>
              <LongitudeDegrees>-3.9892508089542388916015625</LongitudeDegrees>
            </Position>
            <AltitudeMeters>48.40000152587890625</AltitudeMeters>
            <DistanceMeters>5956.2059954172</DistanceMeters>
          </Trackpoint>
          <Trackpoint>
            <Time>2021-01-13T14:40:14.000Z</Time>
            <Position>
              <LatitudeDegrees>43.34747023880481719970703125</LatitudeDegrees>
              <LongitudeDegrees>-3.98929716087877750396728515625</LongitudeDegrees>
            </Position>
            <AltitudeMeters>48.59999847412109375</AltitudeMeters>
            <DistanceMeters>5960.5978336752</DistanceMeters>
          </Trackpoint>
          <Trackpoint>
            <Time>2021-01-13T14:40:15.000Z</Time>
            <Position>
              <LatitudeDegrees>43.34745012223720550537109375</LatitudeDegrees>
              <LongitudeDegrees>-3.98934409953653812408447265625</LongitudeDegrees>
            </Position>
            <AltitudeMeters>48.59999847412109375</AltitudeMeters>
            <DistanceMeters>5965.0081380479</DistanceMeters>
          </Trackpoint>
          <Trackpoint>
            <Time>2021-01-13T14:40:17.000Z</Time>
            <Position>
              <LatitudeDegrees>43.34740988910198211669921875</LatitudeDegrees>
              <LongitudeDegrees>-3.98943931795656681060791015625</LongitudeDegrees>
            </Position>
            <AltitudeMeters>48.799999237060546875</AltitudeMeters>
            <DistanceMeters>5973.9224340216</DistanceMeters>
          </Trackpoint>
          <Trackpoint>
            <Time>2021-01-13T14:40:19.000Z</Time>
            <Position>
              <LatitudeDegrees>43.34736965596675872802734375</LatitudeDegrees>
              <LongitudeDegrees>-3.98953487165272235870361328125</LongitudeDegrees>
            </Position>
            <AltitudeMeters>49.200000762939453125</AltitudeMeters>
            <DistanceMeters>5982.8599983556</DistanceMeters>
          </Trackpoint>
          <Trackpoint>
            <Time>2021-01-13T14:40:21.000Z</Time>
            <Position>
              <LatitudeDegrees>43.347329087555408477783203125</LatitudeDegrees>
              <LongitudeDegrees>-3.98963143117725849151611328125</LongitudeDegrees>
            </Position>
            <AltitudeMeters>49.59999847412109375</AltitudeMeters>
            <DistanceMeters>5991.8860356742</DistanceMeters>
          </Trackpoint>
          <Trackpoint>
            <Time>2021-01-13T14:40:22.000Z</Time>
            <Position>
              <LatitudeDegrees>43.3473084680736064910888671875</LatitudeDegrees>
              <LongitudeDegrees>-3.98968088440597057342529296875</LongitudeDegrees>
            </Position>
            <AltitudeMeters>49.59999847412109375</AltitudeMeters>
            <DistanceMeters>5996.5004609098</DistanceMeters>
          </Trackpoint>
          <Trackpoint>
            <Time>2021-01-13T14:40:23.000Z</Time>
            <Position>
              <LatitudeDegrees>43.3472870104014873504638671875</LatitudeDegrees>
              <LongitudeDegrees>-3.9897307567298412322998046875</LongitudeDegrees>
            </Position>
            <AltitudeMeters>49.59999847412109375</AltitudeMeters>
            <DistanceMeters>6001.1905852384</DistanceMeters>
          </Trackpoint>
          <Trackpoint>
            <Time>2021-01-13T14:40:25.000Z</Time>
            <Position>
              <LatitudeDegrees>43.34724225103855133056640625</LatitudeDegrees>
              <LongitudeDegrees>-3.98983075283467769622802734375</LongitudeDegrees>
            </Position>
            <AltitudeMeters>50</AltitudeMeters>
            <DistanceMeters>6010.694206895</DistanceMeters>
          </Trackpoint>
          <Trackpoint>
            <Time>2021-01-13T14:40:27.000Z</Time>
            <Position>
              <LatitudeDegrees>43.347198329865932464599609375</LatitudeDegrees>
              <LongitudeDegrees>-3.98993301205337047576904296875</LongitudeDegrees>
            </Position>
            <AltitudeMeters>50.200000762939453125</AltitudeMeters>
            <DistanceMeters>6020.3074166778</DistanceMeters>
          </Trackpoint>
          <Trackpoint>
            <Time>2021-01-13T14:40:29.000Z</Time>
            <Position>
              <LatitudeDegrees>43.34715700708329677581787109375</LatitudeDegrees>
              <LongitudeDegrees>-3.9900345169007778167724609375</LongitudeDegrees>
            </Position>
            <AltitudeMeters>50.59999847412109375</AltitudeMeters>
            <DistanceMeters>6029.7232167248</DistanceMeters>
          </Trackpoint>
          <Trackpoint>
            <Time>2021-01-13T14:40:31.000Z</Time>
            <Position>
              <LatitudeDegrees>43.347116522490978240966796875</LatitudeDegrees>
              <LongitudeDegrees>-3.9901344291865825653076171875</LongitudeDegrees>
            </Position>
            <AltitudeMeters>50.799999237060546875</AltitudeMeters>
            <DistanceMeters>6038.980399096</DistanceMeters>
          </Trackpoint>
          <Trackpoint>
            <Time>2021-01-13T14:40:33.000Z</Time>
            <Position>
              <LatitudeDegrees>43.3470747806131839752197265625</LatitudeDegrees>
              <LongitudeDegrees>-3.99023140780627727508544921875</LongitudeDegrees>
            </Position>
            <AltitudeMeters>51.200000762939453125</AltitudeMeters>
            <DistanceMeters>6048.1009837375</DistanceMeters>
          </Trackpoint>
          <Trackpoint>
            <Time>2021-01-13T14:40:35.000Z</Time>
            <Position>
              <LatitudeDegrees>43.34703303873538970947265625</LatitudeDegrees>
              <LongitudeDegrees>-3.9903282187879085540771484375</LongitudeDegrees>
            </Position>
            <AltitudeMeters>51.59999847412109375</AltitudeMeters>
            <DistanceMeters>6057.2106710274</DistanceMeters>
          </Trackpoint>
          <Trackpoint>
            <Time>2021-01-13T14:40:36.000Z</Time>
            <Position>
              <LatitudeDegrees>43.34701250307261943817138671875</LatitudeDegrees>
              <LongitudeDegrees>-3.99037742055952548980712890625</LongitudeDegrees>
            </Position>
            <AltitudeMeters>51.799999237060546875</AltitudeMeters>
            <DistanceMeters>6061.8025364976</DistanceMeters>
          </Trackpoint>
          <Trackpoint>
            <Time>2021-01-13T14:40:37.000Z</Time>
            <Position>
              <LatitudeDegrees>43.346992470324039459228515625</LatitudeDegrees>
              <LongitudeDegrees>-3.99042704142630100250244140625</LongitudeDegrees>
            </Position>
            <AltitudeMeters>51.799999237060546875</AltitudeMeters>
            <DistanceMeters>6066.3963680846</DistanceMeters>
          </Trackpoint>
          <Trackpoint>
            <Time>2021-01-13T14:40:39.000Z</Time>
            <Position>
              <LatitudeDegrees>43.3469520695507526397705078125</LatitudeDegrees>
              <LongitudeDegrees>-3.9905240200459957122802734375</LongitudeDegrees>
            </Position>
            <AltitudeMeters>52.200000762939453125</AltitudeMeters>
            <DistanceMeters>6075.4423922242</DistanceMeters>
          </Trackpoint>
          <Trackpoint>
            <Time>2021-01-13T14:40:41.000Z</Time>
            <Position>
              <LatitudeDegrees>43.34690940566360950469970703125</LatitudeDegrees>
              <LongitudeDegrees>-3.9906212501227855682373046875</LongitudeDegrees>
            </Position>
            <AltitudeMeters>52.59999847412109375</AltitudeMeters>
            <DistanceMeters>6084.6339859495</DistanceMeters>
          </Trackpoint>
          <Trackpoint>
            <Time>2021-01-13T14:40:43.000Z</Time>
            <Position>
              <LatitudeDegrees>43.34686498157680034637451171875</LatitudeDegrees>
              <LongitudeDegrees>-3.99072057567536830902099609375</LongitudeDegrees>
            </Position>
            <AltitudeMeters>52.799999237060546875</AltitudeMeters>
            <DistanceMeters>6094.0718180121</DistanceMeters>
          </Trackpoint>
          <Trackpoint>
            <Time>2021-01-13T14:40:44.000Z</Time>
            <Position>
              <LatitudeDegrees>43.34684452973306179046630859375</LatitudeDegrees>
              <LongitudeDegrees>-3.9907704479992389678955078125</LongitudeDegrees>
            </Position>
            <AltitudeMeters>53</AltitudeMeters>
            <DistanceMeters>6098.7057711608</DistanceMeters>
          </Trackpoint>
          <Trackpoint>
            <Time>2021-01-13T14:40:45.000Z</Time>
            <Position>
              <LatitudeDegrees>43.3468236587941646575927734375</LatitudeDegrees>
              <LongitudeDegrees>-3.99081998504698276519775390625</LongitudeDegrees>
            </Position>
            <AltitudeMeters>53.200000762939453125</AltitudeMeters>
            <DistanceMeters>6103.3387498686</DistanceMeters>
          </Trackpoint>
          <Trackpoint>
            <Time>2021-01-13T14:40:47.000Z</Time>
            <Position>
              <LatitudeDegrees>43.346781916916370391845703125</LatitudeDegrees>
              <LongitudeDegrees>-3.99091847240924835205078125</LongitudeDegrees>
            </Position>
            <AltitudeMeters>53.40000152587890625</AltitudeMeters>
            <DistanceMeters>6112.5651538613</DistanceMeters>
          </Trackpoint>
          <Trackpoint>
            <Time>2021-01-13T14:40:49.000Z</Time>
            <Position>
              <LatitudeDegrees>43.346742689609527587890625</LatitudeDegrees>
              <LongitudeDegrees>-3.99101930670440196990966796875</LongitudeDegrees>
            </Position>
            <AltitudeMeters>54</AltitudeMeters>
            <DistanceMeters>6121.821360714</DistanceMeters>
          </Trackpoint>
          <Trackpoint>
            <Time>2021-01-13T14:40:51.000Z</Time>
            <Position>
              <LatitudeDegrees>43.34669952280819416046142578125</LatitudeDegrees>
              <LongitudeDegrees>-3.991116620600223541259765625</LongitudeDegrees>
            </Position>
            <AltitudeMeters>54.40000152587890625</AltitudeMeters>
            <DistanceMeters>6131.0482540544</DistanceMeters>
          </Trackpoint>
          <Trackpoint>
            <Time>2021-01-13T14:40:53.000Z</Time>
            <Position>
              <LatitudeDegrees>43.34665727801620960235595703125</LatitudeDegrees>
              <LongitudeDegrees>-3.9912130124866962432861328125</LongitudeDegrees>
            </Position>
            <AltitudeMeters>54.59999847412109375</AltitudeMeters>
            <DistanceMeters>6140.1574457004</DistanceMeters>
          </Trackpoint>
          <Trackpoint>
            <Time>2021-01-13T14:40:55.000Z</Time>
            <Position>
              <LatitudeDegrees>43.3466152846813201904296875</LatitudeDegrees>
              <LongitudeDegrees>-3.991310410201549530029296875</LongitudeDegrees>
            </Position>
            <AltitudeMeters>54.799999237060546875</AltitudeMeters>
            <DistanceMeters>6149.322475492</DistanceMeters>
          </Trackpoint>
          <Trackpoint>
            <Time>2021-01-13T14:40:57.000Z</Time>
            <Position>
              <LatitudeDegrees>43.3465732075273990631103515625</LatitudeDegrees>
              <LongitudeDegrees>-3.9914108254015445709228515625</LongitudeDegrees>
            </Position>
            <AltitudeMeters>55</AltitudeMeters>
            <DistanceMeters>6158.7027241492</DistanceMeters>
          </Trackpoint>
          <Trackpoint>
            <Time>2021-01-13T14:40:59.000Z</Time>
            <Position>
              <LatitudeDegrees>43.3465306274592876434326171875</LatitudeDegrees>
              <LongitudeDegrees>-3.99151124060153961181640625</LongitudeDegrees>
            </Position>
            <AltitudeMeters>55.40000152587890625</AltitudeMeters>
            <DistanceMeters>6168.1108487924</DistanceMeters>
          </Trackpoint>
          <Trackpoint>
            <Time>2021-01-13T14:41:01.000Z</Time>
            <Position>
              <LatitudeDegrees>43.34649014286696910858154296875</LatitudeDegrees>
              <LongitudeDegrees>-3.99161182343959808349609375</LongitudeDegrees>
            </Position>
            <AltitudeMeters>55.799999237060546875</AltitudeMeters>
            <DistanceMeters>6177.4157062843</DistanceMeters>
          </Trackpoint>
          <Trackpoint>
            <Time>2021-01-13T14:41:03.000Z</Time>
            <Position>
              <LatitudeDegrees>43.34644923917949199676513671875</LatitudeDegrees>
              <LongitudeDegrees>-3.99170972406864166259765625</LongitudeDegrees>
            </Position>
            <AltitudeMeters>56</AltitudeMeters>
            <DistanceMeters>6186.5550830195</DistanceMeters>
          </Trackpoint>
          <Trackpoint>
            <Time>2021-01-13T14:41:05.000Z</Time>
            <Position>
              <LatitudeDegrees>43.34640934132039546966552734375</LatitudeDegrees>
              <LongitudeDegrees>-3.99180435575544834136962890625</LongitudeDegrees>
            </Position>
            <AltitudeMeters>56</AltitudeMeters>
            <DistanceMeters>6195.4089010439</DistanceMeters>
          </Trackpoint>
          <Trackpoint>
            <Time>2021-01-13T14:41:07.000Z</Time>
            <Position>
              <LatitudeDegrees>43.34636910818517208099365234375</LatitudeDegrees>
              <LongitudeDegrees>-3.9918996579945087432861328125</LongitudeDegrees>
            </Position>
            <AltitudeMeters>56.200000762939453125</AltitudeMeters>
            <DistanceMeters>6204.3282605204</DistanceMeters>
          </Trackpoint>
          <Trackpoint>
            <Time>2021-01-13T14:41:09.000Z</Time>
            <Position>
              <LatitudeDegrees>43.3463277854025363922119140625</LatitudeDegrees>
              <LongitudeDegrees>-3.99199068546295166015625</LongitudeDegrees>
            </Position>
            <AltitudeMeters>56.40000152587890625</AltitudeMeters>
            <DistanceMeters>6213.0137230074</DistanceMeters>
          </Trackpoint>
          <Trackpoint>
            <Time>2021-01-13T14:41:11.000Z</Time>
            <Position>
              <LatitudeDegrees>43.346287049353122711181640625</LatitudeDegrees>
              <LongitudeDegrees>-3.99208389222621917724609375</LongitudeDegrees>
            </Position>
            <AltitudeMeters>56.799999237060546875</AltitudeMeters>
            <DistanceMeters>6221.8158850083</DistanceMeters>
          </Trackpoint>
          <Trackpoint>
            <Time>2021-01-13T14:41:13.000Z</Time>
            <Position>
              <LatitudeDegrees>43.3462478220462799072265625</LatitudeDegrees>
              <LongitudeDegrees>-3.99217936210334300994873046875</LongitudeDegrees>
            </Position>
            <AltitudeMeters>57</AltitudeMeters>
            <DistanceMeters>6230.6916039593</DistanceMeters>
          </Trackpoint>
          <Trackpoint>
            <Time>2021-01-13T14:41:14.000Z</Time>
            <Position>
              <LatitudeDegrees>43.3462295494973659515380859375</LatitudeDegrees>
              <LongitudeDegrees>-3.9922268874943256378173828125</LongitudeDegrees>
            </Position>
            <AltitudeMeters>57.200000762939453125</AltitudeMeters>
            <DistanceMeters>6235.0442009288</DistanceMeters>
          </Trackpoint>
          <Trackpoint>
            <Time>2021-01-13T14:41:15.000Z</Time>
            <Position>
              <LatitudeDegrees>43.346210606396198272705078125</LatitudeDegrees>
              <LongitudeDegrees>-3.992273323237895965576171875</LongitudeDegrees>
            </Position>
            <AltitudeMeters>57.200000762939453125</AltitudeMeters>
            <DistanceMeters>6239.3530101807</DistanceMeters>
          </Trackpoint>
          <Trackpoint>
            <Time>2021-01-13T14:41:16.000Z</Time>
            <Position>
              <LatitudeDegrees>43.34619074128568172454833984375</LatitudeDegrees>
              <LongitudeDegrees>-3.992318250238895416259765625</LongitudeDegrees>
            </Position>
            <AltitudeMeters>57.200000762939453125</AltitudeMeters>
            <DistanceMeters>6243.6091038529</DistanceMeters>
          </Trackpoint>
          <Trackpoint>
            <Time>2021-01-13T14:41:17.000Z</Time>
            <Position>
              <LatitudeDegrees>43.34617146290838718414306640625</LatitudeDegrees>
              <LongitudeDegrees>-3.99236309342086315155029296875</LongitudeDegrees>
            </Position>
            <AltitudeMeters>57.200000762939453125</AltitudeMeters>
            <DistanceMeters>6247.8246928321</DistanceMeters>
          </Trackpoint>
          <Trackpoint>
            <Time>2021-01-13T14:41:19.000Z</Time>
            <Position>
              <LatitudeDegrees>43.34613340906798839569091796875</LatitudeDegrees>
              <LongitudeDegrees>-3.99244892410933971405029296875</LongitudeDegrees>
            </Position>
            <AltitudeMeters>57.59999847412109375</AltitudeMeters>
            <DistanceMeters>6255.9615546649</DistanceMeters>
          </Trackpoint>
          <Trackpoint>
            <Time>2021-01-13T14:41:21.000Z</Time>
            <Position>
              <LatitudeDegrees>43.3460961095988750457763671875</LatitudeDegrees>
              <LongitudeDegrees>-3.9925346709787845611572265625</LongitudeDegrees>
            </Position>
            <AltitudeMeters>57.799999237060546875</AltitudeMeters>
            <DistanceMeters>6264.0494390459</DistanceMeters>
          </Trackpoint>
          <Trackpoint>
            <Time>2021-01-13T14:41:23.000Z</Time>
            <Position>
              <LatitudeDegrees>43.34605948068201541900634765625</LatitudeDegrees>
              <LongitudeDegrees>-3.99261991493403911590576171875</LongitudeDegrees>
            </Position>
            <AltitudeMeters>58.200000762939453125</AltitudeMeters>
            <DistanceMeters>6272.0632960243</DistanceMeters>
          </Trackpoint>
          <Trackpoint>
            <Time>2021-01-13T14:41:24.000Z</Time>
            <Position>
              <LatitudeDegrees>43.34604062139987945556640625</LatitudeDegrees>
              <LongitudeDegrees>-3.992662914097309112548828125</LongitudeDegrees>
            </Position>
            <AltitudeMeters>58.200000762939453125</AltitudeMeters>
            <DistanceMeters>6276.1261742823</DistanceMeters>
          </Trackpoint>
          <Trackpoint>
            <Time>2021-01-13T14:41:25.000Z</Time>
            <Position>
              <LatitudeDegrees>43.34602125920355319976806640625</LatitudeDegrees>
              <LongitudeDegrees>-3.99270574562251567840576171875</LongitudeDegrees>
            </Position>
            <AltitudeMeters>58.40000152587890625</AltitudeMeters>
            <DistanceMeters>6280.2090067691</DistanceMeters>
          </Trackpoint>
          <Trackpoint>
            <Time>2021-01-13T14:41:27.000Z</Time>
            <Position>
              <LatitudeDegrees>43.34598219953477382659912109375</LatitudeDegrees>
              <LongitudeDegrees>-3.9927940070629119873046875</LongitudeDegrees>
            </Position>
            <AltitudeMeters>58.799999237060546875</AltitudeMeters>
            <DistanceMeters>6288.5718975408</DistanceMeters>
          </Trackpoint>
          <Trackpoint>
            <Time>2021-01-13T14:41:29.000Z</Time>
            <Position>
              <LatitudeDegrees>43.345943726599216461181640625</LatitudeDegrees>
              <LongitudeDegrees>-3.992883861064910888671875</LongitudeDegrees>
            </Position>
            <AltitudeMeters>59.200000762939453125</AltitudeMeters>
            <DistanceMeters>6297.0116394201</DistanceMeters>
          </Trackpoint>
          <Trackpoint>
            <Time>2021-01-13T14:41:31.000Z</Time>
            <Position>
              <LatitudeDegrees>43.34590642713010311126708984375</LatitudeDegrees>
              <LongitudeDegrees>-3.99297262541949748992919921875</LongitudeDegrees>
            </Position>
            <AltitudeMeters>59.40000152587890625</AltitudeMeters>
            <DistanceMeters>6305.3089463813</DistanceMeters>
          </Trackpoint>
          <Trackpoint>
            <Time>2021-01-13T14:41:33.000Z</Time>
            <Position>
              <LatitudeDegrees>43.3458694629371166229248046875</LatitudeDegrees>
              <LongitudeDegrees>-3.9930622279644012451171875</LongitudeDegrees>
            </Position>
            <AltitudeMeters>59.799999237060546875</AltitudeMeters>
            <DistanceMeters>6313.6475067258</DistanceMeters>
          </Trackpoint>
          <Trackpoint>
            <Time>2021-01-13T14:41:35.000Z</Time>
            <Position>
              <LatitudeDegrees>43.34583140909671783447265625</LatitudeDegrees>
              <LongitudeDegrees>-3.993151076138019561767578125</LongitudeDegrees>
            </Position>
            <AltitudeMeters>60.200000762939453125</AltitudeMeters>
            <DistanceMeters>6321.9931031462</DistanceMeters>
          </Trackpoint>
          <Trackpoint>
            <Time>2021-01-13T14:41:37.000Z</Time>
            <Position>
              <LatitudeDegrees>43.34579276852309703826904296875</LatitudeDegrees>
              <LongitudeDegrees>-3.993236236274242401123046875</LongitudeDegrees>
            </Position>
            <AltitudeMeters>60.40000152587890625</AltitudeMeters>
            <DistanceMeters>6330.1177482957</DistanceMeters>
          </Trackpoint>
          <Trackpoint>
            <Time>2021-01-13T14:41:39.000Z</Time>
            <Position>
              <LatitudeDegrees>43.34575789980590343475341796875</LatitudeDegrees>
              <LongitudeDegrees>-3.99332248605787754058837890625</LongitudeDegrees>
            </Position>
            <AltitudeMeters>61</AltitudeMeters>
            <DistanceMeters>6338.1056466522</DistanceMeters>
          </Trackpoint>
          <Trackpoint>
            <Time>2021-01-13T14:41:41.000Z</Time>
            <Position>
              <LatitudeDegrees>43.34571951068937778472900390625</LatitudeDegrees>
              <LongitudeDegrees>-3.99340890347957611083984375</LongitudeDegrees>
            </Position>
            <AltitudeMeters>61.40000152587890625</AltitudeMeters>
            <DistanceMeters>6346.3022171998</DistanceMeters>
          </Trackpoint>
          <Trackpoint>
            <Time>2021-01-13T14:41:42.000Z</Time>
            <Position>
              <LatitudeDegrees>43.3456994779407978057861328125</LatitudeDegrees>
              <LongitudeDegrees>-3.9934513159096240997314453125</LongitudeDegrees>
            </Position>
            <AltitudeMeters>61.59999847412109375</AltitudeMeters>
            <DistanceMeters>6350.3938869968</DistanceMeters>
          </Trackpoint>
          <Trackpoint>
            <Time>2021-01-13T14:41:43.000Z</Time>
            <Position>
              <LatitudeDegrees>43.34567843936383724212646484375</LatitudeDegrees>
              <LongitudeDegrees>-3.99349297396838665008544921875</LongitudeDegrees>
            </Position>
            <AltitudeMeters>61.59999847412109375</AltitudeMeters>
            <DistanceMeters>6354.498777086</DistanceMeters>
          </Trackpoint>
          <Trackpoint>
            <Time>2021-01-13T14:41:45.000Z</Time>
            <Position>
              <LatitudeDegrees>43.34563150070607662200927734375</LatitudeDegrees>
              <LongitudeDegrees>-3.9935733564198017120361328125</LongitudeDegrees>
            </Position>
            <AltitudeMeters>62</AltitudeMeters>
            <DistanceMeters>6362.8427503231</DistanceMeters>
          </Trackpoint>
          <Trackpoint>
            <Time>2021-01-13T14:41:46.000Z</Time>
            <Position>
              <LatitudeDegrees>43.34560585208237171173095703125</LatitudeDegrees>
              <LongitudeDegrees>-3.993612416088581085205078125</LongitudeDegrees>
            </Position>
            <AltitudeMeters>62.200000762939453125</AltitudeMeters>
            <DistanceMeters>6367.1030852457</DistanceMeters>
          </Trackpoint>
          <Trackpoint>
            <Time>2021-01-13T14:41:47.000Z</Time>
            <Position>
              <LatitudeDegrees>43.34557852707803249359130859375</LatitudeDegrees>
              <LongitudeDegrees>-3.99365021847188472747802734375</LongitudeDegrees>
            </Position>
            <AltitudeMeters>62.59999847412109375</AltitudeMeters>
            <DistanceMeters>6371.4181770903</DistanceMeters>
          </Trackpoint>
          <Trackpoint>
            <Time>2021-01-13T14:41:49.000Z</Time>
            <Position>
              <LatitudeDegrees>43.34551968611776828765869140625</LatitudeDegrees>
              <LongitudeDegrees>-3.9937215484678745269775390625</LongitudeDegrees>
            </Position>
            <AltitudeMeters>62.799999237060546875</AltitudeMeters>
            <DistanceMeters>6380.1487483926</DistanceMeters>
          </Trackpoint>
          <Trackpoint>
            <Time>2021-01-13T14:41:51.000Z</Time>
            <Position>
              <LatitudeDegrees>43.345455564558506011962890625</LatitudeDegrees>
              <LongitudeDegrees>-3.99378315545618534088134765625</LongitudeDegrees>
            </Position>
            <AltitudeMeters>63.200000762939453125</AltitudeMeters>
            <DistanceMeters>6388.8549795904</DistanceMeters>
          </Trackpoint>
          <Trackpoint>
            <Time>2021-01-13T14:41:53.000Z</Time>
            <Position>
              <LatitudeDegrees>43.34539261646568775177001953125</LatitudeDegrees>
              <LongitudeDegrees>-3.99384233169257640838623046875</LongitudeDegrees>
            </Position>
            <AltitudeMeters>63.59999847412109375</AltitudeMeters>
            <DistanceMeters>6397.3427325245</DistanceMeters>
          </Trackpoint>
          <Trackpoint>
            <Time>2021-01-13T14:41:55.000Z</Time>
            <Position>
              <LatitudeDegrees>43.3453278243541717529296875</LatitudeDegrees>
              <LongitudeDegrees>-3.99390301667153835296630859375</LongitudeDegrees>
            </Position>
            <AltitudeMeters>64.40000152587890625</AltitudeMeters>
            <DistanceMeters>6406.0686482114</DistanceMeters>
          </Trackpoint>
          <Trackpoint>
            <Time>2021-01-13T14:41:57.000Z</Time>
            <Position>
              <LatitudeDegrees>43.3452634513378143310546875</LatitudeDegrees>
              <LongitudeDegrees>-3.9939666353166103363037109375</LongitudeDegrees>
            </Position>
            <AltitudeMeters>64.8000030517578125</AltitudeMeters>
            <DistanceMeters>6414.8913042144</DistanceMeters>
          </Trackpoint>
          <Trackpoint>
            <Time>2021-01-13T14:41:58.000Z</Time>
            <Position>
              <LatitudeDegrees>43.34523134864866733551025390625</LatitudeDegrees>
              <LongitudeDegrees>-3.99400091730058193206787109375</LongitudeDegrees>
            </Position>
            <AltitudeMeters>65</AltitudeMeters>
            <DistanceMeters>6419.4148153752</DistanceMeters>
          </Trackpoint>
          <Trackpoint>
            <Time>2021-01-13T14:41:59.000Z</Time>
            <Position>
              <LatitudeDegrees>43.3452005870640277862548828125</LatitudeDegrees>
              <LongitudeDegrees>-3.99403897114098072052001953125</LongitudeDegrees>
            </Position>
            <AltitudeMeters>65</AltitudeMeters>
            <DistanceMeters>6424.0194455982</DistanceMeters>
          </Trackpoint>
          <Trackpoint>
            <Time>2021-01-13T14:42:01.000Z</Time>
            <Position>
              <LatitudeDegrees>43.34514048881828784942626953125</LatitudeDegrees>
              <LongitudeDegrees>-3.99412245489656925201416015625</LongitudeDegrees>
            </Position>
            <AltitudeMeters>65.40000152587890625</AltitudeMeters>
            <DistanceMeters>6433.527342068</DistanceMeters>
          </Trackpoint>
          <Trackpoint>
            <Time>2021-01-13T14:42:02.000Z</Time>
            <Position>
              <LatitudeDegrees>43.34510964341461658477783203125</LatitudeDegrees>
              <LongitudeDegrees>-3.994162268936634063720703125</LongitudeDegrees>
            </Position>
            <AltitudeMeters>65.59999847412109375</AltitudeMeters>
            <DistanceMeters>6438.2366804235</DistanceMeters>
          </Trackpoint>
          <Trackpoint>
            <Time>2021-01-13T14:42:03.000Z</Time>
            <Position>
              <LatitudeDegrees>43.34507561288774013519287109375</LatitudeDegrees>
              <LongitudeDegrees>-3.99419638328254222869873046875</LongitudeDegrees>
            </Position>
            <AltitudeMeters>65.8000030517578125</AltitudeMeters>
            <DistanceMeters>6442.9248790183</DistanceMeters>
          </Trackpoint>
          <Trackpoint>
            <Time>2021-01-13T14:42:05.000Z</Time>
            <Position>
              <LatitudeDegrees>43.344999253749847412109375</LatitudeDegrees>
              <LongitudeDegrees>-3.9942264743149280548095703125</LongitudeDegrees>
            </Position>
            <AltitudeMeters>66.40000152587890625</AltitudeMeters>
            <DistanceMeters>6451.7659390056</DistanceMeters>
          </Trackpoint>
          <Trackpoint>
            <Time>2021-01-13T14:42:06.000Z</Time>
            <Position>
              <LatitudeDegrees>43.344960026443004608154296875</LatitudeDegrees>
              <LongitudeDegrees>-3.9942271448671817779541015625</LongitudeDegrees>
            </Position>
            <AltitudeMeters>66.8000030517578125</AltitudeMeters>
            <DistanceMeters>6456.1330343159</DistanceMeters>
          </Trackpoint>
          <Trackpoint>
            <Time>2021-01-13T14:42:07.000Z</Time>
            <Position>
              <LatitudeDegrees>43.34492138586938381195068359375</LatitudeDegrees>
              <LongitudeDegrees>-3.9942298270761966705322265625</LongitudeDegrees>
            </Position>
            <AltitudeMeters>67</AltitudeMeters>
            <DistanceMeters>6460.4376500785</DistanceMeters>
          </Trackpoint>
          <Trackpoint>
            <Time>2021-01-13T14:42:09.000Z</Time>
            <Position>
              <LatitudeDegrees>43.34484812803566455841064453125</LatitudeDegrees>
              <LongitudeDegrees>-3.9942760951817035675048828125</LongitudeDegrees>
            </Position>
            <AltitudeMeters>67.59999847412109375</AltitudeMeters>
            <DistanceMeters>6469.4105070134</DistanceMeters>
          </Trackpoint>
          <Trackpoint>
            <Time>2021-01-13T14:42:10.000Z</Time>
            <Position>
              <LatitudeDegrees>43.34481627680361270904541015625</LatitudeDegrees>
              <LongitudeDegrees>-3.9943149872124195098876953125</LongitudeDegrees>
            </Position>
            <AltitudeMeters>67.8000030517578125</AltitudeMeters>
            <DistanceMeters>6474.1504258094</DistanceMeters>
          </Trackpoint>
          <Trackpoint>
            <Time>2021-01-13T14:42:11.000Z</Time>
            <Position>
              <LatitudeDegrees>43.3447868563234806060791015625</LatitudeDegrees>
              <LongitudeDegrees>-3.9943568967282772064208984375</LongitudeDegrees>
            </Position>
            <AltitudeMeters>68</AltitudeMeters>
            <DistanceMeters>6478.8655131049</DistanceMeters>
          </Trackpoint>
          <Trackpoint>
            <Time>2021-01-13T14:42:12.000Z</Time>
            <Position>
              <LatitudeDegrees>43.34475659765303134918212890625</LatitudeDegrees>
              <LongitudeDegrees>-3.994398973882198333740234375</LongitudeDegrees>
            </Position>
            <AltitudeMeters>68.1999969482421875</AltitudeMeters>
            <DistanceMeters>6483.6565938098</DistanceMeters>
          </Trackpoint>
          <Trackpoint>
            <Time>2021-01-13T14:42:13.000Z</Time>
            <Position>
              <LatitudeDegrees>43.3447214774787425994873046875</LatitudeDegrees>
              <LongitudeDegrees>-3.99444029666483402252197265625</LongitudeDegrees>
            </Position>
            <AltitudeMeters>68.1999969482421875</AltitudeMeters>
            <DistanceMeters>6488.8020951589</DistanceMeters>
          </Trackpoint>
          <Trackpoint>
            <Time>2021-01-13T14:42:15.000Z</Time>
            <Position>
              <LatitudeDegrees>43.34463690407574176788330078125</LatitudeDegrees>
              <LongitudeDegrees>-3.9945186674594879150390625</LongitudeDegrees>
            </Position>
            <AltitudeMeters>68.1999969482421875</AltitudeMeters>
            <DistanceMeters>6500.15331363</DistanceMeters>
          </Trackpoint>
          <Trackpoint>
            <Time>2021-01-13T14:42:16.000Z</Time>
            <Position>
              <LatitudeDegrees>43.34459130652248859405517578125</LatitudeDegrees>
              <LongitudeDegrees>-3.99455688893795013427734375</LongitudeDegrees>
            </Position>
            <AltitudeMeters>68.1999969482421875</AltitudeMeters>
            <DistanceMeters>6506.0968528996</DistanceMeters>
          </Trackpoint>
          <Trackpoint>
            <Time>2021-01-13T14:42:17.000Z</Time>
            <Position>
              <LatitudeDegrees>43.3445451222360134124755859375</LatitudeDegrees>
              <LongitudeDegrees>-3.994594104588031768798828125</LongitudeDegrees>
            </Position>
            <AltitudeMeters>68.40000152587890625</AltitudeMeters>
            <DistanceMeters>6512.0555658963</DistanceMeters>
          </Trackpoint>
          <Trackpoint>
            <Time>2021-01-13T14:42:19.000Z</Time>
            <Position>
              <LatitudeDegrees>43.34444261156022548675537109375</LatitudeDegrees>
              <LongitudeDegrees>-3.9946636743843555450439453125</LongitudeDegrees>
            </Position>
            <AltitudeMeters>68.40000152587890625</AltitudeMeters>
            <DistanceMeters>6524.7792135843</DistanceMeters>
          </Trackpoint>
          <Trackpoint>
            <Time>2021-01-13T14:42:21.000Z</Time>
            <Position>
              <LatitudeDegrees>43.34435191936790943145751953125</LatitudeDegrees>
              <LongitudeDegrees>-3.99474062025547027587890625</LongitudeDegrees>
            </Position>
            <AltitudeMeters>69</AltitudeMeters>
            <DistanceMeters>6536.6400550772</DistanceMeters>
          </Trackpoint>
          <Trackpoint>
            <Time>2021-01-13T14:42:22.000Z</Time>
            <Position>
              <LatitudeDegrees>43.34430799819529056549072265625</LatitudeDegrees>
              <LongitudeDegrees>-3.9947733096778392791748046875</LongitudeDegrees>
            </Position>
            <AltitudeMeters>69</AltitudeMeters>
            <DistanceMeters>6542.1989148156</DistanceMeters>
          </Trackpoint>
          <Trackpoint>
            <Time>2021-01-13T14:42:23.000Z</Time>
            <Position>
              <LatitudeDegrees>43.34427447058260440826416015625</LatitudeDegrees>
              <LongitudeDegrees>-3.99482184089720249176025390625</LongitudeDegrees>
            </Position>
            <AltitudeMeters>69.59999847412109375</AltitudeMeters>
            <DistanceMeters>6547.6179376607</DistanceMeters>
          </Trackpoint>
          <Trackpoint>
            <Time>2021-01-13T14:42:25.000Z</Time>
            <Position>
              <LatitudeDegrees>43.34422887302935123443603515625</LatitudeDegrees>
              <LongitudeDegrees>-3.99493197910487651824951171875</LongitudeDegrees>
            </Position>
            <AltitudeMeters>70</AltitudeMeters>
            <DistanceMeters>6557.8764224844</DistanceMeters>
          </Trackpoint>
          <Trackpoint>
            <Time>2021-01-13T14:42:26.000Z</Time>
            <Position>
              <LatitudeDegrees>43.34420121274888515472412109375</LatitudeDegrees>
              <LongitudeDegrees>-3.99498201906681060791015625</LongitudeDegrees>
            </Position>
            <AltitudeMeters>70.1999969482421875</AltitudeMeters>
            <DistanceMeters>6562.9636809886</DistanceMeters>
          </Trackpoint>
          <Trackpoint>
            <Time>2021-01-13T14:42:27.000Z</Time>
            <Position>
              <LatitudeDegrees>43.34417388774454593658447265625</LatitudeDegrees>
              <LongitudeDegrees>-3.9950363337993621826171875</LongitudeDegrees>
            </Position>
            <AltitudeMeters>70.59999847412109375</AltitudeMeters>
            <DistanceMeters>6568.308880879</DistanceMeters>
          </Trackpoint>
          <Trackpoint>
            <Time>2021-01-13T14:42:29.000Z</Time>
            <Position>
              <LatitudeDegrees>43.3441208302974700927734375</LatitudeDegrees>
              <LongitudeDegrees>-3.99514454416930675506591796875</LongitudeDegrees>
            </Position>
            <AltitudeMeters>71.1999969482421875</AltitudeMeters>
            <DistanceMeters>6578.8726720874</DistanceMeters>
          </Trackpoint>
          <Trackpoint>
            <Time>2021-01-13T14:42:31.000Z</Time>
            <Position>
              <LatitudeDegrees>43.34406492300331592559814453125</LatitudeDegrees>
              <LongitudeDegrees>-3.9952356554567813873291015625</LongitudeDegrees>
            </Position>
            <AltitudeMeters>71.59999847412109375</AltitudeMeters>
            <DistanceMeters>6588.5215107811</DistanceMeters>
          </Trackpoint>
          <Trackpoint>
            <Time>2021-01-13T14:42:32.000Z</Time>
            <Position>
              <LatitudeDegrees>43.34403675980865955352783203125</LatitudeDegrees>
              <LongitudeDegrees>-3.99528552778065204620361328125</LongitudeDegrees>
            </Position>
            <AltitudeMeters>72</AltitudeMeters>
            <DistanceMeters>6593.631792679</DistanceMeters>
          </Trackpoint>
          <Trackpoint>
            <Time>2021-01-13T14:42:33.000Z</Time>
            <Position>
              <LatitudeDegrees>43.34401555359363555908203125</LatitudeDegrees>
              <LongitudeDegrees>-3.99534009397029876708984375</LongitudeDegrees>
            </Position>
            <AltitudeMeters>72.1999969482421875</AltitudeMeters>
            <DistanceMeters>6598.6403406084</DistanceMeters>
          </Trackpoint>
          <Trackpoint>
            <Time>2021-01-13T14:42:35.000Z</Time>
            <Position>
              <LatitudeDegrees>43.3439979515969753265380859375</LatitudeDegrees>
              <LongitudeDegrees>-3.995447717607021331787109375</LongitudeDegrees>
            </Position>
            <AltitudeMeters>72.40000152587890625</AltitudeMeters>
            <DistanceMeters>6607.5693128295</DistanceMeters>
          </Trackpoint>
          <Trackpoint>
            <Time>2021-01-13T14:42:36.000Z</Time>
            <Position>
              <LatitudeDegrees>43.34399920888245105743408203125</LatitudeDegrees>
              <LongitudeDegrees>-3.99549859575927257537841796875</LongitudeDegrees>
            </Position>
            <AltitudeMeters>72.59999847412109375</AltitudeMeters>
            <DistanceMeters>6611.6895729808</DistanceMeters>
          </Trackpoint>
          <Trackpoint>
            <Time>2021-01-13T14:42:37.000Z</Time>
            <Position>
              <LatitudeDegrees>43.34400205872952938079833984375</LatitudeDegrees>
              <LongitudeDegrees>-3.995546959340572357177734375</LongitudeDegrees>
            </Position>
            <AltitudeMeters>72.8000030517578125</AltitudeMeters>
            <DistanceMeters>6615.6168329119</DistanceMeters>
          </Trackpoint>
          <Trackpoint>
            <Time>2021-01-13T14:42:39.000Z</Time>
            <Position>
              <LatitudeDegrees>43.344011865556240081787109375</LatitudeDegrees>
              <LongitudeDegrees>-3.99563874118030071258544921875</LongitudeDegrees>
            </Position>
            <AltitudeMeters>73.1999969482421875</AltitudeMeters>
            <DistanceMeters>6623.125747435</DistanceMeters>
          </Trackpoint>
          <Trackpoint>
            <Time>2021-01-13T14:42:41.000Z</Time>
            <Position>
              <LatitudeDegrees>43.34402368403971195220947265625</LatitudeDegrees>
              <LongitudeDegrees>-3.995726667344570159912109375</LongitudeDegrees>
            </Position>
            <AltitudeMeters>73.1999969482421875</AltitudeMeters>
            <DistanceMeters>6630.3633902454</DistanceMeters>
          </Trackpoint>
          <Trackpoint>
            <Time>2021-01-13T14:42:43.000Z</Time>
            <Position>
              <LatitudeDegrees>43.34403743036091327667236328125</LatitudeDegrees>
              <LongitudeDegrees>-3.99581492878496646881103515625</LongitudeDegrees>
            </Position>
            <AltitudeMeters>73.59999847412109375</AltitudeMeters>
            <DistanceMeters>6637.6699497598</DistanceMeters>
          </Trackpoint>
          <Trackpoint>
            <Time>2021-01-13T14:42:44.000Z</Time>
            <Position>
              <LatitudeDegrees>43.3440465666353702545166015625</LatitudeDegrees>
              <LongitudeDegrees>-3.99585968814790248870849609375</LongitudeDegrees>
            </Position>
            <AltitudeMeters>73.8000030517578125</AltitudeMeters>
            <DistanceMeters>6641.4328156708</DistanceMeters>
          </Trackpoint>
          <Trackpoint>
            <Time>2021-01-13T14:42:45.000Z</Time>
            <Position>
              <LatitudeDegrees>43.34405519999563694000244140625</LatitudeDegrees>
              <LongitudeDegrees>-3.995905034244060516357421875</LongitudeDegrees>
            </Position>
            <AltitudeMeters>74.1999969482421875</AltitudeMeters>
            <DistanceMeters>6645.2267505479</DistanceMeters>
          </Trackpoint>
          <Trackpoint>
            <Time>2021-01-13T14:42:47.000Z</Time>
            <Position>
              <LatitudeDegrees>43.34407330490648746490478515625</LatitudeDegrees>
              <LongitudeDegrees>-3.99599363096058368682861328125</LongitudeDegrees>
            </Position>
            <AltitudeMeters>74.59999847412109375</AltitudeMeters>
            <DistanceMeters>6652.6752933364</DistanceMeters>
          </Trackpoint>
          <Trackpoint>
            <Time>2021-01-13T14:42:48.000Z</Time>
            <Position>
              <LatitudeDegrees>43.34408260881900787353515625</LatitudeDegrees>
              <LongitudeDegrees>-3.99603621102869510650634765625</LongitudeDegrees>
            </Position>
            <AltitudeMeters>74.8000030517578125</AltitudeMeters>
            <DistanceMeters>6656.2737832447</DistanceMeters>
          </Trackpoint>
          <Trackpoint>
            <Time>2021-01-13T14:42:49.000Z</Time>
            <Position>
              <LatitudeDegrees>43.3440913259983062744140625</LatitudeDegrees>
              <LongitudeDegrees>-3.99607837200164794921875</LongitudeDegrees>
            </Position>
            <AltitudeMeters>75.1999969482421875</AltitudeMeters>
            <DistanceMeters>6659.8242742975</DistanceMeters>
          </Trackpoint>
          <Trackpoint>
            <Time>2021-01-13T14:42:51.000Z</Time>
            <Position>
              <LatitudeDegrees>43.3441099338233470916748046875</LatitudeDegrees>
              <LongitudeDegrees>-3.996163196861743927001953125</LongitudeDegrees>
            </Position>
            <AltitudeMeters>76</AltitudeMeters>
            <DistanceMeters>6666.9961161408</DistanceMeters>
          </Trackpoint>
          <Trackpoint>
            <Time>2021-01-13T14:42:53.000Z</Time>
            <Position>
              <LatitudeDegrees>43.34413164295256137847900390625</LatitudeDegrees>
              <LongitudeDegrees>-3.99624508805572986602783203125</LongitudeDegrees>
            </Position>
            <AltitudeMeters>77.1999969482421875</AltitudeMeters>
            <DistanceMeters>6674.051169745</DistanceMeters>
          </Trackpoint>
          <Trackpoint>
            <Time>2021-01-13T14:42:55.000Z</Time>
            <Position>
              <LatitudeDegrees>43.34415243007242679595947265625</LatitudeDegrees>
              <LongitudeDegrees>-3.9963256381452083587646484375</LongitudeDegrees>
            </Position>
            <AltitudeMeters>78</AltitudeMeters>
            <DistanceMeters>6680.9692189753</DistanceMeters>
          </Trackpoint>
          <Trackpoint>
            <Time>2021-01-13T14:42:56.000Z</Time>
            <Position>
              <LatitudeDegrees>43.34416265599429607391357421875</LatitudeDegrees>
              <LongitudeDegrees>-3.996365703642368316650390625</LongitudeDegrees>
            </Position>
            <AltitudeMeters>78.40000152587890625</AltitudeMeters>
            <DistanceMeters>6684.4059819856</DistanceMeters>
          </Trackpoint>
          <Trackpoint>
            <Time>2021-01-13T14:42:57.000Z</Time>
            <Position>
              <LatitudeDegrees>43.3441736362874507904052734375</LatitudeDegrees>
              <LongitudeDegrees>-3.99640535004436969757080078125</LongitudeDegrees>
            </Position>
            <AltitudeMeters>78.8000030517578125</AltitudeMeters>
            <DistanceMeters>6687.8388014914</DistanceMeters>
          </Trackpoint>
          <Trackpoint>
            <Time>2021-01-13T14:42:59.000Z</Time>
            <Position>
              <LatitudeDegrees>43.34419668652117252349853515625</LatitudeDegrees>
              <LongitudeDegrees>-3.99648137390613555908203125</LongitudeDegrees>
            </Position>
            <AltitudeMeters>79.59999847412109375</AltitudeMeters>
            <DistanceMeters>6694.5055875429</DistanceMeters>
          </Trackpoint>
          <Trackpoint>
            <Time>2021-01-13T14:43:01.000Z</Time>
            <Position>
              <LatitudeDegrees>43.34421881474554538726806640625</LatitudeDegrees>
              <LongitudeDegrees>-3.99655513465404510498046875</LongitudeDegrees>
            </Position>
            <AltitudeMeters>80.1999969482421875</AltitudeMeters>
            <DistanceMeters>6700.964608612</DistanceMeters>
          </Trackpoint>
          <Trackpoint>
            <Time>2021-01-13T14:43:03.000Z</Time>
            <Position>
              <LatitudeDegrees>43.34424161352217197418212890625</LatitudeDegrees>
              <LongitudeDegrees>-3.9966314099729061126708984375</LongitudeDegrees>
            </Position>
            <AltitudeMeters>80.8000030517578125</AltitudeMeters>
            <DistanceMeters>6707.6401930247</DistanceMeters>
          </Trackpoint>
          <Trackpoint>
            <Time>2021-01-13T14:43:05.000Z</Time>
            <Position>
              <LatitudeDegrees>43.3442671783268451690673828125</LatitudeDegrees>
              <LongitudeDegrees>-3.99670709855854511260986328125</LongitudeDegrees>
            </Position>
            <AltitudeMeters>81.59999847412109375</AltitudeMeters>
            <DistanceMeters>6714.394446958</DistanceMeters>
          </Trackpoint>
          <Trackpoint>
            <Time>2021-01-13T14:43:06.000Z</Time>
            <Position>
              <LatitudeDegrees>43.344280757009983062744140625</LatitudeDegrees>
              <LongitudeDegrees>-3.996745236217975616455078125</LongitudeDegrees>
            </Position>
            <AltitudeMeters>82</AltitudeMeters>
            <DistanceMeters>6717.8312099682</DistanceMeters>
          </Trackpoint>
          <Trackpoint>
            <Time>2021-01-13T14:43:07.000Z</Time>
            <Position>
              <LatitudeDegrees>43.34429525770246982574462890625</LatitudeDegrees>
              <LongitudeDegrees>-3.99678312242031097412109375</LongitudeDegrees>
            </Position>
            <AltitudeMeters>82.1999969482421875</AltitudeMeters>
            <DistanceMeters>6721.295451818</DistanceMeters>
          </Trackpoint>
          <Trackpoint>
            <Time>2021-01-13T14:43:09.000Z</Time>
            <Position>
              <LatitudeDegrees>43.3443214930593967437744140625</LatitudeDegrees>
              <LongitudeDegrees>-3.99686300195753574371337890625</LongitudeDegrees>
            </Position>
            <AltitudeMeters>82.8000030517578125</AltitudeMeters>
            <DistanceMeters>6728.3900727451</DistanceMeters>
          </Trackpoint>
          <Trackpoint>
            <Time>2021-01-13T14:43:10.000Z</Time>
            <Position>
              <LatitudeDegrees>43.34433331154286861419677734375</LatitudeDegrees>
              <LongitudeDegrees>-3.9969043247401714324951171875</LongitudeDegrees>
            </Position>
            <AltitudeMeters>83</AltitudeMeters>
            <DistanceMeters>6731.9847965719</DistanceMeters>
          </Trackpoint>
          <Trackpoint>
            <Time>2021-01-13T14:43:11.000Z</Time>
            <Position>
              <LatitudeDegrees>43.344346471130847930908203125</LatitudeDegrees>
              <LongitudeDegrees>-3.99694464169442653656005859375</LongitudeDegrees>
            </Position>
            <AltitudeMeters>83.40000152587890625</AltitudeMeters>
            <DistanceMeters>6735.5606304949</DistanceMeters>
          </Trackpoint>
          <Trackpoint>
            <Time>2021-01-13T14:43:13.000Z</Time>
            <Position>
              <LatitudeDegrees>43.34437429904937744140625</LatitudeDegrees>
              <LongitudeDegrees>-3.99702326394617557525634765625</LongitudeDegrees>
            </Position>
            <AltitudeMeters>83.8000030517578125</AltitudeMeters>
            <DistanceMeters>6742.6386856029</DistanceMeters>
          </Trackpoint>
          <Trackpoint>
            <Time>2021-01-13T14:43:15.000Z</Time>
            <Position>
              <LatitudeDegrees>43.3444011211395263671875</LatitudeDegrees>
              <LongitudeDegrees>-3.99710188619792461395263671875</LongitudeDegrees>
            </Position>
            <AltitudeMeters>84.1999969482421875</AltitudeMeters>
            <DistanceMeters>6749.6680937075</DistanceMeters>
          </Trackpoint>
          <Trackpoint>
            <Time>2021-01-13T14:43:17.000Z</Time>
            <Position>
              <LatitudeDegrees>43.344425596296787261962890625</LatitudeDegrees>
              <LongitudeDegrees>-3.99718134663999080657958984375</LongitudeDegrees>
            </Position>
            <AltitudeMeters>84.8000030517578125</AltitudeMeters>
            <DistanceMeters>6756.653042027</DistanceMeters>
          </Trackpoint>
          <Trackpoint>
            <Time>2021-01-13T14:43:19.000Z</Time>
            <Position>
              <LatitudeDegrees>43.344451077282428741455078125</LatitudeDegrees>
              <LongitudeDegrees>-3.99726382456719875335693359375</LongitudeDegrees>
            </Position>
            <AltitudeMeters>85.1999969482421875</AltitudeMeters>
            <DistanceMeters>6763.90626375</DistanceMeters>
          </Trackpoint>
          <Trackpoint>
            <Time>2021-01-13T14:43:20.000Z</Time>
            <Position>
              <LatitudeDegrees>43.3444649912416934967041015625</LatitudeDegrees>
              <LongitudeDegrees>-3.9973053149878978729248046875</LongitudeDegrees>
            </Position>
            <AltitudeMeters>85.40000152587890625</AltitudeMeters>
            <DistanceMeters>6767.6037677373</DistanceMeters>
          </Trackpoint>
          <Trackpoint>
            <Time>2021-01-13T14:43:21.000Z</Time>
            <Position>
              <LatitudeDegrees>43.34447798319160938262939453125</LatitudeDegrees>
              <LongitudeDegrees>-3.9973465539515018463134765625</LongitudeDegrees>
            </Position>
            <AltitudeMeters>85.8000030517578125</AltitudeMeters>
            <DistanceMeters>6771.240945488</DistanceMeters>
          </Trackpoint>
          <Trackpoint>
            <Time>2021-01-13T14:43:23.000Z</Time>
            <Position>
              <LatitudeDegrees>43.34450237452983856201171875</LatitudeDegrees>
              <LongitudeDegrees>-3.99742894805967807769775390625</LongitudeDegrees>
            </Position>
            <AltitudeMeters>86.1999969482421875</AltitudeMeters>
            <DistanceMeters>6778.4410613805</DistanceMeters>
          </Trackpoint>
          <Trackpoint>
            <Time>2021-01-13T14:43:25.000Z</Time>
            <Position>
              <LatitudeDegrees>43.34452592767775058746337890625</LatitudeDegrees>
              <LongitudeDegrees>-3.99751142598688602447509765625</LongitudeDegrees>
            </Position>
            <AltitudeMeters>86.59999847412109375</AltitudeMeters>
            <DistanceMeters>6785.6122736454</DistanceMeters>
          </Trackpoint>
          <Trackpoint>
            <Time>2021-01-13T14:43:27.000Z</Time>
            <Position>
              <LatitudeDegrees>43.34454554133117198944091796875</LatitudeDegrees>
              <LongitudeDegrees>-3.99759792722761631011962890625</LongitudeDegrees>
            </Position>
            <AltitudeMeters>87</AltitudeMeters>
            <DistanceMeters>6792.9459722552</DistanceMeters>
          </Trackpoint>
          <Trackpoint>
            <Time>2021-01-13T14:43:29.000Z</Time>
            <Position>
              <LatitudeDegrees>43.3445618860423564910888671875</LatitudeDegrees>
              <LongitudeDegrees>-3.9976848475635051727294921875</LongitudeDegrees>
            </Position>
            <AltitudeMeters>87.40000152587890625</AltitudeMeters>
            <DistanceMeters>6800.2128757942</DistanceMeters>
          </Trackpoint>
          <Trackpoint>
            <Time>2021-01-13T14:43:30.000Z</Time>
            <Position>
              <LatitudeDegrees>43.34456741809844970703125</LatitudeDegrees>
              <LongitudeDegrees>-3.99772885255515575408935546875</LongitudeDegrees>
            </Position>
            <AltitudeMeters>87.59999847412109375</AltitudeMeters>
            <DistanceMeters>6803.8276400485</DistanceMeters>
          </Trackpoint>
          <Trackpoint>
            <Time>2021-01-13T14:43:31.000Z</Time>
            <Position>
              <LatitudeDegrees>43.3445719443261623382568359375</LatitudeDegrees>
              <LongitudeDegrees>-3.99777352809906005859375</LongitudeDegrees>
            </Position>
            <AltitudeMeters>87.8000030517578125</AltitudeMeters>
            <DistanceMeters>6807.4784471964</DistanceMeters>
          </Trackpoint>
          <Trackpoint>
            <Time>2021-01-13T14:43:33.000Z</Time>
            <Position>
              <LatitudeDegrees>43.34458024241030216217041015625</LatitudeDegrees>
              <LongitudeDegrees>-3.99786229245364665985107421875</LongitudeDegrees>
            </Position>
            <AltitudeMeters>88.40000152587890625</AltitudeMeters>
            <DistanceMeters>6814.7229488558</DistanceMeters>
          </Trackpoint>
          <Trackpoint>
            <Time>2021-01-13T14:43:35.000Z</Time>
            <Position>
              <LatitudeDegrees>43.3445806615054607391357421875</LatitudeDegrees>
              <LongitudeDegrees>-3.99795197881758213043212890625</LongitudeDegrees>
            </Position>
            <AltitudeMeters>88.59999847412109375</AltitudeMeters>
            <DistanceMeters>6821.9823927826</DistanceMeters>
          </Trackpoint>
          <Trackpoint>
            <Time>2021-01-13T14:43:37.000Z</Time>
            <Position>
              <LatitudeDegrees>43.3445752970874309539794921875</LatitudeDegrees>
              <LongitudeDegrees>-3.99804049171507358551025390625</LongitudeDegrees>
            </Position>
            <AltitudeMeters>89</AltitudeMeters>
            <DistanceMeters>6829.1718404363</DistanceMeters>
          </Trackpoint>
          <Trackpoint>
            <Time>2021-01-13T14:43:39.000Z</Time>
            <Position>
              <LatitudeDegrees>43.3445662446320056915283203125</LatitudeDegrees>
              <LongitudeDegrees>-3.99812565185129642486572265625</LongitudeDegrees>
            </Position>
            <AltitudeMeters>89.40000152587890625</AltitudeMeters>
            <DistanceMeters>6836.138018069</DistanceMeters>
          </Trackpoint>
          <Trackpoint>
            <Time>2021-01-13T14:43:41.000Z</Time>
            <Position>
              <LatitudeDegrees>43.34455476142466068267822265625</LatitudeDegrees>
              <LongitudeDegrees>-3.9982108958065509796142578125</LongitudeDegrees>
            </Position>
            <AltitudeMeters>89.8000030517578125</AltitudeMeters>
            <DistanceMeters>6843.1545682735</DistanceMeters>
          </Trackpoint>
          <Trackpoint>
            <Time>2021-01-13T14:43:43.000Z</Time>
            <Position>
              <LatitudeDegrees>43.34454168565571308135986328125</LatitudeDegrees>
              <LongitudeDegrees>-3.99829764850437641143798828125</LongitudeDegrees>
            </Position>
            <AltitudeMeters>90</AltitudeMeters>
            <DistanceMeters>6850.3264101167</DistanceMeters>
          </Trackpoint>
          <Trackpoint>
            <Time>2021-01-13T14:43:45.000Z</Time>
            <Position>
              <LatitudeDegrees>43.34452659823000431060791015625</LatitudeDegrees>
              <LongitudeDegrees>-3.99838532321155071258544921875</LongitudeDegrees>
            </Position>
            <AltitudeMeters>90.59999847412109375</AltitudeMeters>
            <DistanceMeters>6857.6181239141</DistanceMeters>
          </Trackpoint>
          <Trackpoint>
            <Time>2021-01-13T14:43:46.000Z</Time>
            <Position>
              <LatitudeDegrees>43.3445177972316741943359375</LatitudeDegrees>
              <LongitudeDegrees>-3.9984284900128841400146484375</LongitudeDegrees>
            </Position>
            <AltitudeMeters>90.8000030517578125</AltitudeMeters>
            <DistanceMeters>6861.2466017568</DistanceMeters>
          </Trackpoint>
          <Trackpoint>
            <Time>2021-01-13T14:43:47.000Z</Time>
            <Position>
              <LatitudeDegrees>43.3445082418620586395263671875</LatitudeDegrees>
              <LongitudeDegrees>-3.99847023189067840576171875</LongitudeDegrees>
            </Position>
            <AltitudeMeters>91</AltitudeMeters>
            <DistanceMeters>6864.7881799616</DistanceMeters>
          </Trackpoint>
          <Trackpoint>
            <Time>2021-01-13T14:43:49.000Z</Time>
            <Position>
              <LatitudeDegrees>43.34448971785604953765869140625</LatitudeDegrees>
              <LongitudeDegrees>-3.99855447001755237579345703125</LongitudeDegrees>
            </Position>
            <AltitudeMeters>91.40000152587890625</AltitudeMeters>
            <DistanceMeters>6871.912015278</DistanceMeters>
          </Trackpoint>
          <Trackpoint>
            <Time>2021-01-13T14:43:51.000Z</Time>
            <Position>
              <LatitudeDegrees>43.3444668352603912353515625</LatitudeDegrees>
              <LongitudeDegrees>-3.99863711558282375335693359375</LongitudeDegrees>
            </Position>
            <AltitudeMeters>91.8000030517578125</AltitudeMeters>
            <DistanceMeters>6879.0699936059</DistanceMeters>
          </Trackpoint>
          <Trackpoint>
            <Time>2021-01-13T14:43:52.000Z</Time>
            <Position>
              <LatitudeDegrees>43.344452418386936187744140625</LatitudeDegrees>
              <LongitudeDegrees>-3.99867868982255458831787109375</LongitudeDegrees>
            </Position>
            <AltitudeMeters>92</AltitudeMeters>
            <DistanceMeters>6882.7991111588</DistanceMeters>
          </Trackpoint>
          <Trackpoint>
            <Time>2021-01-13T14:43:53.000Z</Time>
            <Position>
              <LatitudeDegrees>43.3444368280470371246337890625</LatitudeDegrees>
              <LongitudeDegrees>-3.99872076697647571563720703125</LongitudeDegrees>
            </Position>
            <AltitudeMeters>92.40000152587890625</AltitudeMeters>
            <DistanceMeters>6886.6215009462</DistanceMeters>
          </Trackpoint>
          <Trackpoint>
            <Time>2021-01-13T14:43:55.000Z</Time>
            <Position>
              <LatitudeDegrees>43.3444024622440338134765625</LatitudeDegrees>
              <LongitudeDegrees>-3.9988036639988422393798828125</LongitudeDegrees>
            </Position>
            <AltitudeMeters>92.8000030517578125</AltitudeMeters>
            <DistanceMeters>6894.3450160131</DistanceMeters>
          </Trackpoint>
          <Trackpoint>
            <Time>2021-01-13T14:43:56.000Z</Time>
            <Position>
              <LatitudeDegrees>43.34438310004770755767822265625</LatitudeDegrees>
              <LongitudeDegrees>-3.9988435618579387664794921875</LongitudeDegrees>
            </Position>
            <AltitudeMeters>92.8000030517578125</AltitudeMeters>
            <DistanceMeters>6898.2283428937</DistanceMeters>
          </Trackpoint>
          <Trackpoint>
            <Time>2021-01-13T14:43:57.000Z</Time>
            <Position>
              <LatitudeDegrees>43.344362564384937286376953125</LatitudeDegrees>
              <LongitudeDegrees>-3.99888270534574985504150390625</LongitudeDegrees>
            </Position>
            <AltitudeMeters>93.1999969482421875</AltitudeMeters>
            <DistanceMeters>6902.1348540213</DistanceMeters>
          </Trackpoint>
          <Trackpoint>
            <Time>2021-01-13T14:43:59.000Z</Time>
            <Position>
              <LatitudeDegrees>43.3443188108503818511962890625</LatitudeDegrees>
              <LongitudeDegrees>-3.99895914830267429351806640625</LongitudeDegrees>
            </Position>
            <AltitudeMeters>93.59999847412109375</AltitudeMeters>
            <DistanceMeters>6910.0088939542</DistanceMeters>
          </Trackpoint>
          <Trackpoint>
            <Time>2021-01-13T14:44:01.000Z</Time>
            <Position>
              <LatitudeDegrees>43.34427128545939922332763671875</LatitudeDegrees>
              <LongitudeDegrees>-3.99903190322220325469970703125</LongitudeDegrees>
            </Position>
            <AltitudeMeters>94</AltitudeMeters>
            <DistanceMeters>6917.9246820037</DistanceMeters>
          </Trackpoint>
          <Trackpoint>
            <Time>2021-01-13T14:44:03.000Z</Time>
            <Position>
              <LatitudeDegrees>43.34421965293586254119873046875</LatitudeDegrees>
              <LongitudeDegrees>-3.99910147301852703094482421875</LongitudeDegrees>
            </Position>
            <AltitudeMeters>94.40000152587890625</AltitudeMeters>
            <DistanceMeters>6925.9711500551</DistanceMeters>
          </Trackpoint>
          <Trackpoint>
            <Time>2021-01-13T14:44:05.000Z</Time>
            <Position>
              <LatitudeDegrees>43.34416416473686695098876953125</LatitudeDegrees>
              <LongitudeDegrees>-3.9991647563874721527099609375</LongitudeDegrees>
            </Position>
            <AltitudeMeters>94.59999847412109375</AltitudeMeters>
            <DistanceMeters>6933.9951418949</DistanceMeters>
          </Trackpoint>
          <Trackpoint>
            <Time>2021-01-13T14:44:07.000Z</Time>
            <Position>
              <LatitudeDegrees>43.3441065810620784759521484375</LatitudeDegrees>
              <LongitudeDegrees>-3.999222926795482635498046875</LongitudeDegrees>
            </Position>
            <AltitudeMeters>94.8000030517578125</AltitudeMeters>
            <DistanceMeters>6941.9484861909</DistanceMeters>
          </Trackpoint>
          <Trackpoint>
            <Time>2021-01-13T14:44:09.000Z</Time>
            <Position>
              <LatitudeDegrees>43.34405084140598773956298828125</LatitudeDegrees>
              <LongitudeDegrees>-3.9992827735841274261474609375</LongitudeDegrees>
            </Position>
            <AltitudeMeters>94.8000030517578125</AltitudeMeters>
            <DistanceMeters>6949.8202321572</DistanceMeters>
          </Trackpoint>
          <Trackpoint>
            <Time>2021-01-13T14:44:11.000Z</Time>
            <Position>
              <LatitudeDegrees>43.3439912460744380950927734375</LatitudeDegrees>
              <LongitudeDegrees>-3.99934002198278903961181640625</LongitudeDegrees>
            </Position>
            <AltitudeMeters>95</AltitudeMeters>
            <DistanceMeters>6957.9114653277</DistanceMeters>
          </Trackpoint>
          <Trackpoint>
            <Time>2021-01-13T14:44:13.000Z</Time>
            <Position>
              <LatitudeDegrees>43.34393081255257129669189453125</LatitudeDegrees>
              <LongitudeDegrees>-3.99939618073403835296630859375</LongitudeDegrees>
            </Position>
            <AltitudeMeters>95.40000152587890625</AltitudeMeters>
            <DistanceMeters>6966.0299952417</DistanceMeters>
          </Trackpoint>
          <Trackpoint>
            <Time>2021-01-13T14:44:15.000Z</Time>
            <Position>
              <LatitudeDegrees>43.34387071430683135986328125</LatitudeDegrees>
              <LongitudeDegrees>-3.9994512498378753662109375</LongitudeDegrees>
            </Position>
            <AltitudeMeters>95.40000152587890625</AltitudeMeters>
            <DistanceMeters>6974.0680420788</DistanceMeters>
          </Trackpoint>
          <Trackpoint>
            <Time>2021-01-13T14:44:17.000Z</Time>
            <Position>
              <LatitudeDegrees>43.34381195716559886932373046875</LatitudeDegrees>
              <LongitudeDegrees>-3.99950514547526836395263671875</LongitudeDegrees>
            </Position>
            <AltitudeMeters>95.59999847412109375</AltitudeMeters>
            <DistanceMeters>6981.9294569122</DistanceMeters>
          </Trackpoint>
          <Trackpoint>
            <Time>2021-01-13T14:44:19.000Z</Time>
            <Position>
              <LatitudeDegrees>43.34375328384339809417724609375</LatitudeDegrees>
              <LongitudeDegrees>-3.999556191265583038330078125</LongitudeDegrees>
            </Position>
            <AltitudeMeters>95.8000030517578125</AltitudeMeters>
            <DistanceMeters>6989.657062979</DistanceMeters>
          </Trackpoint>
          <Trackpoint>
            <Time>2021-01-13T14:44:20.000Z</Time>
            <Position>
              <LatitudeDegrees>43.3437233604490756988525390625</LatitudeDegrees>
              <LongitudeDegrees>-3.99958200752735137939453125</LongitudeDegrees>
            </Position>
            <AltitudeMeters>96.1999969482421875</AltitudeMeters>
            <DistanceMeters>6993.5889188858</DistanceMeters>
          </Trackpoint>
          <Trackpoint>
            <Time>2021-01-13T14:44:21.000Z</Time>
            <Position>
              <LatitudeDegrees>43.3436930179595947265625</LatitudeDegrees>
              <LongitudeDegrees>-3.999609164893627166748046875</LongitudeDegrees>
            </Position>
            <AltitudeMeters>96.1999969482421875</AltitudeMeters>
            <DistanceMeters>6997.6183205097</DistanceMeters>
          </Trackpoint>
          <Trackpoint>
            <Time>2021-01-13T14:44:23.000Z</Time>
            <Position>
              <LatitudeDegrees>43.3436338417232036590576171875</LatitudeDegrees>
              <LongitudeDegrees>-3.9996649883687496185302734375</LongitudeDegrees>
            </Position>
            <AltitudeMeters>96.59999847412109375</AltitudeMeters>
            <DistanceMeters>7005.6056536113</DistanceMeters>
          </Trackpoint>
          <Trackpoint>
            <Time>2021-01-13T14:44:25.000Z</Time>
            <Position>
              <LatitudeDegrees>43.34357374347746372222900390625</LatitudeDegrees>
              <LongitudeDegrees>-3.99971745908260345458984375</LongitudeDegrees>
            </Position>
            <AltitudeMeters>96.8000030517578125</AltitudeMeters>
            <DistanceMeters>7013.5299928009</DistanceMeters>
          </Trackpoint>
          <Trackpoint>
            <Time>2021-01-13T14:44:27.000Z</Time>
            <Position>
              <LatitudeDegrees>43.343513309955596923828125</LatitudeDegrees>
              <LongitudeDegrees>-3.99977034889161586761474609375</LongitudeDegrees>
            </Position>
            <AltitudeMeters>97.1999969482421875</AltitudeMeters>
            <DistanceMeters>7021.5031815084</DistanceMeters>
          </Trackpoint>
          <Trackpoint>
            <Time>2021-01-13T14:44:29.000Z</Time>
            <Position>
              <LatitudeDegrees>43.343453966081142425537109375</LatitudeDegrees>
              <LongitudeDegrees>-3.99982608854770660400390625</LongitudeDegrees>
            </Position>
            <AltitudeMeters>97.40000152587890625</AltitudeMeters>
            <DistanceMeters>7029.5018121165</DistanceMeters>
          </Trackpoint>
          <Trackpoint>
            <Time>2021-01-13T14:44:31.000Z</Time>
            <Position>
              <LatitudeDegrees>43.34339730441570281982421875</LatitudeDegrees>
              <LongitudeDegrees>-3.99988769553601741790771484375</LongitudeDegrees>
            </Position>
            <AltitudeMeters>97.59999847412109375</AltitudeMeters>
            <DistanceMeters>7037.5415439022</DistanceMeters>
          </Trackpoint>
          <Trackpoint>
            <Time>2021-01-13T14:44:33.000Z</Time>
            <Position>
              <LatitudeDegrees>43.3433461748063564300537109375</LatitudeDegrees>
              <LongitudeDegrees>-3.9999568462371826171875</LongitudeDegrees>
            </Position>
            <AltitudeMeters>97.8000030517578125</AltitudeMeters>
            <DistanceMeters>7045.5237879093</DistanceMeters>
          </Trackpoint>
          <Trackpoint>
            <Time>2021-01-13T14:44:35.000Z</Time>
            <Position>
              <LatitudeDegrees>43.3432982303202152252197265625</LatitudeDegrees>
              <LongitudeDegrees>-4.0000301040709018707275390625</LongitudeDegrees>
            </Position>
            <AltitudeMeters>98.1999969482421875</AltitudeMeters>
            <DistanceMeters>7053.5015055514</DistanceMeters>
          </Trackpoint>
          <Trackpoint>
            <Time>2021-01-13T14:44:37.000Z</Time>
            <Position>
              <LatitudeDegrees>43.34325187839567661285400390625</LatitudeDegrees>
              <LongitudeDegrees>-4.00010864250361919403076171875</LongitudeDegrees>
            </Position>
            <AltitudeMeters>98.8000030517578125</AltitudeMeters>
            <DistanceMeters>7061.6892578388</DistanceMeters>
          </Trackpoint>
          <Trackpoint>
            <Time>2021-01-13T14:44:39.000Z</Time>
            <Position>
              <LatitudeDegrees>43.34321223199367523193359375</LatitudeDegrees>
              <LongitudeDegrees>-4.00019497610628604888916015625</LongitudeDegrees>
            </Position>
            <AltitudeMeters>99.1999969482421875</AltitudeMeters>
            <DistanceMeters>7069.954943435</DistanceMeters>
          </Trackpoint>
          <Trackpoint>
            <Time>2021-01-13T14:44:41.000Z</Time>
            <Position>
              <LatitudeDegrees>43.34317711181938648223876953125</LatitudeDegrees>
              <LongitudeDegrees>-4.0002839080989360809326171875</LongitudeDegrees>
            </Position>
            <AltitudeMeters>99.40000152587890625</AltitudeMeters>
            <DistanceMeters>7078.147106039</DistanceMeters>
          </Trackpoint>
          <Trackpoint>
            <Time>2021-01-13T14:44:42.000Z</Time>
            <Position>
              <LatitudeDegrees>43.3431632816791534423828125</LatitudeDegrees>
              <LongitudeDegrees>-4.00032942183315753936767578125</LongitudeDegrees>
            </Position>
            <AltitudeMeters>99.59999847412109375</AltitudeMeters>
            <DistanceMeters>7082.1393591527</DistanceMeters>
          </Trackpoint>
          <Trackpoint>
            <Time>2021-01-13T14:44:43.000Z</Time>
            <Position>
              <LatitudeDegrees>43.34315096028149127960205078125</LatitudeDegrees>
              <LongitudeDegrees>-4.00037568993866443634033203125</LongitudeDegrees>
            </Position>
            <AltitudeMeters>99.8000030517578125</AltitudeMeters>
            <DistanceMeters>7086.1282179738</DistanceMeters>
          </Trackpoint>
          <Trackpoint>
            <Time>2021-01-13T14:44:45.000Z</Time>
            <Position>
              <LatitudeDegrees>43.34312497638165950775146484375</LatitudeDegrees>
              <LongitudeDegrees>-4.00046889670193195343017578125</LongitudeDegrees>
            </Position>
            <AltitudeMeters>100.1999969482421875</AltitudeMeters>
            <DistanceMeters>7094.2071654632</DistanceMeters>
          </Trackpoint>
          <Trackpoint>
            <Time>2021-01-13T14:44:47.000Z</Time>
            <Position>
              <LatitudeDegrees>43.3431004174053668975830078125</LatitudeDegrees>
              <LongitudeDegrees>-4.00056176818907260894775390625</LongitudeDegrees>
            </Position>
            <AltitudeMeters>100.40000152587890625</AltitudeMeters>
            <DistanceMeters>7102.2063605278</DistanceMeters>
          </Trackpoint>
          <Trackpoint>
            <Time>2021-01-13T14:44:48.000Z</Time>
            <Position>
              <LatitudeDegrees>43.34308977238833904266357421875</LatitudeDegrees>
              <LongitudeDegrees>-4.00060786865651607513427734375</LongitudeDegrees>
            </Position>
            <AltitudeMeters>100.59999847412109375</AltitudeMeters>
            <DistanceMeters>7106.1221069192</DistanceMeters>
          </Trackpoint>
          <Trackpoint>
            <Time>2021-01-13T14:44:49.000Z</Time>
            <Position>
              <LatitudeDegrees>43.34307937882840633392333984375</LatitudeDegrees>
              <LongitudeDegrees>-4.00065355002880096435546875</LongitudeDegrees>
            </Position>
            <AltitudeMeters>100.8000030517578125</AltitudeMeters>
            <DistanceMeters>7109.9961212519</DistanceMeters>
          </Trackpoint>
          <Trackpoint>
            <Time>2021-01-13T14:44:51.000Z</Time>
            <Position>
              <LatitudeDegrees>43.34305725060403347015380859375</LatitudeDegrees>
              <LongitudeDegrees>-4.000745080411434173583984375</LongitudeDegrees>
            </Position>
            <AltitudeMeters>101</AltitudeMeters>
            <DistanceMeters>7117.8045190485</DistanceMeters>
          </Trackpoint>
          <Trackpoint>
            <Time>2021-01-13T14:44:53.000Z</Time>
            <Position>
              <LatitudeDegrees>43.343038894236087799072265625</LatitudeDegrees>
              <LongitudeDegrees>-4.000840969383716583251953125</LongitudeDegrees>
            </Position>
            <AltitudeMeters>101.40000152587890625</AltitudeMeters>
            <DistanceMeters>7125.8307613418</DistanceMeters>
          </Trackpoint>
          <Trackpoint>
            <Time>2021-01-13T14:44:54.000Z</Time>
            <Position>
              <LatitudeDegrees>43.34303160198032855987548828125</LatitudeDegrees>
              <LongitudeDegrees>-4.00089000351727008819580078125</LongitudeDegrees>
            </Position>
            <AltitudeMeters>101.8000030517578125</AltitudeMeters>
            <DistanceMeters>7129.8802821557</DistanceMeters>
          </Trackpoint>
          <Trackpoint>
            <Time>2021-01-13T14:44:55.000Z</Time>
            <Position>
              <LatitudeDegrees>43.34302472881972789764404296875</LatitudeDegrees>
              <LongitudeDegrees>-4.00093920528888702392578125</LongitudeDegrees>
            </Position>
            <AltitudeMeters>102</AltitudeMeters>
            <DistanceMeters>7133.9342603411</DistanceMeters>
          </Trackpoint>
          <Trackpoint>
            <Time>2021-01-13T14:44:57.000Z</Time>
            <Position>
              <LatitudeDegrees>43.3430103957653045654296875</LatitudeDegrees>
              <LongitudeDegrees>-4.00103576481342315673828125</LongitudeDegrees>
            </Position>
            <AltitudeMeters>102.1999969482421875</AltitudeMeters>
            <DistanceMeters>7141.911412007</DistanceMeters>
          </Trackpoint>
          <Trackpoint>
            <Time>2021-01-13T14:44:59.000Z</Time>
            <Position>
              <LatitudeDegrees>43.3430015109479427337646484375</LatitudeDegrees>
              <LongitudeDegrees>-4.0011318214237689971923828125</LongitudeDegrees>
            </Position>
            <AltitudeMeters>102.40000152587890625</AltitudeMeters>
            <DistanceMeters>7149.7498200166</DistanceMeters>
          </Trackpoint>
          <Trackpoint>
            <Time>2021-01-13T14:45:01.000Z</Time>
            <Position>
              <LatitudeDegrees>43.3429974876344203948974609375</LatitudeDegrees>
              <LongitudeDegrees>-4.0012293867766857147216796875</LongitudeDegrees>
            </Position>
            <AltitudeMeters>102.8000030517578125</AltitudeMeters>
            <DistanceMeters>7157.6593313545</DistanceMeters>
          </Trackpoint>
          <Trackpoint>
            <Time>2021-01-13T14:45:03.000Z</Time>
            <Position>
              <LatitudeDegrees>43.34299773909151554107666015625</LatitudeDegrees>
              <LongitudeDegrees>-4.0013276226818561553955078125</LongitudeDegrees>
            </Position>
            <AltitudeMeters>103.1999969482421875</AltitudeMeters>
            <DistanceMeters>7165.6109723965</DistanceMeters>
          </Trackpoint>
          <Trackpoint>
            <Time>2021-01-13T14:45:05.000Z</Time>
            <Position>
              <LatitudeDegrees>43.343003690242767333984375</LatitudeDegrees>
              <LongitudeDegrees>-4.00142795406281948089599609375</LongitudeDegrees>
            </Position>
            <AltitudeMeters>103.40000152587890625</AltitudeMeters>
            <DistanceMeters>7173.7594785229</DistanceMeters>
          </Trackpoint>
          <Trackpoint>
            <Time>2021-01-13T14:45:06.000Z</Time>
            <Position>
              <LatitudeDegrees>43.3430085517466068267822265625</LatitudeDegrees>
              <LongitudeDegrees>-4.001477994024753570556640625</LongitudeDegrees>
            </Position>
            <AltitudeMeters>103.59999847412109375</AltitudeMeters>
            <DistanceMeters>7177.8467320532</DistanceMeters>
          </Trackpoint>
          <Trackpoint>
            <Time>2021-01-13T14:45:07.000Z</Time>
            <Position>
              <LatitudeDegrees>43.34301349706947803497314453125</LatitudeDegrees>
              <LongitudeDegrees>-4.00152803398668766021728515625</LongitudeDegrees>
            </Position>
            <AltitudeMeters>103.8000030517578125</AltitudeMeters>
            <DistanceMeters>7181.936194313</DistanceMeters>
          </Trackpoint>
          <Trackpoint>
            <Time>2021-01-13T14:45:08.000Z</Time>
            <Position>
              <LatitudeDegrees>43.34301986731588840484619140625</LatitudeDegrees>
              <LongitudeDegrees>-4.001577235758304595947265625</LongitudeDegrees>
            </Position>
            <AltitudeMeters>104</AltitudeMeters>
            <DistanceMeters>7185.9812528437</DistanceMeters>
          </Trackpoint>
          <Trackpoint>
            <Time>2021-01-13T14:45:09.000Z</Time>
            <Position>
              <LatitudeDegrees>43.34302674047648906707763671875</LatitudeDegrees>
              <LongitudeDegrees>-4.00162576697766780853271484375</LongitudeDegrees>
            </Position>
            <AltitudeMeters>104</AltitudeMeters>
            <DistanceMeters>7189.9836715638</DistanceMeters>
          </Trackpoint>
          <Trackpoint>
            <Time>2021-01-13T14:45:11.000Z</Time>
            <Position>
              <LatitudeDegrees>43.34304518066346645355224609375</LatitudeDegrees>
              <LongitudeDegrees>-4.0017242543399333953857421875</LongitudeDegrees>
            </Position>
            <AltitudeMeters>104.1999969482421875</AltitudeMeters>
            <DistanceMeters>7198.2154206875</DistanceMeters>
          </Trackpoint>
          <Trackpoint>
            <Time>2021-01-13T14:45:13.000Z</Time>
            <Position>
              <LatitudeDegrees>43.34306831471621990203857421875</LatitudeDegrees>
              <LongitudeDegrees>-4.00182173587381839752197265625</LongitudeDegrees>
            </Position>
            <AltitudeMeters>104.59999847412109375</AltitudeMeters>
            <DistanceMeters>7206.5154479882</DistanceMeters>
          </Trackpoint>
          <Trackpoint>
            <Time>2021-01-13T14:45:15.000Z</Time>
            <Position>
              <LatitudeDegrees>43.34309496916830539703369140625</LatitudeDegrees>
              <LongitudeDegrees>-4.001915194094181060791015625</LongitudeDegrees>
            </Position>
            <AltitudeMeters>105</AltitudeMeters>
            <DistanceMeters>7214.6423157188</DistanceMeters>
          </Trackpoint>
          <Trackpoint>
            <Time>2021-01-13T14:45:17.000Z</Time>
            <Position>
              <LatitudeDegrees>43.3431225456297397613525390625</LatitudeDegrees>
              <LongitudeDegrees>-4.0020075626671314239501953125</LongitudeDegrees>
            </Position>
            <AltitudeMeters>105.40000152587890625</AltitudeMeters>
            <DistanceMeters>7222.7251743141</DistanceMeters>
          </Trackpoint>
          <Trackpoint>
            <Time>2021-01-13T14:45:19.000Z</Time>
            <Position>
              <LatitudeDegrees>43.3431466855108737945556640625</LatitudeDegrees>
              <LongitudeDegrees>-4.00210537947714328765869140625</LongitudeDegrees>
            </Position>
            <AltitudeMeters>105.8000030517578125</AltitudeMeters>
            <DistanceMeters>7231.0859052482</DistanceMeters>
          </Trackpoint>
          <Trackpoint>
            <Time>2021-01-13T14:45:20.000Z</Time>
            <Position>
              <LatitudeDegrees>43.34315766580402851104736328125</LatitudeDegrees>
              <LongitudeDegrees>-4.00215600617229938507080078125</LongitudeDegrees>
            </Position>
            <AltitudeMeters>106</AltitudeMeters>
            <DistanceMeters>7235.3631631169</DistanceMeters>
          </Trackpoint>
          <Trackpoint>
            <Time>2021-01-13T14:45:21.000Z</Time>
            <Position>
              <LatitudeDegrees>43.34316663444042205810546875</LatitudeDegrees>
              <LongitudeDegrees>-4.00220847688615322113037109375</LongitudeDegrees>
            </Position>
            <AltitudeMeters>106.40000152587890625</AltitudeMeters>
            <DistanceMeters>7239.7261209604</DistanceMeters>
          </Trackpoint>
          <Trackpoint>
            <Time>2021-01-13T14:45:23.000Z</Time>
            <Position>
              <LatitudeDegrees>43.34317912347614765167236328125</LatitudeDegrees>
              <LongitudeDegrees>-4.00231827981770038604736328125</LongitudeDegrees>
            </Position>
            <AltitudeMeters>106.59999847412109375</AltitudeMeters>
            <DistanceMeters>7248.7220947871</DistanceMeters>
          </Trackpoint>
          <Trackpoint>
            <Time>2021-01-13T14:45:24.000Z</Time>
            <Position>
              <LatitudeDegrees>43.34318499080836772918701171875</LatitudeDegrees>
              <LongitudeDegrees>-4.00237510912120342254638671875</LongitudeDegrees>
            </Position>
            <AltitudeMeters>106.59999847412109375</AltitudeMeters>
            <DistanceMeters>7253.3677252826</DistanceMeters>
          </Trackpoint>
          <Trackpoint>
            <Time>2021-01-13T14:45:25.000Z</Time>
            <Position>
              <LatitudeDegrees>43.3431912772357463836669921875</LatitudeDegrees>
              <LongitudeDegrees>-4.00243311189115047454833984375</LongitudeDegrees>
            </Position>
            <AltitudeMeters>106.8000030517578125</AltitudeMeters>
            <DistanceMeters>7258.1133559732</DistanceMeters>
          </Trackpoint>
          <Trackpoint>
            <Time>2021-01-13T14:45:26.000Z</Time>
            <Position>
              <LatitudeDegrees>43.3431966416537761688232421875</LatitudeDegrees>
              <LongitudeDegrees>-4.0024928748607635498046875</LongitudeDegrees>
            </Position>
            <AltitudeMeters>107</AltitudeMeters>
            <DistanceMeters>7262.9875873099</DistanceMeters>
          </Trackpoint>
          <Trackpoint>
            <Time>2021-01-13T14:45:27.000Z</Time>
            <Position>
              <LatitudeDegrees>43.34320158697664737701416015625</LatitudeDegrees>
              <LongitudeDegrees>-4.00255414657294750213623046875</LongitudeDegrees>
            </Position>
            <AltitudeMeters>107.1999969482421875</AltitudeMeters>
            <DistanceMeters>7267.9780733416</DistanceMeters>
          </Trackpoint>
          <Trackpoint>
            <Time>2021-01-13T14:45:29.000Z</Time>
            <Position>
              <LatitudeDegrees>43.34321491420269012451171875</LatitudeDegrees>
              <LongitudeDegrees>-4.0026761032640933990478515625</LongitudeDegrees>
            </Position>
            <AltitudeMeters>107.59999847412109375</AltitudeMeters>
            <DistanceMeters>7277.9608546993</DistanceMeters>
          </Trackpoint>
          <Trackpoint>
            <Time>2021-01-13T14:45:31.000Z</Time>
            <Position>
              <LatitudeDegrees>43.34322991780936717987060546875</LatitudeDegrees>
              <LongitudeDegrees>-4.00279604829847812652587890625</LongitudeDegrees>
            </Position>
            <AltitudeMeters>107.8000030517578125</AltitudeMeters>
            <DistanceMeters>7287.8125175853</DistanceMeters>
          </Trackpoint>
          <Trackpoint>
            <Time>2021-01-13T14:45:33.000Z</Time>
            <Position>
              <LatitudeDegrees>43.34324819035828113555908203125</LatitudeDegrees>
              <LongitudeDegrees>-4.002913646399974822998046875</LongitudeDegrees>
            </Position>
            <AltitudeMeters>108</AltitudeMeters>
            <DistanceMeters>7297.5461480514</DistanceMeters>
          </Trackpoint>
          <Trackpoint>
            <Time>2021-01-13T14:45:34.000Z</Time>
            <Position>
              <LatitudeDegrees>43.34326093085110187530517578125</LatitudeDegrees>
              <LongitudeDegrees>-4.00297055952250957489013671875</LongitudeDegrees>
            </Position>
            <AltitudeMeters>108</AltitudeMeters>
            <DistanceMeters>7302.3654173543</DistanceMeters>
          </Trackpoint>
          <Trackpoint>
            <Time>2021-01-13T14:45:35.000Z</Time>
            <Position>
              <LatitudeDegrees>43.34327652119100093841552734375</LatitudeDegrees>
              <LongitudeDegrees>-4.00302671827375888824462890625</LongitudeDegrees>
            </Position>
            <AltitudeMeters>108</AltitudeMeters>
            <DistanceMeters>7307.2313047796</DistanceMeters>
          </Trackpoint>
          <Trackpoint>
            <Time>2021-01-13T14:45:37.000Z</Time>
            <Position>
              <LatitudeDegrees>43.34330988116562366485595703125</LatitudeDegrees>
              <LongitudeDegrees>-4.00313752703368663787841796875</LongitudeDegrees>
            </Position>
            <AltitudeMeters>108.1999969482421875</AltitudeMeters>
            <DistanceMeters>7316.9389243524</DistanceMeters>
          </Trackpoint>
          <Trackpoint>
            <Time>2021-01-13T14:45:39.000Z</Time>
            <Position>
              <LatitudeDegrees>43.34334391169250011444091796875</LatitudeDegrees>
              <LongitudeDegrees>-4.00324523448944091796875</LongitudeDegrees>
            </Position>
            <AltitudeMeters>108.1999969482421875</AltitudeMeters>
            <DistanceMeters>7326.4444461633</DistanceMeters>
          </Trackpoint>
          <Trackpoint>
            <Time>2021-01-13T14:45:40.000Z</Time>
            <Position>
              <LatitudeDegrees>43.343362100422382354736328125</LatitudeDegrees>
              <LongitudeDegrees>-4.003297872841358184814453125</LongitudeDegrees>
            </Position>
            <AltitudeMeters>108.1999969482421875</AltitudeMeters>
            <DistanceMeters>7331.1614482152</DistanceMeters>
          </Trackpoint>
          <Trackpoint>
            <Time>2021-01-13T14:45:41.000Z</Time>
            <Position>
              <LatitudeDegrees>43.34338179789483547210693359375</LatitudeDegrees>
              <LongitudeDegrees>-4.00335042737424373626708984375</LongitudeDegrees>
            </Position>
            <AltitudeMeters>108.1999969482421875</AltitudeMeters>
            <DistanceMeters>7335.9468712751</DistanceMeters>
          </Trackpoint>
          <Trackpoint>
            <Time>2021-01-13T14:45:43.000Z</Time>
            <Position>
              <LatitudeDegrees>43.343426473438739776611328125</LatitudeDegrees>
              <LongitudeDegrees>-4.0034557878971099853515625</LongitudeDegrees>
            </Position>
            <AltitudeMeters>108.1999969482421875</AltitudeMeters>
            <DistanceMeters>7345.8191362158</DistanceMeters>
          </Trackpoint>
          <Trackpoint>
            <Time>2021-01-13T14:45:45.000Z</Time>
            <Position>
              <LatitudeDegrees>43.3434784412384033203125</LatitudeDegrees>
              <LongitudeDegrees>-4.00356098078191280364990234375</LongitudeDegrees>
            </Position>
            <AltitudeMeters>108.40000152587890625</AltitudeMeters>
            <DistanceMeters>7356.1127709963</DistanceMeters>
          </Trackpoint>
          <Trackpoint>
            <Time>2021-01-13T14:45:47.000Z</Time>
            <Position>
              <LatitudeDegrees>43.34353418089449405670166015625</LatitudeDegrees>
              <LongitudeDegrees>-4.0036701969802379608154296875</LongitudeDegrees>
            </Position>
            <AltitudeMeters>108.40000152587890625</AltitudeMeters>
            <DistanceMeters>7366.9132583697</DistanceMeters>
          </Trackpoint>
          <Trackpoint>
            <Time>2021-01-13T14:45:48.000Z</Time>
            <Position>
              <LatitudeDegrees>43.34356251172721385955810546875</LatitudeDegrees>
              <LongitudeDegrees>-4.00372526608407497406005859375</LongitudeDegrees>
            </Position>
            <AltitudeMeters>108.59999847412109375</AltitudeMeters>
            <DistanceMeters>7372.3729545463</DistanceMeters>
          </Trackpoint>
          <Trackpoint>
            <Time>2021-01-13T14:45:49.000Z</Time>
            <Position>
              <LatitudeDegrees>43.34359117783606052398681640625</LatitudeDegrees>
              <LongitudeDegrees>-4.0037805028259754180908203125</LongitudeDegrees>
            </Position>
            <AltitudeMeters>108.59999847412109375</AltitudeMeters>
            <DistanceMeters>7377.8664521094</DistanceMeters>
          </Trackpoint>
          <Trackpoint>
            <Time>2021-01-13T14:45:51.000Z</Time>
            <Position>
              <LatitudeDegrees>43.34364247508347034454345703125</LatitudeDegrees>
              <LongitudeDegrees>-4.0038965083658695220947265625</LongitudeDegrees>
            </Position>
            <AltitudeMeters>108.8000030517578125</AltitudeMeters>
            <DistanceMeters>7388.8559126222</DistanceMeters>
          </Trackpoint>
          <Trackpoint>
            <Time>2021-01-13T14:45:53.000Z</Time>
            <Position>
              <LatitudeDegrees>43.34368907846510410308837890625</LatitudeDegrees>
              <LongitudeDegrees>-4.0040192194283008575439453125</LongitudeDegrees>
            </Position>
            <AltitudeMeters>109</AltitudeMeters>
            <DistanceMeters>7400.0614118504</DistanceMeters>
          </Trackpoint>
          <Trackpoint>
            <Time>2021-01-13T14:45:55.000Z</Time>
            <Position>
              <LatitudeDegrees>43.343731574714183807373046875</LatitudeDegrees>
              <LongitudeDegrees>-4.00414586998522281646728515625</LongitudeDegrees>
            </Position>
            <AltitudeMeters>109.1999969482421875</AltitudeMeters>
            <DistanceMeters>7411.351609328</DistanceMeters>
          </Trackpoint>
          <Trackpoint>
            <Time>2021-01-13T14:45:57.000Z</Time>
            <Position>
              <LatitudeDegrees>43.343768455088138580322265625</LatitudeDegrees>
              <LongitudeDegrees>-4.0042757056653499603271484375</LongitudeDegrees>
            </Position>
            <AltitudeMeters>109.1999969482421875</AltitudeMeters>
            <DistanceMeters>7422.6346061687</DistanceMeters>
          </Trackpoint>
          <Trackpoint>
            <Time>2021-01-13T14:45:59.000Z</Time>
            <Position>
              <LatitudeDegrees>43.3438008092343807220458984375</LatitudeDegrees>
              <LongitudeDegrees>-4.00441107340157032012939453125</LongitudeDegrees>
            </Position>
            <AltitudeMeters>109.1999969482421875</AltitudeMeters>
            <DistanceMeters>7434.1685164411</DistanceMeters>
          </Trackpoint>
          <Trackpoint>
            <Time>2021-01-13T14:46:01.000Z</Time>
            <Position>
              <LatitudeDegrees>43.343831486999988555908203125</LatitudeDegrees>
              <LongitudeDegrees>-4.00454954244196414947509765625</LongitudeDegrees>
            </Position>
            <AltitudeMeters>109.40000152587890625</AltitudeMeters>
            <DistanceMeters>7445.8857380509</DistanceMeters>
          </Trackpoint>
          <Trackpoint>
            <Time>2021-01-13T14:46:03.000Z</Time>
            <Position>
              <LatitudeDegrees>43.34386266767978668212890625</LatitudeDegrees>
              <LongitudeDegrees>-4.00468918494880199432373046875</LongitudeDegrees>
            </Position>
            <AltitudeMeters>109.40000152587890625</AltitudeMeters>
            <DistanceMeters>7457.7095971293</DistanceMeters>
          </Trackpoint>
          <Trackpoint>
            <Time>2021-01-13T14:46:04.000Z</Time>
            <Position>
              <LatitudeDegrees>43.34387465380132198333740234375</LatitudeDegrees>
              <LongitudeDegrees>-4.00476059876382350921630859375</LongitudeDegrees>
            </Position>
            <AltitudeMeters>109.40000152587890625</AltitudeMeters>
            <DistanceMeters>7463.6424916993</DistanceMeters>
          </Trackpoint>
          <Trackpoint>
            <Time>2021-01-13T14:46:05.000Z</Time>
            <Position>
              <LatitudeDegrees>43.343883119523525238037109375</LatitudeDegrees>
              <LongitudeDegrees>-4.00483301840722560882568359375</LongitudeDegrees>
            </Position>
            <AltitudeMeters>109.40000152587890625</AltitudeMeters>
            <DistanceMeters>7469.5791901387</DistanceMeters>
          </Trackpoint>
          <Trackpoint>
            <Time>2021-01-13T14:46:07.000Z</Time>
            <Position>
              <LatitudeDegrees>43.34388974122703075408935546875</LatitudeDegrees>
              <LongitudeDegrees>-4.00497861206531524658203125</LongitudeDegrees>
            </Position>
            <AltitudeMeters>109.40000152587890625</AltitudeMeters>
            <DistanceMeters>7481.3870002784</DistanceMeters>
          </Trackpoint>
          <Trackpoint>
            <Time>2021-01-13T14:46:09.000Z</Time>
            <Position>
              <LatitudeDegrees>43.34388278424739837646484375</LatitudeDegrees>
              <LongitudeDegrees>-4.00512085296213626861572265625</LongitudeDegrees>
            </Position>
            <AltitudeMeters>109.40000152587890625</AltitudeMeters>
            <DistanceMeters>7492.9263896575</DistanceMeters>
          </Trackpoint>
          <Trackpoint>
            <Time>2021-01-13T14:46:10.000Z</Time>
            <Position>
              <LatitudeDegrees>43.34387381561100482940673828125</LatitudeDegrees>
              <LongitudeDegrees>-4.0051926858723163604736328125</LongitudeDegrees>
            </Position>
            <AltitudeMeters>109.40000152587890625</AltitudeMeters>
            <DistanceMeters>7498.8257044156</DistanceMeters>
          </Trackpoint>
          <Trackpoint>
            <Time>2021-01-13T14:46:11.000Z</Time>
            <Position>
              <LatitudeDegrees>43.34386157803237438201904296875</LatitudeDegrees>
              <LongitudeDegrees>-4.00526560842990875244140625</LongitudeDegrees>
            </Position>
            <AltitudeMeters>109.40000152587890625</AltitudeMeters>
            <DistanceMeters>7504.8828655156</DistanceMeters>
          </Trackpoint>
          <Trackpoint>
            <Time>2021-01-13T14:46:13.000Z</Time>
            <Position>
              <LatitudeDegrees>43.343826122581958770751953125</LatitudeDegrees>
              <LongitudeDegrees>-4.0054122917354106903076171875</LongitudeDegrees>
            </Position>
            <AltitudeMeters>109.59999847412109375</AltitudeMeters>
            <DistanceMeters>7517.394315278</DistanceMeters>
          </Trackpoint>
          <Trackpoint>
            <Time>2021-01-13T14:46:15.000Z</Time>
            <Position>
              <LatitudeDegrees>43.3437716402113437652587890625</LatitudeDegrees>
              <LongitudeDegrees>-4.00555084459483623504638671875</LongitudeDegrees>
            </Position>
            <AltitudeMeters>109.59999847412109375</AltitudeMeters>
            <DistanceMeters>7530.1438409973</DistanceMeters>
          </Trackpoint>
          <Trackpoint>
            <Time>2021-01-13T14:46:17.000Z</Time>
            <Position>
              <LatitudeDegrees>43.34370584227144718170166015625</LatitudeDegrees>
              <LongitudeDegrees>-4.00567992590367794036865234375</LongitudeDegrees>
            </Position>
            <AltitudeMeters>110.1999969482421875</AltitudeMeters>
            <DistanceMeters>7542.902924747</DistanceMeters>
          </Trackpoint>
          <Trackpoint>
            <Time>2021-01-13T14:46:18.000Z</Time>
            <Position>
              <LatitudeDegrees>43.34366762079298496246337890625</LatitudeDegrees>
              <LongitudeDegrees>-4.005739353597164154052734375</LongitudeDegrees>
            </Position>
            <AltitudeMeters>110.1999969482421875</AltitudeMeters>
            <DistanceMeters>7549.3240873398</DistanceMeters>
          </Trackpoint>
          <Trackpoint>
            <Time>2021-01-13T14:46:19.000Z</Time>
            <Position>
              <LatitudeDegrees>43.34362470544874668121337890625</LatitudeDegrees>
              <LongitudeDegrees>-4.00579308159649372100830078125</LongitudeDegrees>
            </Position>
            <AltitudeMeters>110.40000152587890625</AltitudeMeters>
            <DistanceMeters>7555.7831084089</DistanceMeters>
          </Trackpoint>
          <Trackpoint>
            <Time>2021-01-13T14:46:20.000Z</Time>
            <Position>
              <LatitudeDegrees>43.3435791917145252227783203125</LatitudeDegrees>
              <LongitudeDegrees>-4.00584203191101551055908203125</LongitudeDegrees>
            </Position>
            <AltitudeMeters>110.40000152587890625</AltitudeMeters>
            <DistanceMeters>7562.2141075625</DistanceMeters>
          </Trackpoint>
          <Trackpoint>
            <Time>2021-01-13T14:46:21.000Z</Time>
            <Position>
              <LatitudeDegrees>43.343531079590320587158203125</LatitudeDegrees>
              <LongitudeDegrees>-4.00588561780750751495361328125</LongitudeDegrees>
            </Position>
            <AltitudeMeters>110.40000152587890625</AltitudeMeters>
            <DistanceMeters>7568.6268268083</DistanceMeters>
          </Trackpoint>
          <Trackpoint>
            <Time>2021-01-13T14:46:23.000Z</Time>
            <Position>
              <LatitudeDegrees>43.34342907182872295379638671875</LatitudeDegrees>
              <LongitudeDegrees>-4.0059581212699413299560546875</LongitudeDegrees>
            </Position>
            <AltitudeMeters>110.59999847412109375</AltitudeMeters>
            <DistanceMeters>7581.4071250332</DistanceMeters>
          </Trackpoint>
          <Trackpoint>
            <Time>2021-01-13T14:46:24.000Z</Time>
            <Position>
              <LatitudeDegrees>43.34337643347680568695068359375</LatitudeDegrees>
              <LongitudeDegrees>-4.00598804466426372528076171875</LongitudeDegrees>
            </Position>
            <AltitudeMeters>110.59999847412109375</AltitudeMeters>
            <DistanceMeters>7587.7461975344</DistanceMeters>
          </Trackpoint>
          <Trackpoint>
            <Time>2021-01-13T14:46:25.000Z</Time>
            <Position>
              <LatitudeDegrees>43.3433213643729686737060546875</LatitudeDegrees>
              <LongitudeDegrees>-4.00601126253604888916015625</LongitudeDegrees>
            </Position>
            <AltitudeMeters>110.59999847412109375</AltitudeMeters>
            <DistanceMeters>7594.1568042059</DistanceMeters>
          </Trackpoint>
          <Trackpoint>
            <Time>2021-01-13T14:46:27.000Z</Time>
            <Position>
              <LatitudeDegrees>43.34321080707013607025146484375</LatitudeDegrees>
              <LongitudeDegrees>-4.00605283677577972412109375</LongitudeDegrees>
            </Position>
            <AltitudeMeters>110.40000152587890625</AltitudeMeters>
            <DistanceMeters>7606.9137645677</DistanceMeters>
          </Trackpoint>
          <Trackpoint>
            <Time>2021-01-13T14:46:29.000Z</Time>
            <Position>
              <LatitudeDegrees>43.34310351870954036712646484375</LatitudeDegrees>
              <LongitudeDegrees>-4.0061110071837902069091796875</LongitudeDegrees>
            </Position>
            <AltitudeMeters>110.40000152587890625</AltitudeMeters>
            <DistanceMeters>7619.7497598465</DistanceMeters>
          </Trackpoint>
          <Trackpoint>
            <Time>2021-01-13T14:46:31.000Z</Time>
            <Position>
              <LatitudeDegrees>43.3430077135562896728515625</LatitudeDegrees>
              <LongitudeDegrees>-4.0061958320438861846923828125</LongitudeDegrees>
            </Position>
            <AltitudeMeters>110.1999969482421875</AltitudeMeters>
            <DistanceMeters>7632.4328896563</DistanceMeters>
          </Trackpoint>
          <Trackpoint>
            <Time>2021-01-13T14:46:33.000Z</Time>
            <Position>
              <LatitudeDegrees>43.34292448125779628753662109375</LatitudeDegrees>
              <LongitudeDegrees>-4.00629666633903980255126953125</LongitudeDegrees>
            </Position>
            <AltitudeMeters>110.1999969482421875</AltitudeMeters>
            <DistanceMeters>7644.7805133419</DistanceMeters>
          </Trackpoint>
          <Trackpoint>
            <Time>2021-01-13T14:46:34.000Z</Time>
            <Position>
              <LatitudeDegrees>43.3428848348557949066162109375</LatitudeDegrees>
              <LongitudeDegrees>-4.0063498914241790771484375</LongitudeDegrees>
            </Position>
            <AltitudeMeters>110.1999969482421875</AltitudeMeters>
            <DistanceMeters>7650.9477397835</DistanceMeters>
          </Trackpoint>
          <Trackpoint>
            <Time>2021-01-13T14:46:35.000Z</Time>
            <Position>
              <LatitudeDegrees>43.34284485317766666412353515625</LatitudeDegrees>
              <LongitudeDegrees>-4.00640345178544521331787109375</LongitudeDegrees>
            </Position>
            <AltitudeMeters>110.1999969482421875</AltitudeMeters>
            <DistanceMeters>7657.1609174566</DistanceMeters>
          </Trackpoint>
          <Trackpoint>
            <Time>2021-01-13T14:46:37.000Z</Time>
            <Position>
              <LatitudeDegrees>43.342766650021076202392578125</LatitudeDegrees>
              <LongitudeDegrees>-4.00651820003986358642578125</LongitudeDegrees>
            </Position>
            <AltitudeMeters>110.1999969482421875</AltitudeMeters>
            <DistanceMeters>7669.8902415435</DistanceMeters>
          </Trackpoint>
          <Trackpoint>
            <Time>2021-01-13T14:46:38.000Z</Time>
            <Position>
              <LatitudeDegrees>43.342730104923248291015625</LatitudeDegrees>
              <LongitudeDegrees>-4.00658215396106243133544921875</LongitudeDegrees>
            </Position>
            <AltitudeMeters>110.1999969482421875</AltitudeMeters>
            <DistanceMeters>7676.4738854381</DistanceMeters>
          </Trackpoint>
          <Trackpoint>
            <Time>2021-01-13T14:46:39.000Z</Time>
            <Position>
              <LatitudeDegrees>43.3426987566053867340087890625</LatitudeDegrees>
              <LongitudeDegrees>-4.006651304662227630615234375</LongitudeDegrees>
            </Position>
            <AltitudeMeters>110</AltitudeMeters>
            <DistanceMeters>7683.0705465923</DistanceMeters>
          </Trackpoint>
          <Trackpoint>
            <Time>2021-01-13T14:46:41.000Z</Time>
            <Position>
              <LatitudeDegrees>43.3426601998507976531982421875</LatitudeDegrees>
              <LongitudeDegrees>-4.0068033523857593536376953125</LongitudeDegrees>
            </Position>
            <AltitudeMeters>110</AltitudeMeters>
            <DistanceMeters>7696.1051500882</DistanceMeters>
          </Trackpoint>
          <Trackpoint>
            <Time>2021-01-13T14:46:42.000Z</Time>
            <Position>
              <LatitudeDegrees>43.3426521532237529754638671875</LatitudeDegrees>
              <LongitudeDegrees>-4.0068821422755718231201171875</LongitudeDegrees>
            </Position>
            <AltitudeMeters>110</AltitudeMeters>
            <DistanceMeters>7702.5445686202</DistanceMeters>
          </Trackpoint>
          <Trackpoint>
            <Time>2021-01-13T14:46:43.000Z</Time>
            <Position>
              <LatitudeDegrees>43.34265139885246753692626953125</LatitudeDegrees>
              <LongitudeDegrees>-4.00695984251797199249267578125</LongitudeDegrees>
            </Position>
            <AltitudeMeters>110</AltitudeMeters>
            <DistanceMeters>7708.83358562</DistanceMeters>
          </Trackpoint>
          <Trackpoint>
            <Time>2021-01-13T14:46:45.000Z</Time>
            <Position>
              <LatitudeDegrees>43.34267101250588893890380859375</LatitudeDegrees>
              <LongitudeDegrees>-4.0071128122508525848388671875</LongitudeDegrees>
            </Position>
            <AltitudeMeters>110</AltitudeMeters>
            <DistanceMeters>7721.4069522457</DistanceMeters>
          </Trackpoint>
          <Trackpoint>
            <Time>2021-01-13T14:46:46.000Z</Time>
            <Position>
              <LatitudeDegrees>43.34268643520772457122802734375</LatitudeDegrees>
              <LongitudeDegrees>-4.00718917138874530792236328125</LongitudeDegrees>
            </Position>
            <AltitudeMeters>110</AltitudeMeters>
            <DistanceMeters>7727.8224871752</DistanceMeters>
          </Trackpoint>
          <Trackpoint>
            <Time>2021-01-13T14:46:47.000Z</Time>
            <Position>
              <LatitudeDegrees>43.34270286373794078826904296875</LatitudeDegrees>
              <LongitudeDegrees>-4.0072663687169551849365234375</LongitudeDegrees>
            </Position>
            <AltitudeMeters>110</AltitudeMeters>
            <DistanceMeters>7734.3330308413</DistanceMeters>
          </Trackpoint>
          <Trackpoint>
            <Time>2021-01-13T14:46:49.000Z</Time>
            <Position>
              <LatitudeDegrees>43.34273655898869037628173828125</LatitudeDegrees>
              <LongitudeDegrees>-4.0074239484965801239013671875</LongitudeDegrees>
            </Position>
            <AltitudeMeters>110</AltitudeMeters>
            <DistanceMeters>7747.6286232112</DistanceMeters>
          </Trackpoint>
          <Trackpoint>
            <Time>2021-01-13T14:46:51.000Z</Time>
            <Position>
              <LatitudeDegrees>43.3427711762487888336181640625</LatitudeDegrees>
              <LongitudeDegrees>-4.0075932629406452178955078125</LongitudeDegrees>
            </Position>
            <AltitudeMeters>110</AltitudeMeters>
            <DistanceMeters>7761.8651981429</DistanceMeters>
          </Trackpoint>
          <Trackpoint>
            <Time>2021-01-13T14:46:53.000Z</Time>
            <Position>
              <LatitudeDegrees>43.3428057096898555755615234375</LatitudeDegrees>
              <LongitudeDegrees>-4.007770121097564697265625</LongitudeDegrees>
            </Position>
            <AltitudeMeters>110</AltitudeMeters>
            <DistanceMeters>7776.6881472433</DistanceMeters>
          </Trackpoint>
          <Trackpoint>
            <Time>2021-01-13T14:46:55.000Z</Time>
            <Position>
              <LatitudeDegrees>43.3428425900638103485107421875</LatitudeDegrees>
              <LongitudeDegrees>-4.00794656015932559967041015625</LongitudeDegrees>
            </Position>
            <AltitudeMeters>110</AltitudeMeters>
            <DistanceMeters>7791.5482108152</DistanceMeters>
          </Trackpoint>
          <Trackpoint>
            <Time>2021-01-13T14:46:57.000Z</Time>
            <Position>
              <LatitudeDegrees>43.3428787998855113983154296875</LatitudeDegrees>
              <LongitudeDegrees>-4.00812878273427486419677734375</LongitudeDegrees>
            </Position>
            <AltitudeMeters>110</AltitudeMeters>
            <DistanceMeters>7806.8389511272</DistanceMeters>
          </Trackpoint>
          <Trackpoint>
            <Time>2021-01-13T14:46:59.000Z</Time>
            <Position>
              <LatitudeDegrees>43.34291182458400726318359375</LatitudeDegrees>
              <LongitudeDegrees>-4.0083214826881885528564453125</LongitudeDegrees>
            </Position>
            <AltitudeMeters>110</AltitudeMeters>
            <DistanceMeters>7822.8644113098</DistanceMeters>
          </Trackpoint>
          <Trackpoint>
            <Time>2021-01-13T14:47:01.000Z</Time>
            <Position>
              <LatitudeDegrees>43.34293839521706104278564453125</LatitudeDegrees>
              <LongitudeDegrees>-4.008526168763637542724609375</LongitudeDegrees>
            </Position>
            <AltitudeMeters>110</AltitudeMeters>
            <DistanceMeters>7839.69487381</DistanceMeters>
          </Trackpoint>
          <Trackpoint>
            <Time>2021-01-13T14:47:02.000Z</Time>
            <Position>
              <LatitudeDegrees>43.342945687472820281982421875</LatitudeDegrees>
              <LongitudeDegrees>-4.0086316131055355072021484375</LongitudeDegrees>
            </Position>
            <AltitudeMeters>110</AltitudeMeters>
            <DistanceMeters>7848.2683691447</DistanceMeters>
          </Trackpoint>
          <Trackpoint>
            <Time>2021-01-13T14:47:03.000Z</Time>
            <Position>
              <LatitudeDegrees>43.34294778294861316680908203125</LatitudeDegrees>
              <LongitudeDegrees>-4.0087370574474334716796875</LongitudeDegrees>
            </Position>
            <AltitudeMeters>110.1999969482421875</AltitudeMeters>
            <DistanceMeters>7856.8065075327</DistanceMeters>
          </Trackpoint>
          <Trackpoint>
            <Time>2021-01-13T14:47:05.000Z</Time>
            <Position>
              <LatitudeDegrees>43.3429421670734882354736328125</LatitudeDegrees>
              <LongitudeDegrees>-4.0089464373886585235595703125</LongitudeDegrees>
            </Position>
            <AltitudeMeters>110.1999969482421875</AltitudeMeters>
            <DistanceMeters>7873.7663136922</DistanceMeters>
          </Trackpoint>
          <Trackpoint>
            <Time>2021-01-13T14:47:07.000Z</Time>
            <Position>
              <LatitudeDegrees>43.34293185733258724212646484375</LatitudeDegrees>
              <LongitudeDegrees>-4.009149782359600067138671875</LongitudeDegrees>
            </Position>
            <AltitudeMeters>110.40000152587890625</AltitudeMeters>
            <DistanceMeters>7890.2665198965</DistanceMeters>
          </Trackpoint>
          <Trackpoint>
            <Time>2021-01-13T14:47:08.000Z</Time>
            <Position>
              <LatitudeDegrees>43.34292833693325519561767578125</LatitudeDegrees>
              <LongitudeDegrees>-4.00924894027411937713623046875</LongitudeDegrees>
            </Position>
            <AltitudeMeters>110.40000152587890625</AltitudeMeters>
            <DistanceMeters>7898.3028814319</DistanceMeters>
          </Trackpoint>
          <Trackpoint>
            <Time>2021-01-13T14:47:09.000Z</Time>
            <Position>
              <LatitudeDegrees>43.34292498417198657989501953125</LatitudeDegrees>
              <LongitudeDegrees>-4.00934549979865550994873046875</LongitudeDegrees>
            </Position>
            <AltitudeMeters>110.40000152587890625</AltitudeMeters>
            <DistanceMeters>7906.1280298884</DistanceMeters>
          </Trackpoint>
          <Trackpoint>
            <Time>2021-01-13T14:47:10.000Z</Time>
            <Position>
              <LatitudeDegrees>43.34292062558233737945556640625</LatitudeDegrees>
              <LongitudeDegrees>-4.00943870656192302703857421875</LongitudeDegrees>
            </Position>
            <AltitudeMeters>110.40000152587890625</AltitudeMeters>
            <DistanceMeters>7913.6884785451</DistanceMeters>
          </Trackpoint>
          <Trackpoint>
            <Time>2021-01-13T14:47:11.000Z</Time>
            <Position>
              <LatitudeDegrees>43.34291584789752960205078125</LatitudeDegrees>
              <LongitudeDegrees>-4.009529650211334228515625</LongitudeDegrees>
            </Position>
            <AltitudeMeters>110.40000152587890625</AltitudeMeters>
            <DistanceMeters>7921.0694304611</DistanceMeters>
          </Trackpoint>
          <Trackpoint>
            <Time>2021-01-13T14:47:13.000Z</Time>
            <Position>
              <LatitudeDegrees>43.3429136686027050018310546875</LatitudeDegrees>
              <LongitudeDegrees>-4.00970474816858768463134765625</LongitudeDegrees>
            </Position>
            <AltitudeMeters>110.40000152587890625</AltitudeMeters>
            <DistanceMeters>7935.2453015519</DistanceMeters>
          </Trackpoint>
          <Trackpoint>
            <Time>2021-01-13T14:47:14.000Z</Time>
            <Position>
              <LatitudeDegrees>43.34292431361973285675048828125</LatitudeDegrees>
              <LongitudeDegrees>-4.0097866393625736236572265625</LongitudeDegrees>
            </Position>
            <AltitudeMeters>110.40000152587890625</AltitudeMeters>
            <DistanceMeters>7941.9794714266</DistanceMeters>
          </Trackpoint>
          <Trackpoint>
            <Time>2021-01-13T14:47:15.000Z</Time>
            <Position>
              <LatitudeDegrees>43.34294409491121768951416015625</LatitudeDegrees>
              <LongitudeDegrees>-4.009862579405307769775390625</LongitudeDegrees>
            </Position>
            <AltitudeMeters>110.40000152587890625</AltitudeMeters>
            <DistanceMeters>7948.5087126453</DistanceMeters>
          </Trackpoint>
          <Trackpoint>
            <Time>2021-01-13T14:47:17.000Z</Time>
            <Position>
              <LatitudeDegrees>43.34300075657665729522705078125</LatitudeDegrees>
              <LongitudeDegrees>-4.0099951811134815216064453125</LongitudeDegrees>
            </Position>
            <AltitudeMeters>110.1999969482421875</AltitudeMeters>
            <DistanceMeters>7960.9575749199</DistanceMeters>
          </Trackpoint>
          <Trackpoint>
            <Time>2021-01-13T14:47:18.000Z</Time>
            <Position>
              <LatitudeDegrees>43.34303428418934345245361328125</LatitudeDegrees>
              <LongitudeDegrees>-4.01005276478826999664306640625</LongitudeDegrees>
            </Position>
            <AltitudeMeters>110.1999969482421875</AltitudeMeters>
            <DistanceMeters>7966.9283991344</DistanceMeters>
          </Trackpoint>
          <Trackpoint>
            <Time>2021-01-13T14:47:19.000Z</Time>
            <Position>
              <LatitudeDegrees>43.34306898526847362518310546875</LatitudeDegrees>
              <LongitudeDegrees>-4.0101063251495361328125</LongitudeDegrees>
            </Position>
            <AltitudeMeters>110</AltitudeMeters>
            <DistanceMeters>7972.7351456798</DistanceMeters>
          </Trackpoint>
          <Trackpoint>
            <Time>2021-01-13T14:47:20.000Z</Time>
            <Position>
              <LatitudeDegrees>43.34310100413858890533447265625</LatitudeDegrees>
              <LongitudeDegrees>-4.01016072370111942291259765625</LongitudeDegrees>
            </Position>
            <AltitudeMeters>110</AltitudeMeters>
            <DistanceMeters>7978.3986103021</DistanceMeters>
          </Trackpoint>
          <Trackpoint>
            <Time>2021-01-13T14:47:21.000Z</Time>
            <Position>
              <LatitudeDegrees>43.3431285806000232696533203125</LatitudeDegrees>
              <LongitudeDegrees>-4.01021822355687618255615234375</LongitudeDegrees>
            </Position>
            <AltitudeMeters>109.8000030517578125</AltitudeMeters>
            <DistanceMeters>7983.9736908505</DistanceMeters>
          </Trackpoint>
          <Trackpoint>
            <Time>2021-01-13T14:47:23.000Z</Time>
            <Position>
              <LatitudeDegrees>43.34317308850586414337158203125</LatitudeDegrees>
              <LongitudeDegrees>-4.0103378333151340484619140625</LongitudeDegrees>
            </Position>
            <AltitudeMeters>109.59999847412109375</AltitudeMeters>
            <DistanceMeters>7994.849165151</DistanceMeters>
          </Trackpoint>
          <Trackpoint>
            <Time>2021-01-13T14:47:24.000Z</Time>
            <Position>
              <LatitudeDegrees>43.34319136105477809906005859375</LatitudeDegrees>
              <LongitudeDegrees>-4.010400362312793731689453125</LongitudeDegrees>
            </Position>
            <AltitudeMeters>109.40000152587890625</AltitudeMeters>
            <DistanceMeters>8000.3030694229</DistanceMeters>
          </Trackpoint>
          <Trackpoint>
            <Time>2021-01-13T14:47:25.000Z</Time>
            <Position>
              <LatitudeDegrees>43.34320762194693088531494140625</LatitudeDegrees>
              <LongitudeDegrees>-4.01046364568173885345458984375</LongitudeDegrees>
            </Position>
            <AltitudeMeters>109.40000152587890625</AltitudeMeters>
            <DistanceMeters>8005.7354068405</DistanceMeters>
          </Trackpoint>
          <Trackpoint>
            <Time>2021-01-13T14:47:27.000Z</Time>
            <Position>
              <LatitudeDegrees>43.3432362042367458343505859375</LatitudeDegrees>
              <LongitudeDegrees>-4.0105923078954219818115234375</LongitudeDegrees>
            </Position>
            <AltitudeMeters>109.40000152587890625</AltitudeMeters>
            <DistanceMeters>8016.6249873587</DistanceMeters>
          </Trackpoint>
          <Trackpoint>
            <Time>2021-01-13T14:47:29.000Z</Time>
            <Position>
              <LatitudeDegrees>43.343264199793338775634765625</LatitudeDegrees>
              <LongitudeDegrees>-4.01072298176586627960205078125</LongitudeDegrees>
            </Position>
            <AltitudeMeters>109.40000152587890625</AltitudeMeters>
            <DistanceMeters>8027.6517719906</DistanceMeters>
          </Trackpoint>
          <Trackpoint>
            <Time>2021-01-13T14:47:31.000Z</Time>
            <Position>
              <LatitudeDegrees>43.34328875876963138580322265625</LatitudeDegrees>
              <LongitudeDegrees>-4.01085323654115200042724609375</LongitudeDegrees>
            </Position>
            <AltitudeMeters>109.40000152587890625</AltitudeMeters>
            <DistanceMeters>8038.5438399449</DistanceMeters>
          </Trackpoint>
          <Trackpoint>
            <Time>2021-01-13T14:47:33.000Z</Time>
            <Position>
              <LatitudeDegrees>43.34331415593624114990234375</LatitudeDegrees>
              <LongitudeDegrees>-4.01098013855516910552978515625</LongitudeDegrees>
            </Position>
            <AltitudeMeters>109.40000152587890625</AltitudeMeters>
            <DistanceMeters>8049.1978561313</DistanceMeters>
          </Trackpoint>
          <Trackpoint>
            <Time>2021-01-13T14:47:35.000Z</Time>
            <Position>
              <LatitudeDegrees>43.34334424696862697601318359375</LatitudeDegrees>
              <LongitudeDegrees>-4.01110335253179073333740234375</LongitudeDegrees>
            </Position>
            <AltitudeMeters>109.40000152587890625</AltitudeMeters>
            <DistanceMeters>8059.7183906697</DistanceMeters>
          </Trackpoint>
          <Trackpoint>
            <Time>2021-01-13T14:47:37.000Z</Time>
            <Position>
              <LatitudeDegrees>43.3433760143816471099853515625</LatitudeDegrees>
              <LongitudeDegrees>-4.0112232975661754608154296875</LongitudeDegrees>
            </Position>
            <AltitudeMeters>109.40000152587890625</AltitudeMeters>
            <DistanceMeters>8070.0509892681</DistanceMeters>
          </Trackpoint>
          <Trackpoint>
            <Time>2021-01-13T14:47:39.000Z</Time>
            <Position>
              <LatitudeDegrees>43.34340895526111125946044921875</LatitudeDegrees>
              <LongitudeDegrees>-4.0113359503448009490966796875</LongitudeDegrees>
            </Position>
            <AltitudeMeters>109.40000152587890625</AltitudeMeters>
            <DistanceMeters>8079.8792509517</DistanceMeters>
          </Trackpoint>
          <Trackpoint>
            <Time>2021-01-13T14:47:41.000Z</Time>
            <Position>
              <LatitudeDegrees>43.34344985894858837127685546875</LatitudeDegrees>
              <LongitudeDegrees>-4.0114455856382846832275390625</LongitudeDegrees>
            </Position>
            <AltitudeMeters>109.40000152587890625</AltitudeMeters>
            <DistanceMeters>8089.8538879005</DistanceMeters>
          </Trackpoint>
          <Trackpoint>
            <Time>2021-01-13T14:47:42.000Z</Time>
            <Position>
              <LatitudeDegrees>43.34347508847713470458984375</LatitudeDegrees>
              <LongitudeDegrees>-4.01150082238018512725830078125</LongitudeDegrees>
            </Position>
            <AltitudeMeters>109.1999969482421875</AltitudeMeters>
            <DistanceMeters>8095.1327908079</DistanceMeters>
          </Trackpoint>
          <Trackpoint>
            <Time>2021-01-13T14:47:43.000Z</Time>
            <Position>
              <LatitudeDegrees>43.34350283257663249969482421875</LatitudeDegrees>
              <LongitudeDegrees>-4.0115562267601490020751953125</LongitudeDegrees>
            </Position>
            <AltitudeMeters>109.1999969482421875</AltitudeMeters>
            <DistanceMeters>8100.5767517638</DistanceMeters>
          </Trackpoint>
          <Trackpoint>
            <Time>2021-01-13T14:47:45.000Z</Time>
            <Position>
              <LatitudeDegrees>43.34356494247913360595703125</LatitudeDegrees>
              <LongitudeDegrees>-4.0116655267775058746337890625</LongitudeDegrees>
            </Position>
            <AltitudeMeters>109.1999969482421875</AltitudeMeters>
            <DistanceMeters>8111.8043903026</DistanceMeters>
          </Trackpoint>
          <Trackpoint>
            <Time>2021-01-13T14:47:47.000Z</Time>
            <Position>
              <LatitudeDegrees>43.3436338417232036590576171875</LatitudeDegrees>
              <LongitudeDegrees>-4.01177055202424526214599609375</LongitudeDegrees>
            </Position>
            <AltitudeMeters>109.1999969482421875</AltitudeMeters>
            <DistanceMeters>8123.253039113</DistanceMeters>
          </Trackpoint>
          <Trackpoint>
            <Time>2021-01-13T14:47:49.000Z</Time>
            <Position>
              <LatitudeDegrees>43.3437005616724491119384765625</LatitudeDegrees>
              <LongitudeDegrees>-4.01188069023191928863525390625</LongitudeDegrees>
            </Position>
            <AltitudeMeters>109</AltitudeMeters>
            <DistanceMeters>8134.8556413912</DistanceMeters>
          </Trackpoint>
          <Trackpoint>
            <Time>2021-01-13T14:47:51.000Z</Time>
            <Position>
              <LatitudeDegrees>43.3437528647482395172119140625</LatitudeDegrees>
              <LongitudeDegrees>-4.0120142139494419097900390625</LongitudeDegrees>
            </Position>
            <AltitudeMeters>109</AltitudeMeters>
            <DistanceMeters>8147.1317542032</DistanceMeters>
          </Trackpoint>
          <Trackpoint>
            <Time>2021-01-13T14:47:53.000Z</Time>
            <Position>
              <LatitudeDegrees>43.34378832019865512847900390625</LatitudeDegrees>
              <LongitudeDegrees>-4.012163579463958740234375</LongitudeDegrees>
            </Position>
            <AltitudeMeters>108.8000030517578125</AltitudeMeters>
            <DistanceMeters>8159.8497229586</DistanceMeters>
          </Trackpoint>
          <Trackpoint>
            <Time>2021-01-13T14:47:55.000Z</Time>
            <Position>
              <LatitudeDegrees>43.3438016474246978759765625</LatitudeDegrees>
              <LongitudeDegrees>-4.01231755502521991729736328125</LongitudeDegrees>
            </Position>
            <AltitudeMeters>108.8000030517578125</AltitudeMeters>
            <DistanceMeters>8172.4011656503</DistanceMeters>
          </Trackpoint>
          <Trackpoint>
            <Time>2021-01-13T14:47:56.000Z</Time>
            <Position>
              <LatitudeDegrees>43.34380307234823703765869140625</LatitudeDegrees>
              <LongitudeDegrees>-4.01239349506795406341552734375</LongitudeDegrees>
            </Position>
            <AltitudeMeters>108.8000030517578125</AltitudeMeters>
            <DistanceMeters>8178.5507965455</DistanceMeters>
          </Trackpoint>
          <Trackpoint>
            <Time>2021-01-13T14:47:57.000Z</Time>
            <Position>
              <LatitudeDegrees>43.34379695355892181396484375</LatitudeDegrees>
              <LongitudeDegrees>-4.012467674911022186279296875</LongitudeDegrees>
            </Position>
            <AltitudeMeters>108.59999847412109375</AltitudeMeters>
            <DistanceMeters>8184.5937783541</DistanceMeters>
          </Trackpoint>
          <Trackpoint>
            <Time>2021-01-13T14:47:58.000Z</Time>
            <Position>
              <LatitudeDegrees>43.34378354251384735107421875</LatitudeDegrees>
              <LongitudeDegrees>-4.012539088726043701171875</LongitudeDegrees>
            </Position>
            <AltitudeMeters>108.59999847412109375</AltitudeMeters>
            <DistanceMeters>8190.5630900102</DistanceMeters>
          </Trackpoint>
          <Trackpoint>
            <Time>2021-01-13T14:47:59.000Z</Time>
            <Position>
              <LatitudeDegrees>43.3437652699649333953857421875</LatitudeDegrees>
              <LongitudeDegrees>-4.01260907761752605438232421875</LongitudeDegrees>
            </Position>
            <AltitudeMeters>108.59999847412109375</AltitudeMeters>
            <DistanceMeters>8196.5821154042</DistanceMeters>
          </Trackpoint>
          <Trackpoint>
            <Time>2021-01-13T14:48:01.000Z</Time>
            <Position>
              <LatitudeDegrees>43.3437166549265384674072265625</LatitudeDegrees>
              <LongitudeDegrees>-4.01274436153471469879150390625</LongitudeDegrees>
            </Position>
            <AltitudeMeters>108.40000152587890625</AltitudeMeters>
            <DistanceMeters>8208.7966527678</DistanceMeters>
          </Trackpoint>
          <Trackpoint>
            <Time>2021-01-13T14:48:02.000Z</Time>
            <Position>
              <LatitudeDegrees>43.34368824027478694915771484375</LatitudeDegrees>
              <LongitudeDegrees>-4.01280789636075496673583984375</LongitudeDegrees>
            </Position>
            <AltitudeMeters>108.1999969482421875</AltitudeMeters>
            <DistanceMeters>8214.8344022329</DistanceMeters>
          </Trackpoint>
          <Trackpoint>
            <Time>2021-01-13T14:48:03.000Z</Time>
            <Position>
              <LatitudeDegrees>43.3436586521565914154052734375</LatitudeDegrees>
              <LongitudeDegrees>-4.012868665158748626708984375</LongitudeDegrees>
            </Position>
            <AltitudeMeters>108.1999969482421875</AltitudeMeters>
            <DistanceMeters>8220.7535826325</DistanceMeters>
          </Trackpoint>
          <Trackpoint>
            <Time>2021-01-13T14:48:05.000Z</Time>
            <Position>
              <LatitudeDegrees>43.34359520114958286285400390625</LatitudeDegrees>
              <LongitudeDegrees>-4.01298366487026214599609375</LongitudeDegrees>
            </Position>
            <AltitudeMeters>108</AltitudeMeters>
            <DistanceMeters>8232.4380049869</DistanceMeters>
          </Trackpoint>
          <Trackpoint>
            <Time>2021-01-13T14:48:07.000Z</Time>
            <Position>
              <LatitudeDegrees>43.3435305766761302947998046875</LatitudeDegrees>
              <LongitudeDegrees>-4.0130956470966339111328125</LongitudeDegrees>
            </Position>
            <AltitudeMeters>107.8000030517578125</AltitudeMeters>
            <DistanceMeters>8244.0094341774</DistanceMeters>
          </Trackpoint>
          <Trackpoint>
            <Time>2021-01-13T14:48:09.000Z</Time>
            <Position>
              <LatitudeDegrees>43.34346611984074115753173828125</LatitudeDegrees>
              <LongitudeDegrees>-4.0132054500281810760498046875</LongitudeDegrees>
            </Position>
            <AltitudeMeters>107.8000030517578125</AltitudeMeters>
            <DistanceMeters>8255.4316294333</DistanceMeters>
          </Trackpoint>
          <Trackpoint>
            <Time>2021-01-13T14:48:11.000Z</Time>
            <Position>
              <LatitudeDegrees>43.34340132772922515869140625</LatitudeDegrees>
              <LongitudeDegrees>-4.01331265456974506378173828125</LongitudeDegrees>
            </Position>
            <AltitudeMeters>107.59999847412109375</AltitudeMeters>
            <DistanceMeters>8266.7146262739</DistanceMeters>
          </Trackpoint>
          <Trackpoint>
            <Time>2021-01-13T14:48:13.000Z</Time>
            <Position>
              <LatitudeDegrees>43.34333561360836029052734375</LatitudeDegrees>
              <LongitudeDegrees>-4.01341617107391357421875</LongitudeDegrees>
            </Position>
            <AltitudeMeters>107.40000152587890625</AltitudeMeters>
            <DistanceMeters>8277.837218026</DistanceMeters>
          </Trackpoint>
          <Trackpoint>
            <Time>2021-01-13T14:48:15.000Z</Time>
            <Position>
              <LatitudeDegrees>43.34326922893524169921875</LatitudeDegrees>
              <LongitudeDegrees>-4.013523794710636138916015625</LongitudeDegrees>
            </Position>
            <AltitudeMeters>107.40000152587890625</AltitudeMeters>
            <DistanceMeters>8289.2602038272</DistanceMeters>
          </Trackpoint>
          <Trackpoint>
            <Time>2021-01-13T14:48:17.000Z</Time>
            <Position>
              <LatitudeDegrees>43.34319873712956905364990234375</LatitudeDegrees>
              <LongitudeDegrees>-4.0136352740228176116943359375</LongitudeDegrees>
            </Position>
            <AltitudeMeters>107.1999969482421875</AltitudeMeters>
            <DistanceMeters>8301.2177215635</DistanceMeters>
          </Trackpoint>
          <Trackpoint>
            <Time>2021-01-13T14:48:19.000Z</Time>
            <Position>
              <LatitudeDegrees>43.34312112070620059967041015625</LatitudeDegrees>
              <LongitudeDegrees>-4.01374147273600101470947265625</LongitudeDegrees>
            </Position>
            <AltitudeMeters>106.8000030517578125</AltitudeMeters>
            <DistanceMeters>8313.4048745268</DistanceMeters>
          </Trackpoint>
          <Trackpoint>
            <Time>2021-01-13T14:48:20.000Z</Time>
            <Position>
              <LatitudeDegrees>43.343079127371311187744140625</LatitudeDegrees>
              <LongitudeDegrees>-4.0137915126979351043701171875</LongitudeDegrees>
            </Position>
            <AltitudeMeters>106.8000030517578125</AltitudeMeters>
            <DistanceMeters>8319.589646456</DistanceMeters>
          </Trackpoint>
          <Trackpoint>
            <Time>2021-01-13T14:48:21.000Z</Time>
            <Position>
              <LatitudeDegrees>43.343035876750946044921875</LatitudeDegrees>
              <LongitudeDegrees>-4.01383928954601287841796875</LongitudeDegrees>
            </Position>
            <AltitudeMeters>106.59999847412109375</AltitudeMeters>
            <DistanceMeters>8325.7649207675</DistanceMeters>
          </Trackpoint>
          <Trackpoint>
            <Time>2021-01-13T14:48:23.000Z</Time>
            <Position>
              <LatitudeDegrees>43.3429455198347568511962890625</LatitudeDegrees>
              <LongitudeDegrees>-4.01392688043415546417236328125</LongitudeDegrees>
            </Position>
            <AltitudeMeters>106.59999847412109375</AltitudeMeters>
            <DistanceMeters>8338.0700547291</DistanceMeters>
          </Trackpoint>
          <Trackpoint>
            <Time>2021-01-13T14:48:25.000Z</Time>
            <Position>
              <LatitudeDegrees>43.3428570069372653961181640625</LatitudeDegrees>
              <LongitudeDegrees>-4.014007933437824249267578125</LongitudeDegrees>
            </Position>
            <AltitudeMeters>106.59999847412109375</AltitudeMeters>
            <DistanceMeters>8349.9065084222</DistanceMeters>
          </Trackpoint>
          <Trackpoint>
            <Time>2021-01-13T14:48:27.000Z</Time>
            <Position>
              <LatitudeDegrees>43.34276698529720306396484375</LatitudeDegrees>
              <LongitudeDegrees>-4.01408948935568332672119140625</LongitudeDegrees>
            </Position>
            <AltitudeMeters>106.59999847412109375</AltitudeMeters>
            <DistanceMeters>8361.9054891632</DistanceMeters>
          </Trackpoint>
          <Trackpoint>
            <Time>2021-01-13T14:48:29.000Z</Time>
            <Position>
              <LatitudeDegrees>43.342686183750629425048828125</LatitudeDegrees>
              <LongitudeDegrees>-4.01418353430926799774169921875</LongitudeDegrees>
            </Position>
            <AltitudeMeters>106.59999847412109375</AltitudeMeters>
            <DistanceMeters>8373.6880353756</DistanceMeters>
          </Trackpoint>
          <Trackpoint>
            <Time>2021-01-13T14:48:30.000Z</Time>
            <Position>
              <LatitudeDegrees>43.34264804609119892120361328125</LatitudeDegrees>
              <LongitudeDegrees>-4.01423198170959949493408203125</LongitudeDegrees>
            </Position>
            <AltitudeMeters>106.59999847412109375</AltitudeMeters>
            <DistanceMeters>8379.4675035835</DistanceMeters>
          </Trackpoint>
          <Trackpoint>
            <Time>2021-01-13T14:48:31.000Z</Time>
            <Position>
              <LatitudeDegrees>43.34261032752692699432373046875</LatitudeDegrees>
              <LongitudeDegrees>-4.01428143493831157684326171875</LongitudeDegrees>
            </Position>
            <AltitudeMeters>106.59999847412109375</AltitudeMeters>
            <DistanceMeters>8385.2680263902</DistanceMeters>
          </Trackpoint>
          <Trackpoint>
            <Time>2021-01-13T14:48:33.000Z</Time>
            <Position>
              <LatitudeDegrees>43.34252667613327503204345703125</LatitudeDegrees>
              <LongitudeDegrees>-4.014370031654834747314453125</LongitudeDegrees>
            </Position>
            <AltitudeMeters>106.59999847412109375</AltitudeMeters>
            <DistanceMeters>8397.0198768459</DistanceMeters>
          </Trackpoint>
          <Trackpoint>
            <Time>2021-01-13T14:48:35.000Z</Time>
            <Position>
              <LatitudeDegrees>43.34242592565715312957763671875</LatitudeDegrees>
              <LongitudeDegrees>-4.01441219262778759002685546875</LongitudeDegrees>
            </Position>
            <AltitudeMeters>106.40000152587890625</AltitudeMeters>
            <DistanceMeters>8408.7417215459</DistanceMeters>
          </Trackpoint>
          <Trackpoint>
            <Time>2021-01-13T14:48:36.000Z</Time>
            <Position>
              <LatitudeDegrees>43.3423705212771892547607421875</LatitudeDegrees>
              <LongitudeDegrees>-4.01441269554197788238525390625</LongitudeDegrees>
            </Position>
            <AltitudeMeters>106.40000152587890625</AltitudeMeters>
            <DistanceMeters>8414.9082158422</DistanceMeters>
          </Trackpoint>
          <Trackpoint>
            <Time>2021-01-13T14:48:37.000Z</Time>
            <Position>
              <LatitudeDegrees>43.342314697802066802978515625</LatitudeDegrees>
              <LongitudeDegrees>-4.01440716348588466644287109375</LongitudeDegrees>
            </Position>
            <AltitudeMeters>106.1999969482421875</AltitudeMeters>
            <DistanceMeters>8421.1380849063</DistanceMeters>
          </Trackpoint>
          <Trackpoint>
            <Time>2021-01-13T14:48:39.000Z</Time>
            <Position>
              <LatitudeDegrees>43.3422032184898853302001953125</LatitudeDegrees>
              <LongitudeDegrees>-4.01439140550792217254638671875</LongitudeDegrees>
            </Position>
            <AltitudeMeters>106.1999969482421875</AltitudeMeters>
            <DistanceMeters>8433.611223527</DistanceMeters>
          </Trackpoint>
          <Trackpoint>
            <Time>2021-01-13T14:48:40.000Z</Time>
            <Position>
              <LatitudeDegrees>43.3421475626528263092041015625</LatitudeDegrees>
              <LongitudeDegrees>-4.0143893100321292877197265625</LongitudeDegrees>
            </Position>
            <AltitudeMeters>106.1999969482421875</AltitudeMeters>
            <DistanceMeters>8439.8076648476</DistanceMeters>
          </Trackpoint>
          <Trackpoint>
            <Time>2021-01-13T14:48:41.000Z</Time>
            <Position>
              <LatitudeDegrees>43.34209450520575046539306640625</LatitudeDegrees>
              <LongitudeDegrees>-4.0144020505249500274658203125</LongitudeDegrees>
            </Position>
            <AltitudeMeters>106</AltitudeMeters>
            <DistanceMeters>8445.8026380959</DistanceMeters>
          </Trackpoint>
          <Trackpoint>
            <Time>2021-01-13T14:48:42.000Z</Time>
            <Position>
              <LatitudeDegrees>43.342049829661846160888671875</LatitudeDegrees>
              <LongitudeDegrees>-4.014434404671192169189453125</LongitudeDegrees>
            </Position>
            <AltitudeMeters>106</AltitudeMeters>
            <DistanceMeters>8451.4228878591</DistanceMeters>
          </Trackpoint>
          <Trackpoint>
            <Time>2021-01-13T14:48:43.000Z</Time>
            <Position>
              <LatitudeDegrees>43.34201320074498653411865234375</LatitudeDegrees>
              <LongitudeDegrees>-4.01448293589055538177490234375</LongitudeDegrees>
            </Position>
            <AltitudeMeters>106</AltitudeMeters>
            <DistanceMeters>8457.0847578131</DistanceMeters>
          </Trackpoint>
          <Trackpoint>
            <Time>2021-01-13T14:48:45.000Z</Time>
            <Position>
              <LatitudeDegrees>43.34196927957236766815185546875</LatitudeDegrees>
              <LongitudeDegrees>-4.01461469940841197967529296875</LongitudeDegrees>
            </Position>
            <AltitudeMeters>106</AltitudeMeters>
            <DistanceMeters>8468.8173826393</DistanceMeters>
          </Trackpoint>
          <Trackpoint>
            <Time>2021-01-13T14:48:47.000Z</Time>
            <Position>
              <LatitudeDegrees>43.34195234812796115875244140625</LatitudeDegrees>
              <LongitudeDegrees>-4.0147693455219268798828125</LongitudeDegrees>
            </Position>
            <AltitudeMeters>105.8000030517578125</AltitudeMeters>
            <DistanceMeters>8481.4762821402</DistanceMeters>
          </Trackpoint>
          <Trackpoint>
            <Time>2021-01-13T14:48:48.000Z</Time>
            <Position>
              <LatitudeDegrees>43.34194849245250225067138671875</LatitudeDegrees>
              <LongitudeDegrees>-4.014850147068500518798828125</LongitudeDegrees>
            </Position>
            <AltitudeMeters>105.8000030517578125</AltitudeMeters>
            <DistanceMeters>8488.0317480883</DistanceMeters>
          </Trackpoint>
          <Trackpoint>
            <Time>2021-01-13T14:48:49.000Z</Time>
            <Position>
              <LatitudeDegrees>43.3419463969767093658447265625</LatitudeDegrees>
              <LongitudeDegrees>-4.014931954443454742431640625</LongitudeDegrees>
            </Position>
            <AltitudeMeters>105.8000030517578125</AltitudeMeters>
            <DistanceMeters>8494.6577749272</DistanceMeters>
          </Trackpoint>
          <Trackpoint>
            <Time>2021-01-13T14:48:50.000Z</Time>
            <Position>
              <LatitudeDegrees>43.34194430150091648101806640625</LatitudeDegrees>
              <LongitudeDegrees>-4.01501384563744068145751953125</LongitudeDegrees>
            </Position>
            <AltitudeMeters>105.59999847412109375</AltitudeMeters>
            <DistanceMeters>8501.2906123619</DistanceMeters>
          </Trackpoint>
          <Trackpoint>
            <Time>2021-01-13T14:48:51.000Z</Time>
            <Position>
              <LatitudeDegrees>43.3419427089393138885498046875</LatitudeDegrees>
              <LongitudeDegrees>-4.01509548537433147430419921875</LongitudeDegrees>
            </Position>
            <AltitudeMeters>105.59999847412109375</AltitudeMeters>
            <DistanceMeters>8507.9016311933</DistanceMeters>
          </Trackpoint>
          <Trackpoint>
            <Time>2021-01-13T14:48:53.000Z</Time>
            <Position>
              <LatitudeDegrees>43.341941870748996734619140625</LatitudeDegrees>
              <LongitudeDegrees>-4.01526228524744510650634765625</LongitudeDegrees>
            </Position>
            <AltitudeMeters>105.40000152587890625</AltitudeMeters>
            <DistanceMeters>8521.4037870703</DistanceMeters>
          </Trackpoint>
          <Trackpoint>
            <Time>2021-01-13T14:48:54.000Z</Time>
            <Position>
              <LatitudeDegrees>43.34193122573196887969970703125</LatitudeDegrees>
              <LongitudeDegrees>-4.0153460204601287841796875</LongitudeDegrees>
            </Position>
            <AltitudeMeters>105.40000152587890625</AltitudeMeters>
            <DistanceMeters>8528.2851910602</DistanceMeters>
          </Trackpoint>
          <Trackpoint>
            <Time>2021-01-13T14:48:55.000Z</Time>
            <Position>
              <LatitudeDegrees>43.3419051580131053924560546875</LatitudeDegrees>
              <LongitudeDegrees>-4.015426151454448699951171875</LongitudeDegrees>
            </Position>
            <AltitudeMeters>105.1999969482421875</AltitudeMeters>
            <DistanceMeters>8535.3906226022</DistanceMeters>
          </Trackpoint>
          <Trackpoint>
            <Time>2021-01-13T14:48:56.000Z</Time>
            <Position>
              <LatitudeDegrees>43.3418666012585163116455078125</LatitudeDegrees>
              <LongitudeDegrees>-4.01549714617431163787841796875</LongitudeDegrees>
            </Position>
            <AltitudeMeters>105.1999969482421875</AltitudeMeters>
            <DistanceMeters>8542.5637234364</DistanceMeters>
          </Trackpoint>
          <Trackpoint>
            <Time>2021-01-13T14:48:57.000Z</Time>
            <Position>
              <LatitudeDegrees>43.34181480109691619873046875</LatitudeDegrees>
              <LongitudeDegrees>-4.01555296964943408966064453125</LongitudeDegrees>
            </Position>
            <AltitudeMeters>105.1999969482421875</AltitudeMeters>
            <DistanceMeters>8549.8887977862</DistanceMeters>
          </Trackpoint>
          <Trackpoint>
            <Time>2021-01-13T14:48:59.000Z</Time>
            <Position>
              <LatitudeDegrees>43.3416934311389923095703125</LatitudeDegrees>
              <LongitudeDegrees>-4.01563360355794429779052734375</LongitudeDegrees>
            </Position>
            <AltitudeMeters>105</AltitudeMeters>
            <DistanceMeters>8564.8915870416</DistanceMeters>
          </Trackpoint>
          <Trackpoint>
            <Time>2021-01-13T14:49:00.000Z</Time>
            <Position>
              <LatitudeDegrees>43.34162838757038116455078125</LatitudeDegrees>
              <LongitudeDegrees>-4.0156690590083599090576171875</LongitudeDegrees>
            </Position>
            <AltitudeMeters>104.8000030517578125</AltitudeMeters>
            <DistanceMeters>8572.6785609931</DistanceMeters>
          </Trackpoint>
          <Trackpoint>
            <Time>2021-01-13T14:49:01.000Z</Time>
            <Position>
              <LatitudeDegrees>43.34156376309692859649658203125</LatitudeDegrees>
              <LongitudeDegrees>-4.0157039277255535125732421875</LongitudeDegrees>
            </Position>
            <AltitudeMeters>104.8000030517578125</AltitudeMeters>
            <DistanceMeters>8580.405582764</DistanceMeters>
          </Trackpoint>
          <Trackpoint>
            <Time>2021-01-13T14:49:03.000Z</Time>
            <Position>
              <LatitudeDegrees>43.34143786691129207611083984375</LatitudeDegrees>
              <LongitudeDegrees>-4.015791602432727813720703125</LongitudeDegrees>
            </Position>
            <AltitudeMeters>104.40000152587890625</AltitudeMeters>
            <DistanceMeters>8596.1126104435</DistanceMeters>
          </Trackpoint>
          <Trackpoint>
            <Time>2021-01-13T14:49:05.000Z</Time>
            <Position>
              <LatitudeDegrees>43.34133024327456951141357421875</LatitudeDegrees>
              <LongitudeDegrees>-4.01593141257762908935546875</LongitudeDegrees>
            </Position>
            <AltitudeMeters>104</AltitudeMeters>
            <DistanceMeters>8612.592007246</DistanceMeters>
          </Trackpoint>
          <Trackpoint>
            <Time>2021-01-13T14:49:07.000Z</Time>
            <Position>
              <LatitudeDegrees>43.341221027076244354248046875</LatitudeDegrees>
              <LongitudeDegrees>-4.0160811133682727813720703125</LongitudeDegrees>
            </Position>
            <AltitudeMeters>103.8000030517578125</AltitudeMeters>
            <DistanceMeters>8629.7563678243</DistanceMeters>
          </Trackpoint>
          <Trackpoint>
            <Time>2021-01-13T14:49:08.000Z</Time>
            <Position>
              <LatitudeDegrees>43.34115791134536266326904296875</LatitudeDegrees>
              <LongitudeDegrees>-4.016148336231708526611328125</LongitudeDegrees>
            </Position>
            <AltitudeMeters>103.59999847412109375</AltitudeMeters>
            <DistanceMeters>8638.6427629597</DistanceMeters>
          </Trackpoint>
          <Trackpoint>
            <Time>2021-01-13T14:49:09.000Z</Time>
            <Position>
              <LatitudeDegrees>43.34108985029160976409912109375</LatitudeDegrees>
              <LongitudeDegrees>-4.01621229015290737152099609375</LongitudeDegrees>
            </Position>
            <AltitudeMeters>103.40000152587890625</AltitudeMeters>
            <DistanceMeters>8647.8181323085</DistanceMeters>
          </Trackpoint>
          <Trackpoint>
            <Time>2021-01-13T14:49:10.000Z</Time>
            <Position>
              <LatitudeDegrees>43.34101558662950992584228515625</LatitudeDegrees>
              <LongitudeDegrees>-4.01626358740031719207763671875</LongitudeDegrees>
            </Position>
            <AltitudeMeters>103.1999969482421875</AltitudeMeters>
            <DistanceMeters>8657.0675076512</DistanceMeters>
          </Trackpoint>
          <Trackpoint>
            <Time>2021-01-13T14:49:11.000Z</Time>
            <Position>
              <LatitudeDegrees>43.34093478508293628692626953125</LatitudeDegrees>
              <LongitudeDegrees>-4.01629828847944736480712890625</LongitudeDegrees>
            </Position>
            <AltitudeMeters>102.8000030517578125</AltitudeMeters>
            <DistanceMeters>8666.4895393599</DistanceMeters>
          </Trackpoint>
          <Trackpoint>
            <Time>2021-01-13T14:49:12.000Z</Time>
            <Position>
              <LatitudeDegrees>43.3408513851463794708251953125</LatitudeDegrees>
              <LongitudeDegrees>-4.0163134597241878509521484375</LongitudeDegrees>
            </Position>
            <AltitudeMeters>102.59999847412109375</AltitudeMeters>
            <DistanceMeters>8675.8534083397</DistanceMeters>
          </Trackpoint>
          <Trackpoint>
            <Time>2021-01-13T14:49:13.000Z</Time>
            <Position>
              <LatitudeDegrees>43.3407672308385372161865234375</LatitudeDegrees>
              <LongitudeDegrees>-4.01631203480064868927001953125</LongitudeDegrees>
            </Position>
            <AltitudeMeters>102.1999969482421875</AltitudeMeters>
            <DistanceMeters>8685.2211339379</DistanceMeters>
          </Trackpoint>
          <Trackpoint>
            <Time>2021-01-13T14:49:14.000Z</Time>
            <Position>
              <LatitudeDegrees>43.3406817354261875152587890625</LatitudeDegrees>
              <LongitudeDegrees>-4.01630021631717681884765625</LongitudeDegrees>
            </Position>
            <AltitudeMeters>101.8000030517578125</AltitudeMeters>
            <DistanceMeters>8694.7853732896</DistanceMeters>
          </Trackpoint>
          <Trackpoint>
            <Time>2021-01-13T14:49:15.000Z</Time>
            <Position>
              <LatitudeDegrees>43.3405952341854572296142578125</LatitudeDegrees>
              <LongitudeDegrees>-4.01628470979630947113037109375</LongitudeDegrees>
            </Position>
            <AltitudeMeters>101.40000152587890625</AltitudeMeters>
            <DistanceMeters>8704.4948530942</DistanceMeters>
          </Trackpoint>
          <Trackpoint>
            <Time>2021-01-13T14:49:17.000Z</Time>
            <Position>
              <LatitudeDegrees>43.34041871130466461181640625</LatitudeDegrees>
              <LongitudeDegrees>-4.01625269092619419097900390625</LongitudeDegrees>
            </Position>
            <AltitudeMeters>100.59999847412109375</AltitudeMeters>
            <DistanceMeters>8724.312423195</DistanceMeters>
          </Trackpoint>
          <Trackpoint>
            <Time>2021-01-13T14:49:18.000Z</Time>
            <Position>
              <LatitudeDegrees>43.3403273485600948333740234375</LatitudeDegrees>
              <LongitudeDegrees>-4.0162510983645915985107421875</LongitudeDegrees>
            </Position>
            <AltitudeMeters>100.40000152587890625</AltitudeMeters>
            <DistanceMeters>8734.4816136955</DistanceMeters>
          </Trackpoint>
          <Trackpoint>
            <Time>2021-01-13T14:49:19.000Z</Time>
            <Position>
              <LatitudeDegrees>43.34023724310100078582763671875</LatitudeDegrees>
              <LongitudeDegrees>-4.01626979000866413116455078125</LongitudeDegrees>
            </Position>
            <AltitudeMeters>100</AltitudeMeters>
            <DistanceMeters>8744.6236845281</DistanceMeters>
          </Trackpoint>
          <Trackpoint>
            <Time>2021-01-13T14:49:21.000Z</Time>
            <Position>
              <LatitudeDegrees>43.34005770273506641387939453125</LatitudeDegrees>
              <LongitudeDegrees>-4.016332067549228668212890625</LongitudeDegrees>
            </Position>
            <AltitudeMeters>99.40000152587890625</AltitudeMeters>
            <DistanceMeters>8765.2328736344</DistanceMeters>
          </Trackpoint>
          <Trackpoint>
            <Time>2021-01-13T14:49:22.000Z</Time>
            <Position>
              <LatitudeDegrees>43.3399672619998455047607421875</LatitudeDegrees>
              <LongitudeDegrees>-4.01635930873453617095947265625</LongitudeDegrees>
            </Position>
            <AltitudeMeters>99</AltitudeMeters>
            <DistanceMeters>8775.537906336</DistanceMeters>
          </Trackpoint>
          <Trackpoint>
            <Time>2021-01-13T14:49:23.000Z</Time>
            <Position>
              <LatitudeDegrees>43.33987422287464141845703125</LatitudeDegrees>
              <LongitudeDegrees>-4.016384370625019073486328125</LongitudeDegrees>
            </Position>
            <AltitudeMeters>98.8000030517578125</AltitudeMeters>
            <DistanceMeters>8786.0901512455</DistanceMeters>
          </Trackpoint>
          <Trackpoint>
            <Time>2021-01-13T14:49:25.000Z</Time>
            <Position>
              <LatitudeDegrees>43.33970264531672000885009765625</LatitudeDegrees>
              <LongitudeDegrees>-4.016460813581943511962890625</LongitudeDegrees>
            </Position>
            <AltitudeMeters>98.40000152587890625</AltitudeMeters>
            <DistanceMeters>8806.1646430564</DistanceMeters>
          </Trackpoint>
          <Trackpoint>
            <Time>2021-01-13T14:49:26.000Z</Time>
            <Position>
              <LatitudeDegrees>43.33963307552039623260498046875</LatitudeDegrees>
              <LongitudeDegrees>-4.01653314940631389617919921875</LongitudeDegrees>
            </Position>
            <AltitudeMeters>98</AltitudeMeters>
            <DistanceMeters>8815.8727277205</DistanceMeters>
          </Trackpoint>
          <Trackpoint>
            <Time>2021-01-13T14:49:27.000Z</Time>
            <Position>
              <LatitudeDegrees>43.33957607857882976531982421875</LatitudeDegrees>
              <LongitudeDegrees>-4.016624428331851959228515625</LongitudeDegrees>
            </Position>
            <AltitudeMeters>97.8000030517578125</AltitudeMeters>
            <DistanceMeters>8825.6119229114</DistanceMeters>
          </Trackpoint>
          <Trackpoint>
            <Time>2021-01-13T14:49:29.000Z</Time>
            <Position>
              <LatitudeDegrees>43.3395360969007015228271484375</LatitudeDegrees>
              <LongitudeDegrees>-4.016841351985931396484375</LongitudeDegrees>
            </Position>
            <AltitudeMeters>97.59999847412109375</AltitudeMeters>
            <DistanceMeters>8843.7269160931</DistanceMeters>
          </Trackpoint>
          <Trackpoint>
            <Time>2021-01-13T14:49:31.000Z</Time>
            <Position>
              <LatitudeDegrees>43.339600302278995513916015625</LatitudeDegrees>
              <LongitudeDegrees>-4.0170617960393428802490234375</LongitudeDegrees>
            </Position>
            <AltitudeMeters>97.1999969482421875</AltitudeMeters>
            <DistanceMeters>8862.9493430474</DistanceMeters>
          </Trackpoint>
          <Trackpoint>
            <Time>2021-01-13T14:49:32.000Z</Time>
            <Position>
              <LatitudeDegrees>43.33965369500219821929931640625</LatitudeDegrees>
              <LongitudeDegrees>-4.01716849766671657562255859375</LongitudeDegrees>
            </Position>
            <AltitudeMeters>97</AltitudeMeters>
            <DistanceMeters>8873.4333351532</DistanceMeters>
          </Trackpoint>
          <Trackpoint>
            <Time>2021-01-13T14:49:33.000Z</Time>
            <Position>
              <LatitudeDegrees>43.339712955057621002197265625</LatitudeDegrees>
              <LongitudeDegrees>-4.01727176271378993988037109375</LongitudeDegrees>
            </Position>
            <AltitudeMeters>96.8000030517578125</AltitudeMeters>
            <DistanceMeters>8884.0814166626</DistanceMeters>
          </Trackpoint>
          <Trackpoint>
            <Time>2021-01-13T14:49:34.000Z</Time>
            <Position>
              <LatitudeDegrees>43.33977305330336093902587890625</LatitudeDegrees>
              <LongitudeDegrees>-4.0173702500760555267333984375</LongitudeDegrees>
            </Position>
            <AltitudeMeters>96.59999847412109375</AltitudeMeters>
            <DistanceMeters>8894.4884689287</DistanceMeters>
          </Trackpoint>
          <Trackpoint>
            <Time>2021-01-13T14:49:35.000Z</Time>
            <Position>
              <LatitudeDegrees>43.33983357064425945281982421875</LatitudeDegrees>
              <LongitudeDegrees>-4.01747141964733600616455078125</LongitudeDegrees>
            </Position>
            <AltitudeMeters>96.40000152587890625</AltitudeMeters>
            <DistanceMeters>8905.0923602842</DistanceMeters>
          </Trackpoint>
          <Trackpoint>
            <Time>2021-01-13T14:49:36.000Z</Time>
            <Position>
              <LatitudeDegrees>43.33989559672772884368896484375</LatitudeDegrees>
              <LongitudeDegrees>-4.0175707451999187469482421875</LongitudeDegrees>
            </Position>
            <AltitudeMeters>96.1999969482421875</AltitudeMeters>
            <DistanceMeters>8915.6898628548</DistanceMeters>
          </Trackpoint>
          <Trackpoint>
            <Time>2021-01-13T14:49:37.000Z</Time>
            <Position>
              <LatitudeDegrees>43.3399585448205471038818359375</LatitudeDegrees>
              <LongitudeDegrees>-4.01766948401927947998046875</LongitudeDegrees>
            </Position>
            <AltitudeMeters>96</AltitudeMeters>
            <DistanceMeters>8926.3184213795</DistanceMeters>
          </Trackpoint>
          <Trackpoint>
            <Time>2021-01-13T14:49:38.000Z</Time>
            <Position>
              <LatitudeDegrees>43.34001881070435047149658203125</LatitudeDegrees>
              <LongitudeDegrees>-4.01776981540024280548095703125</LongitudeDegrees>
            </Position>
            <AltitudeMeters>96</AltitudeMeters>
            <DistanceMeters>8936.8522516109</DistanceMeters>
          </Trackpoint>
          <Trackpoint>
            <Time>2021-01-13T14:49:39.000Z</Time>
            <Position>
              <LatitudeDegrees>43.34007530473172664642333984375</LatitudeDegrees>
              <LongitudeDegrees>-4.017871655523777008056640625</LongitudeDegrees>
            </Position>
            <AltitudeMeters>96</AltitudeMeters>
            <DistanceMeters>8947.2201843841</DistanceMeters>
          </Trackpoint>
          <Trackpoint>
            <Time>2021-01-13T14:49:40.000Z</Time>
            <Position>
              <LatitudeDegrees>43.34012475796043872833251953125</LatitudeDegrees>
              <LongitudeDegrees>-4.01797651313245296478271484375</LongitudeDegrees>
            </Position>
            <AltitudeMeters>95.8000030517578125</AltitudeMeters>
            <DistanceMeters>8957.3364018758</DistanceMeters>
          </Trackpoint>
          <Trackpoint>
            <Time>2021-01-13T14:49:41.000Z</Time>
            <Position>
              <LatitudeDegrees>43.340165577828884124755859375</LatitudeDegrees>
              <LongitudeDegrees>-4.018084220588207244873046875</LongitudeDegrees>
            </Position>
            <AltitudeMeters>95.8000030517578125</AltitudeMeters>
            <DistanceMeters>8967.1674195331</DistanceMeters>
          </Trackpoint>
          <Trackpoint>
            <Time>2021-01-13T14:49:42.000Z</Time>
            <Position>
              <LatitudeDegrees>43.34019566886126995086669921875</LatitudeDegrees>
              <LongitudeDegrees>-4.01819578371942043304443359375</LongitudeDegrees>
            </Position>
            <AltitudeMeters>95.8000030517578125</AltitudeMeters>
            <DistanceMeters>8976.7993978027</DistanceMeters>
          </Trackpoint>
          <Trackpoint>
            <Time>2021-01-13T14:49:43.000Z</Time>
            <Position>
              <LatitudeDegrees>43.34021813236176967620849609375</LatitudeDegrees>
              <LongitudeDegrees>-4.01830977760255336761474609375</LongitudeDegrees>
            </Position>
            <AltitudeMeters>95.8000030517578125</AltitudeMeters>
            <DistanceMeters>8986.3598598086</DistanceMeters>
          </Trackpoint>
          <Trackpoint>
            <Time>2021-01-13T14:49:45.000Z</Time>
            <Position>
              <LatitudeDegrees>43.34027177654206752777099609375</LatitudeDegrees>
              <LongitudeDegrees>-4.018528796732425689697265625</LongitudeDegrees>
            </Position>
            <AltitudeMeters>95.8000030517578125</AltitudeMeters>
            <DistanceMeters>9005.0678180835</DistanceMeters>
          </Trackpoint>
          <Trackpoint>
            <Time>2021-01-13T14:49:46.000Z</Time>
            <Position>
              <LatitudeDegrees>43.34031770937144756317138671875</LatitudeDegrees>
              <LongitudeDegrees>-4.01862191967666149139404296875</LongitudeDegrees>
            </Position>
            <AltitudeMeters>95.8000030517578125</AltitudeMeters>
            <DistanceMeters>9014.1765140586</DistanceMeters>
          </Trackpoint>
          <Trackpoint>
            <Time>2021-01-13T14:49:47.000Z</Time>
            <Position>
              <LatitudeDegrees>43.340380825102329254150390625</LatitudeDegrees>
              <LongitudeDegrees>-4.01868713088333606719970703125</LongitudeDegrees>
            </Position>
            <AltitudeMeters>95.59999847412109375</AltitudeMeters>
            <DistanceMeters>9022.96378802</DistanceMeters>
          </Trackpoint>
          <Trackpoint>
            <Time>2021-01-13T14:49:48.000Z</Time>
            <Position>
              <LatitudeDegrees>43.34045601077377796173095703125</LatitudeDegrees>
              <LongitudeDegrees>-4.01872158050537109375</LongitudeDegrees>
            </Position>
            <AltitudeMeters>95.59999847412109375</AltitudeMeters>
            <DistanceMeters>9031.7843967655</DistanceMeters>
          </Trackpoint>
          <Trackpoint>
            <Time>2021-01-13T14:49:49.000Z</Time>
            <Position>
              <LatitudeDegrees>43.34053765051066875457763671875</LatitudeDegrees>
              <LongitudeDegrees>-4.0187267772853374481201171875</LongitudeDegrees>
            </Position>
            <AltitudeMeters>95.59999847412109375</AltitudeMeters>
            <DistanceMeters>9040.8806921903</DistanceMeters>
          </Trackpoint>
          <Trackpoint>
            <Time>2021-01-13T14:49:51.000Z</Time>
            <Position>
              <LatitudeDegrees>43.34070310927927494049072265625</LatitudeDegrees>
              <LongitudeDegrees>-4.0186818502843379974365234375</LongitudeDegrees>
            </Position>
            <AltitudeMeters>95.59999847412109375</AltitudeMeters>
            <DistanceMeters>9059.6522569358</DistanceMeters>
          </Trackpoint>
          <Trackpoint>
            <Time>2021-01-13T14:49:53.000Z</Time>
            <Position>
              <LatitudeDegrees>43.3408674784004688262939453125</LatitudeDegrees>
              <LongitudeDegrees>-4.0186463110148906707763671875</LongitudeDegrees>
            </Position>
            <AltitudeMeters>95.40000152587890625</AltitudeMeters>
            <DistanceMeters>9078.1717421722</DistanceMeters>
          </Trackpoint>
          <Trackpoint>
            <Time>2021-01-13T14:49:55.000Z</Time>
            <Position>
              <LatitudeDegrees>43.34102623164653778076171875</LatitudeDegrees>
              <LongitudeDegrees>-4.01867204345762729644775390625</LongitudeDegrees>
            </Position>
            <AltitudeMeters>95.40000152587890625</AltitudeMeters>
            <DistanceMeters>9095.9633216317</DistanceMeters>
          </Trackpoint>
          <Trackpoint>
            <Time>2021-01-13T14:49:57.000Z</Time>
            <Position>
              <LatitudeDegrees>43.34116302430629730224609375</LatitudeDegrees>
              <LongitudeDegrees>-4.018742032349109649658203125</LongitudeDegrees>
            </Position>
            <AltitudeMeters>95.1999969482421875</AltitudeMeters>
            <DistanceMeters>9112.2081655521</DistanceMeters>
          </Trackpoint>
          <Trackpoint>
            <Time>2021-01-13T14:49:58.000Z</Time>
            <Position>
              <LatitudeDegrees>43.3412253856658935546875</LatitudeDegrees>
              <LongitudeDegrees>-4.01878151111304759979248046875</LongitudeDegrees>
            </Position>
            <AltitudeMeters>95</AltitudeMeters>
            <DistanceMeters>9119.8499915357</DistanceMeters>
          </Trackpoint>
          <Trackpoint>
            <Time>2021-01-13T14:49:59.000Z</Time>
            <Position>
              <LatitudeDegrees>43.34128783084452152252197265625</LatitudeDegrees>
              <LongitudeDegrees>-4.018815122544765472412109375</LongitudeDegrees>
            </Position>
            <AltitudeMeters>95</AltitudeMeters>
            <DistanceMeters>9127.314277949</DistanceMeters>
          </Trackpoint>
          <Trackpoint>
            <Time>2021-01-13T14:50:00.000Z</Time>
            <Position>
              <LatitudeDegrees>43.34134767763316631317138671875</LatitudeDegrees>
              <LongitudeDegrees>-4.01883834041655063629150390625</LongitudeDegrees>
            </Position>
            <AltitudeMeters>95</AltitudeMeters>
            <DistanceMeters>9134.2349372715</DistanceMeters>
          </Trackpoint>
          <Trackpoint>
            <Time>2021-01-13T14:50:01.000Z</Time>
            <Position>
              <LatitudeDegrees>43.34140785969793796539306640625</LatitudeDegrees>
              <LongitudeDegrees>-4.0188504941761493682861328125</LongitudeDegrees>
            </Position>
            <AltitudeMeters>95</AltitudeMeters>
            <DistanceMeters>9141.0052155545</DistanceMeters>
          </Trackpoint>
          <Trackpoint>
            <Time>2021-01-13T14:50:03.000Z</Time>
            <Position>
              <LatitudeDegrees>43.3415179140865802764892578125</LatitudeDegrees>
              <LongitudeDegrees>-4.0188397653400897979736328125</LongitudeDegrees>
            </Position>
            <AltitudeMeters>95</AltitudeMeters>
            <DistanceMeters>9153.2853733961</DistanceMeters>
          </Trackpoint>
          <Trackpoint>
            <Time>2021-01-13T14:50:05.000Z</Time>
            <Position>
              <LatitudeDegrees>43.3416184969246387481689453125</LatitudeDegrees>
              <LongitudeDegrees>-4.01880280114710330963134765625</LongitudeDegrees>
            </Position>
            <AltitudeMeters>95</AltitudeMeters>
            <DistanceMeters>9164.8727892705</DistanceMeters>
          </Trackpoint>
          <Trackpoint>
            <Time>2021-01-13T14:50:07.000Z</Time>
            <Position>
              <LatitudeDegrees>43.3417023159563541412353515625</LatitudeDegrees>
              <LongitudeDegrees>-4.0187478996813297271728515625</LongitudeDegrees>
            </Position>
            <AltitudeMeters>95</AltitudeMeters>
            <DistanceMeters>9175.2062617725</DistanceMeters>
          </Trackpoint>
          <Trackpoint>
            <Time>2021-01-13T14:50:08.000Z</Time>
            <Position>
              <LatitudeDegrees>43.341738022863864898681640625</LatitudeDegrees>
              <LongitudeDegrees>-4.01871412061154842376708984375</LongitudeDegrees>
            </Position>
            <AltitudeMeters>95</AltitudeMeters>
            <DistanceMeters>9180.0311490326</DistanceMeters>
          </Trackpoint>
          <Trackpoint>
            <Time>2021-01-13T14:50:09.000Z</Time>
            <Position>
              <LatitudeDegrees>43.34177180193364620208740234375</LatitudeDegrees>
              <LongitudeDegrees>-4.0186786651611328125</LongitudeDegrees>
            </Position>
            <AltitudeMeters>95.1999969482421875</AltitudeMeters>
            <DistanceMeters>9184.7596233399</DistanceMeters>
          </Trackpoint>
          <Trackpoint>
            <Time>2021-01-13T14:50:11.000Z</Time>
            <Position>
              <LatitudeDegrees>43.34183902479708194732666015625</LatitudeDegrees>
              <LongitudeDegrees>-4.0186094306409358978271484375</LongitudeDegrees>
            </Position>
            <AltitudeMeters>95.59999847412109375</AltitudeMeters>
            <DistanceMeters>9194.1075669506</DistanceMeters>
          </Trackpoint>
          <Trackpoint>
            <Time>2021-01-13T14:50:13.000Z</Time>
            <Position>
              <LatitudeDegrees>43.34191697649657726287841796875</LatitudeDegrees>
              <LongitudeDegrees>-4.01856039650738239288330078125</LongitudeDegrees>
            </Position>
            <AltitudeMeters>96.1999969482421875</AltitudeMeters>
            <DistanceMeters>9203.6481733545</DistanceMeters>
          </Trackpoint>
          <Trackpoint>
            <Time>2021-01-13T14:50:15.000Z</Time>
            <Position>
              <LatitudeDegrees>43.34199274890124797821044921875</LatitudeDegrees>
              <LongitudeDegrees>-4.01853189803659915924072265625</LongitudeDegrees>
            </Position>
            <AltitudeMeters>96.8000030517578125</AltitudeMeters>
            <DistanceMeters>9212.3911475108</DistanceMeters>
          </Trackpoint>
          <Trackpoint>
            <Time>2021-01-13T14:50:17.000Z</Time>
            <Position>
              <LatitudeDegrees>43.342072963714599609375</LatitudeDegrees>
              <LongitudeDegrees>-4.0185271203517913818359375</LongitudeDegrees>
            </Position>
            <AltitudeMeters>97.40000152587890625</AltitudeMeters>
            <DistanceMeters>9221.3277014367</DistanceMeters>
          </Trackpoint>
          <Trackpoint>
            <Time>2021-01-13T14:50:19.000Z</Time>
            <Position>
              <LatitudeDegrees>43.342150412499904632568359375</LatitudeDegrees>
              <LongitudeDegrees>-4.0185497514903545379638671875</LongitudeDegrees>
            </Position>
            <AltitudeMeters>98</AltitudeMeters>
            <DistanceMeters>9230.141141036</DistanceMeters>
          </Trackpoint>
          <Trackpoint>
            <Time>2021-01-13T14:50:20.000Z</Time>
            <Position>
              <LatitudeDegrees>43.34218620322644710540771484375</LatitudeDegrees>
              <LongitudeDegrees>-4.0185700356960296630859375</LongitudeDegrees>
            </Position>
            <AltitudeMeters>98.1999969482421875</AltitudeMeters>
            <DistanceMeters>9234.4489022983</DistanceMeters>
          </Trackpoint>
          <Trackpoint>
            <Time>2021-01-13T14:50:21.000Z</Time>
            <Position>
              <LatitudeDegrees>43.34222107194364070892333984375</LatitudeDegrees>
              <LongitudeDegrees>-4.018595851957798004150390625</LongitudeDegrees>
            </Position>
            <AltitudeMeters>98.40000152587890625</AltitudeMeters>
            <DistanceMeters>9238.855109778</DistanceMeters>
          </Trackpoint>
          <Trackpoint>
            <Time>2021-01-13T14:50:22.000Z</Time>
            <Position>
              <LatitudeDegrees>43.3422553539276123046875</LatitudeDegrees>
              <LongitudeDegrees>-4.0186261944472789764404296875</LongitudeDegrees>
            </Position>
            <AltitudeMeters>98.8000030517578125</AltitudeMeters>
            <DistanceMeters>9243.3925731985</DistanceMeters>
          </Trackpoint>
          <Trackpoint>
            <Time>2021-01-13T14:50:23.000Z</Time>
            <Position>
              <LatitudeDegrees>43.34228980354964733123779296875</LatitudeDegrees>
              <LongitudeDegrees>-4.01866366155445575714111328125</LongitudeDegrees>
            </Position>
            <AltitudeMeters>99.1999969482421875</AltitudeMeters>
            <DistanceMeters>9248.2825264113</DistanceMeters>
          </Trackpoint>
          <Trackpoint>
            <Time>2021-01-13T14:50:25.000Z</Time>
            <Position>
              <LatitudeDegrees>43.3423561044037342071533203125</LatitudeDegrees>
              <LongitudeDegrees>-4.018758125603199005126953125</LongitudeDegrees>
            </Position>
            <AltitudeMeters>99.59999847412109375</AltitudeMeters>
            <DistanceMeters>9258.9089607113</DistanceMeters>
          </Trackpoint>
          <Trackpoint>
            <Time>2021-01-13T14:50:27.000Z</Time>
            <Position>
              <LatitudeDegrees>43.342418633401393890380859375</LatitudeDegrees>
              <LongitudeDegrees>-4.0188571996986865997314453125</LongitudeDegrees>
            </Position>
            <AltitudeMeters>100</AltitudeMeters>
            <DistanceMeters>9269.5268938625</DistanceMeters>
          </Trackpoint>
          <Trackpoint>
            <Time>2021-01-13T14:50:29.000Z</Time>
            <Position>
              <LatitudeDegrees>43.3424778096377849578857421875</LatitudeDegrees>
              <LongitudeDegrees>-4.01895401068031787872314453125</LongitudeDegrees>
            </Position>
            <AltitudeMeters>100.59999847412109375</AltitudeMeters>
            <DistanceMeters>9279.7642307822</DistanceMeters>
          </Trackpoint>
          <Trackpoint>
            <Time>2021-01-13T14:50:31.000Z</Time>
            <Position>
              <LatitudeDegrees>43.3425368182361125946044921875</LatitudeDegrees>
              <LongitudeDegrees>-4.0190489776432514190673828125</LongitudeDegrees>
            </Position>
            <AltitudeMeters>101.1999969482421875</AltitudeMeters>
            <DistanceMeters>9289.8755375968</DistanceMeters>
          </Trackpoint>
          <Trackpoint>
            <Time>2021-01-13T14:50:33.000Z</Time>
            <Position>
              <LatitudeDegrees>43.34259222261607646942138671875</LatitudeDegrees>
              <LongitudeDegrees>-4.01914444752037525177001953125</LongitudeDegrees>
            </Position>
            <AltitudeMeters>102.59999847412109375</AltitudeMeters>
            <DistanceMeters>9299.7624267691</DistanceMeters>
          </Trackpoint>
          <Trackpoint>
            <Time>2021-01-13T14:50:35.000Z</Time>
            <Position>
              <LatitudeDegrees>43.34264771081507205963134765625</LatitudeDegrees>
              <LongitudeDegrees>-4.01924016885459423065185546875</LongitudeDegrees>
            </Position>
            <AltitudeMeters>103.1999969482421875</AltitudeMeters>
            <DistanceMeters>9309.6707561489</DistanceMeters>
          </Trackpoint>
          <Trackpoint>
            <Time>2021-01-13T14:50:37.000Z</Time>
            <Position>
              <LatitudeDegrees>43.342705629765987396240234375</LatitudeDegrees>
              <LongitudeDegrees>-4.0193339623510837554931640625</LongitudeDegrees>
            </Position>
            <AltitudeMeters>103.40000152587890625</AltitudeMeters>
            <DistanceMeters>9319.6304443838</DistanceMeters>
          </Trackpoint>
          <Trackpoint>
            <Time>2021-01-13T14:50:39.000Z</Time>
            <Position>
              <LatitudeDegrees>43.342763297259807586669921875</LatitudeDegrees>
              <LongitudeDegrees>-4.01942909695208072662353515625</LongitudeDegrees>
            </Position>
            <AltitudeMeters>103.59999847412109375</AltitudeMeters>
            <DistanceMeters>9329.6556501584</DistanceMeters>
          </Trackpoint>
          <Trackpoint>
            <Time>2021-01-13T14:50:40.000Z</Time>
            <Position>
              <LatitudeDegrees>43.34279104135930538177490234375</LatitudeDegrees>
              <LongitudeDegrees>-4.0194794721901416778564453125</LongitudeDegrees>
            </Position>
            <AltitudeMeters>103.59999847412109375</AltitudeMeters>
            <DistanceMeters>9334.7703477504</DistanceMeters>
          </Trackpoint>
          <Trackpoint>
            <Time>2021-01-13T14:50:41.000Z</Time>
            <Position>
              <LatitudeDegrees>43.34281794726848602294921875</LatitudeDegrees>
              <LongitudeDegrees>-4.01953118853271007537841796875</LongitudeDegrees>
            </Position>
            <AltitudeMeters>103.8000030517578125</AltitudeMeters>
            <DistanceMeters>9339.9176037462</DistanceMeters>
          </Trackpoint>
          <Trackpoint>
            <Time>2021-01-13T14:50:43.000Z</Time>
            <Position>
              <LatitudeDegrees>43.3428690768778324127197265625</LatitudeDegrees>
              <LongitudeDegrees>-4.0196393989026546478271484375</LongitudeDegrees>
            </Position>
            <AltitudeMeters>104.1999969482421875</AltitudeMeters>
            <DistanceMeters>9350.3627645203</DistanceMeters>
          </Trackpoint>
          <Trackpoint>
            <Time>2021-01-13T14:50:44.000Z</Time>
            <Position>
              <LatitudeDegrees>43.34289095364511013031005859375</LatitudeDegrees>
              <LongitudeDegrees>-4.0196970663964748382568359375</LongitudeDegrees>
            </Position>
            <AltitudeMeters>104.40000152587890625</AltitudeMeters>
            <DistanceMeters>9355.6279648662</DistanceMeters>
          </Trackpoint>
          <Trackpoint>
            <Time>2021-01-13T14:50:45.000Z</Time>
            <Position>
              <LatitudeDegrees>43.34290805272758007049560546875</LatitudeDegrees>
              <LongitudeDegrees>-4.01975833810865879058837890625</LongitudeDegrees>
            </Position>
            <AltitudeMeters>104.40000152587890625</AltitudeMeters>
            <DistanceMeters>9360.9409695683</DistanceMeters>
          </Trackpoint>
          <Trackpoint>
            <Time>2021-01-13T14:50:47.000Z</Time>
            <Position>
              <LatitudeDegrees>43.34292783401906490325927734375</LatitudeDegrees>
              <LongitudeDegrees>-4.0198915265500545501708984375</LongitudeDegrees>
            </Position>
            <AltitudeMeters>104.59999847412109375</AltitudeMeters>
            <DistanceMeters>9371.944390171</DistanceMeters>
          </Trackpoint>
          <Trackpoint>
            <Time>2021-01-13T14:50:48.000Z</Time>
            <Position>
              <LatitudeDegrees>43.3429324440658092498779296875</LatitudeDegrees>
              <LongitudeDegrees>-4.01996076107025146484375</LongitudeDegrees>
            </Position>
            <AltitudeMeters>104.8000030517578125</AltitudeMeters>
            <DistanceMeters>9377.5710630789</DistanceMeters>
          </Trackpoint>
          <Trackpoint>
            <Time>2021-01-13T14:50:49.000Z</Time>
            <Position>
              <LatitudeDegrees>43.34293638356029987335205078125</LatitudeDegrees>
              <LongitudeDegrees>-4.02003058232367038726806640625</LongitudeDegrees>
            </Position>
            <AltitudeMeters>104.8000030517578125</AltitudeMeters>
            <DistanceMeters>9383.2393090146</DistanceMeters>
          </Trackpoint>
          <Trackpoint>
            <Time>2021-01-13T14:50:51.000Z</Time>
            <Position>
              <LatitudeDegrees>43.34294074214994907379150390625</LatitudeDegrees>
              <LongitudeDegrees>-4.0201718173921108245849609375</LongitudeDegrees>
            </Position>
            <AltitudeMeters>104.8000030517578125</AltitudeMeters>
            <DistanceMeters>9394.6820407006</DistanceMeters>
          </Trackpoint>
          <Trackpoint>
            <Time>2021-01-13T14:50:53.000Z</Time>
            <Position>
              <LatitudeDegrees>43.342943005263805389404296875</LatitudeDegrees>
              <LongitudeDegrees>-4.0203153155744075775146484375</LongitudeDegrees>
            </Position>
            <AltitudeMeters>104.8000030517578125</AltitudeMeters>
            <DistanceMeters>9406.3001981571</DistanceMeters>
          </Trackpoint>
          <Trackpoint>
            <Time>2021-01-13T14:50:55.000Z</Time>
            <Position>
              <LatitudeDegrees>43.34294912405312061309814453125</LatitudeDegrees>
              <LongitudeDegrees>-4.02045822702348232269287109375</LongitudeDegrees>
            </Position>
            <AltitudeMeters>105</AltitudeMeters>
            <DistanceMeters>9417.888003675</DistanceMeters>
          </Trackpoint>
          <Trackpoint>
            <Time>2021-01-13T14:50:57.000Z</Time>
            <Position>
              <LatitudeDegrees>43.34296555258333683013916015625</LatitudeDegrees>
              <LongitudeDegrees>-4.0206013061106204986572265625</LongitudeDegrees>
            </Position>
            <AltitudeMeters>105</AltitudeMeters>
            <DistanceMeters>9429.6133144965</DistanceMeters>
          </Trackpoint>
          <Trackpoint>
            <Time>2021-01-13T14:50:58.000Z</Time>
            <Position>
              <LatitudeDegrees>43.34297846071422100067138671875</LatitudeDegrees>
              <LongitudeDegrees>-4.0206717140972614288330078125</LongitudeDegrees>
            </Position>
            <AltitudeMeters>105</AltitudeMeters>
            <DistanceMeters>9435.4911604008</DistanceMeters>
          </Trackpoint>
          <Trackpoint>
            <Time>2021-01-13T14:50:59.000Z</Time>
            <Position>
              <LatitudeDegrees>43.34299539215862751007080078125</LatitudeDegrees>
              <LongitudeDegrees>-4.0207397751510143280029296875</LongitudeDegrees>
            </Position>
            <AltitudeMeters>105</AltitudeMeters>
            <DistanceMeters>9441.3134371866</DistanceMeters>
          </Trackpoint>
          <Trackpoint>
            <Time>2021-01-13T14:51:01.000Z</Time>
            <Position>
              <LatitudeDegrees>43.34303981624543666839599609375</LatitudeDegrees>
              <LongitudeDegrees>-4.02086927555501461029052734375</LongitudeDegrees>
            </Position>
            <AltitudeMeters>105.1999969482421875</AltitudeMeters>
            <DistanceMeters>9452.9028011479</DistanceMeters>
          </Trackpoint>
          <Trackpoint>
            <Time>2021-01-13T14:51:03.000Z</Time>
            <Position>
              <LatitudeDegrees>43.3430940471589565277099609375</LatitudeDegrees>
              <LongitudeDegrees>-4.02099248953163623809814453125</LongitudeDegrees>
            </Position>
            <AltitudeMeters>105.40000152587890625</AltitudeMeters>
            <DistanceMeters>9464.5605303642</DistanceMeters>
          </Trackpoint>
          <Trackpoint>
            <Time>2021-01-13T14:51:04.000Z</Time>
            <Position>
              <LatitudeDegrees>43.34312497638165950775146484375</LatitudeDegrees>
              <LongitudeDegrees>-4.02105149812996387481689453125</LongitudeDegrees>
            </Position>
            <AltitudeMeters>105.40000152587890625</AltitudeMeters>
            <DistanceMeters>9470.4475867927</DistanceMeters>
          </Trackpoint>
          <Trackpoint>
            <Time>2021-01-13T14:51:05.000Z</Time>
            <Position>
              <LatitudeDegrees>43.34315800108015537261962890625</LatitudeDegrees>
              <LongitudeDegrees>-4.021108411252498626708984375</LongitudeDegrees>
            </Position>
            <AltitudeMeters>105.40000152587890625</AltitudeMeters>
            <DistanceMeters>9476.3407755732</DistanceMeters>
          </Trackpoint>
          <Trackpoint>
            <Time>2021-01-13T14:51:07.000Z</Time>
            <Position>
              <LatitudeDegrees>43.34322606213390827178955078125</LatitudeDegrees>
              <LongitudeDegrees>-4.02121896855533123016357421875</LongitudeDegrees>
            </Position>
            <AltitudeMeters>105.59999847412109375</AltitudeMeters>
            <DistanceMeters>9488.0657013207</DistanceMeters>
          </Trackpoint>
          <Trackpoint>
            <Time>2021-01-13T14:51:09.000Z</Time>
            <Position>
              <LatitudeDegrees>43.3432901836931705474853515625</LatitudeDegrees>
              <LongitudeDegrees>-4.02133564464747905731201171875</LongitudeDegrees>
            </Position>
            <AltitudeMeters>105.59999847412109375</AltitudeMeters>
            <DistanceMeters>9499.9032993142</DistanceMeters>
          </Trackpoint>
          <Trackpoint>
            <Time>2021-01-13T14:51:11.000Z</Time>
            <Position>
              <LatitudeDegrees>43.34335028193891048431396484375</LatitudeDegrees>
              <LongitudeDegrees>-4.02145936153829097747802734375</LongitudeDegrees>
            </Position>
            <AltitudeMeters>105.59999847412109375</AltitudeMeters>
            <DistanceMeters>9511.9462249458</DistanceMeters>
          </Trackpoint>
          <Trackpoint>
            <Time>2021-01-13T14:51:12.000Z</Time>
            <Position>
              <LatitudeDegrees>43.3433766849339008331298828125</LatitudeDegrees>
              <LongitudeDegrees>-4.021524153649806976318359375</LongitudeDegrees>
            </Position>
            <AltitudeMeters>105.59999847412109375</AltitudeMeters>
            <DistanceMeters>9517.9577443817</DistanceMeters>
          </Trackpoint>
          <Trackpoint>
            <Time>2021-01-13T14:51:13.000Z</Time>
            <Position>
              <LatitudeDegrees>43.343399651348590850830078125</LatitudeDegrees>
              <LongitudeDegrees>-4.02159087359905242919921875</LongitudeDegrees>
            </Position>
            <AltitudeMeters>105.59999847412109375</AltitudeMeters>
            <DistanceMeters>9523.9331039742</DistanceMeters>
          </Trackpoint>
          <Trackpoint>
            <Time>2021-01-13T14:51:14.000Z</Time>
            <Position>
              <LatitudeDegrees>43.3434189297258853912353515625</LatitudeDegrees>
              <LongitudeDegrees>-4.02165918610990047454833984375</LongitudeDegrees>
            </Position>
            <AltitudeMeters>105.59999847412109375</AltitudeMeters>
            <DistanceMeters>9529.8644763133</DistanceMeters>
          </Trackpoint>
          <Trackpoint>
            <Time>2021-01-13T14:51:15.000Z</Time>
            <Position>
              <LatitudeDegrees>43.343433849513530731201171875</LatitudeDegrees>
              <LongitudeDegrees>-4.0217296779155731201171875</LongitudeDegrees>
            </Position>
            <AltitudeMeters>105.40000152587890625</AltitudeMeters>
            <DistanceMeters>9535.806496079</DistanceMeters>
          </Trackpoint>
          <Trackpoint>
            <Time>2021-01-13T14:51:17.000Z</Time>
            <Position>
              <LatitudeDegrees>43.34345388226211071014404296875</LatitudeDegrees>
              <LongitudeDegrees>-4.02187510393559932708740234375</LongitudeDegrees>
            </Position>
            <AltitudeMeters>105.40000152587890625</AltitudeMeters>
            <DistanceMeters>9547.7874015186</DistanceMeters>
          </Trackpoint>
          <Trackpoint>
            <Time>2021-01-13T14:51:19.000Z</Time>
            <Position>
              <LatitudeDegrees>43.34346645511686801910400390625</LatitudeDegrees>
              <LongitudeDegrees>-4.02202212251722812652587890625</LongitudeDegrees>
            </Position>
            <AltitudeMeters>105.40000152587890625</AltitudeMeters>
            <DistanceMeters>9559.7698142748</DistanceMeters>
          </Trackpoint>
          <Trackpoint>
            <Time>2021-01-13T14:51:21.000Z</Time>
            <Position>
              <LatitudeDegrees>43.34347567521035671234130859375</LatitudeDegrees>
              <LongitudeDegrees>-4.02216964401304721832275390625</LongitudeDegrees>
            </Position>
            <AltitudeMeters>105.40000152587890625</AltitudeMeters>
            <DistanceMeters>9571.7552410953</DistanceMeters>
          </Trackpoint>
          <Trackpoint>
            <Time>2021-01-13T14:51:23.000Z</Time>
            <Position>
              <LatitudeDegrees>43.3434812910854816436767578125</LatitudeDegrees>
              <LongitudeDegrees>-4.02231968007981777191162109375</LongitudeDegrees>
            </Position>
            <AltitudeMeters>105.40000152587890625</AltitudeMeters>
            <DistanceMeters>9583.9156905873</DistanceMeters>
          </Trackpoint>
          <Trackpoint>
            <Time>2021-01-13T14:51:25.000Z</Time>
            <Position>
              <LatitudeDegrees>43.34348439238965511322021484375</LatitudeDegrees>
              <LongitudeDegrees>-4.02247357182204723358154296875</LongitudeDegrees>
            </Position>
            <AltitudeMeters>105.40000152587890625</AltitudeMeters>
            <DistanceMeters>9596.3776027473</DistanceMeters>
          </Trackpoint>
          <Trackpoint>
            <Time>2021-01-13T14:51:26.000Z</Time>
            <Position>
              <LatitudeDegrees>43.34348556585609912872314453125</LatitudeDegrees>
              <LongitudeDegrees>-4.0225531160831451416015625</LongitudeDegrees>
            </Position>
            <AltitudeMeters>105.40000152587890625</AltitudeMeters>
            <DistanceMeters>9602.8170212793</DistanceMeters>
          </Trackpoint>
          <Trackpoint>
            <Time>2021-01-13T14:51:27.000Z</Time>
            <Position>
              <LatitudeDegrees>43.34348707459867000579833984375</LatitudeDegrees>
              <LongitudeDegrees>-4.022635258734226226806640625</LongitudeDegrees>
            </Position>
            <AltitudeMeters>105.40000152587890625</AltitudeMeters>
            <DistanceMeters>9609.4682124883</DistanceMeters>
          </Trackpoint>
          <Trackpoint>
            <Time>2021-01-13T14:51:29.000Z</Time>
            <Position>
              <LatitudeDegrees>43.34348657168447971343994140625</LatitudeDegrees>
              <LongitudeDegrees>-4.02280851267278194427490234375</LongitudeDegrees>
            </Position>
            <AltitudeMeters>105.40000152587890625</AltitudeMeters>
            <DistanceMeters>9623.4919792745</DistanceMeters>
          </Trackpoint>
          <Trackpoint>
            <Time>2021-01-13T14:51:31.000Z</Time>
            <Position>
              <LatitudeDegrees>43.34346729330718517303466796875</LatitudeDegrees>
              <LongitudeDegrees>-4.02299442328512668609619140625</LongitudeDegrees>
            </Position>
            <AltitudeMeters>105.40000152587890625</AltitudeMeters>
            <DistanceMeters>9638.6923926232</DistanceMeters>
          </Trackpoint>
          <Trackpoint>
            <Time>2021-01-13T14:51:32.000Z</Time>
            <Position>
              <LatitudeDegrees>43.34344734437763690948486328125</LatitudeDegrees>
              <LongitudeDegrees>-4.0230903960764408111572265625</LongitudeDegrees>
            </Position>
            <AltitudeMeters>105.1999969482421875</AltitudeMeters>
            <DistanceMeters>9646.771898958</DistanceMeters>
          </Trackpoint>
          <Trackpoint>
            <Time>2021-01-13T14:51:33.000Z</Time>
            <Position>
              <LatitudeDegrees>43.34342219866812229156494140625</LatitudeDegrees>
              <LongitudeDegrees>-4.02318770997226238250732421875</LongitudeDegrees>
            </Position>
            <AltitudeMeters>105.1999969482421875</AltitudeMeters>
            <DistanceMeters>9655.1310096477</DistanceMeters>
          </Trackpoint>
          <Trackpoint>
            <Time>2021-01-13T14:51:35.000Z</Time>
            <Position>
              <LatitudeDegrees>43.34336218424141407012939453125</LatitudeDegrees>
              <LongitudeDegrees>-4.0233886241912841796875</LongitudeDegrees>
            </Position>
            <AltitudeMeters>105.1999969482421875</AltitudeMeters>
            <DistanceMeters>9672.712235904</DistanceMeters>
          </Trackpoint>
          <Trackpoint>
            <Time>2021-01-13T14:51:37.000Z</Time>
            <Position>
              <LatitudeDegrees>43.3432958833873271942138671875</LatitudeDegrees>
              <LongitudeDegrees>-4.02359842322766780853271484375</LongitudeDegrees>
            </Position>
            <AltitudeMeters>105</AltitudeMeters>
            <DistanceMeters>9691.2285514777</DistanceMeters>
          </Trackpoint>
          <Trackpoint>
            <Time>2021-01-13T14:51:38.000Z</Time>
            <Position>
              <LatitudeDegrees>43.34325958974659442901611328125</LatitudeDegrees>
              <LongitudeDegrees>-4.0237056277692317962646484375</LongitudeDegrees>
            </Position>
            <AltitudeMeters>105</AltitudeMeters>
            <DistanceMeters>9700.8003410492</DistanceMeters>
          </Trackpoint>
          <Trackpoint>
            <Time>2021-01-13T14:51:39.000Z</Time>
            <Position>
              <LatitudeDegrees>43.34321918897330760955810546875</LatitudeDegrees>
              <LongitudeDegrees>-4.02381308376789093017578125</LongitudeDegrees>
            </Position>
            <AltitudeMeters>104.59999847412109375</AltitudeMeters>
            <DistanceMeters>9710.5917822917</DistanceMeters>
          </Trackpoint>
          <Trackpoint>
            <Time>2021-01-13T14:51:41.000Z</Time>
            <Position>
              <LatitudeDegrees>43.34311944432556629180908203125</LatitudeDegrees>
              <LongitudeDegrees>-4.02401651255786418914794921875</LongitudeDegrees>
            </Position>
            <AltitudeMeters>104.40000152587890625</AltitudeMeters>
            <DistanceMeters>9730.4512288793</DistanceMeters>
          </Trackpoint>
          <Trackpoint>
            <Time>2021-01-13T14:51:42.000Z</Time>
            <Position>
              <LatitudeDegrees>43.343057669699192047119140625</LatitudeDegrees>
              <LongitudeDegrees>-4.0241082943975925445556640625</LongitudeDegrees>
            </Position>
            <AltitudeMeters>104</AltitudeMeters>
            <DistanceMeters>9740.5741389098</DistanceMeters>
          </Trackpoint>
          <Trackpoint>
            <Time>2021-01-13T14:51:43.000Z</Time>
            <Position>
              <LatitudeDegrees>43.34298650734126567840576171875</LatitudeDegrees>
              <LongitudeDegrees>-4.0241901017725467681884765625</LongitudeDegrees>
            </Position>
            <AltitudeMeters>103.8000030517578125</AltitudeMeters>
            <DistanceMeters>9750.8984317352</DistanceMeters>
          </Trackpoint>
          <Trackpoint>
            <Time>2021-01-13T14:51:45.000Z</Time>
            <Position>
              <LatitudeDegrees>43.3428244851529598236083984375</LatitudeDegrees>
              <LongitudeDegrees>-4.02432764880359172821044921875</LongitudeDegrees>
            </Position>
            <AltitudeMeters>103</AltitudeMeters>
            <DistanceMeters>9772.0921586957</DistanceMeters>
          </Trackpoint>
          <Trackpoint>
            <Time>2021-01-13T14:51:46.000Z</Time>
            <Position>
              <LatitudeDegrees>43.34273773245513439178466796875</LatitudeDegrees>
              <LongitudeDegrees>-4.02439017780125141143798828125</LongitudeDegrees>
            </Position>
            <AltitudeMeters>102.8000030517578125</AltitudeMeters>
            <DistanceMeters>9782.994170719</DistanceMeters>
          </Trackpoint>
          <Trackpoint>
            <Time>2021-01-13T14:51:47.000Z</Time>
            <Position>
              <LatitudeDegrees>43.34264989010989665985107421875</LatitudeDegrees>
              <LongitudeDegrees>-4.0244539640843868255615234375</LongitudeDegrees>
            </Position>
            <AltitudeMeters>102.59999847412109375</AltitudeMeters>
            <DistanceMeters>9794.0508056003</DistanceMeters>
          </Trackpoint>
          <Trackpoint>
            <Time>2021-01-13T14:51:49.000Z</Time>
            <Position>
              <LatitudeDegrees>43.342464230954647064208984375</LatitudeDegrees>
              <LongitudeDegrees>-4.02458379976451396942138671875</LongitudeDegrees>
            </Position>
            <AltitudeMeters>102</AltitudeMeters>
            <DistanceMeters>9817.2342080672</DistanceMeters>
          </Trackpoint>
          <Trackpoint>
            <Time>2021-01-13T14:51:51.000Z</Time>
            <Position>
              <LatitudeDegrees>43.3422578684985637664794921875</LatitudeDegrees>
              <LongitudeDegrees>-4.02468723244965076446533203125</LongitudeDegrees>
            </Position>
            <AltitudeMeters>101.59999847412109375</AltitudeMeters>
            <DistanceMeters>9841.6810192983</DistanceMeters>
          </Trackpoint>
          <Trackpoint>
            <Time>2021-01-13T14:51:53.000Z</Time>
            <Position>
              <LatitudeDegrees>43.3420265279710292816162109375</LatitudeDegrees>
              <LongitudeDegrees>-4.0247404575347900390625</LongitudeDegrees>
            </Position>
            <AltitudeMeters>100.59999847412109375</AltitudeMeters>
            <DistanceMeters>9867.7876094564</DistanceMeters>
          </Trackpoint>
          <Trackpoint>
            <Time>2021-01-13T14:51:55.000Z</Time>
            <Position>
              <LatitudeDegrees>43.34179007448256015777587890625</LatitudeDegrees>
              <LongitudeDegrees>-4.0247825346887111663818359375</LongitudeDegrees>
            </Position>
            <AltitudeMeters>99.40000152587890625</AltitudeMeters>
            <DistanceMeters>9894.3250848773</DistanceMeters>
          </Trackpoint>
          <Trackpoint>
            <Time>2021-01-13T14:51:56.000Z</Time>
            <Position>
              <LatitudeDegrees>43.3416754938662052154541015625</LatitudeDegrees>
              <LongitudeDegrees>-4.024821929633617401123046875</LongitudeDegrees>
            </Position>
            <AltitudeMeters>98.8000030517578125</AltitudeMeters>
            <DistanceMeters>9907.4704088684</DistanceMeters>
          </Trackpoint>
          <Trackpoint>
            <Time>2021-01-13T14:51:57.000Z</Time>
            <Position>
              <LatitudeDegrees>43.34157080389559268951416015625</LatitudeDegrees>
              <LongitudeDegrees>-4.02488688938319683074951171875</LongitudeDegrees>
            </Position>
            <AltitudeMeters>98.1999969482421875</AltitudeMeters>
            <DistanceMeters>9920.2542394165</DistanceMeters>
          </Trackpoint>
          <Trackpoint>
            <Time>2021-01-13T14:51:58.000Z</Time>
            <Position>
              <LatitudeDegrees>43.3414756692945957183837890625</LatitudeDegrees>
              <LongitudeDegrees>-4.02497255243360996246337890625</LongitudeDegrees>
            </Position>
            <AltitudeMeters>97.8000030517578125</AltitudeMeters>
            <DistanceMeters>9932.9109987219</DistanceMeters>
          </Trackpoint>
          <Trackpoint>
            <Time>2021-01-13T14:51:59.000Z</Time>
            <Position>
              <LatitudeDegrees>43.341392017900943756103515625</LatitudeDegrees>
              <LongitudeDegrees>-4.0250695310533046722412109375</LongitudeDegrees>
            </Position>
            <AltitudeMeters>97.59999847412109375</AltitudeMeters>
            <DistanceMeters>9945.089257034</DistanceMeters>
          </Trackpoint>
          <Trackpoint>
            <Time>2021-01-13T14:52:00.000Z</Time>
            <Position>
              <LatitudeDegrees>43.34132420830428600311279296875</LatitudeDegrees>
              <LongitudeDegrees>-4.0251784957945346832275390625</LongitudeDegrees>
            </Position>
            <AltitudeMeters>96.40000152587890625</AltitudeMeters>
            <DistanceMeters>9956.6980838847</DistanceMeters>
          </Trackpoint>
          <Trackpoint>
            <Time>2021-01-13T14:52:01.000Z</Time>
            <Position>
              <LatitudeDegrees>43.34127324633300304412841796875</LatitudeDegrees>
              <LongitudeDegrees>-4.025293998420238494873046875</LongitudeDegrees>
            </Position>
            <AltitudeMeters>96</AltitudeMeters>
            <DistanceMeters>9967.6340032527</DistanceMeters>
          </Trackpoint>
          <Trackpoint>
            <Time>2021-01-13T14:52:02.000Z</Time>
            <Position>
              <LatitudeDegrees>43.34123988635838031768798828125</LatitudeDegrees>
              <LongitudeDegrees>-4.02541033923625946044921875</LongitudeDegrees>
            </Position>
            <AltitudeMeters>95.1999969482421875</AltitudeMeters>
            <DistanceMeters>9977.7573592952</DistanceMeters>
          </Trackpoint>
          <Trackpoint>
            <Time>2021-01-13T14:52:03.000Z</Time>
            <Position>
              <LatitudeDegrees>43.34121742285788059234619140625</LatitudeDegrees>
              <LongitudeDegrees>-4.025521986186504364013671875</LongitudeDegrees>
            </Position>
            <AltitudeMeters>94.8000030517578125</AltitudeMeters>
            <DistanceMeters>9987.1347195</DistanceMeters>
          </Trackpoint>
          <Trackpoint>
            <Time>2021-01-13T14:52:04.000Z</Time>
            <Position>
              <LatitudeDegrees>43.34119680337607860565185546875</LatitudeDegrees>
              <LongitudeDegrees>-4.02562759816646575927734375</LongitudeDegrees>
            </Position>
            <AltitudeMeters>94.1999969482421875</AltitudeMeters>
            <DistanceMeters>9995.9870075309</DistanceMeters>
          </Trackpoint>
          <Trackpoint>
            <Time>2021-01-13T14:52:05.000Z</Time>
            <Position>
              <LatitudeDegrees>43.34117048420011997222900390625</LatitudeDegrees>
              <LongitudeDegrees>-4.0257256664335727691650390625</LongitudeDegrees>
            </Position>
            <AltitudeMeters>93.40000152587890625</AltitudeMeters>
            <DistanceMeters>10004.449188467</DistanceMeters>
          </Trackpoint>
          <Trackpoint>
            <Time>2021-01-13T14:52:06.000Z</Time>
            <Position>
              <LatitudeDegrees>43.34113460965454578399658203125</LatitudeDegrees>
              <LongitudeDegrees>-4.02581308968365192413330078125</LongitudeDegrees>
            </Position>
            <AltitudeMeters>93</AltitudeMeters>
            <DistanceMeters>10012.574944983</DistanceMeters>
          </Trackpoint>
          <Trackpoint>
            <Time>2021-01-13T14:52:07.000Z</Time>
            <Position>
              <LatitudeDegrees>43.34109353832900524139404296875</LatitudeDegrees>
              <LongitudeDegrees>-4.02588970027863979339599609375</LongitudeDegrees>
            </Position>
            <AltitudeMeters>92.8000030517578125</AltitudeMeters>
            <DistanceMeters>10020.279144648</DistanceMeters>
          </Trackpoint>
          <Trackpoint>
            <Time>2021-01-13T14:52:09.000Z</Time>
            <Position>
              <LatitudeDegrees>43.3410062827169895172119140625</LatitudeDegrees>
              <LongitudeDegrees>-4.02601190842688083648681640625</LongitudeDegrees>
            </Position>
            <AltitudeMeters>92.59999847412109375</AltitudeMeters>
            <DistanceMeters>10034.141975775</DistanceMeters>
          </Trackpoint>
          <Trackpoint>
            <Time>2021-01-13T14:52:11.000Z</Time>
            <Position>
              <LatitudeDegrees>43.340923972427845001220703125</LatitudeDegrees>
              <LongitudeDegrees>-4.0261075459420680999755859375</LongitudeDegrees>
            </Position>
            <AltitudeMeters>92.59999847412109375</AltitudeMeters>
            <DistanceMeters>10046.136440245</DistanceMeters>
          </Trackpoint>
          <Trackpoint>
            <Time>2021-01-13T14:52:13.000Z</Time>
            <Position>
              <LatitudeDegrees>43.34082934074103832244873046875</LatitudeDegrees>
              <LongitudeDegrees>-4.02616445906460285186767578125</LongitudeDegrees>
            </Position>
            <AltitudeMeters>92.59999847412109375</AltitudeMeters>
            <DistanceMeters>10057.632709154</DistanceMeters>
          </Trackpoint>
          <Trackpoint>
            <Time>2021-01-13T14:52:14.000Z</Time>
            <Position>
              <LatitudeDegrees>43.3407772891223430633544921875</LatitudeDegrees>
              <LongitudeDegrees>-4.02617066167294979095458984375</LongitudeDegrees>
            </Position>
            <AltitudeMeters>92.59999847412109375</AltitudeMeters>
            <DistanceMeters>10063.447226005</DistanceMeters>
          </Trackpoint>
          <Trackpoint>
            <Time>2021-01-13T14:52:15.000Z</Time>
            <Position>
              <LatitudeDegrees>43.340723477303981781005859375</LatitudeDegrees>
              <LongitudeDegrees>-4.02616730891168117523193359375</LongitudeDegrees>
            </Position>
            <AltitudeMeters>92.59999847412109375</AltitudeMeters>
            <DistanceMeters>10069.442199253</DistanceMeters>
          </Trackpoint>
          <Trackpoint>
            <Time>2021-01-13T14:52:16.000Z</Time>
            <Position>
              <LatitudeDegrees>43.3406715095043182373046875</LatitudeDegrees>
              <LongitudeDegrees>-4.02615993283689022064208984375</LongitudeDegrees>
            </Position>
            <AltitudeMeters>92.8000030517578125</AltitudeMeters>
            <DistanceMeters>10075.256716103</DistanceMeters>
          </Trackpoint>
          <Trackpoint>
            <Time>2021-01-13T14:52:17.000Z</Time>
            <Position>
              <LatitudeDegrees>43.34062180481851100921630859375</LatitudeDegrees>
              <LongitudeDegrees>-4.0261534787714481353759765625</LongitudeDegrees>
            </Position>
            <AltitudeMeters>93</AltitudeMeters>
            <DistanceMeters>10080.812325997</DistanceMeters>
          </Trackpoint>
          <Trackpoint>
            <Time>2021-01-13T14:52:19.000Z</Time>
            <Position>
              <LatitudeDegrees>43.3405328728258609771728515625</LatitudeDegrees>
              <LongitudeDegrees>-4.0261477790772914886474609375</LongitudeDegrees>
            </Position>
            <AltitudeMeters>93.40000152587890625</AltitudeMeters>
            <DistanceMeters>10090.721566697</DistanceMeters>
          </Trackpoint>
          <Trackpoint>
            <Time>2021-01-13T14:52:21.000Z</Time>
            <Position>
              <LatitudeDegrees>43.340452574193477630615234375</LatitudeDegrees>
              <LongitudeDegrees>-4.026154987514019012451171875</LongitudeDegrees>
            </Position>
            <AltitudeMeters>94</AltitudeMeters>
            <DistanceMeters>10099.678307127</DistanceMeters>
          </Trackpoint>
          <Trackpoint>
            <Time>2021-01-13T14:52:22.000Z</Time>
            <Position>
              <LatitudeDegrees>43.3404145203530788421630859375</LatitudeDegrees>
              <LongitudeDegrees>-4.0261591784656047821044921875</LongitudeDegrees>
            </Position>
            <AltitudeMeters>94</AltitudeMeters>
            <DistanceMeters>10103.928030987</DistanceMeters>
          </Trackpoint>
          <Trackpoint>
            <Time>2021-01-13T14:52:23.000Z</Time>
            <Position>
              <LatitudeDegrees>43.34037520922720432281494140625</LatitudeDegrees>
              <LongitudeDegrees>-4.02616135776042938232421875</LongitudeDegrees>
            </Position>
            <AltitudeMeters>94.1999969482421875</AltitudeMeters>
            <DistanceMeters>10108.307515245</DistanceMeters>
          </Trackpoint>
          <Trackpoint>
            <Time>2021-01-13T14:52:25.000Z</Time>
            <Position>
              <LatitudeDegrees>43.34029507823288440704345703125</LatitudeDegrees>
              <LongitudeDegrees>-4.026166386902332305908203125</LongitudeDegrees>
            </Position>
            <AltitudeMeters>94.59999847412109375</AltitudeMeters>
            <DistanceMeters>10117.23598179</DistanceMeters>
          </Trackpoint>
          <Trackpoint>
            <Time>2021-01-13T14:52:26.000Z</Time>
            <Position>
              <LatitudeDegrees>43.3402539230883121490478515625</LatitudeDegrees>
              <LongitudeDegrees>-4.02616814710199832916259765625</LongitudeDegrees>
            </Position>
            <AltitudeMeters>95</AltitudeMeters>
            <DistanceMeters>10121.818004022</DistanceMeters>
          </Trackpoint>
          <Trackpoint>
            <Time>2021-01-13T14:52:27.000Z</Time>
            <Position>
              <LatitudeDegrees>43.34021293558180332183837890625</LatitudeDegrees>
              <LongitudeDegrees>-4.02617166750133037567138671875</LongitudeDegrees>
            </Position>
            <AltitudeMeters>95.1999969482421875</AltitudeMeters>
            <DistanceMeters>10126.38917421</DistanceMeters>
          </Trackpoint>
          <Trackpoint>
            <Time>2021-01-13T14:52:29.000Z</Time>
            <Position>
              <LatitudeDegrees>43.3401305414736270904541015625</LatitudeDegrees>
              <LongitudeDegrees>-4.026175439357757568359375</LongitudeDegrees>
            </Position>
            <AltitudeMeters>96</AltitudeMeters>
            <DistanceMeters>10135.565035628</DistanceMeters>
          </Trackpoint>
          <Trackpoint>
            <Time>2021-01-13T14:52:31.000Z</Time>
            <Position>
              <LatitudeDegrees>43.34005032666027545928955078125</LatitudeDegrees>
              <LongitudeDegrees>-4.026170410215854644775390625</LongitudeDegrees>
            </Position>
            <AltitudeMeters>96.40000152587890625</AltitudeMeters>
            <DistanceMeters>10144.503105123</DistanceMeters>
          </Trackpoint>
          <Trackpoint>
            <Time>2021-01-13T14:52:33.000Z</Time>
            <Position>
              <LatitudeDegrees>43.33997287787497043609619140625</LatitudeDegrees>
              <LongitudeDegrees>-4.026156328618526458740234375</LongitudeDegrees>
            </Position>
            <AltitudeMeters>97</AltitudeMeters>
            <DistanceMeters>10153.198958166</DistanceMeters>
          </Trackpoint>
          <Trackpoint>
            <Time>2021-01-13T14:52:35.000Z</Time>
            <Position>
              <LatitudeDegrees>43.3398981951177120208740234375</LatitudeDegrees>
              <LongitudeDegrees>-4.02613176964223384857177734375</LongitudeDegrees>
            </Position>
            <AltitudeMeters>97.8000030517578125</AltitudeMeters>
            <DistanceMeters>10161.745024997</DistanceMeters>
          </Trackpoint>
          <Trackpoint>
            <Time>2021-01-13T14:52:37.000Z</Time>
            <Position>
              <LatitudeDegrees>43.3398277871310710906982421875</LatitudeDegrees>
              <LongitudeDegrees>-4.0260974876582622528076171875</LongitudeDegrees>
            </Position>
            <AltitudeMeters>98.1999969482421875</AltitudeMeters>
            <DistanceMeters>10170.058640643</DistanceMeters>
          </Trackpoint>
          <Trackpoint>
            <Time>2021-01-13T14:52:39.000Z</Time>
            <Position>
              <LatitudeDegrees>43.33976148627698421478271484375</LatitudeDegrees>
              <LongitudeDegrees>-4.02605398558080196380615234375</LongitudeDegrees>
            </Position>
            <AltitudeMeters>98.8000030517578125</AltitudeMeters>
            <DistanceMeters>10178.235356731</DistanceMeters>
          </Trackpoint>
          <Trackpoint>
            <Time>2021-01-13T14:52:41.000Z</Time>
            <Position>
              <LatitudeDegrees>43.3396926708519458770751953125</LatitudeDegrees>
              <LongitudeDegrees>-4.026006795465946197509765625</LongitudeDegrees>
            </Position>
            <AltitudeMeters>99.1999969482421875</AltitudeMeters>
            <DistanceMeters>10186.794093794</DistanceMeters>
          </Trackpoint>
          <Trackpoint>
            <Time>2021-01-13T14:52:42.000Z</Time>
            <Position>
              <LatitudeDegrees>43.33965721540153026580810546875</LatitudeDegrees>
              <LongitudeDegrees>-4.0259841643273830413818359375</LongitudeDegrees>
            </Position>
            <AltitudeMeters>99.40000152587890625</AltitudeMeters>
            <DistanceMeters>10191.144615628</DistanceMeters>
          </Trackpoint>
          <Trackpoint>
            <Time>2021-01-13T14:52:43.000Z</Time>
            <Position>
              <LatitudeDegrees>43.339621759951114654541015625</LatitudeDegrees>
              <LongitudeDegrees>-4.02596195228397846221923828125</LongitudeDegrees>
            </Position>
            <AltitudeMeters>99.59999847412109375</AltitudeMeters>
            <DistanceMeters>10195.480583704</DistanceMeters>
          </Trackpoint>
          <Trackpoint>
            <Time>2021-01-13T14:52:44.000Z</Time>
            <Position>
              <LatitudeDegrees>43.33958663977682590484619140625</LatitudeDegrees>
              <LongitudeDegrees>-4.02594032697379589080810546875</LongitudeDegrees>
            </Position>
            <AltitudeMeters>100</AltitudeMeters>
            <DistanceMeters>10199.764170441</DistanceMeters>
          </Trackpoint>
          <Trackpoint>
            <Time>2021-01-13T14:52:45.000Z</Time>
            <Position>
              <LatitudeDegrees>43.339552022516727447509765625</LatitudeDegrees>
              <LongitudeDegrees>-4.02591769583523273468017578125</LongitudeDegrees>
            </Position>
            <AltitudeMeters>100.1999969482421875</AltitudeMeters>
            <DistanceMeters>10204.030859334</DistanceMeters>
          </Trackpoint>
          <Trackpoint>
            <Time>2021-01-13T14:52:47.000Z</Time>
            <Position>
              <LatitudeDegrees>43.339484296739101409912109375</LatitudeDegrees>
              <LongitudeDegrees>-4.02587628923356533050537109375</LongitudeDegrees>
            </Position>
            <AltitudeMeters>100.8000030517578125</AltitudeMeters>
            <DistanceMeters>10212.28014149</DistanceMeters>
          </Trackpoint>
          <Trackpoint>
            <Time>2021-01-13T14:52:49.000Z</Time>
            <Position>
              <LatitudeDegrees>43.33941833116114139556884765625</LatitudeDegrees>
              <LongitudeDegrees>-4.025837145745754241943359375</LongitudeDegrees>
            </Position>
            <AltitudeMeters>101</AltitudeMeters>
            <DistanceMeters>10220.276513873</DistanceMeters>
          </Trackpoint>
          <Trackpoint>
            <Time>2021-01-13T14:52:51.000Z</Time>
            <Position>
              <LatitudeDegrees>43.33935244940221309661865234375</LatitudeDegrees>
              <LongitudeDegrees>-4.0257980860769748687744140625</LongitudeDegrees>
            </Position>
            <AltitudeMeters>101.40000152587890625</AltitudeMeters>
            <DistanceMeters>10228.262150971</DistanceMeters>
          </Trackpoint>
          <Trackpoint>
            <Time>2021-01-13T14:52:53.000Z</Time>
            <Position>
              <LatitudeDegrees>43.339285813271999359130859375</LatitudeDegrees>
              <LongitudeDegrees>-4.0257595293223857879638671875</LongitudeDegrees>
            </Position>
            <AltitudeMeters>101.8000030517578125</AltitudeMeters>
            <DistanceMeters>10236.309741185</DistanceMeters>
          </Trackpoint>
          <Trackpoint>
            <Time>2021-01-13T14:52:55.000Z</Time>
            <Position>
              <LatitudeDegrees>43.33922102116048336029052734375</LatitudeDegrees>
              <LongitudeDegrees>-4.0257179550826549530029296875</LongitudeDegrees>
            </Position>
            <AltitudeMeters>102.1999969482421875</AltitudeMeters>
            <DistanceMeters>10244.268193055</DistanceMeters>
          </Trackpoint>
          <Trackpoint>
            <Time>2021-01-13T14:52:57.000Z</Time>
            <Position>
              <LatitudeDegrees>43.33915614522993564605712890625</LatitudeDegrees>
              <LongitudeDegrees>-4.0256757102906703948974609375</LongitudeDegrees>
            </Position>
            <AltitudeMeters>103</AltitudeMeters>
            <DistanceMeters>10252.257221802</DistanceMeters>
          </Trackpoint>
          <Trackpoint>
            <Time>2021-01-13T14:52:59.000Z</Time>
            <Position>
              <LatitudeDegrees>43.3390908502042293548583984375</LatitudeDegrees>
              <LongitudeDegrees>-4.025633968412876129150390625</LongitudeDegrees>
            </Position>
            <AltitudeMeters>103.40000152587890625</AltitudeMeters>
            <DistanceMeters>10260.27107878</DistanceMeters>
          </Trackpoint>
          <Trackpoint>
            <Time>2021-01-13T14:53:01.000Z</Time>
            <Position>
              <LatitudeDegrees>43.3390248008072376251220703125</LatitudeDegrees>
              <LongitudeDegrees>-4.025593064725399017333984375</LongitudeDegrees>
            </Position>
            <AltitudeMeters>103.8000030517578125</AltitudeMeters>
            <DistanceMeters>10268.333242896</DistanceMeters>
          </Trackpoint>
          <Trackpoint>
            <Time>2021-01-13T14:53:03.000Z</Time>
            <Position>
              <LatitudeDegrees>43.3389614336192607879638671875</LatitudeDegrees>
              <LongitudeDegrees>-4.02555249631404876708984375</LongitudeDegrees>
            </Position>
            <AltitudeMeters>104.1999969482421875</AltitudeMeters>
            <DistanceMeters>10276.113255904</DistanceMeters>
          </Trackpoint>
          <Trackpoint>
            <Time>2021-01-13T14:53:04.000Z</Time>
            <Position>
              <LatitudeDegrees>43.3389292471110820770263671875</LatitudeDegrees>
              <LongitudeDegrees>-4.02553296647965908050537109375</LongitudeDegrees>
            </Position>
            <AltitudeMeters>104.59999847412109375</AltitudeMeters>
            <DistanceMeters>10280.030155173</DistanceMeters>
          </Trackpoint>
          <Trackpoint>
            <Time>2021-01-13T14:53:05.000Z</Time>
            <Position>
              <LatitudeDegrees>43.33889680914580821990966796875</LatitudeDegrees>
              <LongitudeDegrees>-4.0255144424736499786376953125</LongitudeDegrees>
            </Position>
            <AltitudeMeters>104.8000030517578125</AltitudeMeters>
            <DistanceMeters>10283.940132081</DistanceMeters>
          </Trackpoint>
          <Trackpoint>
            <Time>2021-01-13T14:53:07.000Z</Time>
            <Position>
              <LatitudeDegrees>43.338831849396228790283203125</LatitudeDegrees>
              <LongitudeDegrees>-4.0254778973758220672607421875</LongitudeDegrees>
            </Position>
            <AltitudeMeters>105.1999969482421875</AltitudeMeters>
            <DistanceMeters>10291.751998478</DistanceMeters>
          </Trackpoint>
          <Trackpoint>
            <Time>2021-01-13T14:53:09.000Z</Time>
            <Position>
              <LatitudeDegrees>43.33876739256083965301513671875</LatitudeDegrees>
              <LongitudeDegrees>-4.02544495649635791778564453125</LongitudeDegrees>
            </Position>
            <AltitudeMeters>105.59999847412109375</AltitudeMeters>
            <DistanceMeters>10299.406221885</DistanceMeters>
          </Trackpoint>
          <Trackpoint>
            <Time>2021-01-13T14:53:11.000Z</Time>
            <Position>
              <LatitudeDegrees>43.33870167843997478485107421875</LatitudeDegrees>
              <LongitudeDegrees>-4.02542081661522388458251953125</LongitudeDegrees>
            </Position>
            <AltitudeMeters>106</AltitudeMeters>
            <DistanceMeters>10306.976815996</DistanceMeters>
          </Trackpoint>
          <Trackpoint>
            <Time>2021-01-13T14:53:13.000Z</Time>
            <Position>
              <LatitudeDegrees>43.3386342041194438934326171875</LatitudeDegrees>
              <LongitudeDegrees>-4.025411345064640045166015625</LongitudeDegrees>
            </Position>
            <AltitudeMeters>106.40000152587890625</AltitudeMeters>
            <DistanceMeters>10314.525311367</DistanceMeters>
          </Trackpoint>
          <Trackpoint>
            <Time>2021-01-13T14:53:14.000Z</Time>
            <Position>
              <LatitudeDegrees>43.33860025741159915924072265625</LatitudeDegrees>
              <LongitudeDegrees>-4.02541209943592548370361328125</LongitudeDegrees>
            </Position>
            <AltitudeMeters>106.59999847412109375</AltitudeMeters>
            <DistanceMeters>10318.304938456</DistanceMeters>
          </Trackpoint>
          <Trackpoint>
            <Time>2021-01-13T14:53:15.000Z</Time>
            <Position>
              <LatitudeDegrees>43.338565640151500701904296875</LatitudeDegrees>
              <LongitudeDegrees>-4.02541511692106723785400390625</LongitudeDegrees>
            </Position>
            <AltitudeMeters>106.8000030517578125</AltitudeMeters>
            <DistanceMeters>10322.163771966</DistanceMeters>
          </Trackpoint>
          <Trackpoint>
            <Time>2021-01-13T14:53:17.000Z</Time>
            <Position>
              <LatitudeDegrees>43.338497243821620941162109375</LatitudeDegrees>
              <LongitudeDegrees>-4.02542685158550739288330078125</LongitudeDegrees>
            </Position>
            <AltitudeMeters>107.1999969482421875</AltitudeMeters>
            <DistanceMeters>10329.835671226</DistanceMeters>
          </Trackpoint>
          <Trackpoint>
            <Time>2021-01-13T14:53:19.000Z</Time>
            <Position>
              <LatitudeDegrees>43.33843253552913665771484375</LatitudeDegrees>
              <LongitudeDegrees>-4.0254527516663074493408203125</LongitudeDegrees>
            </Position>
            <AltitudeMeters>107.8000030517578125</AltitudeMeters>
            <DistanceMeters>10337.33616296</DistanceMeters>
          </Trackpoint>
          <Trackpoint>
            <Time>2021-01-13T14:53:20.000Z</Time>
            <Position>
              <LatitudeDegrees>43.3384008519351482391357421875</LatitudeDegrees>
              <LongitudeDegrees>-4.02547144331037998199462890625</LongitudeDegrees>
            </Position>
            <AltitudeMeters>108</AltitudeMeters>
            <DistanceMeters>10341.172701061</DistanceMeters>
          </Trackpoint>
          <Trackpoint>
            <Time>2021-01-13T14:53:21.000Z</Time>
            <Position>
              <LatitudeDegrees>43.33837009035050868988037109375</LatitudeDegrees>
              <LongitudeDegrees>-4.02549256570637226104736328125</LongitudeDegrees>
            </Position>
            <AltitudeMeters>108</AltitudeMeters>
            <DistanceMeters>10344.999812765</DistanceMeters>
          </Trackpoint>
          <Trackpoint>
            <Time>2021-01-13T14:53:23.000Z</Time>
            <Position>
              <LatitudeDegrees>43.33831259049475193023681640625</LatitudeDegrees>
              <LongitudeDegrees>-4.02553933672606945037841796875</LongitudeDegrees>
            </Position>
            <AltitudeMeters>108.59999847412109375</AltitudeMeters>
            <DistanceMeters>10352.435615214</DistanceMeters>
          </Trackpoint>
          <Trackpoint>
            <Time>2021-01-13T14:53:25.000Z</Time>
            <Position>
              <LatitudeDegrees>43.33825576119124889373779296875</LatitudeDegrees>
              <LongitudeDegrees>-4.025588370859622955322265625</LongitudeDegrees>
            </Position>
            <AltitudeMeters>109</AltitudeMeters>
            <DistanceMeters>10359.902925442</DistanceMeters>
          </Trackpoint>
          <Trackpoint>
            <Time>2021-01-13T14:53:27.000Z</Time>
            <Position>
              <LatitudeDegrees>43.33820052444934844970703125</LatitudeDegrees>
              <LongitudeDegrees>-4.025641344487667083740234375</LongitudeDegrees>
            </Position>
            <AltitudeMeters>109.59999847412109375</AltitudeMeters>
            <DistanceMeters>10367.399202232</DistanceMeters>
          </Trackpoint>
          <Trackpoint>
            <Time>2021-01-13T14:53:29.000Z</Time>
            <Position>
              <LatitudeDegrees>43.338143862783908843994140625</LatitudeDegrees>
              <LongitudeDegrees>-4.0256948210299015045166015625</LongitudeDegrees>
            </Position>
            <AltitudeMeters>110</AltitudeMeters>
            <DistanceMeters>10375.04870518</DistanceMeters>
          </Trackpoint>
          <Trackpoint>
            <Time>2021-01-13T14:53:30.000Z</Time>
            <Position>
              <LatitudeDegrees>43.33811469376087188720703125</LatitudeDegrees>
              <LongitudeDegrees>-4.025721810758113861083984375</LongitudeDegrees>
            </Position>
            <AltitudeMeters>110.1999969482421875</AltitudeMeters>
            <DistanceMeters>10378.962144799</DistanceMeters>
          </Trackpoint>
          <Trackpoint>
            <Time>2021-01-13T14:53:31.000Z</Time>
            <Position>
              <LatitudeDegrees>43.33808493800461292266845703125</LatitudeDegrees>
              <LongitudeDegrees>-4.02574938721954822540283203125</LongitudeDegrees>
            </Position>
            <AltitudeMeters>110.40000152587890625</AltitudeMeters>
            <DistanceMeters>10382.956659172</DistanceMeters>
          </Trackpoint>
          <Trackpoint>
            <Time>2021-01-13T14:53:32.000Z</Time>
            <Position>
              <LatitudeDegrees>43.338055349886417388916015625</LatitudeDegrees>
              <LongitudeDegrees>-4.02577704750001430511474609375</LongitudeDegrees>
            </Position>
            <AltitudeMeters>110.8000030517578125</AltitudeMeters>
            <DistanceMeters>10386.938720728</DistanceMeters>
          </Trackpoint>
          <Trackpoint>
            <Time>2021-01-13T14:53:33.000Z</Time>
            <Position>
              <LatitudeDegrees>43.33802559413015842437744140625</LatitudeDegrees>
              <LongitudeDegrees>-4.02580219320952892303466796875</LongitudeDegrees>
            </Position>
            <AltitudeMeters>111</AltitudeMeters>
            <DistanceMeters>10390.824372258</DistanceMeters>
          </Trackpoint>
          <Trackpoint>
            <Time>2021-01-13T14:53:34.000Z</Time>
            <Position>
              <LatitudeDegrees>43.3379951678216457366943359375</LatitudeDegrees>
              <LongitudeDegrees>-4.02582608163356781005859375</LongitudeDegrees>
            </Position>
            <AltitudeMeters>111.1999969482421875</AltitudeMeters>
            <DistanceMeters>10394.723942585</DistanceMeters>
          </Trackpoint>
          <Trackpoint>
            <Time>2021-01-13T14:53:35.000Z</Time>
            <Position>
              <LatitudeDegrees>43.337964154779911041259765625</LatitudeDegrees>
              <LongitudeDegrees>-4.0258503891527652740478515625</LongitudeDegrees>
            </Position>
            <AltitudeMeters>111.40000152587890625</AltitudeMeters>
            <DistanceMeters>10398.696923031</DistanceMeters>
          </Trackpoint>
          <Trackpoint>
            <Time>2021-01-13T14:53:37.000Z</Time>
            <Position>
              <LatitudeDegrees>43.33789969794452190399169921875</LatitudeDegrees>
              <LongitudeDegrees>-4.0258963219821453094482421875</LongitudeDegrees>
            </Position>
            <AltitudeMeters>111.8000030517578125</AltitudeMeters>
            <DistanceMeters>10406.77754694</DistanceMeters>
          </Trackpoint>
          <Trackpoint>
            <Time>2021-01-13T14:53:39.000Z</Time>
            <Position>
              <LatitudeDegrees>43.33783113397657871246337890625</LatitudeDegrees>
              <LongitudeDegrees>-4.02593362145125865936279296875</LongitudeDegrees>
            </Position>
            <AltitudeMeters>112.40000152587890625</AltitudeMeters>
            <DistanceMeters>10414.98512699</DistanceMeters>
          </Trackpoint>
          <Trackpoint>
            <Time>2021-01-13T14:53:40.000Z</Time>
            <Position>
              <LatitudeDegrees>43.337796516716480255126953125</LatitudeDegrees>
              <LongitudeDegrees>-4.0259489603340625762939453125</LongitudeDegrees>
            </Position>
            <AltitudeMeters>112.40000152587890625</AltitudeMeters>
            <DistanceMeters>10419.034647804</DistanceMeters>
          </Trackpoint>
          <Trackpoint>
            <Time>2021-01-13T14:53:41.000Z</Time>
            <Position>
              <LatitudeDegrees>43.3377621509134769439697265625</LatitudeDegrees>
              <LongitudeDegrees>-4.02596287429332733154296875</LongitudeDegrees>
            </Position>
            <AltitudeMeters>112.59999847412109375</AltitudeMeters>
            <DistanceMeters>10423.023506625</DistanceMeters>
          </Trackpoint>
          <Trackpoint>
            <Time>2021-01-13T14:53:43.000Z</Time>
            <Position>
              <LatitudeDegrees>43.3376937545835971832275390625</LatitudeDegrees>
              <LongitudeDegrees>-4.02598299086093902587890625</LongitudeDegrees>
            </Position>
            <AltitudeMeters>113.1999969482421875</AltitudeMeters>
            <DistanceMeters>10430.808740924</DistanceMeters>
          </Trackpoint>
          <Trackpoint>
            <Time>2021-01-13T14:53:44.000Z</Time>
            <Position>
              <LatitudeDegrees>43.337659724056720733642578125</LatitudeDegrees>
              <LongitudeDegrees>-4.02599212713539600372314453125</LongitudeDegrees>
            </Position>
            <AltitudeMeters>113.40000152587890625</AltitudeMeters>
            <DistanceMeters>10434.668744309</DistanceMeters>
          </Trackpoint>
          <Trackpoint>
            <Time>2021-01-13T14:53:45.000Z</Time>
            <Position>
              <LatitudeDegrees>43.33762384951114654541015625</LatitudeDegrees>
              <LongitudeDegrees>-4.026000089943408966064453125</LongitudeDegrees>
            </Position>
            <AltitudeMeters>113.59999847412109375</AltitudeMeters>
            <DistanceMeters>10438.711569851</DistanceMeters>
          </Trackpoint>
          <Trackpoint>
            <Time>2021-01-13T14:53:47.000Z</Time>
            <Position>
              <LatitudeDegrees>43.3375489152967929840087890625</LatitudeDegrees>
              <LongitudeDegrees>-4.02601107023656368255615234375</LongitudeDegrees>
            </Position>
            <AltitudeMeters>114</AltitudeMeters>
            <DistanceMeters>10447.09872047</DistanceMeters>
          </Trackpoint>
          <Trackpoint>
            <Time>2021-01-13T14:53:48.000Z</Time>
            <Position>
              <LatitudeDegrees>43.33751245401799678802490234375</LatitudeDegrees>
              <LongitudeDegrees>-4.02601651847362518310546875</LongitudeDegrees>
            </Position>
            <AltitudeMeters>114.1999969482421875</AltitudeMeters>
            <DistanceMeters>10451.181552956</DistanceMeters>
          </Trackpoint>
          <Trackpoint>
            <Time>2021-01-13T14:53:49.000Z</Time>
            <Position>
              <LatitudeDegrees>43.33747674711048603057861328125</LatitudeDegrees>
              <LongitudeDegrees>-4.02602163143455982208251953125</LongitudeDegrees>
            </Position>
            <AltitudeMeters>114.40000152587890625</AltitudeMeters>
            <DistanceMeters>10455.177197479</DistanceMeters>
          </Trackpoint>
          <Trackpoint>
            <Time>2021-01-13T14:53:50.000Z</Time>
            <Position>
              <LatitudeDegrees>43.33744171075522899627685546875</LatitudeDegrees>
              <LongitudeDegrees>-4.0260264091193675994873046875</LongitudeDegrees>
            </Position>
            <AltitudeMeters>114.59999847412109375</AltitudeMeters>
            <DistanceMeters>10459.095249285</DistanceMeters>
          </Trackpoint>
          <Trackpoint>
            <Time>2021-01-13T14:53:51.000Z</Time>
            <Position>
              <LatitudeDegrees>43.33740784786641597747802734375</LatitudeDegrees>
              <LongitudeDegrees>-4.02603252790868282318115234375</LongitudeDegrees>
            </Position>
            <AltitudeMeters>114.8000030517578125</AltitudeMeters>
            <DistanceMeters>10462.89631786</DistanceMeters>
          </Trackpoint>
          <Trackpoint>
            <Time>2021-01-13T14:53:53.000Z</Time>
            <Position>
              <LatitudeDegrees>43.33734096027910709381103515625</LatitudeDegrees>
              <LongitudeDegrees>-4.0260445140302181243896484375</LongitudeDegrees>
            </Position>
            <AltitudeMeters>115.1999969482421875</AltitudeMeters>
            <DistanceMeters>10470.403428295</DistanceMeters>
          </Trackpoint>
          <Trackpoint>
            <Time>2021-01-13T14:53:55.000Z</Time>
            <Position>
              <LatitudeDegrees>43.33727524615824222564697265625</LatitudeDegrees>
              <LongitudeDegrees>-4.0260592661798000335693359375</LongitudeDegrees>
            </Position>
            <AltitudeMeters>115.8000030517578125</AltitudeMeters>
            <DistanceMeters>10477.814293625</DistanceMeters>
          </Trackpoint>
          <Trackpoint>
            <Time>2021-01-13T14:53:57.000Z</Time>
            <Position>
              <LatitudeDegrees>43.33720886148512363433837890625</LatitudeDegrees>
              <LongitudeDegrees>-4.026059769093990325927734375</LongitudeDegrees>
            </Position>
            <AltitudeMeters>116.1999969482421875</AltitudeMeters>
            <DistanceMeters>10485.203193555</DistanceMeters>
          </Trackpoint>
          <Trackpoint>
            <Time>2021-01-13T14:53:58.000Z</Time>
            <Position>
              <LatitudeDegrees>43.33717583678662776947021484375</LatitudeDegrees>
              <LongitudeDegrees>-4.02605147100985050201416015625</LongitudeDegrees>
            </Position>
            <AltitudeMeters>116.40000152587890625</AltitudeMeters>
            <DistanceMeters>10488.940776766</DistanceMeters>
          </Trackpoint>
          <Trackpoint>
            <Time>2021-01-13T14:53:59.000Z</Time>
            <Position>
              <LatitudeDegrees>43.33714230917394161224365234375</LatitudeDegrees>
              <LongitudeDegrees>-4.0260482020676136016845703125</LongitudeDegrees>
            </Position>
            <AltitudeMeters>116.59999847412109375</AltitudeMeters>
            <DistanceMeters>10492.681982252</DistanceMeters>
          </Trackpoint>
          <Trackpoint>
            <Time>2021-01-13T14:54:01.000Z</Time>
            <Position>
              <LatitudeDegrees>43.3370734937489032745361328125</LatitudeDegrees>
              <LongitudeDegrees>-4.02605985291302204132080078125</LongitudeDegrees>
            </Position>
            <AltitudeMeters>117</AltitudeMeters>
            <DistanceMeters>10500.39847913</DistanceMeters>
          </Trackpoint>
          <Trackpoint>
            <Time>2021-01-13T14:54:03.000Z</Time>
            <Position>
              <LatitudeDegrees>43.3370027504861354827880859375</LatitudeDegrees>
              <LongitudeDegrees>-4.026085920631885528564453125</LongitudeDegrees>
            </Position>
            <AltitudeMeters>117.40000152587890625</AltitudeMeters>
            <DistanceMeters>10508.549755256</DistanceMeters>
          </Trackpoint>
          <Trackpoint>
            <Time>2021-01-13T14:54:05.000Z</Time>
            <Position>
              <LatitudeDegrees>43.336930833756923675537109375</LatitudeDegrees>
              <LongitudeDegrees>-4.02610595338046550750732421875</LongitudeDegrees>
            </Position>
            <AltitudeMeters>117.59999847412109375</AltitudeMeters>
            <DistanceMeters>10516.716526014</DistanceMeters>
          </Trackpoint>
          <Trackpoint>
            <Time>2021-01-13T14:54:07.000Z</Time>
            <Position>
              <LatitudeDegrees>43.3368612639605998992919921875</LatitudeDegrees>
              <LongitudeDegrees>-4.02611450292170047760009765625</LongitudeDegrees>
            </Position>
            <AltitudeMeters>118</AltitudeMeters>
            <DistanceMeters>10524.490152681</DistanceMeters>
          </Trackpoint>
          <Trackpoint>
            <Time>2021-01-13T14:54:08.000Z</Time>
            <Position>
              <LatitudeDegrees>43.33682647906243801116943359375</LatitudeDegrees>
              <LongitudeDegrees>-4.0261149220168590545654296875</LongitudeDegrees>
            </Position>
            <AltitudeMeters>118.1999969482421875</AltitudeMeters>
            <DistanceMeters>10528.361835377</DistanceMeters>
          </Trackpoint>
          <Trackpoint>
            <Time>2021-01-13T14:54:09.000Z</Time>
            <Position>
              <LatitudeDegrees>43.33679110743105411529541015625</LatitudeDegrees>
              <LongitudeDegrees>-4.026113413274288177490234375</LongitudeDegrees>
            </Position>
            <AltitudeMeters>118.40000152587890625</AltitudeMeters>
            <DistanceMeters>10532.300575192</DistanceMeters>
          </Trackpoint>
          <Trackpoint>
            <Time>2021-01-13T14:54:11.000Z</Time>
            <Position>
              <LatitudeDegrees>43.3367254771292209625244140625</LatitudeDegrees>
              <LongitudeDegrees>-4.0261082164943218231201171875</LongitudeDegrees>
            </Position>
            <AltitudeMeters>118.8000030517578125</AltitudeMeters>
            <DistanceMeters>10539.618249229</DistanceMeters>
          </Trackpoint>
          <Trackpoint>
            <Time>2021-01-13T14:54:12.000Z</Time>
            <Position>
              <LatitudeDegrees>43.3366966433823108673095703125</LatitudeDegrees>
              <LongitudeDegrees>-4.02610260061919689178466796875</LongitudeDegrees>
            </Position>
            <AltitudeMeters>119</AltitudeMeters>
            <DistanceMeters>10542.860317856</DistanceMeters>
          </Trackpoint>
          <Trackpoint>
            <Time>2021-01-13T14:54:13.000Z</Time>
            <Position>
              <LatitudeDegrees>43.33666906692087650299072265625</LatitudeDegrees>
              <LongitudeDegrees>-4.02609572745859622955322265625</LongitudeDegrees>
            </Position>
            <AltitudeMeters>119</AltitudeMeters>
            <DistanceMeters>10545.980321447</DistanceMeters>
          </Trackpoint>
          <Trackpoint>
            <Time>2021-01-13T14:54:14.000Z</Time>
            <Position>
              <LatitudeDegrees>43.33664308302104473114013671875</LatitudeDegrees>
              <LongitudeDegrees>-4.02608885429799556732177734375</LongitudeDegrees>
            </Position>
            <AltitudeMeters>119.1999969482421875</AltitudeMeters>
            <DistanceMeters>10548.924616504</DistanceMeters>
          </Trackpoint>
          <Trackpoint>
            <Time>2021-01-13T14:54:15.000Z</Time>
            <Position>
              <LatitudeDegrees>43.33661776967346668243408203125</LatitudeDegrees>
              <LongitudeDegrees>-4.02608080767095088958740234375</LongitudeDegrees>
            </Position>
            <AltitudeMeters>119.40000152587890625</AltitudeMeters>
            <DistanceMeters>10551.816303</DistanceMeters>
          </Trackpoint>
          <Trackpoint>
            <Time>2021-01-13T14:54:16.000Z</Time>
            <Position>
              <LatitudeDegrees>43.3365918695926666259765625</LatitudeDegrees>
              <LongitudeDegrees>-4.026071839034557342529296875</LongitudeDegrees>
            </Position>
            <AltitudeMeters>119.8000030517578125</AltitudeMeters>
            <DistanceMeters>10554.788072634</DistanceMeters>
          </Trackpoint>
          <Trackpoint>
            <Time>2021-01-13T14:54:17.000Z</Time>
            <Position>
              <LatitudeDegrees>43.33656630478799343109130859375</LatitudeDegrees>
              <LongitudeDegrees>-4.02606253512203693389892578125</LongitudeDegrees>
            </Position>
            <AltitudeMeters>120</AltitudeMeters>
            <DistanceMeters>10557.732367692</DistanceMeters>
          </Trackpoint>
          <Trackpoint>
            <Time>2021-01-13T14:54:19.000Z</Time>
            <Position>
              <LatitudeDegrees>43.33651341497898101806640625</LatitudeDegrees>
              <LongitudeDegrees>-4.02604174800217151641845703125</LongitudeDegrees>
            </Position>
            <AltitudeMeters>120.40000152587890625</AltitudeMeters>
            <DistanceMeters>10563.855510463</DistanceMeters>
          </Trackpoint>
          <Trackpoint>
            <Time>2021-01-13T14:54:21.000Z</Time>
            <Position>
              <LatitudeDegrees>43.3364604413509368896484375</LatitudeDegrees>
              <LongitudeDegrees>-4.0260158479213714599609375</LongitudeDegrees>
            </Position>
            <AltitudeMeters>120.8000030517578125</AltitudeMeters>
            <DistanceMeters>10570.113580576</DistanceMeters>
          </Trackpoint>
          <Trackpoint>
            <Time>2021-01-13T14:54:23.000Z</Time>
            <Position>
              <LatitudeDegrees>43.3364083059132099151611328125</LatitudeDegrees>
              <LongitudeDegrees>-4.0259881876409053802490234375</LongitudeDegrees>
            </Position>
            <AltitudeMeters>121.1999969482421875</AltitudeMeters>
            <DistanceMeters>10576.331842981</DistanceMeters>
          </Trackpoint>
          <Trackpoint>
            <Time>2021-01-13T14:54:25.000Z</Time>
            <Position>
              <LatitudeDegrees>43.33635860122740268707275390625</LatitudeDegrees>
              <LongitudeDegrees>-4.0259568393230438232421875</LongitudeDegrees>
            </Position>
            <AltitudeMeters>121.40000152587890625</AltitudeMeters>
            <DistanceMeters>10582.41652156</DistanceMeters>
          </Trackpoint>
          <Trackpoint>
            <Time>2021-01-13T14:54:26.000Z</Time>
            <Position>
              <LatitudeDegrees>43.33633412607014179229736328125</LatitudeDegrees>
              <LongitudeDegrees>-4.0259395726025104522705078125</LongitudeDegrees>
            </Position>
            <AltitudeMeters>121.59999847412109375</AltitudeMeters>
            <DistanceMeters>10585.476617845</DistanceMeters>
          </Trackpoint>
          <Trackpoint>
            <Time>2021-01-13T14:54:27.000Z</Time>
            <Position>
              <LatitudeDegrees>43.33631048910319805145263671875</LatitudeDegrees>
              <LongitudeDegrees>-4.02592289261519908905029296875</LongitudeDegrees>
            </Position>
            <AltitudeMeters>121.8000030517578125</AltitudeMeters>
            <DistanceMeters>10588.433155347</DistanceMeters>
          </Trackpoint>
          <Trackpoint>
            <Time>2021-01-13T14:54:29.000Z</Time>
            <Position>
              <LatitudeDegrees>43.33626422099769115447998046875</LatitudeDegrees>
              <LongitudeDegrees>-4.02588752098381519317626953125</LongitudeDegrees>
            </Position>
            <AltitudeMeters>122</AltitudeMeters>
            <DistanceMeters>10594.325577932</DistanceMeters>
          </Trackpoint>
          <Trackpoint>
            <Time>2021-01-13T14:54:31.000Z</Time>
            <Position>
              <LatitudeDegrees>43.33621460013091564178466796875</LatitudeDegrees>
              <LongitudeDegrees>-4.02585290372371673583984375</LongitudeDegrees>
            </Position>
            <AltitudeMeters>122.1999969482421875</AltitudeMeters>
            <DistanceMeters>10600.519103966</DistanceMeters>
          </Trackpoint>
          <Trackpoint>
            <Time>2021-01-13T14:54:33.000Z</Time>
            <Position>
              <LatitudeDegrees>43.33616615273058414459228515625</LatitudeDegrees>
              <LongitudeDegrees>-4.0258131735026836395263671875</LongitudeDegrees>
            </Position>
            <AltitudeMeters>122.59999847412109375</AltitudeMeters>
            <DistanceMeters>10606.798061981</DistanceMeters>
          </Trackpoint>
          <Trackpoint>
            <Time>2021-01-13T14:54:34.000Z</Time>
            <Position>
              <LatitudeDegrees>43.33614192903041839599609375</LatitudeDegrees>
              <LongitudeDegrees>-4.0257933922111988067626953125</LongitudeDegrees>
            </Position>
            <AltitudeMeters>122.59999847412109375</AltitudeMeters>
            <DistanceMeters>10609.935383024</DistanceMeters>
          </Trackpoint>
          <Trackpoint>
            <Time>2021-01-13T14:54:35.000Z</Time>
            <Position>
              <LatitudeDegrees>43.33611737005412578582763671875</LatitudeDegrees>
              <LongitudeDegrees>-4.025774784386157989501953125</LongitudeDegrees>
            </Position>
            <AltitudeMeters>122.8000030517578125</AltitudeMeters>
            <DistanceMeters>10613.058279525</DistanceMeters>
          </Trackpoint>
          <Trackpoint>
            <Time>2021-01-13T14:54:37.000Z</Time>
            <Position>
              <LatitudeDegrees>43.3360696770250797271728515625</LatitudeDegrees>
              <LongitudeDegrees>-4.02573849074542522430419921875</LongitudeDegrees>
            </Position>
            <AltitudeMeters>123.1999969482421875</AltitudeMeters>
            <DistanceMeters>10619.1266114</DistanceMeters>
          </Trackpoint>
          <Trackpoint>
            <Time>2021-01-13T14:54:39.000Z</Time>
            <Position>
              <LatitudeDegrees>43.336022235453128814697265625</LatitudeDegrees>
              <LongitudeDegrees>-4.025703370571136474609375</LongitudeDegrees>
            </Position>
            <AltitudeMeters>123.1999969482421875</AltitudeMeters>
            <DistanceMeters>10625.123090734</DistanceMeters>
          </Trackpoint>
          <Trackpoint>
            <Time>2021-01-13T14:54:41.000Z</Time>
            <Position>
              <LatitudeDegrees>43.3359749615192413330078125</LatitudeDegrees>
              <LongitudeDegrees>-4.0256693400442600250244140625</LongitudeDegrees>
            </Position>
            <AltitudeMeters>123.40000152587890625</AltitudeMeters>
            <DistanceMeters>10631.062830515</DistanceMeters>
          </Trackpoint>
          <Trackpoint>
            <Time>2021-01-13T14:54:43.000Z</Time>
            <Position>
              <LatitudeDegrees>43.3359288610517978668212890625</LatitudeDegrees>
              <LongitudeDegrees>-4.02563304640352725982666015625</LongitudeDegrees>
            </Position>
            <AltitudeMeters>123.59999847412109375</AltitudeMeters>
            <DistanceMeters>10636.975905518</DistanceMeters>
          </Trackpoint>
          <Trackpoint>
            <Time>2021-01-13T14:54:45.000Z</Time>
            <Position>
              <LatitudeDegrees>43.33588452078402042388916015625</LatitudeDegrees>
              <LongitudeDegrees>-4.02559683658182621002197265625</LongitudeDegrees>
            </Position>
            <AltitudeMeters>123.8000030517578125</AltitudeMeters>
            <DistanceMeters>10642.71696631</DistanceMeters>
          </Trackpoint>
          <Trackpoint>
            <Time>2021-01-13T14:54:46.000Z</Time>
            <Position>
              <LatitudeDegrees>43.3358621411025524139404296875</LatitudeDegrees>
              <LongitudeDegrees>-4.0255794860422611236572265625</LongitudeDegrees>
            </Position>
            <AltitudeMeters>124</AltitudeMeters>
            <DistanceMeters>10645.575675666</DistanceMeters>
          </Trackpoint>
          <Trackpoint>
            <Time>2021-01-13T14:54:47.000Z</Time>
            <Position>
              <LatitudeDegrees>43.335839174687862396240234375</LatitudeDegrees>
              <LongitudeDegrees>-4.0255625545978546142578125</LongitudeDegrees>
            </Position>
            <AltitudeMeters>124.1999969482421875</AltitudeMeters>
            <DistanceMeters>10648.476715349</DistanceMeters>
          </Trackpoint>
          <Trackpoint>
            <Time>2021-01-13T14:54:49.000Z</Time>
            <Position>
              <LatitudeDegrees>43.335793912410736083984375</LatitudeDegrees>
              <LongitudeDegrees>-4.02552927844226360321044921875</LongitudeDegrees>
            </Position>
            <AltitudeMeters>124.40000152587890625</AltitudeMeters>
            <DistanceMeters>10654.189393904</DistanceMeters>
          </Trackpoint>
          <Trackpoint>
            <Time>2021-01-13T14:54:51.000Z</Time>
            <Position>
              <LatitudeDegrees>43.33574856631457805633544921875</LatitudeDegrees>
              <LongitudeDegrees>-4.0254953317344188690185546875</LongitudeDegrees>
            </Position>
            <AltitudeMeters>124.8000030517578125</AltitudeMeters>
            <DistanceMeters>10659.935171439</DistanceMeters>
          </Trackpoint>
          <Trackpoint>
            <Time>2021-01-13T14:54:53.000Z</Time>
            <Position>
              <LatitudeDegrees>43.33570246584713459014892578125</LatitudeDegrees>
              <LongitudeDegrees>-4.02545920573174953460693359375</LongitudeDegrees>
            </Position>
            <AltitudeMeters>125</AltitudeMeters>
            <DistanceMeters>10665.84060582</DistanceMeters>
          </Trackpoint>
          <Trackpoint>
            <Time>2021-01-13T14:54:55.000Z</Time>
            <Position>
              <LatitudeDegrees>43.33565468899905681610107421875</LatitudeDegrees>
              <LongitudeDegrees>-4.02542500756680965423583984375</LongitudeDegrees>
            </Position>
            <AltitudeMeters>125.40000152587890625</AltitudeMeters>
            <DistanceMeters>10671.835579068</DistanceMeters>
          </Trackpoint>
          <Trackpoint>
            <Time>2021-01-13T14:54:57.000Z</Time>
            <Position>
              <LatitudeDegrees>43.33560523577034473419189453125</LatitudeDegrees>
              <LongitudeDegrees>-4.025393910706043243408203125</LongitudeDegrees>
            </Position>
            <AltitudeMeters>125.59999847412109375</AltitudeMeters>
            <DistanceMeters>10677.888266086</DistanceMeters>
          </Trackpoint>
          <Trackpoint>
            <Time>2021-01-13T14:54:58.000Z</Time>
            <Position>
              <LatitudeDegrees>43.33558109588921070098876953125</LatitudeDegrees>
              <LongitudeDegrees>-4.02537823654711246490478515625</LongitudeDegrees>
            </Position>
            <AltitudeMeters>125.8000030517578125</AltitudeMeters>
            <DistanceMeters>10680.86003572</DistanceMeters>
          </Trackpoint>
          <Trackpoint>
            <Time>2021-01-13T14:54:59.000Z</Time>
            <Position>
              <LatitudeDegrees>43.33555695600807666778564453125</LatitudeDegrees>
              <LongitudeDegrees>-4.02536264620721340179443359375</LongitudeDegrees>
            </Position>
            <AltitudeMeters>126</AltitudeMeters>
            <DistanceMeters>10683.828765181</DistanceMeters>
          </Trackpoint>
          <Trackpoint>
            <Time>2021-01-13T14:55:01.000Z</Time>
            <Position>
              <LatitudeDegrees>43.33550884388387203216552734375</LatitudeDegrees>
              <LongitudeDegrees>-4.02532853186130523681640625</LongitudeDegrees>
            </Position>
            <AltitudeMeters>126.1999969482421875</AltitudeMeters>
            <DistanceMeters>10689.854537943</DistanceMeters>
          </Trackpoint>
          <Trackpoint>
            <Time>2021-01-13T14:55:03.000Z</Time>
            <Position>
              <LatitudeDegrees>43.3354604803025722503662109375</LatitudeDegrees>
              <LongitudeDegrees>-4.02529098093509674072265625</LongitudeDegrees>
            </Position>
            <AltitudeMeters>126.40000152587890625</AltitudeMeters>
            <DistanceMeters>10696.035658669</DistanceMeters>
          </Trackpoint>
          <Trackpoint>
            <Time>2021-01-13T14:55:05.000Z</Time>
            <Position>
              <LatitudeDegrees>43.3354116976261138916015625</LatitudeDegrees>
              <LongitudeDegrees>-4.02525653131306171417236328125</LongitudeDegrees>
            </Position>
            <AltitudeMeters>126.59999847412109375</AltitudeMeters>
            <DistanceMeters>10702.139599643</DistanceMeters>
          </Trackpoint>
          <Trackpoint>
            <Time>2021-01-13T14:55:06.000Z</Time>
            <Position>
              <LatitudeDegrees>43.3353873901069164276123046875</LatitudeDegrees>
              <LongitudeDegrees>-4.0252391807734966278076171875</LongitudeDegrees>
            </Position>
            <AltitudeMeters>126.8000030517578125</AltitudeMeters>
            <DistanceMeters>10705.186387884</DistanceMeters>
          </Trackpoint>
          <Trackpoint>
            <Time>2021-01-13T14:55:07.000Z</Time>
            <Position>
              <LatitudeDegrees>43.33536350168287754058837890625</LatitudeDegrees>
              <LongitudeDegrees>-4.02522115968167781829833984375</LongitudeDegrees>
            </Position>
            <AltitudeMeters>127.1999969482421875</AltitudeMeters>
            <DistanceMeters>10708.219809697</DistanceMeters>
          </Trackpoint>
          <Trackpoint>
            <Time>2021-01-13T14:55:09.000Z</Time>
            <Position>
              <LatitudeDegrees>43.33531714975833892822265625</LatitudeDegrees>
              <LongitudeDegrees>-4.02518394403159618377685546875</LongitudeDegrees>
            </Position>
            <AltitudeMeters>127.40000152587890625</AltitudeMeters>
            <DistanceMeters>10714.193657879</DistanceMeters>
          </Trackpoint>
          <Trackpoint>
            <Time>2021-01-13T14:55:10.000Z</Time>
            <Position>
              <LatitudeDegrees>43.33529443480074405670166015625</LatitudeDegrees>
              <LongitudeDegrees>-4.0251650847494602203369140625</LongitudeDegrees>
            </Position>
            <AltitudeMeters>127.59999847412109375</AltitudeMeters>
            <DistanceMeters>10717.147139527</DistanceMeters>
          </Trackpoint>
          <Trackpoint>
            <Time>2021-01-13T14:55:11.000Z</Time>
            <Position>
              <LatitudeDegrees>43.33527180366218090057373046875</LatitudeDegrees>
              <LongitudeDegrees>-4.0251456387341022491455078125</LongitudeDegrees>
            </Position>
            <AltitudeMeters>127.8000030517578125</AltitudeMeters>
            <DistanceMeters>10720.118909162</DistanceMeters>
          </Trackpoint>
          <Trackpoint>
            <Time>2021-01-13T14:55:13.000Z</Time>
            <Position>
              <LatitudeDegrees>43.33522369153797626495361328125</LatitudeDegrees>
              <LongitudeDegrees>-4.025104232132434844970703125</LongitudeDegrees>
            </Position>
            <AltitudeMeters>128</AltitudeMeters>
            <DistanceMeters>10726.436577868</DistanceMeters>
          </Trackpoint>
          <Trackpoint>
            <Time>2021-01-13T14:55:15.000Z</Time>
            <Position>
              <LatitudeDegrees>43.33517407067120075225830078125</LatitudeDegrees>
              <LongitudeDegrees>-4.0250601433217525482177734375</LongitudeDegrees>
            </Position>
            <AltitudeMeters>128.399993896484375</AltitudeMeters>
            <DistanceMeters>10733.012673677</DistanceMeters>
          </Trackpoint>
          <Trackpoint>
            <Time>2021-01-13T14:55:17.000Z</Time>
            <Position>
              <LatitudeDegrees>43.33512595854699611663818359375</LatitudeDegrees>
              <LongitudeDegrees>-4.02501379139721393585205078125</LongitudeDegrees>
            </Position>
            <AltitudeMeters>128.8000030517578125</AltitudeMeters>
            <DistanceMeters>10739.551588875</DistanceMeters>
          </Trackpoint>
          <Trackpoint>
            <Time>2021-01-13T14:55:19.000Z</Time>
            <Position>
              <LatitudeDegrees>43.33508321084082126617431640625</LatitudeDegrees>
              <LongitudeDegrees>-4.02496400289237499237060546875</LongitudeDegrees>
            </Position>
            <AltitudeMeters>129</AltitudeMeters>
            <DistanceMeters>10745.787253167</DistanceMeters>
          </Trackpoint>
          <Trackpoint>
            <Time>2021-01-13T14:55:21.000Z</Time>
            <Position>
              <LatitudeDegrees>43.3350403793156147003173828125</LatitudeDegrees>
              <LongitudeDegrees>-4.02491019107401371002197265625</LongitudeDegrees>
            </Position>
            <AltitudeMeters>129.1999969482421875</AltitudeMeters>
            <DistanceMeters>10752.246274236</DistanceMeters>
          </Trackpoint>
          <Trackpoint>
            <Time>2021-01-13T14:55:22.000Z</Time>
            <Position>
              <LatitudeDegrees>43.3350189216434955596923828125</LatitudeDegrees>
              <LongitudeDegrees>-4.0248777531087398529052734375</LongitudeDegrees>
            </Position>
            <AltitudeMeters>129.600006103515625</AltitudeMeters>
            <DistanceMeters>10755.796765289</DistanceMeters>
          </Trackpoint>
          <Trackpoint>
            <Time>2021-01-13T14:55:23.000Z</Time>
            <Position>
              <LatitudeDegrees>43.33499486558139324188232421875</LatitudeDegrees>
              <LongitudeDegrees>-4.02484305202960968017578125</LongitudeDegrees>
            </Position>
            <AltitudeMeters>129.8000030517578125</AltitudeMeters>
            <DistanceMeters>10759.677766128</DistanceMeters>
          </Trackpoint>
          <Trackpoint>
            <Time>2021-01-13T14:55:25.000Z</Time>
            <Position>
              <LatitudeDegrees>43.3349384553730487823486328125</LatitudeDegrees>
              <LongitudeDegrees>-4.0247714705765247344970703125</LongitudeDegrees>
            </Position>
            <AltitudeMeters>130.1999969482421875</AltitudeMeters>
            <DistanceMeters>10768.222776258</DistanceMeters>
          </Trackpoint>
          <Trackpoint>
            <Time>2021-01-13T14:55:27.000Z</Time>
            <Position>
              <LatitudeDegrees>43.33487601019442081451416015625</LatitudeDegrees>
              <LongitudeDegrees>-4.02469678781926631927490234375</LongitudeDegrees>
            </Position>
            <AltitudeMeters>130.600006103515625</AltitudeMeters>
            <DistanceMeters>10777.434977863</DistanceMeters>
          </Trackpoint>
          <Trackpoint>
            <Time>2021-01-13T14:55:29.000Z</Time>
            <Position>
              <LatitudeDegrees>43.33481029607355594635009765625</LatitudeDegrees>
              <LongitudeDegrees>-4.02462101541459560394287109375</LongitudeDegrees>
            </Position>
            <AltitudeMeters>131</AltitudeMeters>
            <DistanceMeters>10786.981261511</DistanceMeters>
          </Trackpoint>
          <Trackpoint>
            <Time>2021-01-13T14:55:31.000Z</Time>
            <Position>
              <LatitudeDegrees>43.334742486476898193359375</LatitudeDegrees>
              <LongitudeDegrees>-4.02454800903797149658203125</LongitudeDegrees>
            </Position>
            <AltitudeMeters>131.399993896484375</AltitudeMeters>
            <DistanceMeters>10796.567191716</DistanceMeters>
          </Trackpoint>
          <Trackpoint>
            <Time>2021-01-13T14:55:33.000Z</Time>
            <Position>
              <LatitudeDegrees>43.3346732519567012786865234375</LatitudeDegrees>
              <LongitudeDegrees>-4.0244807861745357513427734375</LongitudeDegrees>
            </Position>
            <AltitudeMeters>131.8000030517578125</AltitudeMeters>
            <DistanceMeters>10806.001195819</DistanceMeters>
          </Trackpoint>
          <Trackpoint>
            <Time>2021-01-13T14:55:34.000Z</Time>
            <Position>
              <LatitudeDegrees>43.33463679067790508270263671875</LatitudeDegrees>
              <LongitudeDegrees>-4.024450443685054779052734375</LongitudeDegrees>
            </Position>
            <AltitudeMeters>132</AltitudeMeters>
            <DistanceMeters>10810.744923309</DistanceMeters>
          </Trackpoint>
          <Trackpoint>
            <Time>2021-01-13T14:55:35.000Z</Time>
            <Position>
              <LatitudeDegrees>43.33459890447556972503662109375</LatitudeDegrees>
              <LongitudeDegrees>-4.02442395687103271484375</LongitudeDegrees>
            </Position>
            <AltitudeMeters>132.1999969482421875</AltitudeMeters>
            <DistanceMeters>10815.475306954</DistanceMeters>
          </Trackpoint>
          <Trackpoint>
            <Time>2021-01-13T14:55:37.000Z</Time>
            <Position>
              <LatitudeDegrees>43.334518186748027801513671875</LatitudeDegrees>
              <LongitudeDegrees>-4.0243823826313018798828125</LongitudeDegrees>
            </Position>
            <AltitudeMeters>132.399993896484375</AltitudeMeters>
            <DistanceMeters>10825.068770308</DistanceMeters>
          </Trackpoint>
          <Trackpoint>
            <Time>2021-01-13T14:55:38.000Z</Time>
            <Position>
              <LatitudeDegrees>43.334475271403789520263671875</LatitudeDegrees>
              <LongitudeDegrees>-4.024368636310100555419921875</LongitudeDegrees>
            </Position>
            <AltitudeMeters>132.600006103515625</AltitudeMeters>
            <DistanceMeters>10829.973474544</DistanceMeters>
          </Trackpoint>
          <Trackpoint>
            <Time>2021-01-13T14:55:39.000Z</Time>
            <Position>
              <LatitudeDegrees>43.334432356059551239013671875</LatitudeDegrees>
              <LongitudeDegrees>-4.02435866184532642364501953125</LongitudeDegrees>
            </Position>
            <AltitudeMeters>132.600006103515625</AltitudeMeters>
            <DistanceMeters>10834.81797335</DistanceMeters>
          </Trackpoint>
          <Trackpoint>
            <Time>2021-01-13T14:55:40.000Z</Time>
            <Position>
              <LatitudeDegrees>43.33438885398209095001220703125</LatitudeDegrees>
              <LongitudeDegrees>-4.0243510343134403228759765625</LongitudeDegrees>
            </Position>
            <AltitudeMeters>132.8000030517578125</AltitudeMeters>
            <DistanceMeters>10839.698684534</DistanceMeters>
          </Trackpoint>
          <Trackpoint>
            <Time>2021-01-13T14:55:41.000Z</Time>
            <Position>
              <LatitudeDegrees>43.33434543572366237640380859375</LatitudeDegrees>
              <LongitudeDegrees>-4.02434692718088626861572265625</LongitudeDegrees>
            </Position>
            <AltitudeMeters>133</AltitudeMeters>
            <DistanceMeters>10844.542251257</DistanceMeters>
          </Trackpoint>
          <Trackpoint>
            <Time>2021-01-13T14:55:43.000Z</Time>
            <Position>
              <LatitudeDegrees>43.33425943739712238311767578125</LatitudeDegrees>
              <LongitudeDegrees>-4.02434575371444225311279296875</LongitudeDegrees>
            </Position>
            <AltitudeMeters>133.600006103515625</AltitudeMeters>
            <DistanceMeters>10854.114984187</DistanceMeters>
          </Trackpoint>
          <Trackpoint>
            <Time>2021-01-13T14:55:44.000Z</Time>
            <Position>
              <LatitudeDegrees>43.33421744406223297119140625</LatitudeDegrees>
              <LongitudeDegrees>-4.02434575371444225311279296875</LongitudeDegrees>
            </Position>
            <AltitudeMeters>133.8000030517578125</AltitudeMeters>
            <DistanceMeters>10858.788714487</DistanceMeters>
          </Trackpoint>
          <Trackpoint>
            <Time>2021-01-13T14:55:45.000Z</Time>
            <Position>
              <LatitudeDegrees>43.334176205098628997802734375</LatitudeDegrees>
              <LongitudeDegrees>-4.0243456698954105377197265625</LongitudeDegrees>
            </Position>
            <AltitudeMeters>134</AltitudeMeters>
            <DistanceMeters>10863.379596583</DistanceMeters>
          </Trackpoint>
          <Trackpoint>
            <Time>2021-01-13T14:55:47.000Z</Time>
            <Position>
              <LatitudeDegrees>43.33409381099045276641845703125</LatitudeDegrees>
              <LongitudeDegrees>-4.02434675954282283782958984375</LongitudeDegrees>
            </Position>
            <AltitudeMeters>134.399993896484375</AltitudeMeters>
            <DistanceMeters>10872.550536121</DistanceMeters>
          </Trackpoint>
          <Trackpoint>
            <Time>2021-01-13T14:55:48.000Z</Time>
            <Position>
              <LatitudeDegrees>43.33405257202684879302978515625</LatitudeDegrees>
              <LongitudeDegrees>-4.024347178637981414794921875</LongitudeDegrees>
            </Position>
            <AltitudeMeters>134.8000030517578125</AltitudeMeters>
            <DistanceMeters>10877.141418217</DistanceMeters>
          </Trackpoint>
          <Trackpoint>
            <Time>2021-01-13T14:55:49.000Z</Time>
            <Position>
              <LatitudeDegrees>43.33401166833937168121337890625</LatitudeDegrees>
              <LongitudeDegrees>-4.02434860356152057647705078125</LongitudeDegrees>
            </Position>
            <AltitudeMeters>135</AltitudeMeters>
            <DistanceMeters>10881.696757465</DistanceMeters>
          </Trackpoint>
          <Trackpoint>
            <Time>2021-01-13T14:55:51.000Z</Time>
            <Position>
              <LatitudeDegrees>43.3339292742311954498291015625</LatitudeDegrees>
              <LongitudeDegrees>-4.024355225265026092529296875</LongitudeDegrees>
            </Position>
            <AltitudeMeters>135.600006103515625</AltitudeMeters>
            <DistanceMeters>10890.883437738</DistanceMeters>
          </Trackpoint>
          <Trackpoint>
            <Time>2021-01-13T14:55:53.000Z</Time>
            <Position>
              <LatitudeDegrees>43.33384604193270206451416015625</LatitudeDegrees>
              <LongitudeDegrees>-4.024363942444324493408203125</LongitudeDegrees>
            </Position>
            <AltitudeMeters>136</AltitudeMeters>
            <DistanceMeters>10900.173726789</DistanceMeters>
          </Trackpoint>
          <Trackpoint>
            <Time>2021-01-13T14:55:55.000Z</Time>
            <Position>
              <LatitudeDegrees>43.3337629772722721099853515625</LatitudeDegrees>
              <LongitudeDegrees>-4.02436570264399051666259765625</LongitudeDegrees>
            </Position>
            <AltitudeMeters>136.8000030517578125</AltitudeMeters>
            <DistanceMeters>10909.419684484</DistanceMeters>
          </Trackpoint>
          <Trackpoint>
            <Time>2021-01-13T14:55:57.000Z</Time>
            <Position>
              <LatitudeDegrees>43.3336789906024932861328125</LatitudeDegrees>
              <LongitudeDegrees>-4.02436486445367336273193359375</LongitudeDegrees>
            </Position>
            <AltitudeMeters>137.1999969482421875</AltitudeMeters>
            <DistanceMeters>10918.76811108</DistanceMeters>
          </Trackpoint>
          <Trackpoint>
            <Time>2021-01-13T14:55:58.000Z</Time>
            <Position>
              <LatitudeDegrees>43.33363716490566730499267578125</LatitudeDegrees>
              <LongitudeDegrees>-4.0243609249591827392578125</LongitudeDegrees>
            </Position>
            <AltitudeMeters>137.399993896484375</AltitudeMeters>
            <DistanceMeters>10923.433138865</DistanceMeters>
          </Trackpoint>
          <Trackpoint>
            <Time>2021-01-13T14:55:59.000Z</Time>
            <Position>
              <LatitudeDegrees>43.33359424956142902374267578125</LatitudeDegrees>
              <LongitudeDegrees>-4.02435396797955036163330078125</LongitudeDegrees>
            </Position>
            <AltitudeMeters>137.600006103515625</AltitudeMeters>
            <DistanceMeters>10928.243030324</DistanceMeters>
          </Trackpoint>
          <Trackpoint>
            <Time>2021-01-13T14:56:01.000Z</Time>
            <Position>
              <LatitudeDegrees>43.33350908942520618438720703125</LatitudeDegrees>
              <LongitudeDegrees>-4.0243322588503360748291015625</LongitudeDegrees>
            </Position>
            <AltitudeMeters>138.1999969482421875</AltitudeMeters>
            <DistanceMeters>10937.883442492</DistanceMeters>
          </Trackpoint>
          <Trackpoint>
            <Time>2021-01-13T14:56:02.000Z</Time>
            <Position>
              <LatitudeDegrees>43.33346701227128505706787109375</LatitudeDegrees>
              <LongitudeDegrees>-4.0243198536336421966552734375</LongitudeDegrees>
            </Position>
            <AltitudeMeters>138.399993896484375</AltitudeMeters>
            <DistanceMeters>10942.672638058</DistanceMeters>
          </Trackpoint>
          <Trackpoint>
            <Time>2021-01-13T14:56:03.000Z</Time>
            <Position>
              <LatitudeDegrees>43.3334256894886493682861328125</LatitudeDegrees>
              <LongitudeDegrees>-4.02430300600826740264892578125</LongitudeDegrees>
            </Position>
            <AltitudeMeters>138.600006103515625</AltitudeMeters>
            <DistanceMeters>10947.470310916</DistanceMeters>
          </Trackpoint>
          <Trackpoint>
            <Time>2021-01-13T14:56:05.000Z</Time>
            <Position>
              <LatitudeDegrees>43.33334346301853656768798828125</LatitudeDegrees>
              <LongitudeDegrees>-4.02426159940659999847412109375</LongitudeDegrees>
            </Position>
            <AltitudeMeters>139</AltitudeMeters>
            <DistanceMeters>10957.216920798</DistanceMeters>
          </Trackpoint>
          <Trackpoint>
            <Time>2021-01-13T14:56:07.000Z</Time>
            <Position>
              <LatitudeDegrees>43.333263583481311798095703125</LatitudeDegrees>
              <LongitudeDegrees>-4.02421197853982448577880859375</LongitudeDegrees>
            </Position>
            <AltitudeMeters>139.399993896484375</AltitudeMeters>
            <DistanceMeters>10966.972791119</DistanceMeters>
          </Trackpoint>
          <Trackpoint>
            <Time>2021-01-13T14:56:09.000Z</Time>
            <Position>
              <LatitudeDegrees>43.3331889845430850982666015625</LatitudeDegrees>
              <LongitudeDegrees>-4.02414794079959392547607421875</LongitudeDegrees>
            </Position>
            <AltitudeMeters>140</AltitudeMeters>
            <DistanceMeters>10976.761926485</DistanceMeters>
          </Trackpoint>
          <Trackpoint>
            <Time>2021-01-13T14:56:11.000Z</Time>
            <Position>
              <LatitudeDegrees>43.333117067813873291015625</LatitudeDegrees>
              <LongitudeDegrees>-4.02407937683165073394775390625</LongitudeDegrees>
            </Position>
            <AltitudeMeters>140.600006103515625</AltitudeMeters>
            <DistanceMeters>10986.502975878</DistanceMeters>
          </Trackpoint>
          <Trackpoint>
            <Time>2021-01-13T14:56:12.000Z</Time>
            <Position>
              <LatitudeDegrees>43.33308328874409198760986328125</LatitudeDegrees>
              <LongitudeDegrees>-4.0240422450006008148193359375</LongitudeDegrees>
            </Position>
            <AltitudeMeters>140.8000030517578125</AltitudeMeters>
            <DistanceMeters>10991.316620667</DistanceMeters>
          </Trackpoint>
          <Trackpoint>
            <Time>2021-01-13T14:56:13.000Z</Time>
            <Position>
              <LatitudeDegrees>43.33305076695978641510009765625</LatitudeDegrees>
              <LongitudeDegrees>-4.02400352060794830322265625</LongitudeDegrees>
            </Position>
            <AltitudeMeters>141</AltitudeMeters>
            <DistanceMeters>10996.103930352</DistanceMeters>
          </Trackpoint>
          <Trackpoint>
            <Time>2021-01-13T14:56:15.000Z</Time>
            <Position>
              <LatitudeDegrees>43.33298874087631702423095703125</LatitudeDegrees>
              <LongitudeDegrees>-4.02392171323299407958984375</LongitudeDegrees>
            </Position>
            <AltitudeMeters>141.399993896484375</AltitudeMeters>
            <DistanceMeters>11005.670529787</DistanceMeters>
          </Trackpoint>
          <Trackpoint>
            <Time>2021-01-13T14:56:16.000Z</Time>
            <Position>
              <LatitudeDegrees>43.33296041004359722137451171875</LatitudeDegrees>
              <LongitudeDegrees>-4.0238759480416774749755859375</LongitudeDegrees>
            </Position>
            <AltitudeMeters>141.8000030517578125</AltitudeMeters>
            <DistanceMeters>11010.535489228</DistanceMeters>
          </Trackpoint>
          <Trackpoint>
            <Time>2021-01-13T14:56:17.000Z</Time>
            <Position>
              <LatitudeDegrees>43.33293274976313114166259765625</LatitudeDegrees>
              <LongitudeDegrees>-4.02382909320294857025146484375</LongitudeDegrees>
            </Position>
            <AltitudeMeters>142</AltitudeMeters>
            <DistanceMeters>11015.421747727</DistanceMeters>
          </Trackpoint>
          <Trackpoint>
            <Time>2021-01-13T14:56:19.000Z</Time>
            <Position>
              <LatitudeDegrees>43.33287675864994525909423828125</LatitudeDegrees>
              <LongitudeDegrees>-4.02373488061130046844482421875</LongitudeDegrees>
            </Position>
            <AltitudeMeters>142.600006103515625</AltitudeMeters>
            <DistanceMeters>11025.27203561</DistanceMeters>
          </Trackpoint>
          <Trackpoint>
            <Time>2021-01-13T14:56:20.000Z</Time>
            <Position>
              <LatitudeDegrees>43.3328486792743206024169921875</LatitudeDegrees>
              <LongitudeDegrees>-4.02368777431547641754150390625</LongitudeDegrees>
            </Position>
            <AltitudeMeters>142.8000030517578125</AltitudeMeters>
            <DistanceMeters>11030.20427911</DistanceMeters>
          </Trackpoint>
          <Trackpoint>
            <Time>2021-01-13T14:56:21.000Z</Time>
            <Position>
              <LatitudeDegrees>43.33282026462256908416748046875</LatitudeDegrees>
              <LongitudeDegrees>-4.02364133857190608978271484375</LongitudeDegrees>
            </Position>
            <AltitudeMeters>143</AltitudeMeters>
            <DistanceMeters>11035.117261334</DistanceMeters>
          </Trackpoint>
          <Trackpoint>
            <Time>2021-01-13T14:56:23.000Z</Time>
            <Position>
              <LatitudeDegrees>43.3327648602426052093505859375</LatitudeDegrees>
              <LongitudeDegrees>-4.02355047874152660369873046875</LongitudeDegrees>
            </Position>
            <AltitudeMeters>143.600006103515625</AltitudeMeters>
            <DistanceMeters>11044.71637067</DistanceMeters>
          </Trackpoint>
          <Trackpoint>
            <Time>2021-01-13T14:56:25.000Z</Time>
            <Position>
              <LatitudeDegrees>43.33271264098584651947021484375</LatitudeDegrees>
              <LongitudeDegrees>-4.023459367454051971435546875</LongitudeDegrees>
            </Position>
            <AltitudeMeters>144</AltitudeMeters>
            <DistanceMeters>11054.107202717</DistanceMeters>
          </Trackpoint>
          <Trackpoint>
            <Time>2021-01-13T14:56:27.000Z</Time>
            <Position>
              <LatitudeDegrees>43.3326637744903564453125</LatitudeDegrees>
              <LongitudeDegrees>-4.02337026782333850860595703125</LongitudeDegrees>
            </Position>
            <AltitudeMeters>144.600006103515625</AltitudeMeters>
            <DistanceMeters>11063.141240071</DistanceMeters>
          </Trackpoint>
          <Trackpoint>
            <Time>2021-01-13T14:56:29.000Z</Time>
            <Position>
              <LatitudeDegrees>43.332618176937103271484375</LatitudeDegrees>
              <LongitudeDegrees>-4.0232821740210056304931640625</LongitudeDegrees>
            </Position>
            <AltitudeMeters>145</AltitudeMeters>
            <DistanceMeters>11071.895052309</DistanceMeters>
          </Trackpoint>
          <Trackpoint>
            <Time>2021-01-13T14:56:30.000Z</Time>
            <Position>
              <LatitudeDegrees>43.33259630016982555389404296875</LatitudeDegrees>
              <LongitudeDegrees>-4.02323883958160877227783203125</LongitudeDegrees>
            </Position>
            <AltitudeMeters>145.1999969482421875</AltitudeMeters>
            <DistanceMeters>11076.165971931</DistanceMeters>
          </Trackpoint>
          <Trackpoint>
            <Time>2021-01-13T14:56:31.000Z</Time>
            <Position>
              <LatitudeDegrees>43.33257450722157955169677734375</LatitudeDegrees>
              <LongitudeDegrees>-4.0231956727802753448486328125</LongitudeDegrees>
            </Position>
            <AltitudeMeters>145.399993896484375</AltitudeMeters>
            <DistanceMeters>11080.419943392</DistanceMeters>
          </Trackpoint>
          <Trackpoint>
            <Time>2021-01-13T14:56:33.000Z</Time>
            <Position>
              <LatitudeDegrees>43.33253377117216587066650390625</LatitudeDegrees>
              <LongitudeDegrees>-4.02310707606375217437744140625</LongitudeDegrees>
            </Position>
            <AltitudeMeters>145.600006103515625</AltitudeMeters>
            <DistanceMeters>11088.90556827</DistanceMeters>
          </Trackpoint>
          <Trackpoint>
            <Time>2021-01-13T14:56:35.000Z</Time>
            <Position>
              <LatitudeDegrees>43.3324979804456233978271484375</LatitudeDegrees>
              <LongitudeDegrees>-4.023015461862087249755859375</LongitudeDegrees>
            </Position>
            <AltitudeMeters>146.1999969482421875</AltitudeMeters>
            <DistanceMeters>11097.324956614</DistanceMeters>
          </Trackpoint>
          <Trackpoint>
            <Time>2021-01-13T14:56:37.000Z</Time>
            <Position>
              <LatitudeDegrees>43.33246839232742786407470703125</LatitudeDegrees>
              <LongitudeDegrees>-4.0229207463562488555908203125</LongitudeDegrees>
            </Position>
            <AltitudeMeters>146.600006103515625</AltitudeMeters>
            <DistanceMeters>11105.670012008</DistanceMeters>
          </Trackpoint>
          <Trackpoint>
            <Time>2021-01-13T14:56:38.000Z</Time>
            <Position>
              <LatitudeDegrees>43.33245213143527507781982421875</LatitudeDegrees>
              <LongitudeDegrees>-4.02287456206977367401123046875</LongitudeDegrees>
            </Position>
            <AltitudeMeters>146.8000030517578125</AltitudeMeters>
            <DistanceMeters>11109.824103495</DistanceMeters>
          </Trackpoint>
          <Trackpoint>
            <Time>2021-01-13T14:56:39.000Z</Time>
            <Position>
              <LatitudeDegrees>43.33243620581924915313720703125</LatitudeDegrees>
              <LongitudeDegrees>-4.02282913215458393096923828125</LongitudeDegrees>
            </Position>
            <AltitudeMeters>147</AltitudeMeters>
            <DistanceMeters>11113.906935982</DistanceMeters>
          </Trackpoint>
          <Trackpoint>
            <Time>2021-01-13T14:56:40.000Z</Time>
            <Position>
              <LatitudeDegrees>43.3324212022125720977783203125</LatitudeDegrees>
              <LongitudeDegrees>-4.02278286404907703399658203125</LongitudeDegrees>
            </Position>
            <AltitudeMeters>147.1999969482421875</AltitudeMeters>
            <DistanceMeters>11118.007424043</DistanceMeters>
          </Trackpoint>
          <Trackpoint>
            <Time>2021-01-13T14:56:41.000Z</Time>
            <Position>
              <LatitudeDegrees>43.3324076235294342041015625</LatitudeDegrees>
              <LongitudeDegrees>-4.02273642830550670623779296875</LongitudeDegrees>
            </Position>
            <AltitudeMeters>147.399993896484375</AltitudeMeters>
            <DistanceMeters>11122.059174156</DistanceMeters>
          </Trackpoint>
          <Trackpoint>
            <Time>2021-01-13T14:56:43.000Z</Time>
            <Position>
              <LatitudeDegrees>43.33238239400088787078857421875</LatitudeDegrees>
              <LongitudeDegrees>-4.0226444788277149200439453125</LongitudeDegrees>
            </Position>
            <AltitudeMeters>147.8000030517578125</AltitudeMeters>
            <DistanceMeters>11130.016491293</DistanceMeters>
          </Trackpoint>
          <Trackpoint>
            <Time>2021-01-13T14:56:45.000Z</Time>
            <Position>
              <LatitudeDegrees>43.3323538117110729217529296875</LatitudeDegrees>
              <LongitudeDegrees>-4.0225539542734622955322265625</LongitudeDegrees>
            </Position>
            <AltitudeMeters>148.399993896484375</AltitudeMeters>
            <DistanceMeters>11138.006650269</DistanceMeters>
          </Trackpoint>
          <Trackpoint>
            <Time>2021-01-13T14:56:47.000Z</Time>
            <Position>
              <LatitudeDegrees>43.332323469221591949462890625</LatitudeDegrees>
              <LongitudeDegrees>-4.02246250770986080169677734375</LongitudeDegrees>
            </Position>
            <AltitudeMeters>148.8000030517578125</AltitudeMeters>
            <DistanceMeters>11146.1446218</DistanceMeters>
          </Trackpoint>
          <Trackpoint>
            <Time>2021-01-13T14:56:49.000Z</Time>
            <Position>
              <LatitudeDegrees>43.33229287527501583099365234375</LatitudeDegrees>
              <LongitudeDegrees>-4.02236896567046642303466796875</LongitudeDegrees>
            </Position>
            <AltitudeMeters>149</AltitudeMeters>
            <DistanceMeters>11154.447368549</DistanceMeters>
          </Trackpoint>
          <Trackpoint>
            <Time>2021-01-13T14:56:51.000Z</Time>
            <Position>
              <LatitudeDegrees>43.33226538263261318206787109375</LatitudeDegrees>
              <LongitudeDegrees>-4.02227156795561313629150390625</LongitudeDegrees>
            </Position>
            <AltitudeMeters>149.1999969482421875</AltitudeMeters>
            <DistanceMeters>11162.905279969</DistanceMeters>
          </Trackpoint>
          <Trackpoint>
            <Time>2021-01-13T14:56:53.000Z</Time>
            <Position>
              <LatitudeDegrees>43.3322388119995594024658203125</LatitudeDegrees>
              <LongitudeDegrees>-4.02217467315495014190673828125</LongitudeDegrees>
            </Position>
            <AltitudeMeters>149.600006103515625</AltitudeMeters>
            <DistanceMeters>11171.289199997</DistanceMeters>
          </Trackpoint>
          <Trackpoint>
            <Time>2021-01-13T14:56:55.000Z</Time>
            <Position>
              <LatitudeDegrees>43.33220637403428554534912109375</LatitudeDegrees>
              <LongitudeDegrees>-4.02208196930587291717529296875</LongitudeDegrees>
            </Position>
            <AltitudeMeters>150</AltitudeMeters>
            <DistanceMeters>11179.61800827</DistanceMeters>
          </Trackpoint>
          <Trackpoint>
            <Time>2021-01-13T14:56:56.000Z</Time>
            <Position>
              <LatitudeDegrees>43.33218692801892757415771484375</LatitudeDegrees>
              <LongitudeDegrees>-4.02203905396163463592529296875</LongitudeDegrees>
            </Position>
            <AltitudeMeters>150.1999969482421875</AltitudeMeters>
            <DistanceMeters>11183.711884413</DistanceMeters>
          </Trackpoint>
          <Trackpoint>
            <Time>2021-01-13T14:56:57.000Z</Time>
            <Position>
              <LatitudeDegrees>43.33216421306133270263671875</LatitudeDegrees>
              <LongitudeDegrees>-4.021998904645442962646484375</LongitudeDegrees>
            </Position>
            <AltitudeMeters>150.1999969482421875</AltitudeMeters>
            <DistanceMeters>11187.829952354</DistanceMeters>
          </Trackpoint>
          <Trackpoint>
            <Time>2021-01-13T14:56:59.000Z</Time>
            <Position>
              <LatitudeDegrees>43.33210654556751251220703125</LatitudeDegrees>
              <LongitudeDegrees>-4.02193109504878520965576171875</LongitudeDegrees>
            </Position>
            <AltitudeMeters>150.399993896484375</AltitudeMeters>
            <DistanceMeters>11196.276111475</DistanceMeters>
          </Trackpoint>
          <Trackpoint>
            <Time>2021-01-13T14:57:00.000Z</Time>
            <Position>
              <LatitudeDegrees>43.33207176066935062408447265625</LatitudeDegrees>
              <LongitudeDegrees>-4.02190729044377803802490234375</LongitudeDegrees>
            </Position>
            <AltitudeMeters>150.600006103515625</AltitudeMeters>
            <DistanceMeters>11200.600610096</DistanceMeters>
          </Trackpoint>
          <Trackpoint>
            <Time>2021-01-13T14:57:01.000Z</Time>
            <Position>
              <LatitudeDegrees>43.33203278481960296630859375</LatitudeDegrees>
              <LongitudeDegrees>-4.02189371176064014434814453125</LongitudeDegrees>
            </Position>
            <AltitudeMeters>150.8000030517578125</AltitudeMeters>
            <DistanceMeters>11205.075954725</DistanceMeters>
          </Trackpoint>
          <Trackpoint>
            <Time>2021-01-13T14:57:03.000Z</Time>
            <Position>
              <LatitudeDegrees>43.331953994929790496826171875</LatitudeDegrees>
              <LongitudeDegrees>-4.0219025127589702606201171875</LongitudeDegrees>
            </Position>
            <AltitudeMeters>151.1999969482421875</AltitudeMeters>
            <DistanceMeters>11213.874012197</DistanceMeters>
          </Trackpoint>
          <Trackpoint>
            <Time>2021-01-13T14:57:05.000Z</Time>
            <Position>
              <LatitudeDegrees>43.3318777196109294891357421875</LatitudeDegrees>
              <LongitudeDegrees>-4.021937549114227294921875</LongitudeDegrees>
            </Position>
            <AltitudeMeters>151.600006103515625</AltitudeMeters>
            <DistanceMeters>11222.825205876</DistanceMeters>
          </Trackpoint>
          <Trackpoint>
            <Time>2021-01-13T14:57:06.000Z</Time>
            <Position>
              <LatitudeDegrees>43.3318411745131015777587890625</LatitudeDegrees>
              <LongitudeDegrees>-4.02196143753826618194580078125</LongitudeDegrees>
            </Position>
            <AltitudeMeters>151.8000030517578125</AltitudeMeters>
            <DistanceMeters>11227.329712705</DistanceMeters>
          </Trackpoint>
          <Trackpoint>
            <Time>2021-01-13T14:57:07.000Z</Time>
            <Position>
              <LatitudeDegrees>43.33180521614849567413330078125</LatitudeDegrees>
              <LongitudeDegrees>-4.0219876728951930999755859375</LongitudeDegrees>
            </Position>
            <AltitudeMeters>152</AltitudeMeters>
            <DistanceMeters>11231.860205367</DistanceMeters>
          </Trackpoint>
          <Trackpoint>
            <Time>2021-01-13T14:57:09.000Z</Time>
            <Position>
              <LatitudeDegrees>43.3317365683615207672119140625</LatitudeDegrees>
              <LongitudeDegrees>-4.0220460109412670135498046875</LongitudeDegrees>
            </Position>
            <AltitudeMeters>152.600006103515625</AltitudeMeters>
            <DistanceMeters>11240.842617795</DistanceMeters>
          </Trackpoint>
          <Trackpoint>
            <Time>2021-01-13T14:57:10.000Z</Time>
            <Position>
              <LatitudeDegrees>43.3317016996443271636962890625</LatitudeDegrees>
              <LongitudeDegrees>-4.02207409031689167022705078125</LongitudeDegrees>
            </Position>
            <AltitudeMeters>152.8000030517578125</AltitudeMeters>
            <DistanceMeters>11245.340102785</DistanceMeters>
          </Trackpoint>
          <Trackpoint>
            <Time>2021-01-13T14:57:11.000Z</Time>
            <Position>
              <LatitudeDegrees>43.3316673338413238525390625</LatitudeDegrees>
              <LongitudeDegrees>-4.02210124768316745758056640625</LongitudeDegrees>
            </Position>
            <AltitudeMeters>153</AltitudeMeters>
            <DistanceMeters>11249.752454177</DistanceMeters>
          </Trackpoint>
          <Trackpoint>
            <Time>2021-01-13T14:57:13.000Z</Time>
            <Position>
              <LatitudeDegrees>43.33159960806369781494140625</LatitudeDegrees>
              <LongitudeDegrees>-4.022157154977321624755859375</LongitudeDegrees>
            </Position>
            <AltitudeMeters>153.600006103515625</AltitudeMeters>
            <DistanceMeters>11258.545378294</DistanceMeters>
          </Trackpoint>
          <Trackpoint>
            <Time>2021-01-13T14:57:15.000Z</Time>
            <Position>
              <LatitudeDegrees>43.33153096027672290802001953125</LatitudeDegrees>
              <LongitudeDegrees>-4.02221314609050750732421875</LongitudeDegrees>
            </Position>
            <AltitudeMeters>154</AltitudeMeters>
            <DistanceMeters>11267.429740859</DistanceMeters>
          </Trackpoint>
          <Trackpoint>
            <Time>2021-01-13T14:57:17.000Z</Time>
            <Position>
              <LatitudeDegrees>43.3314592950046062469482421875</LatitudeDegrees>
              <LongitudeDegrees>-4.02226947247982025146484375</LongitudeDegrees>
            </Position>
            <AltitudeMeters>154.399993896484375</AltitudeMeters>
            <DistanceMeters>11276.617404033</DistanceMeters>
          </Trackpoint>
          <Trackpoint>
            <Time>2021-01-13T14:57:18.000Z</Time>
            <Position>
              <LatitudeDegrees>43.3314207382500171661376953125</LatitudeDegrees>
              <LongitudeDegrees>-4.0222941152751445770263671875</LongitudeDegrees>
            </Position>
            <AltitudeMeters>154.600006103515625</AltitudeMeters>
            <DistanceMeters>11281.349696245</DistanceMeters>
          </Trackpoint>
          <Trackpoint>
            <Time>2021-01-13T14:57:19.000Z</Time>
            <Position>
              <LatitudeDegrees>43.3313811756670475006103515625</LatitudeDegrees>
              <LongitudeDegrees>-4.02231465093791484832763671875</LongitudeDegrees>
            </Position>
            <AltitudeMeters>154.8000030517578125</AltitudeMeters>
            <DistanceMeters>11286.057116727</DistanceMeters>
          </Trackpoint>
          <Trackpoint>
            <Time>2021-01-13T14:57:20.000Z</Time>
            <Position>
              <LatitudeDegrees>43.331341445446014404296875</LatitudeDegrees>
              <LongitudeDegrees>-4.022328145802021026611328125</LongitudeDegrees>
            </Position>
            <AltitudeMeters>155</AltitudeMeters>
            <DistanceMeters>11290.612455976</DistanceMeters>
          </Trackpoint>
          <Trackpoint>
            <Time>2021-01-13T14:57:21.000Z</Time>
            <Position>
              <LatitudeDegrees>43.3313007093966007232666015625</LatitudeDegrees>
              <LongitudeDegrees>-4.0223363600671291351318359375</LongitudeDegrees>
            </Position>
            <AltitudeMeters>155.1999969482421875</AltitudeMeters>
            <DistanceMeters>11295.195463482</DistanceMeters>
          </Trackpoint>
          <Trackpoint>
            <Time>2021-01-13T14:57:23.000Z</Time>
            <Position>
              <LatitudeDegrees>43.3312192372977733612060546875</LatitudeDegrees>
              <LongitudeDegrees>-4.022345580160617828369140625</LongitudeDegrees>
            </Position>
            <AltitudeMeters>155.600006103515625</AltitudeMeters>
            <DistanceMeters>11304.294240369</DistanceMeters>
          </Trackpoint>
          <Trackpoint>
            <Time>2021-01-13T14:57:25.000Z</Time>
            <Position>
              <LatitudeDegrees>43.3311347477138042449951171875</LatitudeDegrees>
              <LongitudeDegrees>-4.022340886294841766357421875</LongitudeDegrees>
            </Position>
            <AltitudeMeters>155.8000030517578125</AltitudeMeters>
            <DistanceMeters>11313.705244023</DistanceMeters>
          </Trackpoint>
          <Trackpoint>
            <Time>2021-01-13T14:57:27.000Z</Time>
            <Position>
              <LatitudeDegrees>43.33105000667273998260498046875</LatitudeDegrees>
              <LongitudeDegrees>-4.0223289839923381805419921875</LongitudeDegrees>
            </Position>
            <AltitudeMeters>156.1999969482421875</AltitudeMeters>
            <DistanceMeters>11323.186034123</DistanceMeters>
          </Trackpoint>
          <Trackpoint>
            <Time>2021-01-13T14:57:29.000Z</Time>
            <Position>
              <LatitudeDegrees>43.3309657685458660125732421875</LatitudeDegrees>
              <LongitudeDegrees>-4.02231565676629543304443359375</LongitudeDegrees>
            </Position>
            <AltitudeMeters>156.600006103515625</AltitudeMeters>
            <DistanceMeters>11332.623387776</DistanceMeters>
          </Trackpoint>
          <Trackpoint>
            <Time>2021-01-13T14:57:31.000Z</Time>
            <Position>
              <LatitudeDegrees>43.3308846317231655120849609375</LatitudeDegrees>
              <LongitudeDegrees>-4.02229134924709796905517578125</LongitudeDegrees>
            </Position>
            <AltitudeMeters>156.8000030517578125</AltitudeMeters>
            <DistanceMeters>11341.865926559</DistanceMeters>
          </Trackpoint>
          <Trackpoint>
            <Time>2021-01-13T14:57:33.000Z</Time>
            <Position>
              <LatitudeDegrees>43.3308058418333530426025390625</LatitudeDegrees>
              <LongitudeDegrees>-4.02226067148149013519287109375</LongitudeDegrees>
            </Position>
            <AltitudeMeters>157</AltitudeMeters>
            <DistanceMeters>11350.980568805</DistanceMeters>
          </Trackpoint>
          <Trackpoint>
            <Time>2021-01-13T14:57:35.000Z</Time>
            <Position>
              <LatitudeDegrees>43.3307270519435405731201171875</LatitudeDegrees>
              <LongitudeDegrees>-4.02221708558499813079833984375</LongitudeDegrees>
            </Position>
            <AltitudeMeters>157.399993896484375</AltitudeMeters>
            <DistanceMeters>11360.433697202</DistanceMeters>
          </Trackpoint>
          <Trackpoint>
            <Time>2021-01-13T14:57:37.000Z</Time>
            <Position>
              <LatitudeDegrees>43.330652453005313873291015625</LatitudeDegrees>
              <LongitudeDegrees>-4.022150449454784393310546875</LongitudeDegrees>
            </Position>
            <AltitudeMeters>157.8000030517578125</AltitudeMeters>
            <DistanceMeters>11370.335644992</DistanceMeters>
          </Trackpoint>
          <Trackpoint>
            <Time>2021-01-13T14:57:39.000Z</Time>
            <Position>
              <LatitudeDegrees>43.3305864036083221435546875</LatitudeDegrees>
              <LongitudeDegrees>-4.02206570841372013092041015625</LongitudeDegrees>
            </Position>
            <AltitudeMeters>158.399993896484375</AltitudeMeters>
            <DistanceMeters>11380.391429199</DistanceMeters>
          </Trackpoint>
          <Trackpoint>
            <Time>2021-01-13T14:57:40.000Z</Time>
            <Position>
              <LatitudeDegrees>43.33055756986141204833984375</LatitudeDegrees>
              <LongitudeDegrees>-4.0220185182988643646240234375</LongitudeDegrees>
            </Position>
            <AltitudeMeters>158.8000030517578125</AltitudeMeters>
            <DistanceMeters>11385.380105444</DistanceMeters>
          </Trackpoint>
          <Trackpoint>
            <Time>2021-01-13T14:57:41.000Z</Time>
            <Position>
              <LatitudeDegrees>43.3305309154093265533447265625</LatitudeDegrees>
              <LongitudeDegrees>-4.02196906507015228271484375</LongitudeDegrees>
            </Position>
            <AltitudeMeters>159</AltitudeMeters>
            <DistanceMeters>11390.363348387</DistanceMeters>
          </Trackpoint>
          <Trackpoint>
            <Time>2021-01-13T14:57:43.000Z</Time>
            <Position>
              <LatitudeDegrees>43.330486156046390533447265625</LatitudeDegrees>
              <LongitudeDegrees>-4.0218626148998737335205078125</LongitudeDegrees>
            </Position>
            <AltitudeMeters>159.399993896484375</AltitudeMeters>
            <DistanceMeters>11400.318048728</DistanceMeters>
          </Trackpoint>
          <Trackpoint>
            <Time>2021-01-13T14:57:45.000Z</Time>
            <Position>
              <LatitudeDegrees>43.33045237697660923004150390625</LatitudeDegrees>
              <LongitudeDegrees>-4.02174912393093109130859375</LongitudeDegrees>
            </Position>
            <AltitudeMeters>160</AltitudeMeters>
            <DistanceMeters>11410.245498265</DistanceMeters>
          </Trackpoint>
          <Trackpoint>
            <Time>2021-01-13T14:57:46.000Z</Time>
            <Position>
              <LatitudeDegrees>43.330436535179615020751953125</LatitudeDegrees>
              <LongitudeDegrees>-4.02169170789420604705810546875</LongitudeDegrees>
            </Position>
            <AltitudeMeters>160.1999969482421875</AltitudeMeters>
            <DistanceMeters>11415.217856791</DistanceMeters>
          </Trackpoint>
          <Trackpoint>
            <Time>2021-01-13T14:57:47.000Z</Time>
            <Position>
              <LatitudeDegrees>43.33042069338262081146240234375</LatitudeDegrees>
              <LongitudeDegrees>-4.0216346271336078643798828125</LongitudeDegrees>
            </Position>
            <AltitudeMeters>160.399993896484375</AltitudeMeters>
            <DistanceMeters>11420.16472521</DistanceMeters>
          </Trackpoint>
          <Trackpoint>
            <Time>2021-01-13T14:57:48.000Z</Time>
            <Position>
              <LatitudeDegrees>43.330404348671436309814453125</LatitudeDegrees>
              <LongitudeDegrees>-4.021578133106231689453125</LongitudeDegrees>
            </Position>
            <AltitudeMeters>160.600006103515625</AltitudeMeters>
            <DistanceMeters>11425.087806073</DistanceMeters>
          </Trackpoint>
          <Trackpoint>
            <Time>2021-01-13T14:57:49.000Z</Time>
            <Position>
              <LatitudeDegrees>43.3303879201412200927734375</LatitudeDegrees>
              <LongitudeDegrees>-4.0215216390788555145263671875</LongitudeDegrees>
            </Position>
            <AltitudeMeters>160.8000030517578125</AltitudeMeters>
            <DistanceMeters>11430.014554035</DistanceMeters>
          </Trackpoint>
          <Trackpoint>
            <Time>2021-01-13T14:57:51.000Z</Time>
            <Position>
              <LatitudeDegrees>43.3303538896143436431884765625</LatitudeDegrees>
              <LongitudeDegrees>-4.02141116559505462646484375</LongitudeDegrees>
            </Position>
            <AltitudeMeters>161.1999969482421875</AltitudeMeters>
            <DistanceMeters>11439.727753234</DistanceMeters>
          </Trackpoint>
          <Trackpoint>
            <Time>2021-01-13T14:57:53.000Z</Time>
            <Position>
              <LatitudeDegrees>43.3303196914494037628173828125</LatitudeDegrees>
              <LongitudeDegrees>-4.0213058888912200927734375</LongitudeDegrees>
            </Position>
            <AltitudeMeters>161.600006103515625</AltitudeMeters>
            <DistanceMeters>11449.062646789</DistanceMeters>
          </Trackpoint>
          <Trackpoint>
            <Time>2021-01-13T14:57:55.000Z</Time>
            <Position>
              <LatitudeDegrees>43.33028440363705158233642578125</LatitudeDegrees>
              <LongitudeDegrees>-4.02120807208120822906494140625</LongitudeDegrees>
            </Position>
            <AltitudeMeters>162</AltitudeMeters>
            <DistanceMeters>11457.902685338</DistanceMeters>
          </Trackpoint>
          <Trackpoint>
            <Time>2021-01-13T14:57:56.000Z</Time>
            <Position>
              <LatitudeDegrees>43.33026277832686901092529296875</LatitudeDegrees>
              <LongitudeDegrees>-4.0211652405560016632080078125</LongitudeDegrees>
            </Position>
            <AltitudeMeters>162.1999969482421875</AltitudeMeters>
            <DistanceMeters>11462.124695629</DistanceMeters>
          </Trackpoint>
          <Trackpoint>
            <Time>2021-01-13T14:57:57.000Z</Time>
            <Position>
              <LatitudeDegrees>43.33023729734122753143310546875</LatitudeDegrees>
              <LongitudeDegrees>-4.02112877927720546722412109375</LongitudeDegrees>
            </Position>
            <AltitudeMeters>162.600006103515625</AltitudeMeters>
            <DistanceMeters>11466.218571773</DistanceMeters>
          </Trackpoint>
          <Trackpoint>
            <Time>2021-01-13T14:57:58.000Z</Time>
            <Position>
              <LatitudeDegrees>43.33020888268947601318359375</LatitudeDegrees>
              <LongitudeDegrees>-4.021098352968692779541015625</LongitudeDegrees>
            </Position>
            <AltitudeMeters>162.8000030517578125</AltitudeMeters>
            <DistanceMeters>11470.227753244</DistanceMeters>
          </Trackpoint>
          <Trackpoint>
            <Time>2021-01-13T14:57:59.000Z</Time>
            <Position>
              <LatitudeDegrees>43.33017745055258274078369140625</LatitudeDegrees>
              <LongitudeDegrees>-4.0210723690688610076904296875</LongitudeDegrees>
            </Position>
            <AltitudeMeters>162.8000030517578125</AltitudeMeters>
            <DistanceMeters>11474.310585731</DistanceMeters>
          </Trackpoint>
          <Trackpoint>
            <Time>2021-01-13T14:58:01.000Z</Time>
            <Position>
              <LatitudeDegrees>43.3301101438701152801513671875</LatitudeDegrees>
              <LongitudeDegrees>-4.0210321359336376190185546875</LongitudeDegrees>
            </Position>
            <AltitudeMeters>163.1999969482421875</AltitudeMeters>
            <DistanceMeters>11482.479567609</DistanceMeters>
          </Trackpoint>
          <Trackpoint>
            <Time>2021-01-13T14:58:03.000Z</Time>
            <Position>
              <LatitudeDegrees>43.33003898151218891143798828125</LatitudeDegrees>
              <LongitudeDegrees>-4.02101260609924793243408203125</LongitudeDegrees>
            </Position>
            <AltitudeMeters>163.600006103515625</AltitudeMeters>
            <DistanceMeters>11490.556838331</DistanceMeters>
          </Trackpoint>
          <Trackpoint>
            <Time>2021-01-13T14:58:05.000Z</Time>
            <Position>
              <LatitudeDegrees>43.3299676515161991119384765625</LatitudeDegrees>
              <LongitudeDegrees>-4.02100958861410617828369140625</LongitudeDegrees>
            </Position>
            <AltitudeMeters>163.8000030517578125</AltitudeMeters>
            <DistanceMeters>11498.499957624</DistanceMeters>
          </Trackpoint>
          <Trackpoint>
            <Time>2021-01-13T14:58:07.000Z</Time>
            <Position>
              <LatitudeDegrees>43.32989565096795558929443359375</LatitudeDegrees>
              <LongitudeDegrees>-4.02102149091660976409912109375</LongitudeDegrees>
            </Position>
            <AltitudeMeters>164.1999969482421875</AltitudeMeters>
            <DistanceMeters>11506.571636603</DistanceMeters>
          </Trackpoint>
          <Trackpoint>
            <Time>2021-01-13T14:58:09.000Z</Time>
            <Position>
              <LatitudeDegrees>43.32982239313423633575439453125</LatitudeDegrees>
              <LongitudeDegrees>-4.0210403501987457275390625</LongitudeDegrees>
            </Position>
            <AltitudeMeters>164.8000030517578125</AltitudeMeters>
            <DistanceMeters>11514.867855179</DistanceMeters>
          </Trackpoint>
          <Trackpoint>
            <Time>2021-01-13T14:58:11.000Z</Time>
            <Position>
              <LatitudeDegrees>43.32974561490118503570556640625</LatitudeDegrees>
              <LongitudeDegrees>-4.0210602991282939910888671875</LongitudeDegrees>
            </Position>
            <AltitudeMeters>165.600006103515625</AltitudeMeters>
            <DistanceMeters>11523.564746595</DistanceMeters>
          </Trackpoint>
          <Trackpoint>
            <Time>2021-01-13T14:58:12.000Z</Time>
            <Position>
              <LatitudeDegrees>43.3297064714133739471435546875</LatitudeDegrees>
              <LongitudeDegrees>-4.02106842957437038421630859375</LongitudeDegrees>
            </Position>
            <AltitudeMeters>166</AltitudeMeters>
            <DistanceMeters>11527.970954074</DistanceMeters>
          </Trackpoint>
          <Trackpoint>
            <Time>2021-01-13T14:58:13.000Z</Time>
            <Position>
              <LatitudeDegrees>43.3296672441065311431884765625</LatitudeDegrees>
              <LongitudeDegrees>-4.0210763923823833465576171875</LongitudeDegrees>
            </Position>
            <AltitudeMeters>166.1999969482421875</AltitudeMeters>
            <DistanceMeters>11532.384328621</DistanceMeters>
          </Trackpoint>
          <Trackpoint>
            <Time>2021-01-13T14:58:15.000Z</Time>
            <Position>
              <LatitudeDegrees>43.329588957130908966064453125</LatitudeDegrees>
              <LongitudeDegrees>-4.02109173126518726348876953125</LongitudeDegrees>
            </Position>
            <AltitudeMeters>166.399993896484375</AltitudeMeters>
            <DistanceMeters>11541.185977661</DistanceMeters>
          </Trackpoint>
          <Trackpoint>
            <Time>2021-01-13T14:58:17.000Z</Time>
            <Position>
              <LatitudeDegrees>43.32951142452657222747802734375</LatitudeDegrees>
              <LongitudeDegrees>-4.0211082436144351959228515625</LongitudeDegrees>
            </Position>
            <AltitudeMeters>166.8000030517578125</AltitudeMeters>
            <DistanceMeters>11549.918617328</DistanceMeters>
          </Trackpoint>
          <Trackpoint>
            <Time>2021-01-13T14:58:18.000Z</Time>
            <Position>
              <LatitudeDegrees>43.32947370596230030059814453125</LatitudeDegrees>
              <LongitudeDegrees>-4.02111612260341644287109375</LongitudeDegrees>
            </Position>
            <AltitudeMeters>167.1999969482421875</AltitudeMeters>
            <DistanceMeters>11554.1651527</DistanceMeters>
          </Trackpoint>
          <Trackpoint>
            <Time>2021-01-13T14:58:19.000Z</Time>
            <Position>
              <LatitudeDegrees>43.329436071217060089111328125</LatitudeDegrees>
              <LongitudeDegrees>-4.02112282812595367431640625</LongitudeDegrees>
            </Position>
            <AltitudeMeters>167.399993896484375</AltitudeMeters>
            <DistanceMeters>11558.389301259</DistanceMeters>
          </Trackpoint>
          <Trackpoint>
            <Time>2021-01-13T14:58:21.000Z</Time>
            <Position>
              <LatitudeDegrees>43.3293628133833408355712890625</LatitudeDegrees>
              <LongitudeDegrees>-4.021137244999408721923828125</LongitudeDegrees>
            </Position>
            <AltitudeMeters>168</AltitudeMeters>
            <DistanceMeters>11566.62598532</DistanceMeters>
          </Trackpoint>
          <Trackpoint>
            <Time>2021-01-13T14:58:22.000Z</Time>
            <Position>
              <LatitudeDegrees>43.32932643592357635498046875</LatitudeDegrees>
              <LongitudeDegrees>-4.0211454592645168304443359375</LongitudeDegrees>
            </Position>
            <AltitudeMeters>168.1999969482421875</AltitudeMeters>
            <DistanceMeters>11570.728674986</DistanceMeters>
          </Trackpoint>
          <Trackpoint>
            <Time>2021-01-13T14:58:23.000Z</Time>
            <Position>
              <LatitudeDegrees>43.3292893879115581512451171875</LatitudeDegrees>
              <LongitudeDegrees>-4.02115367352962493896484375</LongitudeDegrees>
            </Position>
            <AltitudeMeters>168.399993896484375</AltitudeMeters>
            <DistanceMeters>11574.905528789</DistanceMeters>
          </Trackpoint>
          <Trackpoint>
            <Time>2021-01-13T14:58:25.000Z</Time>
            <Position>
              <LatitudeDegrees>43.3292136155068874359130859375</LatitudeDegrees>
              <LongitudeDegrees>-4.02116901241242885589599609375</LongitudeDegrees>
            </Position>
            <AltitudeMeters>168.600006103515625</AltitudeMeters>
            <DistanceMeters>11583.429377395</DistanceMeters>
          </Trackpoint>
          <Trackpoint>
            <Time>2021-01-13T14:58:27.000Z</Time>
            <Position>
              <LatitudeDegrees>43.32913490943610668182373046875</LatitudeDegrees>
              <LongitudeDegrees>-4.0211823396384716033935546875</LongitudeDegrees>
            </Position>
            <AltitudeMeters>169</AltitudeMeters>
            <DistanceMeters>11592.256126489</DistanceMeters>
          </Trackpoint>
          <Trackpoint>
            <Time>2021-01-13T14:58:29.000Z</Time>
            <Position>
              <LatitudeDegrees>43.32905561663210391998291015625</LatitudeDegrees>
              <LongitudeDegrees>-4.02119432576000690460205078125</LongitudeDegrees>
            </Position>
            <AltitudeMeters>169.399993896484375</AltitudeMeters>
            <DistanceMeters>11601.134897088</DistanceMeters>
          </Trackpoint>
          <Trackpoint>
            <Time>2021-01-13T14:58:31.000Z</Time>
            <Position>
              <LatitudeDegrees>43.3289769105613231658935546875</LatitudeDegrees>
              <LongitudeDegrees>-4.02120036073029041290283203125</LongitudeDegrees>
            </Position>
            <AltitudeMeters>169.8000030517578125</AltitudeMeters>
            <DistanceMeters>11609.90828706</DistanceMeters>
          </Trackpoint>
          <Trackpoint>
            <Time>2021-01-13T14:58:33.000Z</Time>
            <Position>
              <LatitudeDegrees>43.32889988087117671966552734375</LatitudeDegrees>
              <LongitudeDegrees>-4.02119281701743602752685546875</LongitudeDegrees>
            </Position>
            <AltitudeMeters>170.1999969482421875</AltitudeMeters>
            <DistanceMeters>11618.503872291</DistanceMeters>
          </Trackpoint>
          <Trackpoint>
            <Time>2021-01-13T14:58:34.000Z</Time>
            <Position>
              <LatitudeDegrees>43.32886199466884136199951171875</LatitudeDegrees>
              <LongitudeDegrees>-4.0211853571236133575439453125</LongitudeDegrees>
            </Position>
            <AltitudeMeters>170.600006103515625</AltitudeMeters>
            <DistanceMeters>11622.764207214</DistanceMeters>
          </Trackpoint>
          <Trackpoint>
            <Time>2021-01-13T14:58:35.000Z</Time>
            <Position>
              <LatitudeDegrees>43.3288241922855377197265625</LatitudeDegrees>
              <LongitudeDegrees>-4.02117538265883922576904296875</LongitudeDegrees>
            </Position>
            <AltitudeMeters>170.8000030517578125</AltitudeMeters>
            <DistanceMeters>11627.048847854</DistanceMeters>
          </Trackpoint>
          <Trackpoint>
            <Time>2021-01-13T14:58:36.000Z</Time>
            <Position>
              <LatitudeDegrees>43.32878622226417064666748046875</LatitudeDegrees>
              <LongitudeDegrees>-4.02116230688989162445068359375</LongitudeDegrees>
            </Position>
            <AltitudeMeters>171.1999969482421875</AltitudeMeters>
            <DistanceMeters>11631.40351897</DistanceMeters>
          </Trackpoint>
          <Trackpoint>
            <Time>2021-01-13T14:58:37.000Z</Time>
            <Position>
              <LatitudeDegrees>43.3287479169666767120361328125</LatitudeDegrees>
              <LongitudeDegrees>-4.02114705182611942291259765625</LongitudeDegrees>
            </Position>
            <AltitudeMeters>171.399993896484375</AltitudeMeters>
            <DistanceMeters>11635.84239572</DistanceMeters>
          </Trackpoint>
          <Trackpoint>
            <Time>2021-01-13T14:58:38.000Z</Time>
            <Position>
              <LatitudeDegrees>43.328710533678531646728515625</LatitudeDegrees>
              <LongitudeDegrees>-4.021129198372364044189453125</LongitudeDegrees>
            </Position>
            <AltitudeMeters>171.600006103515625</AltitudeMeters>
            <DistanceMeters>11640.246553324</DistanceMeters>
          </Trackpoint>
          <Trackpoint>
            <Time>2021-01-13T14:58:39.000Z</Time>
            <Position>
              <LatitudeDegrees>43.3286724798381328582763671875</LatitudeDegrees>
              <LongitudeDegrees>-4.02110832743346691131591796875</LongitudeDegrees>
            </Position>
            <AltitudeMeters>172</AltitudeMeters>
            <DistanceMeters>11644.805855461</DistanceMeters>
          </Trackpoint>
          <Trackpoint>
            <Time>2021-01-13T14:58:41.000Z</Time>
            <Position>
              <LatitudeDegrees>43.32860098220407962799072265625</LatitudeDegrees>
              <LongitudeDegrees>-4.0210579521954059600830078125</LongitudeDegrees>
            </Position>
            <AltitudeMeters>172.1999969482421875</AltitudeMeters>
            <DistanceMeters>11653.747965218</DistanceMeters>
          </Trackpoint>
          <Trackpoint>
            <Time>2021-01-13T14:58:43.000Z</Time>
            <Position>
              <LatitudeDegrees>43.32853308878839015960693359375</LatitudeDegrees>
              <LongitudeDegrees>-4.0209992788732051849365234375</LongitudeDegrees>
            </Position>
            <AltitudeMeters>172.600006103515625</AltitudeMeters>
            <DistanceMeters>11662.674408773</DistanceMeters>
          </Trackpoint>
          <Trackpoint>
            <Time>2021-01-13T14:58:45.000Z</Time>
            <Position>
              <LatitudeDegrees>43.32846838049590587615966796875</LatitudeDegrees>
              <LongitudeDegrees>-4.02093063108623027801513671875</LongitudeDegrees>
            </Position>
            <AltitudeMeters>173</AltitudeMeters>
            <DistanceMeters>11671.772193156</DistanceMeters>
          </Trackpoint>
          <Trackpoint>
            <Time>2021-01-13T14:58:47.000Z</Time>
            <Position>
              <LatitudeDegrees>43.32841121591627597808837890625</LatitudeDegrees>
              <LongitudeDegrees>-4.02085050009191036224365234375</LongitudeDegrees>
            </Position>
            <AltitudeMeters>173.399993896484375</AltitudeMeters>
            <DistanceMeters>11680.859052845</DistanceMeters>
          </Trackpoint>
          <Trackpoint>
            <Time>2021-01-13T14:58:49.000Z</Time>
            <Position>
              <LatitudeDegrees>43.32836394198238849639892578125</LatitudeDegrees>
              <LongitudeDegrees>-4.02076131664216518402099609375</LongitudeDegrees>
            </Position>
            <AltitudeMeters>173.8000030517578125</AltitudeMeters>
            <DistanceMeters>11689.793585612</DistanceMeters>
          </Trackpoint>
          <Trackpoint>
            <Time>2021-01-13T14:58:50.000Z</Time>
            <Position>
              <LatitudeDegrees>43.32834298722445964813232421875</LatitudeDegrees>
              <LongitudeDegrees>-4.02071471326053142547607421875</LongitudeDegrees>
            </Position>
            <AltitudeMeters>174</AltitudeMeters>
            <DistanceMeters>11694.229409839</DistanceMeters>
          </Trackpoint>
          <Trackpoint>
            <Time>2021-01-13T14:58:51.000Z</Time>
            <Position>
              <LatitudeDegrees>43.32832387648522853851318359375</LatitudeDegrees>
              <LongitudeDegrees>-4.02066953480243682861328125</LongitudeDegrees>
            </Position>
            <AltitudeMeters>174.1999969482421875</AltitudeMeters>
            <DistanceMeters>11698.459966719</DistanceMeters>
          </Trackpoint>
          <Trackpoint>
            <Time>2021-01-13T14:58:53.000Z</Time>
            <Position>
              <LatitudeDegrees>43.3282942883670330047607421875</LatitudeDegrees>
              <LongitudeDegrees>-4.0205818600952625274658203125</LongitudeDegrees>
            </Position>
            <AltitudeMeters>174.8000030517578125</AltitudeMeters>
            <DistanceMeters>11706.284538163</DistanceMeters>
          </Trackpoint>
          <Trackpoint>
            <Time>2021-01-13T14:58:54.000Z</Time>
            <Position>
              <LatitudeDegrees>43.32828213460743427276611328125</LatitudeDegrees>
              <LongitudeDegrees>-4.0205386094748973846435546875</LongitudeDegrees>
            </Position>
            <AltitudeMeters>175</AltitudeMeters>
            <DistanceMeters>11710.037792651</DistanceMeters>
          </Trackpoint>
          <Trackpoint>
            <Time>2021-01-13T14:58:55.000Z</Time>
            <Position>
              <LatitudeDegrees>43.328270651400089263916015625</LatitudeDegrees>
              <LongitudeDegrees>-4.02049410156905651092529296875</LongitudeDegrees>
            </Position>
            <AltitudeMeters>175.1999969482421875</AltitudeMeters>
            <DistanceMeters>11713.860182439</DistanceMeters>
          </Trackpoint>
          <Trackpoint>
            <Time>2021-01-13T14:58:56.000Z</Time>
            <Position>
              <LatitudeDegrees>43.32826218567788600921630859375</LatitudeDegrees>
              <LongitudeDegrees>-4.02044917456805706024169921875</LongitudeDegrees>
            </Position>
            <AltitudeMeters>175.399993896484375</AltitudeMeters>
            <DistanceMeters>11717.617044092</DistanceMeters>
          </Trackpoint>
          <Trackpoint>
            <Time>2021-01-13T14:58:57.000Z</Time>
            <Position>
              <LatitudeDegrees>43.3282553963363170623779296875</LatitudeDegrees>
              <LongitudeDegrees>-4.0204041637480258941650390625</LongitudeDegrees>
            </Position>
            <AltitudeMeters>175.600006103515625</AltitudeMeters>
            <DistanceMeters>11721.33889004</DistanceMeters>
          </Trackpoint>
          <Trackpoint>
            <Time>2021-01-13T14:58:59.000Z</Time>
            <Position>
              <LatitudeDegrees>43.3282426558434963226318359375</LatitudeDegrees>
              <LongitudeDegrees>-4.02031456120312213897705078125</LongitudeDegrees>
            </Position>
            <AltitudeMeters>176</AltitudeMeters>
            <DistanceMeters>11728.730233794</DistanceMeters>
          </Trackpoint>
          <Trackpoint>
            <Time>2021-01-13T14:59:00.000Z</Time>
            <Position>
              <LatitudeDegrees>43.32823754288256168365478515625</LatitudeDegrees>
              <LongitudeDegrees>-4.02026963420212268829345703125</LongitudeDegrees>
            </Position>
            <AltitudeMeters>176</AltitudeMeters>
            <DistanceMeters>11732.410602616</DistanceMeters>
          </Trackpoint>
          <Trackpoint>
            <Time>2021-01-13T14:59:01.000Z</Time>
            <Position>
              <LatitudeDegrees>43.328233100473880767822265625</LatitudeDegrees>
              <LongitudeDegrees>-4.0202249586582183837890625</LongitudeDegrees>
            </Position>
            <AltitudeMeters>176.1999969482421875</AltitudeMeters>
            <DistanceMeters>11736.061409764</DistanceMeters>
          </Trackpoint>
          <Trackpoint>
            <Time>2021-01-13T14:59:03.000Z</Time>
            <Position>
              <LatitudeDegrees>43.32822740077972412109375</LatitudeDegrees>
              <LongitudeDegrees>-4.02013569138944149017333984375</LongitudeDegrees>
            </Position>
            <AltitudeMeters>176.399993896484375</AltitudeMeters>
            <DistanceMeters>11743.317121009</DistanceMeters>
          </Trackpoint>
          <Trackpoint>
            <Time>2021-01-13T14:59:05.000Z</Time>
            <Position>
              <LatitudeDegrees>43.328223712742328643798828125</LatitudeDegrees>
              <LongitudeDegrees>-4.02004600502550601959228515625</LongitudeDegrees>
            </Position>
            <AltitudeMeters>176.600006103515625</AltitudeMeters>
            <DistanceMeters>11750.588993371</DistanceMeters>
          </Trackpoint>
          <Trackpoint>
            <Time>2021-01-13T14:59:07.000Z</Time>
            <Position>
              <LatitudeDegrees>43.328220359981060028076171875</LatitudeDegrees>
              <LongitudeDegrees>-4.01995464228093624114990234375</LongitudeDegrees>
            </Position>
            <AltitudeMeters>177.1999969482421875</AltitudeMeters>
            <DistanceMeters>11757.994983131</DistanceMeters>
          </Trackpoint>
          <Trackpoint>
            <Time>2021-01-13T14:59:08.000Z</Time>
            <Position>
              <LatitudeDegrees>43.32821725867688655853271484375</LatitudeDegrees>
              <LongitudeDegrees>-4.01990887708961963653564453125</LongitudeDegrees>
            </Position>
            <AltitudeMeters>177.399993896484375</AltitudeMeters>
            <DistanceMeters>11761.714402052</DistanceMeters>
          </Trackpoint>
          <Trackpoint>
            <Time>2021-01-13T14:59:09.000Z</Time>
            <Position>
              <LatitudeDegrees>43.328213989734649658203125</LatitudeDegrees>
              <LongitudeDegrees>-4.0198636986315250396728515625</LongitudeDegrees>
            </Position>
            <AltitudeMeters>177.600006103515625</AltitudeMeters>
            <DistanceMeters>11765.38986044</DistanceMeters>
          </Trackpoint>
          <Trackpoint>
            <Time>2021-01-13T14:59:11.000Z</Time>
            <Position>
              <LatitudeDegrees>43.32820661365985870361328125</LatitudeDegrees>
              <LongitudeDegrees>-4.01977233588695526123046875</LongitudeDegrees>
            </Position>
            <AltitudeMeters>177.8000030517578125</AltitudeMeters>
            <DistanceMeters>11772.832339121</DistanceMeters>
          </Trackpoint>
          <Trackpoint>
            <Time>2021-01-13T14:59:13.000Z</Time>
            <Position>
              <LatitudeDegrees>43.32819496281445026397705078125</LatitudeDegrees>
              <LongitudeDegrees>-4.019680134952068328857421875</LongitudeDegrees>
            </Position>
            <AltitudeMeters>178</AltitudeMeters>
            <DistanceMeters>11780.408894799</DistanceMeters>
          </Trackpoint>
          <Trackpoint>
            <Time>2021-01-13T14:59:15.000Z</Time>
            <Position>
              <LatitudeDegrees>43.3281829766929149627685546875</LatitudeDegrees>
              <LongitudeDegrees>-4.01958500035107135772705078125</LongitudeDegrees>
            </Position>
            <AltitudeMeters>178.399993896484375</AltitudeMeters>
            <DistanceMeters>11788.225383603</DistanceMeters>
          </Trackpoint>
          <Trackpoint>
            <Time>2021-01-13T14:59:17.000Z</Time>
            <Position>
              <LatitudeDegrees>43.3281682245433330535888671875</LatitudeDegrees>
              <LongitudeDegrees>-4.0194898657500743865966796875</LongitudeDegrees>
            </Position>
            <AltitudeMeters>178.8000030517578125</AltitudeMeters>
            <DistanceMeters>11796.100570269</DistanceMeters>
          </Trackpoint>
          <Trackpoint>
            <Time>2021-01-13T14:59:19.000Z</Time>
            <Position>
              <LatitudeDegrees>43.32814685069024562835693359375</LatitudeDegrees>
              <LongitudeDegrees>-4.019397161900997161865234375</LongitudeDegrees>
            </Position>
            <AltitudeMeters>179</AltitudeMeters>
            <DistanceMeters>11803.974610202</DistanceMeters>
          </Trackpoint>
          <Trackpoint>
            <Time>2021-01-13T14:59:21.000Z</Time>
            <Position>
              <LatitudeDegrees>43.328125141561031341552734375</LatitudeDegrees>
              <LongitudeDegrees>-4.0193024463951587677001953125</LongitudeDegrees>
            </Position>
            <AltitudeMeters>179.399993896484375</AltitudeMeters>
            <DistanceMeters>11812.014341987</DistanceMeters>
          </Trackpoint>
          <Trackpoint>
            <Time>2021-01-13T14:59:23.000Z</Time>
            <Position>
              <LatitudeDegrees>43.32810242660343647003173828125</LatitudeDegrees>
              <LongitudeDegrees>-4.0192089043557643890380859375</LongitudeDegrees>
            </Position>
            <AltitudeMeters>179.600006103515625</AltitudeMeters>
            <DistanceMeters>11819.998848215</DistanceMeters>
          </Trackpoint>
          <Trackpoint>
            <Time>2021-01-13T14:59:25.000Z</Time>
            <Position>
              <LatitudeDegrees>43.3280793763697147369384765625</LatitudeDegrees>
              <LongitudeDegrees>-4.01911611668765544891357421875</LongitudeDegrees>
            </Position>
            <AltitudeMeters>179.8000030517578125</AltitudeMeters>
            <DistanceMeters>11827.936850068</DistanceMeters>
          </Trackpoint>
          <Trackpoint>
            <Time>2021-01-13T14:59:27.000Z</Time>
            <Position>
              <LatitudeDegrees>43.32805775105953216552734375</LatitudeDegrees>
              <LongitudeDegrees>-4.01902508921921253204345703125</LongitudeDegrees>
            </Position>
            <AltitudeMeters>180.1999969482421875</AltitudeMeters>
            <DistanceMeters>11835.689539202</DistanceMeters>
          </Trackpoint>
          <Trackpoint>
            <Time>2021-01-13T14:59:29.000Z</Time>
            <Position>
              <LatitudeDegrees>43.32803503610193729400634765625</LatitudeDegrees>
              <LongitudeDegrees>-4.01893372647464275360107421875</LongitudeDegrees>
            </Position>
            <AltitudeMeters>180.600006103515625</AltitudeMeters>
            <DistanceMeters>11843.506028006</DistanceMeters>
          </Trackpoint>
          <Trackpoint>
            <Time>2021-01-13T14:59:31.000Z</Time>
            <Position>
              <LatitudeDegrees>43.32801391370594501495361328125</LatitudeDegrees>
              <LongitudeDegrees>-4.0188395977020263671875</LongitudeDegrees>
            </Position>
            <AltitudeMeters>181</AltitudeMeters>
            <DistanceMeters>11851.481481502</DistanceMeters>
          </Trackpoint>
          <Trackpoint>
            <Time>2021-01-13T14:59:32.000Z</Time>
            <Position>
              <LatitudeDegrees>43.3280034363269805908203125</LatitudeDegrees>
              <LongitudeDegrees>-4.01879173703491687774658203125</LongitudeDegrees>
            </Position>
            <AltitudeMeters>181.399993896484375</AltitudeMeters>
            <DistanceMeters>11855.52877179</DistanceMeters>
          </Trackpoint>
          <Trackpoint>
            <Time>2021-01-13T14:59:33.000Z</Time>
            <Position>
              <LatitudeDegrees>43.32799312658607959747314453125</LatitudeDegrees>
              <LongitudeDegrees>-4.018743373453617095947265625</LongitudeDegrees>
            </Position>
            <AltitudeMeters>181.399993896484375</AltitudeMeters>
            <DistanceMeters>11859.610498267</DistanceMeters>
          </Trackpoint>
          <Trackpoint>
            <Time>2021-01-13T14:59:34.000Z</Time>
            <Position>
              <LatitudeDegrees>43.3279844932258129119873046875</LatitudeDegrees>
              <LongitudeDegrees>-4.018693082034587860107421875</LongitudeDegrees>
            </Position>
            <AltitudeMeters>181.600006103515625</AltitudeMeters>
            <DistanceMeters>11863.79383284</DistanceMeters>
          </Trackpoint>
          <Trackpoint>
            <Time>2021-01-13T14:59:35.000Z</Time>
            <Position>
              <LatitudeDegrees>43.32797736860811710357666015625</LatitudeDegrees>
              <LongitudeDegrees>-4.01864136569201946258544921875</LongitudeDegrees>
            </Position>
            <AltitudeMeters>181.8000030517578125</AltitudeMeters>
            <DistanceMeters>11868.056286805</DistanceMeters>
          </Trackpoint>
          <Trackpoint>
            <Time>2021-01-13T14:59:37.000Z</Time>
            <Position>
              <LatitudeDegrees>43.3279687352478504180908203125</LatitudeDegrees>
              <LongitudeDegrees>-4.0185370109975337982177734375</LongitudeDegrees>
            </Position>
            <AltitudeMeters>182.1999969482421875</AltitudeMeters>
            <DistanceMeters>11876.559983188</DistanceMeters>
          </Trackpoint>
          <Trackpoint>
            <Time>2021-01-13T14:59:39.000Z</Time>
            <Position>
              <LatitudeDegrees>43.32796923816204071044921875</LatitudeDegrees>
              <LongitudeDegrees>-4.0184350870549678802490234375</LongitudeDegrees>
            </Position>
            <AltitudeMeters>182.8000030517578125</AltitudeMeters>
            <DistanceMeters>11884.813095729</DistanceMeters>
          </Trackpoint>
          <Trackpoint>
            <Time>2021-01-13T14:59:41.000Z</Time>
            <Position>
              <LatitudeDegrees>43.3279714174568653106689453125</LatitudeDegrees>
              <LongitudeDegrees>-4.0183340013027191162109375</LongitudeDegrees>
            </Position>
            <AltitudeMeters>183.1999969482421875</AltitudeMeters>
            <DistanceMeters>11893.001950818</DistanceMeters>
          </Trackpoint>
          <Trackpoint>
            <Time>2021-01-13T14:59:43.000Z</Time>
            <Position>
              <LatitudeDegrees>43.3279774524271488189697265625</LatitudeDegrees>
              <LongitudeDegrees>-4.0182362683117389678955078125</LongitudeDegrees>
            </Position>
            <AltitudeMeters>183.600006103515625</AltitudeMeters>
            <DistanceMeters>11900.943364665</DistanceMeters>
          </Trackpoint>
          <Trackpoint>
            <Time>2021-01-13T14:59:44.000Z</Time>
            <Position>
              <LatitudeDegrees>43.32798264920711517333984375</LatitudeDegrees>
              <LongitudeDegrees>-4.01818924583494663238525390625</LongitudeDegrees>
            </Position>
            <AltitudeMeters>183.8000030517578125</AltitudeMeters>
            <DistanceMeters>11904.793999096</DistanceMeters>
          </Trackpoint>
          <Trackpoint>
            <Time>2021-01-13T14:59:45.000Z</Time>
            <Position>
              <LatitudeDegrees>43.32798759452998638153076171875</LatitudeDegrees>
              <LongitudeDegrees>-4.01814213953912258148193359375</LongitudeDegrees>
            </Position>
            <AltitudeMeters>184.1999969482421875</AltitudeMeters>
            <DistanceMeters>11908.646977901</DistanceMeters>
          </Trackpoint>
          <Trackpoint>
            <Time>2021-01-13T14:59:47.000Z</Time>
            <Position>
              <LatitudeDegrees>43.3279972337186336517333984375</LatitudeDegrees>
              <LongitudeDegrees>-4.01805178262293338775634765625</LongitudeDegrees>
            </Position>
            <AltitudeMeters>184.600006103515625</AltitudeMeters>
            <DistanceMeters>11916.04076467</DistanceMeters>
          </Trackpoint>
          <Trackpoint>
            <Time>2021-01-13T14:59:48.000Z</Time>
            <Position>
              <LatitudeDegrees>43.32800251431763172149658203125</LatitudeDegrees>
              <LongitudeDegrees>-4.01800702325999736785888671875</LongitudeDegrees>
            </Position>
            <AltitudeMeters>184.8000030517578125</AltitudeMeters>
            <DistanceMeters>11919.713765379</DistanceMeters>
          </Trackpoint>
          <Trackpoint>
            <Time>2021-01-13T14:59:49.000Z</Time>
            <Position>
              <LatitudeDegrees>43.3280061185359954833984375</LatitudeDegrees>
              <LongitudeDegrees>-4.01796125806868076324462890625</LongitudeDegrees>
            </Position>
            <AltitudeMeters>185</AltitudeMeters>
            <DistanceMeters>11923.440460641</DistanceMeters>
          </Trackpoint>
          <Trackpoint>
            <Time>2021-01-13T14:59:51.000Z</Time>
            <Position>
              <LatitudeDegrees>43.32801123149693012237548828125</LatitudeDegrees>
              <LongitudeDegrees>-4.0178724937140941619873046875</LongitudeDegrees>
            </Position>
            <AltitudeMeters>185.1999969482421875</AltitudeMeters>
            <DistanceMeters>11930.649350287</DistanceMeters>
          </Trackpoint>
          <Trackpoint>
            <Time>2021-01-13T14:59:53.000Z</Time>
            <Position>
              <LatitudeDegrees>43.32801173441112041473388671875</LatitudeDegrees>
              <LongitudeDegrees>-4.0177819691598415374755859375</LongitudeDegrees>
            </Position>
            <AltitudeMeters>185.8000030517578125</AltitudeMeters>
            <DistanceMeters>11937.979354028</DistanceMeters>
          </Trackpoint>
          <Trackpoint>
            <Time>2021-01-13T14:59:54.000Z</Time>
            <Position>
              <LatitudeDegrees>43.3280114829540252685546875</LatitudeDegrees>
              <LongitudeDegrees>-4.0177360363304615020751953125</LongitudeDegrees>
            </Position>
            <AltitudeMeters>186</AltitudeMeters>
            <DistanceMeters>11941.696344337</DistanceMeters>
          </Trackpoint>
          <Trackpoint>
            <Time>2021-01-13T14:59:55.000Z</Time>
            <Position>
              <LatitudeDegrees>43.3280103094875812530517578125</LatitudeDegrees>
              <LongitudeDegrees>-4.01769069023430347442626953125</LongitudeDegrees>
            </Position>
            <AltitudeMeters>186.1999969482421875</AltitudeMeters>
            <DistanceMeters>11945.370574091</DistanceMeters>
          </Trackpoint>
          <Trackpoint>
            <Time>2021-01-13T14:59:57.000Z</Time>
            <Position>
              <LatitudeDegrees>43.328006453812122344970703125</LatitudeDegrees>
              <LongitudeDegrees>-4.017594717442989349365234375</LongitudeDegrees>
            </Position>
            <AltitudeMeters>186.600006103515625</AltitudeMeters>
            <DistanceMeters>11953.153488249</DistanceMeters>
          </Trackpoint>
          <Trackpoint>
            <Time>2021-01-13T14:59:59.000Z</Time>
            <Position>
              <LatitudeDegrees>43.32799966447055339813232421875</LatitudeDegrees>
              <LongitudeDegrees>-4.0175026841461658477783203125</LongitudeDegrees>
            </Position>
            <AltitudeMeters>186.8000030517578125</AltitudeMeters>
            <DistanceMeters>11960.643136763</DistanceMeters>
          </Trackpoint>
          <Trackpoint>
            <Time>2021-01-13T15:00:01.000Z</Time>
            <Position>
              <LatitudeDegrees>43.3279928751289844512939453125</LatitudeDegrees>
              <LongitudeDegrees>-4.01741291396319866180419921875</LongitudeDegrees>
            </Position>
            <AltitudeMeters>187</AltitudeMeters>
            <DistanceMeters>11967.950932059</DistanceMeters>
          </Trackpoint>
          <Trackpoint>
            <Time>2021-01-13T15:00:03.000Z</Time>
            <Position>
              <LatitudeDegrees>43.327987678349018096923828125</LatitudeDegrees>
              <LongitudeDegrees>-4.01732079684734344482421875</LongitudeDegrees>
            </Position>
            <AltitudeMeters>187.399993896484375</AltitudeMeters>
            <DistanceMeters>11975.432136093</DistanceMeters>
          </Trackpoint>
          <Trackpoint>
            <Time>2021-01-13T15:00:05.000Z</Time>
            <Position>
              <LatitudeDegrees>43.3279819786548614501953125</LatitudeDegrees>
              <LongitudeDegrees>-4.0172307752072811126708984375</LongitudeDegrees>
            </Position>
            <AltitudeMeters>187.8000030517578125</AltitudeMeters>
            <DistanceMeters>11982.747958883</DistanceMeters>
          </Trackpoint>
          <Trackpoint>
            <Time>2021-01-13T15:00:07.000Z</Time>
            <Position>
              <LatitudeDegrees>43.327978961169719696044921875</LatitudeDegrees>
              <LongitudeDegrees>-4.0171412564814090728759765625</LongitudeDegrees>
            </Position>
            <AltitudeMeters>188.1999969482421875</AltitudeMeters>
            <DistanceMeters>11990.003670127</DistanceMeters>
          </Trackpoint>
          <Trackpoint>
            <Time>2021-01-13T15:00:09.000Z</Time>
            <Position>
              <LatitudeDegrees>43.32797736860811710357666015625</LatitudeDegrees>
              <LongitudeDegrees>-4.01705601252615451812744140625</LongitudeDegrees>
            </Position>
            <AltitudeMeters>188.600006103515625</AltitudeMeters>
            <DistanceMeters>11996.907346211</DistanceMeters>
          </Trackpoint>
          <Trackpoint>
            <Time>2021-01-13T15:00:11.000Z</Time>
            <Position>
              <LatitudeDegrees>43.32797468639910221099853515625</LatitudeDegrees>
              <LongitudeDegrees>-4.01697336696088314056396484375</LongitudeDegrees>
            </Position>
            <AltitudeMeters>188.8000030517578125</AltitudeMeters>
            <DistanceMeters>12003.605213019</DistanceMeters>
          </Trackpoint>
          <Trackpoint>
            <Time>2021-01-13T15:00:13.000Z</Time>
            <Position>
              <LatitudeDegrees>43.32796714268624782562255859375</LatitudeDegrees>
              <LongitudeDegrees>-4.016891978681087493896484375</LongitudeDegrees>
            </Position>
            <AltitudeMeters>189.1999969482421875</AltitudeMeters>
            <DistanceMeters>12010.248253255</DistanceMeters>
          </Trackpoint>
          <Trackpoint>
            <Time>2021-01-13T15:00:14.000Z</Time>
            <Position>
              <LatitudeDegrees>43.32796211354434490203857421875</LatitudeDegrees>
              <LongitudeDegrees>-4.0168522484600543975830078125</LongitudeDegrees>
            </Position>
            <AltitudeMeters>189.399993896484375</AltitudeMeters>
            <DistanceMeters>12013.513910965</DistanceMeters>
          </Trackpoint>
          <Trackpoint>
            <Time>2021-01-13T15:00:15.000Z</Time>
            <Position>
              <LatitudeDegrees>43.32796144299209117889404296875</LatitudeDegrees>
              <LongitudeDegrees>-4.01680824346840381622314453125</LongitudeDegrees>
            </Position>
            <AltitudeMeters>189.600006103515625</AltitudeMeters>
            <DistanceMeters>12017.078362895</DistanceMeters>
          </Trackpoint>
          <Trackpoint>
            <Time>2021-01-13T15:00:17.000Z</Time>
            <Position>
              <LatitudeDegrees>43.32795825786888599395751953125</LatitudeDegrees>
              <LongitudeDegrees>-4.01672400534152984619140625</LongitudeDegrees>
            </Position>
            <AltitudeMeters>190</AltitudeMeters>
            <DistanceMeters>12023.908397661</DistanceMeters>
          </Trackpoint>
          <Trackpoint>
            <Time>2021-01-13T15:00:19.000Z</Time>
            <Position>
              <LatitudeDegrees>43.3279536478221416473388671875</LatitudeDegrees>
              <LongitudeDegrees>-4.0166380070149898529052734375</LongitudeDegrees>
            </Position>
            <AltitudeMeters>190.399993896484375</AltitudeMeters>
            <DistanceMeters>12030.890113256</DistanceMeters>
          </Trackpoint>
          <Trackpoint>
            <Time>2021-01-13T15:00:20.000Z</Time>
            <Position>
              <LatitudeDegrees>43.32795540802180767059326171875</LatitudeDegrees>
              <LongitudeDegrees>-4.0165947563946247100830078125</LongitudeDegrees>
            </Position>
            <AltitudeMeters>190.600006103515625</AltitudeMeters>
            <DistanceMeters>12034.398388358</DistanceMeters>
          </Trackpoint>
          <Trackpoint>
            <Time>2021-01-13T15:00:21.000Z</Time>
            <Position>
              <LatitudeDegrees>43.32795792259275913238525390625</LatitudeDegrees>
              <LongitudeDegrees>-4.0165441296994686126708984375</LongitudeDegrees>
            </Position>
            <AltitudeMeters>190.600006103515625</AltitudeMeters>
            <DistanceMeters>12038.50767576</DistanceMeters>
          </Trackpoint>
          <Trackpoint>
            <Time>2021-01-13T15:00:22.000Z</Time>
            <Position>
              <LatitudeDegrees>43.3279593475162982940673828125</LatitudeDegrees>
              <LongitudeDegrees>-4.01649358682334423065185546875</LongitudeDegrees>
            </Position>
            <AltitudeMeters>190.8000030517578125</AltitudeMeters>
            <DistanceMeters>12042.603757062</DistanceMeters>
          </Trackpoint>
          <Trackpoint>
            <Time>2021-01-13T15:00:23.000Z</Time>
            <Position>
              <LatitudeDegrees>43.327961526811122894287109375</LatitudeDegrees>
              <LongitudeDegrees>-4.0164457261562347412109375</LongitudeDegrees>
            </Position>
            <AltitudeMeters>191</AltitudeMeters>
            <DistanceMeters>12046.487083942</DistanceMeters>
          </Trackpoint>
          <Trackpoint>
            <Time>2021-01-13T15:00:25.000Z</Time>
            <Position>
              <LatitudeDegrees>43.32796119153499603271484375</LatitudeDegrees>
              <LongitudeDegrees>-4.016360230743885040283203125</LongitudeDegrees>
            </Position>
            <AltitudeMeters>191.399993896484375</AltitudeMeters>
            <DistanceMeters>12053.409047942</DistanceMeters>
          </Trackpoint>
          <Trackpoint>
            <Time>2021-01-13T15:00:26.000Z</Time>
            <Position>
              <LatitudeDegrees>43.32796228118240833282470703125</LatitudeDegrees>
              <LongitudeDegrees>-4.016317315399646759033203125</LongitudeDegrees>
            </Position>
            <AltitudeMeters>191.600006103515625</AltitudeMeters>
            <DistanceMeters>12056.886298632</DistanceMeters>
          </Trackpoint>
          <Trackpoint>
            <Time>2021-01-13T15:00:27.000Z</Time>
            <Position>
              <LatitudeDegrees>43.32796261645853519439697265625</LatitudeDegrees>
              <LongitudeDegrees>-4.0162742324173450469970703125</LongitudeDegrees>
            </Position>
            <AltitudeMeters>191.8000030517578125</AltitudeMeters>
            <DistanceMeters>12060.373921457</DistanceMeters>
          </Trackpoint>
          <Trackpoint>
            <Time>2021-01-13T15:00:29.000Z</Time>
            <Position>
              <LatitudeDegrees>43.32795674912631511688232421875</LatitudeDegrees>
              <LongitudeDegrees>-4.016190581023693084716796875</LongitudeDegrees>
            </Position>
            <AltitudeMeters>192.1999969482421875</AltitudeMeters>
            <DistanceMeters>12067.178789714</DistanceMeters>
          </Trackpoint>
          <Trackpoint>
            <Time>2021-01-13T15:00:31.000Z</Time>
            <Position>
              <LatitudeDegrees>43.3279452659189701080322265625</LatitudeDegrees>
              <LongitudeDegrees>-4.0161077678203582763671875</LongitudeDegrees>
            </Position>
            <AltitudeMeters>192.8000030517578125</AltitudeMeters>
            <DistanceMeters>12074.004195517</DistanceMeters>
          </Trackpoint>
          <Trackpoint>
            <Time>2021-01-13T15:00:33.000Z</Time>
            <Position>
              <LatitudeDegrees>43.3279390633106231689453125</LatitudeDegrees>
              <LongitudeDegrees>-4.01601246558129787445068359375</LongitudeDegrees>
            </Position>
            <AltitudeMeters>193.1999969482421875</AltitudeMeters>
            <DistanceMeters>12081.751058627</DistanceMeters>
          </Trackpoint>
          <Trackpoint>
            <Time>2021-01-13T15:00:35.000Z</Time>
            <Position>
              <LatitudeDegrees>43.32793210633099079132080078125</LatitudeDegrees>
              <LongitudeDegrees>-4.015914313495159149169921875</LongitudeDegrees>
            </Position>
            <AltitudeMeters>193.399993896484375</AltitudeMeters>
            <DistanceMeters>12089.735564855</DistanceMeters>
          </Trackpoint>
          <Trackpoint>
            <Time>2021-01-13T15:00:36.000Z</Time>
            <Position>
              <LatitudeDegrees>43.3279264904558658599853515625</LatitudeDegrees>
              <LongitudeDegrees>-4.01586377061903476715087890625</LongitudeDegrees>
            </Position>
            <AltitudeMeters>193.600006103515625</AltitudeMeters>
            <DistanceMeters>12093.875502667</DistanceMeters>
          </Trackpoint>
          <Trackpoint>
            <Time>2021-01-13T15:00:37.000Z</Time>
            <Position>
              <LatitudeDegrees>43.327918611466884613037109375</LatitudeDegrees>
              <LongitudeDegrees>-4.015812389552593231201171875</LongitudeDegrees>
            </Position>
            <AltitudeMeters>193.8000030517578125</AltitudeMeters>
            <DistanceMeters>12098.127350858</DistanceMeters>
          </Trackpoint>
          <Trackpoint>
            <Time>2021-01-13T15:00:38.000Z</Time>
            <Position>
              <LatitudeDegrees>43.327911905944347381591796875</LatitudeDegrees>
              <LongitudeDegrees>-4.0157626010477542877197265625</LongitudeDegrees>
            </Position>
            <AltitudeMeters>194</AltitudeMeters>
            <DistanceMeters>12102.227838919</DistanceMeters>
          </Trackpoint>
          <Trackpoint>
            <Time>2021-01-13T15:00:39.000Z</Time>
            <Position>
              <LatitudeDegrees>43.32790427841246128082275390625</LatitudeDegrees>
              <LongitudeDegrees>-4.01571423746645450592041015625</LongitudeDegrees>
            </Position>
            <AltitudeMeters>194.1999969482421875</AltitudeMeters>
            <DistanceMeters>12106.234767409</DistanceMeters>
          </Trackpoint>
          <Trackpoint>
            <Time>2021-01-13T15:00:41.000Z</Time>
            <Position>
              <LatitudeDegrees>43.32788944244384765625</LatitudeDegrees>
              <LongitudeDegrees>-4.01561097241938114166259765625</LongitudeDegrees>
            </Position>
            <AltitudeMeters>194.600006103515625</AltitudeMeters>
            <DistanceMeters>12114.75755656</DistanceMeters>
          </Trackpoint>
          <Trackpoint>
            <Time>2021-01-13T15:00:42.000Z</Time>
            <Position>
              <LatitudeDegrees>43.32788282074034214019775390625</LatitudeDegrees>
              <LongitudeDegrees>-4.0155587531626224517822265625</LongitudeDegrees>
            </Position>
            <AltitudeMeters>194.8000030517578125</AltitudeMeters>
            <DistanceMeters>12119.049567271</DistanceMeters>
          </Trackpoint>
          <Trackpoint>
            <Time>2021-01-13T15:00:43.000Z</Time>
            <Position>
              <LatitudeDegrees>43.32787678577005863189697265625</LatitudeDegrees>
              <LongitudeDegrees>-4.01551022194325923919677734375</LongitudeDegrees>
            </Position>
            <AltitudeMeters>195</AltitudeMeters>
            <DistanceMeters>12123.036161625</DistanceMeters>
          </Trackpoint>
          <Trackpoint>
            <Time>2021-01-13T15:00:44.000Z</Time>
            <Position>
              <LatitudeDegrees>43.3278718404471874237060546875</LatitudeDegrees>
              <LongitudeDegrees>-4.0154613554477691650390625</LongitudeDegrees>
            </Position>
            <AltitudeMeters>195</AltitudeMeters>
            <DistanceMeters>12127.030675998</DistanceMeters>
          </Trackpoint>
          <Trackpoint>
            <Time>2021-01-13T15:00:45.000Z</Time>
            <Position>
              <LatitudeDegrees>43.3278674818575382232666015625</LatitudeDegrees>
              <LongitudeDegrees>-4.01541433297097682952880859375</LongitudeDegrees>
            </Position>
            <AltitudeMeters>195.1999969482421875</AltitudeMeters>
            <DistanceMeters>12130.868390771</DistanceMeters>
          </Trackpoint>
          <Trackpoint>
            <Time>2021-01-13T15:00:47.000Z</Time>
            <Position>
              <LatitudeDegrees>43.32785918377339839935302734375</LatitudeDegrees>
              <LongitudeDegrees>-4.015317521989345550537109375</LongitudeDegrees>
            </Position>
            <AltitudeMeters>195.600006103515625</AltitudeMeters>
            <DistanceMeters>12138.760758433</DistanceMeters>
          </Trackpoint>
          <Trackpoint>
            <Time>2021-01-13T15:00:49.000Z</Time>
            <Position>
              <LatitudeDegrees>43.327848874032497406005859375</LatitudeDegrees>
              <LongitudeDegrees>-4.01521869935095310211181640625</LongitudeDegrees>
            </Position>
            <AltitudeMeters>196</AltitudeMeters>
            <DistanceMeters>12146.844175603</DistanceMeters>
          </Trackpoint>
          <Trackpoint>
            <Time>2021-01-13T15:00:50.000Z</Time>
            <Position>
              <LatitudeDegrees>43.3278456889092922210693359375</LatitudeDegrees>
              <LongitudeDegrees>-4.0151698328554630279541015625</LongitudeDegrees>
            </Position>
            <AltitudeMeters>196.1999969482421875</AltitudeMeters>
            <DistanceMeters>12150.817156049</DistanceMeters>
          </Trackpoint>
          <Trackpoint>
            <Time>2021-01-13T15:00:51.000Z</Time>
            <Position>
              <LatitudeDegrees>43.327846191823482513427734375</LatitudeDegrees>
              <LongitudeDegrees>-4.01512063108384609222412109375</LongitudeDegrees>
            </Position>
            <AltitudeMeters>196.399993896484375</AltitudeMeters>
            <DistanceMeters>12154.801484649</DistanceMeters>
          </Trackpoint>
          <Trackpoint>
            <Time>2021-01-13T15:00:53.000Z</Time>
            <Position>
              <LatitudeDegrees>43.3278567530214786529541015625</LatitudeDegrees>
              <LongitudeDegrees>-4.01501786895096302032470703125</LongitudeDegrees>
            </Position>
            <AltitudeMeters>196.8000030517578125</AltitudeMeters>
            <DistanceMeters>12163.204232277</DistanceMeters>
          </Trackpoint>
          <Trackpoint>
            <Time>2021-01-13T15:00:55.000Z</Time>
            <Position>
              <LatitudeDegrees>43.32788164727389812469482421875</LatitudeDegrees>
              <LongitudeDegrees>-4.01492047123610973358154296875</LongitudeDegrees>
            </Position>
            <AltitudeMeters>197.1999969482421875</AltitudeMeters>
            <DistanceMeters>12171.562802816</DistanceMeters>
          </Trackpoint>
          <Trackpoint>
            <Time>2021-01-13T15:00:57.000Z</Time>
            <Position>
              <LatitudeDegrees>43.32791584543883800506591796875</LatitudeDegrees>
              <LongitudeDegrees>-4.01482273824512958526611328125</LongitudeDegrees>
            </Position>
            <AltitudeMeters>197.600006103515625</AltitudeMeters>
            <DistanceMeters>12180.343394634</DistanceMeters>
          </Trackpoint>
          <Trackpoint>
            <Time>2021-01-13T15:00:59.000Z</Time>
            <Position>
              <LatitudeDegrees>43.32796496339142322540283203125</LatitudeDegrees>
              <LongitudeDegrees>-4.01473405770957469940185546875</LongitudeDegrees>
            </Position>
            <AltitudeMeters>198</AltitudeMeters>
            <DistanceMeters>12189.367430836</DistanceMeters>
          </Trackpoint>
          <Trackpoint>
            <Time>2021-01-13T15:01:00.000Z</Time>
            <Position>
              <LatitudeDegrees>43.32799497060477733612060546875</LatitudeDegrees>
              <LongitudeDegrees>-4.01469483040273189544677734375</LongitudeDegrees>
            </Position>
            <AltitudeMeters>198.1999969482421875</AltitudeMeters>
            <DistanceMeters>12193.975981562</DistanceMeters>
          </Trackpoint>
          <Trackpoint>
            <Time>2021-01-13T15:01:01.000Z</Time>
            <Position>
              <LatitudeDegrees>43.32802824676036834716796875</LatitudeDegrees>
              <LongitudeDegrees>-4.014659039676189422607421875</LongitudeDegrees>
            </Position>
            <AltitudeMeters>198.399993896484375</AltitudeMeters>
            <DistanceMeters>12198.678603938</DistanceMeters>
          </Trackpoint>
          <Trackpoint>
            <Time>2021-01-13T15:01:03.000Z</Time>
            <Position>
              <LatitudeDegrees>43.32810577936470508575439453125</LatitudeDegrees>
              <LongitudeDegrees>-4.01459567248821258544921875</LongitudeDegrees>
            </Position>
            <AltitudeMeters>199</AltitudeMeters>
            <DistanceMeters>12208.718211165</DistanceMeters>
          </Trackpoint>
          <Trackpoint>
            <Time>2021-01-13T15:01:05.000Z</Time>
            <Position>
              <LatitudeDegrees>43.32820099778473377227783203125</LatitudeDegrees>
              <LongitudeDegrees>-4.014543704688549041748046875</LongitudeDegrees>
            </Position>
            <AltitudeMeters>199.1999969482421875</AltitudeMeters>
            <DistanceMeters>12220.121416889</DistanceMeters>
          </Trackpoint>
          <Trackpoint>
            <Time>2021-01-13T15:01:06.000Z</Time>
            <Position>
              <LatitudeDegrees>43.32825531251728534698486328125</LatitudeDegrees>
              <LongitudeDegrees>-4.01451998390257358551025390625</LongitudeDegrees>
            </Position>
            <AltitudeMeters>199.399993896484375</AltitudeMeters>
            <DistanceMeters>12226.464761483</DistanceMeters>
          </Trackpoint>
          <Trackpoint>
            <Time>2021-01-13T15:01:07.000Z</Time>
            <Position>
              <LatitudeDegrees>43.328313566744327545166015625</LatitudeDegrees>
              <LongitudeDegrees>-4.01449567638337612152099609375</LongitudeDegrees>
            </Position>
            <AltitudeMeters>199.399993896484375</AltitudeMeters>
            <DistanceMeters>12233.241039128</DistanceMeters>
          </Trackpoint>
          <Trackpoint>
            <Time>2021-01-13T15:01:08.000Z</Time>
            <Position>
              <LatitudeDegrees>43.32837425172328948974609375</LatitudeDegrees>
              <LongitudeDegrees>-4.01446617208421230316162109375</LongitudeDegrees>
            </Position>
            <AltitudeMeters>199.399993896484375</AltitudeMeters>
            <DistanceMeters>12240.405322379</DistanceMeters>
          </Trackpoint>
          <Trackpoint>
            <Time>2021-01-13T15:01:09.000Z</Time>
            <Position>
              <LatitudeDegrees>43.32843652926385402679443359375</LatitudeDegrees>
              <LongitudeDegrees>-4.014427699148654937744140625</LongitudeDegrees>
            </Position>
            <AltitudeMeters>199.399993896484375</AltitudeMeters>
            <DistanceMeters>12248.00508349</DistanceMeters>
          </Trackpoint>
          <Trackpoint>
            <Time>2021-01-13T15:01:10.000Z</Time>
            <Position>
              <LatitudeDegrees>43.3284994773566722869873046875</LatitudeDegrees>
              <LongitudeDegrees>-4.01438235305249691009521484375</LongitudeDegrees>
            </Position>
            <AltitudeMeters>199.399993896484375</AltitudeMeters>
            <DistanceMeters>12255.915165643</DistanceMeters>
          </Trackpoint>
          <Trackpoint>
            <Time>2021-01-13T15:01:11.000Z</Time>
            <Position>
              <LatitudeDegrees>43.3285628445446491241455078125</LatitudeDegrees>
              <LongitudeDegrees>-4.01433122344315052032470703125</LongitudeDegrees>
            </Position>
            <AltitudeMeters>199.399993896484375</AltitudeMeters>
            <DistanceMeters>12264.092986022</DistanceMeters>
          </Trackpoint>
          <Trackpoint>
            <Time>2021-01-13T15:01:13.000Z</Time>
            <Position>
              <LatitudeDegrees>43.3286892436444759368896484375</LatitudeDegrees>
              <LongitudeDegrees>-4.0142169781029224395751953125</LongitudeDegrees>
            </Position>
            <AltitudeMeters>199.399993896484375</AltitudeMeters>
            <DistanceMeters>12280.930153833</DistanceMeters>
          </Trackpoint>
          <Trackpoint>
            <Time>2021-01-13T15:01:15.000Z</Time>
            <Position>
              <LatitudeDegrees>43.32881120033562183380126953125</LatitudeDegrees>
              <LongitudeDegrees>-4.01408278383314609527587890625</LongitudeDegrees>
            </Position>
            <AltitudeMeters>199.399993896484375</AltitudeMeters>
            <DistanceMeters>12298.316926653</DistanceMeters>
          </Trackpoint>
          <Trackpoint>
            <Time>2021-01-13T15:01:16.000Z</Time>
            <Position>
              <LatitudeDegrees>43.32886367104947566986083984375</LatitudeDegrees>
              <LongitudeDegrees>-4.013997204601764678955078125</LongitudeDegrees>
            </Position>
            <AltitudeMeters>199.1999969482421875</AltitudeMeters>
            <DistanceMeters>12307.377911976</DistanceMeters>
          </Trackpoint>
          <Trackpoint>
            <Time>2021-01-13T15:01:17.000Z</Time>
            <Position>
              <LatitudeDegrees>43.32891195081174373626708984375</LatitudeDegrees>
              <LongitudeDegrees>-4.01390475220978260040283203125</LongitudeDegrees>
            </Position>
            <AltitudeMeters>199</AltitudeMeters>
            <DistanceMeters>12316.592073833</DistanceMeters>
          </Trackpoint>
          <Trackpoint>
            <Time>2021-01-13T15:01:19.000Z</Time>
            <Position>
              <LatitudeDegrees>43.32899057306349277496337890625</LatitudeDegrees>
              <LongitudeDegrees>-4.013701491057872772216796875</LongitudeDegrees>
            </Position>
            <AltitudeMeters>198.600006103515625</AltitudeMeters>
            <DistanceMeters>12335.230880151</DistanceMeters>
          </Trackpoint>
          <Trackpoint>
            <Time>2021-01-13T15:01:20.000Z</Time>
            <Position>
              <LatitudeDegrees>43.32902493886649608612060546875</LatitudeDegrees>
              <LongitudeDegrees>-4.01359562762081623077392578125</LongitudeDegrees>
            </Position>
            <AltitudeMeters>198.399993896484375</AltitudeMeters>
            <DistanceMeters>12344.616903046</DistanceMeters>
          </Trackpoint>
          <Trackpoint>
            <Time>2021-01-13T15:01:21.000Z</Time>
            <Position>
              <LatitudeDegrees>43.32905963994562625885009765625</LatitudeDegrees>
              <LongitudeDegrees>-4.0134890936315059661865234375</LongitudeDegrees>
            </Position>
            <AltitudeMeters>198.1999969482421875</AltitudeMeters>
            <DistanceMeters>12354.067165266</DistanceMeters>
          </Trackpoint>
          <Trackpoint>
            <Time>2021-01-13T15:01:23.000Z</Time>
            <Position>
              <LatitudeDegrees>43.3291324786841869354248046875</LatitudeDegrees>
              <LongitudeDegrees>-4.013274013996124267578125</LongitudeDegrees>
            </Position>
            <AltitudeMeters>198</AltitudeMeters>
            <DistanceMeters>12373.275494018</DistanceMeters>
          </Trackpoint>
          <Trackpoint>
            <Time>2021-01-13T15:01:25.000Z</Time>
            <Position>
              <LatitudeDegrees>43.329210765659809112548828125</LatitudeDegrees>
              <LongitudeDegrees>-4.013055749237537384033203125</LongitudeDegrees>
            </Position>
            <AltitudeMeters>197.600006103515625</AltitudeMeters>
            <DistanceMeters>12392.978361482</DistanceMeters>
          </Trackpoint>
          <Trackpoint>
            <Time>2021-01-13T15:01:26.000Z</Time>
            <Position>
              <LatitudeDegrees>43.32925510592758655548095703125</LatitudeDegrees>
              <LongitudeDegrees>-4.01294770650565624237060546875</LongitudeDegrees>
            </Position>
            <AltitudeMeters>197.1999969482421875</AltitudeMeters>
            <DistanceMeters>12403.022464928</DistanceMeters>
          </Trackpoint>
          <Trackpoint>
            <Time>2021-01-13T15:01:27.000Z</Time>
            <Position>
              <LatitudeDegrees>43.32930455915629863739013671875</LatitudeDegrees>
              <LongitudeDegrees>-4.01284259743988513946533203125</LongitudeDegrees>
            </Position>
            <AltitudeMeters>196.8000030517578125</AltitudeMeters>
            <DistanceMeters>12413.15696489</DistanceMeters>
          </Trackpoint>
          <Trackpoint>
            <Time>2021-01-13T15:01:29.000Z</Time>
            <Position>
              <LatitudeDegrees>43.3294181339442729949951171875</LatitudeDegrees>
              <LongitudeDegrees>-4.012639336287975311279296875</LongitudeDegrees>
            </Position>
            <AltitudeMeters>196.1999969482421875</AltitudeMeters>
            <DistanceMeters>12433.908284255</DistanceMeters>
          </Trackpoint>
          <Trackpoint>
            <Time>2021-01-13T15:01:30.000Z</Time>
            <Position>
              <LatitudeDegrees>43.32947839982807636260986328125</LatitudeDegrees>
              <LongitudeDegrees>-4.01254068128764629364013671875</LongitudeDegrees>
            </Position>
            <AltitudeMeters>195.1999969482421875</AltitudeMeters>
            <DistanceMeters>12444.338737792</DistanceMeters>
          </Trackpoint>
          <Trackpoint>
            <Time>2021-01-13T15:01:31.000Z</Time>
            <Position>
              <LatitudeDegrees>43.32954042591154575347900390625</LatitudeDegrees>
              <LongitudeDegrees>-4.0124430321156978607177734375</LongitudeDegrees>
            </Position>
            <AltitudeMeters>194.600006103515625</AltitudeMeters>
            <DistanceMeters>12454.834781457</DistanceMeters>
          </Trackpoint>
          <Trackpoint>
            <Time>2021-01-13T15:01:33.000Z</Time>
            <Position>
              <LatitudeDegrees>43.3296571858227252960205078125</LatitudeDegrees>
              <LongitudeDegrees>-4.0122378431260585784912109375</LongitudeDegrees>
            </Position>
            <AltitudeMeters>193.8000030517578125</AltitudeMeters>
            <DistanceMeters>12475.92643113</DistanceMeters>
          </Trackpoint>
          <Trackpoint>
            <Time>2021-01-13T15:01:35.000Z</Time>
            <Position>
              <LatitudeDegrees>43.32970337010920047760009765625</LatitudeDegrees>
              <LongitudeDegrees>-4.01199082843959331512451171875</LongitudeDegrees>
            </Position>
            <AltitudeMeters>193</AltitudeMeters>
            <DistanceMeters>12496.575454098</DistanceMeters>
          </Trackpoint>
          <Trackpoint>
            <Time>2021-01-13T15:01:36.000Z</Time>
            <Position>
              <LatitudeDegrees>43.32967805676162242889404296875</LatitudeDegrees>
              <LongitudeDegrees>-4.01186996139585971832275390625</LongitudeDegrees>
            </Position>
            <AltitudeMeters>192.600006103515625</AltitudeMeters>
            <DistanceMeters>12506.758399046</DistanceMeters>
          </Trackpoint>
          <Trackpoint>
            <Time>2021-01-13T15:01:37.000Z</Time>
            <Position>
              <LatitudeDegrees>43.32961418665945529937744140625</LatitudeDegrees>
              <LongitudeDegrees>-4.0117708034813404083251953125</LongitudeDegrees>
            </Position>
            <AltitudeMeters>192.600006103515625</AltitudeMeters>
            <DistanceMeters>12517.481691145</DistanceMeters>
          </Trackpoint>
          <Trackpoint>
            <Time>2021-01-13T15:01:39.000Z</Time>
            <Position>
              <LatitudeDegrees>43.3294303715229034423828125</LatitudeDegrees>
              <LongitudeDegrees>-4.0116608329117298126220703125</LongitudeDegrees>
            </Position>
            <AltitudeMeters>192</AltitudeMeters>
            <DistanceMeters>12539.794360295</DistanceMeters>
          </Trackpoint>
          <Trackpoint>
            <Time>2021-01-13T15:01:40.000Z</Time>
            <Position>
              <LatitudeDegrees>43.329332135617733001708984375</LatitudeDegrees>
              <LongitudeDegrees>-4.01162403635680675506591796875</LongitudeDegrees>
            </Position>
            <AltitudeMeters>192</AltitudeMeters>
            <DistanceMeters>12551.126868719</DistanceMeters>
          </Trackpoint>
          <Trackpoint>
            <Time>2021-01-13T15:01:41.000Z</Time>
            <Position>
              <LatitudeDegrees>43.3292360790073871612548828125</LatitudeDegrees>
              <LongitudeDegrees>-4.01158078573644161224365234375</LongitudeDegrees>
            </Position>
            <AltitudeMeters>191.600006103515625</AltitudeMeters>
            <DistanceMeters>12562.377004338</DistanceMeters>
          </Trackpoint>
          <Trackpoint>
            <Time>2021-01-13T15:01:42.000Z</Time>
            <Position>
              <LatitudeDegrees>43.3291435427963733673095703125</LatitudeDegrees>
              <LongitudeDegrees>-4.01152395643293857574462890625</LongitudeDegrees>
            </Position>
            <AltitudeMeters>191.1999969482421875</AltitudeMeters>
            <DistanceMeters>12573.658400413</DistanceMeters>
          </Trackpoint>
          <Trackpoint>
            <Time>2021-01-13T15:01:43.000Z</Time>
            <Position>
              <LatitudeDegrees>43.32906223833560943603515625</LatitudeDegrees>
              <LongitudeDegrees>-4.01144533418118953704833984375</LongitudeDegrees>
            </Position>
            <AltitudeMeters>190.399993896484375</AltitudeMeters>
            <DistanceMeters>12584.72197516</DistanceMeters>
          </Trackpoint>
          <Trackpoint>
            <Time>2021-01-13T15:01:45.000Z</Time>
            <Position>
              <LatitudeDegrees>43.328961320221424102783203125</LatitudeDegrees>
              <LongitudeDegrees>-4.01121131144464015960693359375</LongitudeDegrees>
            </Position>
            <AltitudeMeters>188.600006103515625</AltitudeMeters>
            <DistanceMeters>12606.74850342</DistanceMeters>
          </Trackpoint>
          <Trackpoint>
            <Time>2021-01-13T15:01:47.000Z</Time>
            <Position>
              <LatitudeDegrees>43.32899493165314197540283203125</LatitudeDegrees>
              <LongitudeDegrees>-4.01094929315149784088134765625</LongitudeDegrees>
            </Position>
            <AltitudeMeters>187</AltitudeMeters>
            <DistanceMeters>12628.289825065</DistanceMeters>
          </Trackpoint>
          <Trackpoint>
            <Time>2021-01-13T15:01:49.000Z</Time>
            <Position>
              <LatitudeDegrees>43.3291623182594776153564453125</LatitudeDegrees>
              <LongitudeDegrees>-4.01080529205501079559326171875</LongitudeDegrees>
            </Position>
            <AltitudeMeters>186</AltitudeMeters>
            <DistanceMeters>12650.267513501</DistanceMeters>
          </Trackpoint>
          <Trackpoint>
            <Time>2021-01-13T15:01:51.000Z</Time>
            <Position>
              <LatitudeDegrees>43.329362310469150543212890625</LatitudeDegrees>
              <LongitudeDegrees>-4.01075667701661586761474609375</LongitudeDegrees>
            </Position>
            <AltitudeMeters>185</AltitudeMeters>
            <DistanceMeters>12672.87228967</DistanceMeters>
          </Trackpoint>
          <Trackpoint>
            <Time>2021-01-13T15:01:52.000Z</Time>
            <Position>
              <LatitudeDegrees>43.3294491469860076904296875</LatitudeDegrees>
              <LongitudeDegrees>-4.01069817133247852325439453125</LongitudeDegrees>
            </Position>
            <AltitudeMeters>184.600006103515625</AltitudeMeters>
            <DistanceMeters>12683.635926638</DistanceMeters>
          </Trackpoint>
          <Trackpoint>
            <Time>2021-01-13T15:01:53.000Z</Time>
            <Position>
              <LatitudeDegrees>43.32951662130653858184814453125</LatitudeDegrees>
              <LongitudeDegrees>-4.01060362346470355987548828125</LongitudeDegrees>
            </Position>
            <AltitudeMeters>184.1999969482421875</AltitudeMeters>
            <DistanceMeters>12694.359218737</DistanceMeters>
          </Trackpoint>
          <Trackpoint>
            <Time>2021-01-13T15:01:54.000Z</Time>
            <Position>
              <LatitudeDegrees>43.32954947836697101593017578125</LatitudeDegrees>
              <LongitudeDegrees>-4.01047688908874988555908203125</LongitudeDegrees>
            </Position>
            <AltitudeMeters>183.8000030517578125</AltitudeMeters>
            <DistanceMeters>12705.252115711</DistanceMeters>
          </Trackpoint>
          <Trackpoint>
            <Time>2021-01-13T15:01:55.000Z</Time>
            <Position>
              <LatitudeDegrees>43.32954042591154575347900390625</LatitudeDegrees>
              <LongitudeDegrees>-4.01034562848508358001708984375</LongitudeDegrees>
            </Position>
            <AltitudeMeters>183.399993896484375</AltitudeMeters>
            <DistanceMeters>12715.926877284</DistanceMeters>
          </Trackpoint>
          <Trackpoint>
            <Time>2021-01-13T15:01:56.000Z</Time>
            <Position>
              <LatitudeDegrees>43.32949700765311717987060546875</LatitudeDegrees>
              <LongitudeDegrees>-4.01022861711680889129638671875</LongitudeDegrees>
            </Position>
            <AltitudeMeters>183</AltitudeMeters>
            <DistanceMeters>12726.561381381</DistanceMeters>
          </Trackpoint>
          <Trackpoint>
            <Time>2021-01-13T15:01:57.000Z</Time>
            <Position>
              <LatitudeDegrees>43.3294223248958587646484375</LatitudeDegrees>
              <LongitudeDegrees>-4.01013574562966823577880859375</LongitudeDegrees>
            </Position>
            <AltitudeMeters>182.8000030517578125</AltitudeMeters>
            <DistanceMeters>12737.769700768</DistanceMeters>
          </Trackpoint>
          <Trackpoint>
            <Time>2021-01-13T15:01:58.000Z</Time>
            <Position>
              <LatitudeDegrees>43.32933004014194011688232421875</LatitudeDegrees>
              <LongitudeDegrees>-4.01006810367107391357421875</LongitudeDegrees>
            </Position>
            <AltitudeMeters>182.399993896484375</AltitudeMeters>
            <DistanceMeters>12749.409600551</DistanceMeters>
          </Trackpoint>
          <Trackpoint>
            <Time>2021-01-13T15:01:59.000Z</Time>
            <Position>
              <LatitudeDegrees>43.32923255860805511474609375</LatitudeDegrees>
              <LongitudeDegrees>-4.010011442005634307861328125</LongitudeDegrees>
            </Position>
            <AltitudeMeters>181.600006103515625</AltitudeMeters>
            <DistanceMeters>12761.189080788</DistanceMeters>
          </Trackpoint>
          <Trackpoint>
            <Time>2021-01-13T15:02:00.000Z</Time>
            <Position>
              <LatitudeDegrees>43.32913599908351898193359375</LatitudeDegrees>
              <LongitudeDegrees>-4.00995410978794097900390625</LongitudeDegrees>
            </Position>
            <AltitudeMeters>181</AltitudeMeters>
            <DistanceMeters>12772.895508087</DistanceMeters>
          </Trackpoint>
          <Trackpoint>
            <Time>2021-01-13T15:02:01.000Z</Time>
            <Position>
              <LatitudeDegrees>43.32903784699738025665283203125</LatitudeDegrees>
              <LongitudeDegrees>-4.0098966099321842193603515625</LongitudeDegrees>
            </Position>
            <AltitudeMeters>180.600006103515625</AltitudeMeters>
            <DistanceMeters>12784.770425929</DistanceMeters>
          </Trackpoint>
          <Trackpoint>
            <Time>2021-01-13T15:02:02.000Z</Time>
            <Position>
              <LatitudeDegrees>43.32894061692059040069580078125</LatitudeDegrees>
              <LongitudeDegrees>-4.0098386071622371673583984375</LongitudeDegrees>
            </Position>
            <AltitudeMeters>180</AltitudeMeters>
            <DistanceMeters>12796.567524646</DistanceMeters>
          </Trackpoint>
          <Trackpoint>
            <Time>2021-01-13T15:02:03.000Z</Time>
            <Position>
              <LatitudeDegrees>43.3288443088531494140625</LatitudeDegrees>
              <LongitudeDegrees>-4.009777419269084930419921875</LongitudeDegrees>
            </Position>
            <AltitudeMeters>179</AltitudeMeters>
            <DistanceMeters>12808.376099516</DistanceMeters>
          </Trackpoint>
          <Trackpoint>
            <Time>2021-01-13T15:02:04.000Z</Time>
            <Position>
              <LatitudeDegrees>43.3287490904331207275390625</LatitudeDegrees>
              <LongitudeDegrees>-4.009712375700473785400390625</LongitudeDegrees>
            </Position>
            <AltitudeMeters>178</AltitudeMeters>
            <DistanceMeters>12820.210645795</DistanceMeters>
          </Trackpoint>
          <Trackpoint>
            <Time>2021-01-13T15:02:05.000Z</Time>
            <Position>
              <LatitudeDegrees>43.3286557160317897796630859375</LatitudeDegrees>
              <LongitudeDegrees>-4.00964221917092800140380859375</LongitudeDegrees>
            </Position>
            <AltitudeMeters>177</AltitudeMeters>
            <DistanceMeters>12832.054344858</DistanceMeters>
          </Trackpoint>
          <Trackpoint>
            <Time>2021-01-13T15:02:06.000Z</Time>
            <Position>
              <LatitudeDegrees>43.32856795750558376312255859375</LatitudeDegrees>
              <LongitudeDegrees>-4.00956426747143268585205078125</LongitudeDegrees>
            </Position>
            <AltitudeMeters>176.399993896484375</AltitudeMeters>
            <DistanceMeters>12843.683378559</DistanceMeters>
          </Trackpoint>
          <Trackpoint>
            <Time>2021-01-13T15:02:07.000Z</Time>
            <Position>
              <LatitudeDegrees>43.32848682068288326263427734375</LatitudeDegrees>
              <LongitudeDegrees>-4.00947525165975093841552734375</LongitudeDegrees>
            </Position>
            <AltitudeMeters>176.1999969482421875</AltitudeMeters>
            <DistanceMeters>12855.236845138</DistanceMeters>
          </Trackpoint>
          <Trackpoint>
            <Time>2021-01-13T15:02:09.000Z</Time>
            <Position>
              <LatitudeDegrees>43.32834784872829914093017578125</LatitudeDegrees>
              <LongitudeDegrees>-4.00926922447979450225830078125</LongitudeDegrees>
            </Position>
            <AltitudeMeters>174.600006103515625</AltitudeMeters>
            <DistanceMeters>12877.985375219</DistanceMeters>
          </Trackpoint>
          <Trackpoint>
            <Time>2021-01-13T15:02:11.000Z</Time>
            <Position>
              <LatitudeDegrees>43.32823368720710277557373046875</LatitudeDegrees>
              <LongitudeDegrees>-4.00903888978064060211181640625</LongitudeDegrees>
            </Position>
            <AltitudeMeters>173.1999969482421875</AltitudeMeters>
            <DistanceMeters>12900.55176906</DistanceMeters>
          </Trackpoint>
          <Trackpoint>
            <Time>2021-01-13T15:02:12.000Z</Time>
            <Position>
              <LatitudeDegrees>43.32818272523581981658935546875</LatitudeDegrees>
              <LongitudeDegrees>-4.00891751982271671295166015625</LongitudeDegrees>
            </Position>
            <AltitudeMeters>172.8000030517578125</AltitudeMeters>
            <DistanceMeters>12911.898213431</DistanceMeters>
          </Trackpoint>
          <Trackpoint>
            <Time>2021-01-13T15:02:13.000Z</Time>
            <Position>
              <LatitudeDegrees>43.3281321823596954345703125</LatitudeDegrees>
              <LongitudeDegrees>-4.00879405438899993896484375</LongitudeDegrees>
            </Position>
            <AltitudeMeters>172.600006103515625</AltitudeMeters>
            <DistanceMeters>12923.368532249</DistanceMeters>
          </Trackpoint>
          <Trackpoint>
            <Time>2021-01-13T15:02:15.000Z</Time>
            <Position>
              <LatitudeDegrees>43.3280394785106182098388671875</LatitudeDegrees>
              <LongitudeDegrees>-4.00854921899735927581787109375</LongitudeDegrees>
            </Position>
            <AltitudeMeters>172.1999969482421875</AltitudeMeters>
            <DistanceMeters>12945.71618107</DistanceMeters>
          </Trackpoint>
          <Trackpoint>
            <Time>2021-01-13T15:02:17.000Z</Time>
            <Position>
              <LatitudeDegrees>43.32796479575335979461669921875</LatitudeDegrees>
              <LongitudeDegrees>-4.00829876773059368133544921875</LongitudeDegrees>
            </Position>
            <AltitudeMeters>171</AltitudeMeters>
            <DistanceMeters>12967.631739605</DistanceMeters>
          </Trackpoint>
          <Trackpoint>
            <Time>2021-01-13T15:02:18.000Z</Time>
            <Position>
              <LatitudeDegrees>43.32793931476771831512451171875</LatitudeDegrees>
              <LongitudeDegrees>-4.0081696026027202606201171875</LongitudeDegrees>
            </Position>
            <AltitudeMeters>170.1999969482421875</AltitudeMeters>
            <DistanceMeters>12978.467285457</DistanceMeters>
          </Trackpoint>
          <Trackpoint>
            <Time>2021-01-13T15:02:19.000Z</Time>
            <Position>
              <LatitudeDegrees>43.327919952571392059326171875</LatitudeDegrees>
              <LongitudeDegrees>-4.00803825818002223968505859375</LongitudeDegrees>
            </Position>
            <AltitudeMeters>169.399993896484375</AltitudeMeters>
            <DistanceMeters>12989.317821696</DistanceMeters>
          </Trackpoint>
          <Trackpoint>
            <Time>2021-01-13T15:02:20.000Z</Time>
            <Position>
              <LatitudeDegrees>43.3279057033360004425048828125</LatitudeDegrees>
              <LongitudeDegrees>-4.00790766812860965728759765625</LongitudeDegrees>
            </Position>
            <AltitudeMeters>168</AltitudeMeters>
            <DistanceMeters>13000.009066134</DistanceMeters>
          </Trackpoint>
          <Trackpoint>
            <Time>2021-01-13T15:02:21.000Z</Time>
            <Position>
              <LatitudeDegrees>43.3278949744999408721923828125</LatitudeDegrees>
              <LongitudeDegrees>-4.0077759884297847747802734375</LongitudeDegrees>
            </Position>
            <AltitudeMeters>167.1999969482421875</AltitudeMeters>
            <DistanceMeters>13010.737409639</DistanceMeters>
          </Trackpoint>
          <Trackpoint>
            <Time>2021-01-13T15:02:22.000Z</Time>
            <Position>
              <LatitudeDegrees>43.327886424958705902099609375</LatitudeDegrees>
              <LongitudeDegrees>-4.0076428838074207305908203125</LongitudeDegrees>
            </Position>
            <AltitudeMeters>166.600006103515625</AltitudeMeters>
            <DistanceMeters>13021.555857808</DistanceMeters>
          </Trackpoint>
          <Trackpoint>
            <Time>2021-01-13T15:02:23.000Z</Time>
            <Position>
              <LatitudeDegrees>43.3278802223503589630126953125</LatitudeDegrees>
              <LongitudeDegrees>-4.00751003064215183258056640625</LongitudeDegrees>
            </Position>
            <AltitudeMeters>165.8000030517578125</AltitudeMeters>
            <DistanceMeters>13032.334585169</DistanceMeters>
          </Trackpoint>
          <Trackpoint>
            <Time>2021-01-13T15:02:24.000Z</Time>
            <Position>
              <LatitudeDegrees>43.32787661813199520111083984375</LatitudeDegrees>
              <LongitudeDegrees>-4.00737726129591464996337890625</LongitudeDegrees>
            </Position>
            <AltitudeMeters>165</AltitudeMeters>
            <DistanceMeters>13043.091928226</DistanceMeters>
          </Trackpoint>
          <Trackpoint>
            <Time>2021-01-13T15:02:25.000Z</Time>
            <Position>
              <LatitudeDegrees>43.32787477411329746246337890625</LatitudeDegrees>
              <LongitudeDegrees>-4.00724449194967746734619140625</LongitudeDegrees>
            </Position>
            <AltitudeMeters>164.1999969482421875</AltitudeMeters>
            <DistanceMeters>13053.84339364</DistanceMeters>
          </Trackpoint>
          <Trackpoint>
            <Time>2021-01-13T15:02:26.000Z</Time>
            <Position>
              <LatitudeDegrees>43.32787326537072658538818359375</LatitudeDegrees>
              <LongitudeDegrees>-4.007112644612789154052734375</LongitudeDegrees>
            </Position>
            <AltitudeMeters>163</AltitudeMeters>
            <DistanceMeters>13064.519846935</DistanceMeters>
          </Trackpoint>
          <Trackpoint>
            <Time>2021-01-13T15:02:27.000Z</Time>
            <Position>
              <LatitudeDegrees>43.32786974497139453887939453125</LatitudeDegrees>
              <LongitudeDegrees>-4.00698012672364711761474609375</LongitudeDegrees>
            </Position>
            <AltitudeMeters>162.600006103515625</AltitudeMeters>
            <DistanceMeters>13075.256604168</DistanceMeters>
          </Trackpoint>
          <Trackpoint>
            <Time>2021-01-13T15:02:29.000Z</Time>
            <Position>
              <LatitudeDegrees>43.32784661091864109039306640625</LatitudeDegrees>
              <LongitudeDegrees>-4.00671534240245819091796875</LongitudeDegrees>
            </Position>
            <AltitudeMeters>161.600006103515625</AltitudeMeters>
            <DistanceMeters>13096.849007389</DistanceMeters>
          </Trackpoint>
          <Trackpoint>
            <Time>2021-01-13T15:02:31.000Z</Time>
            <Position>
              <LatitudeDegrees>43.32777905277907848358154296875</LatitudeDegrees>
              <LongitudeDegrees>-4.006470926105976104736328125</LongitudeDegrees>
            </Position>
            <AltitudeMeters>160.8000030517578125</AltitudeMeters>
            <DistanceMeters>13118.018860811</DistanceMeters>
          </Trackpoint>
          <Trackpoint>
            <Time>2021-01-13T15:02:32.000Z</Time>
            <Position>
              <LatitudeDegrees>43.32772649824619293212890625</LatitudeDegrees>
              <LongitudeDegrees>-4.00636120699346065521240234375</LongitudeDegrees>
            </Position>
            <AltitudeMeters>160.1999969482421875</AltitudeMeters>
            <DistanceMeters>13128.655487521</DistanceMeters>
          </Trackpoint>
          <Trackpoint>
            <Time>2021-01-13T15:02:33.000Z</Time>
            <Position>
              <LatitudeDegrees>43.32767461426556110382080078125</LatitudeDegrees>
              <LongitudeDegrees>-4.00624838657677173614501953125</LongitudeDegrees>
            </Position>
            <AltitudeMeters>159.600006103515625</AltitudeMeters>
            <DistanceMeters>13139.462661469</DistanceMeters>
          </Trackpoint>
          <Trackpoint>
            <Time>2021-01-13T15:02:34.000Z</Time>
            <Position>
              <LatitudeDegrees>43.32762801088392734527587890625</LatitudeDegrees>
              <LongitudeDegrees>-4.00613020174205303192138671875</LongitudeDegrees>
            </Position>
            <AltitudeMeters>159</AltitudeMeters>
            <DistanceMeters>13150.347265409</DistanceMeters>
          </Trackpoint>
          <Trackpoint>
            <Time>2021-01-13T15:02:35.000Z</Time>
            <Position>
              <LatitudeDegrees>43.3275828324258327484130859375</LatitudeDegrees>
              <LongitudeDegrees>-4.0060199797153472900390625</LongitudeDegrees>
            </Position>
            <AltitudeMeters>158.399993896484375</AltitudeMeters>
            <DistanceMeters>13160.590774978</DistanceMeters>
          </Trackpoint>
          <Trackpoint>
            <Time>2021-01-13T15:02:36.000Z</Time>
            <Position>
              <LatitudeDegrees>43.3275281824171543121337890625</LatitudeDegrees>
              <LongitudeDegrees>-4.00593020953238010406494140625</LongitudeDegrees>
            </Position>
            <AltitudeMeters>157.8000030517578125</AltitudeMeters>
            <DistanceMeters>13170.068707266</DistanceMeters>
          </Trackpoint>
          <Trackpoint>
            <Time>2021-01-13T15:02:37.000Z</Time>
            <Position>
              <LatitudeDegrees>43.32745182327926158905029296875</LatitudeDegrees>
              <LongitudeDegrees>-4.00587388314306735992431640625</LongitudeDegrees>
            </Position>
            <AltitudeMeters>157.1999969482421875</AltitudeMeters>
            <DistanceMeters>13179.713801746</DistanceMeters>
          </Trackpoint>
          <Trackpoint>
            <Time>2021-01-13T15:02:38.000Z</Time>
            <Position>
              <LatitudeDegrees>43.327361382544040679931640625</LatitudeDegrees>
              <LongitudeDegrees>-4.00584840215742588043212890625</LongitudeDegrees>
            </Position>
            <AltitudeMeters>156.399993896484375</AltitudeMeters>
            <DistanceMeters>13189.988997792</DistanceMeters>
          </Trackpoint>
          <Trackpoint>
            <Time>2021-01-13T15:02:39.000Z</Time>
            <Position>
              <LatitudeDegrees>43.32726323045790195465087890625</LatitudeDegrees>
              <LongitudeDegrees>-4.00584957562386989593505859375</LongitudeDegrees>
            </Position>
            <AltitudeMeters>156</AltitudeMeters>
            <DistanceMeters>13200.914177444</DistanceMeters>
          </Trackpoint>
          <Trackpoint>
            <Time>2021-01-13T15:02:41.000Z</Time>
            <Position>
              <LatitudeDegrees>43.32707430236041545867919921875</LatitudeDegrees>
              <LongitudeDegrees>-4.00588343851268291473388671875</LongitudeDegrees>
            </Position>
            <AltitudeMeters>155.1999969482421875</AltitudeMeters>
            <DistanceMeters>13222.120256924</DistanceMeters>
          </Trackpoint>
          <Trackpoint>
            <Time>2021-01-13T15:02:42.000Z</Time>
            <Position>
              <LatitudeDegrees>43.3269820176064968109130859375</LatitudeDegrees>
              <LongitudeDegrees>-4.0058992803096771240234375</LongitudeDegrees>
            </Position>
            <AltitudeMeters>154.600006103515625</AltitudeMeters>
            <DistanceMeters>13232.471192003</DistanceMeters>
          </Trackpoint>
          <Trackpoint>
            <Time>2021-01-13T15:02:43.000Z</Time>
            <Position>
              <LatitudeDegrees>43.3268948458135128021240234375</LatitudeDegrees>
              <LongitudeDegrees>-4.005894251167774200439453125</LongitudeDegrees>
            </Position>
            <AltitudeMeters>154</AltitudeMeters>
            <DistanceMeters>13242.182531683</DistanceMeters>
          </Trackpoint>
          <Trackpoint>
            <Time>2021-01-13T15:02:44.000Z</Time>
            <Position>
              <LatitudeDegrees>43.32681328989565372467041015625</LatitudeDegrees>
              <LongitudeDegrees>-4.0058632381260395050048828125</LongitudeDegrees>
            </Position>
            <AltitudeMeters>153.399993896484375</AltitudeMeters>
            <DistanceMeters>13251.601208394</DistanceMeters>
          </Trackpoint>
          <Trackpoint>
            <Time>2021-01-13T15:02:45.000Z</Time>
            <Position>
              <LatitudeDegrees>43.3267312310636043548583984375</LatitudeDegrees>
              <LongitudeDegrees>-4.0058119408786296844482421875</LongitudeDegrees>
            </Position>
            <AltitudeMeters>152.8000030517578125</AltitudeMeters>
            <DistanceMeters>13261.634517529</DistanceMeters>
          </Trackpoint>
          <Trackpoint>
            <Time>2021-01-13T15:02:47.000Z</Time>
            <Position>
              <LatitudeDegrees>43.32656820304691791534423828125</LatitudeDegrees>
              <LongitudeDegrees>-4.0056801773607730865478515625</LongitudeDegrees>
            </Position>
            <AltitudeMeters>152</AltitudeMeters>
            <DistanceMeters>13282.683739149</DistanceMeters>
          </Trackpoint>
          <Trackpoint>
            <Time>2021-01-13T15:02:48.000Z</Time>
            <Position>
              <LatitudeDegrees>43.3264841325581073760986328125</LatitudeDegrees>
              <LongitudeDegrees>-4.00561488233506679534912109375</LongitudeDegrees>
            </Position>
            <AltitudeMeters>151.8000030517578125</AltitudeMeters>
            <DistanceMeters>13293.430584161</DistanceMeters>
          </Trackpoint>
          <Trackpoint>
            <Time>2021-01-13T15:02:49.000Z</Time>
            <Position>
              <LatitudeDegrees>43.32640123553574085235595703125</LatitudeDegrees>
              <LongitudeDegrees>-4.0055537782609462738037109375</LongitudeDegrees>
            </Position>
            <AltitudeMeters>151.600006103515625</AltitudeMeters>
            <DistanceMeters>13303.89992358</DistanceMeters>
          </Trackpoint>
          <Trackpoint>
            <Time>2021-01-13T15:02:51.000Z</Time>
            <Position>
              <LatitudeDegrees>43.3262413926422595977783203125</LatitudeDegrees>
              <LongitudeDegrees>-4.00542880408465862274169921875</LongitudeDegrees>
            </Position>
            <AltitudeMeters>150.8000030517578125</AltitudeMeters>
            <DistanceMeters>13324.367098428</DistanceMeters>
          </Trackpoint>
          <Trackpoint>
            <Time>2021-01-13T15:02:52.000Z</Time>
            <Position>
              <LatitudeDegrees>43.32617207430303096771240234375</LatitudeDegrees>
              <LongitudeDegrees>-4.0053467452526092529296875</LongitudeDegrees>
            </Position>
            <AltitudeMeters>150.399993896484375</AltitudeMeters>
            <DistanceMeters>13334.549156553</DistanceMeters>
          </Trackpoint>
          <Trackpoint>
            <Time>2021-01-13T15:02:53.000Z</Time>
            <Position>
              <LatitudeDegrees>43.3261124789714813232421875</LatitudeDegrees>
              <LongitudeDegrees>-4.00524909608066082000732421875</LongitudeDegrees>
            </Position>
            <AltitudeMeters>149.600006103515625</AltitudeMeters>
            <DistanceMeters>13344.869512731</DistanceMeters>
          </Trackpoint>
          <Trackpoint>
            <Time>2021-01-13T15:02:54.000Z</Time>
            <Position>
              <LatitudeDegrees>43.326057493686676025390625</LatitudeDegrees>
              <LongitudeDegrees>-4.005144573748111724853515625</LongitudeDegrees>
            </Position>
            <AltitudeMeters>148</AltitudeMeters>
            <DistanceMeters>13355.313808947</DistanceMeters>
          </Trackpoint>
          <Trackpoint>
            <Time>2021-01-13T15:02:55.000Z</Time>
            <Position>
              <LatitudeDegrees>43.32600795663893222808837890625</LatitudeDegrees>
              <LongitudeDegrees>-4.00503166951239109039306640625</LongitudeDegrees>
            </Position>
            <AltitudeMeters>147.399993896484375</AltitudeMeters>
            <DistanceMeters>13365.989839336</DistanceMeters>
          </Trackpoint>
          <Trackpoint>
            <Time>2021-01-13T15:02:56.000Z</Time>
            <Position>
              <LatitudeDegrees>43.32596386782824993133544921875</LatitudeDegrees>
              <LongitudeDegrees>-4.00491432286798954010009765625</LongitudeDegrees>
            </Position>
            <AltitudeMeters>147</AltitudeMeters>
            <DistanceMeters>13376.683195125</DistanceMeters>
          </Trackpoint>
          <Trackpoint>
            <Time>2021-01-13T15:02:57.000Z</Time>
            <Position>
              <LatitudeDegrees>43.3259232155978679656982421875</LatitudeDegrees>
              <LongitudeDegrees>-4.004798568785190582275390625</LongitudeDegrees>
            </Position>
            <AltitudeMeters>146.399993896484375</AltitudeMeters>
            <DistanceMeters>13387.090681226</DistanceMeters>
          </Trackpoint>
          <Trackpoint>
            <Time>2021-01-13T15:02:58.000Z</Time>
            <Position>
              <LatitudeDegrees>43.325882144272327423095703125</LatitudeDegrees>
              <LongitudeDegrees>-4.0046823956072330474853515625</LongitudeDegrees>
            </Position>
            <AltitudeMeters>145.600006103515625</AltitudeMeters>
            <DistanceMeters>13397.549233514</DistanceMeters>
          </Trackpoint>
          <Trackpoint>
            <Time>2021-01-13T15:02:59.000Z</Time>
            <Position>
              <LatitudeDegrees>43.32584434188902378082275390625</LatitudeDegrees>
              <LongitudeDegrees>-4.004562534391880035400390625</LongitudeDegrees>
            </Position>
            <AltitudeMeters>145</AltitudeMeters>
            <DistanceMeters>13408.126692904</DistanceMeters>
          </Trackpoint>
          <Trackpoint>
            <Time>2021-01-13T15:03:00.000Z</Time>
            <Position>
              <LatitudeDegrees>43.3258129097521305084228515625</LatitudeDegrees>
              <LongitudeDegrees>-4.00444175116717815399169921875</LongitudeDegrees>
            </Position>
            <AltitudeMeters>144.600006103515625</AltitudeMeters>
            <DistanceMeters>13418.512899776</DistanceMeters>
          </Trackpoint>
          <Trackpoint>
            <Time>2021-01-13T15:03:01.000Z</Time>
            <Position>
              <LatitudeDegrees>43.32579371519386768341064453125</LatitudeDegrees>
              <LongitudeDegrees>-4.0043142624199390411376953125</LongitudeDegrees>
            </Position>
            <AltitudeMeters>144.399993896484375</AltitudeMeters>
            <DistanceMeters>13429.054442392</DistanceMeters>
          </Trackpoint>
          <Trackpoint>
            <Time>2021-01-13T15:03:02.000Z</Time>
            <Position>
              <LatitudeDegrees>43.32577653229236602783203125</LatitudeDegrees>
              <LongitudeDegrees>-4.00418509729206562042236328125</LongitudeDegrees>
            </Position>
            <AltitudeMeters>143.8000030517578125</AltitudeMeters>
            <DistanceMeters>13439.685974118</DistanceMeters>
          </Trackpoint>
          <Trackpoint>
            <Time>2021-01-13T15:03:03.000Z</Time>
            <Position>
              <LatitudeDegrees>43.32577276043593883514404296875</LatitudeDegrees>
              <LongitudeDegrees>-4.00405383668839931488037109375</LongitudeDegrees>
            </Position>
            <AltitudeMeters>143.1999969482421875</AltitudeMeters>
            <DistanceMeters>13450.322176339</DistanceMeters>
          </Trackpoint>
          <Trackpoint>
            <Time>2021-01-13T15:03:05.000Z</Time>
            <Position>
              <LatitudeDegrees>43.32582104019820690155029296875</LatitudeDegrees>
              <LongitudeDegrees>-4.003808163106441497802734375</LongitudeDegrees>
            </Position>
            <AltitudeMeters>142.399993896484375</AltitudeMeters>
            <DistanceMeters>13470.926983402</DistanceMeters>
          </Trackpoint>
          <Trackpoint>
            <Time>2021-01-13T15:03:07.000Z</Time>
            <Position>
              <LatitudeDegrees>43.32586311735212802886962890625</LatitudeDegrees>
              <LongitudeDegrees>-4.003554023802280426025390625</LongitudeDegrees>
            </Position>
            <AltitudeMeters>141.399993896484375</AltitudeMeters>
            <DistanceMeters>13492.030617454</DistanceMeters>
          </Trackpoint>
          <Trackpoint>
            <Time>2021-01-13T15:03:08.000Z</Time>
            <Position>
              <LatitudeDegrees>43.32585163414478302001953125</LatitudeDegrees>
              <LongitudeDegrees>-4.00342737324535846710205078125</LongitudeDegrees>
            </Position>
            <AltitudeMeters>141.399993896484375</AltitudeMeters>
            <DistanceMeters>13502.364526881</DistanceMeters>
          </Trackpoint>
          <Trackpoint>
            <Time>2021-01-13T15:03:09.000Z</Time>
            <Position>
              <LatitudeDegrees>43.325826488435268402099609375</LatitudeDegrees>
              <LongitudeDegrees>-4.00330902077257633209228515625</LongitudeDegrees>
            </Position>
            <AltitudeMeters>140.8000030517578125</AltitudeMeters>
            <DistanceMeters>13512.347308238</DistanceMeters>
          </Trackpoint>
          <Trackpoint>
            <Time>2021-01-13T15:03:11.000Z</Time>
            <Position>
              <LatitudeDegrees>43.3257243968546390533447265625</LatitudeDegrees>
              <LongitudeDegrees>-4.003114141523838043212890625</LongitudeDegrees>
            </Position>
            <AltitudeMeters>139.1999969482421875</AltitudeMeters>
            <DistanceMeters>13531.792058964</DistanceMeters>
          </Trackpoint>
          <Trackpoint>
            <Time>2021-01-13T15:03:13.000Z</Time>
            <Position>
              <LatitudeDegrees>43.32557109184563159942626953125</LatitudeDegrees>
              <LongitudeDegrees>-4.00295463390648365020751953125</LongitudeDegrees>
            </Position>
            <AltitudeMeters>138.1999969482421875</AltitudeMeters>
            <DistanceMeters>13553.191855617</DistanceMeters>
          </Trackpoint>
          <Trackpoint>
            <Time>2021-01-13T15:03:14.000Z</Time>
            <Position>
              <LatitudeDegrees>43.3254940621554851531982421875</LatitudeDegrees>
              <LongitudeDegrees>-4.0028712339699268341064453125</LongitudeDegrees>
            </Position>
            <AltitudeMeters>137.600006103515625</AltitudeMeters>
            <DistanceMeters>13564.105457602</DistanceMeters>
          </Trackpoint>
          <Trackpoint>
            <Time>2021-01-13T15:03:15.000Z</Time>
            <Position>
              <LatitudeDegrees>43.32542289979755878448486328125</LatitudeDegrees>
              <LongitudeDegrees>-4.00277492590248584747314453125</LongitudeDegrees>
            </Position>
            <AltitudeMeters>137.1999969482421875</AltitudeMeters>
            <DistanceMeters>13575.219927709</DistanceMeters>
          </Trackpoint>
          <Trackpoint>
            <Time>2021-01-13T15:03:16.000Z</Time>
            <Position>
              <LatitudeDegrees>43.32535986788570880889892578125</LatitudeDegrees>
              <LongitudeDegrees>-4.00266914628446102142333984375</LongitudeDegrees>
            </Position>
            <AltitudeMeters>137</AltitudeMeters>
            <DistanceMeters>13586.29125363</DistanceMeters>
          </Trackpoint>
          <Trackpoint>
            <Time>2021-01-13T15:03:17.000Z</Time>
            <Position>
              <LatitudeDegrees>43.32529750652611255645751953125</LatitudeDegrees>
              <LongitudeDegrees>-4.002566300332546234130859375</LongitudeDegrees>
            </Position>
            <AltitudeMeters>136.399993896484375</AltitudeMeters>
            <DistanceMeters>13597.132215069</DistanceMeters>
          </Trackpoint>
          <Trackpoint>
            <Time>2021-01-13T15:03:18.000Z</Time>
            <Position>
              <LatitudeDegrees>43.32523128949105739593505859375</LatitudeDegrees>
              <LongitudeDegrees>-4.0024652145802974700927734375</LongitudeDegrees>
            </Position>
            <AltitudeMeters>136</AltitudeMeters>
            <DistanceMeters>13608.146299095</DistanceMeters>
          </Trackpoint>
          <Trackpoint>
            <Time>2021-01-13T15:03:19.000Z</Time>
            <Position>
              <LatitudeDegrees>43.32516272552311420440673828125</LatitudeDegrees>
              <LongitudeDegrees>-4.0023733489215373992919921875</LongitudeDegrees>
            </Position>
            <AltitudeMeters>135.399993896484375</AltitudeMeters>
            <DistanceMeters>13618.802857703</DistanceMeters>
          </Trackpoint>
          <Trackpoint>
            <Time>2021-01-13T15:03:21.000Z</Time>
            <Position>
              <LatitudeDegrees>43.32500162534415721893310546875</LatitudeDegrees>
              <LongitudeDegrees>-4.0022244863212108612060546875</LongitudeDegrees>
            </Position>
            <AltitudeMeters>134.600006103515625</AltitudeMeters>
            <DistanceMeters>13640.408430403</DistanceMeters>
          </Trackpoint>
          <Trackpoint>
            <Time>2021-01-13T15:03:23.000Z</Time>
            <Position>
              <LatitudeDegrees>43.32482778467237949371337890625</LatitudeDegrees>
              <LongitudeDegrees>-4.0021007694303989410400390625</LongitudeDegrees>
            </Position>
            <AltitudeMeters>133.399993896484375</AltitudeMeters>
            <DistanceMeters>13662.196711171</DistanceMeters>
          </Trackpoint>
          <Trackpoint>
            <Time>2021-01-13T15:03:24.000Z</Time>
            <Position>
              <LatitudeDegrees>43.32474413327872753143310546875</LatitudeDegrees>
              <LongitudeDegrees>-4.00203212164342403411865234375</LongitudeDegrees>
            </Position>
            <AltitudeMeters>132.8000030517578125</AltitudeMeters>
            <DistanceMeters>13673.040171199</DistanceMeters>
          </Trackpoint>
          <Trackpoint>
            <Time>2021-01-13T15:03:25.000Z</Time>
            <Position>
              <LatitudeDegrees>43.3246682770550251007080078125</LatitudeDegrees>
              <LongitudeDegrees>-4.0019482187926769256591796875</LongitudeDegrees>
            </Position>
            <AltitudeMeters>132.1999969482421875</AltitudeMeters>
            <DistanceMeters>13683.876967042</DistanceMeters>
          </Trackpoint>
          <Trackpoint>
            <Time>2021-01-13T15:03:26.000Z</Time>
            <Position>
              <LatitudeDegrees>43.32460113801062107086181640625</LatitudeDegrees>
              <LongitudeDegrees>-4.0018523298203945159912109375</LongitudeDegrees>
            </Position>
            <AltitudeMeters>131.399993896484375</AltitudeMeters>
            <DistanceMeters>13694.653180805</DistanceMeters>
          </Trackpoint>
          <Trackpoint>
            <Time>2021-01-13T15:03:27.000Z</Time>
            <Position>
              <LatitudeDegrees>43.32454196177423000335693359375</LatitudeDegrees>
              <LongitudeDegrees>-4.0017499029636383056640625</LongitudeDegrees>
            </Position>
            <AltitudeMeters>131</AltitudeMeters>
            <DistanceMeters>13705.244290737</DistanceMeters>
          </Trackpoint>
          <Trackpoint>
            <Time>2021-01-13T15:03:28.000Z</Time>
            <Position>
              <LatitudeDegrees>43.3244882337749004364013671875</LatitudeDegrees>
              <LongitudeDegrees>-4.00164437480270862579345703125</LongitudeDegrees>
            </Position>
            <AltitudeMeters>130.8000030517578125</AltitudeMeters>
            <DistanceMeters>13715.673878497</DistanceMeters>
          </Trackpoint>
          <Trackpoint>
            <Time>2021-01-13T15:03:29.000Z</Time>
            <Position>
              <LatitudeDegrees>43.3244369365274906158447265625</LatitudeDegrees>
              <LongitudeDegrees>-4.0015388466417789459228515625</LongitudeDegrees>
            </Position>
            <AltitudeMeters>130.399993896484375</AltitudeMeters>
            <DistanceMeters>13725.949953328</DistanceMeters>
          </Trackpoint>
          <Trackpoint>
            <Time>2021-01-13T15:03:30.000Z</Time>
            <Position>
              <LatitudeDegrees>43.3243819512426853179931640625</LatitudeDegrees>
              <LongitudeDegrees>-4.0014328993856906890869140625</LongitudeDegrees>
            </Position>
            <AltitudeMeters>129.600006103515625</AltitudeMeters>
            <DistanceMeters>13736.488068914</DistanceMeters>
          </Trackpoint>
          <Trackpoint>
            <Time>2021-01-13T15:03:31.000Z</Time>
            <Position>
              <LatitudeDegrees>43.32432118244469165802001953125</LatitudeDegrees>
              <LongitudeDegrees>-4.00133139453828334808349609375</LongitudeDegrees>
            </Position>
            <AltitudeMeters>129.1999969482421875</AltitudeMeters>
            <DistanceMeters>13747.132333527</DistanceMeters>
          </Trackpoint>
          <Trackpoint>
            <Time>2021-01-13T15:03:33.000Z</Time>
            <Position>
              <LatitudeDegrees>43.32419126294553279876708984375</LatitudeDegrees>
              <LongitudeDegrees>-4.00114305317401885986328125</LongitudeDegrees>
            </Position>
            <AltitudeMeters>128.399993896484375</AltitudeMeters>
            <DistanceMeters>13768.148066654</DistanceMeters>
          </Trackpoint>
          <Trackpoint>
            <Time>2021-01-13T15:03:35.000Z</Time>
            <Position>
              <LatitudeDegrees>43.32405413500964641571044921875</LatitudeDegrees>
              <LongitudeDegrees>-4.0009635128080844879150390625</LongitudeDegrees>
            </Position>
            <AltitudeMeters>127.1999969482421875</AltitudeMeters>
            <DistanceMeters>13789.22601155</DistanceMeters>
          </Trackpoint>
          <Trackpoint>
            <Time>2021-01-13T15:03:37.000Z</Time>
            <Position>
              <LatitudeDegrees>43.32391910254955291748046875</LatitudeDegrees>
              <LongitudeDegrees>-4.000783972442150115966796875</LongitudeDegrees>
            </Position>
            <AltitudeMeters>126.1999969482421875</AltitudeMeters>
            <DistanceMeters>13810.135775807</DistanceMeters>
          </Trackpoint>
          <Trackpoint>
            <Time>2021-01-13T15:03:38.000Z</Time>
            <Position>
              <LatitudeDegrees>43.32385565154254436492919921875</LatitudeDegrees>
              <LongitudeDegrees>-4.00068816728889942169189453125</LongitudeDegrees>
            </Position>
            <AltitudeMeters>125.8000030517578125</AltitudeMeters>
            <DistanceMeters>13820.625795423</DistanceMeters>
          </Trackpoint>
          <Trackpoint>
            <Time>2021-01-13T15:03:39.000Z</Time>
            <Position>
              <LatitudeDegrees>43.323798067867755889892578125</LatitudeDegrees>
              <LongitudeDegrees>-4.0005831420421600341796875</LongitudeDegrees>
            </Position>
            <AltitudeMeters>125.1999969482421875</AltitudeMeters>
            <DistanceMeters>13831.273876932</DistanceMeters>
          </Trackpoint>
          <Trackpoint>
            <Time>2021-01-13T15:03:41.000Z</Time>
            <Position>
              <LatitudeDegrees>43.32371131516993045806884765625</LatitudeDegrees>
              <LongitudeDegrees>-4.00035171769559383392333984375</LongitudeDegrees>
            </Position>
            <AltitudeMeters>124.1999969482421875</AltitudeMeters>
            <DistanceMeters>13852.353963787</DistanceMeters>
          </Trackpoint>
          <Trackpoint>
            <Time>2021-01-13T15:03:43.000Z</Time>
            <Position>
              <LatitudeDegrees>43.3236570842564105987548828125</LatitudeDegrees>
              <LongitudeDegrees>-4.00010696612298488616943359375</LongitudeDegrees>
            </Position>
            <AltitudeMeters>123.40000152587890625</AltitudeMeters>
            <DistanceMeters>13873.070659306</DistanceMeters>
          </Trackpoint>
          <Trackpoint>
            <Time>2021-01-13T15:03:44.000Z</Time>
            <Position>
              <LatitudeDegrees>43.32363554276525974273681640625</LatitudeDegrees>
              <LongitudeDegrees>-3.9999808184802532196044921875</LongitudeDegrees>
            </Position>
            <AltitudeMeters>123</AltitudeMeters>
            <DistanceMeters>13883.562400432</DistanceMeters>
          </Trackpoint>
          <Trackpoint>
            <Time>2021-01-13T15:03:45.000Z</Time>
            <Position>
              <LatitudeDegrees>43.32361559383571147918701171875</LatitudeDegrees>
              <LongitudeDegrees>-3.9998540841042995452880859375</LongitudeDegrees>
            </Position>
            <AltitudeMeters>122.8000030517578125</AltitudeMeters>
            <DistanceMeters>13894.061884859</DistanceMeters>
          </Trackpoint>
          <Trackpoint>
            <Time>2021-01-13T15:03:47.000Z</Time>
            <Position>
              <LatitudeDegrees>43.32357569597661495208740234375</LatitudeDegrees>
              <LongitudeDegrees>-3.99960078299045562744140625</LongitudeDegrees>
            </Position>
            <AltitudeMeters>121.40000152587890625</AltitudeMeters>
            <DistanceMeters>13915.047088408</DistanceMeters>
          </Trackpoint>
          <Trackpoint>
            <Time>2021-01-13T15:03:49.000Z</Time>
            <Position>
              <LatitudeDegrees>43.32353948615491390228271484375</LatitudeDegrees>
              <LongitudeDegrees>-3.9993491582572460174560546875</LongitudeDegrees>
            </Position>
            <AltitudeMeters>120.1999969482421875</AltitudeMeters>
            <DistanceMeters>13935.816024144</DistanceMeters>
          </Trackpoint>
          <Trackpoint>
            <Time>2021-01-13T15:03:50.000Z</Time>
            <Position>
              <LatitudeDegrees>43.32353152334690093994140625</LatitudeDegrees>
              <LongitudeDegrees>-3.9992214180529117584228515625</LongitudeDegrees>
            </Position>
            <AltitudeMeters>119.59999847412109375</AltitudeMeters>
            <DistanceMeters>13946.197882958</DistanceMeters>
          </Trackpoint>
          <Trackpoint>
            <Time>2021-01-13T15:03:51.000Z</Time>
            <Position>
              <LatitudeDegrees>43.32353311590850353240966796875</LatitudeDegrees>
              <LongitudeDegrees>-3.99909258820116519927978515625</LongitudeDegrees>
            </Position>
            <AltitudeMeters>118.59999847412109375</AltitudeMeters>
            <DistanceMeters>13956.630933396</DistanceMeters>
          </Trackpoint>
          <Trackpoint>
            <Time>2021-01-13T15:03:53.000Z</Time>
            <Position>
              <LatitudeDegrees>43.32357703708112239837646484375</LatitudeDegrees>
              <LongitudeDegrees>-3.99884180165827274322509765625</LongitudeDegrees>
            </Position>
            <AltitudeMeters>117.1999969482421875</AltitudeMeters>
            <DistanceMeters>13977.517796568</DistanceMeters>
          </Trackpoint>
          <Trackpoint>
            <Time>2021-01-13T15:03:54.000Z</Time>
            <Position>
              <LatitudeDegrees>43.323620371520519256591796875</LatitudeDegrees>
              <LongitudeDegrees>-3.998726047575473785400390625</LongitudeDegrees>
            </Position>
            <AltitudeMeters>117</AltitudeMeters>
            <DistanceMeters>13988.059339184</DistanceMeters>
          </Trackpoint>
          <Trackpoint>
            <Time>2021-01-13T15:03:55.000Z</Time>
            <Position>
              <LatitudeDegrees>43.3236738480627536773681640625</LatitudeDegrees>
              <LongitudeDegrees>-3.99861632846295833587646484375</LongitudeDegrees>
            </Position>
            <AltitudeMeters>116.59999847412109375</AltitudeMeters>
            <DistanceMeters>13998.753117192</DistanceMeters>
          </Trackpoint>
          <Trackpoint>
            <Time>2021-01-13T15:03:56.000Z</Time>
            <Position>
              <LatitudeDegrees>43.323731683194637298583984375</LatitudeDegrees>
              <LongitudeDegrees>-3.99850786663591861724853515625</LongitudeDegrees>
            </Position>
            <AltitudeMeters>116.40000152587890625</AltitudeMeters>
            <DistanceMeters>14009.641868439</DistanceMeters>
          </Trackpoint>
          <Trackpoint>
            <Time>2021-01-13T15:03:57.000Z</Time>
            <Position>
              <LatitudeDegrees>43.32378440536558628082275390625</LatitudeDegrees>
              <LongitudeDegrees>-3.99839513003826141357421875</LongitudeDegrees>
            </Position>
            <AltitudeMeters>115.8000030517578125</AltitudeMeters>
            <DistanceMeters>14020.493652942</DistanceMeters>
          </Trackpoint>
          <Trackpoint>
            <Time>2021-01-13T15:03:59.000Z</Time>
            <Position>
              <LatitudeDegrees>43.32387828268110752105712890625</LatitudeDegrees>
              <LongitudeDegrees>-3.9981606043875217437744140625</LongitudeDegrees>
            </Position>
            <AltitudeMeters>114.59999847412109375</AltitudeMeters>
            <DistanceMeters>14042.168077892</DistanceMeters>
          </Trackpoint>
          <Trackpoint>
            <Time>2021-01-13T15:04:01.000Z</Time>
            <Position>
              <LatitudeDegrees>43.32395263016223907470703125</LatitudeDegrees>
              <LongitudeDegrees>-3.99791409261524677276611328125</LongitudeDegrees>
            </Position>
            <AltitudeMeters>113.59999847412109375</AltitudeMeters>
            <DistanceMeters>14063.775322333</DistanceMeters>
          </Trackpoint>
          <Trackpoint>
            <Time>2021-01-13T15:04:03.000Z</Time>
            <Position>
              <LatitudeDegrees>43.3239886723458766937255859375</LatitudeDegrees>
              <LongitudeDegrees>-3.9976526610553264617919921875</LongitudeDegrees>
            </Position>
            <AltitudeMeters>112.59999847412109375</AltitudeMeters>
            <DistanceMeters>14085.320206865</DistanceMeters>
          </Trackpoint>
          <Trackpoint>
            <Time>2021-01-13T15:04:04.000Z</Time>
            <Position>
              <LatitudeDegrees>43.3240000717341899871826171875</LatitudeDegrees>
              <LongitudeDegrees>-3.99752148427069187164306640625</LongitudeDegrees>
            </Position>
            <AltitudeMeters>112.40000152587890625</AltitudeMeters>
            <DistanceMeters>14096.017362034</DistanceMeters>
          </Trackpoint>
          <Trackpoint>
            <Time>2021-01-13T15:04:05.000Z</Time>
            <Position>
              <LatitudeDegrees>43.324013650417327880859375</LatitudeDegrees>
              <LongitudeDegrees>-3.99739055894315242767333984375</LongitudeDegrees>
            </Position>
            <AltitudeMeters>111.8000030517578125</AltitudeMeters>
            <DistanceMeters>14106.725907255</DistanceMeters>
          </Trackpoint>
          <Trackpoint>
            <Time>2021-01-13T15:04:07.000Z</Time>
            <Position>
              <LatitudeDegrees>43.3240647800266742706298828125</LatitudeDegrees>
              <LongitudeDegrees>-3.99713742546737194061279296875</LongitudeDegrees>
            </Position>
            <AltitudeMeters>111.1999969482421875</AltitudeMeters>
            <DistanceMeters>14127.997887196</DistanceMeters>
          </Trackpoint>
          <Trackpoint>
            <Time>2021-01-13T15:04:08.000Z</Time>
            <Position>
              <LatitudeDegrees>43.32411934621632099151611328125</LatitudeDegrees>
              <LongitudeDegrees>-3.9970320649445056915283203125</LongitudeDegrees>
            </Position>
            <AltitudeMeters>110.8000030517578125</AltitudeMeters>
            <DistanceMeters>14138.470245021</DistanceMeters>
          </Trackpoint>
          <Trackpoint>
            <Time>2021-01-13T15:04:09.000Z</Time>
            <Position>
              <LatitudeDegrees>43.32419679500162601470947265625</LatitudeDegrees>
              <LongitudeDegrees>-3.99695654399693012237548828125</LongitudeDegrees>
            </Position>
            <AltitudeMeters>110.40000152587890625</AltitudeMeters>
            <DistanceMeters>14149.03873666</DistanceMeters>
          </Trackpoint>
          <Trackpoint>
            <Time>2021-01-13T15:04:10.000Z</Time>
            <Position>
              <LatitudeDegrees>43.3242858946323394775390625</LatitudeDegrees>
              <LongitudeDegrees>-3.99690843187272548675537109375</LongitudeDegrees>
            </Position>
            <AltitudeMeters>109.8000030517578125</AltitudeMeters>
            <DistanceMeters>14159.693176626</DistanceMeters>
          </Trackpoint>
          <Trackpoint>
            <Time>2021-01-13T15:04:11.000Z</Time>
            <Position>
              <LatitudeDegrees>43.3243792690336704254150390625</LatitudeDegrees>
              <LongitudeDegrees>-3.996870629489421844482421875</LongitudeDegrees>
            </Position>
            <AltitudeMeters>109.40000152587890625</AltitudeMeters>
            <DistanceMeters>14170.5270556</DistanceMeters>
          </Trackpoint>
          <Trackpoint>
            <Time>2021-01-13T15:04:12.000Z</Time>
            <Position>
              <LatitudeDegrees>43.32446887157857418060302734375</LatitudeDegrees>
              <LongitudeDegrees>-3.996822349727153778076171875</LongitudeDegrees>
            </Position>
            <AltitudeMeters>109.1999969482421875</AltitudeMeters>
            <DistanceMeters>14181.238551821</DistanceMeters>
          </Trackpoint>
          <Trackpoint>
            <Time>2021-01-13T15:04:13.000Z</Time>
            <Position>
              <LatitudeDegrees>43.324550427496433258056640625</LatitudeDegrees>
              <LongitudeDegrees>-3.99675495922565460205078125</LongitudeDegrees>
            </Position>
            <AltitudeMeters>109</AltitudeMeters>
            <DistanceMeters>14191.829661753</DistanceMeters>
          </Trackpoint>
          <Trackpoint>
            <Time>2021-01-13T15:04:14.000Z</Time>
            <Position>
              <LatitudeDegrees>43.324613459408283233642578125</LatitudeDegrees>
              <LongitudeDegrees>-3.99666585959494113922119140625</LongitudeDegrees>
            </Position>
            <AltitudeMeters>108.59999847412109375</AltitudeMeters>
            <DistanceMeters>14201.892627381</DistanceMeters>
          </Trackpoint>
          <Trackpoint>
            <Time>2021-01-13T15:04:15.000Z</Time>
            <Position>
              <LatitudeDegrees>43.3246297203004360198974609375</LatitudeDegrees>
              <LongitudeDegrees>-3.9965499378740787506103515625</LongitudeDegrees>
            </Position>
            <AltitudeMeters>108.1999969482421875</AltitudeMeters>
            <DistanceMeters>14211.452144817</DistanceMeters>
          </Trackpoint>
          <Trackpoint>
            <Time>2021-01-13T15:04:16.000Z</Time>
            <Position>
              <LatitudeDegrees>43.324615471065044403076171875</LatitudeDegrees>
              <LongitudeDegrees>-3.99643770419061183929443359375</LongitudeDegrees>
            </Position>
            <AltitudeMeters>107.59999847412109375</AltitudeMeters>
            <DistanceMeters>14220.677570037</DistanceMeters>
          </Trackpoint>
          <Trackpoint>
            <Time>2021-01-13T15:04:17.000Z</Time>
            <Position>
              <LatitudeDegrees>43.324569873511791229248046875</LatitudeDegrees>
              <LongitudeDegrees>-3.99634416215121746063232421875</LongitudeDegrees>
            </Position>
            <AltitudeMeters>107.1999969482421875</AltitudeMeters>
            <DistanceMeters>14229.794688752</DistanceMeters>
          </Trackpoint>
          <Trackpoint>
            <Time>2021-01-13T15:04:18.000Z</Time>
            <Position>
              <LatitudeDegrees>43.32450206391513347625732421875</LatitudeDegrees>
              <LongitudeDegrees>-3.9962713234126567840576171875</LongitudeDegrees>
            </Position>
            <AltitudeMeters>107</AltitudeMeters>
            <DistanceMeters>14239.373079884</DistanceMeters>
          </Trackpoint>
          <Trackpoint>
            <Time>2021-01-13T15:04:19.000Z</Time>
            <Position>
              <LatitudeDegrees>43.3244238607585430145263671875</LatitudeDegrees>
              <LongitudeDegrees>-3.996204771101474761962890625</LongitudeDegrees>
            </Position>
            <AltitudeMeters>105.59999847412109375</AltitudeMeters>
            <DistanceMeters>14249.610416804</DistanceMeters>
          </Trackpoint>
          <Trackpoint>
            <Time>2021-01-13T15:04:20.000Z</Time>
            <Position>
              <LatitudeDegrees>43.3243467472493648529052734375</LatitudeDegrees>
              <LongitudeDegrees>-3.99612866342067718505859375</LongitudeDegrees>
            </Position>
            <AltitudeMeters>105</AltitudeMeters>
            <DistanceMeters>14260.175917502</DistanceMeters>
          </Trackpoint>
          <Trackpoint>
            <Time>2021-01-13T15:04:21.000Z</Time>
            <Position>
              <LatitudeDegrees>43.3242880739271640777587890625</LatitudeDegrees>
              <LongitudeDegrees>-3.99603436700999736785888671875</LongitudeDegrees>
            </Position>
            <AltitudeMeters>104.59999847412109375</AltitudeMeters>
            <DistanceMeters>14270.223167104</DistanceMeters>
          </Trackpoint>
          <Trackpoint>
            <Time>2021-01-13T15:04:23.000Z</Time>
            <Position>
              <LatitudeDegrees>43.3242226950824260711669921875</LatitudeDegrees>
              <LongitudeDegrees>-3.99580051191151142120361328125</LongitudeDegrees>
            </Position>
            <AltitudeMeters>103.40000152587890625</AltitudeMeters>
            <DistanceMeters>14290.508644262</DistanceMeters>
          </Trackpoint>
          <Trackpoint>
            <Time>2021-01-13T15:04:24.000Z</Time>
            <Position>
              <LatitudeDegrees>43.32421724684536457061767578125</LatitudeDegrees>
              <LongitudeDegrees>-3.9956768788397312164306640625</LongitudeDegrees>
            </Position>
            <AltitudeMeters>103.1999969482421875</AltitudeMeters>
            <DistanceMeters>14300.537002122</DistanceMeters>
          </Trackpoint>
          <Trackpoint>
            <Time>2021-01-13T15:04:25.000Z</Time>
            <Position>
              <LatitudeDegrees>43.32422713749110698699951171875</LatitudeDegrees>
              <LongitudeDegrees>-3.99555123411118984222412109375</LongitudeDegrees>
            </Position>
            <AltitudeMeters>103</AltitudeMeters>
            <DistanceMeters>14310.769927727</DistanceMeters>
          </Trackpoint>
          <Trackpoint>
            <Time>2021-01-13T15:04:27.000Z</Time>
            <Position>
              <LatitudeDegrees>43.3242739923298358917236328125</LatitudeDegrees>
              <LongitudeDegrees>-3.9952980168163776397705078125</LongitudeDegrees>
            </Position>
            <AltitudeMeters>102.40000152587890625</AltitudeMeters>
            <DistanceMeters>14331.926127032</DistanceMeters>
          </Trackpoint>
          <Trackpoint>
            <Time>2021-01-13T15:04:29.000Z</Time>
            <Position>
              <LatitudeDegrees>43.32431782968342304229736328125</LatitudeDegrees>
              <LongitudeDegrees>-3.9950391836464405059814453125</LongitudeDegrees>
            </Position>
            <AltitudeMeters>101.1999969482421875</AltitudeMeters>
            <DistanceMeters>14353.444170617</DistanceMeters>
          </Trackpoint>
          <Trackpoint>
            <Time>2021-01-13T15:04:30.000Z</Time>
            <Position>
              <LatitudeDegrees>43.32432277500629425048828125</LatitudeDegrees>
              <LongitudeDegrees>-3.9949057437479496002197265625</LongitudeDegrees>
            </Position>
            <AltitudeMeters>100.8000030517578125</AltitudeMeters>
            <DistanceMeters>14364.262618786</DistanceMeters>
          </Trackpoint>
          <Trackpoint>
            <Time>2021-01-13T15:04:31.000Z</Time>
            <Position>
              <LatitudeDegrees>43.3243065141141414642333984375</LatitudeDegrees>
              <LongitudeDegrees>-3.99477305822074413299560546875</LongitudeDegrees>
            </Position>
            <AltitudeMeters>100.40000152587890625</AltitudeMeters>
            <DistanceMeters>14375.157588032</DistanceMeters>
          </Trackpoint>
          <Trackpoint>
            <Time>2021-01-13T15:04:32.000Z</Time>
            <Position>
              <LatitudeDegrees>43.32425982691347599029541015625</LatitudeDegrees>
              <LongitudeDegrees>-3.994651101529598236083984375</LongitudeDegrees>
            </Position>
            <AltitudeMeters>99.59999847412109375</AltitudeMeters>
            <DistanceMeters>14386.315844796</DistanceMeters>
          </Trackpoint>
          <Trackpoint>
            <Time>2021-01-13T15:04:33.000Z</Time>
            <Position>
              <LatitudeDegrees>43.3241905085742473602294921875</LatitudeDegrees>
              <LongitudeDegrees>-3.99455487728118896484375</LongitudeDegrees>
            </Position>
            <AltitudeMeters>98.8000030517578125</AltitudeMeters>
            <DistanceMeters>14397.280626498</DistanceMeters>
          </Trackpoint>
          <Trackpoint>
            <Time>2021-01-13T15:04:34.000Z</Time>
            <Position>
              <LatitudeDegrees>43.3241070248186588287353515625</LatitudeDegrees>
              <LongitudeDegrees>-3.99448220618069171905517578125</LongitudeDegrees>
            </Position>
            <AltitudeMeters>98.40000152587890625</AltitudeMeters>
            <DistanceMeters>14408.278711511</DistanceMeters>
          </Trackpoint>
          <Trackpoint>
            <Time>2021-01-13T15:04:35.000Z</Time>
            <Position>
              <LatitudeDegrees>43.32402530126273632049560546875</LatitudeDegrees>
              <LongitudeDegrees>-3.994410373270511627197265625</LongitudeDegrees>
            </Position>
            <AltitudeMeters>98</AltitudeMeters>
            <DistanceMeters>14419.075017673</DistanceMeters>
          </Trackpoint>
          <Trackpoint>
            <Time>2021-01-13T15:04:36.000Z</Time>
            <Position>
              <LatitudeDegrees>43.32394969649612903594970703125</LatitudeDegrees>
              <LongitudeDegrees>-3.99432563222944736480712890625</LongitudeDegrees>
            </Position>
            <AltitudeMeters>97.40000152587890625</AltitudeMeters>
            <DistanceMeters>14429.932209663</DistanceMeters>
          </Trackpoint>
          <Trackpoint>
            <Time>2021-01-13T15:04:37.000Z</Time>
            <Position>
              <LatitudeDegrees>43.3238813839852809906005859375</LatitudeDegrees>
              <LongitudeDegrees>-3.9942268095910549163818359375</LongitudeDegrees>
            </Position>
            <AltitudeMeters>96.8000030517578125</AltitudeMeters>
            <DistanceMeters>14440.970044205</DistanceMeters>
          </Trackpoint>
          <Trackpoint>
            <Time>2021-01-13T15:04:39.000Z</Time>
            <Position>
              <LatitudeDegrees>43.32377602346241474151611328125</LatitudeDegrees>
              <LongitudeDegrees>-3.9939991571009159088134765625</LongitudeDegrees>
            </Position>
            <AltitudeMeters>95.40000152587890625</AltitudeMeters>
            <DistanceMeters>14462.817303772</DistanceMeters>
          </Trackpoint>
          <Trackpoint>
            <Time>2021-01-13T15:04:41.000Z</Time>
            <Position>
              <LatitudeDegrees>43.323700167238712310791015625</LatitudeDegrees>
              <LongitudeDegrees>-3.9937488734722137451171875</LongitudeDegrees>
            </Position>
            <AltitudeMeters>94.1999969482421875</AltitudeMeters>
            <DistanceMeters>14484.771559858</DistanceMeters>
          </Trackpoint>
          <Trackpoint>
            <Time>2021-01-13T15:04:42.000Z</Time>
            <Position>
              <LatitudeDegrees>43.32366907037794589996337890625</LatitudeDegrees>
              <LongitudeDegrees>-3.99361945688724517822265625</LongitudeDegrees>
            </Position>
            <AltitudeMeters>93.8000030517578125</AltitudeMeters>
            <DistanceMeters>14495.806939821</DistanceMeters>
          </Trackpoint>
          <Trackpoint>
            <Time>2021-01-13T15:04:43.000Z</Time>
            <Position>
              <LatitudeDegrees>43.323641829192638397216796875</LatitudeDegrees>
              <LongitudeDegrees>-3.99348928593099117279052734375</LongitudeDegrees>
            </Position>
            <AltitudeMeters>93.59999847412109375</AltitudeMeters>
            <DistanceMeters>14506.774603579</DistanceMeters>
          </Trackpoint>
          <Trackpoint>
            <Time>2021-01-13T15:04:44.000Z</Time>
            <Position>
              <LatitudeDegrees>43.323619700968265533447265625</LatitudeDegrees>
              <LongitudeDegrees>-3.99335836060345172882080078125</LongitudeDegrees>
            </Position>
            <AltitudeMeters>93.1999969482421875</AltitudeMeters>
            <DistanceMeters>14517.657963019</DistanceMeters>
          </Trackpoint>
          <Trackpoint>
            <Time>2021-01-13T15:04:45.000Z</Time>
            <Position>
              <LatitudeDegrees>43.32360486499965190887451171875</LatitudeDegrees>
              <LongitudeDegrees>-3.9932243339717388153076171875</LongitudeDegrees>
            </Position>
            <AltitudeMeters>92.40000152587890625</AltitudeMeters>
            <DistanceMeters>14528.635091062</DistanceMeters>
          </Trackpoint>
          <Trackpoint>
            <Time>2021-01-13T15:04:47.000Z</Time>
            <Position>
              <LatitudeDegrees>43.32361240871250629425048828125</LatitudeDegrees>
              <LongitudeDegrees>-3.992953263223171234130859375</LongitudeDegrees>
            </Position>
            <AltitudeMeters>90.40000152587890625</AltitudeMeters>
            <DistanceMeters>14550.600038689</DistanceMeters>
          </Trackpoint>
          <Trackpoint>
            <Time>2021-01-13T15:04:49.000Z</Time>
            <Position>
              <LatitudeDegrees>43.3236621133983135223388671875</LatitudeDegrees>
              <LongitudeDegrees>-3.9926852099597454071044921875</LongitudeDegrees>
            </Position>
            <AltitudeMeters>89.1999969482421875</AltitudeMeters>
            <DistanceMeters>14572.998542815</DistanceMeters>
          </Trackpoint>
          <Trackpoint>
            <Time>2021-01-13T15:04:51.000Z</Time>
            <Position>
              <LatitudeDegrees>43.32371517084538936614990234375</LatitudeDegrees>
              <LongitudeDegrees>-3.99241439066827297210693359375</LongitudeDegrees>
            </Position>
            <AltitudeMeters>88.1999969482421875</AltitudeMeters>
            <DistanceMeters>14595.708337088</DistanceMeters>
          </Trackpoint>
          <Trackpoint>
            <Time>2021-01-13T15:04:52.000Z</Time>
            <Position>
              <LatitudeDegrees>43.3237392269074916839599609375</LatitudeDegrees>
              <LongitudeDegrees>-3.9922781847417354583740234375</LongitudeDegrees>
            </Position>
            <AltitudeMeters>87.59999847412109375</AltitudeMeters>
            <DistanceMeters>14607.057964416</DistanceMeters>
          </Trackpoint>
          <Trackpoint>
            <Time>2021-01-13T15:04:53.000Z</Time>
            <Position>
              <LatitudeDegrees>43.32376210950314998626708984375</LatitudeDegrees>
              <LongitudeDegrees>-3.992141894996166229248046875</LongitudeDegrees>
            </Position>
            <AltitudeMeters>87.1999969482421875</AltitudeMeters>
            <DistanceMeters>14618.383697765</DistanceMeters>
          </Trackpoint>
          <Trackpoint>
            <Time>2021-01-13T15:04:55.000Z</Time>
            <Position>
              <LatitudeDegrees>43.3238039351999759674072265625</LatitudeDegrees>
              <LongitudeDegrees>-3.99186856113374233245849609375</LongitudeDegrees>
            </Position>
            <AltitudeMeters>86.40000152587890625</AltitudeMeters>
            <DistanceMeters>14641.000055785</DistanceMeters>
          </Trackpoint>
          <Trackpoint>
            <Time>2021-01-13T15:04:57.000Z</Time>
            <Position>
              <LatitudeDegrees>43.32383469678461551666259765625</LatitudeDegrees>
              <LongitudeDegrees>-3.99159229360520839691162109375</LongitudeDegrees>
            </Position>
            <AltitudeMeters>85.40000152587890625</AltitudeMeters>
            <DistanceMeters>14663.629984978</DistanceMeters>
          </Trackpoint>
          <Trackpoint>
            <Time>2021-01-13T15:04:58.000Z</Time>
            <Position>
              <LatitudeDegrees>43.323836289346218109130859375</LatitudeDegrees>
              <LongitudeDegrees>-3.99145415984094142913818359375</LongitudeDegrees>
            </Position>
            <AltitudeMeters>85</AltitudeMeters>
            <DistanceMeters>14674.816530439</DistanceMeters>
          </Trackpoint>
          <Trackpoint>
            <Time>2021-01-13T15:04:59.000Z</Time>
            <Position>
              <LatitudeDegrees>43.32382463850080966949462890625</LatitudeDegrees>
              <LongitudeDegrees>-3.9913176186382770538330078125</LongitudeDegrees>
            </Position>
            <AltitudeMeters>84.40000152587890625</AltitudeMeters>
            <DistanceMeters>14685.948049157</DistanceMeters>
          </Trackpoint>
          <Trackpoint>
            <Time>2021-01-13T15:05:01.000Z</Time>
            <Position>
              <LatitudeDegrees>43.32375523634254932403564453125</LatitudeDegrees>
              <LongitudeDegrees>-3.99105526506900787353515625</LongitudeDegrees>
            </Position>
            <AltitudeMeters>83.1999969482421875</AltitudeMeters>
            <DistanceMeters>14708.551826613</DistanceMeters>
          </Trackpoint>
          <Trackpoint>
            <Time>2021-01-13T15:05:02.000Z</Time>
            <Position>
              <LatitudeDegrees>43.32370544783771038055419921875</LatitudeDegrees>
              <LongitudeDegrees>-3.990931212902069091796875</LongitudeDegrees>
            </Position>
            <AltitudeMeters>82.59999847412109375</AltitudeMeters>
            <DistanceMeters>14720.023719835</DistanceMeters>
          </Trackpoint>
          <Trackpoint>
            <Time>2021-01-13T15:05:03.000Z</Time>
            <Position>
              <LatitudeDegrees>43.32365029491484165191650390625</LatitudeDegrees>
              <LongitudeDegrees>-3.9908116869628429412841796875</LongitudeDegrees>
            </Position>
            <AltitudeMeters>82.1999969482421875</AltitudeMeters>
            <DistanceMeters>14731.484587688</DistanceMeters>
          </Trackpoint>
          <Trackpoint>
            <Time>2021-01-13T15:05:04.000Z</Time>
            <Position>
              <LatitudeDegrees>43.32359321415424346923828125</LatitudeDegrees>
              <LongitudeDegrees>-3.990694172680377960205078125</LongitudeDegrees>
            </Position>
            <AltitudeMeters>81.8000030517578125</AltitudeMeters>
            <DistanceMeters>14742.925346319</DistanceMeters>
          </Trackpoint>
          <Trackpoint>
            <Time>2021-01-13T15:05:05.000Z</Time>
            <Position>
              <LatitudeDegrees>43.3235347084701061248779296875</LatitudeDegrees>
              <LongitudeDegrees>-3.99057657457888126373291015625</LongitudeDegrees>
            </Position>
            <AltitudeMeters>81.40000152587890625</AltitudeMeters>
            <DistanceMeters>14754.460822316</DistanceMeters>
          </Trackpoint>
          <Trackpoint>
            <Time>2021-01-13T15:05:07.000Z</Time>
            <Position>
              <LatitudeDegrees>43.3234170265495777130126953125</LatitudeDegrees>
              <LongitudeDegrees>-3.9903459884226322174072265625</LongitudeDegrees>
            </Position>
            <AltitudeMeters>80.59999847412109375</AltitudeMeters>
            <DistanceMeters>14777.268223605</DistanceMeters>
          </Trackpoint>
          <Trackpoint>
            <Time>2021-01-13T15:05:08.000Z</Time>
            <Position>
              <LatitudeDegrees>43.32336011342704296112060546875</LatitudeDegrees>
              <LongitudeDegrees>-3.9902306534349918365478515625</LongitudeDegrees>
            </Position>
            <AltitudeMeters>80</AltitudeMeters>
            <DistanceMeters>14788.552820985</DistanceMeters>
          </Trackpoint>
          <Trackpoint>
            <Time>2021-01-13T15:05:09.000Z</Time>
            <Position>
              <LatitudeDegrees>43.323312588036060333251953125</LatitudeDegrees>
              <LongitudeDegrees>-3.9901096187531948089599609375</LongitudeDegrees>
            </Position>
            <AltitudeMeters>79.59999847412109375</AltitudeMeters>
            <DistanceMeters>14799.690016773</DistanceMeters>
          </Trackpoint>
          <Trackpoint>
            <Time>2021-01-13T15:05:11.000Z</Time>
            <Position>
              <LatitudeDegrees>43.32324863411486148834228515625</LatitudeDegrees>
              <LongitudeDegrees>-3.98985053412616252899169921875</LongitudeDegrees>
            </Position>
            <AltitudeMeters>78.40000152587890625</AltitudeMeters>
            <DistanceMeters>14821.843269234</DistanceMeters>
          </Trackpoint>
          <Trackpoint>
            <Time>2021-01-13T15:05:13.000Z</Time>
            <Position>
              <LatitudeDegrees>43.3232272602617740631103515625</LatitudeDegrees>
              <LongitudeDegrees>-3.98958063684403896331787109375</LongitudeDegrees>
            </Position>
            <AltitudeMeters>77.40000152587890625</AltitudeMeters>
            <DistanceMeters>14843.826503778</DistanceMeters>
          </Trackpoint>
          <Trackpoint>
            <Time>2021-01-13T15:05:14.000Z</Time>
            <Position>
              <LatitudeDegrees>43.32322499714791774749755859375</LatitudeDegrees>
              <LongitudeDegrees>-3.9894444309175014495849609375</LongitudeDegrees>
            </Position>
            <AltitudeMeters>76.8000030517578125</AltitudeMeters>
            <DistanceMeters>14854.858200848</DistanceMeters>
          </Trackpoint>
          <Trackpoint>
            <Time>2021-01-13T15:05:15.000Z</Time>
            <Position>
              <LatitudeDegrees>43.32322038710117340087890625</LatitudeDegrees>
              <LongitudeDegrees>-3.98930780589580535888671875</LongitudeDegrees>
            </Position>
            <AltitudeMeters>75.8000030517578125</AltitudeMeters>
            <DistanceMeters>14865.932381097</DistanceMeters>
          </Trackpoint>
          <Trackpoint>
            <Time>2021-01-13T15:05:16.000Z</Time>
            <Position>
              <LatitudeDegrees>43.323214016854763031005859375</LatitudeDegrees>
              <LongitudeDegrees>-3.9891698397696018218994140625</LongitudeDegrees>
            </Position>
            <AltitudeMeters>74.59999847412109375</AltitudeMeters>
            <DistanceMeters>14877.125785881</DistanceMeters>
          </Trackpoint>
          <Trackpoint>
            <Time>2021-01-13T15:05:17.000Z</Time>
            <Position>
              <LatitudeDegrees>43.32320295274257659912109375</LatitudeDegrees>
              <LongitudeDegrees>-3.98903287947177886962890625</LongitudeDegrees>
            </Position>
            <AltitudeMeters>74.40000152587890625</AltitudeMeters>
            <DistanceMeters>14888.284042645</DistanceMeters>
          </Trackpoint>
          <Trackpoint>
            <Time>2021-01-13T15:05:18.000Z</Time>
            <Position>
              <LatitudeDegrees>43.32318342290818691253662109375</LatitudeDegrees>
              <LongitudeDegrees>-3.98889818228781223297119140625</LongitudeDegrees>
            </Position>
            <AltitudeMeters>74.1999969482421875</AltitudeMeters>
            <DistanceMeters>14899.405010542</DistanceMeters>
          </Trackpoint>
          <Trackpoint>
            <Time>2021-01-13T15:05:19.000Z</Time>
            <Position>
              <LatitudeDegrees>43.323157690465450286865234375</LatitudeDegrees>
              <LongitudeDegrees>-3.98876574821770191192626953125</LongitudeDegrees>
            </Position>
            <AltitudeMeters>73.8000030517578125</AltitudeMeters>
            <DistanceMeters>14910.50403315</DistanceMeters>
          </Trackpoint>
          <Trackpoint>
            <Time>2021-01-13T15:05:20.000Z</Time>
            <Position>
              <LatitudeDegrees>43.3231276832520961761474609375</LatitudeDegrees>
              <LongitudeDegrees>-3.988636247813701629638671875</LongitudeDegrees>
            </Position>
            <AltitudeMeters>73.1999969482421875</AltitudeMeters>
            <DistanceMeters>14921.509094952</DistanceMeters>
          </Trackpoint>
          <Trackpoint>
            <Time>2021-01-13T15:05:21.000Z</Time>
            <Position>
              <LatitudeDegrees>43.32309708930552005767822265625</LatitudeDegrees>
              <LongitudeDegrees>-3.98850825615227222442626953125</LongitudeDegrees>
            </Position>
            <AltitudeMeters>72.59999847412109375</AltitudeMeters>
            <DistanceMeters>14932.417731319</DistanceMeters>
          </Trackpoint>
          <Trackpoint>
            <Time>2021-01-13T15:05:22.000Z</Time>
            <Position>
              <LatitudeDegrees>43.3230676688253879547119140625</LatitudeDegrees>
              <LongitudeDegrees>-3.9883822761476039886474609375</LongitudeDegrees>
            </Position>
            <AltitudeMeters>71.8000030517578125</AltitudeMeters>
            <DistanceMeters>14943.130913461</DistanceMeters>
          </Trackpoint>
          <Trackpoint>
            <Time>2021-01-13T15:05:23.000Z</Time>
            <Position>
              <LatitudeDegrees>43.32303891889750957489013671875</LatitudeDegrees>
              <LongitudeDegrees>-3.9882572181522846221923828125</LongitudeDegrees>
            </Position>
            <AltitudeMeters>71.40000152587890625</AltitudeMeters>
            <DistanceMeters>14953.750547386</DistanceMeters>
          </Trackpoint>
          <Trackpoint>
            <Time>2021-01-13T15:05:24.000Z</Time>
            <Position>
              <LatitudeDegrees>43.32301310263574123382568359375</LatitudeDegrees>
              <LongitudeDegrees>-3.98813224397599697113037109375</LongitudeDegrees>
            </Position>
            <AltitudeMeters>70.8000030517578125</AltitudeMeters>
            <DistanceMeters>14964.269794353</DistanceMeters>
          </Trackpoint>
          <Trackpoint>
            <Time>2021-01-13T15:05:25.000Z</Time>
            <Position>
              <LatitudeDegrees>43.3229885436594486236572265625</LatitudeDegrees>
              <LongitudeDegrees>-3.988007940351963043212890625</LongitudeDegrees>
            </Position>
            <AltitudeMeters>70.1999969482421875</AltitudeMeters>
            <DistanceMeters>14974.69981501</DistanceMeters>
          </Trackpoint>
          <Trackpoint>
            <Time>2021-01-13T15:05:26.000Z</Time>
            <Position>
              <LatitudeDegrees>43.32296884618699550628662109375</LatitudeDegrees>
              <LongitudeDegrees>-3.98788346908986568450927734375</LongitudeDegrees>
            </Position>
            <AltitudeMeters>69.59999847412109375</AltitudeMeters>
            <DistanceMeters>14985.013606772</DistanceMeters>
          </Trackpoint>
          <Trackpoint>
            <Time>2021-01-13T15:05:27.000Z</Time>
            <Position>
              <LatitudeDegrees>43.32295526750385761260986328125</LatitudeDegrees>
              <LongitudeDegrees>-3.9877576567232608795166015625</LongitudeDegrees>
            </Position>
            <AltitudeMeters>69</AltitudeMeters>
            <DistanceMeters>14995.312503699</DistanceMeters>
          </Trackpoint>
          <Trackpoint>
            <Time>2021-01-13T15:05:28.000Z</Time>
            <Position>
              <LatitudeDegrees>43.322948478162288665771484375</LatitudeDegrees>
              <LongitudeDegrees>-3.9876302517950534820556640625</LongitudeDegrees>
            </Position>
            <AltitudeMeters>68.40000152587890625</AltitudeMeters>
            <DistanceMeters>15005.656020785</DistanceMeters>
          </Trackpoint>
          <Trackpoint>
            <Time>2021-01-13T15:05:29.000Z</Time>
            <Position>
              <LatitudeDegrees>43.3229449577629566192626953125</LatitudeDegrees>
              <LongitudeDegrees>-3.98749840445816516876220703125</LongitudeDegrees>
            </Position>
            <AltitudeMeters>68</AltitudeMeters>
            <DistanceMeters>15016.338815649</DistanceMeters>
          </Trackpoint>
          <Trackpoint>
            <Time>2021-01-13T15:05:31.000Z</Time>
            <Position>
              <LatitudeDegrees>43.322945125401020050048828125</LatitudeDegrees>
              <LongitudeDegrees>-3.9872228913009166717529296875</LongitudeDegrees>
            </Position>
            <AltitudeMeters>67</AltitudeMeters>
            <DistanceMeters>15038.647639758</DistanceMeters>
          </Trackpoint>
          <Trackpoint>
            <Time>2021-01-13T15:05:32.000Z</Time>
            <Position>
              <LatitudeDegrees>43.3229479752480983734130859375</LatitudeDegrees>
              <LongitudeDegrees>-3.98708266206085681915283203125</LongitudeDegrees>
            </Position>
            <AltitudeMeters>66.1999969482421875</AltitudeMeters>
            <DistanceMeters>15050.007208076</DistanceMeters>
          </Trackpoint>
          <Trackpoint>
            <Time>2021-01-13T15:05:33.000Z</Time>
            <Position>
              <LatitudeDegrees>43.32295476458966732025146484375</LatitudeDegrees>
              <LongitudeDegrees>-3.98694050498306751251220703125</LongitudeDegrees>
            </Position>
            <AltitudeMeters>65.8000030517578125</AltitudeMeters>
            <DistanceMeters>15061.543075471</DistanceMeters>
          </Trackpoint>
          <Trackpoint>
            <Time>2021-01-13T15:05:34.000Z</Time>
            <Position>
              <LatitudeDegrees>43.3229684270918369293212890625</LatitudeDegrees>
              <LongitudeDegrees>-3.98679801262915134429931640625</LongitudeDegrees>
            </Position>
            <AltitudeMeters>65.40000152587890625</AltitudeMeters>
            <DistanceMeters>15073.180647663</DistanceMeters>
          </Trackpoint>
          <Trackpoint>
            <Time>2021-01-13T15:05:35.000Z</Time>
            <Position>
              <LatitudeDegrees>43.32299332134425640106201171875</LatitudeDegrees>
              <LongitudeDegrees>-3.98665778338909149169921875</LongitudeDegrees>
            </Position>
            <AltitudeMeters>65</AltitudeMeters>
            <DistanceMeters>15084.868547236</DistanceMeters>
          </Trackpoint>
          <Trackpoint>
            <Time>2021-01-13T15:05:36.000Z</Time>
            <Position>
              <LatitudeDegrees>43.32303103990852832794189453125</LatitudeDegrees>
              <LongitudeDegrees>-3.98652057163417339324951171875</LongitudeDegrees>
            </Position>
            <AltitudeMeters>64.8000030517578125</AltitudeMeters>
            <DistanceMeters>15096.745746157</DistanceMeters>
          </Trackpoint>
          <Trackpoint>
            <Time>2021-01-13T15:05:37.000Z</Time>
            <Position>
              <LatitudeDegrees>43.32307496108114719390869140625</LatitudeDegrees>
              <LongitudeDegrees>-3.98638411425054073333740234375</LongitudeDegrees>
            </Position>
            <AltitudeMeters>64.40000152587890625</AltitudeMeters>
            <DistanceMeters>15108.827973427</DistanceMeters>
          </Trackpoint>
          <Trackpoint>
            <Time>2021-01-13T15:05:39.000Z</Time>
            <Position>
              <LatitudeDegrees>43.32316464744508266448974609375</LatitudeDegrees>
              <LongitudeDegrees>-3.98609980009496212005615234375</LongitudeDegrees>
            </Position>
            <AltitudeMeters>63.40000152587890625</AltitudeMeters>
            <DistanceMeters>15133.920424685</DistanceMeters>
          </Trackpoint>
          <Trackpoint>
            <Time>2021-01-13T15:05:41.000Z</Time>
            <Position>
              <LatitudeDegrees>43.32326154224574565887451171875</LatitudeDegrees>
              <LongitudeDegrees>-3.98579218424856662750244140625</LongitudeDegrees>
            </Position>
            <AltitudeMeters>62.59999847412109375</AltitudeMeters>
            <DistanceMeters>15161.063155144</DistanceMeters>
          </Trackpoint>
          <Trackpoint>
            <Time>2021-01-13T15:05:42.000Z</Time>
            <Position>
              <LatitudeDegrees>43.3233137615025043487548828125</LatitudeDegrees>
              <LongitudeDegrees>-3.985634185373783111572265625</LongitudeDegrees>
            </Position>
            <AltitudeMeters>62.40000152587890625</AltitudeMeters>
            <DistanceMeters>15175.114904199</DistanceMeters>
          </Trackpoint>
          <Trackpoint>
            <Time>2021-01-13T15:05:43.000Z</Time>
            <Position>
              <LatitudeDegrees>43.323370255529880523681640625</LatitudeDegrees>
              <LongitudeDegrees>-3.9854761026799678802490234375</LongitudeDegrees>
            </Position>
            <AltitudeMeters>62</AltitudeMeters>
            <DistanceMeters>15189.375878278</DistanceMeters>
          </Trackpoint>
          <Trackpoint>
            <Time>2021-01-13T15:05:45.000Z</Time>
            <Position>
              <LatitudeDegrees>43.323489613831043243408203125</LatitudeDegrees>
              <LongitudeDegrees>-3.9851565845310688018798828125</LongitudeDegrees>
            </Position>
            <AltitudeMeters>61</AltitudeMeters>
            <DistanceMeters>15218.459021168</DistanceMeters>
          </Trackpoint>
          <Trackpoint>
            <Time>2021-01-13T15:05:46.000Z</Time>
            <Position>
              <LatitudeDegrees>43.32354962825775146484375</LatitudeDegrees>
              <LongitudeDegrees>-3.984995149075984954833984375</LongitudeDegrees>
            </Position>
            <AltitudeMeters>60.40000152587890625</AltitudeMeters>
            <DistanceMeters>15233.138418777</DistanceMeters>
          </Trackpoint>
          <Trackpoint>
            <Time>2021-01-13T15:05:47.000Z</Time>
            <Position>
              <LatitudeDegrees>43.3236134983599185943603515625</LatitudeDegrees>
              <LongitudeDegrees>-3.9848333783447742462158203125</LongitudeDegrees>
            </Position>
            <AltitudeMeters>59.59999847412109375</AltitudeMeters>
            <DistanceMeters>15248.041867717</DistanceMeters>
          </Trackpoint>
          <Trackpoint>
            <Time>2021-01-13T15:05:48.000Z</Time>
            <Position>
              <LatitudeDegrees>43.32368063740432262420654296875</LatitudeDegrees>
              <LongitudeDegrees>-3.98467102088034152984619140625</LongitudeDegrees>
            </Position>
            <AltitudeMeters>59</AltitudeMeters>
            <DistanceMeters>15263.163660791</DistanceMeters>
          </Trackpoint>
          <Trackpoint>
            <Time>2021-01-13T15:05:49.000Z</Time>
            <Position>
              <LatitudeDegrees>43.3237482793629169464111328125</LatitudeDegrees>
              <LongitudeDegrees>-3.98451243527233600616455078125</LongitudeDegrees>
            </Position>
            <AltitudeMeters>58.799999237060546875</AltitudeMeters>
            <DistanceMeters>15278.048618152</DistanceMeters>
          </Trackpoint>
          <Trackpoint>
            <Time>2021-01-13T15:05:50.000Z</Time>
            <Position>
              <LatitudeDegrees>43.3238163404166698455810546875</LatitudeDegrees>
              <LongitudeDegrees>-3.98436055518686771392822265625</LongitudeDegrees>
            </Position>
            <AltitudeMeters>58.59999847412109375</AltitudeMeters>
            <DistanceMeters>15292.492053547</DistanceMeters>
          </Trackpoint>
          <Trackpoint>
            <Time>2021-01-13T15:05:51.000Z</Time>
            <Position>
              <LatitudeDegrees>43.3238830603659152984619140625</LatitudeDegrees>
              <LongitudeDegrees>-3.98421487770974636077880859375</LongitudeDegrees>
            </Position>
            <AltitudeMeters>58.40000152587890625</AltitudeMeters>
            <DistanceMeters>15306.430240826</DistanceMeters>
          </Trackpoint>
          <Trackpoint>
            <Time>2021-01-13T15:05:53.000Z</Time>
            <Position>
              <LatitudeDegrees>43.32400887273252010345458984375</LatitudeDegrees>
              <LongitudeDegrees>-3.98393802344799041748046875</LongitudeDegrees>
            </Position>
            <AltitudeMeters>58</AltitudeMeters>
            <DistanceMeters>15332.861336793</DistanceMeters>
          </Trackpoint>
          <Trackpoint>
            <Time>2021-01-13T15:05:55.000Z</Time>
            <Position>
              <LatitudeDegrees>43.32412437535822391510009765625</LatitudeDegrees>
              <LongitudeDegrees>-3.9836776815354824066162109375</LongitudeDegrees>
            </Position>
            <AltitudeMeters>57.799999237060546875</AltitudeMeters>
            <DistanceMeters>15357.552195848</DistanceMeters>
          </Trackpoint>
          <Trackpoint>
            <Time>2021-01-13T15:05:57.000Z</Time>
            <Position>
              <LatitudeDegrees>43.3242320828139781951904296875</LatitudeDegrees>
              <LongitudeDegrees>-3.98343267850577831268310546875</LongitudeDegrees>
            </Position>
            <AltitudeMeters>57.59999847412109375</AltitudeMeters>
            <DistanceMeters>15380.73092377</DistanceMeters>
          </Trackpoint>
          <Trackpoint>
            <Time>2021-01-13T15:05:58.000Z</Time>
            <Position>
              <LatitudeDegrees>43.324284218251705169677734375</LatitudeDegrees>
              <LongitudeDegrees>-3.98331549949944019317626953125</LongitudeDegrees>
            </Position>
            <AltitudeMeters>57.200000762939453125</AltitudeMeters>
            <DistanceMeters>15391.852703625</DistanceMeters>
          </Trackpoint>
          <Trackpoint>
            <Time>2021-01-13T15:05:59.000Z</Time>
            <Position>
              <LatitudeDegrees>43.324336521327495574951171875</LatitudeDegrees>
              <LongitudeDegrees>-3.983202092349529266357421875</LongitudeDegrees>
            </Position>
            <AltitudeMeters>56.59999847412109375</AltitudeMeters>
            <DistanceMeters>15402.725686693</DistanceMeters>
          </Trackpoint>
          <Trackpoint>
            <Time>2021-01-13T15:06:00.000Z</Time>
            <Position>
              <LatitudeDegrees>43.324387483298778533935546875</LatitudeDegrees>
              <LongitudeDegrees>-3.9830896072089672088623046875</LongitudeDegrees>
            </Position>
            <AltitudeMeters>56</AltitudeMeters>
            <DistanceMeters>15413.455713471</DistanceMeters>
          </Trackpoint>
          <Trackpoint>
            <Time>2021-01-13T15:06:01.000Z</Time>
            <Position>
              <LatitudeDegrees>43.3244376070797443389892578125</LatitudeDegrees>
              <LongitudeDegrees>-3.98297821171581745147705078125</LongitudeDegrees>
            </Position>
            <AltitudeMeters>55.40000152587890625</AltitudeMeters>
            <DistanceMeters>15424.062159263</DistanceMeters>
          </Trackpoint>
          <Trackpoint>
            <Time>2021-01-13T15:06:02.000Z</Time>
            <Position>
              <LatitudeDegrees>43.32448664121329784393310546875</LatitudeDegrees>
              <LongitudeDegrees>-3.982868157327175140380859375</LongitudeDegrees>
            </Position>
            <AltitudeMeters>54.799999237060546875</AltitudeMeters>
            <DistanceMeters>15434.511641756</DistanceMeters>
          </Trackpoint>
          <Trackpoint>
            <Time>2021-01-13T15:06:03.000Z</Time>
            <Position>
              <LatitudeDegrees>43.3245351724326610565185546875</LatitudeDegrees>
              <LongitudeDegrees>-3.98275919258594512939453125</LongitudeDegrees>
            </Position>
            <AltitudeMeters>54.200000762939453125</AltitudeMeters>
            <DistanceMeters>15444.85690473</DistanceMeters>
          </Trackpoint>
          <Trackpoint>
            <Time>2021-01-13T15:06:04.000Z</Time>
            <Position>
              <LatitudeDegrees>43.32458294928073883056640625</LatitudeDegrees>
              <LongitudeDegrees>-3.982650898396968841552734375</LongitudeDegrees>
            </Position>
            <AltitudeMeters>53.59999847412109375</AltitudeMeters>
            <DistanceMeters>15455.111867932</DistanceMeters>
          </Trackpoint>
          <Trackpoint>
            <Time>2021-01-13T15:06:05.000Z</Time>
            <Position>
              <LatitudeDegrees>43.324630223214626312255859375</LatitudeDegrees>
              <LongitudeDegrees>-3.982542939484119415283203125</LongitudeDegrees>
            </Position>
            <AltitudeMeters>53.40000152587890625</AltitudeMeters>
            <DistanceMeters>15465.314746018</DistanceMeters>
          </Trackpoint>
          <Trackpoint>
            <Time>2021-01-13T15:06:07.000Z</Time>
            <Position>
              <LatitudeDegrees>43.32472502253949642181396484375</LatitudeDegrees>
              <LongitudeDegrees>-3.98232861422002315521240234375</LongitudeDegrees>
            </Position>
            <AltitudeMeters>52.59999847412109375</AltitudeMeters>
            <DistanceMeters>15485.624247042</DistanceMeters>
          </Trackpoint>
          <Trackpoint>
            <Time>2021-01-13T15:06:09.000Z</Time>
            <Position>
              <LatitudeDegrees>43.32481856457889080047607421875</LatitudeDegrees>
              <LongitudeDegrees>-3.9821169711649417877197265625</LongitudeDegrees>
            </Position>
            <AltitudeMeters>52.40000152587890625</AltitudeMeters>
            <DistanceMeters>15505.675559308</DistanceMeters>
          </Trackpoint>
          <Trackpoint>
            <Time>2021-01-13T15:06:11.000Z</Time>
            <Position>
              <LatitudeDegrees>43.3249116875231266021728515625</LatitudeDegrees>
              <LongitudeDegrees>-3.98190767504274845123291015625</LongitudeDegrees>
            </Position>
            <AltitudeMeters>52</AltitudeMeters>
            <DistanceMeters>15525.540461537</DistanceMeters>
          </Trackpoint>
          <Trackpoint>
            <Time>2021-01-13T15:06:13.000Z</Time>
            <Position>
              <LatitudeDegrees>43.32500464282929897308349609375</LatitudeDegrees>
              <LongitudeDegrees>-3.98169829510152339935302734375</LongitudeDegrees>
            </Position>
            <AltitudeMeters>51.59999847412109375</AltitudeMeters>
            <DistanceMeters>15545.401499509</DistanceMeters>
          </Trackpoint>
          <Trackpoint>
            <Time>2021-01-13T15:06:15.000Z</Time>
            <Position>
              <LatitudeDegrees>43.325097262859344482421875</LatitudeDegrees>
              <LongitudeDegrees>-3.981490842998027801513671875</LongitudeDegrees>
            </Position>
            <AltitudeMeters>51</AltitudeMeters>
            <DistanceMeters>15565.10986596</DistanceMeters>
          </Trackpoint>
          <Trackpoint>
            <Time>2021-01-13T15:06:17.000Z</Time>
            <Position>
              <LatitudeDegrees>43.32518644630908966064453125</LatitudeDegrees>
              <LongitudeDegrees>-3.9812868274748325347900390625</LongitudeDegrees>
            </Position>
            <AltitudeMeters>50.59999847412109375</AltitudeMeters>
            <DistanceMeters>15584.381789687</DistanceMeters>
          </Trackpoint>
          <Trackpoint>
            <Time>2021-01-13T15:06:18.000Z</Time>
            <Position>
              <LatitudeDegrees>43.32523011602461338043212890625</LatitudeDegrees>
              <LongitudeDegrees>-3.98118616081774234771728515625</LongitudeDegrees>
            </Position>
            <AltitudeMeters>50.59999847412109375</AltitudeMeters>
            <DistanceMeters>15593.872099611</DistanceMeters>
          </Trackpoint>
          <Trackpoint>
            <Time>2021-01-13T15:06:19.000Z</Time>
            <Position>
              <LatitudeDegrees>43.32527370192110538482666015625</LatitudeDegrees>
              <LongitudeDegrees>-3.98108683526515960693359375</LongitudeDegrees>
            </Position>
            <AltitudeMeters>50.40000152587890625</AltitudeMeters>
            <DistanceMeters>15603.263893194</DistanceMeters>
          </Trackpoint>
          <Trackpoint>
            <Time>2021-01-13T15:06:20.000Z</Time>
            <Position>
              <LatitudeDegrees>43.32531762309372425079345703125</LatitudeDegrees>
              <LongitudeDegrees>-3.98098885081708431243896484375</LongitudeDegrees>
            </Position>
            <AltitudeMeters>50.40000152587890625</AltitudeMeters>
            <DistanceMeters>15612.582327348</DistanceMeters>
          </Trackpoint>
          <Trackpoint>
            <Time>2021-01-13T15:06:21.000Z</Time>
            <Position>
              <LatitudeDegrees>43.3253609575331211090087890625</LatitudeDegrees>
              <LongitudeDegrees>-3.98089128546416759490966796875</LongitudeDegrees>
            </Position>
            <AltitudeMeters>50.200000762939453125</AltitudeMeters>
            <DistanceMeters>15621.8385342</DistanceMeters>
          </Trackpoint>
          <Trackpoint>
            <Time>2021-01-13T15:06:23.000Z</Time>
            <Position>
              <LatitudeDegrees>43.325442261993885040283203125</LatitudeDegrees>
              <LongitudeDegrees>-3.9806954003870487213134765625</LongitudeDegrees>
            </Position>
            <AltitudeMeters>50.200000762939453125</AltitudeMeters>
            <DistanceMeters>15640.099494277</DistanceMeters>
          </Trackpoint>
          <Trackpoint>
            <Time>2021-01-13T15:06:25.000Z</Time>
            <Position>
              <LatitudeDegrees>43.32551828585565090179443359375</LatitudeDegrees>
              <LongitudeDegrees>-3.98049968294799327850341796875</LongitudeDegrees>
            </Position>
            <AltitudeMeters>50.200000762939453125</AltitudeMeters>
            <DistanceMeters>15658.064319133</DistanceMeters>
          </Trackpoint>
          <Trackpoint>
            <Time>2021-01-13T15:06:27.000Z</Time>
            <Position>
              <LatitudeDegrees>43.32559187896549701690673828125</LatitudeDegrees>
              <LongitudeDegrees>-3.980307318270206451416015625</LongitudeDegrees>
            </Position>
            <AltitudeMeters>50</AltitudeMeters>
            <DistanceMeters>15675.662230135</DistanceMeters>
          </Trackpoint>
          <Trackpoint>
            <Time>2021-01-13T15:06:28.000Z</Time>
            <Position>
              <LatitudeDegrees>43.3256278373301029205322265625</LatitudeDegrees>
              <LongitudeDegrees>-3.980212770402431488037109375</LongitudeDegrees>
            </Position>
            <AltitudeMeters>50</AltitudeMeters>
            <DistanceMeters>15684.300780461</DistanceMeters>
          </Trackpoint>
          <Trackpoint>
            <Time>2021-01-13T15:06:29.000Z</Time>
            <Position>
              <LatitudeDegrees>43.32566362805664539337158203125</LatitudeDegrees>
              <LongitudeDegrees>-3.980119563639163970947265625</LongitudeDegrees>
            </Position>
            <AltitudeMeters>50</AltitudeMeters>
            <DistanceMeters>15692.834158248</DistanceMeters>
          </Trackpoint>
          <Trackpoint>
            <Time>2021-01-13T15:06:31.000Z</Time>
            <Position>
              <LatitudeDegrees>43.3257324434816837310791015625</LatitudeDegrees>
              <LongitudeDegrees>-3.97993574850261211395263671875</LongitudeDegrees>
            </Position>
            <AltitudeMeters>49.799999237060546875</AltitudeMeters>
            <DistanceMeters>15709.572622389</DistanceMeters>
          </Trackpoint>
          <Trackpoint>
            <Time>2021-01-13T15:06:33.000Z</Time>
            <Position>
              <LatitudeDegrees>43.32579907961189746856689453125</LatitudeDegrees>
              <LongitudeDegrees>-3.979757465422153472900390625</LongitudeDegrees>
            </Position>
            <AltitudeMeters>49.799999237060546875</AltitudeMeters>
            <DistanceMeters>15725.801894392</DistanceMeters>
          </Trackpoint>
          <Trackpoint>
            <Time>2021-01-13T15:06:35.000Z</Time>
            <Position>
              <LatitudeDegrees>43.32585456781089305877685546875</LatitudeDegrees>
              <LongitudeDegrees>-3.97958211600780487060546875</LongitudeDegrees>
            </Position>
            <AltitudeMeters>49.40000152587890625</AltitudeMeters>
            <DistanceMeters>15741.284543044</DistanceMeters>
          </Trackpoint>
          <Trackpoint>
            <Time>2021-01-13T15:06:36.000Z</Time>
            <Position>
              <LatitudeDegrees>43.32587443292140960693359375</LatitudeDegrees>
              <LongitudeDegrees>-3.9794954471290111541748046875</LongitudeDegrees>
            </Position>
            <AltitudeMeters>49.40000152587890625</AltitudeMeters>
            <DistanceMeters>15748.640985671</DistanceMeters>
          </Trackpoint>
          <Trackpoint>
            <Time>2021-01-13T15:06:37.000Z</Time>
            <Position>
              <LatitudeDegrees>43.32588650286197662353515625</LatitudeDegrees>
              <LongitudeDegrees>-3.97941137664020061492919921875</LongitudeDegrees>
            </Position>
            <AltitudeMeters>49.200000762939453125</AltitudeMeters>
            <DistanceMeters>15755.579237434</DistanceMeters>
          </Trackpoint>
          <Trackpoint>
            <Time>2021-01-13T15:06:39.000Z</Time>
            <Position>
              <LatitudeDegrees>43.32588725723326206207275390625</LatitudeDegrees>
              <LongitudeDegrees>-3.97925220429897308349609375</LongitudeDegrees>
            </Position>
            <AltitudeMeters>49</AltitudeMeters>
            <DistanceMeters>15768.467186305</DistanceMeters>
          </Trackpoint>
          <Trackpoint>
            <Time>2021-01-13T15:06:40.000Z</Time>
            <Position>
              <LatitudeDegrees>43.3258816413581371307373046875</LatitudeDegrees>
              <LongitudeDegrees>-3.97917936556041240692138671875</LongitudeDegrees>
            </Position>
            <AltitudeMeters>49</AltitudeMeters>
            <DistanceMeters>15774.397036022</DistanceMeters>
          </Trackpoint>
          <Trackpoint>
            <Time>2021-01-13T15:06:41.000Z</Time>
            <Position>
              <LatitudeDegrees>43.32587418146431446075439453125</LatitudeDegrees>
              <LongitudeDegrees>-3.979111723601818084716796875</LongitudeDegrees>
            </Position>
            <AltitudeMeters>49</AltitudeMeters>
            <DistanceMeters>15779.93636809</DistanceMeters>
          </Trackpoint>
          <Trackpoint>
            <Time>2021-01-13T15:06:43.000Z</Time>
            <Position>
              <LatitudeDegrees>43.32584903575479984283447265625</LatitudeDegrees>
              <LongitudeDegrees>-3.97898976691067218780517578125</LongitudeDegrees>
            </Position>
            <AltitudeMeters>49</AltitudeMeters>
            <DistanceMeters>15790.200133081</DistanceMeters>
          </Trackpoint>
          <Trackpoint>
            <Time>2021-01-13T15:06:45.000Z</Time>
            <Position>
              <LatitudeDegrees>43.3258067071437835693359375</LatitudeDegrees>
              <LongitudeDegrees>-3.9788855798542499542236328125</LongitudeDegrees>
            </Position>
            <AltitudeMeters>49</AltitudeMeters>
            <DistanceMeters>15799.862999656</DistanceMeters>
          </Trackpoint>
          <Trackpoint>
            <Time>2021-01-13T15:06:47.000Z</Time>
            <Position>
              <LatitudeDegrees>43.32574971020221710205078125</LatitudeDegrees>
              <LongitudeDegrees>-3.978797234594821929931640625</LongitudeDegrees>
            </Position>
            <AltitudeMeters>49</AltitudeMeters>
            <DistanceMeters>15809.423461661</DistanceMeters>
          </Trackpoint>
          <Trackpoint>
            <Time>2021-01-13T15:06:49.000Z</Time>
            <Position>
              <LatitudeDegrees>43.32568508572876453399658203125</LatitudeDegrees>
              <LongitudeDegrees>-3.9787169359624385833740234375</LongitudeDegrees>
            </Position>
            <AltitudeMeters>49.40000152587890625</AltitudeMeters>
            <DistanceMeters>15819.118981028</DistanceMeters>
          </Trackpoint>
          <Trackpoint>
            <Time>2021-01-13T15:06:51.000Z</Time>
            <Position>
              <LatitudeDegrees>43.32561853341758251190185546875</LatitudeDegrees>
              <LongitudeDegrees>-3.97864543832838535308837890625</LongitudeDegrees>
            </Position>
            <AltitudeMeters>49.799999237060546875</AltitudeMeters>
            <DistanceMeters>15828.520384552</DistanceMeters>
          </Trackpoint>
          <Trackpoint>
            <Time>2021-01-13T15:06:53.000Z</Time>
            <Position>
              <LatitudeDegrees>43.32554896362125873565673828125</LatitudeDegrees>
              <LongitudeDegrees>-3.97858073003590106964111328125</LongitudeDegrees>
            </Position>
            <AltitudeMeters>50.40000152587890625</AltitudeMeters>
            <DistanceMeters>15837.869777045</DistanceMeters>
          </Trackpoint>
          <Trackpoint>
            <Time>2021-01-13T15:06:54.000Z</Time>
            <Position>
              <LatitudeDegrees>43.32551443018019199371337890625</LatitudeDegrees>
              <LongitudeDegrees>-3.97855038754642009735107421875</LongitudeDegrees>
            </Position>
            <AltitudeMeters>50.59999847412109375</AltitudeMeters>
            <DistanceMeters>15842.431059335</DistanceMeters>
          </Trackpoint>
          <Trackpoint>
            <Time>2021-01-13T15:06:55.000Z</Time>
            <Position>
              <LatitudeDegrees>43.325479812920093536376953125</LatitudeDegrees>
              <LongitudeDegrees>-3.978520296514034271240234375</LongitudeDegrees>
            </Position>
            <AltitudeMeters>51</AltitudeMeters>
            <DistanceMeters>15846.990361471</DistanceMeters>
          </Trackpoint>
          <Trackpoint>
            <Time>2021-01-13T15:06:57.000Z</Time>
            <Position>
              <LatitudeDegrees>43.325413763523101806640625</LatitudeDegrees>
              <LongitudeDegrees>-3.978461958467960357666015625</LongitudeDegrees>
            </Position>
            <AltitudeMeters>51.40000152587890625</AltitudeMeters>
            <DistanceMeters>15855.72868662</DistanceMeters>
          </Trackpoint>
          <Trackpoint>
            <Time>2021-01-13T15:06:58.000Z</Time>
            <Position>
              <LatitudeDegrees>43.325383253395557403564453125</LatitudeDegrees>
              <LongitudeDegrees>-3.97843220271170139312744140625</LongitudeDegrees>
            </Position>
            <AltitudeMeters>51.799999237060546875</AltitudeMeters>
            <DistanceMeters>15859.892548622</DistanceMeters>
          </Trackpoint>
          <Trackpoint>
            <Time>2021-01-13T15:06:59.000Z</Time>
            <Position>
              <LatitudeDegrees>43.32535165362060070037841796875</LatitudeDegrees>
              <LongitudeDegrees>-3.97840202786028385162353515625</LongitudeDegrees>
            </Position>
            <AltitudeMeters>52</AltitudeMeters>
            <DistanceMeters>15864.175081198</DistanceMeters>
          </Trackpoint>
          <Trackpoint>
            <Time>2021-01-13T15:07:01.000Z</Time>
            <Position>
              <LatitudeDegrees>43.32528610713779926300048828125</LatitudeDegrees>
              <LongitudeDegrees>-3.97835156880319118499755859375</LongitudeDegrees>
            </Position>
            <AltitudeMeters>52.799999237060546875</AltitudeMeters>
            <DistanceMeters>15872.536352143</DistanceMeters>
          </Trackpoint>
          <Trackpoint>
            <Time>2021-01-13T15:07:02.000Z</Time>
            <Position>
              <LatitudeDegrees>43.32525224424898624420166015625</LatitudeDegrees>
              <LongitudeDegrees>-3.97832256741821765899658203125</LongitudeDegrees>
            </Position>
            <AltitudeMeters>53.200000762939453125</AltitudeMeters>
            <DistanceMeters>15876.977262743</DistanceMeters>
          </Trackpoint>
          <Trackpoint>
            <Time>2021-01-13T15:07:03.000Z</Time>
            <Position>
              <LatitudeDegrees>43.32521737553179264068603515625</LatitudeDegrees>
              <LongitudeDegrees>-3.9782908000051975250244140625</LongitudeDegrees>
            </Position>
            <AltitudeMeters>53.59999847412109375</AltitudeMeters>
            <DistanceMeters>15881.631632022</DistanceMeters>
          </Trackpoint>
          <Trackpoint>
            <Time>2021-01-13T15:07:04.000Z</Time>
            <Position>
              <LatitudeDegrees>43.32518401555716991424560546875</LatitudeDegrees>
              <LongitudeDegrees>-3.97826104424893856048583984375</LongitudeDegrees>
            </Position>
            <AltitudeMeters>53.799999237060546875</AltitudeMeters>
            <DistanceMeters>15886.057265966</DistanceMeters>
          </Trackpoint>
          <Trackpoint>
            <Time>2021-01-13T15:07:05.000Z</Time>
            <Position>
              <LatitudeDegrees>43.32515023648738861083984375</LatitudeDegrees>
              <LongitudeDegrees>-3.9782294444739818572998046875</LongitudeDegrees>
            </Position>
            <AltitudeMeters>54.200000762939453125</AltitudeMeters>
            <DistanceMeters>15890.604669078</DistanceMeters>
          </Trackpoint>
          <Trackpoint>
            <Time>2021-01-13T15:07:06.000Z</Time>
            <Position>
              <LatitudeDegrees>43.325118720531463623046875</LatitudeDegrees>
              <LongitudeDegrees>-3.9781989343464374542236328125</LongitudeDegrees>
            </Position>
            <AltitudeMeters>54.40000152587890625</AltitudeMeters>
            <DistanceMeters>15894.894575346</DistanceMeters>
          </Trackpoint>
          <Trackpoint>
            <Time>2021-01-13T15:07:07.000Z</Time>
            <Position>
              <LatitudeDegrees>43.32508728839457035064697265625</LatitudeDegrees>
              <LongitudeDegrees>-3.97817253135144710540771484375</LongitudeDegrees>
            </Position>
            <AltitudeMeters>54.799999237060546875</AltitudeMeters>
            <DistanceMeters>15898.995063407</DistanceMeters>
          </Trackpoint>
          <Trackpoint>
            <Time>2021-01-13T15:07:09.000Z</Time>
            <Position>
              <LatitudeDegrees>43.325027525424957275390625</LatitudeDegrees>
              <LongitudeDegrees>-3.97812056355178356170654296875</LongitudeDegrees>
            </Position>
            <AltitudeMeters>55.200000762939453125</AltitudeMeters>
            <DistanceMeters>15906.86566214</DistanceMeters>
          </Trackpoint>
          <Trackpoint>
            <Time>2021-01-13T15:07:11.000Z</Time>
            <Position>
              <LatitudeDegrees>43.324973545968532562255859375</LatitudeDegrees>
              <LongitudeDegrees>-3.978069014847278594970703125</LongitudeDegrees>
            </Position>
            <AltitudeMeters>55.799999237060546875</AltitudeMeters>
            <DistanceMeters>15914.180867742</DistanceMeters>
          </Trackpoint>
          <Trackpoint>
            <Time>2021-01-13T15:07:13.000Z</Time>
            <Position>
              <LatitudeDegrees>43.3249207399785518646240234375</LatitudeDegrees>
              <LongitudeDegrees>-3.97802098654210567474365234375</LongitudeDegrees>
            </Position>
            <AltitudeMeters>56.40000152587890625</AltitudeMeters>
            <DistanceMeters>15921.228878136</DistanceMeters>
          </Trackpoint>
          <Trackpoint>
            <Time>2021-01-13T15:07:15.000Z</Time>
            <Position>
              <LatitudeDegrees>43.3248679339885711669921875</LatitudeDegrees>
              <LongitudeDegrees>-3.97795879282057285308837890625</LongitudeDegrees>
            </Position>
            <AltitudeMeters>56.59999847412109375</AltitudeMeters>
            <DistanceMeters>15928.968744229</DistanceMeters>
          </Trackpoint>
          <Trackpoint>
            <Time>2021-01-13T15:07:17.000Z</Time>
            <Position>
              <LatitudeDegrees>43.32481118850409984588623046875</LatitudeDegrees>
              <LongitudeDegrees>-3.97788000293076038360595703125</LongitudeDegrees>
            </Position>
            <AltitudeMeters>57.200000762939453125</AltitudeMeters>
            <DistanceMeters>15937.946128718</DistanceMeters>
          </Trackpoint>
          <Trackpoint>
            <Time>2021-01-13T15:07:18.000Z</Time>
            <Position>
              <LatitudeDegrees>43.32478034310042858123779296875</LatitudeDegrees>
              <LongitudeDegrees>-3.97783842869102954864501953125</LongitudeDegrees>
            </Position>
            <AltitudeMeters>57.40000152587890625</AltitudeMeters>
            <DistanceMeters>15942.754142413</DistanceMeters>
          </Trackpoint>
          <Trackpoint>
            <Time>2021-01-13T15:07:19.000Z</Time>
            <Position>
              <LatitudeDegrees>43.324749581515789031982421875</LatitudeDegrees>
              <LongitudeDegrees>-3.977793417870998382568359375</LongitudeDegrees>
            </Position>
            <AltitudeMeters>57.799999237060546875</AltitudeMeters>
            <DistanceMeters>15947.755473411</DistanceMeters>
          </Trackpoint>
          <Trackpoint>
            <Time>2021-01-13T15:07:21.000Z</Time>
            <Position>
              <LatitudeDegrees>43.32469551824033260345458984375</LatitudeDegrees>
              <LongitudeDegrees>-3.97770180366933345794677734375</LongitudeDegrees>
            </Position>
            <AltitudeMeters>58.200000762939453125</AltitudeMeters>
            <DistanceMeters>15957.307430927</DistanceMeters>
          </Trackpoint>
          <Trackpoint>
            <Time>2021-01-13T15:07:23.000Z</Time>
            <Position>
              <LatitudeDegrees>43.32465226761996746063232421875</LatitudeDegrees>
              <LongitudeDegrees>-3.9776165597140789031982421875</LongitudeDegrees>
            </Position>
            <AltitudeMeters>58.59999847412109375</AltitudeMeters>
            <DistanceMeters>15965.722528043</DistanceMeters>
          </Trackpoint>
          <Trackpoint>
            <Time>2021-01-13T15:07:25.000Z</Time>
            <Position>
              <LatitudeDegrees>43.324608094990253448486328125</LatitudeDegrees>
              <LongitudeDegrees>-3.9775324054062366485595703125</LongitudeDegrees>
            </Position>
            <AltitudeMeters>59.200000762939453125</AltitudeMeters>
            <DistanceMeters>15974.124738326</DistanceMeters>
          </Trackpoint>
          <Trackpoint>
            <Time>2021-01-13T15:07:27.000Z</Time>
            <Position>
              <LatitudeDegrees>43.324569873511791229248046875</LatitudeDegrees>
              <LongitudeDegrees>-3.97745302878320217132568359375</LongitudeDegrees>
            </Position>
            <AltitudeMeters>59.59999847412109375</AltitudeMeters>
            <DistanceMeters>15981.832453482</DistanceMeters>
          </Trackpoint>
          <Trackpoint>
            <Time>2021-01-13T15:07:28.000Z</Time>
            <Position>
              <LatitudeDegrees>43.32454900257289409637451171875</LatitudeDegrees>
              <LongitudeDegrees>-3.97741279564797878265380859375</LongitudeDegrees>
            </Position>
            <AltitudeMeters>59.799999237060546875</AltitudeMeters>
            <DistanceMeters>15985.832615411</DistanceMeters>
          </Trackpoint>
          <Trackpoint>
            <Time>2021-01-13T15:07:29.000Z</Time>
            <Position>
              <LatitudeDegrees>43.3245299756526947021484375</LatitudeDegrees>
              <LongitudeDegrees>-3.9773739874362945556640625</LongitudeDegrees>
            </Position>
            <AltitudeMeters>60</AltitudeMeters>
            <DistanceMeters>15989.621787029</DistanceMeters>
          </Trackpoint>
          <Trackpoint>
            <Time>2021-01-13T15:07:31.000Z</Time>
            <Position>
              <LatitudeDegrees>43.3244895748794078826904296875</LatitudeDegrees>
              <LongitudeDegrees>-3.977291174232959747314453125</LongitudeDegrees>
            </Position>
            <AltitudeMeters>60.59999847412109375</AltitudeMeters>
            <DistanceMeters>15997.695143937</DistanceMeters>
          </Trackpoint>
          <Trackpoint>
            <Time>2021-01-13T15:07:33.000Z</Time>
            <Position>
              <LatitudeDegrees>43.32444707863032817840576171875</LatitudeDegrees>
              <LongitudeDegrees>-3.97720961831510066986083984375</LongitudeDegrees>
            </Position>
            <AltitudeMeters>61</AltitudeMeters>
            <DistanceMeters>16005.817565897</DistanceMeters>
          </Trackpoint>
          <Trackpoint>
            <Time>2021-01-13T15:07:35.000Z</Time>
            <Position>
              <LatitudeDegrees>43.32440533675253391265869140625</LatitudeDegrees>
              <LongitudeDegrees>-3.97713015787303447723388671875</LongitudeDegrees>
            </Position>
            <AltitudeMeters>61.40000152587890625</AltitudeMeters>
            <DistanceMeters>16013.753292274</DistanceMeters>
          </Trackpoint>
          <Trackpoint>
            <Time>2021-01-13T15:07:37.000Z</Time>
            <Position>
              <LatitudeDegrees>43.32436325959861278533935546875</LatitudeDegrees>
              <LongitudeDegrees>-3.97705237381160259246826171875</LongitudeDegrees>
            </Position>
            <AltitudeMeters>61.799999237060546875</AltitudeMeters>
            <DistanceMeters>16021.6020617</DistanceMeters>
          </Trackpoint>
          <Trackpoint>
            <Time>2021-01-13T15:07:38.000Z</Time>
            <Position>
              <LatitudeDegrees>43.32434079609811305999755859375</LatitudeDegrees>
              <LongitudeDegrees>-3.97701415233314037322998046875</LongitudeDegrees>
            </Position>
            <AltitudeMeters>62</AltitudeMeters>
            <DistanceMeters>16025.581854921</DistanceMeters>
          </Trackpoint>
          <Trackpoint>
            <Time>2021-01-13T15:07:39.000Z</Time>
            <Position>
              <LatitudeDegrees>43.32431883551180362701416015625</LatitudeDegrees>
              <LongitudeDegrees>-3.976974673569202423095703125</LongitudeDegrees>
            </Position>
            <AltitudeMeters>62.200000762939453125</AltitudeMeters>
            <DistanceMeters>16029.605650028</DistanceMeters>
          </Trackpoint>
          <Trackpoint>
            <Time>2021-01-13T15:07:41.000Z</Time>
            <Position>
              <LatitudeDegrees>43.3242780156433582305908203125</LatitudeDegrees>
              <LongitudeDegrees>-3.97689278237521648406982421875</LongitudeDegrees>
            </Position>
            <AltitudeMeters>62.59999847412109375</AltitudeMeters>
            <DistanceMeters>16037.643135137</DistanceMeters>
          </Trackpoint>
          <Trackpoint>
            <Time>2021-01-13T15:07:43.000Z</Time>
            <Position>
              <LatitudeDegrees>43.3242384530603885650634765625</LatitudeDegrees>
              <LongitudeDegrees>-3.97681231610476970672607421875</LongitudeDegrees>
            </Position>
            <AltitudeMeters>63.200000762939453125</AltitudeMeters>
            <DistanceMeters>16045.506846951</DistanceMeters>
          </Trackpoint>
          <Trackpoint>
            <Time>2021-01-13T15:07:45.000Z</Time>
            <Position>
              <LatitudeDegrees>43.32419595681130886077880859375</LatitudeDegrees>
              <LongitudeDegrees>-3.9767334423959255218505859375</LongitudeDegrees>
            </Position>
            <AltitudeMeters>63.59999847412109375</AltitudeMeters>
            <DistanceMeters>16053.453944197</DistanceMeters>
          </Trackpoint>
          <Trackpoint>
            <Time>2021-01-13T15:07:47.000Z</Time>
            <Position>
              <LatitudeDegrees>43.324153460562229156494140625</LatitudeDegrees>
              <LongitudeDegrees>-3.97665523923933506011962890625</LongitudeDegrees>
            </Position>
            <AltitudeMeters>64</AltitudeMeters>
            <DistanceMeters>16061.357173839</DistanceMeters>
          </Trackpoint>
          <Trackpoint>
            <Time>2021-01-13T15:07:48.000Z</Time>
            <Position>
              <LatitudeDegrees>43.3241321705281734466552734375</LatitudeDegrees>
              <LongitudeDegrees>-3.97661718539893627166748046875</LongitudeDegrees>
            </Position>
            <AltitudeMeters>64.1999969482421875</AltitudeMeters>
            <DistanceMeters>16065.245148629</DistanceMeters>
          </Trackpoint>
          <Trackpoint>
            <Time>2021-01-13T15:07:49.000Z</Time>
            <Position>
              <LatitudeDegrees>43.3241115510463714599609375</LatitudeDegrees>
              <LongitudeDegrees>-3.97657963447272777557373046875</LongitudeDegrees>
            </Position>
            <AltitudeMeters>64.40000152587890625</AltitudeMeters>
            <DistanceMeters>16069.055708026</DistanceMeters>
          </Trackpoint>
          <Trackpoint>
            <Time>2021-01-13T15:07:51.000Z</Time>
            <Position>
              <LatitudeDegrees>43.3240741677582263946533203125</LatitudeDegrees>
              <LongitudeDegrees>-3.97650084458291530609130859375</LongitudeDegrees>
            </Position>
            <AltitudeMeters>64.8000030517578125</AltitudeMeters>
            <DistanceMeters>16076.672085845</DistanceMeters>
          </Trackpoint>
          <Trackpoint>
            <Time>2021-01-13T15:07:53.000Z</Time>
            <Position>
              <LatitudeDegrees>43.32404315471649169921875</LatitudeDegrees>
              <LongitudeDegrees>-3.9764166064560413360595703125</LongitudeDegrees>
            </Position>
            <AltitudeMeters>65.1999969482421875</AltitudeMeters>
            <DistanceMeters>16084.316865419</DistanceMeters>
          </Trackpoint>
          <Trackpoint>
            <Time>2021-01-13T15:07:55.000Z</Time>
            <Position>
              <LatitudeDegrees>43.324019014835357666015625</LatitudeDegrees>
              <LongitudeDegrees>-3.97632800973951816558837890625</LongitudeDegrees>
            </Position>
            <AltitudeMeters>65.59999847412109375</AltitudeMeters>
            <DistanceMeters>16091.97698531</DistanceMeters>
          </Trackpoint>
          <Trackpoint>
            <Time>2021-01-13T15:07:56.000Z</Time>
            <Position>
              <LatitudeDegrees>43.3240101300179958343505859375</LatitudeDegrees>
              <LongitudeDegrees>-3.97628224454820156097412109375</LongitudeDegrees>
            </Position>
            <AltitudeMeters>65.8000030517578125</AltitudeMeters>
            <DistanceMeters>16095.811168984</DistanceMeters>
          </Trackpoint>
          <Trackpoint>
            <Time>2021-01-13T15:07:57.000Z</Time>
            <Position>
              <LatitudeDegrees>43.3240015804767608642578125</LatitudeDegrees>
              <LongitudeDegrees>-3.97623564116656780242919921875</LongitudeDegrees>
            </Position>
            <AltitudeMeters>66</AltitudeMeters>
            <DistanceMeters>16099.702626063</DistanceMeters>
          </Trackpoint>
          <Trackpoint>
            <Time>2021-01-13T15:07:58.000Z</Time>
            <Position>
              <LatitudeDegrees>43.32399152219295501708984375</LatitudeDegrees>
              <LongitudeDegrees>-3.9761892892420291900634765625</LongitudeDegrees>
            </Position>
            <AltitudeMeters>66.1999969482421875</AltitudeMeters>
            <DistanceMeters>16103.618372455</DistanceMeters>
          </Trackpoint>
          <Trackpoint>
            <Time>2021-01-13T15:07:59.000Z</Time>
            <Position>
              <LatitudeDegrees>43.32398221828043460845947265625</LatitudeDegrees>
              <LongitudeDegrees>-3.9761423505842685699462890625</LongitudeDegrees>
            </Position>
            <AltitudeMeters>66.40000152587890625</AltitudeMeters>
            <DistanceMeters>16107.558258418</DistanceMeters>
          </Trackpoint>
          <Trackpoint>
            <Time>2021-01-13T15:08:01.000Z</Time>
            <Position>
              <LatitudeDegrees>43.32397031597793102264404296875</LatitudeDegrees>
              <LongitudeDegrees>-3.97604537196457386016845703125</LongitudeDegrees>
            </Position>
            <AltitudeMeters>66.8000030517578125</AltitudeMeters>
            <DistanceMeters>16115.521247605</DistanceMeters>
          </Trackpoint>
          <Trackpoint>
            <Time>2021-01-13T15:08:03.000Z</Time>
            <Position>
              <LatitudeDegrees>43.3239658735692501068115234375</LatitudeDegrees>
              <LongitudeDegrees>-3.975947387516498565673828125</LongitudeDegrees>
            </Position>
            <AltitudeMeters>67.1999969482421875</AltitudeMeters>
            <DistanceMeters>16123.470617074</DistanceMeters>
          </Trackpoint>
          <Trackpoint>
            <Time>2021-01-13T15:08:04.000Z</Time>
            <Position>
              <LatitudeDegrees>43.32396545447409152984619140625</LatitudeDegrees>
              <LongitudeDegrees>-3.9758972637355327606201171875</LongitudeDegrees>
            </Position>
            <AltitudeMeters>67.59999847412109375</AltitudeMeters>
            <DistanceMeters>16127.529047736</DistanceMeters>
          </Trackpoint>
          <Trackpoint>
            <Time>2021-01-13T15:08:05.000Z</Time>
            <Position>
              <LatitudeDegrees>43.32396562211215496063232421875</LatitudeDegrees>
              <LongitudeDegrees>-3.97584688849747180938720703125</LongitudeDegrees>
            </Position>
            <AltitudeMeters>67.8000030517578125</AltitudeMeters>
            <DistanceMeters>16131.607454386</DistanceMeters>
          </Trackpoint>
          <Trackpoint>
            <Time>2021-01-13T15:08:06.000Z</Time>
            <Position>
              <LatitudeDegrees>43.323965705931186676025390625</LatitudeDegrees>
              <LongitudeDegrees>-3.97579609416425228118896484375</LongitudeDegrees>
            </Position>
            <AltitudeMeters>68.40000152587890625</AltitudeMeters>
            <DistanceMeters>16135.7211344</DistanceMeters>
          </Trackpoint>
          <Trackpoint>
            <Time>2021-01-13T15:08:07.000Z</Time>
            <Position>
              <LatitudeDegrees>43.323967047035694122314453125</LatitudeDegrees>
              <LongitudeDegrees>-3.97574513219296932220458984375</LongitudeDegrees>
            </Position>
            <AltitudeMeters>68.59999847412109375</AltitudeMeters>
            <DistanceMeters>16139.851245101</DistanceMeters>
          </Trackpoint>
          <Trackpoint>
            <Time>2021-01-13T15:08:09.000Z</Time>
            <Position>
              <LatitudeDegrees>43.32396813668310642242431640625</LatitudeDegrees>
              <LongitudeDegrees>-3.97564404644072055816650390625</LongitudeDegrees>
            </Position>
            <AltitudeMeters>69.1999969482421875</AltitudeMeters>
            <DistanceMeters>16148.036791339</DistanceMeters>
          </Trackpoint>
          <Trackpoint>
            <Time>2021-01-13T15:08:10.000Z</Time>
            <Position>
              <LatitudeDegrees>43.32396914251148700714111328125</LatitudeDegrees>
              <LongitudeDegrees>-3.97559392265975475311279296875</LongitudeDegrees>
            </Position>
            <AltitudeMeters>69.40000152587890625</AltitudeMeters>
            <DistanceMeters>16152.097446408</DistanceMeters>
          </Trackpoint>
          <Trackpoint>
            <Time>2021-01-13T15:08:11.000Z</Time>
            <Position>
              <LatitudeDegrees>43.32397098653018474578857421875</LatitudeDegrees>
              <LongitudeDegrees>-3.97554346360266208648681640625</LongitudeDegrees>
            </Position>
            <AltitudeMeters>69.59999847412109375</AltitudeMeters>
            <DistanceMeters>16156.189116205</DistanceMeters>
          </Trackpoint>
          <Trackpoint>
            <Time>2021-01-13T15:08:13.000Z</Time>
            <Position>
              <LatitudeDegrees>43.32397316582500934600830078125</LatitudeDegrees>
              <LongitudeDegrees>-3.97544254548847675323486328125</LongitudeDegrees>
            </Position>
            <AltitudeMeters>69.8000030517578125</AltitudeMeters>
            <DistanceMeters>16164.363623266</DistanceMeters>
          </Trackpoint>
          <Trackpoint>
            <Time>2021-01-13T15:08:14.000Z</Time>
            <Position>
              <LatitudeDegrees>43.32397517748177051544189453125</LatitudeDegrees>
              <LongitudeDegrees>-3.9753920026123523712158203125</LongitudeDegrees>
            </Position>
            <AltitudeMeters>70</AltitudeMeters>
            <DistanceMeters>16168.461908539</DistanceMeters>
          </Trackpoint>
          <Trackpoint>
            <Time>2021-01-13T15:08:15.000Z</Time>
            <Position>
              <LatitudeDegrees>43.32397651858627796173095703125</LatitudeDegrees>
              <LongitudeDegrees>-3.97534062154591083526611328125</LongitudeDegrees>
            </Position>
            <AltitudeMeters>70.1999969482421875</AltitudeMeters>
            <DistanceMeters>16172.625770541</DistanceMeters>
          </Trackpoint>
          <Trackpoint>
            <Time>2021-01-13T15:08:16.000Z</Time>
            <Position>
              <LatitudeDegrees>43.3239774405956268310546875</LatitudeDegrees>
              <LongitudeDegrees>-3.975288569927215576171875</LongitudeDegrees>
            </Position>
            <AltitudeMeters>70.40000152587890625</AltitudeMeters>
            <DistanceMeters>16176.841359521</DistanceMeters>
          </Trackpoint>
          <Trackpoint>
            <Time>2021-01-13T15:08:17.000Z</Time>
            <Position>
              <LatitudeDegrees>43.323978446424007415771484375</LatitudeDegrees>
              <LongitudeDegrees>-3.9752360992133617401123046875</LongitudeDegrees>
            </Position>
            <AltitudeMeters>70.59999847412109375</AltitudeMeters>
            <DistanceMeters>16181.091083381</DistanceMeters>
          </Trackpoint>
          <Trackpoint>
            <Time>2021-01-13T15:08:19.000Z</Time>
            <Position>
              <LatitudeDegrees>43.32398104481399059295654296875</LatitudeDegrees>
              <LongitudeDegrees>-3.97512889467179775238037109375</LongitudeDegrees>
            </Position>
            <AltitudeMeters>71</AltitudeMeters>
            <DistanceMeters>16189.776545868</DistanceMeters>
          </Trackpoint>
          <Trackpoint>
            <Time>2021-01-13T15:08:21.000Z</Time>
            <Position>
              <LatitudeDegrees>43.32398255355656147003173828125</LatitudeDegrees>
              <LongitudeDegrees>-3.9750211872160434722900390625</LongitudeDegrees>
            </Position>
            <AltitudeMeters>71.1999969482421875</AltitudeMeters>
            <DistanceMeters>16198.499356431</DistanceMeters>
          </Trackpoint>
          <Trackpoint>
            <Time>2021-01-13T15:08:23.000Z</Time>
            <Position>
              <LatitudeDegrees>43.32398339174687862396240234375</LatitudeDegrees>
              <LongitudeDegrees>-3.97491264156997203826904296875</LongitudeDegrees>
            </Position>
            <AltitudeMeters>71.40000152587890625</AltitudeMeters>
            <DistanceMeters>16207.289199095</DistanceMeters>
          </Trackpoint>
          <Trackpoint>
            <Time>2021-01-13T15:08:25.000Z</Time>
            <Position>
              <LatitudeDegrees>43.323983140289783477783203125</LatitudeDegrees>
              <LongitudeDegrees>-3.97480501793324947357177734375</LongitudeDegrees>
            </Position>
            <AltitudeMeters>72</AltitudeMeters>
            <DistanceMeters>16216.003723918</DistanceMeters>
          </Trackpoint>
          <Trackpoint>
            <Time>2021-01-13T15:08:27.000Z</Time>
            <Position>
              <LatitudeDegrees>43.32398490048944950103759765625</LatitudeDegrees>
              <LongitudeDegrees>-3.97469705902040004730224609375</LongitudeDegrees>
            </Position>
            <AltitudeMeters>72.1999969482421875</AltitudeMeters>
            <DistanceMeters>16224.747730851</DistanceMeters>
          </Trackpoint>
          <Trackpoint>
            <Time>2021-01-13T15:08:29.000Z</Time>
            <Position>
              <LatitudeDegrees>43.32398590631783008575439453125</LatitudeDegrees>
              <LongitudeDegrees>-3.97458516061305999755859375</LongitudeDegrees>
            </Position>
            <AltitudeMeters>72.40000152587890625</AltitudeMeters>
            <DistanceMeters>16233.808716174</DistanceMeters>
          </Trackpoint>
          <Trackpoint>
            <Time>2021-01-13T15:08:30.000Z</Time>
            <Position>
              <LatitudeDegrees>43.323987163603305816650390625</LatitudeDegrees>
              <LongitudeDegrees>-3.9745279960334300994873046875</LongitudeDegrees>
            </Position>
            <AltitudeMeters>72.59999847412109375</AltitudeMeters>
            <DistanceMeters>16238.440720236</DistanceMeters>
          </Trackpoint>
          <Trackpoint>
            <Time>2021-01-13T15:08:31.000Z</Time>
            <Position>
              <LatitudeDegrees>43.32398883998394012451171875</LatitudeDegrees>
              <LongitudeDegrees>-3.97447041235864162445068359375</LongitudeDegrees>
            </Position>
            <AltitudeMeters>72.8000030517578125</AltitudeMeters>
            <DistanceMeters>16243.106715769</DistanceMeters>
          </Trackpoint>
          <Trackpoint>
            <Time>2021-01-13T15:08:33.000Z</Time>
            <Position>
              <LatitudeDegrees>43.32399143837392330169677734375</LatitudeDegrees>
              <LongitudeDegrees>-3.9743539877235889434814453125</LongitudeDegrees>
            </Position>
            <AltitudeMeters>73</AltitudeMeters>
            <DistanceMeters>16252.537847884</DistanceMeters>
          </Trackpoint>
          <Trackpoint>
            <Time>2021-01-13T15:08:35.000Z</Time>
            <Position>
              <LatitudeDegrees>43.32399495877325534820556640625</LatitudeDegrees>
              <LongitudeDegrees>-3.9742363058030605316162109375</LongitudeDegrees>
            </Position>
            <AltitudeMeters>73.40000152587890625</AltitudeMeters>
            <DistanceMeters>16262.075141002</DistanceMeters>
          </Trackpoint>
          <Trackpoint>
            <Time>2021-01-13T15:08:36.000Z</Time>
            <Position>
              <LatitudeDegrees>43.32399529404938220977783203125</LatitudeDegrees>
              <LongitudeDegrees>-3.97417654283344745635986328125</LongitudeDegrees>
            </Position>
            <AltitudeMeters>73.40000152587890625</AltitudeMeters>
            <DistanceMeters>16266.914044619</DistanceMeters>
          </Trackpoint>
          <Trackpoint>
            <Time>2021-01-13T15:08:37.000Z</Time>
            <Position>
              <LatitudeDegrees>43.32399554550647735595703125</LatitudeDegrees>
              <LongitudeDegrees>-3.97411619313061237335205078125</LongitudeDegrees>
            </Position>
            <AltitudeMeters>73.59999847412109375</AltitudeMeters>
            <DistanceMeters>16271.800303118</DistanceMeters>
          </Trackpoint>
          <Trackpoint>
            <Time>2021-01-13T15:08:39.000Z</Time>
            <Position>
              <LatitudeDegrees>43.32399646751582622528076171875</LatitudeDegrees>
              <LongitudeDegrees>-3.97399549372494220733642578125</LongitudeDegrees>
            </Position>
            <AltitudeMeters>73.59999847412109375</AltitudeMeters>
            <DistanceMeters>16281.5737441</DistanceMeters>
          </Trackpoint>
          <Trackpoint>
            <Time>2021-01-13T15:08:40.000Z</Time>
            <Position>
              <LatitudeDegrees>43.3239967189729213714599609375</LatitudeDegrees>
              <LongitudeDegrees>-3.97393531166017055511474609375</LongitudeDegrees>
            </Position>
            <AltitudeMeters>73.8000030517578125</AltitudeMeters>
            <DistanceMeters>16286.447049041</DistanceMeters>
          </Trackpoint>
          <Trackpoint>
            <Time>2021-01-13T15:08:41.000Z</Time>
            <Position>
              <LatitudeDegrees>43.3239973895251750946044921875</LatitudeDegrees>
              <LongitudeDegrees>-3.9738748781383037567138671875</LongitudeDegrees>
            </Position>
            <AltitudeMeters>73.8000030517578125</AltitudeMeters>
            <DistanceMeters>16291.339771458</DistanceMeters>
          </Trackpoint>
          <Trackpoint>
            <Time>2021-01-13T15:08:43.000Z</Time>
            <Position>
              <LatitudeDegrees>43.323998562991619110107421875</LatitudeDegrees>
              <LongitudeDegrees>-3.973753340542316436767578125</LongitudeDegrees>
            </Position>
            <AltitudeMeters>74</AltitudeMeters>
            <DistanceMeters>16301.181346532</DistanceMeters>
          </Trackpoint>
          <Trackpoint>
            <Time>2021-01-13T15:08:45.000Z</Time>
            <Position>
              <LatitudeDegrees>43.3239987306296825408935546875</LatitudeDegrees>
              <LongitudeDegrees>-3.9736304618418216705322265625</LongitudeDegrees>
            </Position>
            <AltitudeMeters>74.1999969482421875</AltitudeMeters>
            <DistanceMeters>16311.130602684</DistanceMeters>
          </Trackpoint>
          <Trackpoint>
            <Time>2021-01-13T15:08:47.000Z</Time>
            <Position>
              <LatitudeDegrees>43.3239963836967945098876953125</LatitudeDegrees>
              <LongitudeDegrees>-3.97350464947521686553955078125</LongitudeDegrees>
            </Position>
            <AltitudeMeters>74.40000152587890625</AltitudeMeters>
            <DistanceMeters>16321.321082511</DistanceMeters>
          </Trackpoint>
          <Trackpoint>
            <Time>2021-01-13T15:08:48.000Z</Time>
            <Position>
              <LatitudeDegrees>43.32399495877325534820556640625</LatitudeDegrees>
              <LongitudeDegrees>-3.9734403602778911590576171875</LongitudeDegrees>
            </Position>
            <AltitudeMeters>74.59999847412109375</AltitudeMeters>
            <DistanceMeters>16326.528511777</DistanceMeters>
          </Trackpoint>
          <Trackpoint>
            <Time>2021-01-13T15:08:49.000Z</Time>
            <Position>
              <LatitudeDegrees>43.3239937014877796173095703125</LatitudeDegrees>
              <LongitudeDegrees>-3.9733748137950897216796875</LongitudeDegrees>
            </Position>
            <AltitudeMeters>74.59999847412109375</AltitudeMeters>
            <DistanceMeters>16331.838116156</DistanceMeters>
          </Trackpoint>
          <Trackpoint>
            <Time>2021-01-13T15:08:50.000Z</Time>
            <Position>
              <LatitudeDegrees>43.32399328239262104034423828125</LatitudeDegrees>
              <LongitudeDegrees>-3.973308093845844268798828125</LongitudeDegrees>
            </Position>
            <AltitudeMeters>74.8000030517578125</AltitudeMeters>
            <DistanceMeters>16337.242120895</DistanceMeters>
          </Trackpoint>
          <Trackpoint>
            <Time>2021-01-13T15:08:51.000Z</Time>
            <Position>
              <LatitudeDegrees>43.32399286329746246337890625</LatitudeDegrees>
              <LongitudeDegrees>-3.97324137389659881591796875</LongitudeDegrees>
            </Position>
            <AltitudeMeters>74.8000030517578125</AltitudeMeters>
            <DistanceMeters>16342.644454379</DistanceMeters>
          </Trackpoint>
          <Trackpoint>
            <Time>2021-01-13T15:08:53.000Z</Time>
            <Position>
              <LatitudeDegrees>43.32399378530681133270263671875</LatitudeDegrees>
              <LongitudeDegrees>-3.97310567088425159454345703125</LongitudeDegrees>
            </Position>
            <AltitudeMeters>74.8000030517578125</AltitudeMeters>
            <DistanceMeters>16353.632682267</DistanceMeters>
          </Trackpoint>
          <Trackpoint>
            <Time>2021-01-13T15:08:55.000Z</Time>
            <Position>
              <LatitudeDegrees>43.3239935338497161865234375</LatitudeDegrees>
              <LongitudeDegrees>-3.97296686656773090362548828125</LongitudeDegrees>
            </Position>
            <AltitudeMeters>74.8000030517578125</AltitudeMeters>
            <DistanceMeters>16364.871574975</DistanceMeters>
          </Trackpoint>
          <Trackpoint>
            <Time>2021-01-13T15:08:57.000Z</Time>
            <Position>
              <LatitudeDegrees>43.32398925907909870147705078125</LatitudeDegrees>
              <LongitudeDegrees>-3.9728276431560516357421875</LongitudeDegrees>
            </Position>
            <AltitudeMeters>74.8000030517578125</AltitudeMeters>
            <DistanceMeters>16376.154571816</DistanceMeters>
          </Trackpoint>
          <Trackpoint>
            <Time>2021-01-13T15:08:58.000Z</Time>
            <Position>
              <LatitudeDegrees>43.3239880017936229705810546875</LatitudeDegrees>
              <LongitudeDegrees>-3.97275748662650585174560546875</LongitudeDegrees>
            </Position>
            <AltitudeMeters>74.8000030517578125</AltitudeMeters>
            <DistanceMeters>16381.837137554</DistanceMeters>
          </Trackpoint>
          <Trackpoint>
            <Time>2021-01-13T15:08:59.000Z</Time>
            <Position>
              <LatitudeDegrees>43.323987834155559539794921875</LatitudeDegrees>
              <LongitudeDegrees>-3.97268741391599178314208984375</LongitudeDegrees>
            </Position>
            <AltitudeMeters>74.8000030517578125</AltitudeMeters>
            <DistanceMeters>16387.510956596</DistanceMeters>
          </Trackpoint>
          <Trackpoint>
            <Time>2021-01-13T15:09:01.000Z</Time>
            <Position>
              <LatitudeDegrees>43.32398691214621067047119140625</LatitudeDegrees>
              <LongitudeDegrees>-3.9725451730191707611083984375</LongitudeDegrees>
            </Position>
            <AltitudeMeters>74.8000030517578125</AltitudeMeters>
            <DistanceMeters>16399.028413909</DistanceMeters>
          </Trackpoint>
          <Trackpoint>
            <Time>2021-01-13T15:09:03.000Z</Time>
            <Position>
              <LatitudeDegrees>43.32398456521332263946533203125</LatitudeDegrees>
              <LongitudeDegrees>-3.97239890880882740020751953125</LongitudeDegrees>
            </Position>
            <AltitudeMeters>74.8000030517578125</AltitudeMeters>
            <DistanceMeters>16410.874400062</DistanceMeters>
          </Trackpoint>
          <Trackpoint>
            <Time>2021-01-13T15:09:05.000Z</Time>
            <Position>
              <LatitudeDegrees>43.32398079335689544677734375</LatitudeDegrees>
              <LongitudeDegrees>-3.972246944904327392578125</LongitudeDegrees>
            </Position>
            <AltitudeMeters>74.8000030517578125</AltitudeMeters>
            <DistanceMeters>16423.186136868</DistanceMeters>
          </Trackpoint>
          <Trackpoint>
            <Time>2021-01-13T15:09:07.000Z</Time>
            <Position>
              <LatitudeDegrees>43.3239774405956268310546875</LatitudeDegrees>
              <LongitudeDegrees>-3.97209028713405132293701171875</LongitudeDegrees>
            </Position>
            <AltitudeMeters>74.8000030517578125</AltitudeMeters>
            <DistanceMeters>16435.876028642</DistanceMeters>
          </Trackpoint>
          <Trackpoint>
            <Time>2021-01-13T15:09:09.000Z</Time>
            <Position>
              <LatitudeDegrees>43.32397400401532649993896484375</LatitudeDegrees>
              <LongitudeDegrees>-3.9719317853450775146484375</LongitudeDegrees>
            </Position>
            <AltitudeMeters>74.59999847412109375</AltitudeMeters>
            <DistanceMeters>16448.715540921</DistanceMeters>
          </Trackpoint>
          <Trackpoint>
            <Time>2021-01-13T15:09:11.000Z</Time>
            <Position>
              <LatitudeDegrees>43.32396998070180416107177734375</LatitudeDegrees>
              <LongitudeDegrees>-3.9717737026512622833251953125</LongitudeDegrees>
            </Position>
            <AltitudeMeters>74.59999847412109375</AltitudeMeters>
            <DistanceMeters>16461.523717948</DistanceMeters>
          </Trackpoint>
          <Trackpoint>
            <Time>2021-01-13T15:09:13.000Z</Time>
            <Position>
              <LatitudeDegrees>43.32396629266440868377685546875</LatitudeDegrees>
              <LongitudeDegrees>-3.97161553613841533660888671875</LongitudeDegrees>
            </Position>
            <AltitudeMeters>74.59999847412109375</AltitudeMeters>
            <DistanceMeters>16474.337181566</DistanceMeters>
          </Trackpoint>
          <Trackpoint>
            <Time>2021-01-13T15:09:15.000Z</Time>
            <Position>
              <LatitudeDegrees>43.32396193407475948333740234375</LatitudeDegrees>
              <LongitudeDegrees>-3.97145904600620269775390625</LongitudeDegrees>
            </Position>
            <AltitudeMeters>74.40000152587890625</AltitudeMeters>
            <DistanceMeters>16487.017463155</DistanceMeters>
          </Trackpoint>
          <Trackpoint>
            <Time>2021-01-13T15:09:17.000Z</Time>
            <Position>
              <LatitudeDegrees>43.323955647647380828857421875</LatitudeDegrees>
              <LongitudeDegrees>-3.971305824816226959228515625</LongitudeDegrees>
            </Position>
            <AltitudeMeters>74.40000152587890625</AltitudeMeters>
            <DistanceMeters>16499.443091792</DistanceMeters>
          </Trackpoint>
          <Trackpoint>
            <Time>2021-01-13T15:09:19.000Z</Time>
            <Position>
              <LatitudeDegrees>43.32394885830581188201904296875</LatitudeDegrees>
              <LongitudeDegrees>-3.971150256693363189697265625</LongitudeDegrees>
            </Position>
            <AltitudeMeters>74.40000152587890625</AltitudeMeters>
            <DistanceMeters>16512.061981126</DistanceMeters>
          </Trackpoint>
          <Trackpoint>
            <Time>2021-01-13T15:09:21.000Z</Time>
            <Position>
              <LatitudeDegrees>43.323944248259067535400390625</LatitudeDegrees>
              <LongitudeDegrees>-3.9709945209324359893798828125</LongitudeDegrees>
            </Position>
            <AltitudeMeters>74.59999847412109375</AltitudeMeters>
            <DistanceMeters>16524.682301578</DistanceMeters>
          </Trackpoint>
          <Trackpoint>
            <Time>2021-01-13T15:09:23.000Z</Time>
            <Position>
              <LatitudeDegrees>43.32393812946975231170654296875</LatitudeDegrees>
              <LongitudeDegrees>-3.9708366058766841888427734375</LongitudeDegrees>
            </Position>
            <AltitudeMeters>74.59999847412109375</AltitudeMeters>
            <DistanceMeters>16537.487305603</DistanceMeters>
          </Trackpoint>
          <Trackpoint>
            <Time>2021-01-13T15:09:25.000Z</Time>
            <Position>
              <LatitudeDegrees>43.3239283226430416107177734375</LatitudeDegrees>
              <LongitudeDegrees>-3.9706780202686786651611328125</LongitudeDegrees>
            </Position>
            <AltitudeMeters>74.59999847412109375</AltitudeMeters>
            <DistanceMeters>16550.374553795</DistanceMeters>
          </Trackpoint>
          <Trackpoint>
            <Time>2021-01-13T15:09:27.000Z</Time>
            <Position>
              <LatitudeDegrees>43.32391398958861827850341796875</LatitudeDegrees>
              <LongitudeDegrees>-3.97051549516618251800537109375</LongitudeDegrees>
            </Position>
            <AltitudeMeters>74.59999847412109375</AltitudeMeters>
            <DistanceMeters>16563.6306953</DistanceMeters>
          </Trackpoint>
          <Trackpoint>
            <Time>2021-01-13T15:09:29.000Z</Time>
            <Position>
              <LatitudeDegrees>43.3238954655826091766357421875</LatitudeDegrees>
              <LongitudeDegrees>-3.9703511260449886322021484375</LongitudeDegrees>
            </Position>
            <AltitudeMeters>74.59999847412109375</AltitudeMeters>
            <DistanceMeters>16577.098699811</DistanceMeters>
          </Trackpoint>
          <Trackpoint>
            <Time>2021-01-13T15:09:31.000Z</Time>
            <Position>
              <LatitudeDegrees>43.3238733373582363128662109375</LatitudeDegrees>
              <LongitudeDegrees>-3.97018306888639926910400390625</LongitudeDegrees>
            </Position>
            <AltitudeMeters>75</AltitudeMeters>
            <DistanceMeters>16590.927617301</DistanceMeters>
          </Trackpoint>
          <Trackpoint>
            <Time>2021-01-13T15:09:33.000Z</Time>
            <Position>
              <LatitudeDegrees>43.32384995184838771820068359375</LatitudeDegrees>
              <LongitudeDegrees>-3.9700088091194629669189453125</LongitudeDegrees>
            </Position>
            <AltitudeMeters>75.1999969482421875</AltitudeMeters>
            <DistanceMeters>16605.275707166</DistanceMeters>
          </Trackpoint>
          <Trackpoint>
            <Time>2021-01-13T15:09:35.000Z</Time>
            <Position>
              <LatitudeDegrees>43.32382430322468280792236328125</LatitudeDegrees>
              <LongitudeDegrees>-3.96982901729643344879150390625</LongitudeDegrees>
            </Position>
            <AltitudeMeters>75.40000152587890625</AltitudeMeters>
            <DistanceMeters>16620.110835176</DistanceMeters>
          </Trackpoint>
          <Trackpoint>
            <Time>2021-01-13T15:09:37.000Z</Time>
            <Position>
              <LatitudeDegrees>43.32379630766808986663818359375</LatitudeDegrees>
              <LongitudeDegrees>-3.96964721381664276123046875</LongitudeDegrees>
            </Position>
            <AltitudeMeters>75.40000152587890625</AltitudeMeters>
            <DistanceMeters>16635.157798547</DistanceMeters>
          </Trackpoint>
          <Trackpoint>
            <Time>2021-01-13T15:09:39.000Z</Time>
            <Position>
              <LatitudeDegrees>43.3237670548260211944580078125</LatitudeDegrees>
              <LongitudeDegrees>-3.9694636501371860504150390625</LongitudeDegrees>
            </Position>
            <AltitudeMeters>75.59999847412109375</AltitudeMeters>
            <DistanceMeters>16650.373353084</DistanceMeters>
          </Trackpoint>
          <Trackpoint>
            <Time>2021-01-13T15:09:41.000Z</Time>
            <Position>
              <LatitudeDegrees>43.32373612560331821441650390625</LatitudeDegrees>
              <LongitudeDegrees>-3.9692792482674121856689453125</LongitudeDegrees>
            </Position>
            <AltitudeMeters>75.59999847412109375</AltitudeMeters>
            <DistanceMeters>16665.695950369</DistanceMeters>
          </Trackpoint>
          <Trackpoint>
            <Time>2021-01-13T15:09:43.000Z</Time>
            <Position>
              <LatitudeDegrees>43.3237023465335369110107421875</LatitudeDegrees>
              <LongitudeDegrees>-3.96909727714955806732177734375</LongitudeDegrees>
            </Position>
            <AltitudeMeters>75.59999847412109375</AltitudeMeters>
            <DistanceMeters>16680.90260015</DistanceMeters>
          </Trackpoint>
          <Trackpoint>
            <Time>2021-01-13T15:09:45.000Z</Time>
            <Position>
              <LatitudeDegrees>43.32366487942636013031005859375</LatitudeDegrees>
              <LongitudeDegrees>-3.9689221791923046112060546875</LongitudeDegrees>
            </Position>
            <AltitudeMeters>75.59999847412109375</AltitudeMeters>
            <DistanceMeters>16695.681011055</DistanceMeters>
          </Trackpoint>
          <Trackpoint>
            <Time>2021-01-13T15:09:47.000Z</Time>
            <Position>
              <LatitudeDegrees>43.32361643202602863311767578125</LatitudeDegrees>
              <LongitudeDegrees>-3.96875806152820587158203125</LongitudeDegrees>
            </Position>
            <AltitudeMeters>75.59999847412109375</AltitudeMeters>
            <DistanceMeters>16710.022176317</DistanceMeters>
          </Trackpoint>
          <Trackpoint>
            <Time>2021-01-13T15:09:49.000Z</Time>
            <Position>
              <LatitudeDegrees>43.3235605247318744659423828125</LatitudeDegrees>
              <LongitudeDegrees>-3.96859939210116863250732421875</LongitudeDegrees>
            </Position>
            <AltitudeMeters>75.59999847412109375</AltitudeMeters>
            <DistanceMeters>16724.297074042</DistanceMeters>
          </Trackpoint>
          <Trackpoint>
            <Time>2021-01-13T15:09:51.000Z</Time>
            <Position>
              <LatitudeDegrees>43.32350746728479862213134765625</LatitudeDegrees>
              <LongitudeDegrees>-3.9684407226741313934326171875</LongitudeDegrees>
            </Position>
            <AltitudeMeters>75.40000152587890625</AltitudeMeters>
            <DistanceMeters>16738.436589326</DistanceMeters>
          </Trackpoint>
          <Trackpoint>
            <Time>2021-01-13T15:09:53.000Z</Time>
            <Position>
              <LatitudeDegrees>43.323453404009342193603515625</LatitudeDegrees>
              <LongitudeDegrees>-3.96827995777130126953125</LongitudeDegrees>
            </Position>
            <AltitudeMeters>75</AltitudeMeters>
            <DistanceMeters>16752.777124913</DistanceMeters>
          </Trackpoint>
          <Trackpoint>
            <Time>2021-01-13T15:09:55.000Z</Time>
            <Position>
              <LatitudeDegrees>43.3233954012393951416015625</LatitudeDegrees>
              <LongitudeDegrees>-3.9681067876517772674560546875</LongitudeDegrees>
            </Position>
            <AltitudeMeters>74.8000030517578125</AltitudeMeters>
            <DistanceMeters>16768.213921449</DistanceMeters>
          </Trackpoint>
          <Trackpoint>
            <Time>2021-01-13T15:09:56.000Z</Time>
            <Position>
              <LatitudeDegrees>43.32336363382637500762939453125</LatitudeDegrees>
              <LongitudeDegrees>-3.96801483817398548126220703125</LongitudeDegrees>
            </Position>
            <AltitudeMeters>74.8000030517578125</AltitudeMeters>
            <DistanceMeters>16776.456633088</DistanceMeters>
          </Trackpoint>
          <Trackpoint>
            <Time>2021-01-13T15:09:57.000Z</Time>
            <Position>
              <LatitudeDegrees>43.3233275078237056732177734375</LatitudeDegrees>
              <LongitudeDegrees>-3.967920877039432525634765625</LongitudeDegrees>
            </Position>
            <AltitudeMeters>74.8000030517578125</AltitudeMeters>
            <DistanceMeters>16785.062717389</DistanceMeters>
          </Trackpoint>
          <Trackpoint>
            <Time>2021-01-13T15:09:59.000Z</Time>
            <Position>
              <LatitudeDegrees>43.3232416771352291107177734375</LatitudeDegrees>
              <LongitudeDegrees>-3.9677306078374385833740234375</LongitudeDegrees>
            </Position>
            <AltitudeMeters>74.40000152587890625</AltitudeMeters>
            <DistanceMeters>16803.190666582</DistanceMeters>
          </Trackpoint>
          <Trackpoint>
            <Time>2021-01-13T15:10:01.000Z</Time>
            <Position>
              <LatitudeDegrees>43.3231374062597751617431640625</LatitudeDegrees>
              <LongitudeDegrees>-3.967541344463825225830078125</LongitudeDegrees>
            </Position>
            <AltitudeMeters>74</AltitudeMeters>
            <DistanceMeters>16822.414267919</DistanceMeters>
          </Trackpoint>
          <Trackpoint>
            <Time>2021-01-13T15:10:03.000Z</Time>
            <Position>
              <LatitudeDegrees>43.32302316091954708099365234375</LatitudeDegrees>
              <LongitudeDegrees>-3.96734881214797496795654296875</LongitudeDegrees>
            </Position>
            <AltitudeMeters>73.40000152587890625</AltitudeMeters>
            <DistanceMeters>16842.532345767</DistanceMeters>
          </Trackpoint>
          <Trackpoint>
            <Time>2021-01-13T15:10:04.000Z</Time>
            <Position>
              <LatitudeDegrees>43.32296557724475860595703125</LatitudeDegrees>
              <LongitudeDegrees>-3.96725208498537540435791015625</LongitudeDegrees>
            </Position>
            <AltitudeMeters>73</AltitudeMeters>
            <DistanceMeters>16852.652579313</DistanceMeters>
          </Trackpoint>
          <Trackpoint>
            <Time>2021-01-13T15:10:05.000Z</Time>
            <Position>
              <LatitudeDegrees>43.3229074068367481231689453125</LatitudeDegrees>
              <LongitudeDegrees>-3.96715535782277584075927734375</LongitudeDegrees>
            </Position>
            <AltitudeMeters>72.8000030517578125</AltitudeMeters>
            <DistanceMeters>16862.814663461</DistanceMeters>
          </Trackpoint>
          <Trackpoint>
            <Time>2021-01-13T15:10:07.000Z</Time>
            <Position>
              <LatitudeDegrees>43.3227880485355854034423828125</LatitudeDegrees>
              <LongitudeDegrees>-3.96695603616535663604736328125</LongitudeDegrees>
            </Position>
            <AltitudeMeters>72.59999847412109375</AltitudeMeters>
            <DistanceMeters>16883.718380812</DistanceMeters>
          </Trackpoint>
          <Trackpoint>
            <Time>2021-01-13T15:10:09.000Z</Time>
            <Position>
              <LatitudeDegrees>43.3226576261222362518310546875</LatitudeDegrees>
              <LongitudeDegrees>-3.96673207171261310577392578125</LongitudeDegrees>
            </Position>
            <AltitudeMeters>72.40000152587890625</AltitudeMeters>
            <DistanceMeters>16906.947505159</DistanceMeters>
          </Trackpoint>
          <Trackpoint>
            <Time>2021-01-13T15:10:10.000Z</Time>
            <Position>
              <LatitudeDegrees>43.322587050497531890869140625</LatitudeDegrees>
              <LongitudeDegrees>-3.96661288104951381683349609375</LongitudeDegrees>
            </Position>
            <AltitudeMeters>72.1999969482421875</AltitudeMeters>
            <DistanceMeters>16919.391288782</DistanceMeters>
          </Trackpoint>
          <Trackpoint>
            <Time>2021-01-13T15:10:11.000Z</Time>
            <Position>
              <LatitudeDegrees>43.32251605577766895294189453125</LatitudeDegrees>
              <LongitudeDegrees>-3.96649050526320934295654296875</LongitudeDegrees>
            </Position>
            <AltitudeMeters>71.8000030517578125</AltitudeMeters>
            <DistanceMeters>16932.065515775</DistanceMeters>
          </Trackpoint>
          <Trackpoint>
            <Time>2021-01-13T15:10:13.000Z</Time>
            <Position>
              <LatitudeDegrees>43.3223713003098964691162109375</LatitudeDegrees>
              <LongitudeDegrees>-3.96625212393701076507568359375</LongitudeDegrees>
            </Position>
            <AltitudeMeters>71.1999969482421875</AltitudeMeters>
            <DistanceMeters>16957.208298666</DistanceMeters>
          </Trackpoint>
          <Trackpoint>
            <Time>2021-01-13T15:10:15.000Z</Time>
            <Position>
              <LatitudeDegrees>43.322220258414745330810546875</LatitudeDegrees>
              <LongitudeDegrees>-3.9660263992846012115478515625</LongitudeDegrees>
            </Position>
            <AltitudeMeters>70.1999969482421875</AltitudeMeters>
            <DistanceMeters>16982.041381047</DistanceMeters>
          </Trackpoint>
          <Trackpoint>
            <Time>2021-01-13T15:10:16.000Z</Time>
            <Position>
              <LatitudeDegrees>43.32214071415364742279052734375</LatitudeDegrees>
              <LongitudeDegrees>-3.96591953001916408538818359375</LongitudeDegrees>
            </Position>
            <AltitudeMeters>69.8000030517578125</AltitudeMeters>
            <DistanceMeters>16994.421141037</DistanceMeters>
          </Trackpoint>
          <Trackpoint>
            <Time>2021-01-13T15:10:17.000Z</Time>
            <Position>
              <LatitudeDegrees>43.322064019739627838134765625</LatitudeDegrees>
              <LongitudeDegrees>-3.9658109843730926513671875</LongitudeDegrees>
            </Position>
            <AltitudeMeters>69.59999847412109375</AltitudeMeters>
            <DistanceMeters>17006.67332414</DistanceMeters>
          </Trackpoint>
          <Trackpoint>
            <Time>2021-01-13T15:10:18.000Z</Time>
            <Position>
              <LatitudeDegrees>43.3219974674284458160400390625</LatitudeDegrees>
              <LongitudeDegrees>-3.96569506265223026275634765625</LongitudeDegrees>
            </Position>
            <AltitudeMeters>69.59999847412109375</AltitudeMeters>
            <DistanceMeters>17018.630841877</DistanceMeters>
          </Trackpoint>
          <Trackpoint>
            <Time>2021-01-13T15:10:19.000Z</Time>
            <Position>
              <LatitudeDegrees>43.321944661438465118408203125</LatitudeDegrees>
              <LongitudeDegrees>-3.96556933410465717315673828125</LongitudeDegrees>
            </Position>
            <AltitudeMeters>69.40000152587890625</AltitudeMeters>
            <DistanceMeters>17030.386533685</DistanceMeters>
          </Trackpoint>
          <Trackpoint>
            <Time>2021-01-13T15:10:21.000Z</Time>
            <Position>
              <LatitudeDegrees>43.3218925260007381439208984375</LatitudeDegrees>
              <LongitudeDegrees>-3.9652958326041698455810546875</LongitudeDegrees>
            </Position>
            <AltitudeMeters>69</AltitudeMeters>
            <DistanceMeters>17053.280676104</DistanceMeters>
          </Trackpoint>
          <Trackpoint>
            <Time>2021-01-13T15:10:22.000Z</Time>
            <Position>
              <LatitudeDegrees>43.3218834735453128814697265625</LatitudeDegrees>
              <LongitudeDegrees>-3.965158201754093170166015625</LongitudeDegrees>
            </Position>
            <AltitudeMeters>68.40000152587890625</AltitudeMeters>
            <DistanceMeters>17064.470853496</DistanceMeters>
          </Trackpoint>
          <Trackpoint>
            <Time>2021-01-13T15:10:23.000Z</Time>
            <Position>
              <LatitudeDegrees>43.321874924004077911376953125</LatitudeDegrees>
              <LongitudeDegrees>-3.965022079646587371826171875</LongitudeDegrees>
            </Position>
            <AltitudeMeters>67.59999847412109375</AltitudeMeters>
            <DistanceMeters>17075.534020137</DistanceMeters>
          </Trackpoint>
          <Trackpoint>
            <Time>2021-01-13T15:10:24.000Z</Time>
            <Position>
              <LatitudeDegrees>43.3218633569777011871337890625</LatitudeDegrees>
              <LongitudeDegrees>-3.96488822065293788909912109375</LongitudeDegrees>
            </Position>
            <AltitudeMeters>67</AltitudeMeters>
            <DistanceMeters>17086.450104084</DistanceMeters>
          </Trackpoint>
          <Trackpoint>
            <Time>2021-01-13T15:10:25.000Z</Time>
            <Position>
              <LatitudeDegrees>43.32184885628521442413330078125</LatitudeDegrees>
              <LongitudeDegrees>-3.9647570438683032989501953125</LongitudeDegrees>
            </Position>
            <AltitudeMeters>66.40000152587890625</AltitudeMeters>
            <DistanceMeters>17097.194007806</DistanceMeters>
          </Trackpoint>
          <Trackpoint>
            <Time>2021-01-13T15:10:26.000Z</Time>
            <Position>
              <LatitudeDegrees>43.32183326594531536102294921875</LatitudeDegrees>
              <LongitudeDegrees>-3.96462804637849330902099609375</LongitudeDegrees>
            </Position>
            <AltitudeMeters>65.8000030517578125</AltitudeMeters>
            <DistanceMeters>17107.782559602</DistanceMeters>
          </Trackpoint>
          <Trackpoint>
            <Time>2021-01-13T15:10:27.000Z</Time>
            <Position>
              <LatitudeDegrees>43.3218204416334629058837890625</LatitudeDegrees>
              <LongitudeDegrees>-3.96450013853609561920166015625</LongitudeDegrees>
            </Position>
            <AltitudeMeters>65</AltitudeMeters>
            <DistanceMeters>17118.237657657</DistanceMeters>
          </Trackpoint>
          <Trackpoint>
            <Time>2021-01-13T15:10:28.000Z</Time>
            <Position>
              <LatitudeDegrees>43.3218061923980712890625</LatitudeDegrees>
              <LongitudeDegrees>-3.9643738232553005218505859375</LongitudeDegrees>
            </Position>
            <AltitudeMeters>63.59999847412109375</AltitudeMeters>
            <DistanceMeters>17128.588156531</DistanceMeters>
          </Trackpoint>
          <Trackpoint>
            <Time>2021-01-13T15:10:29.000Z</Time>
            <Position>
              <LatitudeDegrees>43.3217922784388065338134765625</LatitudeDegrees>
              <LongitudeDegrees>-3.96424935199320316314697265625</LongitudeDegrees>
            </Position>
            <AltitudeMeters>63</AltitudeMeters>
            <DistanceMeters>17138.785280157</DistanceMeters>
          </Trackpoint>
          <Trackpoint>
            <Time>2021-01-13T15:10:30.000Z</Time>
            <Position>
              <LatitudeDegrees>43.3217798732221126556396484375</LatitudeDegrees>
              <LongitudeDegrees>-3.9641257189214229583740234375</LongitudeDegrees>
            </Position>
            <AltitudeMeters>62.40000152587890625</AltitudeMeters>
            <DistanceMeters>17148.890333568</DistanceMeters>
          </Trackpoint>
          <Trackpoint>
            <Time>2021-01-13T15:10:31.000Z</Time>
            <Position>
              <LatitudeDegrees>43.32176822237670421600341796875</LatitudeDegrees>
              <LongitudeDegrees>-3.96400409750640392303466796875</LongitudeDegrees>
            </Position>
            <AltitudeMeters>62.200000762939453125</AltitudeMeters>
            <DistanceMeters>17158.823239247</DistanceMeters>
          </Trackpoint>
          <Trackpoint>
            <Time>2021-01-13T15:10:33.000Z</Time>
            <Position>
              <LatitudeDegrees>43.321742825210094451904296875</LatitudeDegrees>
              <LongitudeDegrees>-3.9637671411037445068359375</LongitudeDegrees>
            </Position>
            <AltitudeMeters>61.40000152587890625</AltitudeMeters>
            <DistanceMeters>17178.217537486</DistanceMeters>
          </Trackpoint>
          <Trackpoint>
            <Time>2021-01-13T15:10:35.000Z</Time>
            <Position>
              <LatitudeDegrees>43.32171809859573841094970703125</LatitudeDegrees>
              <LongitudeDegrees>-3.96353990770876407623291015625</LongitudeDegrees>
            </Position>
            <AltitudeMeters>60.59999847412109375</AltitudeMeters>
            <DistanceMeters>17196.821914124</DistanceMeters>
          </Trackpoint>
          <Trackpoint>
            <Time>2021-01-13T15:10:36.000Z</Time>
            <Position>
              <LatitudeDegrees>43.32170636393129825592041015625</LatitudeDegrees>
              <LongitudeDegrees>-3.963430188596248626708984375</LongitudeDegrees>
            </Position>
            <AltitudeMeters>60.200000762939453125</AltitudeMeters>
            <DistanceMeters>17205.801812935</DistanceMeters>
          </Trackpoint>
          <Trackpoint>
            <Time>2021-01-13T15:10:37.000Z</Time>
            <Position>
              <LatitudeDegrees>43.32169546745717525482177734375</LatitudeDegrees>
              <LongitudeDegrees>-3.96332348696887493133544921875</LongitudeDegrees>
            </Position>
            <AltitudeMeters>60</AltitudeMeters>
            <DistanceMeters>17214.526693703</DistanceMeters>
          </Trackpoint>
          <Trackpoint>
            <Time>2021-01-13T15:10:39.000Z</Time>
            <Position>
              <LatitudeDegrees>43.32167551852762699127197265625</LatitudeDegrees>
              <LongitudeDegrees>-3.96311528049409389495849609375</LongitudeDegrees>
            </Position>
            <AltitudeMeters>59.200000762939453125</AltitudeMeters>
            <DistanceMeters>17231.53143151</DistanceMeters>
          </Trackpoint>
          <Trackpoint>
            <Time>2021-01-13T15:10:41.000Z</Time>
            <Position>
              <LatitudeDegrees>43.32165221683681011199951171875</LatitudeDegrees>
              <LongitudeDegrees>-3.9629170484840869903564453125</LongitudeDegrees>
            </Position>
            <AltitudeMeters>58.40000152587890625</AltitudeMeters>
            <DistanceMeters>17247.791277085</DistanceMeters>
          </Trackpoint>
          <Trackpoint>
            <Time>2021-01-13T15:10:42.000Z</Time>
            <Position>
              <LatitudeDegrees>43.32164098508656024932861328125</LatitudeDegrees>
              <LongitudeDegrees>-3.9628214947879314422607421875</LongitudeDegrees>
            </Position>
            <AltitudeMeters>58</AltitudeMeters>
            <DistanceMeters>17255.628532981</DistanceMeters>
          </Trackpoint>
          <Trackpoint>
            <Time>2021-01-13T15:10:43.000Z</Time>
            <Position>
              <LatitudeDegrees>43.32162941806018352508544921875</LatitudeDegrees>
              <LongitudeDegrees>-3.96272719837725162506103515625</LongitudeDegrees>
            </Position>
            <AltitudeMeters>57.799999237060546875</AltitudeMeters>
            <DistanceMeters>17263.371898372</DistanceMeters>
          </Trackpoint>
          <Trackpoint>
            <Time>2021-01-13T15:10:44.000Z</Time>
            <Position>
              <LatitudeDegrees>43.32160712219774723052978515625</LatitudeDegrees>
              <LongitudeDegrees>-3.96263918839395046234130859375</LongitudeDegrees>
            </Position>
            <AltitudeMeters>57.59999847412109375</AltitudeMeters>
            <DistanceMeters>17270.918000814</DistanceMeters>
          </Trackpoint>
          <Trackpoint>
            <Time>2021-01-13T15:10:45.000Z</Time>
            <Position>
              <LatitudeDegrees>43.3215703256428241729736328125</LatitudeDegrees>
              <LongitudeDegrees>-3.96256358362734317779541015625</LongitudeDegrees>
            </Position>
            <AltitudeMeters>57.200000762939453125</AltitudeMeters>
            <DistanceMeters>17278.283643982</DistanceMeters>
          </Trackpoint>
          <Trackpoint>
            <Time>2021-01-13T15:10:46.000Z</Time>
            <Position>
              <LatitudeDegrees>43.32153118215501308441162109375</LatitudeDegrees>
              <LongitudeDegrees>-3.96249803714454174041748046875</LongitudeDegrees>
            </Position>
            <AltitudeMeters>57</AltitudeMeters>
            <DistanceMeters>17285.150598124</DistanceMeters>
          </Trackpoint>
          <Trackpoint>
            <Time>2021-01-13T15:10:47.000Z</Time>
            <Position>
              <LatitudeDegrees>43.321502096951007843017578125</LatitudeDegrees>
              <LongitudeDegrees>-3.96243014372885227203369140625</LongitudeDegrees>
            </Position>
            <AltitudeMeters>57</AltitudeMeters>
            <DistanceMeters>17291.530847696</DistanceMeters>
          </Trackpoint>
          <Trackpoint>
            <Time>2021-01-13T15:10:49.000Z</Time>
            <Position>
              <LatitudeDegrees>43.32149614579975605010986328125</LatitudeDegrees>
              <LongitudeDegrees>-3.96227784454822540283203125</LongitudeDegrees>
            </Position>
            <AltitudeMeters>56.59999847412109375</AltitudeMeters>
            <DistanceMeters>17303.88066515</DistanceMeters>
          </Trackpoint>
          <Trackpoint>
            <Time>2021-01-13T15:10:51.000Z</Time>
            <Position>
              <LatitudeDegrees>43.32151559181511402130126953125</LatitudeDegrees>
              <LongitudeDegrees>-3.96213292144238948822021484375</LongitudeDegrees>
            </Position>
            <AltitudeMeters>56.40000152587890625</AltitudeMeters>
            <DistanceMeters>17315.813992662</DistanceMeters>
          </Trackpoint>
          <Trackpoint>
            <Time>2021-01-13T15:10:53.000Z</Time>
            <Position>
              <LatitudeDegrees>43.32148910500109195709228515625</LatitudeDegrees>
              <LongitudeDegrees>-3.9619893394410610198974609375</LongitudeDegrees>
            </Position>
            <AltitudeMeters>56.200000762939453125</AltitudeMeters>
            <DistanceMeters>17327.808457132</DistanceMeters>
          </Trackpoint>
          <Trackpoint>
            <Time>2021-01-13T15:10:55.000Z</Time>
            <Position>
              <LatitudeDegrees>43.32143495790660381317138671875</LatitudeDegrees>
              <LongitudeDegrees>-3.9618428237736225128173828125</LongitudeDegrees>
            </Position>
            <AltitudeMeters>56</AltitudeMeters>
            <DistanceMeters>17341.115251223</DistanceMeters>
          </Trackpoint>
          <Trackpoint>
            <Time>2021-01-13T15:10:57.000Z</Time>
            <Position>
              <LatitudeDegrees>43.32135013304650783538818359375</LatitudeDegrees>
              <LongitudeDegrees>-3.9617036841809749603271484375</LongitudeDegrees>
            </Position>
            <AltitudeMeters>56</AltitudeMeters>
            <DistanceMeters>17355.814627712</DistanceMeters>
          </Trackpoint>
          <Trackpoint>
            <Time>2021-01-13T15:10:59.000Z</Time>
            <Position>
              <LatitudeDegrees>43.3212531544268131256103515625</LatitudeDegrees>
              <LongitudeDegrees>-3.961564712226390838623046875</LongitudeDegrees>
            </Position>
            <AltitudeMeters>55.799999237060546875</AltitudeMeters>
            <DistanceMeters>17371.407408357</DistanceMeters>
          </Trackpoint>
          <Trackpoint>
            <Time>2021-01-13T15:11:01.000Z</Time>
            <Position>
              <LatitudeDegrees>43.32115114666521549224853515625</LatitudeDegrees>
              <LongitudeDegrees>-3.96142146550118923187255859375</LongitudeDegrees>
            </Position>
            <AltitudeMeters>55.59999847412109375</AltitudeMeters>
            <DistanceMeters>17387.638349493</DistanceMeters>
          </Trackpoint>
          <Trackpoint>
            <Time>2021-01-13T15:11:03.000Z</Time>
            <Position>
              <LatitudeDegrees>43.3210496418178081512451171875</LatitudeDegrees>
              <LongitudeDegrees>-3.96126673556864261627197265625</LongitudeDegrees>
            </Position>
            <AltitudeMeters>55.200000762939453125</AltitudeMeters>
            <DistanceMeters>17404.50900388</DistanceMeters>
          </Trackpoint>
          <Trackpoint>
            <Time>2021-01-13T15:11:04.000Z</Time>
            <Position>
              <LatitudeDegrees>43.32099658437073230743408203125</LatitudeDegrees>
              <LongitudeDegrees>-3.96118761040270328521728515625</LongitudeDegrees>
            </Position>
            <AltitudeMeters>55</AltitudeMeters>
            <DistanceMeters>17413.222492432</DistanceMeters>
          </Trackpoint>
          <Trackpoint>
            <Time>2021-01-13T15:11:05.000Z</Time>
            <Position>
              <LatitudeDegrees>43.3209423534572124481201171875</LatitudeDegrees>
              <LongitudeDegrees>-3.96110848523676395416259765625</LongitudeDegrees>
            </Position>
            <AltitudeMeters>54.799999237060546875</AltitudeMeters>
            <DistanceMeters>17422.024654433</DistanceMeters>
          </Trackpoint>
          <Trackpoint>
            <Time>2021-01-13T15:11:07.000Z</Time>
            <Position>
              <LatitudeDegrees>43.320830203592777252197265625</LatitudeDegrees>
              <LongitudeDegrees>-3.96094805561006069183349609375</LongitudeDegrees>
            </Position>
            <AltitudeMeters>54.40000152587890625</AltitudeMeters>
            <DistanceMeters>17440.04067696</DistanceMeters>
          </Trackpoint>
          <Trackpoint>
            <Time>2021-01-13T15:11:09.000Z</Time>
            <Position>
              <LatitudeDegrees>43.32072081975638866424560546875</LatitudeDegrees>
              <LongitudeDegrees>-3.960786871612071990966796875</LongitudeDegrees>
            </Position>
            <AltitudeMeters>53.799999237060546875</AltitudeMeters>
            <DistanceMeters>17457.889264211</DistanceMeters>
          </Trackpoint>
          <Trackpoint>
            <Time>2021-01-13T15:11:11.000Z</Time>
            <Position>
              <LatitudeDegrees>43.32060649059712886810302734375</LatitudeDegrees>
              <LongitudeDegrees>-3.960632644593715667724609375</LongitudeDegrees>
            </Position>
            <AltitudeMeters>52.799999237060546875</AltitudeMeters>
            <DistanceMeters>17475.718869118</DistanceMeters>
          </Trackpoint>
          <Trackpoint>
            <Time>2021-01-13T15:11:12.000Z</Time>
            <Position>
              <LatitudeDegrees>43.320547901093959808349609375</LatitudeDegrees>
              <LongitudeDegrees>-3.96056123077869415283203125</LongitudeDegrees>
            </Position>
            <AltitudeMeters>52.59999847412109375</AltitudeMeters>
            <DistanceMeters>17484.43443009</DistanceMeters>
          </Trackpoint>
          <Trackpoint>
            <Time>2021-01-13T15:11:13.000Z</Time>
            <Position>
              <LatitudeDegrees>43.3204907365143299102783203125</LatitudeDegrees>
              <LongitudeDegrees>-3.96049124188721179962158203125</LongitudeDegrees>
            </Position>
            <AltitudeMeters>52.40000152587890625</AltitudeMeters>
            <DistanceMeters>17492.955099935</DistanceMeters>
          </Trackpoint>
          <Trackpoint>
            <Time>2021-01-13T15:11:15.000Z</Time>
            <Position>
              <LatitudeDegrees>43.32037615589797496795654296875</LatitudeDegrees>
              <LongitudeDegrees>-3.96035511977970600128173828125</LongitudeDegrees>
            </Position>
            <AltitudeMeters>51.799999237060546875</AltitudeMeters>
            <DistanceMeters>17509.811564136</DistanceMeters>
          </Trackpoint>
          <Trackpoint>
            <Time>2021-01-13T15:11:17.000Z</Time>
            <Position>
              <LatitudeDegrees>43.32026618532836437225341796875</LatitudeDegrees>
              <LongitudeDegrees>-3.96022704429924488067626953125</LongitudeDegrees>
            </Position>
            <AltitudeMeters>51.40000152587890625</AltitudeMeters>
            <DistanceMeters>17525.854482786</DistanceMeters>
          </Trackpoint>
          <Trackpoint>
            <Time>2021-01-13T15:11:19.000Z</Time>
            <Position>
              <LatitudeDegrees>43.32016375847160816192626953125</LatitudeDegrees>
              <LongitudeDegrees>-3.960096538066864013671875</LongitudeDegrees>
            </Position>
            <AltitudeMeters>50.59999847412109375</AltitudeMeters>
            <DistanceMeters>17541.399703136</DistanceMeters>
          </Trackpoint>
          <Trackpoint>
            <Time>2021-01-13T15:11:20.000Z</Time>
            <Position>
              <LatitudeDegrees>43.32011782564222812652587890625</LatitudeDegrees>
              <LongitudeDegrees>-3.96002822555601596832275390625</LongitudeDegrees>
            </Position>
            <AltitudeMeters>50.40000152587890625</AltitudeMeters>
            <DistanceMeters>17548.931432036</DistanceMeters>
          </Trackpoint>
          <Trackpoint>
            <Time>2021-01-13T15:11:21.000Z</Time>
            <Position>
              <LatitudeDegrees>43.32007625140249729156494140625</LatitudeDegrees>
              <LongitudeDegrees>-3.95995731465518474578857421875</LongitudeDegrees>
            </Position>
            <AltitudeMeters>50.40000152587890625</AltitudeMeters>
            <DistanceMeters>17556.305039719</DistanceMeters>
          </Trackpoint>
          <Trackpoint>
            <Time>2021-01-13T15:11:22.000Z</Time>
            <Position>
              <LatitudeDegrees>43.32003870047628879547119140625</LatitudeDegrees>
              <LongitudeDegrees>-3.95988321863114833831787109375</LongitudeDegrees>
            </Position>
            <AltitudeMeters>50.200000762939453125</AltitudeMeters>
            <DistanceMeters>17563.616541107</DistanceMeters>
          </Trackpoint>
          <Trackpoint>
            <Time>2021-01-13T15:11:23.000Z</Time>
            <Position>
              <LatitudeDegrees>43.32000466994941234588623046875</LatitudeDegrees>
              <LongitudeDegrees>-3.9598053507506847381591796875</LongitudeDegrees>
            </Position>
            <AltitudeMeters>50</AltitudeMeters>
            <DistanceMeters>17570.972369956</DistanceMeters>
          </Trackpoint>
          <Trackpoint>
            <Time>2021-01-13T15:11:25.000Z</Time>
            <Position>
              <LatitudeDegrees>43.31995035521686077117919921875</LatitudeDegrees>
              <LongitudeDegrees>-3.9596414007246494293212890625</LongitudeDegrees>
            </Position>
            <AltitudeMeters>49.59999847412109375</AltitudeMeters>
            <DistanceMeters>17585.559512285</DistanceMeters>
          </Trackpoint>
          <Trackpoint>
            <Time>2021-01-13T15:11:27.000Z</Time>
            <Position>
              <LatitudeDegrees>43.31990760751068592071533203125</LatitudeDegrees>
              <LongitudeDegrees>-3.9594730921089649200439453125</LongitudeDegrees>
            </Position>
            <AltitudeMeters>49.200000762939453125</AltitudeMeters>
            <DistanceMeters>17599.995130529</DistanceMeters>
          </Trackpoint>
          <Trackpoint>
            <Time>2021-01-13T15:11:29.000Z</Time>
            <Position>
              <LatitudeDegrees>43.319871313869953155517578125</LatitudeDegrees>
              <LongitudeDegrees>-3.959305621683597564697265625</LongitudeDegrees>
            </Position>
            <AltitudeMeters>49</AltitudeMeters>
            <DistanceMeters>17614.145179469</DistanceMeters>
          </Trackpoint>
          <Trackpoint>
            <Time>2021-01-13T15:11:31.000Z</Time>
            <Position>
              <LatitudeDegrees>43.31983686424791812896728515625</LatitudeDegrees>
              <LongitudeDegrees>-3.9591441862285137176513671875</LongitudeDegrees>
            </Position>
            <AltitudeMeters>48.799999237060546875</AltitudeMeters>
            <DistanceMeters>17627.768179545</DistanceMeters>
          </Trackpoint>
          <Trackpoint>
            <Time>2021-01-13T15:12:59.000Z</Time>
            <Position>
              <LatitudeDegrees>43.3179520256817340850830078125</LatitudeDegrees>
              <LongitudeDegrees>-3.95530837588012218475341796875</LongitudeDegrees>
            </Position>
            <AltitudeMeters>46.799999237060546875</AltitudeMeters>
            <DistanceMeters>18002.589824874</DistanceMeters>
          </Trackpoint>
          <Trackpoint>
            <Time>2021-01-13T15:13:00.000Z</Time>
            <Position>
              <LatitudeDegrees>43.31792696379125118255615234375</LatitudeDegrees>
              <LongitudeDegrees>-3.95527820102870464324951171875</LongitudeDegrees>
            </Position>
            <AltitudeMeters>46.799999237060546875</AltitudeMeters>
            <DistanceMeters>18006.298302516</DistanceMeters>
          </Trackpoint>
          <Trackpoint>
            <Time>2021-01-13T15:13:04.000Z</Time>
            <Position>
              <LatitudeDegrees>43.3177971281111240386962890625</LatitudeDegrees>
              <LongitudeDegrees>-3.955134451389312744140625</LongitudeDegrees>
            </Position>
            <AltitudeMeters>47</AltitudeMeters>
            <DistanceMeters>18024.854564935</DistanceMeters>
          </Trackpoint>
          <Trackpoint>
            <Time>2021-01-13T15:13:09.000Z</Time>
            <Position>
              <LatitudeDegrees>43.31759822554886341094970703125</LatitudeDegrees>
              <LongitudeDegrees>-3.95490939728915691375732421875</LongitudeDegrees>
            </Position>
            <AltitudeMeters>47</AltitudeMeters>
            <DistanceMeters>18053.529338529</DistanceMeters>
          </Trackpoint>
          <Trackpoint>
            <Time>2021-01-13T15:13:11.000Z</Time>
            <Position>
              <LatitudeDegrees>43.31751407124102115631103515625</LatitudeDegrees>
              <LongitudeDegrees>-3.95481417886912822723388671875</LongitudeDegrees>
            </Position>
            <AltitudeMeters>47.200000762939453125</AltitudeMeters>
            <DistanceMeters>18065.661165101</DistanceMeters>
          </Trackpoint>
          <Trackpoint>
            <Time>2021-01-13T15:13:14.000Z</Time>
            <Position>
              <LatitudeDegrees>43.317393958568572998046875</LatitudeDegrees>
              <LongitudeDegrees>-3.9546729438006877899169921875</LongitudeDegrees>
            </Position>
            <AltitudeMeters>47.59999847412109375</AltitudeMeters>
            <DistanceMeters>18083.254457296</DistanceMeters>
          </Trackpoint>
          <Trackpoint>
            <Time>2021-01-13T15:13:18.000Z</Time>
            <Position>
              <LatitudeDegrees>43.31724048592150211334228515625</LatitudeDegrees>
              <LongitudeDegrees>-3.95448267459869384765625</LongitudeDegrees>
            </Position>
            <AltitudeMeters>47.799999237060546875</AltitudeMeters>
            <DistanceMeters>18106.258381739</DistanceMeters>
          </Trackpoint>
          <Trackpoint>
            <Time>2021-01-13T15:13:19.000Z</Time>
            <Position>
              <LatitudeDegrees>43.31720259971916675567626953125</LatitudeDegrees>
              <LongitudeDegrees>-3.9544338919222354888916015625</LongitudeDegrees>
            </Position>
            <AltitudeMeters>47.799999237060546875</AltitudeMeters>
            <DistanceMeters>18112.03550581</DistanceMeters>
          </Trackpoint>
          <Trackpoint>
            <Time>2021-01-13T15:13:23.000Z</Time>
            <Position>
              <LatitudeDegrees>43.31705507822334766387939453125</LatitudeDegrees>
              <LongitudeDegrees>-3.954234905540943145751953125</LongitudeDegrees>
            </Position>
            <AltitudeMeters>48</AltitudeMeters>
            <DistanceMeters>18135.04100038</DistanceMeters>
          </Trackpoint>
          <Trackpoint>
            <Time>2021-01-13T15:13:29.000Z</Time>
            <Position>
              <LatitudeDegrees>43.3168372325599193572998046875</LatitudeDegrees>
              <LongitudeDegrees>-3.95393759943544864654541015625</LongitudeDegrees>
            </Position>
            <AltitudeMeters>48.200000762939453125</AltitudeMeters>
            <DistanceMeters>18169.210471606</DistanceMeters>
          </Trackpoint>
          <Trackpoint>
            <Time>2021-01-13T15:13:33.000Z</Time>
            <Position>
              <LatitudeDegrees>43.3166893757879734039306640625</LatitudeDegrees>
              <LongitudeDegrees>-3.95373961888253688812255859375</LongitudeDegrees>
            </Position>
            <AltitudeMeters>48.40000152587890625</AltitudeMeters>
            <DistanceMeters>18192.185918907</DistanceMeters>
          </Trackpoint>
          <Trackpoint>
            <Time>2021-01-13T15:13:40.000Z</Time>
            <Position>
              <LatitudeDegrees>43.316446803510189056396484375</LatitudeDegrees>
              <LongitudeDegrees>-3.95339277572929859161376953125</LongitudeDegrees>
            </Position>
            <AltitudeMeters>48.799999237060546875</AltitudeMeters>
            <DistanceMeters>18231.145481139</DistanceMeters>
          </Trackpoint>
          <Trackpoint>
            <Time>2021-01-13T15:13:42.000Z</Time>
            <Position>
              <LatitudeDegrees>43.31637748517096042633056640625</LatitudeDegrees>
              <LongitudeDegrees>-3.9532986469566822052001953125</LongitudeDegrees>
            </Position>
            <AltitudeMeters>48.799999237060546875</AltitudeMeters>
            <DistanceMeters>18241.991022885</DistanceMeters>
          </Trackpoint>
          <Trackpoint>
            <Time>2021-01-13T15:13:49.000Z</Time>
            <Position>
              <LatitudeDegrees>43.31614069640636444091796875</LatitudeDegrees>
              <LongitudeDegrees>-3.95296999253332614898681640625</LongitudeDegrees>
            </Position>
            <AltitudeMeters>49.200000762939453125</AltitudeMeters>
            <DistanceMeters>18279.446739892</DistanceMeters>
          </Trackpoint>
          <Trackpoint>
            <Time>2021-01-13T15:13:58.000Z</Time>
            <Position>
              <LatitudeDegrees>43.315886221826076507568359375</LatitudeDegrees>
              <LongitudeDegrees>-3.95248283632099628448486328125</LongitudeDegrees>
            </Position>
            <AltitudeMeters>49.799999237060546875</AltitudeMeters>
            <DistanceMeters>18328.011806209</DistanceMeters>
          </Trackpoint>
          <Trackpoint>
            <Time>2021-01-13T15:14:00.000Z</Time>
            <Position>
              <LatitudeDegrees>43.3158428035676479339599609375</LatitudeDegrees>
              <LongitudeDegrees>-3.95236297510564327239990234375</LongitudeDegrees>
            </Position>
            <AltitudeMeters>49.799999237060546875</AltitudeMeters>
            <DistanceMeters>18338.854849845</DistanceMeters>
          </Trackpoint>
          <Trackpoint>
            <Time>2021-01-13T15:14:05.000Z</Time>
            <Position>
              <LatitudeDegrees>43.3157291449606418609619140625</LatitudeDegrees>
              <LongitudeDegrees>-3.95206893794238567352294921875</LongitudeDegrees>
            </Position>
            <AltitudeMeters>50.200000762939453125</AltitudeMeters>
            <DistanceMeters>18365.818167234</DistanceMeters>
          </Trackpoint>
          <Trackpoint>
            <Time>2021-01-13T15:14:13.000Z</Time>
            <Position>
              <LatitudeDegrees>43.31553510390222072601318359375</LatitudeDegrees>
              <LongitudeDegrees>-3.951595611870288848876953125</LongitudeDegrees>
            </Position>
            <AltitudeMeters>51</AltitudeMeters>
            <DistanceMeters>18409.814612392</DistanceMeters>
          </Trackpoint>
          <Trackpoint>
            <Time>2021-01-13T15:14:16.000Z</Time>
            <Position>
              <LatitudeDegrees>43.3154592476785182952880859375</LatitudeDegrees>
              <LongitudeDegrees>-3.9514345116913318634033203125</LongitudeDegrees>
            </Position>
            <AltitudeMeters>51</AltitudeMeters>
            <DistanceMeters>18425.354894385</DistanceMeters>
          </Trackpoint>
          <Trackpoint>
            <Time>2021-01-13T15:14:20.000Z</Time>
            <Position>
              <LatitudeDegrees>43.31535070203244686126708984375</LatitudeDegrees>
              <LongitudeDegrees>-3.95122152753174304962158203125</LongitudeDegrees>
            </Position>
            <AltitudeMeters>51.200000762939453125</AltitudeMeters>
            <DistanceMeters>18446.413123038</DistanceMeters>
          </Trackpoint>
          <Trackpoint>
            <Time>2021-01-13T15:14:24.000Z</Time>
            <Position>
              <LatitudeDegrees>43.31523771397769451141357421875</LatitudeDegrees>
              <LongitudeDegrees>-3.9510063640773296356201171875</LongitudeDegrees>
            </Position>
            <AltitudeMeters>51.40000152587890625</AltitudeMeters>
            <DistanceMeters>18467.901770949</DistanceMeters>
          </Trackpoint>
          <Trackpoint>
            <Time>2021-01-13T15:14:25.000Z</Time>
            <Position>
              <LatitudeDegrees>43.31520670093595981597900390625</LatitudeDegrees>
              <LongitudeDegrees>-3.9509520493447780609130859375</LongitudeDegrees>
            </Position>
            <AltitudeMeters>51.40000152587890625</AltitudeMeters>
            <DistanceMeters>18473.493025249</DistanceMeters>
          </Trackpoint>
          <Trackpoint>
            <Time>2021-01-13T15:14:31.000Z</Time>
            <Position>
              <LatitudeDegrees>43.31501643173396587371826171875</LatitudeDegrees>
              <LongitudeDegrees>-3.95061383955180644989013671875</LongitudeDegrees>
            </Position>
            <AltitudeMeters>51.40000152587890625</AltitudeMeters>
            <DistanceMeters>18508.114323419</DistanceMeters>
          </Trackpoint>
          <Trackpoint>
            <Time>2021-01-13T15:14:35.000Z</Time>
            <Position>
              <LatitudeDegrees>43.3148654736578464508056640625</LatitudeDegrees>
              <LongitudeDegrees>-3.95040831528604030609130859375</LongitudeDegrees>
            </Position>
            <AltitudeMeters>51.40000152587890625</AltitudeMeters>
            <DistanceMeters>18531.764332615</DistanceMeters>
          </Trackpoint>
          <Trackpoint>
            <Time>2021-01-13T15:14:36.000Z</Time>
            <Position>
              <LatitudeDegrees>43.31482180394232273101806640625</LatitudeDegrees>
              <LongitudeDegrees>-3.950369171798229217529296875</LongitudeDegrees>
            </Position>
            <AltitudeMeters>51.40000152587890625</AltitudeMeters>
            <DistanceMeters>18537.567190106</DistanceMeters>
          </Trackpoint>
          <Trackpoint>
            <Time>2021-01-13T15:14:38.000Z</Time>
            <Position>
              <LatitudeDegrees>43.31472675316035747528076171875</LatitudeDegrees>
              <LongitudeDegrees>-3.95031225867569446563720703125</LongitudeDegrees>
            </Position>
            <AltitudeMeters>51.40000152587890625</AltitudeMeters>
            <DistanceMeters>18549.106579485</DistanceMeters>
          </Trackpoint>
          <Trackpoint>
            <Time>2021-01-13T15:14:40.000Z</Time>
            <Position>
              <LatitudeDegrees>43.31463153474032878875732421875</LatitudeDegrees>
              <LongitudeDegrees>-3.95026733167469501495361328125</LongitudeDegrees>
            </Position>
            <AltitudeMeters>51.200000762939453125</AltitudeMeters>
            <DistanceMeters>18560.311675775</DistanceMeters>
          </Trackpoint>
          <Trackpoint>
            <Time>2021-01-13T15:14:47.000Z</Time>
            <Position>
              <LatitudeDegrees>43.3143437840044498443603515625</LatitudeDegrees>
              <LongitudeDegrees>-3.95008158870041370391845703125</LongitudeDegrees>
            </Position>
            <AltitudeMeters>51.200000762939453125</AltitudeMeters>
            <DistanceMeters>18595.695444213</DistanceMeters>
          </Trackpoint>
          <Trackpoint>
            <Time>2021-01-13T15:14:55.000Z</Time>
            <Position>
              <LatitudeDegrees>43.31402351148426532745361328125</LatitudeDegrees>
              <LongitudeDegrees>-3.9498037286102771759033203125</LongitudeDegrees>
            </Position>
            <AltitudeMeters>51</AltitudeMeters>
            <DistanceMeters>18637.85047717</DistanceMeters>
          </Trackpoint>
          <Trackpoint>
            <Time>2021-01-13T15:15:03.000Z</Time>
            <Position>
              <LatitudeDegrees>43.31369142048060894012451171875</LatitudeDegrees>
              <LongitudeDegrees>-3.94949636422097682952880859375</LongitudeDegrees>
            </Position>
            <AltitudeMeters>51.200000762939453125</AltitudeMeters>
            <DistanceMeters>18682.412839212</DistanceMeters>
          </Trackpoint>
          <Trackpoint>
            <Time>2021-01-13T15:15:07.000Z</Time>
            <Position>
              <LatitudeDegrees>43.31351825036108493804931640625</LatitudeDegrees>
              <LongitudeDegrees>-3.9493514411151409149169921875</LongitudeDegrees>
            </Position>
            <AltitudeMeters>51</AltitudeMeters>
            <DistanceMeters>18704.979233053</DistanceMeters>
          </Trackpoint>
          <Trackpoint>
            <Time>2021-01-13T15:15:11.000Z</Time>
            <Position>
              <LatitudeDegrees>43.3133574016392230987548828125</LatitudeDegrees>
              <LongitudeDegrees>-3.949224539101123809814453125</LongitudeDegrees>
            </Position>
            <AltitudeMeters>51</AltitudeMeters>
            <DistanceMeters>18725.622132738</DistanceMeters>
          </Trackpoint>
          <Trackpoint>
            <Time>2021-01-13T15:15:19.000Z</Time>
            <Position>
              <LatitudeDegrees>43.31302128732204437255859375</LatitudeDegrees>
              <LongitudeDegrees>-3.94896629266440868377685546875</LongitudeDegrees>
            </Position>
            <AltitudeMeters>51</AltitudeMeters>
            <DistanceMeters>18768.481393235</DistanceMeters>
          </Trackpoint>
          <Trackpoint>
            <Time>2021-01-13T15:15:25.000Z</Time>
            <Position>
              <LatitudeDegrees>43.31274275667965412139892578125</LatitudeDegrees>
              <LongitudeDegrees>-3.94876009784638881683349609375</LongitudeDegrees>
            </Position>
            <AltitudeMeters>51</AltitudeMeters>
            <DistanceMeters>18803.693888127</DistanceMeters>
          </Trackpoint>
          <Trackpoint>
            <Time>2021-01-13T15:15:27.000Z</Time>
            <Position>
              <LatitudeDegrees>43.3126422576606273651123046875</LatitudeDegrees>
              <LongitudeDegrees>-3.9487160928547382354736328125</LongitudeDegrees>
            </Position>
            <AltitudeMeters>51</AltitudeMeters>
            <DistanceMeters>18815.434206983</DistanceMeters>
          </Trackpoint>
          <Trackpoint>
            <Time>2021-01-13T15:15:34.000Z</Time>
            <Position>
              <LatitudeDegrees>43.31232366152107715606689453125</LatitudeDegrees>
              <LongitudeDegrees>-3.94849807955324649810791015625</LongitudeDegrees>
            </Position>
            <AltitudeMeters>50.799999237060546875</AltitudeMeters>
            <DistanceMeters>18855.047127526</DistanceMeters>
          </Trackpoint>
          <Trackpoint>
            <Time>2021-01-13T15:15:40.000Z</Time>
            <Position>
              <LatitudeDegrees>43.31204831600189208984375</LatitudeDegrees>
              <LongitudeDegrees>-3.948286436498165130615234375</LongitudeDegrees>
            </Position>
            <AltitudeMeters>50.799999237060546875</AltitudeMeters>
            <DistanceMeters>18890.161137947</DistanceMeters>
          </Trackpoint>
          <Trackpoint>
            <Time>2021-01-13T15:15:42.000Z</Time>
            <Position>
              <LatitudeDegrees>43.31195536069571971893310546875</LatitudeDegrees>
              <LongitudeDegrees>-3.94821845926344394683837890625</LongitudeDegrees>
            </Position>
            <AltitudeMeters>51</AltitudeMeters>
            <DistanceMeters>18901.88067133</DistanceMeters>
          </Trackpoint>
          <Trackpoint>
            <Time>2021-01-13T15:15:47.000Z</Time>
            <Position>
              <LatitudeDegrees>43.31172552891075611114501953125</LatitudeDegrees>
              <LongitudeDegrees>-3.94806406460702419281005859375</LongitudeDegrees>
            </Position>
            <AltitudeMeters>51.40000152587890625</AltitudeMeters>
            <DistanceMeters>18930.353821193</DistanceMeters>
          </Trackpoint>
          <Trackpoint>
            <Time>2021-01-13T15:15:50.000Z</Time>
            <Position>
              <LatitudeDegrees>43.31160315312445163726806640625</LatitudeDegrees>
              <LongitudeDegrees>-3.9479607157409191131591796875</LongitudeDegrees>
            </Position>
            <AltitudeMeters>51.59999847412109375</AltitudeMeters>
            <DistanceMeters>18946.34035376</DistanceMeters>
          </Trackpoint>
          <Trackpoint>
            <Time>2021-01-13T15:15:51.000Z</Time>
            <Position>
              <LatitudeDegrees>43.31156861968338489532470703125</LatitudeDegrees>
              <LongitudeDegrees>-3.94791905768215656280517578125</LongitudeDegrees>
            </Position>
            <AltitudeMeters>51.59999847412109375</AltitudeMeters>
            <DistanceMeters>18951.455051352</DistanceMeters>
          </Trackpoint>
          <Trackpoint>
            <Time>2021-01-13T15:15:53.000Z</Time>
            <Position>
              <LatitudeDegrees>43.3114944398403167724609375</LatitudeDegrees>
              <LongitudeDegrees>-3.9478219114243984222412109375</LongitudeDegrees>
            </Position>
            <AltitudeMeters>51.799999237060546875</AltitudeMeters>
            <DistanceMeters>18962.859840745</DistanceMeters>
          </Trackpoint>
          <Trackpoint>
            <Time>2021-01-13T15:15:54.000Z</Time>
            <Position>
              <LatitudeDegrees>43.3114488422870635986328125</LatitudeDegrees>
              <LongitudeDegrees>-3.94777019508183002471923828125</LongitudeDegrees>
            </Position>
            <AltitudeMeters>52</AltitudeMeters>
            <DistanceMeters>18969.440740883</DistanceMeters>
          </Trackpoint>
          <Trackpoint>
            <Time>2021-01-13T15:15:56.000Z</Time>
            <Position>
              <LatitudeDegrees>43.3113407157361507415771484375</LatitudeDegrees>
              <LongitudeDegrees>-3.94766651093959808349609375</LongitudeDegrees>
            </Position>
            <AltitudeMeters>52</AltitudeMeters>
            <DistanceMeters>18984.115216443</DistanceMeters>
          </Trackpoint>
          <Trackpoint>
            <Time>2021-01-13T15:16:01.000Z</Time>
            <Position>
              <LatitudeDegrees>43.311080373823642730712890625</LatitudeDegrees>
              <LongitudeDegrees>-3.94743718206882476806640625</LongitudeDegrees>
            </Position>
            <AltitudeMeters>52</AltitudeMeters>
            <DistanceMeters>19018.532995106</DistanceMeters>
          </Trackpoint>
          <Trackpoint>
            <Time>2021-01-13T15:16:02.000Z</Time>
            <Position>
              <LatitudeDegrees>43.31102631054818630218505859375</LatitudeDegrees>
              <LongitudeDegrees>-3.94740139134228229522705078125</LongitudeDegrees>
            </Position>
            <AltitudeMeters>52</AltitudeMeters>
            <DistanceMeters>19025.211960418</DistanceMeters>
          </Trackpoint>
          <Trackpoint>
            <Time>2021-01-13T15:16:05.000Z</Time>
            <Position>
              <LatitudeDegrees>43.31087476573884487152099609375</LatitudeDegrees>
              <LongitudeDegrees>-3.94730030559003353118896484375</LongitudeDegrees>
            </Position>
            <AltitudeMeters>51.40000152587890625</AltitudeMeters>
            <DistanceMeters>19043.960902143</DistanceMeters>
          </Trackpoint>
          <Trackpoint>
            <Time>2021-01-13T15:16:08.000Z</Time>
            <Position>
              <LatitudeDegrees>43.31072791479527950286865234375</LatitudeDegrees>
              <LongitudeDegrees>-3.94721321761608123779296875</LongitudeDegrees>
            </Position>
            <AltitudeMeters>51.40000152587890625</AltitudeMeters>
            <DistanceMeters>19061.762629663</DistanceMeters>
          </Trackpoint>
          <Trackpoint>
            <Time>2021-01-13T15:16:12.000Z</Time>
            <Position>
              <LatitudeDegrees>43.310547955334186553955078125</LatitudeDegrees>
              <LongitudeDegrees>-3.9471111260354518890380859375</LongitudeDegrees>
            </Position>
            <AltitudeMeters>51.40000152587890625</AltitudeMeters>
            <DistanceMeters>19083.432054554</DistanceMeters>
          </Trackpoint>
          <Trackpoint>
            <Time>2021-01-13T15:16:15.000Z</Time>
            <Position>
              <LatitudeDegrees>43.3104247413575649261474609375</LatitudeDegrees>
              <LongitudeDegrees>-3.94702806137502193450927734375</LongitudeDegrees>
            </Position>
            <AltitudeMeters>51.40000152587890625</AltitudeMeters>
            <DistanceMeters>19098.707432628</DistanceMeters>
          </Trackpoint>
          <Trackpoint>
            <Time>2021-01-13T15:16:16.000Z</Time>
            <Position>
              <LatitudeDegrees>43.31038543023169040679931640625</LatitudeDegrees>
              <LongitudeDegrees>-3.947005681693553924560546875</LongitudeDegrees>
            </Position>
            <AltitudeMeters>51.59999847412109375</AltitudeMeters>
            <DistanceMeters>19103.444492894</DistanceMeters>
          </Trackpoint>
          <Trackpoint>
            <Time>2021-01-13T15:16:20.000Z</Time>
            <Position>
              <LatitudeDegrees>43.31022701226174831390380859375</LatitudeDegrees>
              <LongitudeDegrees>-3.9469213597476482391357421875</LongitudeDegrees>
            </Position>
            <AltitudeMeters>52.59999847412109375</AltitudeMeters>
            <DistanceMeters>19122.353137656</DistanceMeters>
          </Trackpoint>
          <Trackpoint>
            <Time>2021-01-13T15:16:22.000Z</Time>
            <Position>
              <LatitudeDegrees>43.3101766370236873626708984375</LatitudeDegrees>
              <LongitudeDegrees>-3.94682823680341243743896484375</LongitudeDegrees>
            </Position>
            <AltitudeMeters>53</AltitudeMeters>
            <DistanceMeters>19131.750698383</DistanceMeters>
          </Trackpoint>
          <Trackpoint>
            <Time>2021-01-13T15:16:25.000Z</Time>
            <Position>
              <LatitudeDegrees>43.310125172138214111328125</LatitudeDegrees>
              <LongitudeDegrees>-3.94663226790726184844970703125</LongitudeDegrees>
            </Position>
            <AltitudeMeters>54.200000762939453125</AltitudeMeters>
            <DistanceMeters>19148.623761239</DistanceMeters>
          </Trackpoint>
          <Trackpoint>
            <Time>2021-01-13T15:16:27.000Z</Time>
            <Position>
              <LatitudeDegrees>43.3100898005068302154541015625</LatitudeDegrees>
              <LongitudeDegrees>-3.94649446941912174224853515625</LongitudeDegrees>
            </Position>
            <AltitudeMeters>54.59999847412109375</AltitudeMeters>
            <DistanceMeters>19160.458307518</DistanceMeters>
          </Trackpoint>
          <Trackpoint>
            <Time>2021-01-13T15:16:36.000Z</Time>
            <Position>
              <LatitudeDegrees>43.3099711127579212188720703125</LatitudeDegrees>
              <LongitudeDegrees>-3.94583447836339473724365234375</LongitudeDegrees>
            </Position>
            <AltitudeMeters>55</AltitudeMeters>
            <DistanceMeters>19215.518724375</DistanceMeters>
          </Trackpoint>
          <Trackpoint>
            <Time>2021-01-13T15:16:45.000Z</Time>
            <Position>
              <LatitudeDegrees>43.30996449105441570281982421875</LatitudeDegrees>
              <LongitudeDegrees>-3.9451316557824611663818359375</LongitudeDegrees>
            </Position>
            <AltitudeMeters>54.59999847412109375</AltitudeMeters>
            <DistanceMeters>19272.444564666</DistanceMeters>
          </Trackpoint>
          <Trackpoint>
            <Time>2021-01-13T15:16:50.000Z</Time>
            <Position>
              <LatitudeDegrees>43.30999516882002353668212890625</LatitudeDegrees>
              <LongitudeDegrees>-3.9447437413036823272705078125</LongitudeDegrees>
            </Position>
            <AltitudeMeters>54.200000762939453125</AltitudeMeters>
            <DistanceMeters>19304.046341107</DistanceMeters>
          </Trackpoint>
          <Trackpoint>
            <Time>2021-01-13T15:16:53.000Z</Time>
            <Position>
              <LatitudeDegrees>43.3100284449756145477294921875</LatitudeDegrees>
              <LongitudeDegrees>-3.94451231695711612701416015625</LongitudeDegrees>
            </Position>
            <AltitudeMeters>54.200000762939453125</AltitudeMeters>
            <DistanceMeters>19323.151437808</DistanceMeters>
          </Trackpoint>
          <Trackpoint>
            <Time>2021-01-13T15:16:59.000Z</Time>
            <Position>
              <LatitudeDegrees>43.31010849215090274810791015625</LatitudeDegrees>
              <LongitudeDegrees>-3.9440502226352691650390625</LongitudeDegrees>
            </Position>
            <AltitudeMeters>53.59999847412109375</AltitudeMeters>
            <DistanceMeters>19361.62188554</DistanceMeters>
          </Trackpoint>
          <Trackpoint>
            <Time>2021-01-13T15:17:02.000Z</Time>
            <Position>
              <LatitudeDegrees>43.3101501502096652984619140625</LatitudeDegrees>
              <LongitudeDegrees>-3.9438195526599884033203125</LongitudeDegrees>
            </Position>
            <AltitudeMeters>53.40000152587890625</AltitudeMeters>
            <DistanceMeters>19380.870601512</DistanceMeters>
          </Trackpoint>
          <Trackpoint>
            <Time>2021-01-13T15:17:10.000Z</Time>
            <Position>
              <LatitudeDegrees>43.310264311730861663818359375</LatitudeDegrees>
              <LongitudeDegrees>-3.94319149665534496307373046875</LongitudeDegrees>
            </Position>
            <AltitudeMeters>53</AltitudeMeters>
            <DistanceMeters>19433.299260656</DistanceMeters>
          </Trackpoint>
          <Trackpoint>
            <Time>2021-01-13T15:17:13.000Z</Time>
            <Position>
              <LatitudeDegrees>43.31030664034187793731689453125</LatitudeDegrees>
              <LongitudeDegrees>-3.94295294769108295440673828125</LongitudeDegrees>
            </Position>
            <AltitudeMeters>52.799999237060546875</AltitudeMeters>
            <DistanceMeters>19453.185062315</DistanceMeters>
          </Trackpoint>
          <Trackpoint>
            <Time>2021-01-13T15:17:21.000Z</Time>
            <Position>
              <LatitudeDegrees>43.31042633391916751861572265625</LatitudeDegrees>
              <LongitudeDegrees>-3.94232179038226604461669921875</LongitudeDegrees>
            </Position>
            <AltitudeMeters>52.40000152587890625</AltitudeMeters>
            <DistanceMeters>19506.009232465</DistanceMeters>
          </Trackpoint>
          <Trackpoint>
            <Time>2021-01-13T15:17:27.000Z</Time>
            <Position>
              <LatitudeDegrees>43.31051610410213470458984375</LatitudeDegrees>
              <LongitudeDegrees>-3.94184770993888378143310546875</LongitudeDegrees>
            </Position>
            <AltitudeMeters>52</AltitudeMeters>
            <DistanceMeters>19545.683312479</DistanceMeters>
          </Trackpoint>
          <Trackpoint>
            <Time>2021-01-13T15:17:29.000Z</Time>
            <Position>
              <LatitudeDegrees>43.31053546629846096038818359375</LatitudeDegrees>
              <LongitudeDegrees>-3.9416871964931488037109375</LongitudeDegrees>
            </Position>
            <AltitudeMeters>52</AltitudeMeters>
            <DistanceMeters>19558.860540562</DistanceMeters>
          </Trackpoint>
          <Trackpoint>
            <Time>2021-01-13T15:17:36.000Z</Time>
            <Position>
              <LatitudeDegrees>43.310623057186603546142578125</LatitudeDegrees>
              <LongitudeDegrees>-3.94113742746412754058837890625</LongitudeDegrees>
            </Position>
            <AltitudeMeters>51.799999237060546875</AltitudeMeters>
            <DistanceMeters>19604.440290091</DistanceMeters>
          </Trackpoint>
          <Trackpoint>
            <Time>2021-01-13T15:17:42.000Z</Time>
            <Position>
              <LatitudeDegrees>43.31064711324870586395263671875</LatitudeDegrees>
              <LongitudeDegrees>-3.9406369440257549285888671875</LongitudeDegrees>
            </Position>
            <AltitudeMeters>51.59999847412109375</AltitudeMeters>
            <DistanceMeters>19645.061959789</DistanceMeters>
          </Trackpoint>
          <Trackpoint>
            <Time>2021-01-13T15:17:44.000Z</Time>
            <Position>
              <LatitudeDegrees>43.31063571386039257049560546875</LatitudeDegrees>
              <LongitudeDegrees>-3.940467126667499542236328125</LongitudeDegrees>
            </Position>
            <AltitudeMeters>51.59999847412109375</AltitudeMeters>
            <DistanceMeters>19658.873562335</DistanceMeters>
          </Trackpoint>
          <Trackpoint>
            <Time>2021-01-13T15:17:46.000Z</Time>
            <Position>
              <LatitudeDegrees>43.31067033112049102783203125</LatitudeDegrees>
              <LongitudeDegrees>-3.94030518829822540283203125</LongitudeDegrees>
            </Position>
            <AltitudeMeters>51.59999847412109375</AltitudeMeters>
            <DistanceMeters>19672.542883524</DistanceMeters>
          </Trackpoint>
          <Trackpoint>
            <Time>2021-01-13T15:17:49.000Z</Time>
            <Position>
              <LatitudeDegrees>43.31077535636723041534423828125</LatitudeDegrees>
              <LongitudeDegrees>-3.9401035197079181671142578125</LongitudeDegrees>
            </Position>
            <AltitudeMeters>51.40000152587890625</AltitudeMeters>
            <DistanceMeters>19692.627718723</DistanceMeters>
          </Trackpoint>
          <Trackpoint>
            <Time>2021-01-13T15:17:51.000Z</Time>
            <Position>
              <LatitudeDegrees>43.3108304254710674285888671875</LatitudeDegrees>
              <LongitudeDegrees>-3.93996882252395153045654296875</LongitudeDegrees>
            </Position>
            <AltitudeMeters>51.40000152587890625</AltitudeMeters>
            <DistanceMeters>19705.140251057</DistanceMeters>
          </Trackpoint>
          <Trackpoint>
            <Time>2021-01-13T15:17:53.000Z</Time>
            <Position>
              <LatitudeDegrees>43.31086940132081508636474609375</LatitudeDegrees>
              <LongitudeDegrees>-3.93983622081577777862548828125</LongitudeDegrees>
            </Position>
            <AltitudeMeters>51.40000152587890625</AltitudeMeters>
            <DistanceMeters>19716.722600371</DistanceMeters>
          </Trackpoint>
          <Trackpoint>
            <Time>2021-01-13T15:17:56.000Z</Time>
            <Position>
              <LatitudeDegrees>43.3108958043158054351806640625</LatitudeDegrees>
              <LongitudeDegrees>-3.93963505513966083526611328125</LongitudeDegrees>
            </Position>
            <AltitudeMeters>51.40000152587890625</AltitudeMeters>
            <DistanceMeters>19733.27744317</DistanceMeters>
          </Trackpoint>
          <Trackpoint>
            <Time>2021-01-13T15:17:59.000Z</Time>
            <Position>
              <LatitudeDegrees>43.310907371342182159423828125</LatitudeDegrees>
              <LongitudeDegrees>-3.93941469490528106689453125</LongitudeDegrees>
            </Position>
            <AltitudeMeters>51.59999847412109375</AltitudeMeters>
            <DistanceMeters>19751.170496579</DistanceMeters>
          </Trackpoint>
          <Trackpoint>
            <Time>2021-01-13T15:18:03.000Z</Time>
            <Position>
              <LatitudeDegrees>43.310932181775569915771484375</LatitudeDegrees>
              <LongitudeDegrees>-3.9390913210809230804443359375</LongitudeDegrees>
            </Position>
            <AltitudeMeters>52.200000762939453125</AltitudeMeters>
            <DistanceMeters>19777.505072158</DistanceMeters>
          </Trackpoint>
          <Trackpoint>
            <Time>2021-01-13T15:18:11.000Z</Time>
            <Position>
              <LatitudeDegrees>43.31098859198391437530517578125</LatitudeDegrees>
              <LongitudeDegrees>-3.93843434751033782958984375</LongitudeDegrees>
            </Position>
            <AltitudeMeters>52.40000152587890625</AltitudeMeters>
            <DistanceMeters>19831.081180913</DistanceMeters>
          </Trackpoint>
          <Trackpoint>
            <Time>2021-01-13T15:18:18.000Z</Time>
            <Position>
              <LatitudeDegrees>43.31103167496621608734130859375</LatitudeDegrees>
              <LongitudeDegrees>-3.93787468783557415008544921875</LongitudeDegrees>
            </Position>
            <AltitudeMeters>52.40000152587890625</AltitudeMeters>
            <DistanceMeters>19876.659741731</DistanceMeters>
          </Trackpoint>
          <Trackpoint>
            <Time>2021-01-13T15:18:24.000Z</Time>
            <Position>
              <LatitudeDegrees>43.31107576377689838409423828125</LatitudeDegrees>
              <LongitudeDegrees>-3.9373911358416080474853515625</LongitudeDegrees>
            </Position>
            <AltitudeMeters>53</AltitudeMeters>
            <DistanceMeters>19916.12787238</DistanceMeters>
          </Trackpoint>
          <Trackpoint>
            <Time>2021-01-13T15:18:27.000Z</Time>
            <Position>
              <LatitudeDegrees>43.31111826002597808837890625</LatitudeDegrees>
              <LongitudeDegrees>-3.9371591247618198394775390625</LongitudeDegrees>
            </Position>
            <AltitudeMeters>53</AltitudeMeters>
            <DistanceMeters>19935.504003528</DistanceMeters>
          </Trackpoint>
          <Trackpoint>
            <Time>2021-01-13T15:18:30.000Z</Time>
            <Position>
              <LatitudeDegrees>43.3111851476132869720458984375</LatitudeDegrees>
              <LongitudeDegrees>-3.93693624995648860931396484375</LongitudeDegrees>
            </Position>
            <AltitudeMeters>53.200000762939453125</AltitudeMeters>
            <DistanceMeters>19955.028929577</DistanceMeters>
          </Trackpoint>
          <Trackpoint>
            <Time>2021-01-13T15:18:38.000Z</Time>
            <Position>
              <LatitudeDegrees>43.3113142289221286773681640625</LatitudeDegrees>
              <LongitudeDegrees>-3.9363393746316432952880859375</LongitudeDegrees>
            </Position>
            <AltitudeMeters>53.799999237060546875</AltitudeMeters>
            <DistanceMeters>20005.458220061</DistanceMeters>
          </Trackpoint>
          <Trackpoint>
            <Time>2021-01-13T15:18:42.000Z</Time>
            <Position>
              <LatitudeDegrees>43.3113816194236278533935546875</LatitudeDegrees>
              <LongitudeDegrees>-3.93604139797389507293701171875</LongitudeDegrees>
            </Position>
            <AltitudeMeters>54.200000762939453125</AltitudeMeters>
            <DistanceMeters>20030.729252218</DistanceMeters>
          </Trackpoint>
          <Trackpoint>
            <Time>2021-01-13T15:18:46.000Z</Time>
            <Position>
              <LatitudeDegrees>43.3114624209702014923095703125</LatitudeDegrees>
              <LongitudeDegrees>-3.93574677407741546630859375</LongitudeDegrees>
            </Position>
            <AltitudeMeters>54.799999237060546875</AltitudeMeters>
            <DistanceMeters>20056.228657788</DistanceMeters>
          </Trackpoint>
          <Trackpoint>
            <Time>2021-01-13T15:18:51.000Z</Time>
            <Position>
              <LatitudeDegrees>43.31156551837921142578125</LatitudeDegrees>
              <LongitudeDegrees>-3.93538475967943668365478515625</LongitudeDegrees>
            </Position>
            <AltitudeMeters>55.200000762939453125</AltitudeMeters>
            <DistanceMeters>20087.712773646</DistanceMeters>
          </Trackpoint>
          <Trackpoint>
            <Time>2021-01-13T15:18:56.000Z</Time>
            <Position>
              <LatitudeDegrees>43.31166082061827182769775390625</LatitudeDegrees>
              <LongitudeDegrees>-3.9350123517215251922607421875</LongitudeDegrees>
            </Position>
            <AltitudeMeters>55.59999847412109375</AltitudeMeters>
            <DistanceMeters>20119.683861726</DistanceMeters>
          </Trackpoint>
          <Trackpoint>
            <Time>2021-01-13T15:19:05.000Z</Time>
            <Position>
              <LatitudeDegrees>43.31181923858821392059326171875</LatitudeDegrees>
              <LongitudeDegrees>-3.93432579003274440765380859375</LongitudeDegrees>
            </Position>
            <AltitudeMeters>56</AltitudeMeters>
            <DistanceMeters>20178.015095247</DistanceMeters>
          </Trackpoint>
          <Trackpoint>
            <Time>2021-01-13T15:19:09.000Z</Time>
            <Position>
              <LatitudeDegrees>43.31176861189305782318115234375</LatitudeDegrees>
              <LongitudeDegrees>-3.93403845839202404022216796875</LongitudeDegrees>
            </Position>
            <AltitudeMeters>56</AltitudeMeters>
            <DistanceMeters>20201.957678918</DistanceMeters>
          </Trackpoint>
          <Trackpoint>
            <Time>2021-01-13T15:19:12.000Z</Time>
            <Position>
              <LatitudeDegrees>43.31162251532077789306640625</LatitudeDegrees>
              <LongitudeDegrees>-3.93397274427115917205810546875</LongitudeDegrees>
            </Position>
            <AltitudeMeters>56</AltitudeMeters>
            <DistanceMeters>20219.066974288</DistanceMeters>
          </Trackpoint>
          <Trackpoint>
            <Time>2021-01-13T15:19:14.000Z</Time>
            <Position>
              <LatitudeDegrees>43.31152285449206829071044921875</LatitudeDegrees>
              <LongitudeDegrees>-3.93396838568150997161865234375</LongitudeDegrees>
            </Position>
            <AltitudeMeters>56</AltitudeMeters>
            <DistanceMeters>20230.165183274</DistanceMeters>
          </Trackpoint>
          <Trackpoint>
            <Time>2021-01-13T15:19:15.000Z</Time>
            <Position>
              <LatitudeDegrees>43.31147356890141963958740234375</LatitudeDegrees>
              <LongitudeDegrees>-3.9339642785489559173583984375</LongitudeDegrees>
            </Position>
            <AltitudeMeters>56</AltitudeMeters>
            <DistanceMeters>20235.660324367</DistanceMeters>
          </Trackpoint>
          <Trackpoint>
            <Time>2021-01-13T15:19:17.000Z</Time>
            <Position>
              <LatitudeDegrees>43.31137181259691715240478515625</LatitudeDegrees>
              <LongitudeDegrees>-3.9339324273169040679931640625</LongitudeDegrees>
            </Position>
            <AltitudeMeters>56.200000762939453125</AltitudeMeters>
            <DistanceMeters>20247.276149875</DistanceMeters>
          </Trackpoint>
          <Trackpoint>
            <Time>2021-01-13T15:19:18.000Z</Time>
            <Position>
              <LatitudeDegrees>43.31131816841661930084228515625</LatitudeDegrees>
              <LongitudeDegrees>-3.93389848060905933380126953125</LongitudeDegrees>
            </Position>
            <AltitudeMeters>56.40000152587890625</AltitudeMeters>
            <DistanceMeters>20253.850185611</DistanceMeters>
          </Trackpoint>
          <Trackpoint>
            <Time>2021-01-13T15:19:21.000Z</Time>
            <Position>
              <LatitudeDegrees>43.31119067966938018798828125</LatitudeDegrees>
              <LongitudeDegrees>-3.933705277740955352783203125</LongitudeDegrees>
            </Position>
            <AltitudeMeters>56.799999237060546875</AltitudeMeters>
            <DistanceMeters>20274.973066028</DistanceMeters>
          </Trackpoint>
          <Trackpoint>
            <Time>2021-01-13T15:19:24.000Z</Time>
            <Position>
              <LatitudeDegrees>43.31114047206938266754150390625</LatitudeDegrees>
              <LongitudeDegrees>-3.93346949480473995208740234375</LongitudeDegrees>
            </Position>
            <AltitudeMeters>57</AltitudeMeters>
            <DistanceMeters>20294.869309169</DistanceMeters>
          </Trackpoint>
          <Trackpoint>
            <Time>2021-01-13T15:19:26.000Z</Time>
            <Position>
              <LatitudeDegrees>43.311144746840000152587890625</LatitudeDegrees>
              <LongitudeDegrees>-3.9333091489970684051513671875</LongitudeDegrees>
            </Position>
            <AltitudeMeters>57</AltitudeMeters>
            <DistanceMeters>20307.864016919</DistanceMeters>
          </Trackpoint>
          <Trackpoint>
            <Time>2021-01-13T15:19:31.000Z</Time>
            <Position>
              <LatitudeDegrees>43.311149775981903076171875</LatitudeDegrees>
              <LongitudeDegrees>-3.9329165406525135040283203125</LongitudeDegrees>
            </Position>
            <AltitudeMeters>56.200000762939453125</AltitudeMeters>
            <DistanceMeters>20339.665470367</DistanceMeters>
          </Trackpoint>
          <Trackpoint>
            <Time>2021-01-13T15:19:40.000Z</Time>
            <Position>
              <LatitudeDegrees>43.31116243265569210052490234375</LatitudeDegrees>
              <LongitudeDegrees>-3.9322136342525482177734375</LongitudeDegrees>
            </Position>
            <AltitudeMeters>56.200000762939453125</AltitudeMeters>
            <DistanceMeters>20396.609708623</DistanceMeters>
          </Trackpoint>
          <Trackpoint>
            <Time>2021-01-13T15:19:42.000Z</Time>
            <Position>
              <LatitudeDegrees>43.3111670427024364471435546875</LatitudeDegrees>
              <LongitudeDegrees>-3.93205739557743072509765625</LongitudeDegrees>
            </Position>
            <AltitudeMeters>56.200000762939453125</AltitudeMeters>
            <DistanceMeters>20409.273600507</DistanceMeters>
          </Trackpoint>
          <Trackpoint>
            <Time>2021-01-13T15:19:52.000Z</Time>
            <Position>
              <LatitudeDegrees>43.31119311042129993438720703125</LatitudeDegrees>
              <LongitudeDegrees>-3.93129589967429637908935546875</LongitudeDegrees>
            </Position>
            <AltitudeMeters>56.59999847412109375</AltitudeMeters>
            <DistanceMeters>20471.013547211</DistanceMeters>
          </Trackpoint>
          <Trackpoint>
            <Time>2021-01-13T15:19:53.000Z</Time>
            <Position>
              <LatitudeDegrees>43.31119411624968051910400390625</LatitudeDegrees>
              <LongitudeDegrees>-3.93121928907930850982666015625</LongitudeDegrees>
            </Position>
            <AltitudeMeters>56.59999847412109375</AltitudeMeters>
            <DistanceMeters>20477.219453755</DistanceMeters>
          </Trackpoint>
          <Trackpoint>
            <Time>2021-01-13T15:20:03.000Z</Time>
            <Position>
              <LatitudeDegrees>43.311209790408611297607421875</LatitudeDegrees>
              <LongitudeDegrees>-3.93046860583126544952392578125</LongitudeDegrees>
            </Position>
            <AltitudeMeters>57</AltitudeMeters>
            <DistanceMeters>20538.040559759</DistanceMeters>
          </Trackpoint>
          <Trackpoint>
            <Time>2021-01-13T15:20:05.000Z</Time>
            <Position>
              <LatitudeDegrees>43.3112143166363239288330078125</LatitudeDegrees>
              <LongitudeDegrees>-3.93032091669738292694091796875</LongitudeDegrees>
            </Position>
            <AltitudeMeters>57</AltitudeMeters>
            <DistanceMeters>20550.012417314</DistanceMeters>
          </Trackpoint>
          <Trackpoint>
            <Time>2021-01-13T15:20:10.000Z</Time>
            <Position>
              <LatitudeDegrees>43.31122328527271747589111328125</LatitudeDegrees>
              <LongitudeDegrees>-3.9299573935568332672119140625</LongitudeDegrees>
            </Position>
            <AltitudeMeters>57.200000762939453125</AltitudeMeters>
            <DistanceMeters>20579.470085687</DistanceMeters>
          </Trackpoint>
          <Trackpoint>
            <Time>2021-01-13T15:20:14.000Z</Time>
            <Position>
              <LatitudeDegrees>43.31122764386236667633056640625</LatitudeDegrees>
              <LongitudeDegrees>-3.92967266030609607696533203125</LongitudeDegrees>
            </Position>
            <AltitudeMeters>57.40000152587890625</AltitudeMeters>
            <DistanceMeters>20602.534970112</DistanceMeters>
          </Trackpoint>
          <Trackpoint>
            <Time>2021-01-13T15:20:23.000Z</Time>
            <Position>
              <LatitudeDegrees>43.3112528733909130096435546875</LatitudeDegrees>
              <LongitudeDegrees>-3.929036557674407958984375</LongitudeDegrees>
            </Position>
            <AltitudeMeters>57.799999237060546875</AltitudeMeters>
            <DistanceMeters>20654.127825467</DistanceMeters>
          </Trackpoint>
          <Trackpoint>
            <Time>2021-01-13T15:20:27.000Z</Time>
            <Position>
              <LatitudeDegrees>43.3112584054470062255859375</LatitudeDegrees>
              <LongitudeDegrees>-3.92874595709145069122314453125</LongitudeDegrees>
            </Position>
            <AltitudeMeters>58</AltitudeMeters>
            <DistanceMeters>20677.670873744</DistanceMeters>
          </Trackpoint>
          <Trackpoint>
            <Time>2021-01-13T15:20:32.000Z</Time>
            <Position>
              <LatitudeDegrees>43.3112726546823978424072265625</LatitudeDegrees>
              <LongitudeDegrees>-3.92836810089647769927978515625</LongitudeDegrees>
            </Position>
            <AltitudeMeters>58.40000152587890625</AltitudeMeters>
            <DistanceMeters>20708.3137109</DistanceMeters>
          </Trackpoint>
          <Trackpoint>
            <Time>2021-01-13T15:20:40.000Z</Time>
            <Position>
              <LatitudeDegrees>43.3112857304513454437255859375</LatitudeDegrees>
              <LongitudeDegrees>-3.92775739543139934539794921875</LongitudeDegrees>
            </Position>
            <AltitudeMeters>59</AltitudeMeters>
            <DistanceMeters>20757.7947151</DistanceMeters>
          </Trackpoint>
          <Trackpoint>
            <Time>2021-01-13T15:20:43.000Z</Time>
            <Position>
              <LatitudeDegrees>43.31128656864166259765625</LatitudeDegrees>
              <LongitudeDegrees>-3.9275333471596240997314453125</LongitudeDegrees>
            </Position>
            <AltitudeMeters>59</AltitudeMeters>
            <DistanceMeters>20775.940090469</DistanceMeters>
          </Trackpoint>
          <Trackpoint>
            <Time>2021-01-13T15:20:46.000Z</Time>
            <Position>
              <LatitudeDegrees>43.311292938888072967529296875</LatitudeDegrees>
              <LongitudeDegrees>-3.9273231290280818939208984375</LongitudeDegrees>
            </Position>
            <AltitudeMeters>59.200000762939453125</AltitudeMeters>
            <DistanceMeters>20792.979840408</DistanceMeters>
          </Trackpoint>
          <Trackpoint>
            <Time>2021-01-13T15:20:53.000Z</Time>
            <Position>
              <LatitudeDegrees>43.3113212697207927703857421875</LatitudeDegrees>
              <LongitudeDegrees>-3.9267990924417972564697265625</LongitudeDegrees>
            </Position>
            <AltitudeMeters>59.59999847412109375</AltitudeMeters>
            <DistanceMeters>20835.537170119</DistanceMeters>
          </Trackpoint>
          <Trackpoint>
            <Time>2021-01-13T15:20:56.000Z</Time>
            <Position>
              <LatitudeDegrees>43.31132403574883937835693359375</LatitudeDegrees>
              <LongitudeDegrees>-3.92656884156167507171630859375</LongitudeDegrees>
            </Position>
            <AltitudeMeters>60.200000762939453125</AltitudeMeters>
            <DistanceMeters>20854.187116083</DistanceMeters>
          </Trackpoint>
          <Trackpoint>
            <Time>2021-01-13T15:21:01.000Z</Time>
            <Position>
              <LatitudeDegrees>43.31132353283464908599853515625</LatitudeDegrees>
              <LongitudeDegrees>-3.9261831901967525482177734375</LongitudeDegrees>
            </Position>
            <AltitudeMeters>60.200000762939453125</AltitudeMeters>
            <DistanceMeters>20885.420129035</DistanceMeters>
          </Trackpoint>
          <Trackpoint>
            <Time>2021-01-13T15:21:11.000Z</Time>
            <Position>
              <LatitudeDegrees>43.31133107654750347137451171875</LatitudeDegrees>
              <LongitudeDegrees>-3.9254180900752544403076171875</LongitudeDegrees>
            </Position>
            <AltitudeMeters>60.40000152587890625</AltitudeMeters>
            <DistanceMeters>20947.389351146</DistanceMeters>
          </Trackpoint>
          <Trackpoint>
            <Time>2021-01-13T15:21:13.000Z</Time>
            <Position>
              <LatitudeDegrees>43.3113370276987552642822265625</LatitudeDegrees>
              <LongitudeDegrees>-3.92528221942484378814697265625</LongitudeDegrees>
            </Position>
            <AltitudeMeters>60.40000152587890625</AltitudeMeters>
            <DistanceMeters>20958.413269179</DistanceMeters>
          </Trackpoint>
          <Trackpoint>
            <Time>2021-01-13T15:21:21.000Z</Time>
            <Position>
              <LatitudeDegrees>43.3113464154303073883056640625</LatitudeDegrees>
              <LongitudeDegrees>-3.92470789141952991485595703125</LongitudeDegrees>
            </Position>
            <AltitudeMeters>60.59999847412109375</AltitudeMeters>
            <DistanceMeters>21004.938333007</DistanceMeters>
          </Trackpoint>
          <Trackpoint>
            <Time>2021-01-13T15:21:31.000Z</Time>
            <Position>
              <LatitudeDegrees>43.3113675378262996673583984375</LatitudeDegrees>
              <LongitudeDegrees>-3.9239707030355930328369140625</LongitudeDegrees>
            </Position>
            <AltitudeMeters>61</AltitudeMeters>
            <DistanceMeters>21064.687621803</DistanceMeters>
          </Trackpoint>
          <Trackpoint>
            <Time>2021-01-13T15:21:37.000Z</Time>
            <Position>
              <LatitudeDegrees>43.31137499772012233734130859375</LatitudeDegrees>
              <LongitudeDegrees>-3.9235271327197551727294921875</LongitudeDegrees>
            </Position>
            <AltitudeMeters>61.200000762939453125</AltitudeMeters>
            <DistanceMeters>21100.620789915</DistanceMeters>
          </Trackpoint>
          <Trackpoint>
            <Time>2021-01-13T15:21:42.000Z</Time>
            <Position>
              <LatitudeDegrees>43.311388827860355377197265625</LatitudeDegrees>
              <LongitudeDegrees>-3.9231506176292896270751953125</LongitudeDegrees>
            </Position>
            <AltitudeMeters>61</AltitudeMeters>
            <DistanceMeters>21131.152475446</DistanceMeters>
          </Trackpoint>
          <Trackpoint>
            <Time>2021-01-13T15:21:52.000Z</Time>
            <Position>
              <LatitudeDegrees>43.3113967068493366241455078125</LatitudeDegrees>
              <LongitudeDegrees>-3.9224089868366718292236328125</LongitudeDegrees>
            </Position>
            <AltitudeMeters>61.200000762939453125</AltitudeMeters>
            <DistanceMeters>21191.221687078</DistanceMeters>
          </Trackpoint>
          <Trackpoint>
            <Time>2021-01-13T15:21:53.000Z</Time>
            <Position>
              <LatitudeDegrees>43.3113990537822246551513671875</LatitudeDegrees>
              <LongitudeDegrees>-3.92233631573617458343505859375</LongitudeDegrees>
            </Position>
            <AltitudeMeters>61.200000762939453125</AltitudeMeters>
            <DistanceMeters>21197.113343369</DistanceMeters>
          </Trackpoint>
          <Trackpoint>
            <Time>2021-01-13T15:22:04.000Z</Time>
            <Position>
              <LatitudeDegrees>43.311415649950504302978515625</LatitudeDegrees>
              <LongitudeDegrees>-3.921543471515178680419921875</LongitudeDegrees>
            </Position>
            <AltitudeMeters>61.40000152587890625</AltitudeMeters>
            <DistanceMeters>21261.350277697</DistanceMeters>
          </Trackpoint>
          <Trackpoint>
            <Time>2021-01-13T15:22:14.000Z</Time>
            <Position>
              <LatitudeDegrees>43.3114329166710376739501953125</LatitudeDegrees>
              <LongitudeDegrees>-3.92078868113458156585693359375</LongitudeDegrees>
            </Position>
            <AltitudeMeters>61.799999237060546875</AltitudeMeters>
            <DistanceMeters>21322.508957246</DistanceMeters>
          </Trackpoint>
          <Trackpoint>
            <Time>2021-01-13T15:22:15.000Z</Time>
            <Position>
              <LatitudeDegrees>43.31143677234649658203125</LatitudeDegrees>
              <LongitudeDegrees>-3.920713327825069427490234375</LongitudeDegrees>
            </Position>
            <AltitudeMeters>61.799999237060546875</AltitudeMeters>
            <DistanceMeters>21328.627674182</DistanceMeters>
          </Trackpoint>
          <Trackpoint>
            <Time>2021-01-13T15:22:22.000Z</Time>
            <Position>
              <LatitudeDegrees>43.31145278178155422210693359375</LatitudeDegrees>
              <LongitudeDegrees>-3.920185603201389312744140625</LongitudeDegrees>
            </Position>
            <AltitudeMeters>62</AltitudeMeters>
            <DistanceMeters>21371.403841731</DistanceMeters>
          </Trackpoint>
          <Trackpoint>
            <Time>2021-01-13T15:22:29.000Z</Time>
            <Position>
              <LatitudeDegrees>43.311457894742488861083984375</LatitudeDegrees>
              <LongitudeDegrees>-3.91965360380709171295166015625</LongitudeDegrees>
            </Position>
            <AltitudeMeters>62</AltitudeMeters>
            <DistanceMeters>21414.492772531</DistanceMeters>
          </Trackpoint>
          <Trackpoint>
            <Time>2021-01-13T15:22:34.000Z</Time>
            <Position>
              <LatitudeDegrees>43.31146988086402416229248046875</LatitudeDegrees>
              <LongitudeDegrees>-3.91926518641412258148193359375</LongitudeDegrees>
            </Position>
            <AltitudeMeters>62</AltitudeMeters>
            <DistanceMeters>21445.977892222</DistanceMeters>
          </Trackpoint>
          <Trackpoint>
            <Time>2021-01-13T15:22:37.000Z</Time>
            <Position>
              <LatitudeDegrees>43.311480693519115447998046875</LatitudeDegrees>
              <LongitudeDegrees>-3.9190304093062877655029296875</LongitudeDegrees>
            </Position>
            <AltitudeMeters>62</AltitudeMeters>
            <DistanceMeters>21465.029978271</DistanceMeters>
          </Trackpoint>
          <Trackpoint>
            <Time>2021-01-13T15:22:43.000Z</Time>
            <Position>
              <LatitudeDegrees>43.31149502657353878021240234375</LatitudeDegrees>
              <LongitudeDegrees>-3.91854710876941680908203125</LongitudeDegrees>
            </Position>
            <AltitudeMeters>62.200000762939453125</AltitudeMeters>
            <DistanceMeters>21504.203696769</DistanceMeters>
          </Trackpoint>
          <Trackpoint>
            <Time>2021-01-13T15:22:45.000Z</Time>
            <Position>
              <LatitudeDegrees>43.31149318255484104156494140625</LatitudeDegrees>
              <LongitudeDegrees>-3.91838575713336467742919921875</LongitudeDegrees>
            </Position>
            <AltitudeMeters>62.200000762939453125</AltitudeMeters>
            <DistanceMeters>21517.272893222</DistanceMeters>
          </Trackpoint>
          <Trackpoint>
            <Time>2021-01-13T15:22:46.000Z</Time>
            <Position>
              <LatitudeDegrees>43.31149016506969928741455078125</LatitudeDegrees>
              <LongitudeDegrees>-3.918307721614837646484375</LongitudeDegrees>
            </Position>
            <AltitudeMeters>62.200000762939453125</AltitudeMeters>
            <DistanceMeters>21523.601272875</DistanceMeters>
          </Trackpoint>
          <Trackpoint>
            <Time>2021-01-13T15:22:49.000Z</Time>
            <Position>
              <LatitudeDegrees>43.3114890754222869873046875</LatitudeDegrees>
              <LongitudeDegrees>-3.91807277686893939971923828125</LongitudeDegrees>
            </Position>
            <AltitudeMeters>62.200000762939453125</AltitudeMeters>
            <DistanceMeters>21542.629171209</DistanceMeters>
          </Trackpoint>
          <Trackpoint>
            <Time>2021-01-13T15:22:59.000Z</Time>
            <Position>
              <LatitudeDegrees>43.3115210942924022674560546875</LatitudeDegrees>
              <LongitudeDegrees>-3.91729652881622314453125</LongitudeDegrees>
            </Position>
            <AltitudeMeters>62.200000762939453125</AltitudeMeters>
            <DistanceMeters>21605.596327366</DistanceMeters>
          </Trackpoint>
          <Trackpoint>
            <Time>2021-01-13T15:23:05.000Z</Time>
            <Position>
              <LatitudeDegrees>43.311547078192234039306640625</LatitudeDegrees>
              <LongitudeDegrees>-3.91683426685631275177001953125</LongitudeDegrees>
            </Position>
            <AltitudeMeters>62.40000152587890625</AltitudeMeters>
            <DistanceMeters>21643.145229023</DistanceMeters>
          </Trackpoint>
          <Trackpoint>
            <Time>2021-01-13T15:23:12.000Z</Time>
            <Position>
              <LatitudeDegrees>43.31158571876585483551025390625</LatitudeDegrees>
              <LongitudeDegrees>-3.91630478203296661376953125</LongitudeDegrees>
            </Position>
            <AltitudeMeters>62.40000152587890625</AltitudeMeters>
            <DistanceMeters>21686.24180839</DistanceMeters>
          </Trackpoint>
          <Trackpoint>
            <Time>2021-01-13T15:23:22.000Z</Time>
            <Position>
              <LatitudeDegrees>43.311650343239307403564453125</LatitudeDegrees>
              <LongitudeDegrees>-3.91552367247641086578369140625</LongitudeDegrees>
            </Position>
            <AltitudeMeters>62.59999847412109375</AltitudeMeters>
            <DistanceMeters>21749.909281523</DistanceMeters>
          </Trackpoint>
          <Trackpoint>
            <Time>2021-01-13T15:23:23.000Z</Time>
            <Position>
              <LatitudeDegrees>43.3116567134857177734375</LatitudeDegrees>
              <LongitudeDegrees>-3.91544354148209095001220703125</LongitudeDegrees>
            </Position>
            <AltitudeMeters>62.59999847412109375</AltitudeMeters>
            <DistanceMeters>21756.437831195</DistanceMeters>
          </Trackpoint>
          <Trackpoint>
            <Time>2021-01-13T15:23:33.000Z</Time>
            <Position>
              <LatitudeDegrees>43.31173374317586421966552734375</LatitudeDegrees>
              <LongitudeDegrees>-3.91464910469949245452880859375</LongitudeDegrees>
            </Position>
            <AltitudeMeters>63</AltitudeMeters>
            <DistanceMeters>21821.345598722</DistanceMeters>
          </Trackpoint>
          <Trackpoint>
            <Time>2021-01-13T15:23:34.000Z</Time>
            <Position>
              <LatitudeDegrees>43.31174321472644805908203125</LatitudeDegrees>
              <LongitudeDegrees>-3.9145675487816333770751953125</LongitudeDegrees>
            </Position>
            <AltitudeMeters>62.799999237060546875</AltitudeMeters>
            <DistanceMeters>21828.034021458</DistanceMeters>
          </Trackpoint>
          <Trackpoint>
            <Time>2021-01-13T15:23:42.000Z</Time>
            <Position>
              <LatitudeDegrees>43.31187975592911243438720703125</LatitudeDegrees>
              <LongitudeDegrees>-3.91392172314226627349853515625</LongitudeDegrees>
            </Position>
            <AltitudeMeters>63</AltitudeMeters>
            <DistanceMeters>21882.500495859</DistanceMeters>
          </Trackpoint>
          <Trackpoint>
            <Time>2021-01-13T15:23:48.000Z</Time>
            <Position>
              <LatitudeDegrees>43.3120897226035594940185546875</LatitudeDegrees>
              <LongitudeDegrees>-3.9134956710040569305419921875</LongitudeDegrees>
            </Position>
            <AltitudeMeters>63</AltitudeMeters>
            <DistanceMeters>21924.174341999</DistanceMeters>
          </Trackpoint>
          <Trackpoint>
            <Time>2021-01-13T15:23:55.000Z</Time>
            <Position>
              <LatitudeDegrees>43.312407396733760833740234375</LatitudeDegrees>
              <LongitudeDegrees>-3.91309493221342563629150390625</LongitudeDegrees>
            </Position>
            <AltitudeMeters>63.40000152587890625</AltitudeMeters>
            <DistanceMeters>21972.16857165</DistanceMeters>
          </Trackpoint>
          <Trackpoint>
            <Time>2021-01-13T15:24:01.000Z</Time>
            <Position>
              <LatitudeDegrees>43.3126680739223957061767578125</LatitudeDegrees>
              <LongitudeDegrees>-3.91276895999908447265625</LongitudeDegrees>
            </Position>
            <AltitudeMeters>63.799999237060546875</AltitudeMeters>
            <DistanceMeters>22011.395157355</DistanceMeters>
          </Trackpoint>
          <Trackpoint>
            <Time>2021-01-13T15:24:03.000Z</Time>
            <Position>
              <LatitudeDegrees>43.3127435110509395599365234375</LatitudeDegrees>
              <LongitudeDegrees>-3.9126615040004253387451171875</LongitudeDegrees>
            </Position>
            <AltitudeMeters>64.1999969482421875</AltitudeMeters>
            <DistanceMeters>22023.487843489</DistanceMeters>
          </Trackpoint>
          <Trackpoint>
            <Time>2021-01-13T15:24:06.000Z</Time>
            <Position>
              <LatitudeDegrees>43.31282741390168666839599609375</LatitudeDegrees>
              <LongitudeDegrees>-3.9124703966081142425537109375</LongitudeDegrees>
            </Position>
            <AltitudeMeters>65</AltitudeMeters>
            <DistanceMeters>22041.563912919</DistanceMeters>
          </Trackpoint>
          <Trackpoint>
            <Time>2021-01-13T15:24:14.000Z</Time>
            <Position>
              <LatitudeDegrees>43.31296890042722225189208984375</LatitudeDegrees>
              <LongitudeDegrees>-3.911883495748043060302734375</LongitudeDegrees>
            </Position>
            <AltitudeMeters>65.1999969482421875</AltitudeMeters>
            <DistanceMeters>22091.635147017</DistanceMeters>
          </Trackpoint>
          <Trackpoint>
            <Time>2021-01-13T15:24:22.000Z</Time>
            <Position>
              <LatitudeDegrees>43.31301332451403141021728515625</LatitudeDegrees>
              <LongitudeDegrees>-3.9112630672752857208251953125</LongitudeDegrees>
            </Position>
            <AltitudeMeters>65.1999969482421875</AltitudeMeters>
            <DistanceMeters>22142.123404652</DistanceMeters>
          </Trackpoint>
          <Trackpoint>
            <Time>2021-01-13T15:24:26.000Z</Time>
            <Position>
              <LatitudeDegrees>43.31302472390234470367431640625</LatitudeDegrees>
              <LongitudeDegrees>-3.9109656773507595062255859375</LongitudeDegrees>
            </Position>
            <AltitudeMeters>65.1999969482421875</AltitudeMeters>
            <DistanceMeters>22166.241102388</DistanceMeters>
          </Trackpoint>
          <Trackpoint>
            <Time>2021-01-13T15:24:27.000Z</Time>
            <Position>
              <LatitudeDegrees>43.3130085468292236328125</LatitudeDegrees>
              <LongitudeDegrees>-3.910904489457607269287109375</LongitudeDegrees>
            </Position>
            <AltitudeMeters>65.1999969482421875</AltitudeMeters>
            <DistanceMeters>22171.513158466</DistanceMeters>
          </Trackpoint>
          <Trackpoint>
            <Time>2021-01-13T15:24:29.000Z</Time>
            <Position>
              <LatitudeDegrees>43.3129332773387432098388671875</LatitudeDegrees>
              <LongitudeDegrees>-3.910870291292667388916015625</LongitudeDegrees>
            </Position>
            <AltitudeMeters>65.1999969482421875</AltitudeMeters>
            <DistanceMeters>22180.33683792</DistanceMeters>
          </Trackpoint>
          <Trackpoint>
            <Time>2021-01-13T15:24:31.000Z</Time>
            <Position>
              <LatitudeDegrees>43.312886171042919158935546875</LatitudeDegrees>
              <LongitudeDegrees>-3.9107933454215526580810546875</LongitudeDegrees>
            </Position>
            <AltitudeMeters>65.40000152587890625</AltitudeMeters>
            <DistanceMeters>22188.480355674</DistanceMeters>
          </Trackpoint>
          <Trackpoint>
            <Time>2021-01-13T15:24:33.000Z</Time>
            <Position>
              <LatitudeDegrees>43.312889523804187774658203125</LatitudeDegrees>
              <LongitudeDegrees>-3.91066434793174266815185546875</LongitudeDegrees>
            </Position>
            <AltitudeMeters>65.40000152587890625</AltitudeMeters>
            <DistanceMeters>22198.934158098</DistanceMeters>
          </Trackpoint>
          <Trackpoint>
            <Time>2021-01-13T15:24:35.000Z</Time>
            <Position>
              <LatitudeDegrees>43.31289782188832759857177734375</LatitudeDegrees>
              <LongitudeDegrees>-3.91052152030169963836669921875</LongitudeDegrees>
            </Position>
            <AltitudeMeters>65.40000152587890625</AltitudeMeters>
            <DistanceMeters>22210.537927738</DistanceMeters>
          </Trackpoint>
          <Trackpoint>
            <Time>2021-01-13T15:24:39.000Z</Time>
            <Position>
              <LatitudeDegrees>43.31291265785694122314453125</LatitudeDegrees>
              <LongitudeDegrees>-3.91021826304495334625244140625</LongitudeDegrees>
            </Position>
            <AltitudeMeters>65.59999847412109375</AltitudeMeters>
            <DistanceMeters>22235.152598345</DistanceMeters>
          </Trackpoint>
          <Trackpoint>
            <Time>2021-01-13T15:24:45.000Z</Time>
            <Position>
              <LatitudeDegrees>43.31292917020618915557861328125</LatitudeDegrees>
              <LongitudeDegrees>-3.909748457372188568115234375</LongitudeDegrees>
            </Position>
            <AltitudeMeters>65.59999847412109375</AltitudeMeters>
            <DistanceMeters>22273.244208224</DistanceMeters>
          </Trackpoint>
          <Trackpoint>
            <Time>2021-01-13T15:24:52.000Z</Time>
            <Position>
              <LatitudeDegrees>43.31295096315443515777587890625</LatitudeDegrees>
              <LongitudeDegrees>-3.90918343327939510345458984375</LongitudeDegrees>
            </Position>
            <AltitudeMeters>65.8000030517578125</AltitudeMeters>
            <DistanceMeters>22319.067090993</DistanceMeters>
          </Trackpoint>
          <Trackpoint>
            <Time>2021-01-13T15:24:55.000Z</Time>
            <Position>
              <LatitudeDegrees>43.3129627816379070281982421875</LatitudeDegrees>
              <LongitudeDegrees>-3.90893532894551753997802734375</LongitudeDegrees>
            </Position>
            <AltitudeMeters>65.40000152587890625</AltitudeMeters>
            <DistanceMeters>22339.202890762</DistanceMeters>
          </Trackpoint>
          <Trackpoint>
            <Time>2021-01-13T15:25:04.000Z</Time>
            <Position>
              <LatitudeDegrees>43.31299438141286373138427734375</LatitudeDegrees>
              <LongitudeDegrees>-3.90818062238395214080810546875</LongitudeDegrees>
            </Position>
            <AltitudeMeters>65.1999969482421875</AltitudeMeters>
            <DistanceMeters>22400.424141884</DistanceMeters>
          </Trackpoint>
          <Trackpoint>
            <Time>2021-01-13T15:25:07.000Z</Time>
            <Position>
              <LatitudeDegrees>43.31300561316311359405517578125</LatitudeDegrees>
              <LongitudeDegrees>-3.9079260639846324920654296875</LongitudeDegrees>
            </Position>
            <AltitudeMeters>65</AltitudeMeters>
            <DistanceMeters>22421.077537515</DistanceMeters>
          </Trackpoint>
          <Trackpoint>
            <Time>2021-01-13T15:25:16.000Z</Time>
            <Position>
              <LatitudeDegrees>43.313073255121707916259765625</LatitudeDegrees>
              <LongitudeDegrees>-3.90715174376964569091796875</LongitudeDegrees>
            </Position>
            <AltitudeMeters>64.8000030517578125</AltitudeMeters>
            <DistanceMeters>22484.23635534</DistanceMeters>
          </Trackpoint>
          <Trackpoint>
            <Time>2021-01-13T15:25:17.000Z</Time>
            <Position>
              <LatitudeDegrees>43.31308524124324321746826171875</LatitudeDegrees>
              <LongitudeDegrees>-3.907066918909549713134765625</LongitudeDegrees>
            </Position>
            <AltitudeMeters>64.8000030517578125</AltitudeMeters>
            <DistanceMeters>22491.234219626</DistanceMeters>
          </Trackpoint>
          <Trackpoint>
            <Time>2021-01-13T15:25:25.000Z</Time>
            <Position>
              <LatitudeDegrees>43.31322915852069854736328125</LatitudeDegrees>
              <LongitudeDegrees>-3.9064025692641735076904296875</LongitudeDegrees>
            </Position>
            <AltitudeMeters>64.59999847412109375</AltitudeMeters>
            <DistanceMeters>22547.370562464</DistanceMeters>
          </Trackpoint>
          <Trackpoint>
            <Time>2021-01-13T15:25:29.000Z</Time>
            <Position>
              <LatitudeDegrees>43.31331507302820682525634765625</LatitudeDegrees>
              <LongitudeDegrees>-3.90607609413564205169677734375</LongitudeDegrees>
            </Position>
            <AltitudeMeters>64.59999847412109375</AltitudeMeters>
            <DistanceMeters>22575.486267895</DistanceMeters>
          </Trackpoint>
          <Trackpoint>
            <Time>2021-01-13T15:25:36.000Z</Time>
            <Position>
              <LatitudeDegrees>43.31346075050532817840576171875</LatitudeDegrees>
              <LongitudeDegrees>-3.9055134169757366180419921875</LongitudeDegrees>
            </Position>
            <AltitudeMeters>64.59999847412109375</AltitudeMeters>
            <DistanceMeters>22623.853278593</DistanceMeters>
          </Trackpoint>
          <Trackpoint>
            <Time>2021-01-13T15:25:42.000Z</Time>
            <Position>
              <LatitudeDegrees>43.31360491923987865447998046875</LatitudeDegrees>
              <LongitudeDegrees>-3.9050480537116527557373046875</LongitudeDegrees>
            </Position>
            <AltitudeMeters>64.59999847412109375</AltitudeMeters>
            <DistanceMeters>22664.814091614</DistanceMeters>
          </Trackpoint>
          <Trackpoint>
            <Time>2021-01-13T15:25:46.000Z</Time>
            <Position>
              <LatitudeDegrees>43.3136272989213466644287109375</LatitudeDegrees>
              <LongitudeDegrees>-3.9047171361744403839111328125</LongitudeDegrees>
            </Position>
            <AltitudeMeters>64.8000030517578125</AltitudeMeters>
            <DistanceMeters>22691.728972117</DistanceMeters>
          </Trackpoint>
          <Trackpoint>
            <Time>2021-01-13T15:25:47.000Z</Time>
            <Position>
              <LatitudeDegrees>43.3136209286749362945556640625</LatitudeDegrees>
              <LongitudeDegrees>-3.90463650226593017578125</LongitudeDegrees>
            </Position>
            <AltitudeMeters>64.8000030517578125</AltitudeMeters>
            <DistanceMeters>22698.297511166</DistanceMeters>
          </Trackpoint>
          <Trackpoint>
            <Time>2021-01-13T15:25:50.000Z</Time>
            <Position>
              <LatitudeDegrees>43.3136038295924663543701171875</LatitudeDegrees>
              <LongitudeDegrees>-3.90438429079949855804443359375</LongitudeDegrees>
            </Position>
            <AltitudeMeters>64.8000030517578125</AltitudeMeters>
            <DistanceMeters>22718.811399692</DistanceMeters>
          </Trackpoint>
          <Trackpoint>
            <Time>2021-01-13T15:25:52.000Z</Time>
            <Position>
              <LatitudeDegrees>43.3136293105781078338623046875</LatitudeDegrees>
              <LongitudeDegrees>-3.904213719069957733154296875</LongitudeDegrees>
            </Position>
            <AltitudeMeters>64.8000030517578125</AltitudeMeters>
            <DistanceMeters>22732.913184808</DistanceMeters>
          </Trackpoint>
          <Trackpoint>
            <Time>2021-01-13T15:25:59.000Z</Time>
            <Position>
              <LatitudeDegrees>43.3137771673500537872314453125</LatitudeDegrees>
              <LongitudeDegrees>-3.90367082320153713226318359375</LongitudeDegrees>
            </Position>
            <AltitudeMeters>65</AltitudeMeters>
            <DistanceMeters>22779.858305285</DistanceMeters>
          </Trackpoint>
          <Trackpoint>
            <Time>2021-01-13T15:26:09.000Z</Time>
            <Position>
              <LatitudeDegrees>43.31396969966590404510498046875</LatitudeDegrees>
              <LongitudeDegrees>-3.90290589071810245513916015625</LongitudeDegrees>
            </Position>
            <AltitudeMeters>65</AltitudeMeters>
            <DistanceMeters>22845.407454582</DistanceMeters>
          </Trackpoint>
          <Trackpoint>
            <Time>2021-01-13T15:26:14.000Z</Time>
            <Position>
              <LatitudeDegrees>43.3140747249126434326171875</LatitudeDegrees>
              <LongitudeDegrees>-3.90252065844833850860595703125</LongitudeDegrees>
            </Position>
            <AltitudeMeters>65.1999969482421875</AltitudeMeters>
            <DistanceMeters>22878.723094245</DistanceMeters>
          </Trackpoint>
          <Trackpoint>
            <Time>2021-01-13T15:26:20.000Z</Time>
            <Position>
              <LatitudeDegrees>43.31420020200312137603759765625</LatitudeDegrees>
              <LongitudeDegrees>-3.90206485055387020111083984375</LongitudeDegrees>
            </Position>
            <AltitudeMeters>65.59999847412109375</AltitudeMeters>
            <DistanceMeters>22918.189737704</DistanceMeters>
          </Trackpoint>
          <Trackpoint>
            <Time>2021-01-13T15:26:24.000Z</Time>
            <Position>
              <LatitudeDegrees>43.3142881281673908233642578125</LatitudeDegrees>
              <LongitudeDegrees>-3.90177198685705661773681640625</LongitudeDegrees>
            </Position>
            <AltitudeMeters>65.8000030517578125</AltitudeMeters>
            <DistanceMeters>22943.846422653</DistanceMeters>
          </Trackpoint>
          <Trackpoint>
            <Time>2021-01-13T15:26:32.000Z</Time>
            <Position>
              <LatitudeDegrees>43.3144529163837432861328125</LatitudeDegrees>
              <LongitudeDegrees>-3.9011645503342151641845703125</LongitudeDegrees>
            </Position>
            <AltitudeMeters>66.59999847412109375</AltitudeMeters>
            <DistanceMeters>22996.346682873</DistanceMeters>
          </Trackpoint>
          <Trackpoint>
            <Time>2021-01-13T15:26:39.000Z</Time>
            <Position>
              <LatitudeDegrees>43.3145923912525177001953125</LatitudeDegrees>
              <LongitudeDegrees>-3.900634981691837310791015625</LongitudeDegrees>
            </Position>
            <AltitudeMeters>66.8000030517578125</AltitudeMeters>
            <DistanceMeters>23041.956041124</DistanceMeters>
          </Trackpoint>
          <Trackpoint>
            <Time>2021-01-13T15:26:49.000Z</Time>
            <Position>
              <LatitudeDegrees>43.31480839289724826812744140625</LatitudeDegrees>
              <LongitudeDegrees>-3.8998874835669994354248046875</LongitudeDegrees>
            </Position>
            <AltitudeMeters>67.40000152587890625</AltitudeMeters>
            <DistanceMeters>23107.090043567</DistanceMeters>
          </Trackpoint>
          <Trackpoint>
            <Time>2021-01-13T15:26:50.000Z</Time>
            <Position>
              <LatitudeDegrees>43.31482968293130397796630859375</LatitudeDegrees>
              <LongitudeDegrees>-3.899811208248138427734375</LongitudeDegrees>
            </Position>
            <AltitudeMeters>67.40000152587890625</AltitudeMeters>
            <DistanceMeters>23113.705841367</DistanceMeters>
          </Trackpoint>
          <Trackpoint>
            <Time>2021-01-13T15:26:57.000Z</Time>
            <Position>
              <LatitudeDegrees>43.3149543218314647674560546875</LatitudeDegrees>
              <LongitudeDegrees>-3.89927208423614501953125</LongitudeDegrees>
            </Position>
            <AltitudeMeters>67.8000030517578125</AltitudeMeters>
            <DistanceMeters>23159.516603049</DistanceMeters>
          </Trackpoint>
          <Trackpoint>
            <Time>2021-01-13T15:26:58.000Z</Time>
            <Position>
              <LatitudeDegrees>43.31497418694198131561279296875</LatitudeDegrees>
              <LongitudeDegrees>-3.8991956412792205810546875</LongitudeDegrees>
            </Position>
            <AltitudeMeters>67.8000030517578125</AltitudeMeters>
            <DistanceMeters>23166.089951951</DistanceMeters>
          </Trackpoint>
          <Trackpoint>
            <Time>2021-01-13T15:27:07.000Z</Time>
            <Position>
              <LatitudeDegrees>43.3151454292237758636474609375</LatitudeDegrees>
              <LongitudeDegrees>-3.8985063135623931884765625</LongitudeDegrees>
            </Position>
            <AltitudeMeters>68.1999969482421875</AltitudeMeters>
            <DistanceMeters>23225.077512215</DistanceMeters>
          </Trackpoint>
          <Trackpoint>
            <Time>2021-01-13T15:27:13.000Z</Time>
            <Position>
              <LatitudeDegrees>43.31527040340006351470947265625</LatitudeDegrees>
              <LongitudeDegrees>-3.898046649992465972900390625</LongitudeDegrees>
            </Position>
            <AltitudeMeters>68.59999847412109375</AltitudeMeters>
            <DistanceMeters>23264.816179887</DistanceMeters>
          </Trackpoint>
          <Trackpoint>
            <Time>2021-01-13T15:27:16.000Z</Time>
            <Position>
              <LatitudeDegrees>43.3153362013399600982666015625</LatitudeDegrees>
              <LongitudeDegrees>-3.89781254343688488006591796875</LongitudeDegrees>
            </Position>
            <AltitudeMeters>69</AltitudeMeters>
            <DistanceMeters>23285.139903874</DistanceMeters>
          </Trackpoint>
          <Trackpoint>
            <Time>2021-01-13T15:27:21.000Z</Time>
            <Position>
              <LatitudeDegrees>43.315435610711574554443359375</LatitudeDegrees>
              <LongitudeDegrees>-3.897428400814533233642578125</LongitudeDegrees>
            </Position>
            <AltitudeMeters>69.1999969482421875</AltitudeMeters>
            <DistanceMeters>23318.157550804</DistanceMeters>
          </Trackpoint>
          <Trackpoint>
            <Time>2021-01-13T15:27:27.000Z</Time>
            <Position>
              <LatitudeDegrees>43.31554700620472431182861328125</LatitudeDegrees>
              <LongitudeDegrees>-3.897010982036590576171875</LongitudeDegrees>
            </Position>
            <AltitudeMeters>69.59999847412109375</AltitudeMeters>
            <DistanceMeters>23354.162895748</DistanceMeters>
          </Trackpoint>
          <Trackpoint>
            <Time>2021-01-13T15:27:30.000Z</Time>
            <Position>
              <LatitudeDegrees>43.31558472476899623870849609375</LatitudeDegrees>
              <LongitudeDegrees>-3.89687351882457733154296875</LongitudeDegrees>
            </Position>
            <AltitudeMeters>69.59999847412109375</AltitudeMeters>
            <DistanceMeters>23366.060225207</DistanceMeters>
          </Trackpoint>
          <Trackpoint>
            <Time>2021-01-13T15:27:32.000Z</Time>
            <Position>
              <LatitudeDegrees>43.31561791710555553436279296875</LatitudeDegrees>
              <LongitudeDegrees>-3.89675240032374858856201171875</LongitudeDegrees>
            </Position>
            <AltitudeMeters>69.8000030517578125</AltitudeMeters>
            <DistanceMeters>23376.541633033</DistanceMeters>
          </Trackpoint>
          <Trackpoint>
            <Time>2021-01-13T15:27:35.000Z</Time>
            <Position>
              <LatitudeDegrees>43.31568480469286441802978515625</LatitudeDegrees>
              <LongitudeDegrees>-3.89654695987701416015625</LongitudeDegrees>
            </Position>
            <AltitudeMeters>69.8000030517578125</AltitudeMeters>
            <DistanceMeters>23394.768440553</DistanceMeters>
          </Trackpoint>
          <Trackpoint>
            <Time>2021-01-13T15:27:37.000Z</Time>
            <Position>
              <LatitudeDegrees>43.3157311566174030303955078125</LatitudeDegrees>
              <LongitudeDegrees>-3.89639784581959247589111328125</LongitudeDegrees>
            </Position>
            <AltitudeMeters>70</AltitudeMeters>
            <DistanceMeters>23407.900018515</DistanceMeters>
          </Trackpoint>
          <Trackpoint>
            <Time>2021-01-13T15:27:43.000Z</Time>
            <Position>
              <LatitudeDegrees>43.31585705280303955078125</LatitudeDegrees>
              <LongitudeDegrees>-3.89592208899557590484619140625</LongitudeDegrees>
            </Position>
            <AltitudeMeters>70.1999969482421875</AltitudeMeters>
            <DistanceMeters>23448.896529929</DistanceMeters>
          </Trackpoint>
          <Trackpoint>
            <Time>2021-01-13T15:27:45.000Z</Time>
            <Position>
              <LatitudeDegrees>43.31589929759502410888671875</LatitudeDegrees>
              <LongitudeDegrees>-3.8957649283111095428466796875</LongitudeDegrees>
            </Position>
            <AltitudeMeters>70.1999969482421875</AltitudeMeters>
            <DistanceMeters>23462.464401478</DistanceMeters>
          </Trackpoint>
          <Trackpoint>
            <Time>2021-01-13T15:27:54.000Z</Time>
            <Position>
              <LatitudeDegrees>43.31608981825411319732666015625</LatitudeDegrees>
              <LongitudeDegrees>-3.89505690895020961761474609375</LongitudeDegrees>
            </Position>
            <AltitudeMeters>70.40000152587890625</AltitudeMeters>
            <DistanceMeters>23523.596350543</DistanceMeters>
          </Trackpoint>
          <Trackpoint>
            <Time>2021-01-13T15:27:55.000Z</Time>
            <Position>
              <LatitudeDegrees>43.316111862659454345703125</LatitudeDegrees>
              <LongitudeDegrees>-3.89498180709779262542724609375</LongitudeDegrees>
            </Position>
            <AltitudeMeters>70.59999847412109375</AltitudeMeters>
            <DistanceMeters>23530.154570889</DistanceMeters>
          </Trackpoint>
          <Trackpoint>
            <Time>2021-01-13T15:27:58.000Z</Time>
            <Position>
              <LatitudeDegrees>43.31618688069283962249755859375</LatitudeDegrees>
              <LongitudeDegrees>-3.89477041549980640411376953125</LongitudeDegrees>
            </Position>
            <AltitudeMeters>70.8000030517578125</AltitudeMeters>
            <DistanceMeters>23549.201205528</DistanceMeters>
          </Trackpoint>
          <Trackpoint>
            <Time>2021-01-13T15:28:00.000Z</Time>
            <Position>
              <LatitudeDegrees>43.31622007302939891815185546875</LatitudeDegrees>
              <LongitudeDegrees>-3.8946454413235187530517578125</LongitudeDegrees>
            </Position>
            <AltitudeMeters>70.8000030517578125</AltitudeMeters>
            <DistanceMeters>23559.974905106</DistanceMeters>
          </Trackpoint>
          <Trackpoint>
            <Time>2021-01-13T15:28:04.000Z</Time>
            <Position>
              <LatitudeDegrees>43.31626315601170063018798828125</LatitudeDegrees>
              <LongitudeDegrees>-3.89448635280132293701171875</LongitudeDegrees>
            </Position>
            <AltitudeMeters>70.8000030517578125</AltitudeMeters>
            <DistanceMeters>23573.721300258</DistanceMeters>
          </Trackpoint>
          <Trackpoint>
            <Time>2021-01-13T15:28:08.000Z</Time>
            <Position>
              <LatitudeDegrees>43.31630992703139781951904296875</LatitudeDegrees>
              <LongitudeDegrees>-3.8942984305322170257568359375</LongitudeDegrees>
            </Position>
            <AltitudeMeters>70.59999847412109375</AltitudeMeters>
            <DistanceMeters>23589.804975208</DistanceMeters>
          </Trackpoint>
          <Trackpoint>
            <Time>2021-01-13T15:28:14.000Z</Time>
            <Position>
              <LatitudeDegrees>43.31640028394758701324462890625</LatitudeDegrees>
              <LongitudeDegrees>-3.893875814974308013916015625</LongitudeDegrees>
            </Position>
            <AltitudeMeters>70.8000030517578125</AltitudeMeters>
            <DistanceMeters>23625.475831822</DistanceMeters>
          </Trackpoint>
          <Trackpoint>
            <Time>2021-01-13T15:28:20.000Z</Time>
            <Position>
              <LatitudeDegrees>43.31650371663272380828857421875</LatitudeDegrees>
              <LongitudeDegrees>-3.89339410699903964996337890625</LongitudeDegrees>
            </Position>
            <AltitudeMeters>71</AltitudeMeters>
            <DistanceMeters>23666.148153663</DistanceMeters>
          </Trackpoint>
          <Trackpoint>
            <Time>2021-01-13T15:28:24.000Z</Time>
            <Position>
              <LatitudeDegrees>43.316571526229381561279296875</LatitudeDegrees>
              <LongitudeDegrees>-3.893070481717586517333984375</LongitudeDegrees>
            </Position>
            <AltitudeMeters>71.1999969482421875</AltitudeMeters>
            <DistanceMeters>23693.420655134</DistanceMeters>
          </Trackpoint>
          <Trackpoint>
            <Time>2021-01-13T15:28:33.000Z</Time>
            <Position>
              <LatitudeDegrees>43.316683508455753326416015625</LatitudeDegrees>
              <LongitudeDegrees>-3.892324827611446380615234375</LongitudeDegrees>
            </Position>
            <AltitudeMeters>71.59999847412109375</AltitudeMeters>
            <DistanceMeters>23755.076957664</DistanceMeters>
          </Trackpoint>
          <Trackpoint>
            <Time>2021-01-13T15:28:42.000Z</Time>
            <Position>
              <LatitudeDegrees>43.31676104106009006500244140625</LatitudeDegrees>
              <LongitudeDegrees>-3.89156098477542400360107421875</LongitudeDegrees>
            </Position>
            <AltitudeMeters>71.59999847412109375</AltitudeMeters>
            <DistanceMeters>23817.532140642</DistanceMeters>
          </Trackpoint>
          <Trackpoint>
            <Time>2021-01-13T15:28:50.000Z</Time>
            <Position>
              <LatitudeDegrees>43.3168033696711063385009765625</LatitudeDegrees>
              <LongitudeDegrees>-3.89090023934841156005859375</LongitudeDegrees>
            </Position>
            <AltitudeMeters>71.59999847412109375</AltitudeMeters>
            <DistanceMeters>23871.246447999</DistanceMeters>
          </Trackpoint>
          <Trackpoint>
            <Time>2021-01-13T15:28:56.000Z</Time>
            <Position>
              <LatitudeDegrees>43.3168365620076656341552734375</LatitudeDegrees>
              <LongitudeDegrees>-3.89039573259651660919189453125</LongitudeDegrees>
            </Position>
            <AltitudeMeters>72</AltitudeMeters>
            <DistanceMeters>23912.268061882</DistanceMeters>
          </Trackpoint>
          <Trackpoint>
            <Time>2021-01-13T15:29:02.000Z</Time>
            <Position>
              <LatitudeDegrees>43.316868245601654052734375</LatitudeDegrees>
              <LongitudeDegrees>-3.8898925669491291046142578125</LongitudeDegrees>
            </Position>
            <AltitudeMeters>72</AltitudeMeters>
            <DistanceMeters>23953.166879717</DistanceMeters>
          </Trackpoint>
          <Trackpoint>
            <Time>2021-01-13T15:29:06.000Z</Time>
            <Position>
              <LatitudeDegrees>43.31688911654055118560791015625</LatitudeDegrees>
              <LongitudeDegrees>-3.88955469243228435516357421875</LongitudeDegrees>
            </Position>
            <AltitudeMeters>72</AltitudeMeters>
            <DistanceMeters>23980.626476277</DistanceMeters>
          </Trackpoint>
          <Trackpoint>
            <Time>2021-01-13T15:29:15.000Z</Time>
            <Position>
              <LatitudeDegrees>43.31693538464605808258056640625</LatitudeDegrees>
              <LongitudeDegrees>-3.88879898004233837127685546875</LongitudeDegrees>
            </Position>
            <AltitudeMeters>72.1999969482421875</AltitudeMeters>
            <DistanceMeters>24042.04035312</DistanceMeters>
          </Trackpoint>
          <Trackpoint>
            <Time>2021-01-13T15:29:17.000Z</Time>
            <Position>
              <LatitudeDegrees>43.31695063970983028411865234375</LatitudeDegrees>
              <LongitudeDegrees>-3.88863067142665386199951171875</LongitudeDegrees>
            </Position>
            <AltitudeMeters>72.1999969482421875</AltitudeMeters>
            <DistanceMeters>24055.775576346</DistanceMeters>
          </Trackpoint>
          <Trackpoint>
            <Time>2021-01-13T15:29:25.000Z</Time>
            <Position>
              <LatitudeDegrees>43.317010737955570220947265625</LatitudeDegrees>
              <LongitudeDegrees>-3.88795609585940837860107421875</LongitudeDegrees>
            </Position>
            <AltitudeMeters>72.59999847412109375</AltitudeMeters>
            <DistanceMeters>24110.810730937</DistanceMeters>
          </Trackpoint>
          <Trackpoint>
            <Time>2021-01-13T15:29:34.000Z</Time>
            <Position>
              <LatitudeDegrees>43.3170782960951328277587890625</LatitudeDegrees>
              <LongitudeDegrees>-3.88721463270485401153564453125</LongitudeDegrees>
            </Position>
            <AltitudeMeters>72.59999847412109375</AltitudeMeters>
            <DistanceMeters>24171.323277063</DistanceMeters>
          </Trackpoint>
          <Trackpoint>
            <Time>2021-01-13T15:29:42.000Z</Time>
            <Position>
              <LatitudeDegrees>43.3170957304537296295166015625</LatitudeDegrees>
              <LongitudeDegrees>-3.88654659502208232879638671875</LongitudeDegrees>
            </Position>
            <AltitudeMeters>72.8000030517578125</AltitudeMeters>
            <DistanceMeters>24225.455651725</DistanceMeters>
          </Trackpoint>
          <Trackpoint>
            <Time>2021-01-13T15:29:44.000Z</Time>
            <Position>
              <LatitudeDegrees>43.3171135000884532928466796875</LatitudeDegrees>
              <LongitudeDegrees>-3.88638029806315898895263671875</LongitudeDegrees>
            </Position>
            <AltitudeMeters>73</AltitudeMeters>
            <DistanceMeters>24239.066715178</DistanceMeters>
          </Trackpoint>
          <Trackpoint>
            <Time>2021-01-13T15:29:52.000Z</Time>
            <Position>
              <LatitudeDegrees>43.31716404296457767486572265625</LatitudeDegrees>
              <LongitudeDegrees>-3.8857103325426578521728515625</LongitudeDegrees>
            </Position>
            <AltitudeMeters>73.40000152587890625</AltitudeMeters>
            <DistanceMeters>24293.611138685</DistanceMeters>
          </Trackpoint>
          <Trackpoint>
            <Time>2021-01-13T15:30:01.000Z</Time>
            <Position>
              <LatitudeDegrees>43.31720561720430850982666015625</LatitudeDegrees>
              <LongitudeDegrees>-3.88496627099812030792236328125</LongitudeDegrees>
            </Position>
            <AltitudeMeters>73.59999847412109375</AltitudeMeters>
            <DistanceMeters>24354.042451061</DistanceMeters>
          </Trackpoint>
          <Trackpoint>
            <Time>2021-01-13T15:30:03.000Z</Time>
            <Position>
              <LatitudeDegrees>43.3172144182026386260986328125</LatitudeDegrees>
              <LongitudeDegrees>-3.8848000578582286834716796875</LongitudeDegrees>
            </Position>
            <AltitudeMeters>73.8000030517578125</AltitudeMeters>
            <DistanceMeters>24367.537917403</DistanceMeters>
          </Trackpoint>
          <Trackpoint>
            <Time>2021-01-13T15:30:12.000Z</Time>
            <Position>
              <LatitudeDegrees>43.3172626979649066925048828125</LatitudeDegrees>
              <LongitudeDegrees>-3.884033448994159698486328125</LongitudeDegrees>
            </Position>
            <AltitudeMeters>73.8000030517578125</AltitudeMeters>
            <DistanceMeters>24429.849724466</DistanceMeters>
          </Trackpoint>
          <Trackpoint>
            <Time>2021-01-13T15:30:14.000Z</Time>
            <Position>
              <LatitudeDegrees>43.31727133132517337799072265625</LatitudeDegrees>
              <LongitudeDegrees>-3.8838636316359043121337890625</LongitudeDegrees>
            </Position>
            <AltitudeMeters>73.8000030517578125</AltitudeMeters>
            <DistanceMeters>24443.634822532</DistanceMeters>
          </Trackpoint>
          <Trackpoint>
            <Time>2021-01-13T15:30:20.000Z</Time>
            <Position>
              <LatitudeDegrees>43.3173039369285106658935546875</LatitudeDegrees>
              <LongitudeDegrees>-3.88336231000721454620361328125</LongitudeDegrees>
            </Position>
            <AltitudeMeters>74</AltitudeMeters>
            <DistanceMeters>24484.393529497</DistanceMeters>
          </Trackpoint>
          <Trackpoint>
            <Time>2021-01-13T15:30:24.000Z</Time>
            <Position>
              <LatitudeDegrees>43.3173307590186595916748046875</LatitudeDegrees>
              <LongitudeDegrees>-3.8830425404012203216552734375</LongitudeDegrees>
            </Position>
            <AltitudeMeters>74.40000152587890625</AltitudeMeters>
            <DistanceMeters>24510.459965233</DistanceMeters>
          </Trackpoint>
          <Trackpoint>
            <Time>2021-01-13T15:30:30.000Z</Time>
            <Position>
              <LatitudeDegrees>43.3173800446093082427978515625</LatitudeDegrees>
              <LongitudeDegrees>-3.8825503550469875335693359375</LongitudeDegrees>
            </Position>
            <AltitudeMeters>74.8000030517578125</AltitudeMeters>
            <DistanceMeters>24550.692754384</DistanceMeters>
          </Trackpoint>
          <Trackpoint>
            <Time>2021-01-13T15:30:33.000Z</Time>
            <Position>
              <LatitudeDegrees>43.3174060285091400146484375</LatitudeDegrees>
              <LongitudeDegrees>-3.88231851160526275634765625</LongitudeDegrees>
            </Position>
            <AltitudeMeters>75.1999969482421875</AltitudeMeters>
            <DistanceMeters>24569.68859221</DistanceMeters>
          </Trackpoint>
          <Trackpoint>
            <Time>2021-01-13T15:30:36.000Z</Time>
            <Position>
              <LatitudeDegrees>43.31741902045905590057373046875</LatitudeDegrees>
              <LongitudeDegrees>-3.8820994086563587188720703125</LongitudeDegrees>
            </Position>
            <AltitudeMeters>75.40000152587890625</AltitudeMeters>
            <DistanceMeters>24587.4900661</DistanceMeters>
          </Trackpoint>
          <Trackpoint>
            <Time>2021-01-13T15:30:39.000Z</Time>
            <Position>
              <LatitudeDegrees>43.31742740236222743988037109375</LatitudeDegrees>
              <LongitudeDegrees>-3.8818932138383388519287109375</LongitudeDegrees>
            </Position>
            <AltitudeMeters>75.59999847412109375</AltitudeMeters>
            <DistanceMeters>24604.213147977</DistanceMeters>
          </Trackpoint>
          <Trackpoint>
            <Time>2021-01-13T15:30:42.000Z</Time>
            <Position>
              <LatitudeDegrees>43.3174229599535465240478515625</LatitudeDegrees>
              <LongitudeDegrees>-3.88169447891414165496826171875</LongitudeDegrees>
            </Position>
            <AltitudeMeters>75.8000030517578125</AltitudeMeters>
            <DistanceMeters>24620.31393785</DistanceMeters>
          </Trackpoint>
          <Trackpoint>
            <Time>2021-01-13T15:30:45.000Z</Time>
            <Position>
              <LatitudeDegrees>43.31743293441832065582275390625</LatitudeDegrees>
              <LongitudeDegrees>-3.88148560188710689544677734375</LongitudeDegrees>
            </Position>
            <AltitudeMeters>76</AltitudeMeters>
            <DistanceMeters>24637.264956476</DistanceMeters>
          </Trackpoint>
          <Trackpoint>
            <Time>2021-01-13T15:30:47.000Z</Time>
            <Position>
              <LatitudeDegrees>43.31744559109210968017578125</LatitudeDegrees>
              <LongitudeDegrees>-3.88133640401065349578857421875</LongitudeDegrees>
            </Position>
            <AltitudeMeters>76.1999969482421875</AltitudeMeters>
            <DistanceMeters>24649.428375915</DistanceMeters>
          </Trackpoint>
          <Trackpoint>
            <Time>2021-01-13T15:30:48.000Z</Time>
            <Position>
              <LatitudeDegrees>43.3174511231482028961181640625</LatitudeDegrees>
              <LongitudeDegrees>-3.8812605477869510650634765625</LongitudeDegrees>
            </Position>
            <AltitudeMeters>76.40000152587890625</AltitudeMeters>
            <DistanceMeters>24655.601456394</DistanceMeters>
          </Trackpoint>
          <Trackpoint>
            <Time>2021-01-13T15:30:55.000Z</Time>
            <Position>
              <LatitudeDegrees>43.31749026663601398468017578125</LatitudeDegrees>
              <LongitudeDegrees>-3.880724608898162841796875</LongitudeDegrees>
            </Position>
            <AltitudeMeters>77</AltitudeMeters>
            <DistanceMeters>24699.219442888</DistanceMeters>
          </Trackpoint>
          <Trackpoint>
            <Time>2021-01-13T15:30:59.000Z</Time>
            <Position>
              <LatitudeDegrees>43.31753301434218883514404296875</LatitudeDegrees>
              <LongitudeDegrees>-3.8804156519472599029541015625</LongitudeDegrees>
            </Position>
            <AltitudeMeters>77.1999969482421875</AltitudeMeters>
            <DistanceMeters>24724.686956914</DistanceMeters>
          </Trackpoint>
          <Trackpoint>
            <Time>2021-01-13T15:31:00.000Z</Time>
            <Position>
              <LatitudeDegrees>43.3175379596650600433349609375</LatitudeDegrees>
              <LongitudeDegrees>-3.88033895753324031829833984375</LongitudeDegrees>
            </Position>
            <AltitudeMeters>77.1999969482421875</AltitudeMeters>
            <DistanceMeters>24730.921897098</DistanceMeters>
          </Trackpoint>
          <Trackpoint>
            <Time>2021-01-13T15:31:06.000Z</Time>
            <Position>
              <LatitudeDegrees>43.3175560645759105682373046875</LatitudeDegrees>
              <LongitudeDegrees>-3.87986353598535060882568359375</LongitudeDegrees>
            </Position>
            <AltitudeMeters>77.40000152587890625</AltitudeMeters>
            <DistanceMeters>24769.473943501</DistanceMeters>
          </Trackpoint>
          <Trackpoint>
            <Time>2021-01-13T15:31:11.000Z</Time>
            <Position>
              <LatitudeDegrees>43.3175999857485294342041015625</LatitudeDegrees>
              <LongitudeDegrees>-3.87945433147251605987548828125</LongitudeDegrees>
            </Position>
            <AltitudeMeters>77.8000030517578125</AltitudeMeters>
            <DistanceMeters>24802.969613489</DistanceMeters>
          </Trackpoint>
          <Trackpoint>
            <Time>2021-01-13T15:31:12.000Z</Time>
            <Position>
              <LatitudeDegrees>43.31760275177657604217529296875</LatitudeDegrees>
              <LongitudeDegrees>-3.87936665676534175872802734375</LongitudeDegrees>
            </Position>
            <AltitudeMeters>77.8000030517578125</AltitudeMeters>
            <DistanceMeters>24810.075680438</DistanceMeters>
          </Trackpoint>
          <Trackpoint>
            <Time>2021-01-13T15:31:18.000Z</Time>
            <Position>
              <LatitudeDegrees>43.31762001849710941314697265625</LatitudeDegrees>
              <LongitudeDegrees>-3.87885854579508304595947265625</LongitudeDegrees>
            </Position>
            <AltitudeMeters>78</AltitudeMeters>
            <DistanceMeters>24851.26688391</DistanceMeters>
          </Trackpoint>
          <Trackpoint>
            <Time>2021-01-13T15:31:23.000Z</Time>
            <Position>
              <LatitudeDegrees>43.317635357379913330078125</LatitudeDegrees>
              <LongitudeDegrees>-3.8784586451947689056396484375</LongitudeDegrees>
            </Position>
            <AltitudeMeters>78</AltitudeMeters>
            <DistanceMeters>24883.695507261</DistanceMeters>
          </Trackpoint>
          <Trackpoint>
            <Time>2021-01-13T15:31:29.000Z</Time>
            <Position>
              <LatitudeDegrees>43.31765203736722469329833984375</LatitudeDegrees>
              <LongitudeDegrees>-3.877972997725009918212890625</LongitudeDegrees>
            </Position>
            <AltitudeMeters>78</AltitudeMeters>
            <DistanceMeters>24923.066624368</DistanceMeters>
          </Trackpoint>
          <Trackpoint>
            <Time>2021-01-13T15:31:37.000Z</Time>
            <Position>
              <LatitudeDegrees>43.31768875010311603546142578125</LatitudeDegrees>
              <LongitudeDegrees>-3.87733873911201953887939453125</LongitudeDegrees>
            </Position>
            <AltitudeMeters>78</AltitudeMeters>
            <DistanceMeters>24974.590648701</DistanceMeters>
          </Trackpoint>
          <Trackpoint>
            <Time>2021-01-13T15:31:47.000Z</Time>
            <Position>
              <LatitudeDegrees>43.31775764934718608856201171875</LatitudeDegrees>
              <LongitudeDegrees>-3.87654849328100681304931640625</LongitudeDegrees>
            </Position>
            <AltitudeMeters>77.8000030517578125</AltitudeMeters>
            <DistanceMeters>25039.041742759</DistanceMeters>
          </Trackpoint>
          <Trackpoint>
            <Time>2021-01-13T15:31:48.000Z</Time>
            <Position>
              <LatitudeDegrees>43.3177632652223110198974609375</LatitudeDegrees>
              <LongitudeDegrees>-3.8764674402773380279541015625</LongitudeDegrees>
            </Position>
            <AltitudeMeters>77.8000030517578125</AltitudeMeters>
            <DistanceMeters>25045.63498081</DistanceMeters>
          </Trackpoint>
          <Trackpoint>
            <Time>2021-01-13T15:31:51.000Z</Time>
            <Position>
              <LatitudeDegrees>43.3177786879241466522216796875</LatitudeDegrees>
              <LongitudeDegrees>-3.87621908448636531829833984375</LongitudeDegrees>
            </Position>
            <AltitudeMeters>78</AltitudeMeters>
            <DistanceMeters>25065.819603397</DistanceMeters>
          </Trackpoint>
          <Trackpoint>
            <Time>2021-01-13T15:31:56.000Z</Time>
            <Position>
              <LatitudeDegrees>43.31780509091913700103759765625</LatitudeDegrees>
              <LongitudeDegrees>-3.8758027553558349609375</LongitudeDegrees>
            </Position>
            <AltitudeMeters>78.40000152587890625</AltitudeMeters>
            <DistanceMeters>25099.661390218</DistanceMeters>
          </Trackpoint>
          <Trackpoint>
            <Time>2021-01-13T15:31:58.000Z</Time>
            <Position>
              <LatitudeDegrees>43.31781380809843540191650390625</LatitudeDegrees>
              <LongitudeDegrees>-3.875638805329799652099609375</LongitudeDegrees>
            </Position>
            <AltitudeMeters>78.40000152587890625</AltitudeMeters>
            <DistanceMeters>25112.973272885</DistanceMeters>
          </Trackpoint>
          <Trackpoint>
            <Time>2021-01-13T15:32:02.000Z</Time>
            <Position>
              <LatitudeDegrees>43.31785504706203937530517578125</LatitudeDegrees>
              <LongitudeDegrees>-3.87530964799225330352783203125</LongitudeDegrees>
            </Position>
            <AltitudeMeters>78.59999847412109375</AltitudeMeters>
            <DistanceMeters>25140.020353188</DistanceMeters>
          </Trackpoint>
          <Trackpoint>
            <Time>2021-01-13T15:32:08.000Z</Time>
            <Position>
              <LatitudeDegrees>43.31792914308607578277587890625</LatitudeDegrees>
              <LongitudeDegrees>-3.87482441961765289306640625</LongitudeDegrees>
            </Position>
            <AltitudeMeters>79.1999969482421875</AltitudeMeters>
            <DistanceMeters>25180.169561723</DistanceMeters>
          </Trackpoint>
          <Trackpoint>
            <Time>2021-01-13T15:32:09.000Z</Time>
            <Position>
              <LatitudeDegrees>43.31794154830276966094970703125</LatitudeDegrees>
              <LongitudeDegrees>-3.87474395334720611572265625</LongitudeDegrees>
            </Position>
            <AltitudeMeters>79.1999969482421875</AltitudeMeters>
            <DistanceMeters>25186.830927622</DistanceMeters>
          </Trackpoint>
          <Trackpoint>
            <Time>2021-01-13T15:32:18.000Z</Time>
            <Position>
              <LatitudeDegrees>43.31806652247905731201171875</LatitudeDegrees>
              <LongitudeDegrees>-3.87403626926243305206298828125</LongitudeDegrees>
            </Position>
            <AltitudeMeters>80</AltitudeMeters>
            <DistanceMeters>25245.802258706</DistanceMeters>
          </Trackpoint>
          <Trackpoint>
            <Time>2021-01-13T15:32:22.000Z</Time>
            <Position>
              <LatitudeDegrees>43.31813600845634937286376953125</LatitudeDegrees>
              <LongitudeDegrees>-3.87371524237096309661865234375</LongitudeDegrees>
            </Position>
            <AltitudeMeters>80.1999969482421875</AltitudeMeters>
            <DistanceMeters>25272.924521099</DistanceMeters>
          </Trackpoint>
          <Trackpoint>
            <Time>2021-01-13T15:32:25.000Z</Time>
            <Position>
              <LatitudeDegrees>43.31818210892379283905029296875</LatitudeDegrees>
              <LongitudeDegrees>-3.87347334064543247222900390625</LongitudeDegrees>
            </Position>
            <AltitudeMeters>80.59999847412109375</AltitudeMeters>
            <DistanceMeters>25293.174131991</DistanceMeters>
          </Trackpoint>
          <Trackpoint>
            <Time>2021-01-13T15:32:32.000Z</Time>
            <Position>
              <LatitudeDegrees>43.31828453578054904937744140625</LatitudeDegrees>
              <LongitudeDegrees>-3.87292834930121898651123046875</LongitudeDegrees>
            </Position>
            <AltitudeMeters>81</AltitudeMeters>
            <DistanceMeters>25338.755268311</DistanceMeters>
          </Trackpoint>
          <Trackpoint>
            <Time>2021-01-13T15:32:39.000Z</Time>
            <Position>
              <LatitudeDegrees>43.318387381732463836669921875</LatitudeDegrees>
              <LongitudeDegrees>-3.8723686896264553070068359375</LongitudeDegrees>
            </Position>
            <AltitudeMeters>81.1999969482421875</AltitudeMeters>
            <DistanceMeters>25385.498753597</DistanceMeters>
          </Trackpoint>
          <Trackpoint>
            <Time>2021-01-13T15:32:40.000Z</Time>
            <Position>
              <LatitudeDegrees>43.3184029720723628997802734375</LatitudeDegrees>
              <LongitudeDegrees>-3.8722902350127696990966796875</LongitudeDegrees>
            </Position>
            <AltitudeMeters>81.1999969482421875</AltitudeMeters>
            <DistanceMeters>25392.085140105</DistanceMeters>
          </Trackpoint>
          <Trackpoint>
            <Time>2021-01-13T15:32:47.000Z</Time>
            <Position>
              <LatitudeDegrees>43.31852911971509456634521484375</LatitudeDegrees>
              <LongitudeDegrees>-3.87174616567790508270263671875</LongitudeDegrees>
            </Position>
            <AltitudeMeters>81.1999969482421875</AltitudeMeters>
            <DistanceMeters>25438.325963422</DistanceMeters>
          </Trackpoint>
          <Trackpoint>
            <Time>2021-01-13T15:32:55.000Z</Time>
            <Position>
              <LatitudeDegrees>43.3186735399067401885986328125</LatitudeDegrees>
              <LongitudeDegrees>-3.8711244799196720123291015625</LongitudeDegrees>
            </Position>
            <AltitudeMeters>81.40000152587890625</AltitudeMeters>
            <DistanceMeters>25491.17260818</DistanceMeters>
          </Trackpoint>
          <Trackpoint>
            <Time>2021-01-13T15:32:56.000Z</Time>
            <Position>
              <LatitudeDegrees>43.31869323737919330596923828125</LatitudeDegrees>
              <LongitudeDegrees>-3.871046863496303558349609375</LongitudeDegrees>
            </Position>
            <AltitudeMeters>81.40000152587890625</AltitudeMeters>
            <DistanceMeters>25497.829227826</DistanceMeters>
          </Trackpoint>
          <Trackpoint>
            <Time>2021-01-13T15:33:05.000Z</Time>
            <Position>
              <LatitudeDegrees>43.3188866078853607177734375</LatitudeDegrees>
              <LongitudeDegrees>-3.87034119106829166412353515625</LongitudeDegrees>
            </Position>
            <AltitudeMeters>81.59999847412109375</AltitudeMeters>
            <DistanceMeters>25558.891563717</DistanceMeters>
          </Trackpoint>
          <Trackpoint>
            <Time>2021-01-13T15:33:06.000Z</Time>
            <Position>
              <LatitudeDegrees>43.3189112506806850433349609375</LatitudeDegrees>
              <LongitudeDegrees>-3.87026927433907985687255859375</LongitudeDegrees>
            </Position>
            <AltitudeMeters>81.59999847412109375</AltitudeMeters>
            <DistanceMeters>25565.328177013</DistanceMeters>
          </Trackpoint>
          <Trackpoint>
            <Time>2021-01-13T15:33:14.000Z</Time>
            <Position>
              <LatitudeDegrees>43.31913764588534832000732421875</LatitudeDegrees>
              <LongitudeDegrees>-3.86972009204328060150146484375</LongitudeDegrees>
            </Position>
            <AltitudeMeters>81.40000152587890625</AltitudeMeters>
            <DistanceMeters>25616.442215469</DistanceMeters>
          </Trackpoint>
          <Trackpoint>
            <Time>2021-01-13T15:33:22.000Z</Time>
            <Position>
              <LatitudeDegrees>43.31938072107732295989990234375</LatitudeDegrees>
              <LongitudeDegrees>-3.86921214871108531951904296875</LongitudeDegrees>
            </Position>
            <AltitudeMeters>81.1999969482421875</AltitudeMeters>
            <DistanceMeters>25665.674124619</DistanceMeters>
          </Trackpoint>
          <Trackpoint>
            <Time>2021-01-13T15:33:24.000Z</Time>
            <Position>
              <LatitudeDegrees>43.31945263780653476715087890625</LatitudeDegrees>
              <LongitudeDegrees>-3.869102261960506439208984375</LongitudeDegrees>
            </Position>
            <AltitudeMeters>81.1999969482421875</AltitudeMeters>
            <DistanceMeters>25677.643341919</DistanceMeters>
          </Trackpoint>
          <Trackpoint>
            <Time>2021-01-13T15:33:30.000Z</Time>
            <Position>
              <LatitudeDegrees>43.31968230195343494415283203125</LatitudeDegrees>
              <LongitudeDegrees>-3.86881291866302490234375</LongitudeDegrees>
            </Position>
            <AltitudeMeters>81.1999969482421875</AltitudeMeters>
            <DistanceMeters>25712.318849108</DistanceMeters>
          </Trackpoint>
          <Trackpoint>
            <Time>2021-01-13T15:33:36.000Z</Time>
            <Position>
              <LatitudeDegrees>43.319942057132720947265625</LatitudeDegrees>
              <LongitudeDegrees>-3.86851863004267215728759765625</LongitudeDegrees>
            </Position>
            <AltitudeMeters>81.1999969482421875</AltitudeMeters>
            <DistanceMeters>25749.785413447</DistanceMeters>
          </Trackpoint>
          <Trackpoint>
            <Time>2021-01-13T15:33:40.000Z</Time>
            <Position>
              <LatitudeDegrees>43.320113383233547210693359375</LatitudeDegrees>
              <LongitudeDegrees>-3.8683369942009449005126953125</LongitudeDegrees>
            </Position>
            <AltitudeMeters>81.1999969482421875</AltitudeMeters>
            <DistanceMeters>25773.867515298</DistanceMeters>
          </Trackpoint>
          <Trackpoint>
            <Time>2021-01-13T15:33:43.000Z</Time>
            <Position>
              <LatitudeDegrees>43.32023768685758113861083984375</LatitudeDegrees>
              <LongitudeDegrees>-3.8681867904961109161376953125</LongitudeDegrees>
            </Position>
            <AltitudeMeters>81.40000152587890625</AltitudeMeters>
            <DistanceMeters>25792.288977584</DistanceMeters>
          </Trackpoint>
          <Trackpoint>
            <Time>2021-01-13T15:33:50.000Z</Time>
            <Position>
              <LatitudeDegrees>43.32049232907593250274658203125</LatitudeDegrees>
              <LongitudeDegrees>-3.86780952103435993194580078125</LongitudeDegrees>
            </Position>
            <AltitudeMeters>81.40000152587890625</AltitudeMeters>
            <DistanceMeters>25833.960981865</DistanceMeters>
          </Trackpoint>
          <Trackpoint>
            <Time>2021-01-13T15:33:53.000Z</Time>
            <Position>
              <LatitudeDegrees>43.3205980248749256134033203125</LatitudeDegrees>
              <LongitudeDegrees>-3.86765881441533565521240234375</LongitudeDegrees>
            </Position>
            <AltitudeMeters>81.59999847412109375</AltitudeMeters>
            <DistanceMeters>25850.911467766</DistanceMeters>
          </Trackpoint>
          <Trackpoint>
            <Time>2021-01-13T15:33:56.000Z</Time>
            <Position>
              <LatitudeDegrees>43.32067924551665782928466796875</LatitudeDegrees>
              <LongitudeDegrees>-3.8674548827111721038818359375</LongitudeDegrees>
            </Position>
            <AltitudeMeters>81.59999847412109375</AltitudeMeters>
            <DistanceMeters>25869.737312774</DistanceMeters>
          </Trackpoint>
          <Trackpoint>
            <Time>2021-01-13T15:34:02.000Z</Time>
            <Position>
              <LatitudeDegrees>43.32078737206757068634033203125</LatitudeDegrees>
              <LongitudeDegrees>-3.86700309813022613525390625</LongitudeDegrees>
            </Position>
            <AltitudeMeters>81.8000030517578125</AltitudeMeters>
            <DistanceMeters>25908.249284884</DistanceMeters>
          </Trackpoint>
          <Trackpoint>
            <Time>2021-01-13T15:34:03.000Z</Time>
            <Position>
              <LatitudeDegrees>43.32080011256039142608642578125</LatitudeDegrees>
              <LongitudeDegrees>-3.86693126522004604339599609375</LongitudeDegrees>
            </Position>
            <AltitudeMeters>81.8000030517578125</AltitudeMeters>
            <DistanceMeters>25914.235967889</DistanceMeters>
          </Trackpoint>
          <Trackpoint>
            <Time>2021-01-13T15:34:09.000Z</Time>
            <Position>
              <LatitudeDegrees>43.32088979892432689666748046875</LatitudeDegrees>
              <LongitudeDegrees>-3.86648048646748065948486328125</LongitudeDegrees>
            </Position>
            <AltitudeMeters>81.8000030517578125</AltitudeMeters>
            <DistanceMeters>25952.078082561</DistanceMeters>
          </Trackpoint>
          <Trackpoint>
            <Time>2021-01-13T15:34:16.000Z</Time>
            <Position>
              <LatitudeDegrees>43.32098132930696010589599609375</LatitudeDegrees>
              <LongitudeDegrees>-3.86595569550991058349609375</LongitudeDegrees>
            </Position>
            <AltitudeMeters>81.8000030517578125</AltitudeMeters>
            <DistanceMeters>25995.77694142</DistanceMeters>
          </Trackpoint>
          <Trackpoint>
            <Time>2021-01-13T15:34:22.000Z</Time>
            <Position>
              <LatitudeDegrees>43.321066908538341522216796875</LatitudeDegrees>
              <LongitudeDegrees>-3.8654998876154422760009765625</LongitudeDegrees>
            </Position>
            <AltitudeMeters>81.8000030517578125</AltitudeMeters>
            <DistanceMeters>26033.894974557</DistanceMeters>
          </Trackpoint>
          <Trackpoint>
            <Time>2021-01-13T15:34:25.000Z</Time>
            <Position>
              <LatitudeDegrees>43.321103118360042572021484375</LatitudeDegrees>
              <LongitudeDegrees>-3.86526041664183139801025390625</LongitudeDegrees>
            </Position>
            <AltitudeMeters>81.8000030517578125</AltitudeMeters>
            <DistanceMeters>26053.700238013</DistanceMeters>
          </Trackpoint>
          <Trackpoint>
            <Time>2021-01-13T15:34:27.000Z</Time>
            <Position>
              <LatitudeDegrees>43.3210928924381732940673828125</LatitudeDegrees>
              <LongitudeDegrees>-3.8650975562632083892822265625</LongitudeDegrees>
            </Position>
            <AltitudeMeters>81.8000030517578125</AltitudeMeters>
            <DistanceMeters>26066.936951096</DistanceMeters>
          </Trackpoint>
          <Trackpoint>
            <Time>2021-01-13T15:34:30.000Z</Time>
            <Position>
              <LatitudeDegrees>43.32106850109994411468505859375</LatitudeDegrees>
              <LongitudeDegrees>-3.86486864648759365081787109375</LongitudeDegrees>
            </Position>
            <AltitudeMeters>82</AltitudeMeters>
            <DistanceMeters>26085.670474281</DistanceMeters>
          </Trackpoint>
          <Trackpoint>
            <Time>2021-01-13T15:34:32.000Z</Time>
            <Position>
              <LatitudeDegrees>43.32103095017373561859130859375</LatitudeDegrees>
              <LongitudeDegrees>-3.86472883634269237518310546875</LongitudeDegrees>
            </Position>
            <AltitudeMeters>82</AltitudeMeters>
            <DistanceMeters>26097.738492879</DistanceMeters>
          </Trackpoint>
          <Trackpoint>
            <Time>2021-01-13T15:34:34.000Z</Time>
            <Position>
              <LatitudeDegrees>43.3209842629730701446533203125</LatitudeDegrees>
              <LongitudeDegrees>-3.8645976595580577850341796875</LongitudeDegrees>
            </Position>
            <AltitudeMeters>82</AltitudeMeters>
            <DistanceMeters>26109.563115649</DistanceMeters>
          </Trackpoint>
          <Trackpoint>
            <Time>2021-01-13T15:34:38.000Z</Time>
            <Position>
              <LatitudeDegrees>43.3208816684782505035400390625</LatitudeDegrees>
              <LongitudeDegrees>-3.8643733598291873931884765625</LongitudeDegrees>
            </Position>
            <AltitudeMeters>81.8000030517578125</AltitudeMeters>
            <DistanceMeters>26131.016856497</DistanceMeters>
          </Trackpoint>
          <Trackpoint>
            <Time>2021-01-13T15:34:39.000Z</Time>
            <Position>
              <LatitudeDegrees>43.3208575285971164703369140625</LatitudeDegrees>
              <LongitudeDegrees>-3.8643227331340312957763671875</LongitudeDegrees>
            </Position>
            <AltitudeMeters>81.8000030517578125</AltitudeMeters>
            <DistanceMeters>26135.91787714</DistanceMeters>
          </Trackpoint>
          <Trackpoint>
            <Time>2021-01-13T15:34:42.000Z</Time>
            <Position>
              <LatitudeDegrees>43.32079558633267879486083984375</LatitudeDegrees>
              <LongitudeDegrees>-3.864145539700984954833984375</LongitudeDegrees>
            </Position>
            <AltitudeMeters>81.40000152587890625</AltitudeMeters>
            <DistanceMeters>26151.836482769</DistanceMeters>
          </Trackpoint>
          <Trackpoint>
            <Time>2021-01-13T15:34:47.000Z</Time>
            <Position>
              <LatitudeDegrees>43.3207116834819316864013671875</LatitudeDegrees>
              <LongitudeDegrees>-3.86383297853171825408935546875</LongitudeDegrees>
            </Position>
            <AltitudeMeters>81.1999969482421875</AltitudeMeters>
            <DistanceMeters>26178.814029749</DistanceMeters>
          </Trackpoint>
          <Trackpoint>
            <Time>2021-01-13T15:34:48.000Z</Time>
            <Position>
              <LatitudeDegrees>43.320701122283935546875</LatitudeDegrees>
              <LongitudeDegrees>-3.863761983811855316162109375</LongitudeDegrees>
            </Position>
            <AltitudeMeters>81.1999969482421875</AltitudeMeters>
            <DistanceMeters>26184.681881271</DistanceMeters>
          </Trackpoint>
          <Trackpoint>
            <Time>2021-01-13T15:34:51.000Z</Time>
            <Position>
              <LatitudeDegrees>43.32067572511732578277587890625</LatitudeDegrees>
              <LongitudeDegrees>-3.8635401986539363861083984375</LongitudeDegrees>
            </Position>
            <AltitudeMeters>81.1999969482421875</AltitudeMeters>
            <DistanceMeters>26202.862058883</DistanceMeters>
          </Trackpoint>
          <Trackpoint>
            <Time>2021-01-13T15:34:54.000Z</Time>
            <Position>
              <LatitudeDegrees>43.32068108953535556793212890625</LatitudeDegrees>
              <LongitudeDegrees>-3.86332268826663494110107421875</LongitudeDegrees>
            </Position>
            <AltitudeMeters>81.1999969482421875</AltitudeMeters>
            <DistanceMeters>26220.484839284</DistanceMeters>
          </Trackpoint>
          <Trackpoint>
            <Time>2021-01-13T15:35:01.000Z</Time>
            <Position>
              <LatitudeDegrees>43.320719562470912933349609375</LatitudeDegrees>
              <LongitudeDegrees>-3.8628275692462921142578125</LongitudeDegrees>
            </Position>
            <AltitudeMeters>82.1999969482421875</AltitudeMeters>
            <DistanceMeters>26260.805067241</DistanceMeters>
          </Trackpoint>
          <Trackpoint>
            <Time>2021-01-13T15:35:08.000Z</Time>
            <Position>
              <LatitudeDegrees>43.32085945643484592437744140625</LatitudeDegrees>
              <LongitudeDegrees>-3.86237821541726589202880859375</LongitudeDegrees>
            </Position>
            <AltitudeMeters>82.59999847412109375</AltitudeMeters>
            <DistanceMeters>26300.382866704</DistanceMeters>
          </Trackpoint>
          <Trackpoint>
            <Time>2021-01-13T15:35:09.000Z</Time>
            <Position>
              <LatitudeDegrees>43.32088560797274112701416015625</LatitudeDegrees>
              <LongitudeDegrees>-3.86231727898120880126953125</LongitudeDegrees>
            </Position>
            <AltitudeMeters>82.8000030517578125</AltitudeMeters>
            <DistanceMeters>26306.111330529</DistanceMeters>
          </Trackpoint>
          <Trackpoint>
            <Time>2021-01-13T15:35:15.000Z</Time>
            <Position>
              <LatitudeDegrees>43.3210860192775726318359375</LatitudeDegrees>
              <LongitudeDegrees>-3.86198728345334529876708984375</LongitudeDegrees>
            </Position>
            <AltitudeMeters>83</AltitudeMeters>
            <DistanceMeters>26340.91939679</DistanceMeters>
          </Trackpoint>
          <Trackpoint>
            <Time>2021-01-13T15:35:25.000Z</Time>
            <Position>
              <LatitudeDegrees>43.3214502967894077301025390625</LatitudeDegrees>
              <LongitudeDegrees>-3.86149308644235134124755859375</LongitudeDegrees>
            </Position>
            <AltitudeMeters>83.40000152587890625</AltitudeMeters>
            <DistanceMeters>26397.88654489</DistanceMeters>
          </Trackpoint>
          <Trackpoint>
            <Time>2021-01-13T15:35:34.000Z</Time>
            <Position>
              <LatitudeDegrees>43.32179152406752109527587890625</LatitudeDegrees>
              <LongitudeDegrees>-3.861034177243709564208984375</LongitudeDegrees>
            </Position>
            <AltitudeMeters>83.59999847412109375</AltitudeMeters>
            <DistanceMeters>26451.020840785</DistanceMeters>
          </Trackpoint>
          <Trackpoint>
            <Time>2021-01-13T15:35:35.000Z</Time>
            <Position>
              <LatitudeDegrees>43.32182505168020725250244140625</LatitudeDegrees>
              <LongitudeDegrees>-3.86097206734120845794677734375</LongitudeDegrees>
            </Position>
            <AltitudeMeters>83.8000030517578125</AltitudeMeters>
            <DistanceMeters>26457.282517231</DistanceMeters>
          </Trackpoint>
          <Trackpoint>
            <Time>2021-01-13T15:35:37.000Z</Time>
            <Position>
              <LatitudeDegrees>43.32188540138304233551025390625</LatitudeDegrees>
              <LongitudeDegrees>-3.8608432374894618988037109375</LongitudeDegrees>
            </Position>
            <AltitudeMeters>83.8000030517578125</AltitudeMeters>
            <DistanceMeters>26469.689236502</DistanceMeters>
          </Trackpoint>
          <Trackpoint>
            <Time>2021-01-13T15:35:43.000Z</Time>
            <Position>
              <LatitudeDegrees>43.322054632008075714111328125</LatitudeDegrees>
              <LongitudeDegrees>-3.86047015897929668426513671875</LongitudeDegrees>
            </Position>
            <AltitudeMeters>84</AltitudeMeters>
            <DistanceMeters>26505.289647863</DistanceMeters>
          </Trackpoint>
          <Trackpoint>
            <Time>2021-01-13T15:35:50.000Z</Time>
            <Position>
              <LatitudeDegrees>43.322212882339954376220703125</LatitudeDegrees>
              <LongitudeDegrees>-3.86008945293724536895751953125</LongitudeDegrees>
            </Position>
            <AltitudeMeters>84.40000152587890625</AltitudeMeters>
            <DistanceMeters>26540.793541043</DistanceMeters>
          </Trackpoint>
          <Trackpoint>
            <Time>2021-01-13T15:35:54.000Z</Time>
            <Position>
              <LatitudeDegrees>43.322291336953639984130859375</LatitudeDegrees>
              <LongitudeDegrees>-3.85987772606313228607177734375</LongitudeDegrees>
            </Position>
            <AltitudeMeters>84.8000030517578125</AltitudeMeters>
            <DistanceMeters>26560.03310688</DistanceMeters>
          </Trackpoint>
          <Trackpoint>
            <Time>2021-01-13T15:35:55.000Z</Time>
            <Position>
              <LatitudeDegrees>43.3223062567412853240966796875</LatitudeDegrees>
              <LongitudeDegrees>-3.85981888510286808013916015625</LongitudeDegrees>
            </Position>
            <AltitudeMeters>84.8000030517578125</AltitudeMeters>
            <DistanceMeters>26565.078479562</DistanceMeters>
          </Trackpoint>
          <Trackpoint>
            <Time>2021-01-13T15:35:56.000Z</Time>
            <Position>
              <LatitudeDegrees>43.32231723703444004058837890625</LatitudeDegrees>
              <LongitudeDegrees>-3.85975585319101810455322265625</LongitudeDegrees>
            </Position>
            <AltitudeMeters>85</AltitudeMeters>
            <DistanceMeters>26570.324780449</DistanceMeters>
          </Trackpoint>
          <Trackpoint>
            <Time>2021-01-13T15:35:59.000Z</Time>
            <Position>
              <LatitudeDegrees>43.32234120927751064300537109375</LatitudeDegrees>
              <LongitudeDegrees>-3.8595473952591419219970703125</LongitudeDegrees>
            </Position>
            <AltitudeMeters>85.8000030517578125</AltitudeMeters>
            <DistanceMeters>26587.413479701</DistanceMeters>
          </Trackpoint>
          <Trackpoint>
            <Time>2021-01-13T15:36:02.000Z</Time>
            <Position>
              <LatitudeDegrees>43.32235780544579029083251953125</LatitudeDegrees>
              <LongitudeDegrees>-3.85933223180472850799560546875</LongitudeDegrees>
            </Position>
            <AltitudeMeters>87</AltitudeMeters>
            <DistanceMeters>26604.933478516</DistanceMeters>
          </Trackpoint>
          <Trackpoint>
            <Time>2021-01-13T15:36:03.000Z</Time>
            <Position>
              <LatitudeDegrees>43.32236032001674175262451171875</LatitudeDegrees>
              <LongitudeDegrees>-3.8592610694468021392822265625</LongitudeDegrees>
            </Position>
            <AltitudeMeters>87.1999969482421875</AltitudeMeters>
            <DistanceMeters>26610.702781921</DistanceMeters>
          </Trackpoint>
          <Trackpoint>
            <Time>2021-01-13T15:36:10.000Z</Time>
            <Position>
              <LatitudeDegrees>43.32240172661840915679931640625</LatitudeDegrees>
              <LongitudeDegrees>-3.85875840671360492706298828125</LongitudeDegrees>
            </Position>
            <AltitudeMeters>87.8000030517578125</AltitudeMeters>
            <DistanceMeters>26651.664697208</DistanceMeters>
          </Trackpoint>
          <Trackpoint>
            <Time>2021-01-13T15:36:17.000Z</Time>
            <Position>
              <LatitudeDegrees>43.32243852317333221435546875</LatitudeDegrees>
              <LongitudeDegrees>-3.85826420970261096954345703125</LongitudeDegrees>
            </Position>
            <AltitudeMeters>87.8000030517578125</AltitudeMeters>
            <DistanceMeters>26691.890303456</DistanceMeters>
          </Trackpoint>
          <Trackpoint>
            <Time>2021-01-13T15:36:23.000Z</Time>
            <Position>
              <LatitudeDegrees>43.32250750623643398284912109375</LatitudeDegrees>
              <LongitudeDegrees>-3.8578212261199951171875</LongitudeDegrees>
            </Position>
            <AltitudeMeters>87.59999847412109375</AltitudeMeters>
            <DistanceMeters>26728.572338445</DistanceMeters>
          </Trackpoint>
          <Trackpoint>
            <Time>2021-01-13T15:36:28.000Z</Time>
            <Position>
              <LatitudeDegrees>43.3225644193589687347412109375</LatitudeDegrees>
              <LongitudeDegrees>-3.85744144208729267120361328125</LongitudeDegrees>
            </Position>
            <AltitudeMeters>87.59999847412109375</AltitudeMeters>
            <DistanceMeters>26759.970004686</DistanceMeters>
          </Trackpoint>
          <Trackpoint>
            <Time>2021-01-13T15:36:32.000Z</Time>
            <Position>
              <LatitudeDegrees>43.322621919214725494384765625</LatitudeDegrees>
              <LongitudeDegrees>-3.85715109296143054962158203125</LongitudeDegrees>
            </Position>
            <AltitudeMeters>87.59999847412109375</AltitudeMeters>
            <DistanceMeters>26784.335788193</DistanceMeters>
          </Trackpoint>
          <Trackpoint>
            <Time>2021-01-13T15:36:37.000Z</Time>
            <Position>
              <LatitudeDegrees>43.3226871304214000701904296875</LatitudeDegrees>
              <LongitudeDegrees>-3.856831826269626617431640625</LongitudeDegrees>
            </Position>
            <AltitudeMeters>87.59999847412109375</AltitudeMeters>
            <DistanceMeters>26811.18735153</DistanceMeters>
          </Trackpoint>
          <Trackpoint>
            <Time>2021-01-13T15:36:38.000Z</Time>
            <Position>
              <LatitudeDegrees>43.32269811071455478668212890625</LatitudeDegrees>
              <LongitudeDegrees>-3.8567578978836536407470703125</LongitudeDegrees>
            </Position>
            <AltitudeMeters>87.59999847412109375</AltitudeMeters>
            <DistanceMeters>26817.297207176</DistanceMeters>
          </Trackpoint>
          <Trackpoint>
            <Time>2021-01-13T15:36:39.000Z</Time>
            <Position>
              <LatitudeDegrees>43.3227146230638027191162109375</LatitudeDegrees>
              <LongitudeDegrees>-3.85668640024960041046142578125</LongitudeDegrees>
            </Position>
            <AltitudeMeters>87.59999847412109375</AltitudeMeters>
            <DistanceMeters>26823.372231656</DistanceMeters>
          </Trackpoint>
          <Trackpoint>
            <Time>2021-01-13T15:36:41.000Z</Time>
            <Position>
              <LatitudeDegrees>43.3227511681616306304931640625</LatitudeDegrees>
              <LongitudeDegrees>-3.85654516518115997314453125</LongitudeDegrees>
            </Position>
            <AltitudeMeters>87.59999847412109375</AltitudeMeters>
            <DistanceMeters>26835.510383379</DistanceMeters>
          </Trackpoint>
          <Trackpoint>
            <Time>2021-01-13T15:36:43.000Z</Time>
            <Position>
              <LatitudeDegrees>43.32277606241405010223388671875</LatitudeDegrees>
              <LongitudeDegrees>-3.85639722459018230438232421875</LongitudeDegrees>
            </Position>
            <AltitudeMeters>87.8000030517578125</AltitudeMeters>
            <DistanceMeters>26847.805606425</DistanceMeters>
          </Trackpoint>
          <Trackpoint>
            <Time>2021-01-13T15:36:49.000Z</Time>
            <Position>
              <LatitudeDegrees>43.3228641562163829803466796875</LatitudeDegrees>
              <LongitudeDegrees>-3.85596103034913539886474609375</LongitudeDegrees>
            </Position>
            <AltitudeMeters>87.8000030517578125</AltitudeMeters>
            <DistanceMeters>26884.460798885</DistanceMeters>
          </Trackpoint>
          <Trackpoint>
            <Time>2021-01-13T15:36:54.000Z</Time>
            <Position>
              <LatitudeDegrees>43.32293800078332424163818359375</LatitudeDegrees>
              <LongitudeDegrees>-3.8556018657982349395751953125</LongitudeDegrees>
            </Position>
            <AltitudeMeters>88</AltitudeMeters>
            <DistanceMeters>26914.682282168</DistanceMeters>
          </Trackpoint>
          <Trackpoint>
            <Time>2021-01-13T15:36:56.000Z</Time>
            <Position>
              <LatitudeDegrees>43.32297203131020069122314453125</LatitudeDegrees>
              <LongitudeDegrees>-3.8554640673100948333740234375</LongitudeDegrees>
            </Position>
            <AltitudeMeters>88</AltitudeMeters>
            <DistanceMeters>26926.46559475</DistanceMeters>
          </Trackpoint>
          <Trackpoint>
            <Time>2021-01-13T15:37:00.000Z</Time>
            <Position>
              <LatitudeDegrees>43.32304914481937885284423828125</LatitudeDegrees>
              <LongitudeDegrees>-3.855213783681392669677734375</LongitudeDegrees>
            </Position>
            <AltitudeMeters>88</AltitudeMeters>
            <DistanceMeters>26948.473872065</DistanceMeters>
          </Trackpoint>
          <Trackpoint>
            <Time>2021-01-13T15:37:01.000Z</Time>
            <Position>
              <LatitudeDegrees>43.32306188531219959259033203125</LatitudeDegrees>
              <LongitudeDegrees>-3.85515846312046051025390625</LongitudeDegrees>
            </Position>
            <AltitudeMeters>88</AltitudeMeters>
            <DistanceMeters>26953.171691435</DistanceMeters>
          </Trackpoint>
          <Trackpoint>
            <Time>2021-01-13T15:37:03.000Z</Time>
            <Position>
              <LatitudeDegrees>43.3230891264975070953369140625</LatitudeDegrees>
              <LongitudeDegrees>-3.85506953112781047821044921875</LongitudeDegrees>
            </Position>
            <AltitudeMeters>88</AltitudeMeters>
            <DistanceMeters>26960.98471369</DistanceMeters>
          </Trackpoint>
          <Trackpoint>
            <Time>2021-01-13T15:37:05.000Z</Time>
            <Position>
              <LatitudeDegrees>43.32314302213490009307861328125</LatitudeDegrees>
              <LongitudeDegrees>-3.855004571378231048583984375</LongitudeDegrees>
            </Position>
            <AltitudeMeters>88</AltitudeMeters>
            <DistanceMeters>26968.962431332</DistanceMeters>
          </Trackpoint>
          <Trackpoint>
            <Time>2021-01-13T15:37:08.000Z</Time>
            <Position>
              <LatitudeDegrees>43.3232601173222064971923828125</LatitudeDegrees>
              <LongitudeDegrees>-3.85491027496755123138427734375</LongitudeDegrees>
            </Position>
            <AltitudeMeters>88.1999969482421875</AltitudeMeters>
            <DistanceMeters>26984.06719586</DistanceMeters>
          </Trackpoint>
          <Trackpoint>
            <Time>2021-01-13T15:37:09.000Z</Time>
            <Position>
              <LatitudeDegrees>43.3233010210096836090087890625</LatitudeDegrees>
              <LongitudeDegrees>-3.85487188585102558135986328125</LongitudeDegrees>
            </Position>
            <AltitudeMeters>88.1999969482421875</AltitudeMeters>
            <DistanceMeters>26989.580383441</DistanceMeters>
          </Trackpoint>
          <Trackpoint>
            <Time>2021-01-13T15:37:12.000Z</Time>
            <Position>
              <LatitudeDegrees>43.32339682616293430328369140625</LatitudeDegrees>
              <LongitudeDegrees>-3.8546962849795818328857421875</LongitudeDegrees>
            </Position>
            <AltitudeMeters>88.40000152587890625</AltitudeMeters>
            <DistanceMeters>27007.353681789</DistanceMeters>
          </Trackpoint>
          <Trackpoint>
            <Time>2021-01-13T15:37:15.000Z</Time>
            <Position>
              <LatitudeDegrees>43.323518447577953338623046875</LatitudeDegrees>
              <LongitudeDegrees>-3.8545239530503749847412109375</LongitudeDegrees>
            </Position>
            <AltitudeMeters>88.59999847412109375</AltitudeMeters>
            <DistanceMeters>27026.794716987</DistanceMeters>
          </Trackpoint>
          <Trackpoint>
            <Time>2021-01-13T15:37:17.000Z</Time>
            <Position>
              <LatitudeDegrees>43.3236086368560791015625</LatitudeDegrees>
              <LongitudeDegrees>-3.85441725142300128936767578125</LongitudeDegrees>
            </Position>
            <AltitudeMeters>88.59999847412109375</AltitudeMeters>
            <DistanceMeters>27040.039273038</DistanceMeters>
          </Trackpoint>
          <Trackpoint>
            <Time>2021-01-13T15:37:22.000Z</Time>
            <Position>
              <LatitudeDegrees>43.32386135123670101165771484375</LatitudeDegrees>
              <LongitudeDegrees>-3.8542042672634124755859375</LongitudeDegrees>
            </Position>
            <AltitudeMeters>89</AltitudeMeters>
            <DistanceMeters>27073.032843856</DistanceMeters>
          </Trackpoint>
          <Trackpoint>
            <Time>2021-01-13T15:37:23.000Z</Time>
            <Position>
              <LatitudeDegrees>43.323911726474761962890625</LatitudeDegrees>
              <LongitudeDegrees>-3.85417283512651920318603515625</LongitudeDegrees>
            </Position>
            <AltitudeMeters>89</AltitudeMeters>
            <DistanceMeters>27079.18981234</DistanceMeters>
          </Trackpoint>
          <Trackpoint>
            <Time>2021-01-13T15:37:30.000Z</Time>
            <Position>
              <LatitudeDegrees>43.3242548815906047821044921875</LatitudeDegrees>
              <LongitudeDegrees>-3.85399497114121913909912109375</LongitudeDegrees>
            </Position>
            <AltitudeMeters>89.40000152587890625</AltitudeMeters>
            <DistanceMeters>27120.008625711</DistanceMeters>
          </Trackpoint>
          <Trackpoint>
            <Time>2021-01-13T15:37:31.000Z</Time>
            <Position>
              <LatitudeDegrees>43.3243055082857608795166015625</LatitudeDegrees>
              <LongitudeDegrees>-3.8539821468293666839599609375</LongitudeDegrees>
            </Position>
            <AltitudeMeters>89.40000152587890625</AltitudeMeters>
            <DistanceMeters>27125.738665672</DistanceMeters>
          </Trackpoint>
          <Trackpoint>
            <Time>2021-01-13T15:37:36.000Z</Time>
            <Position>
              <LatitudeDegrees>43.32455738447606563568115234375</LatitudeDegrees>
              <LongitudeDegrees>-3.85396982543170452117919921875</LongitudeDegrees>
            </Position>
            <AltitudeMeters>89.8000030517578125</AltitudeMeters>
            <DistanceMeters>27153.790706268</DistanceMeters>
          </Trackpoint>
          <Trackpoint>
            <Time>2021-01-13T15:37:40.000Z</Time>
            <Position>
              <LatitudeDegrees>43.3247282914817333221435546875</LatitudeDegrees>
              <LongitudeDegrees>-3.85402045212686061859130859375</LongitudeDegrees>
            </Position>
            <AltitudeMeters>90</AltitudeMeters>
            <DistanceMeters>27173.249847964</DistanceMeters>
          </Trackpoint>
          <Trackpoint>
            <Time>2021-01-13T15:37:41.000Z</Time>
            <Position>
              <LatitudeDegrees>43.32477078773081302642822265625</LatitudeDegrees>
              <LongitudeDegrees>-3.854028917849063873291015625</LongitudeDegrees>
            </Position>
            <AltitudeMeters>90.1999969482421875</AltitudeMeters>
            <DistanceMeters>27178.028661972</DistanceMeters>
          </Trackpoint>
          <Trackpoint>
            <Time>2021-01-13T15:37:44.000Z</Time>
            <Position>
              <LatitudeDegrees>43.32489165477454662322998046875</LatitudeDegrees>
              <LongitudeDegrees>-3.85395892895758152008056640625</LongitudeDegrees>
            </Position>
            <AltitudeMeters>90.40000152587890625</AltitudeMeters>
            <DistanceMeters>27192.626014946</DistanceMeters>
          </Trackpoint>
          <Trackpoint>
            <Time>2021-01-13T15:37:49.000Z</Time>
            <Position>
              <LatitudeDegrees>43.3250354044139385223388671875</LatitudeDegrees>
              <LongitudeDegrees>-3.8536383211612701416015625</LongitudeDegrees>
            </Position>
            <AltitudeMeters>90.8000030517578125</AltitudeMeters>
            <DistanceMeters>27223.119819593</DistanceMeters>
          </Trackpoint>
          <Trackpoint>
            <Time>2021-01-13T15:37:55.000Z</Time>
            <Position>
              <LatitudeDegrees>43.32519055344164371490478515625</LatitudeDegrees>
              <LongitudeDegrees>-3.85329273529350757598876953125</LongitudeDegrees>
            </Position>
            <AltitudeMeters>91</AltitudeMeters>
            <DistanceMeters>27256.001122528</DistanceMeters>
          </Trackpoint>
          <Trackpoint>
            <Time>2021-01-13T15:37:59.000Z</Time>
            <Position>
              <LatitudeDegrees>43.325255848467350006103515625</LatitudeDegrees>
              <LongitudeDegrees>-3.85314957238733768463134765625</LongitudeDegrees>
            </Position>
            <AltitudeMeters>90.8000030517578125</AltitudeMeters>
            <DistanceMeters>27269.682659525</DistanceMeters>
          </Trackpoint>
          <Trackpoint>
            <Time>2021-01-13T15:38:02.000Z</Time>
            <Position>
              <LatitudeDegrees>43.32527671940624713897705078125</LatitudeDegrees>
              <LongitudeDegrees>-3.85310917161405086517333984375</LongitudeDegrees>
            </Position>
            <AltitudeMeters>90.8000030517578125</AltitudeMeters>
            <DistanceMeters>27273.696343167</DistanceMeters>
          </Trackpoint>
          <Trackpoint>
            <Time>2021-01-13T15:38:05.000Z</Time>
            <Position>
              <LatitudeDegrees>43.32529105246067047119140625</LatitudeDegrees>
              <LongitudeDegrees>-3.85307832621037960052490234375</LongitudeDegrees>
            </Position>
            <AltitudeMeters>90.59999847412109375</AltitudeMeters>
            <DistanceMeters>27276.660506519</DistanceMeters>
          </Trackpoint>
          <Trackpoint>
            <Time>2021-01-13T15:38:08.000Z</Time>
            <Position>
              <LatitudeDegrees>43.325302116572856903076171875</LatitudeDegrees>
              <LongitudeDegrees>-3.85306122712790966033935546875</LongitudeDegrees>
            </Position>
            <AltitudeMeters>90</AltitudeMeters>
            <DistanceMeters>27278.512918204</DistanceMeters>
          </Trackpoint>
          <Trackpoint>
            <Time>2021-01-13T15:38:09.000Z</Time>
            <Position>
              <LatitudeDegrees>43.3253032900393009185791015625</LatitudeDegrees>
              <LongitudeDegrees>-3.85306139476597309112548828125</LongitudeDegrees>
            </Position>
            <AltitudeMeters>90</AltitudeMeters>
            <DistanceMeters>27278.647306272</DistanceMeters>
          </Trackpoint>
          <Trackpoint>
            <Time>2021-01-13T15:38:30.000Z</Time>
            <Position>
              <LatitudeDegrees>43.325323574244976043701171875</LatitudeDegrees>
              <LongitudeDegrees>-3.853035159409046173095703125</LongitudeDegrees>
            </Position>
            <AltitudeMeters>89.59999847412109375</AltitudeMeters>
            <DistanceMeters>27281.74698389</DistanceMeters>
          </Trackpoint>
          <Trackpoint>
            <Time>2021-01-13T15:38:31.000Z</Time>
            <Position>
              <LatitudeDegrees>43.32533665001392364501953125</LatitudeDegrees>
              <LongitudeDegrees>-3.85300875641405582427978515625</LongitudeDegrees>
            </Position>
            <AltitudeMeters>89.59999847412109375</AltitudeMeters>
            <DistanceMeters>27284.331989996</DistanceMeters>
          </Trackpoint>
          <Trackpoint>
            <Time>2021-01-13T15:38:34.000Z</Time>
            <Position>
              <LatitudeDegrees>43.32539423368871212005615234375</LatitudeDegrees>
              <LongitudeDegrees>-3.852888308465480804443359375</LongitudeDegrees>
            </Position>
            <AltitudeMeters>89.59999847412109375</AltitudeMeters>
            <DistanceMeters>27296.002106231</DistanceMeters>
          </Trackpoint>
          <Trackpoint>
            <Time>2021-01-13T15:38:35.000Z</Time>
            <Position>
              <LatitudeDegrees>43.32541711628437042236328125</LatitudeDegrees>
              <LongitudeDegrees>-3.8528351671993732452392578125</LongitudeDegrees>
            </Position>
            <AltitudeMeters>89.59999847412109375</AltitudeMeters>
            <DistanceMeters>27301.001631368</DistanceMeters>
          </Trackpoint>
          <Trackpoint>
            <Time>2021-01-13T15:38:37.000Z</Time>
            <Position>
              <LatitudeDegrees>43.32547050900757312774658203125</LatitudeDegrees>
              <LongitudeDegrees>-3.8527141325175762176513671875</LongitudeDegrees>
            </Position>
            <AltitudeMeters>89.8000030517578125</AltitudeMeters>
            <DistanceMeters>27312.462893167</DistanceMeters>
          </Trackpoint>
          <Trackpoint>
            <Time>2021-01-13T15:38:40.000Z</Time>
            <Position>
              <LatitudeDegrees>43.32553974352777004241943359375</LatitudeDegrees>
              <LongitudeDegrees>-3.85254062712192535400390625</LongitudeDegrees>
            </Position>
            <AltitudeMeters>89.8000030517578125</AltitudeMeters>
            <DistanceMeters>27328.486099259</DistanceMeters>
          </Trackpoint>
          <Trackpoint>
            <Time>2021-01-13T15:38:41.000Z</Time>
            <Position>
              <LatitudeDegrees>43.32556053064763545989990234375</LatitudeDegrees>
              <LongitudeDegrees>-3.85248857550323009490966796875</LongitudeDegrees>
            </Position>
            <AltitudeMeters>89.8000030517578125</AltitudeMeters>
            <DistanceMeters>27333.294112954</DistanceMeters>
          </Trackpoint>
          <Trackpoint>
            <Time>2021-01-13T15:38:45.000Z</Time>
            <Position>
              <LatitudeDegrees>43.32562674768269062042236328125</LatitudeDegrees>
              <LongitudeDegrees>-3.85234105400741100311279296875</LongitudeDegrees>
            </Position>
            <AltitudeMeters>90</AltitudeMeters>
            <DistanceMeters>27347.329143683</DistanceMeters>
          </Trackpoint>
          <Trackpoint>
            <Time>2021-01-13T15:38:47.000Z</Time>
            <Position>
              <LatitudeDegrees>43.325660862028598785400390625</LatitudeDegrees>
              <LongitudeDegrees>-3.85229428298771381378173828125</LongitudeDegrees>
            </Position>
            <AltitudeMeters>90</AltitudeMeters>
            <DistanceMeters>27352.691210765</DistanceMeters>
          </Trackpoint>
          <Trackpoint>
            <Time>2021-01-13T15:38:49.000Z</Time>
            <Position>
              <LatitudeDegrees>43.32571576349437236785888671875</LatitudeDegrees>
              <LongitudeDegrees>-3.85223753750324249267578125</LongitudeDegrees>
            </Position>
            <AltitudeMeters>90.1999969482421875</AltitudeMeters>
            <DistanceMeters>27360.337171457</DistanceMeters>
          </Trackpoint>
          <Trackpoint>
            <Time>2021-01-13T15:38:52.000Z</Time>
            <Position>
              <LatitudeDegrees>43.32584358751773834228515625</LatitudeDegrees>
              <LongitudeDegrees>-3.85212798602879047393798828125</LongitudeDegrees>
            </Position>
            <AltitudeMeters>90.1999969482421875</AltitudeMeters>
            <DistanceMeters>27377.102857233</DistanceMeters>
          </Trackpoint>
          <Trackpoint>
            <Time>2021-01-13T15:38:53.000Z</Time>
            <Position>
              <LatitudeDegrees>43.32589563913643360137939453125</LatitudeDegrees>
              <LongitudeDegrees>-3.85210133157670497894287109375</LongitudeDegrees>
            </Position>
            <AltitudeMeters>90.1999969482421875</AltitudeMeters>
            <DistanceMeters>27383.285438699</DistanceMeters>
          </Trackpoint>
          <Trackpoint>
            <Time>2021-01-13T15:38:56.000Z</Time>
            <Position>
              <LatitudeDegrees>43.32605456002056598663330078125</LatitudeDegrees>
              <LongitudeDegrees>-3.852044083178043365478515625</LongitudeDegrees>
            </Position>
            <AltitudeMeters>90.1999969482421875</AltitudeMeters>
            <DistanceMeters>27401.570860228</DistanceMeters>
          </Trackpoint>
          <Trackpoint>
            <Time>2021-01-13T15:38:58.000Z</Time>
            <Position>
              <LatitudeDegrees>43.3261652849614620208740234375</LatitudeDegrees>
              <LongitudeDegrees>-3.85201030410826206207275390625</LongitudeDegrees>
            </Position>
            <AltitudeMeters>90.40000152587890625</AltitudeMeters>
            <DistanceMeters>27414.194757767</DistanceMeters>
          </Trackpoint>
          <Trackpoint>
            <Time>2021-01-13T15:39:00.000Z</Time>
            <Position>
              <LatitudeDegrees>43.32627835683524608612060546875</LatitudeDegrees>
              <LongitudeDegrees>-3.8519822247326374053955078125</LongitudeDegrees>
            </Position>
            <AltitudeMeters>90.40000152587890625</AltitudeMeters>
            <DistanceMeters>27426.983531929</DistanceMeters>
          </Trackpoint>
          <Trackpoint>
            <Time>2021-01-13T15:39:03.000Z</Time>
            <Position>
              <LatitudeDegrees>43.3264405466616153717041015625</LatitudeDegrees>
              <LongitudeDegrees>-3.85193168185651302337646484375</LongitudeDegrees>
            </Position>
            <AltitudeMeters>90.8000030517578125</AltitudeMeters>
            <DistanceMeters>27445.493750472</DistanceMeters>
          </Trackpoint>
          <Trackpoint>
            <Time>2021-01-13T15:39:07.000Z</Time>
            <Position>
              <LatitudeDegrees>43.32664816640317440032958984375</LatitudeDegrees>
              <LongitudeDegrees>-3.85187820531427860260009765625</LongitudeDegrees>
            </Position>
            <AltitudeMeters>91.1999969482421875</AltitudeMeters>
            <DistanceMeters>27469.004557973</DistanceMeters>
          </Trackpoint>
          <Trackpoint>
            <Time>2021-01-13T15:39:13.000Z</Time>
            <Position>
              <LatitudeDegrees>43.32697774283587932586669921875</LatitudeDegrees>
              <LongitudeDegrees>-3.85181584395468235015869140625</LongitudeDegrees>
            </Position>
            <AltitudeMeters>91.59999847412109375</AltitudeMeters>
            <DistanceMeters>27506.032799721</DistanceMeters>
          </Trackpoint>
          <Trackpoint>
            <Time>2021-01-13T15:39:19.000Z</Time>
            <Position>
              <LatitudeDegrees>43.32730195485055446624755859375</LatitudeDegrees>
              <LongitudeDegrees>-3.85173738934099674224853515625</LongitudeDegrees>
            </Position>
            <AltitudeMeters>91.8000030517578125</AltitudeMeters>
            <DistanceMeters>27542.672961633</DistanceMeters>
          </Trackpoint>
          <Trackpoint>
            <Time>2021-01-13T15:39:20.000Z</Time>
            <Position>
              <LatitudeDegrees>43.3273541741073131561279296875</LatitudeDegrees>
              <LongitudeDegrees>-3.8517247326672077178955078125</LongitudeDegrees>
            </Position>
            <AltitudeMeters>92</AltitudeMeters>
            <DistanceMeters>27548.574571993</DistanceMeters>
          </Trackpoint>
          <Trackpoint>
            <Time>2021-01-13T15:39:27.000Z</Time>
            <Position>
              <LatitudeDegrees>43.327712751924991607666015625</LatitudeDegrees>
              <LongitudeDegrees>-3.85162406601011753082275390625</LongitudeDegrees>
            </Position>
            <AltitudeMeters>92.59999847412109375</AltitudeMeters>
            <DistanceMeters>27589.308790368</DistanceMeters>
          </Trackpoint>
          <Trackpoint>
            <Time>2021-01-13T15:39:29.000Z</Time>
            <Position>
              <LatitudeDegrees>43.32781861536204814910888671875</LatitudeDegrees>
              <LongitudeDegrees>-3.851592801511287689208984375</LongitudeDegrees>
            </Position>
            <AltitudeMeters>92.8000030517578125</AltitudeMeters>
            <DistanceMeters>27601.360335892</DistanceMeters>
          </Trackpoint>
          <Trackpoint>
            <Time>2021-01-13T15:39:30.000Z</Time>
            <Position>
              <LatitudeDegrees>43.32787242718040943145751953125</LatitudeDegrees>
              <LongitudeDegrees>-3.85157695971429347991943359375</LongitudeDegrees>
            </Position>
            <AltitudeMeters>93</AltitudeMeters>
            <DistanceMeters>27607.484953231</DistanceMeters>
          </Trackpoint>
          <Trackpoint>
            <Time>2021-01-13T15:39:40.000Z</Time>
            <Position>
              <LatitudeDegrees>43.3283925242722034454345703125</LatitudeDegrees>
              <LongitudeDegrees>-3.8514300249516963958740234375</LongitudeDegrees>
            </Position>
            <AltitudeMeters>93.8000030517578125</AltitudeMeters>
            <DistanceMeters>27666.582555094</DistanceMeters>
          </Trackpoint>
          <Trackpoint>
            <Time>2021-01-13T15:39:41.000Z</Time>
            <Position>
              <LatitudeDegrees>43.3284433186054229736328125</LatitudeDegrees>
              <LongitudeDegrees>-3.85141468606889247894287109375</LongitudeDegrees>
            </Position>
            <AltitudeMeters>94</AltitudeMeters>
            <DistanceMeters>27672.371390356</DistanceMeters>
          </Trackpoint>
          <Trackpoint>
            <Time>2021-01-13T15:39:47.000Z</Time>
            <Position>
              <LatitudeDegrees>43.3287402056157588958740234375</LatitudeDegrees>
              <LongitudeDegrees>-3.85132181458175182342529296875</LongitudeDegrees>
            </Position>
            <AltitudeMeters>95.1999969482421875</AltitudeMeters>
            <DistanceMeters>27706.260240325</DistanceMeters>
          </Trackpoint>
          <Trackpoint>
            <Time>2021-01-13T15:39:51.000Z</Time>
            <Position>
              <LatitudeDegrees>43.328915722668170928955078125</LatitudeDegrees>
              <LongitudeDegrees>-3.85126448236405849456787109375</LongitudeDegrees>
            </Position>
            <AltitudeMeters>95.8000030517578125</AltitudeMeters>
            <DistanceMeters>27726.339454778</DistanceMeters>
          </Trackpoint>
          <Trackpoint>
            <Time>2021-01-13T15:39:53.000Z</Time>
            <Position>
              <LatitudeDegrees>43.32899794913828372955322265625</LatitudeDegrees>
              <LongitudeDegrees>-3.85123313404619693756103515625</LongitudeDegrees>
            </Position>
            <AltitudeMeters>96.1999969482421875</AltitudeMeters>
            <DistanceMeters>27735.836422901</DistanceMeters>
          </Trackpoint>
          <Trackpoint>
            <Time>2021-01-13T15:40:00.000Z</Time>
            <Position>
              <LatitudeDegrees>43.32929701544344425201416015625</LatitudeDegrees>
              <LongitudeDegrees>-3.85114629752933979034423828125</LongitudeDegrees>
            </Position>
            <AltitudeMeters>97.59999847412109375</AltitudeMeters>
            <DistanceMeters>27769.857446521</DistanceMeters>
          </Trackpoint>
          <Trackpoint>
            <Time>2021-01-13T15:40:03.000Z</Time>
            <Position>
              <LatitudeDegrees>43.329427354037761688232421875</LatitudeDegrees>
              <LongitudeDegrees>-3.85110807605087757110595703125</LongitudeDegrees>
            </Position>
            <AltitudeMeters>98.40000152587890625</AltitudeMeters>
            <DistanceMeters>27784.690748333</DistanceMeters>
          </Trackpoint>
          <Trackpoint>
            <Time>2021-01-13T15:40:04.000Z</Time>
            <Position>
              <LatitudeDegrees>43.3294714428484439849853515625</LatitudeDegrees>
              <LongitudeDegrees>-3.8510957546532154083251953125</LongitudeDegrees>
            </Position>
            <AltitudeMeters>98.59999847412109375</AltitudeMeters>
            <DistanceMeters>27789.698394715</DistanceMeters>
          </Trackpoint>
          <Trackpoint>
            <Time>2021-01-13T15:40:08.000Z</Time>
            <Position>
              <LatitudeDegrees>43.3296498097479343414306640625</LatitudeDegrees>
              <LongitudeDegrees>-3.8510431163012981414794921875</LongitudeDegrees>
            </Position>
            <AltitudeMeters>99.8000030517578125</AltitudeMeters>
            <DistanceMeters>27810.003449019</DistanceMeters>
          </Trackpoint>
          <Trackpoint>
            <Time>2021-01-13T15:40:13.000Z</Time>
            <Position>
              <LatitudeDegrees>43.32988039590418338775634765625</LatitudeDegrees>
              <LongitudeDegrees>-3.85097715072333812713623046875</LongitudeDegrees>
            </Position>
            <AltitudeMeters>101</AltitudeMeters>
            <DistanceMeters>27836.218080001</DistanceMeters>
          </Trackpoint>
          <Trackpoint>
            <Time>2021-01-13T15:40:15.000Z</Time>
            <Position>
              <LatitudeDegrees>43.3299694955348968505859375</LatitudeDegrees>
              <LongitudeDegrees>-3.85094203054904937744140625</LongitudeDegrees>
            </Position>
            <AltitudeMeters>101.8000030517578125</AltitudeMeters>
            <DistanceMeters>27846.534498031</DistanceMeters>
          </Trackpoint>
          <Trackpoint>
            <Time>2021-01-13T15:40:16.000Z</Time>
            <Position>
              <LatitudeDegrees>43.33000746555626392364501953125</LatitudeDegrees>
              <LongitudeDegrees>-3.85091026313602924346923828125</LongitudeDegrees>
            </Position>
            <AltitudeMeters>102</AltitudeMeters>
            <DistanceMeters>27851.481366451</DistanceMeters>
          </Trackpoint>
          <Trackpoint>
            <Time>2021-01-13T15:40:19.000Z</Time>
            <Position>
              <LatitudeDegrees>43.3300937153398990631103515625</LatitudeDegrees>
              <LongitudeDegrees>-3.85076911188662052154541015625</LongitudeDegrees>
            </Position>
            <AltitudeMeters>102.40000152587890625</AltitudeMeters>
            <DistanceMeters>27866.406309523</DistanceMeters>
          </Trackpoint>
          <Trackpoint>
            <Time>2021-01-13T15:40:20.000Z</Time>
            <Position>
              <LatitudeDegrees>43.330122716724872589111328125</LatitudeDegrees>
              <LongitudeDegrees>-3.85072032921016216278076171875</LongitudeDegrees>
            </Position>
            <AltitudeMeters>102.40000152587890625</AltitudeMeters>
            <DistanceMeters>27871.507748566</DistanceMeters>
          </Trackpoint>
          <Trackpoint>
            <Time>2021-01-13T15:40:21.000Z</Time>
            <Position>
              <LatitudeDegrees>43.3301580883562564849853515625</LatitudeDegrees>
              <LongitudeDegrees>-3.8506803475320339202880859375</LongitudeDegrees>
            </Position>
            <AltitudeMeters>102.59999847412109375</AltitudeMeters>
            <DistanceMeters>27876.603874532</DistanceMeters>
          </Trackpoint>
          <Trackpoint>
            <Time>2021-01-13T15:40:24.000Z</Time>
            <Position>
              <LatitudeDegrees>43.33029245026409626007080078125</LatitudeDegrees>
              <LongitudeDegrees>-3.8506448082625865936279296875</LongitudeDegrees>
            </Position>
            <AltitudeMeters>102.8000030517578125</AltitudeMeters>
            <DistanceMeters>27891.832776439</DistanceMeters>
          </Trackpoint>
          <Trackpoint>
            <Time>2021-01-13T15:40:25.000Z</Time>
            <Position>
              <LatitudeDegrees>43.3303367905318737030029296875</LatitudeDegrees>
              <LongitudeDegrees>-3.85066232644021511077880859375</LongitudeDegrees>
            </Position>
            <AltitudeMeters>103</AltitudeMeters>
            <DistanceMeters>27896.967737317</DistanceMeters>
          </Trackpoint>
          <Trackpoint>
            <Time>2021-01-13T15:40:27.000Z</Time>
            <Position>
              <LatitudeDegrees>43.3304192684590816497802734375</LatitudeDegrees>
              <LongitudeDegrees>-3.85072083212435245513916015625</LongitudeDegrees>
            </Position>
            <AltitudeMeters>103.1999969482421875</AltitudeMeters>
            <DistanceMeters>27907.298150833</DistanceMeters>
          </Trackpoint>
          <Trackpoint>
            <Time>2021-01-13T15:40:28.000Z</Time>
            <Position>
              <LatitudeDegrees>43.3304618485271930694580078125</LatitudeDegrees>
              <LongitudeDegrees>-3.850749246776103973388671875</LongitudeDegrees>
            </Position>
            <AltitudeMeters>103.1999969482421875</AltitudeMeters>
            <DistanceMeters>27912.56678016</DistanceMeters>
          </Trackpoint>
          <Trackpoint>
            <Time>2021-01-13T15:40:32.000Z</Time>
            <Position>
              <LatitudeDegrees>43.33064298145473003387451171875</LatitudeDegrees>
              <LongitudeDegrees>-3.85074832476675510406494140625</LongitudeDegrees>
            </Position>
            <AltitudeMeters>103.59999847412109375</AltitudeMeters>
            <DistanceMeters>27932.72767798</DistanceMeters>
          </Trackpoint>
          <Trackpoint>
            <Time>2021-01-13T15:40:37.000Z</Time>
            <Position>
              <LatitudeDegrees>43.330874741077423095703125</LatitudeDegrees>
              <LongitudeDegrees>-3.85068411938846111297607421875</LongitudeDegrees>
            </Position>
            <AltitudeMeters>104</AltitudeMeters>
            <DistanceMeters>27959.041671628</DistanceMeters>
          </Trackpoint>
          <Trackpoint>
            <Time>2021-01-13T15:40:42.000Z</Time>
            <Position>
              <LatitudeDegrees>43.33110465668141841888427734375</LatitudeDegrees>
              <LongitudeDegrees>-3.8506181538105010986328125</LongitudeDegrees>
            </Position>
            <AltitudeMeters>105</AltitudeMeters>
            <DistanceMeters>27985.183173596</DistanceMeters>
          </Trackpoint>
          <Trackpoint>
            <Time>2021-01-13T15:40:43.000Z</Time>
            <Position>
              <LatitudeDegrees>43.33115075714886188507080078125</LatitudeDegrees>
              <LongitudeDegrees>-3.85060583241283893585205078125</LongitudeDegrees>
            </Position>
            <AltitudeMeters>105.1999969482421875</AltitudeMeters>
            <DistanceMeters>27990.409642886</DistanceMeters>
          </Trackpoint>
          <Trackpoint>
            <Time>2021-01-13T15:40:50.000Z</Time>
            <Position>
              <LatitudeDegrees>43.33147597499191761016845703125</LatitudeDegrees>
              <LongitudeDegrees>-3.850515894591808319091796875</LongitudeDegrees>
            </Position>
            <AltitudeMeters>106</AltitudeMeters>
            <DistanceMeters>28027.332137937</DistanceMeters>
          </Trackpoint>
          <Trackpoint>
            <Time>2021-01-13T15:40:54.000Z</Time>
            <Position>
              <LatitudeDegrees>43.3316638134419918060302734375</LatitudeDegrees>
              <LongitudeDegrees>-3.85047323070466518402099609375</LongitudeDegrees>
            </Position>
            <AltitudeMeters>107.1999969482421875</AltitudeMeters>
            <DistanceMeters>28048.522456039</DistanceMeters>
          </Trackpoint>
          <Trackpoint>
            <Time>2021-01-13T15:40:55.000Z</Time>
            <Position>
              <LatitudeDegrees>43.3317110873758792877197265625</LatitudeDegrees>
              <LongitudeDegrees>-3.85046459734439849853515625</LongitudeDegrees>
            </Position>
            <AltitudeMeters>107.1999969482421875</AltitudeMeters>
            <DistanceMeters>28053.830359439</DistanceMeters>
          </Trackpoint>
          <Trackpoint>
            <Time>2021-01-13T15:41:00.000Z</Time>
            <Position>
              <LatitudeDegrees>43.33194351755082607269287109375</LatitudeDegrees>
              <LongitudeDegrees>-3.85042813606560230255126953125</LongitudeDegrees>
            </Position>
            <AltitudeMeters>108.1999969482421875</AltitudeMeters>
            <DistanceMeters>28079.86819939</DistanceMeters>
          </Trackpoint>
          <Trackpoint>
            <Time>2021-01-13T15:41:06.000Z</Time>
            <Position>
              <LatitudeDegrees>43.33223219029605388641357421875</LatitudeDegrees>
              <LongitudeDegrees>-3.850419335067272186279296875</LongitudeDegrees>
            </Position>
            <AltitudeMeters>109</AltitudeMeters>
            <DistanceMeters>28112.005779003</DistanceMeters>
          </Trackpoint>
          <Trackpoint>
            <Time>2021-01-13T15:41:10.000Z</Time>
            <Position>
              <LatitudeDegrees>43.3324429951608180999755859375</LatitudeDegrees>
              <LongitudeDegrees>-3.85042310692369937896728515625</LongitudeDegrees>
            </Position>
            <AltitudeMeters>109.1999969482421875</AltitudeMeters>
            <DistanceMeters>28135.471028655</DistanceMeters>
          </Trackpoint>
          <Trackpoint>
            <Time>2021-01-13T15:41:17.000Z</Time>
            <Position>
              <LatitudeDegrees>43.332837112247943878173828125</LatitudeDegrees>
              <LongitudeDegrees>-3.850437439978122711181640625</LongitudeDegrees>
            </Position>
            <AltitudeMeters>109.1999969482421875</AltitudeMeters>
            <DistanceMeters>28179.352385755</DistanceMeters>
          </Trackpoint>
          <Trackpoint>
            <Time>2021-01-13T15:41:25.000Z</Time>
            <Position>
              <LatitudeDegrees>43.33331680856645107269287109375</LatitudeDegrees>
              <LongitudeDegrees>-3.85046300478279590606689453125</LongitudeDegrees>
            </Position>
            <AltitudeMeters>108.59999847412109375</AltitudeMeters>
            <DistanceMeters>28232.78368574</DistanceMeters>
          </Trackpoint>
          <Trackpoint>
            <Time>2021-01-13T15:41:29.000Z</Time>
            <Position>
              <LatitudeDegrees>43.3335621468722820281982421875</LatitudeDegrees>
              <LongitudeDegrees>-3.85047222487628459930419921875</LongitudeDegrees>
            </Position>
            <AltitudeMeters>108.1999969482421875</AltitudeMeters>
            <DistanceMeters>28260.100519324</DistanceMeters>
          </Trackpoint>
          <Trackpoint>
            <Time>2021-01-13T15:41:32.000Z</Time>
            <Position>
              <LatitudeDegrees>43.33373758010566234588623046875</LatitudeDegrees>
              <LongitudeDegrees>-3.8504832051694393157958984375</LongitudeDegrees>
            </Position>
            <AltitudeMeters>107.8000030517578125</AltitudeMeters>
            <DistanceMeters>28279.646477325</DistanceMeters>
          </Trackpoint>
          <Trackpoint>
            <Time>2021-01-13T15:41:35.000Z</Time>
            <Position>
              <LatitudeDegrees>43.33390739746391773223876953125</LatitudeDegrees>
              <LongitudeDegrees>-3.85049217380583286285400390625</LongitudeDegrees>
            </Position>
            <AltitudeMeters>107.59999847412109375</AltitudeMeters>
            <DistanceMeters>28298.561329392</DistanceMeters>
          </Trackpoint>
          <Trackpoint>
            <Time>2021-01-13T15:41:37.000Z</Time>
            <Position>
              <LatitudeDegrees>43.3340228162705898284912109375</LatitudeDegrees>
              <LongitudeDegrees>-3.85049670003354549407958984375</LongitudeDegrees>
            </Position>
            <AltitudeMeters>107.59999847412109375</AltitudeMeters>
            <DistanceMeters>28311.413494903</DistanceMeters>
          </Trackpoint>
          <Trackpoint>
            <Time>2021-01-13T15:41:39.000Z</Time>
            <Position>
              <LatitudeDegrees>43.33414209075272083282470703125</LatitudeDegrees>
              <LongitudeDegrees>-3.850504495203495025634765625</LongitudeDegrees>
            </Position>
            <AltitudeMeters>107.1999969482421875</AltitudeMeters>
            <DistanceMeters>28324.703652736</DistanceMeters>
          </Trackpoint>
          <Trackpoint>
            <Time>2021-01-13T15:41:40.000Z</Time>
            <Position>
              <LatitudeDegrees>43.33420176990330219268798828125</LatitudeDegrees>
              <LongitudeDegrees>-3.8505073450505733489990234375</LongitudeDegrees>
            </Position>
            <AltitudeMeters>107.1999969482421875</AltitudeMeters>
            <DistanceMeters>28331.350090426</DistanceMeters>
          </Trackpoint>
          <Trackpoint>
            <Time>2021-01-13T15:41:44.000Z</Time>
            <Position>
              <LatitudeDegrees>43.3344392292201519012451171875</LatitudeDegrees>
              <LongitudeDegrees>-3.85052184574306011199951171875</LongitudeDegrees>
            </Position>
            <AltitudeMeters>106.8000030517578125</AltitudeMeters>
            <DistanceMeters>28357.805773464</DistanceMeters>
          </Trackpoint>
          <Trackpoint>
            <Time>2021-01-13T15:41:50.000Z</Time>
            <Position>
              <LatitudeDegrees>43.33479001186788082122802734375</LatitudeDegrees>
              <LongitudeDegrees>-3.85054162703454494476318359375</LongitudeDegrees>
            </Position>
            <AltitudeMeters>106.40000152587890625</AltitudeMeters>
            <DistanceMeters>28396.881400855</DistanceMeters>
          </Trackpoint>
          <Trackpoint>
            <Time>2021-01-13T15:42:00.000Z</Time>
            <Position>
              <LatitudeDegrees>43.33534657023847103118896484375</LatitudeDegrees>
              <LongitudeDegrees>-3.85057146660983562469482421875</LongitudeDegrees>
            </Position>
            <AltitudeMeters>106.59999847412109375</AltitudeMeters>
            <DistanceMeters>28458.874516232</DistanceMeters>
          </Trackpoint>
          <Trackpoint>
            <Time>2021-01-13T15:42:03.000Z</Time>
            <Position>
              <LatitudeDegrees>43.3355107717216014862060546875</LatitudeDegrees>
              <LongitudeDegrees>-3.850580938160419464111328125</LongitudeDegrees>
            </Position>
            <AltitudeMeters>106.8000030517578125</AltitudeMeters>
            <DistanceMeters>28477.166603389</DistanceMeters>
          </Trackpoint>
          <Trackpoint>
            <Time>2021-01-13T15:42:06.000Z</Time>
            <Position>
              <LatitudeDegrees>43.335674889385700225830078125</LatitudeDegrees>
              <LongitudeDegrees>-3.85059124790132045745849609375</LongitudeDegrees>
            </Position>
            <AltitudeMeters>106.8000030517578125</AltitudeMeters>
            <DistanceMeters>28495.452271836</DistanceMeters>
          </Trackpoint>
          <Trackpoint>
            <Time>2021-01-13T15:42:11.000Z</Time>
            <Position>
              <LatitudeDegrees>43.33594880998134613037109375</LatitudeDegrees>
              <LongitudeDegrees>-3.8506045751273632049560546875</LongitudeDegrees>
            </Position>
            <AltitudeMeters>107.1999969482421875</AltitudeMeters>
            <DistanceMeters>28525.959251343</DistanceMeters>
          </Trackpoint>
          <Trackpoint>
            <Time>2021-01-13T15:42:17.000Z</Time>
            <Position>
              <LatitudeDegrees>43.336277715861797332763671875</LatitudeDegrees>
              <LongitudeDegrees>-3.85062058456242084503173828125</LongitudeDegrees>
            </Position>
            <AltitudeMeters>108.1999969482421875</AltitudeMeters>
            <DistanceMeters>28562.590046845</DistanceMeters>
          </Trackpoint>
          <Trackpoint>
            <Time>2021-01-13T15:42:21.000Z</Time>
            <Position>
              <LatitudeDegrees>43.33649723790585994720458984375</LatitudeDegrees>
              <LongitudeDegrees>-3.85063533671200275421142578125</LongitudeDegrees>
            </Position>
            <AltitudeMeters>109.1999969482421875</AltitudeMeters>
            <DistanceMeters>28587.052551538</DistanceMeters>
          </Trackpoint>
          <Trackpoint>
            <Time>2021-01-13T15:42:24.000Z</Time>
            <Position>
              <LatitudeDegrees>43.3366584219038486480712890625</LatitudeDegrees>
              <LongitudeDegrees>-3.85064505971968173980712890625</LongitudeDegrees>
            </Position>
            <AltitudeMeters>109.59999847412109375</AltitudeMeters>
            <DistanceMeters>28605.010337871</DistanceMeters>
          </Trackpoint>
          <Trackpoint>
            <Time>2021-01-13T15:42:29.000Z</Time>
            <Position>
              <LatitudeDegrees>43.33692186512053012847900390625</LatitudeDegrees>
              <LongitudeDegrees>-3.85066852904856204986572265625</LongitudeDegrees>
            </Position>
            <AltitudeMeters>110</AltitudeMeters>
            <DistanceMeters>28634.39372891</DistanceMeters>
          </Trackpoint>
          <Trackpoint>
            <Time>2021-01-13T15:42:30.000Z</Time>
            <Position>
              <LatitudeDegrees>43.33697450347244739532470703125</LatitudeDegrees>
              <LongitudeDegrees>-3.850674815475940704345703125</LongitudeDegrees>
            </Position>
            <AltitudeMeters>110.1999969482421875</AltitudeMeters>
            <DistanceMeters>28640.274646592</DistanceMeters>
          </Trackpoint>
          <Trackpoint>
            <Time>2021-01-13T15:42:35.000Z</Time>
            <Position>
              <LatitudeDegrees>43.337236605584621429443359375</LatitudeDegrees>
              <LongitudeDegrees>-3.85072267614305019378662109375</LongitudeDegrees>
            </Position>
            <AltitudeMeters>111.40000152587890625</AltitudeMeters>
            <DistanceMeters>28669.703332283</DistanceMeters>
          </Trackpoint>
          <Trackpoint>
            <Time>2021-01-13T15:42:42.000Z</Time>
            <Position>
              <LatitudeDegrees>43.3376065827906131744384765625</LatitudeDegrees>
              <LongitudeDegrees>-3.8508359156548976898193359375</LongitudeDegrees>
            </Position>
            <AltitudeMeters>112</AltitudeMeters>
            <DistanceMeters>28711.89048467</DistanceMeters>
          </Trackpoint>
          <Trackpoint>
            <Time>2021-01-13T15:42:43.000Z</Time>
            <Position>
              <LatitudeDegrees>43.3376629091799259185791015625</LatitudeDegrees>
              <LongitudeDegrees>-3.85084102861583232879638671875</LongitudeDegrees>
            </Position>
            <AltitudeMeters>112</AltitudeMeters>
            <DistanceMeters>28718.173037028</DistanceMeters>
          </Trackpoint>
          <Trackpoint>
            <Time>2021-01-13T15:42:46.000Z</Time>
            <Position>
              <LatitudeDegrees>43.33781470544636249542236328125</LatitudeDegrees>
              <LongitudeDegrees>-3.850725777447223663330078125</LongitudeDegrees>
            </Position>
            <AltitudeMeters>112</AltitudeMeters>
            <DistanceMeters>28737.472820012</DistanceMeters>
          </Trackpoint>
          <Trackpoint>
            <Time>2021-01-13T15:42:48.000Z</Time>
            <Position>
              <LatitudeDegrees>43.3378994464874267578125</LatitudeDegrees>
              <LongitudeDegrees>-3.85060164146125316619873046875</LongitudeDegrees>
            </Position>
            <AltitudeMeters>112</AltitudeMeters>
            <DistanceMeters>28751.254642385</DistanceMeters>
          </Trackpoint>
          <Trackpoint>
            <Time>2021-01-13T15:42:51.000Z</Time>
            <Position>
              <LatitudeDegrees>43.33802458830177783966064453125</LatitudeDegrees>
              <LongitudeDegrees>-3.85041606612503528594970703125</LongitudeDegrees>
            </Position>
            <AltitudeMeters>111.8000030517578125</AltitudeMeters>
            <DistanceMeters>28771.740779962</DistanceMeters>
          </Trackpoint>
          <Trackpoint>
            <Time>2021-01-13T15:42:53.000Z</Time>
            <Position>
              <LatitudeDegrees>43.3380970917642116546630859375</LatitudeDegrees>
              <LongitudeDegrees>-3.85028212331235408782958984375</LongitudeDegrees>
            </Position>
            <AltitudeMeters>111.1999969482421875</AltitudeMeters>
            <DistanceMeters>28785.257307127</DistanceMeters>
          </Trackpoint>
          <Trackpoint>
            <Time>2021-01-13T15:42:55.000Z</Time>
            <Position>
              <LatitudeDegrees>43.3381567709147930145263671875</LatitudeDegrees>
              <LongitudeDegrees>-3.8501407206058502197265625</LongitudeDegrees>
            </Position>
            <AltitudeMeters>110.59999847412109375</AltitudeMeters>
            <DistanceMeters>28798.491973454</DistanceMeters>
          </Trackpoint>
          <Trackpoint>
            <Time>2021-01-13T15:42:56.000Z</Time>
            <Position>
              <LatitudeDegrees>43.338181413710117340087890625</LatitudeDegrees>
              <LongitudeDegrees>-3.850072659552097320556640625</LongitudeDegrees>
            </Position>
            <AltitudeMeters>110.40000152587890625</AltitudeMeters>
            <DistanceMeters>28804.64674158</DistanceMeters>
          </Trackpoint>
          <Trackpoint>
            <Time>2021-01-13T15:42:58.000Z</Time>
            <Position>
              <LatitudeDegrees>43.33822290413081645965576171875</LatitudeDegrees>
              <LongitudeDegrees>-3.84995455853641033172607421875</LongitudeDegrees>
            </Position>
            <AltitudeMeters>109.59999847412109375</AltitudeMeters>
            <DistanceMeters>28815.263824242</DistanceMeters>
          </Trackpoint>
          <Trackpoint>
            <Time>2021-01-13T15:43:00.000Z</Time>
            <Position>
              <LatitudeDegrees>43.33826615475118160247802734375</LatitudeDegrees>
              <LongitudeDegrees>-3.84985305368900299072265625</LongitudeDegrees>
            </Position>
            <AltitudeMeters>109.1999969482421875</AltitudeMeters>
            <DistanceMeters>28824.786904507</DistanceMeters>
          </Trackpoint>
          <Trackpoint>
            <Time>2021-01-13T15:43:02.000Z</Time>
            <Position>
              <LatitudeDegrees>43.33833857439458370208740234375</LatitudeDegrees>
              <LongitudeDegrees>-3.8497848249971866607666015625</LongitudeDegrees>
            </Position>
            <AltitudeMeters>109.1999969482421875</AltitudeMeters>
            <DistanceMeters>28834.557573274</DistanceMeters>
          </Trackpoint>
          <Trackpoint>
            <Time>2021-01-13T15:43:04.000Z</Time>
            <Position>
              <LatitudeDegrees>43.33843345753848552703857421875</LatitudeDegrees>
              <LongitudeDegrees>-3.84981357492506504058837890625</LongitudeDegrees>
            </Position>
            <AltitudeMeters>109</AltitudeMeters>
            <DistanceMeters>28845.371429661</DistanceMeters>
          </Trackpoint>
          <Trackpoint>
            <Time>2021-01-13T15:43:05.000Z</Time>
            <Position>
              <LatitudeDegrees>43.33847989328205585479736328125</LatitudeDegrees>
              <LongitudeDegrees>-3.8498512096703052520751953125</LongitudeDegrees>
            </Position>
            <AltitudeMeters>109</AltitudeMeters>
            <DistanceMeters>28851.371672554</DistanceMeters>
          </Trackpoint>
          <Trackpoint>
            <Time>2021-01-13T15:43:06.000Z</Time>
            <Position>
              <LatitudeDegrees>43.338525407016277313232421875</LatitudeDegrees>
              <LongitudeDegrees>-3.8498944602906703948974609375</LongitudeDegrees>
            </Position>
            <AltitudeMeters>109</AltitudeMeters>
            <DistanceMeters>28857.530107507</DistanceMeters>
          </Trackpoint>
          <Trackpoint>
            <Time>2021-01-13T15:43:07.000Z</Time>
            <Position>
              <LatitudeDegrees>43.338572345674037933349609375</LatitudeDegrees>
              <LongitudeDegrees>-3.8499341905117034912109375</LongitudeDegrees>
            </Position>
            <AltitudeMeters>109</AltitudeMeters>
            <DistanceMeters>28863.665036897</DistanceMeters>
          </Trackpoint>
          <Trackpoint>
            <Time>2021-01-13T15:43:11.000Z</Time>
            <Position>
              <LatitudeDegrees>43.3387673087418079376220703125</LatitudeDegrees>
              <LongitudeDegrees>-3.850072324275970458984375</LongitudeDegrees>
            </Position>
            <AltitudeMeters>108.59999847412109375</AltitudeMeters>
            <DistanceMeters>28888.076362233</DistanceMeters>
          </Trackpoint>
          <Trackpoint>
            <Time>2021-01-13T15:43:16.000Z</Time>
            <Position>
              <LatitudeDegrees>43.339003510773181915283203125</LatitudeDegrees>
              <LongitudeDegrees>-3.8502511940896511077880859375</LongitudeDegrees>
            </Position>
            <AltitudeMeters>108.40000152587890625</AltitudeMeters>
            <DistanceMeters>28918.089764336</DistanceMeters>
          </Trackpoint>
          <Trackpoint>
            <Time>2021-01-13T15:43:19.000Z</Time>
            <Position>
              <LatitudeDegrees>43.3391615934669971466064453125</LatitudeDegrees>
              <LongitudeDegrees>-3.8503742404282093048095703125</LongitudeDegrees>
            </Position>
            <AltitudeMeters>108.40000152587890625</AltitudeMeters>
            <DistanceMeters>28938.308582073</DistanceMeters>
          </Trackpoint>
          <Trackpoint>
            <Time>2021-01-13T15:43:22.000Z</Time>
            <Position>
              <LatitudeDegrees>43.3393438160419464111328125</LatitudeDegrees>
              <LongitudeDegrees>-3.85051555931568145751953125</LongitudeDegrees>
            </Position>
            <AltitudeMeters>108.1999969482421875</AltitudeMeters>
            <DistanceMeters>28961.594199311</DistanceMeters>
          </Trackpoint>
          <Trackpoint>
            <Time>2021-01-13T15:43:24.000Z</Time>
            <Position>
              <LatitudeDegrees>43.3394666947424411773681640625</LatitudeDegrees>
              <LongitudeDegrees>-3.8506374321877956390380859375</LongitudeDegrees>
            </Position>
            <AltitudeMeters>108.1999969482421875</AltitudeMeters>
            <DistanceMeters>28978.457626228</DistanceMeters>
          </Trackpoint>
          <Trackpoint>
            <Time>2021-01-13T15:43:25.000Z</Time>
            <Position>
              <LatitudeDegrees>43.3395260386168956756591796875</LatitudeDegrees>
              <LongitudeDegrees>-3.850703649222850799560546875</LongitudeDegrees>
            </Position>
            <AltitudeMeters>108</AltitudeMeters>
            <DistanceMeters>28986.963446145</DistanceMeters>
          </Trackpoint>
          <Trackpoint>
            <Time>2021-01-13T15:43:29.000Z</Time>
            <Position>
              <LatitudeDegrees>43.33975377492606639862060546875</LatitudeDegrees>
              <LongitudeDegrees>-3.8509743846952915191650390625</LongitudeDegrees>
            </Position>
            <AltitudeMeters>107</AltitudeMeters>
            <DistanceMeters>29020.471784437</DistanceMeters>
          </Trackpoint>
          <Trackpoint>
            <Time>2021-01-13T15:43:31.000Z</Time>
            <Position>
              <LatitudeDegrees>43.33986357785761356353759765625</LatitudeDegrees>
              <LongitudeDegrees>-3.8511162064969539642333984375</LongitudeDegrees>
            </Position>
            <AltitudeMeters>105.8000030517578125</AltitudeMeters>
            <DistanceMeters>29037.239624494</DistanceMeters>
          </Trackpoint>
          <Trackpoint>
            <Time>2021-01-13T15:43:32.000Z</Time>
            <Position>
              <LatitudeDegrees>43.33992325700819492340087890625</LatitudeDegrees>
              <LongitudeDegrees>-3.85118368081748485565185546875</LongitudeDegrees>
            </Position>
            <AltitudeMeters>105.40000152587890625</AltitudeMeters>
            <DistanceMeters>29045.839410891</DistanceMeters>
          </Trackpoint>
          <Trackpoint>
            <Time>2021-01-13T15:43:33.000Z</Time>
            <Position>
              <LatitudeDegrees>43.33998561836779117584228515625</LatitudeDegrees>
              <LongitudeDegrees>-3.8512499816715717315673828125</LongitudeDegrees>
            </Position>
            <AltitudeMeters>104.8000030517578125</AltitudeMeters>
            <DistanceMeters>29054.613315477</DistanceMeters>
          </Trackpoint>
          <Trackpoint>
            <Time>2021-01-13T15:43:34.000Z</Time>
            <Position>
              <LatitudeDegrees>43.34004345349967479705810546875</LatitudeDegrees>
              <LongitudeDegrees>-3.851322568953037261962890625</LongitudeDegrees>
            </Position>
            <AltitudeMeters>104.1999969482421875</AltitudeMeters>
            <DistanceMeters>29063.328876448</DistanceMeters>
          </Trackpoint>
          <Trackpoint>
            <Time>2021-01-13T15:43:36.000Z</Time>
            <Position>
              <LatitudeDegrees>43.34014571271836757659912109375</LatitudeDegrees>
              <LongitudeDegrees>-3.85147570632398128509521484375</LongitudeDegrees>
            </Position>
            <AltitudeMeters>103.1999969482421875</AltitudeMeters>
            <DistanceMeters>29080.157997566</DistanceMeters>
          </Trackpoint>
          <Trackpoint>
            <Time>2021-01-13T15:43:38.000Z</Time>
            <Position>
              <LatitudeDegrees>43.34023573435842990875244140625</LatitudeDegrees>
              <LongitudeDegrees>-3.851631022989749908447265625</LongitudeDegrees>
            </Position>
            <AltitudeMeters>102.40000152587890625</AltitudeMeters>
            <DistanceMeters>29096.234652939</DistanceMeters>
          </Trackpoint>
          <Trackpoint>
            <Time>2021-01-13T15:43:40.000Z</Time>
            <Position>
              <LatitudeDegrees>43.34031687118113040924072265625</LatitudeDegrees>
              <LongitudeDegrees>-3.8517834059894084930419921875</LongitudeDegrees>
            </Position>
            <AltitudeMeters>102</AltitudeMeters>
            <DistanceMeters>29111.522440173</DistanceMeters>
          </Trackpoint>
          <Trackpoint>
            <Time>2021-01-13T15:43:42.000Z</Time>
            <Position>
              <LatitudeDegrees>43.34039381705224514007568359375</LatitudeDegrees>
              <LongitudeDegrees>-3.851930089294910430908203125</LongitudeDegrees>
            </Position>
            <AltitudeMeters>100.59999847412109375</AltitudeMeters>
            <DistanceMeters>29126.16241505</DistanceMeters>
          </Trackpoint>
          <Trackpoint>
            <Time>2021-01-13T15:43:45.000Z</Time>
            <Position>
              <LatitudeDegrees>43.3405020274221897125244140625</LatitudeDegrees>
              <LongitudeDegrees>-3.852150030434131622314453125</LongitudeDegrees>
            </Position>
            <AltitudeMeters>99.40000152587890625</AltitudeMeters>
            <DistanceMeters>29147.657575468</DistanceMeters>
          </Trackpoint>
          <Trackpoint>
            <Time>2021-01-13T15:43:48.000Z</Time>
            <Position>
              <LatitudeDegrees>43.34059330634772777557373046875</LatitudeDegrees>
              <LongitudeDegrees>-3.85238145478069782257080078125</LongitudeDegrees>
            </Position>
            <AltitudeMeters>98.59999847412109375</AltitudeMeters>
            <DistanceMeters>29168.968574147</DistanceMeters>
          </Trackpoint>
          <Trackpoint>
            <Time>2021-01-13T15:43:49.000Z</Time>
            <Position>
              <LatitudeDegrees>43.34061979316174983978271484375</LatitudeDegrees>
              <LongitudeDegrees>-3.8524599932134151458740234375</LongitudeDegrees>
            </Position>
            <AltitudeMeters>98.1999969482421875</AltitudeMeters>
            <DistanceMeters>29175.976109784</DistanceMeters>
          </Trackpoint>
          <Trackpoint>
            <Time>2021-01-13T15:43:51.000Z</Time>
            <Position>
              <LatitudeDegrees>43.34067159332334995269775390625</LatitudeDegrees>
              <LongitudeDegrees>-3.85261564515531063079833984375</LongitudeDegrees>
            </Position>
            <AltitudeMeters>97.8000030517578125</AltitudeMeters>
            <DistanceMeters>29189.832425505</DistanceMeters>
          </Trackpoint>
          <Trackpoint>
            <Time>2021-01-13T15:43:54.000Z</Time>
            <Position>
              <LatitudeDegrees>43.3407412469387054443359375</LatitudeDegrees>
              <LongitudeDegrees>-3.85284882970154285430908203125</LongitudeDegrees>
            </Position>
            <AltitudeMeters>97.40000152587890625</AltitudeMeters>
            <DistanceMeters>29210.238402939</DistanceMeters>
          </Trackpoint>
          <Trackpoint>
            <Time>2021-01-13T15:43:59.000Z</Time>
            <Position>
              <LatitudeDegrees>43.3408500440418720245361328125</LatitudeDegrees>
              <LongitudeDegrees>-3.85322718881070613861083984375</LongitudeDegrees>
            </Position>
            <AltitudeMeters>96.59999847412109375</AltitudeMeters>
            <DistanceMeters>29243.172940318</DistanceMeters>
          </Trackpoint>
          <Trackpoint>
            <Time>2021-01-13T15:44:02.000Z</Time>
            <Position>
              <LatitudeDegrees>43.3409181050956249237060546875</LatitudeDegrees>
              <LongitudeDegrees>-3.85344679467380046844482421875</LongitudeDegrees>
            </Position>
            <AltitudeMeters>96.1999969482421875</AltitudeMeters>
            <DistanceMeters>29262.496337042</DistanceMeters>
          </Trackpoint>
          <Trackpoint>
            <Time>2021-01-13T15:44:03.000Z</Time>
            <Position>
              <LatitudeDegrees>43.34093444980680942535400390625</LatitudeDegrees>
              <LongitudeDegrees>-3.85352474637329578399658203125</LongitudeDegrees>
            </Position>
            <AltitudeMeters>96</AltitudeMeters>
            <DistanceMeters>29269.063501202</DistanceMeters>
          </Trackpoint>
          <Trackpoint>
            <Time>2021-01-13T15:44:05.000Z</Time>
            <Position>
              <LatitudeDegrees>43.3409613557159900665283203125</LatitudeDegrees>
              <LongitudeDegrees>-3.853682577610015869140625</LongitudeDegrees>
            </Position>
            <AltitudeMeters>96</AltitudeMeters>
            <DistanceMeters>29282.186136523</DistanceMeters>
          </Trackpoint>
          <Trackpoint>
            <Time>2021-01-13T15:44:11.000Z</Time>
            <Position>
              <LatitudeDegrees>43.34108532406389713287353515625</LatitudeDegrees>
              <LongitudeDegrees>-3.85410368442535400390625</LongitudeDegrees>
            </Position>
            <AltitudeMeters>95.1999969482421875</AltitudeMeters>
            <DistanceMeters>29318.960492783</DistanceMeters>
          </Trackpoint>
          <Trackpoint>
            <Time>2021-01-13T15:44:15.000Z</Time>
            <Position>
              <LatitudeDegrees>43.34115623496472835540771484375</LatitudeDegrees>
              <LongitudeDegrees>-3.85437148623168468475341796875</LongitudeDegrees>
            </Position>
            <AltitudeMeters>95</AltitudeMeters>
            <DistanceMeters>29342.030661955</DistanceMeters>
          </Trackpoint>
          <Trackpoint>
            <Time>2021-01-13T15:44:17.000Z</Time>
            <Position>
              <LatitudeDegrees>43.3411997370421886444091796875</LatitudeDegrees>
              <LongitudeDegrees>-3.85451397858560085296630859375</LongitudeDegrees>
            </Position>
            <AltitudeMeters>94.59999847412109375</AltitudeMeters>
            <DistanceMeters>29354.540307225</DistanceMeters>
          </Trackpoint>
          <Trackpoint>
            <Time>2021-01-13T15:44:20.000Z</Time>
            <Position>
              <LatitudeDegrees>43.3412642776966094970703125</LatitudeDegrees>
              <LongitudeDegrees>-3.85473911650478839874267578125</LongitudeDegrees>
            </Position>
            <AltitudeMeters>94.1999969482421875</AltitudeMeters>
            <DistanceMeters>29374.129413853</DistanceMeters>
          </Trackpoint>
          <Trackpoint>
            <Time>2021-01-13T15:44:23.000Z</Time>
            <Position>
              <LatitudeDegrees>43.34133426658809185028076171875</LatitudeDegrees>
              <LongitudeDegrees>-3.8549695350229740142822265625</LongitudeDegrees>
            </Position>
            <AltitudeMeters>94</AltitudeMeters>
            <DistanceMeters>29394.342648101</DistanceMeters>
          </Trackpoint>
          <Trackpoint>
            <Time>2021-01-13T15:44:24.000Z</Time>
            <Position>
              <LatitudeDegrees>43.341356813907623291015625</LatitudeDegrees>
              <LongitudeDegrees>-3.8550479896366596221923828125</LongitudeDegrees>
            </Position>
            <AltitudeMeters>93.8000030517578125</AltitudeMeters>
            <DistanceMeters>29401.171360627</DistanceMeters>
          </Trackpoint>
          <Trackpoint>
            <Time>2021-01-13T15:44:32.000Z</Time>
            <Position>
              <LatitudeDegrees>43.34151933901011943817138671875</LatitudeDegrees>
              <LongitudeDegrees>-3.8556632213294506072998046875</LongitudeDegrees>
            </Position>
            <AltitudeMeters>93.1999969482421875</AltitudeMeters>
            <DistanceMeters>29454.156317134</DistanceMeters>
          </Trackpoint>
          <Trackpoint>
            <Time>2021-01-13T15:44:35.000Z</Time>
            <Position>
              <LatitudeDegrees>43.34156594239175319671630859375</LatitudeDegrees>
              <LongitudeDegrees>-3.85587771423161029815673828125</LongitudeDegrees>
            </Position>
            <AltitudeMeters>92.8000030517578125</AltitudeMeters>
            <DistanceMeters>29472.277291164</DistanceMeters>
          </Trackpoint>
          <Trackpoint>
            <Time>2021-01-13T15:44:38.000Z</Time>
            <Position>
              <LatitudeDegrees>43.341611288487911224365234375</LatitudeDegrees>
              <LongitudeDegrees>-3.8560906983911991119384765625</LongitudeDegrees>
            </Position>
            <AltitudeMeters>92.1999969482421875</AltitudeMeters>
            <DistanceMeters>29490.241362024</DistanceMeters>
          </Trackpoint>
          <Trackpoint>
            <Time>2021-01-13T15:44:40.000Z</Time>
            <Position>
              <LatitudeDegrees>43.34164716303348541259765625</LatitudeDegrees>
              <LongitudeDegrees>-3.85623126290738582611083984375</LongitudeDegrees>
            </Position>
            <AltitudeMeters>92</AltitudeMeters>
            <DistanceMeters>29502.299649254</DistanceMeters>
          </Trackpoint>
          <Trackpoint>
            <Time>2021-01-13T15:44:42.000Z</Time>
            <Position>
              <LatitudeDegrees>43.34168781526386737823486328125</LatitudeDegrees>
              <LongitudeDegrees>-3.85637660510838031768798828125</LongitudeDegrees>
            </Position>
            <AltitudeMeters>91.8000030517578125</AltitudeMeters>
            <DistanceMeters>29514.904576664</DistanceMeters>
          </Trackpoint>
          <Trackpoint>
            <Time>2021-01-13T15:44:43.000Z</Time>
            <Position>
              <LatitudeDegrees>43.34170818328857421875</LatitudeDegrees>
              <LongitudeDegrees>-3.85645086877048015594482421875</LongitudeDegrees>
            </Position>
            <AltitudeMeters>91.59999847412109375</AltitudeMeters>
            <DistanceMeters>29521.32855124</DistanceMeters>
          </Trackpoint>
          <Trackpoint>
            <Time>2021-01-13T15:44:47.000Z</Time>
            <Position>
              <LatitudeDegrees>43.34177381359040737152099609375</LatitudeDegrees>
              <LongitudeDegrees>-3.85675261728465557098388671875</LongitudeDegrees>
            </Position>
            <AltitudeMeters>90.59999847412109375</AltitudeMeters>
            <DistanceMeters>29546.822998523</DistanceMeters>
          </Trackpoint>
          <Trackpoint>
            <Time>2021-01-13T15:44:49.000Z</Time>
            <Position>
              <LatitudeDegrees>43.341807425022125244140625</LatitudeDegrees>
              <LongitudeDegrees>-3.856894858181476593017578125</LongitudeDegrees>
            </Position>
            <AltitudeMeters>90.40000152587890625</AltitudeMeters>
            <DistanceMeters>29558.929491441</DistanceMeters>
          </Trackpoint>
          <Trackpoint>
            <Time>2021-01-13T15:44:55.000Z</Time>
            <Position>
              <LatitudeDegrees>43.34190255962312221527099609375</LatitudeDegrees>
              <LongitudeDegrees>-3.85733800940215587615966796875</LongitudeDegrees>
            </Position>
            <AltitudeMeters>89.59999847412109375</AltitudeMeters>
            <DistanceMeters>29596.331407467</DistanceMeters>
          </Trackpoint>
          <Trackpoint>
            <Time>2021-01-13T15:45:01.000Z</Time>
            <Position>
              <LatitudeDegrees>43.34201253019273281097412109375</LatitudeDegrees>
              <LongitudeDegrees>-3.85780739597976207733154296875</LongitudeDegrees>
            </Position>
            <AltitudeMeters>88.59999847412109375</AltitudeMeters>
            <DistanceMeters>29636.249640763</DistanceMeters>
          </Trackpoint>
          <Trackpoint>
            <Time>2021-01-13T15:45:04.000Z</Time>
            <Position>
              <LatitudeDegrees>43.34206416271626949310302734375</LatitudeDegrees>
              <LongitudeDegrees>-3.8580478727817535400390625</LongitudeDegrees>
            </Position>
            <AltitudeMeters>88.59999847412109375</AltitudeMeters>
            <DistanceMeters>29656.545798705</DistanceMeters>
          </Trackpoint>
          <Trackpoint>
            <Time>2021-01-13T15:45:05.000Z</Time>
            <Position>
              <LatitudeDegrees>43.342080004513263702392578125</LatitudeDegrees>
              <LongitudeDegrees>-3.8581298477947711944580078125</LongitudeDegrees>
            </Position>
            <AltitudeMeters>88.40000152587890625</AltitudeMeters>
            <DistanceMeters>29663.412095313</DistanceMeters>
          </Trackpoint>
          <Trackpoint>
            <Time>2021-01-13T15:45:11.000Z</Time>
            <Position>
              <LatitudeDegrees>43.342188298702239990234375</LatitudeDegrees>
              <LongitudeDegrees>-3.85861675255000591278076171875</LongitudeDegrees>
            </Position>
            <AltitudeMeters>87.59999847412109375</AltitudeMeters>
            <DistanceMeters>29704.62729676</DistanceMeters>
          </Trackpoint>
          <Trackpoint>
            <Time>2021-01-13T15:45:15.000Z</Time>
            <Position>
              <LatitudeDegrees>43.34224957041442394256591796875</LatitudeDegrees>
              <LongitudeDegrees>-3.85889369063079357147216796875</LongitudeDegrees>
            </Position>
            <AltitudeMeters>87.40000152587890625</AltitudeMeters>
            <DistanceMeters>29728.0588498</DistanceMeters>
          </Trackpoint>
          <Trackpoint>
            <Time>2021-01-13T15:45:16.000Z</Time>
            <Position>
              <LatitudeDegrees>43.34226197563111782073974609375</LatitudeDegrees>
              <LongitudeDegrees>-3.8589660264551639556884765625</LongitudeDegrees>
            </Position>
            <AltitudeMeters>87.40000152587890625</AltitudeMeters>
            <DistanceMeters>29734.074873934</DistanceMeters>
          </Trackpoint>
          <Trackpoint>
            <Time>2021-01-13T15:45:23.000Z</Time>
            <Position>
              <LatitudeDegrees>43.34236071445047855377197265625</LatitudeDegrees>
              <LongitudeDegrees>-3.85950925759971141815185546875</LongitudeDegrees>
            </Position>
            <AltitudeMeters>87</AltitudeMeters>
            <DistanceMeters>29779.399727944</DistanceMeters>
          </Trackpoint>
          <Trackpoint>
            <Time>2021-01-13T15:45:26.000Z</Time>
            <Position>
              <LatitudeDegrees>43.342417292296886444091796875</LatitudeDegrees>
              <LongitudeDegrees>-3.859717212617397308349609375</LongitudeDegrees>
            </Position>
            <AltitudeMeters>86.8000030517578125</AltitudeMeters>
            <DistanceMeters>29797.372091016</DistanceMeters>
          </Trackpoint>
          <Trackpoint>
            <Time>2021-01-13T15:45:30.000Z</Time>
            <Position>
              <LatitudeDegrees>43.34250018931925296783447265625</LatitudeDegrees>
              <LongitudeDegrees>-3.85998585261404514312744140625</LongitudeDegrees>
            </Position>
            <AltitudeMeters>86.59999847412109375</AltitudeMeters>
            <DistanceMeters>29820.99382854</DistanceMeters>
          </Trackpoint>
          <Trackpoint>
            <Time>2021-01-13T15:45:32.000Z</Time>
            <Position>
              <LatitudeDegrees>43.3425572700798511505126953125</LatitudeDegrees>
              <LongitudeDegrees>-3.86011979542672634124755859375</LongitudeDegrees>
            </Position>
            <AltitudeMeters>86.40000152587890625</AltitudeMeters>
            <DistanceMeters>29833.5603705</DistanceMeters>
          </Trackpoint>
          <Trackpoint>
            <Time>2021-01-13T15:45:35.000Z</Time>
            <Position>
              <LatitudeDegrees>43.342658020555973052978515625</LatitudeDegrees>
              <LongitudeDegrees>-3.860312998294830322265625</LongitudeDegrees>
            </Position>
            <AltitudeMeters>86</AltitudeMeters>
            <DistanceMeters>29852.804160017</DistanceMeters>
          </Trackpoint>
          <Trackpoint>
            <Time>2021-01-13T15:45:36.000Z</Time>
            <Position>
              <LatitudeDegrees>43.3426970802247524261474609375</LatitudeDegrees>
              <LongitudeDegrees>-3.8603751920163631439208984375</LongitudeDegrees>
            </Position>
            <AltitudeMeters>85.59999847412109375</AltitudeMeters>
            <DistanceMeters>29859.456030023</DistanceMeters>
          </Trackpoint>
          <Trackpoint>
            <Time>2021-01-13T15:45:38.000Z</Time>
            <Position>
              <LatitudeDegrees>43.34278031252324581146240234375</LatitudeDegrees>
              <LongitudeDegrees>-3.86049329303205013275146484375</LongitudeDegrees>
            </Position>
            <AltitudeMeters>85.1999969482421875</AltitudeMeters>
            <DistanceMeters>29872.768251859</DistanceMeters>
          </Trackpoint>
          <Trackpoint>
            <Time>2021-01-13T15:45:42.000Z</Time>
            <Position>
              <LatitudeDegrees>43.3429626189172267913818359375</LatitudeDegrees>
              <LongitudeDegrees>-3.860686831176280975341796875</LongitudeDegrees>
            </Position>
            <AltitudeMeters>84.1999969482421875</AltitudeMeters>
            <DistanceMeters>29898.40328225</DistanceMeters>
          </Trackpoint>
          <Trackpoint>
            <Time>2021-01-13T15:45:43.000Z</Time>
            <Position>
              <LatitudeDegrees>43.3430103957653045654296875</LatitudeDegrees>
              <LongitudeDegrees>-3.860727734863758087158203125</LongitudeDegrees>
            </Position>
            <AltitudeMeters>84</AltitudeMeters>
            <DistanceMeters>29904.667842268</DistanceMeters>
          </Trackpoint>
          <Trackpoint>
            <Time>2021-01-13T15:45:49.000Z</Time>
            <Position>
              <LatitudeDegrees>43.34330610930919647216796875</LatitudeDegrees>
              <LongitudeDegrees>-3.86090182699263095855712890625</LongitudeDegrees>
            </Position>
            <AltitudeMeters>83.1999969482421875</AltitudeMeters>
            <DistanceMeters>29940.471103735</DistanceMeters>
          </Trackpoint>
          <Trackpoint>
            <Time>2021-01-13T15:45:50.000Z</Time>
            <Position>
              <LatitudeDegrees>43.34335480816662311553955078125</LatitudeDegrees>
              <LongitudeDegrees>-3.8609196804463863372802734375</LongitudeDegrees>
            </Position>
            <AltitudeMeters>83.1999969482421875</AltitudeMeters>
            <DistanceMeters>29946.080095296</DistanceMeters>
          </Trackpoint>
          <Trackpoint>
            <Time>2021-01-13T15:45:53.000Z</Time>
            <Position>
              <LatitudeDegrees>43.34349453449249267578125</LatitudeDegrees>
              <LongitudeDegrees>-3.86095664463937282562255859375</LongitudeDegrees>
            </Position>
            <AltitudeMeters>82.8000030517578125</AltitudeMeters>
            <DistanceMeters>29961.917089116</DistanceMeters>
          </Trackpoint>
          <Trackpoint>
            <Time>2021-01-13T15:45:56.000Z</Time>
            <Position>
              <LatitudeDegrees>43.3436361886560916900634765625</LatitudeDegrees>
              <LongitudeDegrees>-3.86098832823336124420166015625</LongitudeDegrees>
            </Position>
            <AltitudeMeters>82.1999969482421875</AltitudeMeters>
            <DistanceMeters>29977.890624729</DistanceMeters>
          </Trackpoint>
          <Trackpoint>
            <Time>2021-01-13T15:45:58.000Z</Time>
            <Position>
              <LatitudeDegrees>43.3437330834567546844482421875</LatitudeDegrees>
              <LongitudeDegrees>-3.860995285212993621826171875</LongitudeDegrees>
            </Position>
            <AltitudeMeters>82</AltitudeMeters>
            <DistanceMeters>29988.69027599</DistanceMeters>
          </Trackpoint>
          <Trackpoint>
            <Time>2021-01-13T15:46:00.000Z</Time>
            <Position>
              <LatitudeDegrees>43.3438279666006565093994140625</LatitudeDegrees>
              <LongitudeDegrees>-3.8609579019248485565185546875</LongitudeDegrees>
            </Position>
            <AltitudeMeters>81.8000030517578125</AltitudeMeters>
            <DistanceMeters>29999.675627218</DistanceMeters>
          </Trackpoint>
          <Trackpoint>
            <Time>2021-01-13T15:46:02.000Z</Time>
            <Position>
              <LatitudeDegrees>43.34392561577260494232177734375</LatitudeDegrees>
              <LongitudeDegrees>-3.86091624386608600616455078125</LongitudeDegrees>
            </Position>
            <AltitudeMeters>81.59999847412109375</AltitudeMeters>
            <DistanceMeters>30011.055051465</DistanceMeters>
          </Trackpoint>
          <Trackpoint>
            <Time>2021-01-13T15:46:05.000Z</Time>
            <Position>
              <LatitudeDegrees>43.34406391717493534088134765625</LatitudeDegrees>
              <LongitudeDegrees>-3.86091741733253002166748046875</LongitudeDegrees>
            </Position>
            <AltitudeMeters>81.40000152587890625</AltitudeMeters>
            <DistanceMeters>30026.448499291</DistanceMeters>
          </Trackpoint>
          <Trackpoint>
            <Time>2021-01-13T15:46:07.000Z</Time>
            <Position>
              <LatitudeDegrees>43.344146646559238433837890625</LatitudeDegrees>
              <LongitudeDegrees>-3.86090316809713840484619140625</LongitudeDegrees>
            </Position>
            <AltitudeMeters>81.40000152587890625</AltitudeMeters>
            <DistanceMeters>30035.729063343</DistanceMeters>
          </Trackpoint>
          <Trackpoint>
            <Time>2021-01-13T15:46:09.000Z</Time>
            <Position>
              <LatitudeDegrees>43.34419392049312591552734375</LatitudeDegrees>
              <LongitudeDegrees>-3.8608978874981403350830078125</LongitudeDegrees>
            </Position>
            <AltitudeMeters>81.40000152587890625</AltitudeMeters>
            <DistanceMeters>30041.00796625</DistanceMeters>
          </Trackpoint>
          <Trackpoint>
            <Time>2021-01-13T15:46:13.000Z</Time>
            <Position>
              <LatitudeDegrees>43.34420456551015377044677734375</LatitudeDegrees>
              <LongitudeDegrees>-3.8608784414827823638916015625</LongitudeDegrees>
            </Position>
            <AltitudeMeters>81.1999969482421875</AltitudeMeters>
            <DistanceMeters>30042.97848214</DistanceMeters>
          </Trackpoint>
          <Trackpoint>
            <Time>2021-01-13T15:46:17.000Z</Time>
            <Position>
              <LatitudeDegrees>43.3441825211048126220703125</LatitudeDegrees>
              <LongitudeDegrees>-3.86077358387410640716552734375</LongitudeDegrees>
            </Position>
            <AltitudeMeters>80.8000030517578125</AltitudeMeters>
            <DistanceMeters>30051.814433754</DistanceMeters>
          </Trackpoint>
          <Trackpoint>
            <Time>2021-01-13T15:46:18.000Z</Time>
            <Position>
              <LatitudeDegrees>43.3441950939595699310302734375</LatitudeDegrees>
              <LongitudeDegrees>-3.86073368601500988006591796875</LongitudeDegrees>
            </Position>
            <AltitudeMeters>80.8000030517578125</AltitudeMeters>
            <DistanceMeters>30055.334272512</DistanceMeters>
          </Trackpoint>
          <Trackpoint>
            <Time>2021-01-13T15:46:20.000Z</Time>
            <Position>
              <LatitudeDegrees>43.34426189772784709930419921875</LatitudeDegrees>
              <LongitudeDegrees>-3.86065053753554821014404296875</LongitudeDegrees>
            </Position>
            <AltitudeMeters>80.59999847412109375</AltitudeMeters>
            <DistanceMeters>30065.363080589</DistanceMeters>
          </Trackpoint>
          <Trackpoint>
            <Time>2021-01-13T15:46:22.000Z</Time>
            <Position>
              <LatitudeDegrees>43.3443637378513813018798828125</LatitudeDegrees>
              <LongitudeDegrees>-3.8605686463415622711181640625</LongitudeDegrees>
            </Position>
            <AltitudeMeters>80.40000152587890625</AltitudeMeters>
            <DistanceMeters>30078.493970872</DistanceMeters>
          </Trackpoint>
          <Trackpoint>
            <Time>2021-01-13T15:46:24.000Z</Time>
            <Position>
              <LatitudeDegrees>43.3444810844957828521728515625</LatitudeDegrees>
              <LongitudeDegrees>-3.86049379594624042510986328125</LongitudeDegrees>
            </Position>
            <AltitudeMeters>80.40000152587890625</AltitudeMeters>
            <DistanceMeters>30092.891694124</DistanceMeters>
          </Trackpoint>
          <Trackpoint>
            <Time>2021-01-13T15:46:25.000Z</Time>
            <Position>
              <LatitudeDegrees>43.3445446193218231201171875</LatitudeDegrees>
              <LongitudeDegrees>-3.86045088060200214385986328125</LongitudeDegrees>
            </Position>
            <AltitudeMeters>80.40000152587890625</AltitudeMeters>
            <DistanceMeters>30100.770319986</DistanceMeters>
          </Trackpoint>
          <Trackpoint>
            <Time>2021-01-13T15:46:27.000Z</Time>
            <Position>
              <LatitudeDegrees>43.34466892294585704803466796875</LatitudeDegrees>
              <LongitudeDegrees>-3.860317356884479522705078125</LongitudeDegrees>
            </Position>
            <AltitudeMeters>80.1999969482421875</AltitudeMeters>
            <DistanceMeters>30118.326875153</DistanceMeters>
          </Trackpoint>
          <Trackpoint>
            <Time>2021-01-13T15:46:30.000Z</Time>
            <Position>
              <LatitudeDegrees>43.344833292067050933837890625</LatitudeDegrees>
              <LongitudeDegrees>-3.86004678905010223388671875</LongitudeDegrees>
            </Position>
            <AltitudeMeters>80.1999969482421875</AltitudeMeters>
            <DistanceMeters>30146.863225018</DistanceMeters>
          </Trackpoint>
          <Trackpoint>
            <Time>2021-01-13T15:46:31.000Z</Time>
            <Position>
              <LatitudeDegrees>43.34489992819726467132568359375</LatitudeDegrees>
              <LongitudeDegrees>-3.85997411794960498809814453125</LongitudeDegrees>
            </Position>
            <AltitudeMeters>79.40000152587890625</AltitudeMeters>
            <DistanceMeters>30156.329240471</DistanceMeters>
          </Trackpoint>
          <Trackpoint>
            <Time>2021-01-13T15:46:33.000Z</Time>
            <Position>
              <LatitudeDegrees>43.34504677914083003997802734375</LatitudeDegrees>
              <LongitudeDegrees>-3.85987252928316593170166015625</LongitudeDegrees>
            </Position>
            <AltitudeMeters>77.59999847412109375</AltitudeMeters>
            <DistanceMeters>30174.625770031</DistanceMeters>
          </Trackpoint>
          <Trackpoint>
            <Time>2021-01-13T15:46:34.000Z</Time>
            <Position>
              <LatitudeDegrees>43.345122635364532470703125</LatitudeDegrees>
              <LongitudeDegrees>-3.85983757674694061279296875</LongitudeDegrees>
            </Position>
            <AltitudeMeters>76.59999847412109375</AltitudeMeters>
            <DistanceMeters>30183.529930361</DistanceMeters>
          </Trackpoint>
          <Trackpoint>
            <Time>2021-01-13T15:46:35.000Z</Time>
            <Position>
              <LatitudeDegrees>43.34519664756953716278076171875</LatitudeDegrees>
              <LongitudeDegrees>-3.85980631224811077117919921875</LongitudeDegrees>
            </Position>
            <AltitudeMeters>76</AltitudeMeters>
            <DistanceMeters>30192.146500939</DistanceMeters>
          </Trackpoint>
          <Trackpoint>
            <Time>2021-01-13T15:46:37.000Z</Time>
            <Position>
              <LatitudeDegrees>43.34534098394215106964111328125</LatitudeDegrees>
              <LongitudeDegrees>-3.85973808355629444122314453125</LongitudeDegrees>
            </Position>
            <AltitudeMeters>74.8000030517578125</AltitudeMeters>
            <DistanceMeters>30209.133971407</DistanceMeters>
          </Trackpoint>
          <Trackpoint>
            <Time>2021-01-13T15:46:38.000Z</Time>
            <Position>
              <LatitudeDegrees>43.3454071171581745147705078125</LatitudeDegrees>
              <LongitudeDegrees>-3.85969433002173900604248046875</LongitudeDegrees>
            </Position>
            <AltitudeMeters>74.1999969482421875</AltitudeMeters>
            <DistanceMeters>30217.302953285</DistanceMeters>
          </Trackpoint>
          <Trackpoint>
            <Time>2021-01-13T15:46:39.000Z</Time>
            <Position>
              <LatitudeDegrees>43.345466293394565582275390625</LatitudeDegrees>
              <LongitudeDegrees>-3.85963951237499713897705078125</LongitudeDegrees>
            </Position>
            <AltitudeMeters>73.8000030517578125</AltitudeMeters>
            <DistanceMeters>30225.244367132</DistanceMeters>
          </Trackpoint>
          <Trackpoint>
            <Time>2021-01-13T15:46:41.000Z</Time>
            <Position>
              <LatitudeDegrees>43.34555120207369327545166015625</LatitudeDegrees>
              <LongitudeDegrees>-3.85949685238301753997802734375</LongitudeDegrees>
            </Position>
            <AltitudeMeters>73</AltitudeMeters>
            <DistanceMeters>30240.166284735</DistanceMeters>
          </Trackpoint>
          <Trackpoint>
            <Time>2021-01-13T15:46:42.000Z</Time>
            <Position>
              <LatitudeDegrees>43.34556989371776580810546875</LatitudeDegrees>
              <LongitudeDegrees>-3.85941605083644390106201171875</LongitudeDegrees>
            </Position>
            <AltitudeMeters>72.8000030517578125</AltitudeMeters>
            <DistanceMeters>30247.029292729</DistanceMeters>
          </Trackpoint>
          <Trackpoint>
            <Time>2021-01-13T15:46:43.000Z</Time>
            <Position>
              <LatitudeDegrees>43.345573581755161285400390625</LatitudeDegrees>
              <LongitudeDegrees>-3.8593331538140773773193359375</LongitudeDegrees>
            </Position>
            <AltitudeMeters>72.59999847412109375</AltitudeMeters>
            <DistanceMeters>30253.751383366</DistanceMeters>
          </Trackpoint>
          <Trackpoint>
            <Time>2021-01-13T15:46:44.000Z</Time>
            <Position>
              <LatitudeDegrees>43.34557123482227325439453125</LatitudeDegrees>
              <LongitudeDegrees>-3.8592476584017276763916015625</LongitudeDegrees>
            </Position>
            <AltitudeMeters>72.40000152587890625</AltitudeMeters>
            <DistanceMeters>30260.676607983</DistanceMeters>
          </Trackpoint>
          <Trackpoint>
            <Time>2021-01-13T15:46:45.000Z</Time>
            <Position>
              <LatitudeDegrees>43.34557659924030303955078125</LatitudeDegrees>
              <LongitudeDegrees>-3.85916375555098056793212890625</LongitudeDegrees>
            </Position>
            <AltitudeMeters>72</AltitudeMeters>
            <DistanceMeters>30267.494071107</DistanceMeters>
          </Trackpoint>
          <Trackpoint>
            <Time>2021-01-13T15:46:46.000Z</Time>
            <Position>
              <LatitudeDegrees>43.3455933630466461181640625</LatitudeDegrees>
              <LongitudeDegrees>-3.85908127762377262115478515625</LongitudeDegrees>
            </Position>
            <AltitudeMeters>71.8000030517578125</AltitudeMeters>
            <DistanceMeters>30274.42516097</DistanceMeters>
          </Trackpoint>
          <Trackpoint>
            <Time>2021-01-13T15:46:48.000Z</Time>
            <Position>
              <LatitudeDegrees>43.34566016681492328643798828125</LatitudeDegrees>
              <LongitudeDegrees>-3.85895110666751861572265625</LongitudeDegrees>
            </Position>
            <AltitudeMeters>71.40000152587890625</AltitudeMeters>
            <DistanceMeters>30287.320814803</DistanceMeters>
          </Trackpoint>
          <Trackpoint>
            <Time>2021-01-13T15:46:49.000Z</Time>
            <Position>
              <LatitudeDegrees>43.34570475853979587554931640625</LatitudeDegrees>
              <LongitudeDegrees>-3.85890995152294635772705078125</LongitudeDegrees>
            </Position>
            <AltitudeMeters>71.40000152587890625</AltitudeMeters>
            <DistanceMeters>30293.298440794</DistanceMeters>
          </Trackpoint>
          <Trackpoint>
            <Time>2021-01-13T15:46:52.000Z</Time>
            <Position>
              <LatitudeDegrees>43.3458516933023929595947265625</LatitudeDegrees>
              <LongitudeDegrees>-3.858840465545654296875</LongitudeDegrees>
            </Position>
            <AltitudeMeters>71.40000152587890625</AltitudeMeters>
            <DistanceMeters>30310.592780677</DistanceMeters>
          </Trackpoint>
          <Trackpoint>
            <Time>2021-01-13T15:46:54.000Z</Time>
            <Position>
              <LatitudeDegrees>43.34595722146332263946533203125</LatitudeDegrees>
              <LongitudeDegrees>-3.8588174991309642791748046875</LongitudeDegrees>
            </Position>
            <AltitudeMeters>71.40000152587890625</AltitudeMeters>
            <DistanceMeters>30322.484416272</DistanceMeters>
          </Trackpoint>
          <Trackpoint>
            <Time>2021-01-13T15:46:59.000Z</Time>
            <Position>
              <LatitudeDegrees>43.34622443653643131256103515625</LatitudeDegrees>
              <LongitudeDegrees>-3.85884474031627178192138671875</LongitudeDegrees>
            </Position>
            <AltitudeMeters>71.59999847412109375</AltitudeMeters>
            <DistanceMeters>30352.307366315</DistanceMeters>
          </Trackpoint>
          <Trackpoint>
            <Time>2021-01-13T15:47:00.000Z</Time>
            <Position>
              <LatitudeDegrees>43.3462728001177310943603515625</LatitudeDegrees>
              <LongitudeDegrees>-3.85885982774198055267333984375</LongitudeDegrees>
            </Position>
            <AltitudeMeters>71.8000030517578125</AltitudeMeters>
            <DistanceMeters>30357.827101627</DistanceMeters>
          </Trackpoint>
          <Trackpoint>
            <Time>2021-01-13T15:47:04.000Z</Time>
            <Position>
              <LatitudeDegrees>43.3464766480028629302978515625</LatitudeDegrees>
              <LongitudeDegrees>-3.8589120469987392425537109375</LongitudeDegrees>
            </Position>
            <AltitudeMeters>72.1999969482421875</AltitudeMeters>
            <DistanceMeters>30380.905880385</DistanceMeters>
          </Trackpoint>
          <Trackpoint>
            <Time>2021-01-13T15:47:06.000Z</Time>
            <Position>
              <LatitudeDegrees>43.3465836010873317718505859375</LatitudeDegrees>
              <LongitudeDegrees>-3.8588900864124298095703125</LongitudeDegrees>
            </Position>
            <AltitudeMeters>72.40000152587890625</AltitudeMeters>
            <DistanceMeters>30392.942055708</DistanceMeters>
          </Trackpoint>
          <Trackpoint>
            <Time>2021-01-13T15:47:07.000Z</Time>
            <Position>
              <LatitudeDegrees>43.34663531742990016937255859375</LatitudeDegrees>
              <LongitudeDegrees>-3.85887022130191326141357421875</LongitudeDegrees>
            </Position>
            <AltitudeMeters>72.59999847412109375</AltitudeMeters>
            <DistanceMeters>30398.918170862</DistanceMeters>
          </Trackpoint>
          <Trackpoint>
            <Time>2021-01-13T15:47:11.000Z</Time>
            <Position>
              <LatitudeDegrees>43.34684436209499835968017578125</LatitudeDegrees>
              <LongitudeDegrees>-3.85881104506552219390869140625</LongitudeDegrees>
            </Position>
            <AltitudeMeters>73</AltitudeMeters>
            <DistanceMeters>30422.673328978</DistanceMeters>
          </Trackpoint>
          <Trackpoint>
            <Time>2021-01-13T15:47:13.000Z</Time>
            <Position>
              <LatitudeDegrees>43.34694863297045230865478515625</LatitudeDegrees>
              <LongitudeDegrees>-3.85879444889724254608154296875</LongitudeDegrees>
            </Position>
            <AltitudeMeters>73</AltitudeMeters>
            <DistanceMeters>30434.35659203</DistanceMeters>
          </Trackpoint>
          <Trackpoint>
            <Time>2021-01-13T15:47:17.000Z</Time>
            <Position>
              <LatitudeDegrees>43.34715105593204498291015625</LatitudeDegrees>
              <LongitudeDegrees>-3.85879109613597393035888671875</LongitudeDegrees>
            </Position>
            <AltitudeMeters>73.1999969482421875</AltitudeMeters>
            <DistanceMeters>30456.88854618</DistanceMeters>
          </Trackpoint>
          <Trackpoint>
            <Time>2021-01-13T15:47:19.000Z</Time>
            <Position>
              <LatitudeDegrees>43.34724317304790019989013671875</LatitudeDegrees>
              <LongitudeDegrees>-3.8587826304137706756591796875</LongitudeDegrees>
            </Position>
            <AltitudeMeters>73.1999969482421875</AltitudeMeters>
            <DistanceMeters>30467.164621011</DistanceMeters>
          </Trackpoint>
          <Trackpoint>
            <Time>2021-01-13T15:47:20.000Z</Time>
            <Position>
              <LatitudeDegrees>43.347291536629199981689453125</LatitudeDegrees>
              <LongitudeDegrees>-3.8587769307196140289306640625</LongitudeDegrees>
            </Position>
            <AltitudeMeters>73.40000152587890625</AltitudeMeters>
            <DistanceMeters>30472.566954495</DistanceMeters>
          </Trackpoint>
          <Trackpoint>
            <Time>2021-01-13T15:47:23.000Z</Time>
            <Position>
              <LatitudeDegrees>43.34748473949730396270751953125</LatitudeDegrees>
              <LongitudeDegrees>-3.85875639505684375762939453125</LongitudeDegrees>
            </Position>
            <AltitudeMeters>73.59999847412109375</AltitudeMeters>
            <DistanceMeters>30494.134878779</DistanceMeters>
          </Trackpoint>
          <Trackpoint>
            <Time>2021-01-13T15:47:26.000Z</Time>
            <Position>
              <LatitudeDegrees>43.347709961235523223876953125</LatitudeDegrees>
              <LongitudeDegrees>-3.85873309336602687835693359375</LongitudeDegrees>
            </Position>
            <AltitudeMeters>73.8000030517578125</AltitudeMeters>
            <DistanceMeters>30519.273351479</DistanceMeters>
          </Trackpoint>
          <Trackpoint>
            <Time>2021-01-13T15:47:27.000Z</Time>
            <Position>
              <LatitudeDegrees>43.34778665564954280853271484375</LatitudeDegrees>
              <LongitudeDegrees>-3.85874457657337188720703125</LongitudeDegrees>
            </Position>
            <AltitudeMeters>73.8000030517578125</AltitudeMeters>
            <DistanceMeters>30527.859476571</DistanceMeters>
          </Trackpoint>
          <Trackpoint>
            <Time>2021-01-13T15:47:33.000Z</Time>
            <Position>
              <LatitudeDegrees>43.3482635021209716796875</LatitudeDegrees>
              <LongitudeDegrees>-3.8587537966668605804443359375</LongitudeDegrees>
            </Position>
            <AltitudeMeters>72.8000030517578125</AltitudeMeters>
            <DistanceMeters>30580.938765759</DistanceMeters>
          </Trackpoint>
          <Trackpoint>
            <Time>2021-01-13T15:47:34.000Z</Time>
            <Position>
              <LatitudeDegrees>43.3483458124101161956787109375</LatitudeDegrees>
              <LongitudeDegrees>-3.85874952189624309539794921875</LongitudeDegrees>
            </Position>
            <AltitudeMeters>72.1999969482421875</AltitudeMeters>
            <DistanceMeters>30590.106258408</DistanceMeters>
          </Trackpoint>
          <Trackpoint>
            <Time>2021-01-13T15:47:36.000Z</Time>
            <Position>
              <LatitudeDegrees>43.348509930074214935302734375</LatitudeDegrees>
              <LongitudeDegrees>-3.85874130763113498687744140625</LongitudeDegrees>
            </Position>
            <AltitudeMeters>71.40000152587890625</AltitudeMeters>
            <DistanceMeters>30608.385011878</DistanceMeters>
          </Trackpoint>
          <Trackpoint>
            <Time>2021-01-13T15:47:38.000Z</Time>
            <Position>
              <LatitudeDegrees>43.3486784063279628753662109375</LatitudeDegrees>
              <LongitudeDegrees>-3.8587320037186145782470703125</LongitudeDegrees>
            </Position>
            <AltitudeMeters>70.59999847412109375</AltitudeMeters>
            <DistanceMeters>30627.151765499</DistanceMeters>
          </Trackpoint>
          <Trackpoint>
            <Time>2021-01-13T15:47:40.000Z</Time>
            <Position>
              <LatitudeDegrees>43.34884394891560077667236328125</LatitudeDegrees>
              <LongitudeDegrees>-3.858721442520618438720703125</LongitudeDegrees>
            </Position>
            <AltitudeMeters>70</AltitudeMeters>
            <DistanceMeters>30645.596986837</DistanceMeters>
          </Trackpoint>
          <Trackpoint>
            <Time>2021-01-13T15:47:41.000Z</Time>
            <Position>
              <LatitudeDegrees>43.34892424754798412322998046875</LatitudeDegrees>
              <LongitudeDegrees>-3.85871649719774723052978515625</LongitudeDegrees>
            </Position>
            <AltitudeMeters>69.40000152587890625</AltitudeMeters>
            <DistanceMeters>30654.543639708</DistanceMeters>
          </Trackpoint>
          <Trackpoint>
            <Time>2021-01-13T15:47:43.000Z</Time>
            <Position>
              <LatitudeDegrees>43.34907763637602329254150390625</LatitudeDegrees>
              <LongitudeDegrees>-3.85869336314499378204345703125</LongitudeDegrees>
            </Position>
            <AltitudeMeters>68.8000030517578125</AltitudeMeters>
            <DistanceMeters>30671.718518954</DistanceMeters>
          </Trackpoint>
          <Trackpoint>
            <Time>2021-01-13T15:47:45.000Z</Time>
            <Position>
              <LatitudeDegrees>43.3492168597877025604248046875</LatitudeDegrees>
              <LongitudeDegrees>-3.8586398027837276458740234375</LongitudeDegrees>
            </Position>
            <AltitudeMeters>68.1999969482421875</AltitudeMeters>
            <DistanceMeters>30687.809210418</DistanceMeters>
          </Trackpoint>
          <Trackpoint>
            <Time>2021-01-13T15:47:47.000Z</Time>
            <Position>
              <LatitudeDegrees>43.34933579899370670318603515625</LatitudeDegrees>
              <LongitudeDegrees>-3.85855170898139476776123046875</LongitudeDegrees>
            </Position>
            <AltitudeMeters>67.40000152587890625</AltitudeMeters>
            <DistanceMeters>30702.845367638</DistanceMeters>
          </Trackpoint>
          <Trackpoint>
            <Time>2021-01-13T15:47:48.000Z</Time>
            <Position>
              <LatitudeDegrees>43.34939095191657543182373046875</LatitudeDegrees>
              <LongitudeDegrees>-3.8585030101239681243896484375</LongitudeDegrees>
            </Position>
            <AltitudeMeters>67</AltitudeMeters>
            <DistanceMeters>30710.140795696</DistanceMeters>
          </Trackpoint>
          <Trackpoint>
            <Time>2021-01-13T15:47:49.000Z</Time>
            <Position>
              <LatitudeDegrees>43.3494465239346027374267578125</LatitudeDegrees>
              <LongitudeDegrees>-3.8584600947797298431396484375</LongitudeDegrees>
            </Position>
            <AltitudeMeters>66.59999847412109375</AltitudeMeters>
            <DistanceMeters>30717.234780192</DistanceMeters>
          </Trackpoint>
          <Trackpoint>
            <Time>2021-01-13T15:47:50.000Z</Time>
            <Position>
              <LatitudeDegrees>43.34950335323810577392578125</LatitudeDegrees>
              <LongitudeDegrees>-3.85842497460544109344482421875</LongitudeDegrees>
            </Position>
            <AltitudeMeters>66.1999969482421875</AltitudeMeters>
            <DistanceMeters>30724.169777462</DistanceMeters>
          </Trackpoint>
          <Trackpoint>
            <Time>2021-01-13T15:47:54.000Z</Time>
            <Position>
              <LatitudeDegrees>43.3497331850230693817138671875</LatitudeDegrees>
              <LongitudeDegrees>-3.85832875035703182220458984375</LongitudeDegrees>
            </Position>
            <AltitudeMeters>65.59999847412109375</AltitudeMeters>
            <DistanceMeters>30750.909963945</DistanceMeters>
          </Trackpoint>
          <Trackpoint>
            <Time>2021-01-13T15:47:55.000Z</Time>
            <Position>
              <LatitudeDegrees>43.34978607483208179473876953125</LatitudeDegrees>
              <LongitudeDegrees>-3.8582951389253139495849609375</LongitudeDegrees>
            </Position>
            <AltitudeMeters>65.59999847412109375</AltitudeMeters>
            <DistanceMeters>30757.39549369</DistanceMeters>
          </Trackpoint>
          <Trackpoint>
            <Time>2021-01-13T15:47:57.000Z</Time>
            <Position>
              <LatitudeDegrees>43.34987089969217777252197265625</LatitudeDegrees>
              <LongitudeDegrees>-3.85819137096405029296875</LongitudeDegrees>
            </Position>
            <AltitudeMeters>65.1999969482421875</AltitudeMeters>
            <DistanceMeters>30770.031545751</DistanceMeters>
          </Trackpoint>
          <Trackpoint>
            <Time>2021-01-13T15:47:58.000Z</Time>
            <Position>
              <LatitudeDegrees>43.34989839233458042144775390625</LatitudeDegrees>
              <LongitudeDegrees>-3.85812498629093170166015625</LongitudeDegrees>
            </Position>
            <AltitudeMeters>65.1999969482421875</AltitudeMeters>
            <DistanceMeters>30776.214857458</DistanceMeters>
          </Trackpoint>
          <Trackpoint>
            <Time>2021-01-13T15:48:00.000Z</Time>
            <Position>
              <LatitudeDegrees>43.3499306626617908477783203125</LatitudeDegrees>
              <LongitudeDegrees>-3.85798106901347637176513671875</LongitudeDegrees>
            </Position>
            <AltitudeMeters>65.1999969482421875</AltitudeMeters>
            <DistanceMeters>30788.40423307</DistanceMeters>
          </Trackpoint>
          <Trackpoint>
            <Time>2021-01-13T15:48:01.000Z</Time>
            <Position>
              <LatitudeDegrees>43.349945247173309326171875</LatitudeDegrees>
              <LongitudeDegrees>-3.8579092361032962799072265625</LongitudeDegrees>
            </Position>
            <AltitudeMeters>65.1999969482421875</AltitudeMeters>
            <DistanceMeters>30794.441234687</DistanceMeters>
          </Trackpoint>
          <Trackpoint>
            <Time>2021-01-13T15:48:03.000Z</Time>
            <Position>
              <LatitudeDegrees>43.34998120553791522979736328125</LatitudeDegrees>
              <LongitudeDegrees>-3.85777252726256847381591796875</LongitudeDegrees>
            </Position>
            <AltitudeMeters>65.1999969482421875</AltitudeMeters>
            <DistanceMeters>30806.207291884</DistanceMeters>
          </Trackpoint>
          <Trackpoint>
            <Time>2021-01-13T15:48:05.000Z</Time>
            <Position>
              <LatitudeDegrees>43.35003484971821308135986328125</LatitudeDegrees>
              <LongitudeDegrees>-3.85765350423753261566162109375</LongitudeDegrees>
            </Position>
            <AltitudeMeters>65.1999969482421875</AltitudeMeters>
            <DistanceMeters>30817.54059711</DistanceMeters>
          </Trackpoint>
          <Trackpoint>
            <Time>2021-01-13T15:48:06.000Z</Time>
            <Position>
              <LatitudeDegrees>43.350064940750598907470703125</LatitudeDegrees>
              <LongitudeDegrees>-3.85760153643786907196044921875</LongitudeDegrees>
            </Position>
            <AltitudeMeters>65.1999969482421875</AltitudeMeters>
            <DistanceMeters>30822.9169597</DistanceMeters>
          </Trackpoint>
          <Trackpoint>
            <Time>2021-01-13T15:48:07.000Z</Time>
            <Position>
              <LatitudeDegrees>43.35008807480335235595703125</LatitudeDegrees>
              <LongitudeDegrees>-3.8575461320579051971435546875</LongitudeDegrees>
            </Position>
            <AltitudeMeters>65.40000152587890625</AltitudeMeters>
            <DistanceMeters>30828.088718243</DistanceMeters>
          </Trackpoint>
          <Trackpoint>
            <Time>2021-01-13T15:48:09.000Z</Time>
            <Position>
              <LatitudeDegrees>43.3500833809375762939453125</LatitudeDegrees>
              <LongitudeDegrees>-3.857431970536708831787109375</LongitudeDegrees>
            </Position>
            <AltitudeMeters>65.59999847412109375</AltitudeMeters>
            <DistanceMeters>30837.34297375</DistanceMeters>
          </Trackpoint>
          <Trackpoint>
            <Time>2021-01-13T15:48:11.000Z</Time>
            <Position>
              <LatitudeDegrees>43.35003434680402278900146484375</LatitudeDegrees>
              <LongitudeDegrees>-3.8573171384632587432861328125</LongitudeDegrees>
            </Position>
            <AltitudeMeters>66</AltitudeMeters>
            <DistanceMeters>30848.12086331</DistanceMeters>
          </Trackpoint>
          <Trackpoint>
            <Time>2021-01-13T15:48:12.000Z</Time>
            <Position>
              <LatitudeDegrees>43.35000651888549327850341796875</LatitudeDegrees>
              <LongitudeDegrees>-3.857258297502994537353515625</LongitudeDegrees>
            </Position>
            <AltitudeMeters>66.40000152587890625</AltitudeMeters>
            <DistanceMeters>30853.80263445</DistanceMeters>
          </Trackpoint>
          <Trackpoint>
            <Time>2021-01-13T15:48:15.000Z</Time>
            <Position>
              <LatitudeDegrees>43.34993057884275913238525390625</LatitudeDegrees>
              <LongitudeDegrees>-3.8570609875023365020751953125</LongitudeDegrees>
            </Position>
            <AltitudeMeters>67.1999969482421875</AltitudeMeters>
            <DistanceMeters>30871.871208931</DistanceMeters>
          </Trackpoint>
          <Trackpoint>
            <Time>2021-01-13T15:48:16.000Z</Time>
            <Position>
              <LatitudeDegrees>43.34991465322673320770263671875</LatitudeDegrees>
              <LongitudeDegrees>-3.856988064944744110107421875</LongitudeDegrees>
            </Position>
            <AltitudeMeters>67.59999847412109375</AltitudeMeters>
            <DistanceMeters>30878.034041196</DistanceMeters>
          </Trackpoint>
          <Trackpoint>
            <Time>2021-01-13T15:48:21.000Z</Time>
            <Position>
              <LatitudeDegrees>43.34987752139568328857421875</LatitudeDegrees>
              <LongitudeDegrees>-3.856607861816883087158203125</LongitudeDegrees>
            </Position>
            <AltitudeMeters>68.59999847412109375</AltitudeMeters>
            <DistanceMeters>30909.082629583</DistanceMeters>
          </Trackpoint>
          <Trackpoint>
            <Time>2021-01-13T15:48:26.000Z</Time>
            <Position>
              <LatitudeDegrees>43.34987458772957324981689453125</LatitudeDegrees>
              <LongitudeDegrees>-3.856227658689022064208984375</LongitudeDegrees>
            </Position>
            <AltitudeMeters>69.1999969482421875</AltitudeMeters>
            <DistanceMeters>30939.856616928</DistanceMeters>
          </Trackpoint>
          <Trackpoint>
            <Time>2021-01-13T15:48:28.000Z</Time>
            <Position>
              <LatitudeDegrees>43.3498579077422618865966796875</LatitudeDegrees>
              <LongitudeDegrees>-3.85607737116515636444091796875</LongitudeDegrees>
            </Position>
            <AltitudeMeters>69.40000152587890625</AltitudeMeters>
            <DistanceMeters>30952.16175089</DistanceMeters>
          </Trackpoint>
          <Trackpoint>
            <Time>2021-01-13T15:48:29.000Z</Time>
            <Position>
              <LatitudeDegrees>43.3498444966971874237060546875</LatitudeDegrees>
              <LongitudeDegrees>-3.85600478388369083404541015625</LongitudeDegrees>
            </Position>
            <AltitudeMeters>69.40000152587890625</AltitudeMeters>
            <DistanceMeters>30958.222637869</DistanceMeters>
          </Trackpoint>
          <Trackpoint>
            <Time>2021-01-13T15:48:34.000Z</Time>
            <Position>
              <LatitudeDegrees>43.34977081976830959320068359375</LatitudeDegrees>
              <LongitudeDegrees>-3.85565006174147129058837890625</LongitudeDegrees>
            </Position>
            <AltitudeMeters>69.59999847412109375</AltitudeMeters>
            <DistanceMeters>30988.080690837</DistanceMeters>
          </Trackpoint>
          <Trackpoint>
            <Time>2021-01-13T15:48:38.000Z</Time>
            <Position>
              <LatitudeDegrees>43.3497781120240688323974609375</LatitudeDegrees>
              <LongitudeDegrees>-3.85536842979490756988525390625</LongitudeDegrees>
            </Position>
            <AltitudeMeters>69.40000152587890625</AltitudeMeters>
            <DistanceMeters>31010.88947783</DistanceMeters>
          </Trackpoint>
          <Trackpoint>
            <Time>2021-01-13T15:48:39.000Z</Time>
            <Position>
              <LatitudeDegrees>43.34979697130620479583740234375</LatitudeDegrees>
              <LongitudeDegrees>-3.8553061522543430328369140625</LongitudeDegrees>
            </Position>
            <AltitudeMeters>69.40000152587890625</AltitudeMeters>
            <DistanceMeters>31016.350827708</DistanceMeters>
          </Trackpoint>
          <Trackpoint>
            <Time>2021-01-13T15:48:42.000Z</Time>
            <Position>
              <LatitudeDegrees>43.34989336319267749786376953125</LatitudeDegrees>
              <LongitudeDegrees>-3.85512351058423519134521484375</LongitudeDegrees>
            </Position>
            <AltitudeMeters>69.40000152587890625</AltitudeMeters>
            <DistanceMeters>31034.616237758</DistanceMeters>
          </Trackpoint>
          <Trackpoint>
            <Time>2021-01-13T15:48:44.000Z</Time>
            <Position>
              <LatitudeDegrees>43.349969722330570220947265625</LatitudeDegrees>
              <LongitudeDegrees>-3.8549950160086154937744140625</LongitudeDegrees>
            </Position>
            <AltitudeMeters>69.40000152587890625</AltitudeMeters>
            <DistanceMeters>31048.046978879</DistanceMeters>
          </Trackpoint>
          <Trackpoint>
            <Time>2021-01-13T15:48:51.000Z</Time>
            <Position>
              <LatitudeDegrees>43.35023316554725170135498046875</LatitudeDegrees>
              <LongitudeDegrees>-3.85451263748109340667724609375</LongitudeDegrees>
            </Position>
            <AltitudeMeters>69.1999969482421875</AltitudeMeters>
            <DistanceMeters>31096.873513488</DistanceMeters>
          </Trackpoint>
          <Trackpoint>
            <Time>2021-01-13T15:48:56.000Z</Time>
            <Position>
              <LatitudeDegrees>43.35044346749782562255859375</LatitudeDegrees>
              <LongitudeDegrees>-3.85421005077660083770751953125</LongitudeDegrees>
            </Position>
            <AltitudeMeters>68.40000152587890625</AltitudeMeters>
            <DistanceMeters>31130.750503842</DistanceMeters>
          </Trackpoint>
          <Trackpoint>
            <Time>2021-01-13T15:48:58.000Z</Time>
            <Position>
              <LatitudeDegrees>43.350548408925533294677734375</LatitudeDegrees>
              <LongitudeDegrees>-3.854111395776271820068359375</LongitudeDegrees>
            </Position>
            <AltitudeMeters>68.1999969482421875</AltitudeMeters>
            <DistanceMeters>31144.898957277</DistanceMeters>
          </Trackpoint>
          <Trackpoint>
            <Time>2021-01-13T15:49:00.000Z</Time>
            <Position>
              <LatitudeDegrees>43.35065745748579502105712890625</LatitudeDegrees>
              <LongitudeDegrees>-3.854017518460750579833984375</LongitudeDegrees>
            </Position>
            <AltitudeMeters>68</AltitudeMeters>
            <DistanceMeters>31159.218067436</DistanceMeters>
          </Trackpoint>
          <Trackpoint>
            <Time>2021-01-13T15:49:03.000Z</Time>
            <Position>
              <LatitudeDegrees>43.3508144505321979522705078125</LatitudeDegrees>
              <LongitudeDegrees>-3.85387510992586612701416015625</LongitudeDegrees>
            </Position>
            <AltitudeMeters>67.59999847412109375</AltitudeMeters>
            <DistanceMeters>31180.150492027</DistanceMeters>
          </Trackpoint>
          <Trackpoint>
            <Time>2021-01-13T15:49:06.000Z</Time>
            <Position>
              <LatitudeDegrees>43.3509834297001361846923828125</LatitudeDegrees>
              <LongitudeDegrees>-3.85374753735959529876708984375</LongitudeDegrees>
            </Position>
            <AltitudeMeters>67.40000152587890625</AltitudeMeters>
            <DistanceMeters>31201.606126883</DistanceMeters>
          </Trackpoint>
          <Trackpoint>
            <Time>2021-01-13T15:49:10.000Z</Time>
            <Position>
              <LatitudeDegrees>43.35121938027441501617431640625</LatitudeDegrees>
              <LongitudeDegrees>-3.853601776063442230224609375</LongitudeDegrees>
            </Position>
            <AltitudeMeters>67.40000152587890625</AltitudeMeters>
            <DistanceMeters>31230.395928143</DistanceMeters>
          </Trackpoint>
          <Trackpoint>
            <Time>2021-01-13T15:49:11.000Z</Time>
            <Position>
              <LatitudeDegrees>43.35127956233918666839599609375</LatitudeDegrees>
              <LongitudeDegrees>-3.85357487015426158905029296875</LongitudeDegrees>
            </Position>
            <AltitudeMeters>67.40000152587890625</AltitudeMeters>
            <DistanceMeters>31237.439452828</DistanceMeters>
          </Trackpoint>
          <Trackpoint>
            <Time>2021-01-13T15:49:19.000Z</Time>
            <Position>
              <LatitudeDegrees>43.35179253481328487396240234375</LatitudeDegrees>
              <LongitudeDegrees>-3.85340698063373565673828125</LongitudeDegrees>
            </Position>
            <AltitudeMeters>67</AltitudeMeters>
            <DistanceMeters>31296.128893266</DistanceMeters>
          </Trackpoint>
          <Trackpoint>
            <Time>2021-01-13T15:49:23.000Z</Time>
            <Position>
              <LatitudeDegrees>43.352032005786895751953125</LatitudeDegrees>
              <LongitudeDegrees>-3.85337403975427150726318359375</LongitudeDegrees>
            </Position>
            <AltitudeMeters>66.59999847412109375</AltitudeMeters>
            <DistanceMeters>31322.91547282</DistanceMeters>
          </Trackpoint>
          <Trackpoint>
            <Time>2021-01-13T15:49:25.000Z</Time>
            <Position>
              <LatitudeDegrees>43.3521535433828830718994140625</LatitudeDegrees>
              <LongitudeDegrees>-3.8533754646778106689453125</LongitudeDegrees>
            </Position>
            <AltitudeMeters>66.59999847412109375</AltitudeMeters>
            <DistanceMeters>31336.443352521</DistanceMeters>
          </Trackpoint>
          <Trackpoint>
            <Time>2021-01-13T15:49:27.000Z</Time>
            <Position>
              <LatitudeDegrees>43.3522760868072509765625</LatitudeDegrees>
              <LongitudeDegrees>-3.85338376276195049285888671875</LongitudeDegrees>
            </Position>
            <AltitudeMeters>66.40000152587890625</AltitudeMeters>
            <DistanceMeters>31350.099455139</DistanceMeters>
          </Trackpoint>
          <Trackpoint>
            <Time>2021-01-13T15:49:29.000Z</Time>
            <Position>
              <LatitudeDegrees>43.3524039946496486663818359375</LatitudeDegrees>
              <LongitudeDegrees>-3.85339348576962947845458984375</LongitudeDegrees>
            </Position>
            <AltitudeMeters>66.40000152587890625</AltitudeMeters>
            <DistanceMeters>31364.357896185</DistanceMeters>
          </Trackpoint>
          <Trackpoint>
            <Time>2021-01-13T15:49:32.000Z</Time>
            <Position>
              <LatitudeDegrees>43.3526046574115753173828125</LatitudeDegrees>
              <LongitudeDegrees>-3.85339650325477123260498046875</LongitudeDegrees>
            </Position>
            <AltitudeMeters>66.1999969482421875</AltitudeMeters>
            <DistanceMeters>31386.693419533</DistanceMeters>
          </Trackpoint>
          <Trackpoint>
            <Time>2021-01-13T15:49:36.000Z</Time>
            <Position>
              <LatitudeDegrees>43.35287757217884063720703125</LatitudeDegrees>
              <LongitudeDegrees>-3.85343271307647228240966796875</LongitudeDegrees>
            </Position>
            <AltitudeMeters>66</AltitudeMeters>
            <DistanceMeters>31417.210609343</DistanceMeters>
          </Trackpoint>
          <Trackpoint>
            <Time>2021-01-13T15:49:38.000Z</Time>
            <Position>
              <LatitudeDegrees>43.353010676801204681396484375</LatitudeDegrees>
              <LongitudeDegrees>-3.85348250158131122589111328125</LongitudeDegrees>
            </Position>
            <AltitudeMeters>66</AltitudeMeters>
            <DistanceMeters>31432.563821238</DistanceMeters>
          </Trackpoint>
          <Trackpoint>
            <Time>2021-01-13T15:49:40.000Z</Time>
            <Position>
              <LatitudeDegrees>43.35313699208199977874755859375</LatitudeDegrees>
              <LongitudeDegrees>-3.85354620404541492462158203125</LongitudeDegrees>
            </Position>
            <AltitudeMeters>65.59999847412109375</AltitudeMeters>
            <DistanceMeters>31447.538294793</DistanceMeters>
          </Trackpoint>
          <Trackpoint>
            <Time>2021-01-13T15:49:41.000Z</Time>
            <Position>
              <LatitudeDegrees>43.3531959168612957000732421875</LatitudeDegrees>
              <LongitudeDegrees>-3.85358534753322601318359375</LongitudeDegrees>
            </Position>
            <AltitudeMeters>65.1999969482421875</AltitudeMeters>
            <DistanceMeters>31454.821334614</DistanceMeters>
          </Trackpoint>
          <Trackpoint>
            <Time>2021-01-13T15:49:44.000Z</Time>
            <Position>
              <LatitudeDegrees>43.35337101481854915618896484375</LatitudeDegrees>
              <LongitudeDegrees>-3.85370143689215183258056640625</LongitudeDegrees>
            </Position>
            <AltitudeMeters>64.8000030517578125</AltitudeMeters>
            <DistanceMeters>31476.456352813</DistanceMeters>
          </Trackpoint>
          <Trackpoint>
            <Time>2021-01-13T15:49:47.000Z</Time>
            <Position>
              <LatitudeDegrees>43.353556506335735321044921875</LatitudeDegrees>
              <LongitudeDegrees>-3.85381073690950870513916015625</LongitudeDegrees>
            </Position>
            <AltitudeMeters>64.1999969482421875</AltitudeMeters>
            <DistanceMeters>31498.917058071</DistanceMeters>
          </Trackpoint>
          <Trackpoint>
            <Time>2021-01-13T15:49:51.000Z</Time>
            <Position>
              <LatitudeDegrees>43.35381341166794300079345703125</LatitudeDegrees>
              <LongitudeDegrees>-3.8539254851639270782470703125</LongitudeDegrees>
            </Position>
            <AltitudeMeters>63.200000762939453125</AltitudeMeters>
            <DistanceMeters>31528.981564249</DistanceMeters>
          </Trackpoint>
          <Trackpoint>
            <Time>2021-01-13T15:49:52.000Z</Time>
            <Position>
              <LatitudeDegrees>43.3538805507123470306396484375</LatitudeDegrees>
              <LongitudeDegrees>-3.853945769369602203369140625</LongitudeDegrees>
            </Position>
            <AltitudeMeters>63.200000762939453125</AltitudeMeters>
            <DistanceMeters>31536.632247585</DistanceMeters>
          </Trackpoint>
          <Trackpoint>
            <Time>2021-01-13T15:49:55.000Z</Time>
            <Position>
              <LatitudeDegrees>43.354084901511669158935546875</LatitudeDegrees>
              <LongitudeDegrees>-3.8539814762771129608154296875</LongitudeDegrees>
            </Position>
            <AltitudeMeters>62.799999237060546875</AltitudeMeters>
            <DistanceMeters>31559.559891819</DistanceMeters>
          </Trackpoint>
          <Trackpoint>
            <Time>2021-01-13T15:49:57.000Z</Time>
            <Position>
              <LatitudeDegrees>43.35422144271433353424072265625</LatitudeDegrees>
              <LongitudeDegrees>-3.85396664030849933624267578125</LongitudeDegrees>
            </Position>
            <AltitudeMeters>62.40000152587890625</AltitudeMeters>
            <DistanceMeters>31574.804795146</DistanceMeters>
          </Trackpoint>
          <Trackpoint>
            <Time>2021-01-13T15:50:00.000Z</Time>
            <Position>
              <LatitudeDegrees>43.35442118346691131591796875</LatitudeDegrees>
              <LongitudeDegrees>-3.8539150916039943695068359375</LongitudeDegrees>
            </Position>
            <AltitudeMeters>62</AltitudeMeters>
            <DistanceMeters>31597.424347116</DistanceMeters>
          </Trackpoint>
          <Trackpoint>
            <Time>2021-01-13T15:50:02.000Z</Time>
            <Position>
              <LatitudeDegrees>43.35455336607992649078369140625</LatitudeDegrees>
              <LongitudeDegrees>-3.8538694940507411956787109375</LongitudeDegrees>
            </Position>
            <AltitudeMeters>61.59999847412109375</AltitudeMeters>
            <DistanceMeters>31612.592349213</DistanceMeters>
          </Trackpoint>
          <Trackpoint>
            <Time>2021-01-13T15:50:04.000Z</Time>
            <Position>
              <LatitudeDegrees>43.35468538105487823486328125</LatitudeDegrees>
              <LongitudeDegrees>-3.853822387754917144775390625</LongitudeDegrees>
            </Position>
            <AltitudeMeters>61.40000152587890625</AltitudeMeters>
            <DistanceMeters>31627.772253386</DistanceMeters>
          </Trackpoint>
          <Trackpoint>
            <Time>2021-01-13T15:50:05.000Z</Time>
            <Position>
              <LatitudeDegrees>43.35475168190896511077880859375</LatitudeDegrees>
              <LongitudeDegrees>-3.85380269028246402740478515625</LongitudeDegrees>
            </Position>
            <AltitudeMeters>61.40000152587890625</AltitudeMeters>
            <DistanceMeters>31635.321944937</DistanceMeters>
          </Trackpoint>
          <Trackpoint>
            <Time>2021-01-13T15:50:07.000Z</Time>
            <Position>
              <LatitudeDegrees>43.35488461889326572418212890625</LatitudeDegrees>
              <LongitudeDegrees>-3.8537752814590930938720703125</LongitudeDegrees>
            </Position>
            <AltitudeMeters>60.799999237060546875</AltitudeMeters>
            <DistanceMeters>31650.283749476</DistanceMeters>
          </Trackpoint>
          <Trackpoint>
            <Time>2021-01-13T15:50:09.000Z</Time>
            <Position>
              <LatitudeDegrees>43.3550174720585346221923828125</LatitudeDegrees>
              <LongitudeDegrees>-3.85376648046076297760009765625</LongitudeDegrees>
            </Position>
            <AltitudeMeters>60.200000762939453125</AltitudeMeters>
            <DistanceMeters>31665.087801465</DistanceMeters>
          </Trackpoint>
          <Trackpoint>
            <Time>2021-01-13T15:50:10.000Z</Time>
            <Position>
              <LatitudeDegrees>43.35508360527455806732177734375</LatitudeDegrees>
              <LongitudeDegrees>-3.85376865975558757781982421875</LongitudeDegrees>
            </Position>
            <AltitudeMeters>60</AltitudeMeters>
            <DistanceMeters>31672.450992279</DistanceMeters>
          </Trackpoint>
          <Trackpoint>
            <Time>2021-01-13T15:50:11.000Z</Time>
            <Position>
              <LatitudeDegrees>43.35514948703348636627197265625</LatitudeDegrees>
              <LongitudeDegrees>-3.85377452708780765533447265625</LongitudeDegrees>
            </Position>
            <AltitudeMeters>59.59999847412109375</AltitudeMeters>
            <DistanceMeters>31679.798837341</DistanceMeters>
          </Trackpoint>
          <Trackpoint>
            <Time>2021-01-13T15:50:16.000Z</Time>
            <Position>
              <LatitudeDegrees>43.355473615229129791259765625</LatitudeDegrees>
              <LongitudeDegrees>-3.85384258814156055450439453125</LongitudeDegrees>
            </Position>
            <AltitudeMeters>58.40000152587890625</AltitudeMeters>
            <DistanceMeters>31716.293054891</DistanceMeters>
          </Trackpoint>
          <Trackpoint>
            <Time>2021-01-13T15:50:18.000Z</Time>
            <Position>
              <LatitudeDegrees>43.3556062169373035430908203125</LatitudeDegrees>
              <LongitudeDegrees>-3.85387628339231014251708984375</LongitudeDegrees>
            </Position>
            <AltitudeMeters>58</AltitudeMeters>
            <DistanceMeters>31731.301861871</DistanceMeters>
          </Trackpoint>
          <Trackpoint>
            <Time>2021-01-13T15:50:19.000Z</Time>
            <Position>
              <LatitudeDegrees>43.35567251779139041900634765625</LatitudeDegrees>
              <LongitudeDegrees>-3.8538906164467334747314453125</LongitudeDegrees>
            </Position>
            <AltitudeMeters>57.59999847412109375</AltitudeMeters>
            <DistanceMeters>31738.77159027</DistanceMeters>
          </Trackpoint>
          <Trackpoint>
            <Time>2021-01-13T15:50:21.000Z</Time>
            <Position>
              <LatitudeDegrees>43.35580788552761077880859375</LatitudeDegrees>
              <LongitudeDegrees>-3.85391391813755035400390625</LongitudeDegrees>
            </Position>
            <AltitudeMeters>57.200000762939453125</AltitudeMeters>
            <DistanceMeters>31753.956252661</DistanceMeters>
          </Trackpoint>
          <Trackpoint>
            <Time>2021-01-13T15:50:26.000Z</Time>
            <Position>
              <LatitudeDegrees>43.3561505377292633056640625</LatitudeDegrees>
              <LongitudeDegrees>-3.8539472781121730804443359375</LongitudeDegrees>
            </Position>
            <AltitudeMeters>56.40000152587890625</AltitudeMeters>
            <DistanceMeters>31792.189599032</DistanceMeters>
          </Trackpoint>
          <Trackpoint>
            <Time>2021-01-13T15:50:27.000Z</Time>
            <Position>
              <LatitudeDegrees>43.35622052662074565887451171875</LatitudeDegrees>
              <LongitudeDegrees>-3.85394987650215625762939453125</LongitudeDegrees>
            </Position>
            <AltitudeMeters>56.200000762939453125</AltitudeMeters>
            <DistanceMeters>31799.98236902</DistanceMeters>
          </Trackpoint>
          <Trackpoint>
            <Time>2021-01-13T15:50:33.000Z</Time>
            <Position>
              <LatitudeDegrees>43.35663878358900547027587890625</LatitudeDegrees>
              <LongitudeDegrees>-3.8539342023432254791259765625</LongitudeDegrees>
            </Position>
            <AltitudeMeters>55.200000762939453125</AltitudeMeters>
            <DistanceMeters>31846.552440092</DistanceMeters>
          </Trackpoint>
          <Trackpoint>
            <Time>2021-01-13T15:50:34.000Z</Time>
            <Position>
              <LatitudeDegrees>43.35670868866145610809326171875</LatitudeDegrees>
              <LongitudeDegrees>-3.8539378903806209564208984375</LongitudeDegrees>
            </Position>
            <AltitudeMeters>55</AltitudeMeters>
            <DistanceMeters>31854.338834203</DistanceMeters>
          </Trackpoint>
          <Trackpoint>
            <Time>2021-01-13T15:50:40.000Z</Time>
            <Position>
              <LatitudeDegrees>43.3571243472397327423095703125</LatitudeDegrees>
              <LongitudeDegrees>-3.8540379703044891357421875</LongitudeDegrees>
            </Position>
            <AltitudeMeters>54.200000762939453125</AltitudeMeters>
            <DistanceMeters>31901.305974036</DistanceMeters>
          </Trackpoint>
          <Trackpoint>
            <Time>2021-01-13T15:50:46.000Z</Time>
            <Position>
              <LatitudeDegrees>43.35753346793353557586669921875</LatitudeDegrees>
              <LongitudeDegrees>-3.85415489785373210906982421875</LongitudeDegrees>
            </Position>
            <AltitudeMeters>53.200000762939453125</AltitudeMeters>
            <DistanceMeters>31947.814634319</DistanceMeters>
          </Trackpoint>
          <Trackpoint>
            <Time>2021-01-13T15:50:47.000Z</Time>
            <Position>
              <LatitudeDegrees>43.35759901441633701324462890625</LatitudeDegrees>
              <LongitudeDegrees>-3.85417677462100982666015625</LongitudeDegrees>
            </Position>
            <AltitudeMeters>53.200000762939453125</AltitudeMeters>
            <DistanceMeters>31955.322346165</DistanceMeters>
          </Trackpoint>
          <Trackpoint>
            <Time>2021-01-13T15:50:50.000Z</Time>
            <Position>
              <LatitudeDegrees>43.3577948994934558868408203125</LatitudeDegrees>
              <LongitudeDegrees>-3.8542473502457141876220703125</LongitudeDegrees>
            </Position>
            <AltitudeMeters>52.799999237060546875</AltitudeMeters>
            <DistanceMeters>31977.860311027</DistanceMeters>
          </Trackpoint>
          <Trackpoint>
            <Time>2021-01-13T15:50:53.000Z</Time>
            <Position>
              <LatitudeDegrees>43.35798986256122589111328125</LatitudeDegrees>
              <LongitudeDegrees>-3.85432555340230464935302734375</LongitudeDegrees>
            </Position>
            <AltitudeMeters>52.200000762939453125</AltitudeMeters>
            <DistanceMeters>32000.46428823</DistanceMeters>
          </Trackpoint>
          <Trackpoint>
            <Time>2021-01-13T15:50:54.000Z</Time>
            <Position>
              <LatitudeDegrees>43.3580549061298370361328125</LatitudeDegrees>
              <LongitudeDegrees>-3.85435338132083415985107421875</LongitudeDegrees>
            </Position>
            <AltitudeMeters>52</AltitudeMeters>
            <DistanceMeters>32008.046205312</DistanceMeters>
          </Trackpoint>
          <Trackpoint>
            <Time>2021-01-13T15:50:56.000Z</Time>
            <Position>
              <LatitudeDegrees>43.35818340070545673370361328125</LatitudeDegrees>
              <LongitudeDegrees>-3.85441146790981292724609375</LongitudeDegrees>
            </Position>
            <AltitudeMeters>51.200000762939453125</AltitudeMeters>
            <DistanceMeters>32023.100668391</DistanceMeters>
          </Trackpoint>
          <Trackpoint>
            <Time>2021-01-13T15:50:57.000Z</Time>
            <Position>
              <LatitudeDegrees>43.35824492387473583221435546875</LatitudeDegrees>
              <LongitudeDegrees>-3.85443963110446929931640625</LongitudeDegrees>
            </Position>
            <AltitudeMeters>50.799999237060546875</AltitudeMeters>
            <DistanceMeters>32030.317695544</DistanceMeters>
          </Trackpoint>
          <Trackpoint>
            <Time>2021-01-13T15:51:00.000Z</Time>
            <Position>
              <LatitudeDegrees>43.3584170043468475341796875</LatitudeDegrees>
              <LongitudeDegrees>-3.8545162416994571685791015625</LongitudeDegrees>
            </Position>
            <AltitudeMeters>49.799999237060546875</AltitudeMeters>
            <DistanceMeters>32050.449234503</DistanceMeters>
          </Trackpoint>
          <Trackpoint>
            <Time>2021-01-13T15:51:03.000Z</Time>
            <Position>
              <LatitudeDegrees>43.3585881628096103668212890625</LatitudeDegrees>
              <LongitudeDegrees>-3.85458103381097316741943359375</LongitudeDegrees>
            </Position>
            <AltitudeMeters>49.40000152587890625</AltitudeMeters>
            <DistanceMeters>32070.207937016</DistanceMeters>
          </Trackpoint>
          <Trackpoint>
            <Time>2021-01-13T15:51:06.000Z</Time>
            <Position>
              <LatitudeDegrees>43.3587554655969142913818359375</LatitudeDegrees>
              <LongitudeDegrees>-3.8546550460159778594970703125</LongitudeDegrees>
            </Position>
            <AltitudeMeters>48.59999847412109375</AltitudeMeters>
            <DistanceMeters>32089.768673175</DistanceMeters>
          </Trackpoint>
          <Trackpoint>
            <Time>2021-01-13T15:51:08.000Z</Time>
            <Position>
              <LatitudeDegrees>43.3588697947561740875244140625</LatitudeDegrees>
              <LongitudeDegrees>-3.8546989671885967254638671875</LongitudeDegrees>
            </Position>
            <AltitudeMeters>48.40000152587890625</AltitudeMeters>
            <DistanceMeters>32102.980462519</DistanceMeters>
          </Trackpoint>
          <Trackpoint>
            <Time>2021-01-13T15:51:10.000Z</Time>
            <Position>
              <LatitudeDegrees>43.35898722521960735321044921875</LatitudeDegrees>
              <LongitudeDegrees>-3.85474548675119876861572265625</LongitudeDegrees>
            </Position>
            <AltitudeMeters>48.40000152587890625</AltitudeMeters>
            <DistanceMeters>32116.581570783</DistanceMeters>
          </Trackpoint>
          <Trackpoint>
            <Time>2021-01-13T15:51:13.000Z</Time>
            <Position>
              <LatitudeDegrees>43.35916827432811260223388671875</LatitudeDegrees>
              <LongitudeDegrees>-3.8548050820827484130859375</LongitudeDegrees>
            </Position>
            <AltitudeMeters>47.59999847412109375</AltitudeMeters>
            <DistanceMeters>32137.301535175</DistanceMeters>
          </Trackpoint>
          <Trackpoint>
            <Time>2021-01-13T15:51:14.000Z</Time>
            <Position>
              <LatitudeDegrees>43.35923231206834316253662109375</LatitudeDegrees>
              <LongitudeDegrees>-3.85482712648808956146240234375</LongitudeDegrees>
            </Position>
            <AltitudeMeters>47.40000152587890625</AltitudeMeters>
            <DistanceMeters>32144.64876574</DistanceMeters>
          </Trackpoint>
          <Trackpoint>
            <Time>2021-01-13T15:51:15.000Z</Time>
            <Position>
              <LatitudeDegrees>43.35929299704730510711669921875</LatitudeDegrees>
              <LongitudeDegrees>-3.8548448123037815093994140625</LongitudeDegrees>
            </Position>
            <AltitudeMeters>47.200000762939453125</AltitudeMeters>
            <DistanceMeters>32151.553095798</DistanceMeters>
          </Trackpoint>
          <Trackpoint>
            <Time>2021-01-13T15:51:17.000Z</Time>
            <Position>
              <LatitudeDegrees>43.35942761041224002838134765625</LatitudeDegrees>
              <LongitudeDegrees>-3.85487414896488189697265625</LongitudeDegrees>
            </Position>
            <AltitudeMeters>46.799999237060546875</AltitudeMeters>
            <DistanceMeters>32166.722883802</DistanceMeters>
          </Trackpoint>
          <Trackpoint>
            <Time>2021-01-13T15:51:19.000Z</Time>
            <Position>
              <LatitudeDegrees>43.3595574460923671722412109375</LatitudeDegrees>
              <LongitudeDegrees>-3.8548974506556987762451171875</LongitudeDegrees>
            </Position>
            <AltitudeMeters>46.40000152587890625</AltitudeMeters>
            <DistanceMeters>32181.29640081</DistanceMeters>
          </Trackpoint>
          <Trackpoint>
            <Time>2021-01-13T15:51:22.000Z</Time>
            <Position>
              <LatitudeDegrees>43.35977110080420970916748046875</LatitudeDegrees>
              <LongitudeDegrees>-3.85493039153516292572021484375</LongitudeDegrees>
            </Position>
            <AltitudeMeters>46.200000762939453125</AltitudeMeters>
            <DistanceMeters>32205.225591715</DistanceMeters>
          </Trackpoint>
          <Trackpoint>
            <Time>2021-01-13T15:51:23.000Z</Time>
            <Position>
              <LatitudeDegrees>43.35985072888433933258056640625</LatitudeDegrees>
              <LongitudeDegrees>-3.8549430482089519500732421875</LongitudeDegrees>
            </Position>
            <AltitudeMeters>46.200000762939453125</AltitudeMeters>
            <DistanceMeters>32214.146975788</DistanceMeters>
          </Trackpoint>
          <Trackpoint>
            <Time>2021-01-13T15:51:30.000Z</Time>
            <Position>
              <LatitudeDegrees>43.36035565473139286041259765625</LatitudeDegrees>
              <LongitudeDegrees>-3.8550087623298168182373046875</LongitudeDegrees>
            </Position>
            <AltitudeMeters>45.59999847412109375</AltitudeMeters>
            <DistanceMeters>32270.597163355</DistanceMeters>
          </Trackpoint>
          <Trackpoint>
            <Time>2021-01-13T15:51:32.000Z</Time>
            <Position>
              <LatitudeDegrees>43.3604952134191989898681640625</LatitudeDegrees>
              <LongitudeDegrees>-3.85502192191779613494873046875</LongitudeDegrees>
            </Position>
            <AltitudeMeters>45.40000152587890625</AltitudeMeters>
            <DistanceMeters>32286.166762005</DistanceMeters>
          </Trackpoint>
          <Trackpoint>
            <Time>2021-01-13T15:51:37.000Z</Time>
            <Position>
              <LatitudeDegrees>43.36085689254105091094970703125</LatitudeDegrees>
              <LongitudeDegrees>-3.855021335184574127197265625</LongitudeDegrees>
            </Position>
            <AltitudeMeters>44.799999237060546875</AltitudeMeters>
            <DistanceMeters>32326.422438108</DistanceMeters>
          </Trackpoint>
          <Trackpoint>
            <Time>2021-01-13T15:51:40.000Z</Time>
            <Position>
              <LatitudeDegrees>43.36107063107192516326904296875</LatitudeDegrees>
              <LongitudeDegrees>-3.85499308817088603973388671875</LongitudeDegrees>
            </Position>
            <AltitudeMeters>44.200000762939453125</AltitudeMeters>
            <DistanceMeters>32350.321798462</DistanceMeters>
          </Trackpoint>
          <Trackpoint>
            <Time>2021-01-13T15:51:45.000Z</Time>
            <Position>
              <LatitudeDegrees>43.3614199049770832061767578125</LatitudeDegrees>
              <LongitudeDegrees>-3.85494464077055454254150390625</LongitudeDegrees>
            </Position>
            <AltitudeMeters>43.40000152587890625</AltitudeMeters>
            <DistanceMeters>32389.393843758</DistanceMeters>
          </Trackpoint>
          <Trackpoint>
            <Time>2021-01-13T15:51:48.000Z</Time>
            <Position>
              <LatitudeDegrees>43.36162584833800792694091796875</LatitudeDegrees>
              <LongitudeDegrees>-3.8549122028052806854248046875</LongitudeDegrees>
            </Position>
            <AltitudeMeters>43</AltitudeMeters>
            <DistanceMeters>32412.465578548</DistanceMeters>
          </Trackpoint>
          <Trackpoint>
            <Time>2021-01-13T15:51:54.000Z</Time>
            <Position>
              <LatitudeDegrees>43.36201728321611881256103515625</LatitudeDegrees>
              <LongitudeDegrees>-3.85482989251613616943359375</LongitudeDegrees>
            </Position>
            <AltitudeMeters>41.799999237060546875</AltitudeMeters>
            <DistanceMeters>32456.539128484</DistanceMeters>
          </Trackpoint>
          <Trackpoint>
            <Time>2021-01-13T15:52:00.000Z</Time>
            <Position>
              <LatitudeDegrees>43.36239614523947238922119140625</LatitudeDegrees>
              <LongitudeDegrees>-3.85475068353116512298583984375</LongitudeDegrees>
            </Position>
            <AltitudeMeters>41.40000152587890625</AltitudeMeters>
            <DistanceMeters>32499.191517522</DistanceMeters>
          </Trackpoint>
          <Trackpoint>
            <Time>2021-01-13T15:52:04.000Z</Time>
            <Position>
              <LatitudeDegrees>43.362648524343967437744140625</LatitudeDegrees>
              <LongitudeDegrees>-3.85468907654285430908203125</LongitudeDegrees>
            </Position>
            <AltitudeMeters>40.799999237060546875</AltitudeMeters>
            <DistanceMeters>32527.720746572</DistanceMeters>
          </Trackpoint>
          <Trackpoint>
            <Time>2021-01-13T15:52:08.000Z</Time>
            <Position>
              <LatitudeDegrees>43.36290962062776088714599609375</LatitudeDegrees>
              <LongitudeDegrees>-3.854644484817981719970703125</LongitudeDegrees>
            </Position>
            <AltitudeMeters>40.40000152587890625</AltitudeMeters>
            <DistanceMeters>32557.00439695</DistanceMeters>
          </Trackpoint>
          <Trackpoint>
            <Time>2021-01-13T15:52:14.000Z</Time>
            <Position>
              <LatitudeDegrees>43.3633309789001941680908203125</LatitudeDegrees>
              <LongitudeDegrees>-3.85463149286806583404541015625</LongitudeDegrees>
            </Position>
            <AltitudeMeters>39.799999237060546875</AltitudeMeters>
            <DistanceMeters>32603.914207209</DistanceMeters>
          </Trackpoint>
          <Trackpoint>
            <Time>2021-01-13T15:52:20.000Z</Time>
            <Position>
              <LatitudeDegrees>43.36375568993389606475830078125</LatitudeDegrees>
              <LongitudeDegrees>-3.85464054532349109649658203125</LongitudeDegrees>
            </Position>
            <AltitudeMeters>39</AltitudeMeters>
            <DistanceMeters>32651.190928765</DistanceMeters>
          </Trackpoint>
          <Trackpoint>
            <Time>2021-01-13T15:52:21.000Z</Time>
            <Position>
              <LatitudeDegrees>43.36382710374891757965087890625</LatitudeDegrees>
              <LongitudeDegrees>-3.8546376116573810577392578125</LongitudeDegrees>
            </Position>
            <AltitudeMeters>38.799999237060546875</AltitudeMeters>
            <DistanceMeters>32659.143137599</DistanceMeters>
          </Trackpoint>
          <Trackpoint>
            <Time>2021-01-13T15:52:23.000Z</Time>
            <Position>
              <LatitudeDegrees>43.363973535597324371337890625</LatitudeDegrees>
              <LongitudeDegrees>-3.85463182814419269561767578125</LongitudeDegrees>
            </Position>
            <AltitudeMeters>38.40000152587890625</AltitudeMeters>
            <DistanceMeters>32675.448182235</DistanceMeters>
          </Trackpoint>
          <Trackpoint>
            <Time>2021-01-13T15:52:27.000Z</Time>
            <Position>
              <LatitudeDegrees>43.36426086723804473876953125</LatitudeDegrees>
              <LongitudeDegrees>-3.85464012622833251953125</LongitudeDegrees>
            </Position>
            <AltitudeMeters>37.799999237060546875</AltitudeMeters>
            <DistanceMeters>32707.435930234</DistanceMeters>
          </Trackpoint>
          <Trackpoint>
            <Time>2021-01-13T15:52:28.000Z</Time>
            <Position>
              <LatitudeDegrees>43.3643307723104953765869140625</LatitudeDegrees>
              <LongitudeDegrees>-3.85464171878993511199951171875</LongitudeDegrees>
            </Position>
            <AltitudeMeters>37.59999847412109375</AltitudeMeters>
            <DistanceMeters>32715.217684061</DistanceMeters>
          </Trackpoint>
          <Trackpoint>
            <Time>2021-01-13T15:52:30.000Z</Time>
            <Position>
              <LatitudeDegrees>43.3644715882837772369384765625</LatitudeDegrees>
              <LongitudeDegrees>-3.85464892722666263580322265625</LongitudeDegrees>
            </Position>
            <AltitudeMeters>37</AltitudeMeters>
            <DistanceMeters>32730.901986484</DistanceMeters>
          </Trackpoint>
          <Trackpoint>
            <Time>2021-01-13T15:52:31.000Z</Time>
            <Position>
              <LatitudeDegrees>43.3645409904420375823974609375</LatitudeDegrees>
              <LongitudeDegrees>-3.8546523638069629669189453125</LongitudeDegrees>
            </Position>
            <AltitudeMeters>36.59999847412109375</AltitudeMeters>
            <DistanceMeters>32738.631345174</DistanceMeters>
          </Trackpoint>
          <Trackpoint>
            <Time>2021-01-13T15:52:35.000Z</Time>
            <Position>
              <LatitudeDegrees>43.36481499485671520233154296875</LatitudeDegrees>
              <LongitudeDegrees>-3.85465554893016815185546875</LongitudeDegrees>
            </Position>
            <AltitudeMeters>35.40000152587890625</AltitudeMeters>
            <DistanceMeters>32769.129443377</DistanceMeters>
          </Trackpoint>
          <Trackpoint>
            <Time>2021-01-13T15:52:37.000Z</Time>
            <Position>
              <LatitudeDegrees>43.3649506978690624237060546875</LatitudeDegrees>
              <LongitudeDegrees>-3.85466082952916622161865234375</LongitudeDegrees>
            </Position>
            <AltitudeMeters>35</AltitudeMeters>
            <DistanceMeters>32784.239288603</DistanceMeters>
          </Trackpoint>
          <Trackpoint>
            <Time>2021-01-13T15:52:40.000Z</Time>
            <Position>
              <LatitudeDegrees>43.3651491813361644744873046875</LatitudeDegrees>
              <LongitudeDegrees>-3.85466284118592739105224609375</LongitudeDegrees>
            </Position>
            <AltitudeMeters>34.40000152587890625</AltitudeMeters>
            <DistanceMeters>32806.331518045</DistanceMeters>
          </Trackpoint>
          <Trackpoint>
            <Time>2021-01-13T15:52:45.000Z</Time>
            <Position>
              <LatitudeDegrees>43.365483619272708892822265625</LatitudeDegrees>
              <LongitudeDegrees>-3.85466988198459148406982421875</LongitudeDegrees>
            </Position>
            <AltitudeMeters>33.200000762939453125</AltitudeMeters>
            <DistanceMeters>32843.559438648</DistanceMeters>
          </Trackpoint>
          <Trackpoint>
            <Time>2021-01-13T15:52:48.000Z</Time>
            <Position>
              <LatitudeDegrees>43.365692161023616790771484375</LatitudeDegrees>
              <LongitudeDegrees>-3.8546785153448581695556640625</LongitudeDegrees>
            </Position>
            <AltitudeMeters>32.799999237060546875</AltitudeMeters>
            <DistanceMeters>32866.781175771</DistanceMeters>
          </Trackpoint>
          <Trackpoint>
            <Time>2021-01-13T15:52:51.000Z</Time>
            <Position>
              <LatitudeDegrees>43.36590162478387355804443359375</LatitudeDegrees>
              <LongitudeDegrees>-3.854691088199615478515625</LongitudeDegrees>
            </Position>
            <AltitudeMeters>32</AltitudeMeters>
            <DistanceMeters>32890.117152075</DistanceMeters>
          </Trackpoint>
          <Trackpoint>
            <Time>2021-01-13T15:52:53.000Z</Time>
            <Position>
              <LatitudeDegrees>43.3660396747291088104248046875</LatitudeDegrees>
              <LongitudeDegrees>-3.8546979613602161407470703125</LongitudeDegrees>
            </Position>
            <AltitudeMeters>31.6000003814697265625</AltitudeMeters>
            <DistanceMeters>32905.492403982</DistanceMeters>
          </Trackpoint>
          <Trackpoint>
            <Time>2021-01-13T15:52:54.000Z</Time>
            <Position>
              <LatitudeDegrees>43.3661077357828617095947265625</LatitudeDegrees>
              <LongitudeDegrees>-3.854702152311801910400390625</LongitudeDegrees>
            </Position>
            <AltitudeMeters>31.3999996185302734375</AltitudeMeters>
            <DistanceMeters>32913.075511973</DistanceMeters>
          </Trackpoint>
          <Trackpoint>
            <Time>2021-01-13T15:52:55.000Z</Time>
            <Position>
              <LatitudeDegrees>43.36617671884596347808837890625</LatitudeDegrees>
              <LongitudeDegrees>-3.85470709763467311859130859375</LongitudeDegrees>
            </Position>
            <AltitudeMeters>31.3999996185302734375</AltitudeMeters>
            <DistanceMeters>32920.763872032</DistanceMeters>
          </Trackpoint>
          <Trackpoint>
            <Time>2021-01-13T15:52:58.000Z</Time>
            <Position>
              <LatitudeDegrees>43.36638643406331539154052734375</LatitudeDegrees>
              <LongitudeDegrees>-3.85471765883266925811767578125</LongitudeDegrees>
            </Position>
            <AltitudeMeters>30.799999237060546875</AltitudeMeters>
            <DistanceMeters>32944.121121409</DistanceMeters>
          </Trackpoint>
          <Trackpoint>
            <Time>2021-01-13T15:53:05.000Z</Time>
            <Position>
              <LatitudeDegrees>43.36688281036913394927978515625</LatitudeDegrees>
              <LongitudeDegrees>-3.85474028997123241424560546875</LongitudeDegrees>
            </Position>
            <AltitudeMeters>29.799999237060546875</AltitudeMeters>
            <DistanceMeters>32999.399150296</DistanceMeters>
          </Trackpoint>
          <Trackpoint>
            <Time>2021-01-13T15:53:10.000Z</Time>
            <Position>
              <LatitudeDegrees>43.367251865565776824951171875</LatitudeDegrees>
              <LongitudeDegrees>-3.8547948561608791351318359375</LongitudeDegrees>
            </Position>
            <AltitudeMeters>28.799999237060546875</AltitudeMeters>
            <DistanceMeters>33040.712390047</DistanceMeters>
          </Trackpoint>
          <Trackpoint>
            <Time>2021-01-13T15:53:11.000Z</Time>
            <Position>
              <LatitudeDegrees>43.36732319556176662445068359375</LatitudeDegrees>
              <LongitudeDegrees>-3.854827880859375</LongitudeDegrees>
            </Position>
            <AltitudeMeters>28.6000003814697265625</AltitudeMeters>
            <DistanceMeters>33049.089306189</DistanceMeters>
          </Trackpoint>
          <Trackpoint>
            <Time>2021-01-13T15:53:15.000Z</Time>
            <Position>
              <LatitudeDegrees>43.36758806370198726654052734375</LatitudeDegrees>
              <LongitudeDegrees>-3.855012618005275726318359375</LongitudeDegrees>
            </Position>
            <AltitudeMeters>27.6000003814697265625</AltitudeMeters>
            <DistanceMeters>33082.14276121</DistanceMeters>
          </Trackpoint>
          <Trackpoint>
            <Time>2021-01-13T15:53:17.000Z</Time>
            <Position>
              <LatitudeDegrees>43.367707170546054840087890625</LatitudeDegrees>
              <LongitudeDegrees>-3.85513365268707275390625</LongitudeDegrees>
            </Position>
            <AltitudeMeters>27.200000762939453125</AltitudeMeters>
            <DistanceMeters>33098.624349713</DistanceMeters>
          </Trackpoint>
          <Trackpoint>
            <Time>2021-01-13T15:53:18.000Z</Time>
            <Position>
              <LatitudeDegrees>43.36776383221149444580078125</LatitudeDegrees>
              <LongitudeDegrees>-3.85519794188439846038818359375</LongitudeDegrees>
            </Position>
            <AltitudeMeters>27</AltitudeMeters>
            <DistanceMeters>33106.798856773</DistanceMeters>
          </Trackpoint>
          <Trackpoint>
            <Time>2021-01-13T15:53:20.000Z</Time>
            <Position>
              <LatitudeDegrees>43.36786709725856781005859375</LatitudeDegrees>
              <LongitudeDegrees>-3.855334818363189697265625</LongitudeDegrees>
            </Position>
            <AltitudeMeters>26.6000003814697265625</AltitudeMeters>
            <DistanceMeters>33122.759950616</DistanceMeters>
          </Trackpoint>
          <Trackpoint>
            <Time>2021-01-13T15:53:22.000Z</Time>
            <Position>
              <LatitudeDegrees>43.3679601363837718963623046875</LatitudeDegrees>
              <LongitudeDegrees>-3.8554878719151020050048828125</LongitudeDegrees>
            </Position>
            <AltitudeMeters>26</AltitudeMeters>
            <DistanceMeters>33138.903028888</DistanceMeters>
          </Trackpoint>
          <Trackpoint>
            <Time>2021-01-13T15:53:24.000Z</Time>
            <Position>
              <LatitudeDegrees>43.3680469729006290435791015625</LatitudeDegrees>
              <LongitudeDegrees>-3.85564821772277355194091796875</LongitudeDegrees>
            </Position>
            <AltitudeMeters>25.3999996185302734375</AltitudeMeters>
            <DistanceMeters>33155.081030484</DistanceMeters>
          </Trackpoint>
          <Trackpoint>
            <Time>2021-01-13T15:53:26.000Z</Time>
            <Position>
              <LatitudeDegrees>43.3681324683129787445068359375</LatitudeDegrees>
              <LongitudeDegrees>-3.855807892978191375732421875</LongitudeDegrees>
            </Position>
            <AltitudeMeters>24.799999237060546875</AltitudeMeters>
            <DistanceMeters>33171.12704462</DistanceMeters>
          </Trackpoint>
          <Trackpoint>
            <Time>2021-01-13T15:53:28.000Z</Time>
            <Position>
              <LatitudeDegrees>43.3682213164865970611572265625</LatitudeDegrees>
              <LongitudeDegrees>-3.8559679873287677764892578125</LongitudeDegrees>
            </Position>
            <AltitudeMeters>24.200000762939453125</AltitudeMeters>
            <DistanceMeters>33187.423502769</DistanceMeters>
          </Trackpoint>
          <Trackpoint>
            <Time>2021-01-13T15:53:32.000Z</Time>
            <Position>
              <LatitudeDegrees>43.3684090711176395416259765625</LatitudeDegrees>
              <LongitudeDegrees>-3.8562660478055477142333984375</LongitudeDegrees>
            </Position>
            <AltitudeMeters>23.200000762939453125</AltitudeMeters>
            <DistanceMeters>33219.334373338</DistanceMeters>
          </Trackpoint>
          <Trackpoint>
            <Time>2021-01-13T15:53:36.000Z</Time>
            <Position>
              <LatitudeDegrees>43.36862138472497463226318359375</LatitudeDegrees>
              <LongitudeDegrees>-3.8565087877213954925537109375</LongitudeDegrees>
            </Position>
            <AltitudeMeters>22.200000762939453125</AltitudeMeters>
            <DistanceMeters>33250.061669555</DistanceMeters>
          </Trackpoint>
          <Trackpoint>
            <Time>2021-01-13T15:53:37.000Z</Time>
            <Position>
              <LatitudeDegrees>43.36867846548557281494140625</LatitudeDegrees>
              <LongitudeDegrees>-3.85655681602656841278076171875</LongitudeDegrees>
            </Position>
            <AltitudeMeters>22</AltitudeMeters>
            <DistanceMeters>33257.510212343</DistanceMeters>
          </Trackpoint>
          <Trackpoint>
            <Time>2021-01-13T15:53:38.000Z</Time>
            <Position>
              <LatitudeDegrees>43.36873789317905902862548828125</LatitudeDegrees>
              <LongitudeDegrees>-3.85659738443791866302490234375</LongitudeDegrees>
            </Position>
            <AltitudeMeters>22</AltitudeMeters>
            <DistanceMeters>33264.8942222</DistanceMeters>
          </Trackpoint>
          <Trackpoint>
            <Time>2021-01-13T15:53:41.000Z</Time>
            <Position>
              <LatitudeDegrees>43.36892212741076946258544921875</LatitudeDegrees>
              <LongitudeDegrees>-3.85668220929801464080810546875</LongitudeDegrees>
            </Position>
            <AltitudeMeters>21.6000003814697265625</AltitudeMeters>
            <DistanceMeters>33286.517759336</DistanceMeters>
          </Trackpoint>
          <Trackpoint>
            <Time>2021-01-13T15:53:42.000Z</Time>
            <Position>
              <LatitudeDegrees>43.36898331530392169952392578125</LatitudeDegrees>
              <LongitudeDegrees>-3.8567054271697998046875</LongitudeDegrees>
            </Position>
            <AltitudeMeters>21.6000003814697265625</AltitudeMeters>
            <DistanceMeters>33293.582406002</DistanceMeters>
          </Trackpoint>
          <Trackpoint>
            <Time>2021-01-13T15:53:46.000Z</Time>
            <Position>
              <LatitudeDegrees>43.3692237921059131622314453125</LatitudeDegrees>
              <LongitudeDegrees>-3.8568058423697948455810546875</LongitudeDegrees>
            </Position>
            <AltitudeMeters>21.6000003814697265625</AltitudeMeters>
            <DistanceMeters>33321.55385472</DistanceMeters>
          </Trackpoint>
          <Trackpoint>
            <Time>2021-01-13T15:53:48.000Z</Time>
            <Position>
              <LatitudeDegrees>43.36934323422610759735107421875</LatitudeDegrees>
              <LongitudeDegrees>-3.85685705579817295074462890625</LongitudeDegrees>
            </Position>
            <AltitudeMeters>21.6000003814697265625</AltitudeMeters>
            <DistanceMeters>33335.478430168</DistanceMeters>
          </Trackpoint>
          <Trackpoint>
            <Time>2021-01-13T15:53:51.000Z</Time>
            <Position>
              <LatitudeDegrees>43.36952394805848598480224609375</LatitudeDegrees>
              <LongitudeDegrees>-3.856939114630222320556640625</LongitudeDegrees>
            </Position>
            <AltitudeMeters>21.6000003814697265625</AltitudeMeters>
            <DistanceMeters>33356.659797405</DistanceMeters>
          </Trackpoint>
          <Trackpoint>
            <Time>2021-01-13T15:53:52.000Z</Time>
            <Position>
              <LatitudeDegrees>43.3695825375616550445556640625</LatitudeDegrees>
              <LongitudeDegrees>-3.85697104968130588531494140625</LongitudeDegrees>
            </Position>
            <AltitudeMeters>21.6000003814697265625</AltitudeMeters>
            <DistanceMeters>33363.673773201</DistanceMeters>
          </Trackpoint>
          <Trackpoint>
            <Time>2021-01-13T15:53:55.000Z</Time>
            <Position>
              <LatitudeDegrees>43.36975595913827419281005859375</LatitudeDegrees>
              <LongitudeDegrees>-3.8570908270776271820068359375</LongitudeDegrees>
            </Position>
            <AltitudeMeters>21.6000003814697265625</AltitudeMeters>
            <DistanceMeters>33385.272239561</DistanceMeters>
          </Trackpoint>
          <Trackpoint>
            <Time>2021-01-13T15:53:58.000Z</Time>
            <Position>
              <LatitudeDegrees>43.369923345744609832763671875</LatitudeDegrees>
              <LongitudeDegrees>-3.85722242295742034912109375</LongitudeDegrees>
            </Position>
            <AltitudeMeters>21.6000003814697265625</AltitudeMeters>
            <DistanceMeters>33406.73060991</DistanceMeters>
          </Trackpoint>
          <Trackpoint>
            <Time>2021-01-13T15:53:59.000Z</Time>
            <Position>
              <LatitudeDegrees>43.36997724138200283050537109375</LatitudeDegrees>
              <LongitudeDegrees>-3.85726776905357837677001953125</LongitudeDegrees>
            </Position>
            <AltitudeMeters>21.6000003814697265625</AltitudeMeters>
            <DistanceMeters>33413.762586773</DistanceMeters>
          </Trackpoint>
          <Trackpoint>
            <Time>2021-01-13T15:54:08.000Z</Time>
            <Position>
              <LatitudeDegrees>43.37045802734792232513427734375</LatitudeDegrees>
              <LongitudeDegrees>-3.85770664550364017486572265625</LongitudeDegrees>
            </Position>
            <AltitudeMeters>21.200000762939453125</AltitudeMeters>
            <DistanceMeters>33477.98454817</DistanceMeters>
          </Trackpoint>
          <Trackpoint>
            <Time>2021-01-13T15:54:09.000Z</Time>
            <Position>
              <LatitudeDegrees>43.37051385082304477691650390625</LatitudeDegrees>
              <LongitudeDegrees>-3.85775886476039886474609375</LongitudeDegrees>
            </Position>
            <AltitudeMeters>21</AltitudeMeters>
            <DistanceMeters>33485.498271476</DistanceMeters>
          </Trackpoint>
          <Trackpoint>
            <Time>2021-01-13T15:54:18.000Z</Time>
            <Position>
              <LatitudeDegrees>43.3710259012877941131591796875</LatitudeDegrees>
              <LongitudeDegrees>-3.8581901974976062774658203125</LongitudeDegrees>
            </Position>
            <AltitudeMeters>19.799999237060546875</AltitudeMeters>
            <DistanceMeters>33552.326445976</DistanceMeters>
          </Trackpoint>
          <Trackpoint>
            <Time>2021-01-13T15:54:23.000Z</Time>
            <Position>
              <LatitudeDegrees>43.37134935893118381500244140625</LatitudeDegrees>
              <LongitudeDegrees>-3.8582730107009410858154296875</LongitudeDegrees>
            </Position>
            <AltitudeMeters>19.3999996185302734375</AltitudeMeters>
            <DistanceMeters>33588.946023283</DistanceMeters>
          </Trackpoint>
          <Trackpoint>
            <Time>2021-01-13T15:54:24.000Z</Time>
            <Position>
              <LatitudeDegrees>43.37141071446239948272705078125</LatitudeDegrees>
              <LongitudeDegrees>-3.85827460326254367828369140625</LongitudeDegrees>
            </Position>
            <AltitudeMeters>19.3999996185302734375</AltitudeMeters>
            <DistanceMeters>33595.776058049</DistanceMeters>
          </Trackpoint>
          <Trackpoint>
            <Time>2021-01-13T15:54:28.000Z</Time>
            <Position>
              <LatitudeDegrees>43.3716475032269954681396484375</LatitudeDegrees>
              <LongitudeDegrees>-3.8582186959683895111083984375</LongitudeDegrees>
            </Position>
            <AltitudeMeters>19</AltitudeMeters>
            <DistanceMeters>33622.516582227</DistanceMeters>
          </Trackpoint>
          <Trackpoint>
            <Time>2021-01-13T15:54:29.000Z</Time>
            <Position>
              <LatitudeDegrees>43.37169821374118328094482421875</LatitudeDegrees>
              <LongitudeDegrees>-3.85818743146955966949462890625</LongitudeDegrees>
            </Position>
            <AltitudeMeters>18.799999237060546875</AltitudeMeters>
            <DistanceMeters>33628.702084138</DistanceMeters>
          </Trackpoint>
          <Trackpoint>
            <Time>2021-01-13T15:54:32.000Z</Time>
            <Position>
              <LatitudeDegrees>43.3718583919107913970947265625</LatitudeDegrees>
              <LongitudeDegrees>-3.8580654747784137725830078125</LongitudeDegrees>
            </Position>
            <AltitudeMeters>18.3999996185302734375</AltitudeMeters>
            <DistanceMeters>33649.078612667</DistanceMeters>
          </Trackpoint>
          <Trackpoint>
            <Time>2021-01-13T15:54:38.000Z</Time>
            <Position>
              <LatitudeDegrees>43.3722181431949138641357421875</LatitudeDegrees>
              <LongitudeDegrees>-3.85775928385555744171142578125</LongitudeDegrees>
            </Position>
            <AltitudeMeters>17.799999237060546875</AltitudeMeters>
            <DistanceMeters>33696.163366758</DistanceMeters>
          </Trackpoint>
          <Trackpoint>
            <Time>2021-01-13T15:54:40.000Z</Time>
            <Position>
              <LatitudeDegrees>43.37234261445701122283935546875</LatitudeDegrees>
              <LongitudeDegrees>-3.85765082202851772308349609375</LongitudeDegrees>
            </Position>
            <AltitudeMeters>17.6000003814697265625</AltitudeMeters>
            <DistanceMeters>33712.562566026</DistanceMeters>
          </Trackpoint>
          <Trackpoint>
            <Time>2021-01-13T15:54:45.000Z</Time>
            <Position>
              <LatitudeDegrees>43.37267093360424041748046875</LatitudeDegrees>
              <LongitudeDegrees>-3.85740322060883045196533203125</LongitudeDegrees>
            </Position>
            <AltitudeMeters>16.799999237060546875</AltitudeMeters>
            <DistanceMeters>33754.235870451</DistanceMeters>
          </Trackpoint>
          <Trackpoint>
            <Time>2021-01-13T15:54:49.000Z</Time>
            <Position>
              <LatitudeDegrees>43.3729165233671665191650390625</LatitudeDegrees>
              <LongitudeDegrees>-3.8573201559484004974365234375</LongitudeDegrees>
            </Position>
            <AltitudeMeters>16.6000003814697265625</AltitudeMeters>
            <DistanceMeters>33782.384477123</DistanceMeters>
          </Trackpoint>
          <Trackpoint>
            <Time>2021-01-13T15:54:52.000Z</Time>
            <Position>
              <LatitudeDegrees>43.373101763427257537841796875</LatitudeDegrees>
              <LongitudeDegrees>-3.8573392666876316070556640625</LongitudeDegrees>
            </Position>
            <AltitudeMeters>16.6000003814697265625</AltitudeMeters>
            <DistanceMeters>33803.060158947</DistanceMeters>
          </Trackpoint>
          <Trackpoint>
            <Time>2021-01-13T15:54:54.000Z</Time>
            <Position>
              <LatitudeDegrees>43.3732340298593044281005859375</LatitudeDegrees>
              <LongitudeDegrees>-3.85736365802586078643798828125</LongitudeDegrees>
            </Position>
            <AltitudeMeters>16.3999996185302734375</AltitudeMeters>
            <DistanceMeters>33817.913232622</DistanceMeters>
          </Trackpoint>
          <Trackpoint>
            <Time>2021-01-13T15:54:58.000Z</Time>
            <Position>
              <LatitudeDegrees>43.373514153063297271728515625</LatitudeDegrees>
              <LongitudeDegrees>-3.85739735327661037445068359375</LongitudeDegrees>
            </Position>
            <AltitudeMeters>16.200000762939453125</AltitudeMeters>
            <DistanceMeters>33849.210364312</DistanceMeters>
          </Trackpoint>
          <Trackpoint>
            <Time>2021-01-13T15:54:59.000Z</Time>
            <Position>
              <LatitudeDegrees>43.3735810406506061553955078125</LatitudeDegrees>
              <LongitudeDegrees>-3.8574069924652576446533203125</LongitudeDegrees>
            </Position>
            <AltitudeMeters>16.200000762939453125</AltitudeMeters>
            <DistanceMeters>33856.695188576</DistanceMeters>
          </Trackpoint>
          <Trackpoint>
            <Time>2021-01-13T15:55:04.000Z</Time>
            <Position>
              <LatitudeDegrees>43.37385018356144428253173828125</LatitudeDegrees>
              <LongitudeDegrees>-3.85743834078311920166015625</LongitudeDegrees>
            </Position>
            <AltitudeMeters>15.6000003814697265625</AltitudeMeters>
            <DistanceMeters>33886.758493303</DistanceMeters>
          </Trackpoint>
          <Trackpoint>
            <Time>2021-01-13T15:55:07.000Z</Time>
            <Position>
              <LatitudeDegrees>43.37397373281419277191162109375</LatitudeDegrees>
              <LongitudeDegrees>-3.8574438728392124176025390625</LongitudeDegrees>
            </Position>
            <AltitudeMeters>15.3999996185302734375</AltitudeMeters>
            <DistanceMeters>33900.516707665</DistanceMeters>
          </Trackpoint>
          <Trackpoint>
            <Time>2021-01-13T15:55:10.000Z</Time>
            <Position>
              <LatitudeDegrees>43.3741208352148532867431640625</LatitudeDegrees>
              <LongitudeDegrees>-3.857459127902984619140625</LongitudeDegrees>
            </Position>
            <AltitudeMeters>15.3999996185302734375</AltitudeMeters>
            <DistanceMeters>33916.93599304</DistanceMeters>
          </Trackpoint>
          <Trackpoint>
            <Time>2021-01-13T15:55:16.000Z</Time>
            <Position>
              <LatitudeDegrees>43.37439903058111667633056640625</LatitudeDegrees>
              <LongitudeDegrees>-3.85748930275440216064453125</LongitudeDegrees>
            </Position>
            <AltitudeMeters>15.3999996185302734375</AltitudeMeters>
            <DistanceMeters>33947.995631265</DistanceMeters>
          </Trackpoint>
          <Trackpoint>
            <Time>2021-01-13T15:55:22.000Z</Time>
            <Position>
              <LatitudeDegrees>43.37471804581582546234130859375</LatitudeDegrees>
              <LongitudeDegrees>-3.85759617201983928680419921875</LongitudeDegrees>
            </Position>
            <AltitudeMeters>15.80000019073486328125</AltitudeMeters>
            <DistanceMeters>33984.54016787</DistanceMeters>
          </Trackpoint>
          <Trackpoint>
            <Time>2021-01-13T15:55:24.000Z</Time>
            <Position>
              <LatitudeDegrees>43.37482382543385028839111328125</LatitudeDegrees>
              <LongitudeDegrees>-3.8576658256351947784423828125</LongitudeDegrees>
            </Position>
            <AltitudeMeters>15.80000019073486328125</AltitudeMeters>
            <DistanceMeters>33997.593117052</DistanceMeters>
          </Trackpoint>
          <Trackpoint>
            <Time>2021-01-13T15:55:27.000Z</Time>
            <Position>
              <LatitudeDegrees>43.37496162392199039459228515625</LatitudeDegrees>
              <LongitudeDegrees>-3.8578314520418643951416015625</LongitudeDegrees>
            </Position>
            <AltitudeMeters>16</AltitudeMeters>
            <DistanceMeters>34017.959450334</DistanceMeters>
          </Trackpoint>
          <Trackpoint>
            <Time>2021-01-13T15:55:30.000Z</Time>
            <Position>
              <LatitudeDegrees>43.37506254203617572784423828125</LatitudeDegrees>
              <LongitudeDegrees>-3.858049213886260986328125</LongitudeDegrees>
            </Position>
            <AltitudeMeters>16.200000762939453125</AltitudeMeters>
            <DistanceMeters>34038.853229686</DistanceMeters>
          </Trackpoint>
          <Trackpoint>
            <Time>2021-01-13T15:55:31.000Z</Time>
            <Position>
              <LatitudeDegrees>43.3750922977924346923828125</LatitudeDegrees>
              <LongitudeDegrees>-3.8581281714141368865966796875</LongitudeDegrees>
            </Position>
            <AltitudeMeters>16.200000762939453125</AltitudeMeters>
            <DistanceMeters>34046.049582124</DistanceMeters>
          </Trackpoint>
          <Trackpoint>
            <Time>2021-01-13T15:55:37.000Z</Time>
            <Position>
              <LatitudeDegrees>43.37531517259776592254638671875</LatitudeDegrees>
              <LongitudeDegrees>-3.85856512002646923065185546875</LongitudeDegrees>
            </Position>
            <AltitudeMeters>16.200000762939453125</AltitudeMeters>
            <DistanceMeters>34089.235224971</DistanceMeters>
          </Trackpoint>
          <Trackpoint>
            <Time>2021-01-13T15:55:41.000Z</Time>
            <Position>
              <LatitudeDegrees>43.37553008459508419036865234375</LatitudeDegrees>
              <LongitudeDegrees>-3.8587584905326366424560546875</LongitudeDegrees>
            </Position>
            <AltitudeMeters>16.200000762939453125</AltitudeMeters>
            <DistanceMeters>34117.816948075</DistanceMeters>
          </Trackpoint>
          <Trackpoint>
            <Time>2021-01-13T15:55:47.000Z</Time>
            <Position>
              <LatitudeDegrees>43.37587483227252960205078125</LatitudeDegrees>
              <LongitudeDegrees>-3.8589891605079174041748046875</LongitudeDegrees>
            </Position>
            <AltitudeMeters>16.200000762939453125</AltitudeMeters>
            <DistanceMeters>34160.485424287</DistanceMeters>
          </Trackpoint>
          <Trackpoint>
            <Time>2021-01-13T15:55:51.000Z</Time>
            <Position>
              <LatitudeDegrees>43.37610307149589061737060546875</LatitudeDegrees>
              <LongitudeDegrees>-3.85914581827819347381591796875</LongitudeDegrees>
            </Position>
            <AltitudeMeters>16</AltitudeMeters>
            <DistanceMeters>34188.874883825</DistanceMeters>
          </Trackpoint>
          <Trackpoint>
            <Time>2021-01-13T15:55:53.000Z</Time>
            <Position>
              <LatitudeDegrees>43.3762297220528125762939453125</LatitudeDegrees>
              <LongitudeDegrees>-3.85920868255198001861572265625</LongitudeDegrees>
            </Position>
            <AltitudeMeters>16</AltitudeMeters>
            <DistanceMeters>34203.860810595</DistanceMeters>
          </Trackpoint>
          <Trackpoint>
            <Time>2021-01-13T15:55:58.000Z</Time>
            <Position>
              <LatitudeDegrees>43.3765192329883575439453125</LatitudeDegrees>
              <LongitudeDegrees>-3.85936223901808261871337890625</LongitudeDegrees>
            </Position>
            <AltitudeMeters>16.200000762939453125</AltitudeMeters>
            <DistanceMeters>34238.395668006</DistanceMeters>
          </Trackpoint>
          <Trackpoint>
            <Time>2021-01-13T15:55:59.000Z</Time>
            <Position>
              <LatitudeDegrees>43.3765770681202411651611328125</LatitudeDegrees>
              <LongitudeDegrees>-3.85939241386950016021728515625</LongitudeDegrees>
            </Position>
            <AltitudeMeters>16.200000762939453125</AltitudeMeters>
            <DistanceMeters>34245.280351823</DistanceMeters>
          </Trackpoint>
          <Trackpoint>
            <Time>2021-01-13T15:56:03.000Z</Time>
            <Position>
              <LatitudeDegrees>43.376819305121898651123046875</LatitudeDegrees>
              <LongitudeDegrees>-3.85949961841106414794921875</LongitudeDegrees>
            </Position>
            <AltitudeMeters>16.3999996185302734375</AltitudeMeters>
            <DistanceMeters>34273.602298444</DistanceMeters>
          </Trackpoint>
          <Trackpoint>
            <Time>2021-01-13T15:56:05.000Z</Time>
            <Position>
              <LatitudeDegrees>43.376956768333911895751953125</LatitudeDegrees>
              <LongitudeDegrees>-3.85951680131256580352783203125</LongitudeDegrees>
            </Position>
            <AltitudeMeters>16.3999996185302734375</AltitudeMeters>
            <DistanceMeters>34288.96550573</DistanceMeters>
          </Trackpoint>
          <Trackpoint>
            <Time>2021-01-13T15:56:07.000Z</Time>
            <Position>
              <LatitudeDegrees>43.3770786412060260772705078125</LatitudeDegrees>
              <LongitudeDegrees>-3.85952015407383441925048828125</LongitudeDegrees>
            </Position>
            <AltitudeMeters>16.6000003814697265625</AltitudeMeters>
            <DistanceMeters>34302.532711715</DistanceMeters>
          </Trackpoint>
          <Trackpoint>
            <Time>2021-01-13T15:56:11.000Z</Time>
            <Position>
              <LatitudeDegrees>43.3773217163980007171630859375</LatitudeDegrees>
              <LongitudeDegrees>-3.85951143689453601837158203125</LongitudeDegrees>
            </Position>
            <AltitudeMeters>16.6000003814697265625</AltitudeMeters>
            <DistanceMeters>34329.596480124</DistanceMeters>
          </Trackpoint>
          <Trackpoint>
            <Time>2021-01-13T15:56:15.000Z</Time>
            <Position>
              <LatitudeDegrees>43.37754962034523487091064453125</LatitudeDegrees>
              <LongitudeDegrees>-3.85958201251924037933349609375</LongitudeDegrees>
            </Position>
            <AltitudeMeters>16.6000003814697265625</AltitudeMeters>
            <DistanceMeters>34355.597185364</DistanceMeters>
          </Trackpoint>
          <Trackpoint>
            <Time>2021-01-13T15:56:16.000Z</Time>
            <Position>
              <LatitudeDegrees>43.37760644964873790740966796875</LatitudeDegrees>
              <LongitudeDegrees>-3.85960933752357959747314453125</LongitudeDegrees>
            </Position>
            <AltitudeMeters>16.6000003814697265625</AltitudeMeters>
            <DistanceMeters>34362.297748033</DistanceMeters>
          </Trackpoint>
          <Trackpoint>
            <Time>2021-01-13T15:56:17.000Z</Time>
            <Position>
              <LatitudeDegrees>43.377657830715179443359375</LatitudeDegrees>
              <LongitudeDegrees>-3.85964605025947093963623046875</LongitudeDegrees>
            </Position>
            <AltitudeMeters>16.6000003814697265625</AltitudeMeters>
            <DistanceMeters>34368.741372129</DistanceMeters>
          </Trackpoint>
          <Trackpoint>
            <Time>2021-01-13T15:56:20.000Z</Time>
            <Position>
              <LatitudeDegrees>43.3778008259832859039306640625</LatitudeDegrees>
              <LongitudeDegrees>-3.85982290841639041900634765625</LongitudeDegrees>
            </Position>
            <AltitudeMeters>16.799999237060546875</AltitudeMeters>
            <DistanceMeters>34390.142645626</DistanceMeters>
          </Trackpoint>
          <Trackpoint>
            <Time>2021-01-13T15:56:22.000Z</Time>
            <Position>
              <LatitudeDegrees>43.37789294309914112091064453125</LatitudeDegrees>
              <LongitudeDegrees>-3.85994352400302886962890625</LongitudeDegrees>
            </Position>
            <AltitudeMeters>16.799999237060546875</AltitudeMeters>
            <DistanceMeters>34404.296204042</DistanceMeters>
          </Trackpoint>
          <Trackpoint>
            <Time>2021-01-13T15:56:24.000Z</Time>
            <Position>
              <LatitudeDegrees>43.37799520231783390045166015625</LatitudeDegrees>
              <LongitudeDegrees>-3.8599705137312412261962890625</LongitudeDegrees>
            </Position>
            <AltitudeMeters>16.799999237060546875</AltitudeMeters>
            <DistanceMeters>34415.885568004</DistanceMeters>
          </Trackpoint>
          <Trackpoint>
            <Time>2021-01-13T15:56:26.000Z</Time>
            <Position>
              <LatitudeDegrees>43.3780673705041408538818359375</LatitudeDegrees>
              <LongitudeDegrees>-3.85988124646246433258056640625</LongitudeDegrees>
            </Position>
            <AltitudeMeters>16.799999237060546875</AltitudeMeters>
            <DistanceMeters>34426.686891425</DistanceMeters>
          </Trackpoint>
          <Trackpoint>
            <Time>2021-01-13T15:56:30.000Z</Time>
            <Position>
              <LatitudeDegrees>43.3780774287879467010498046875</LatitudeDegrees>
              <LongitudeDegrees>-3.85956265032291412353515625</LongitudeDegrees>
            </Position>
            <AltitudeMeters>16.799999237060546875</AltitudeMeters>
            <DistanceMeters>34452.48520056</DistanceMeters>
          </Trackpoint>
          <Trackpoint>
            <Time>2021-01-13T15:56:34.000Z</Time>
            <Position>
              <LatitudeDegrees>43.3780452422797679901123046875</LatitudeDegrees>
              <LongitudeDegrees>-3.8591923378407955169677734375</LongitudeDegrees>
            </Position>
            <AltitudeMeters>16.6000003814697265625</AltitudeMeters>
            <DistanceMeters>34482.656294609</DistanceMeters>
          </Trackpoint>
          <Trackpoint>
            <Time>2021-01-13T15:56:37.000Z</Time>
            <Position>
              <LatitudeDegrees>43.37816032581031322479248046875</LatitudeDegrees>
              <LongitudeDegrees>-3.85892285965383052825927734375</LongitudeDegrees>
            </Position>
            <AltitudeMeters>16.3999996185302734375</AltitudeMeters>
            <DistanceMeters>34507.941258762</DistanceMeters>
          </Trackpoint>
          <Trackpoint>
            <Time>2021-01-13T15:56:39.000Z</Time>
            <Position>
              <LatitudeDegrees>43.37829426862299442291259765625</LatitudeDegrees>
              <LongitudeDegrees>-3.85878455825150012969970703125</LongitudeDegrees>
            </Position>
            <AltitudeMeters>16.200000762939453125</AltitudeMeters>
            <DistanceMeters>34526.580549551</DistanceMeters>
          </Trackpoint>
          <Trackpoint>
            <Time>2021-01-13T15:56:40.000Z</Time>
            <Position>
              <LatitudeDegrees>43.3783753216266632080078125</LatitudeDegrees>
              <LongitudeDegrees>-3.85872789658606052398681640625</LongitudeDegrees>
            </Position>
            <AltitudeMeters>15.80000019073486328125</AltitudeMeters>
            <DistanceMeters>34536.699890778</DistanceMeters>
          </Trackpoint>
          <Trackpoint>
            <Time>2021-01-13T15:56:41.000Z</Time>
            <Position>
              <LatitudeDegrees>43.37845981121063232421875</LatitudeDegrees>
              <LongitudeDegrees>-3.8586676307022571563720703125</LongitudeDegrees>
            </Position>
            <AltitudeMeters>14.80000019073486328125</AltitudeMeters>
            <DistanceMeters>34547.292279546</DistanceMeters>
          </Trackpoint>
          <Trackpoint>
            <Time>2021-01-13T15:56:42.000Z</Time>
            <Position>
              <LatitudeDegrees>43.37854564189910888671875</LatitudeDegrees>
              <LongitudeDegrees>-3.858599402010440826416015625</LongitudeDegrees>
            </Position>
            <AltitudeMeters>14.19999980926513671875</AltitudeMeters>
            <DistanceMeters>34558.325204383</DistanceMeters>
          </Trackpoint>
          <Trackpoint>
            <Time>2021-01-13T15:56:43.000Z</Time>
            <Position>
              <LatitudeDegrees>43.37863222695887088775634765625</LatitudeDegrees>
              <LongitudeDegrees>-3.8585244677960872650146484375</LongitudeDegrees>
            </Position>
            <AltitudeMeters>13.6000003814697265625</AltitudeMeters>
            <DistanceMeters>34569.710182085</DistanceMeters>
          </Trackpoint>
          <Trackpoint>
            <Time>2021-01-13T15:56:45.000Z</Time>
            <Position>
              <LatitudeDegrees>43.3787992782890796661376953125</LatitudeDegrees>
              <LongitudeDegrees>-3.85836244560778141021728515625</LongitudeDegrees>
            </Position>
            <AltitudeMeters>12.6000003814697265625</AltitudeMeters>
            <DistanceMeters>34592.458712166</DistanceMeters>
          </Trackpoint>
          <Trackpoint>
            <Time>2021-01-13T15:56:46.000Z</Time>
            <Position>
              <LatitudeDegrees>43.3788670040667057037353515625</LatitudeDegrees>
              <LongitudeDegrees>-3.85827661491930484771728515625</LongitudeDegrees>
            </Position>
            <AltitudeMeters>12</AltitudeMeters>
            <DistanceMeters>34602.707069065</DistanceMeters>
          </Trackpoint>
          <Trackpoint>
            <Time>2021-01-13T15:56:47.000Z</Time>
            <Position>
              <LatitudeDegrees>43.37893129326403141021728515625</LatitudeDegrees>
              <LongitudeDegrees>-3.858203776180744171142578125</LongitudeDegrees>
            </Position>
            <AltitudeMeters>11.3999996185302734375</AltitudeMeters>
            <DistanceMeters>34611.976436755</DistanceMeters>
          </Trackpoint>
          <Trackpoint>
            <Time>2021-01-13T15:56:48.000Z</Time>
            <Position>
              <LatitudeDegrees>43.3789984323084354400634765625</LatitudeDegrees>
              <LongitudeDegrees>-3.8581435941159725189208984375</LongitudeDegrees>
            </Position>
            <AltitudeMeters>10.80000019073486328125</AltitudeMeters>
            <DistanceMeters>34620.89529001</DistanceMeters>
          </Trackpoint>
          <Trackpoint>
            <Time>2021-01-13T15:56:50.000Z</Time>
            <Position>
              <LatitudeDegrees>43.3791236579418182373046875</LatitudeDegrees>
              <LongitudeDegrees>-3.8580208830535411834716796875</LongitudeDegrees>
            </Position>
            <AltitudeMeters>9</AltitudeMeters>
            <DistanceMeters>34638.006696402</DistanceMeters>
          </Trackpoint>
          <Trackpoint>
            <Time>2021-01-13T15:56:52.000Z</Time>
            <Position>
              <LatitudeDegrees>43.37922734208405017852783203125</LatitudeDegrees>
              <LongitudeDegrees>-3.85788350366055965423583984375</LongitudeDegrees>
            </Position>
            <AltitudeMeters>7.19999980926513671875</AltitudeMeters>
            <DistanceMeters>34654.028211717</DistanceMeters>
          </Trackpoint>
          <Trackpoint>
            <Time>2021-01-13T15:56:53.000Z</Time>
            <Position>
              <LatitudeDegrees>43.37925416417419910430908203125</LatitudeDegrees>
              <LongitudeDegrees>-3.857806809246540069580078125</LongitudeDegrees>
            </Position>
            <AltitudeMeters>6.19999980926513671875</AltitudeMeters>
            <DistanceMeters>34660.913551311</DistanceMeters>
          </Trackpoint>
          <Trackpoint>
            <Time>2021-01-13T15:56:55.000Z</Time>
            <Position>
              <LatitudeDegrees>43.37929666042327880859375</LatitudeDegrees>
              <LongitudeDegrees>-3.85766339488327503204345703125</LongitudeDegrees>
            </Position>
            <AltitudeMeters>4.400000095367431640625</AltitudeMeters>
            <DistanceMeters>34673.44231098</DistanceMeters>
          </Trackpoint>
          <Trackpoint>
            <Time>2021-01-13T15:56:56.000Z</Time>
            <Position>
              <LatitudeDegrees>43.37932817637920379638671875</LatitudeDegrees>
              <LongitudeDegrees>-3.85760639794170856475830078125</LongitudeDegrees>
            </Position>
            <AltitudeMeters>3</AltitudeMeters>
            <DistanceMeters>34679.236603362</DistanceMeters>
          </Trackpoint>
          <Trackpoint>
            <Time>2021-01-13T15:56:58.000Z</Time>
            <Position>
              <LatitudeDegrees>43.37940235622227191925048828125</LatitudeDegrees>
              <LongitudeDegrees>-3.85750078596174716949462890625</LongitudeDegrees>
            </Position>
            <AltitudeMeters>1.60000002384185791015625</AltitudeMeters>
            <DistanceMeters>34691.118363128</DistanceMeters>
          </Trackpoint>
          <Trackpoint>
            <Time>2021-01-13T15:56:59.000Z</Time>
            <Position>
              <LatitudeDegrees>43.37944258935749530792236328125</LatitudeDegrees>
              <LongitudeDegrees>-3.85745577514171600341796875</LongitudeDegrees>
            </Position>
            <AltitudeMeters>1.39999997615814208984375</AltitudeMeters>
            <DistanceMeters>34696.890796071</DistanceMeters>
          </Trackpoint>
          <Trackpoint>
            <Time>2021-01-13T15:57:00.000Z</Time>
            <Position>
              <LatitudeDegrees>43.37948449887335300445556640625</LatitudeDegrees>
              <LongitudeDegrees>-3.85741160251200199127197265625</LongitudeDegrees>
            </Position>
            <AltitudeMeters>1.2000000476837158203125</AltitudeMeters>
            <DistanceMeters>34702.766337088</DistanceMeters>
          </Trackpoint>
          <Trackpoint>
            <Time>2021-01-13T15:57:02.000Z</Time>
            <Position>
              <LatitudeDegrees>43.37957401759922504425048828125</LatitudeDegrees>
              <LongitudeDegrees>-3.8573315553367137908935546875</LongitudeDegrees>
            </Position>
            <AltitudeMeters>1.2000000476837158203125</AltitudeMeters>
            <DistanceMeters>34714.648856824</DistanceMeters>
          </Trackpoint>
          <Trackpoint>
            <Time>2021-01-13T15:57:05.000Z</Time>
            <Position>
              <LatitudeDegrees>43.3796954713761806488037109375</LatitudeDegrees>
              <LongitudeDegrees>-3.85721630416810512542724609375</LongitudeDegrees>
            </Position>
            <AltitudeMeters>1.2000000476837158203125</AltitudeMeters>
            <DistanceMeters>34731.070066973</DistanceMeters>
          </Trackpoint>
          <Trackpoint>
            <Time>2021-01-13T15:57:06.000Z</Time>
            <Position>
              <LatitudeDegrees>43.379727490246295928955078125</LatitudeDegrees>
              <LongitudeDegrees>-3.85717841796576976776123046875</LongitudeDegrees>
            </Position>
            <AltitudeMeters>1.2000000476837158203125</AltitudeMeters>
            <DistanceMeters>34735.769808135</DistanceMeters>
          </Trackpoint>
          <Trackpoint>
            <Time>2021-01-13T15:57:10.000Z</Time>
            <Position>
              <LatitudeDegrees>43.37978054769337177276611328125</LatitudeDegrees>
              <LongitudeDegrees>-3.8570532761514186859130859375</LongitudeDegrees>
            </Position>
            <AltitudeMeters>1.60000002384185791015625</AltitudeMeters>
            <DistanceMeters>34747.489341517</DistanceMeters>
          </Trackpoint>
          <Trackpoint>
            <Time>2021-01-13T15:57:11.000Z</Time>
            <Position>
              <LatitudeDegrees>43.37979110889136791229248046875</LatitudeDegrees>
              <LongitudeDegrees>-3.85703357867896556854248046875</LongitudeDegrees>
            </Position>
            <AltitudeMeters>1.60000002384185791015625</AltitudeMeters>
            <DistanceMeters>34749.469001381</DistanceMeters>
          </Trackpoint>
          <Trackpoint>
            <Time>2021-01-13T15:57:14.000Z</Time>
            <Position>
              <LatitudeDegrees>43.37984575890004634857177734375</LatitudeDegrees>
              <LongitudeDegrees>-3.8569758273661136627197265625</LongitudeDegrees>
            </Position>
            <AltitudeMeters>1.7999999523162841796875</AltitudeMeters>
            <DistanceMeters>34757.138546215</DistanceMeters>
          </Trackpoint>
          <Trackpoint>
            <Time>2021-01-13T15:57:18.000Z</Time>
            <Position>
              <LatitudeDegrees>43.3799724094569683074951171875</LatitudeDegrees>
              <LongitudeDegrees>-3.85683861561119556427001953125</LongitudeDegrees>
            </Position>
            <AltitudeMeters>1.7999999523162841796875</AltitudeMeters>
            <DistanceMeters>34775.080485774</DistanceMeters>
          </Trackpoint>
          <Trackpoint>
            <Time>2021-01-13T15:57:23.000Z</Time>
            <Position>
              <LatitudeDegrees>43.38023400865495204925537109375</LatitudeDegrees>
              <LongitudeDegrees>-3.85661532171070575714111328125</LongitudeDegrees>
            </Position>
            <AltitudeMeters>1.7999999523162841796875</AltitudeMeters>
            <DistanceMeters>34809.345095053</DistanceMeters>
          </Trackpoint>
          <Trackpoint>
            <Time>2021-01-13T15:57:28.000Z</Time>
            <Position>
              <LatitudeDegrees>43.3805054984986782073974609375</LatitudeDegrees>
              <LongitudeDegrees>-3.8563875854015350341796875</LongitudeDegrees>
            </Position>
            <AltitudeMeters>0.20000000298023223876953125</AltitudeMeters>
            <DistanceMeters>34844.735625749</DistanceMeters>
          </Trackpoint>
          <Trackpoint>
            <Time>2021-01-13T15:57:29.000Z</Time>
            <Position>
              <LatitudeDegrees>43.380558304488658905029296875</LatitudeDegrees>
              <LongitudeDegrees>-3.85633452795445919036865234375</LongitudeDegrees>
            </Position>
            <AltitudeMeters>0</AltitudeMeters>
            <DistanceMeters>34852.013083982</DistanceMeters>
          </Trackpoint>
          <Trackpoint>
            <Time>2021-01-13T15:57:35.000Z</Time>
            <Position>
              <LatitudeDegrees>43.38086818344891071319580078125</LatitudeDegrees>
              <LongitudeDegrees>-3.85604619048535823822021484375</LongitudeDegrees>
            </Position>
            <AltitudeMeters>-0.4000000059604644775390625</AltitudeMeters>
            <DistanceMeters>34893.650077463</DistanceMeters>
          </Trackpoint>
          <Trackpoint>
            <Time>2021-01-13T15:57:36.000Z</Time>
            <Position>
              <LatitudeDegrees>43.38092165999114513397216796875</LatitudeDegrees>
              <LongitudeDegrees>-3.85600470006465911865234375</LongitudeDegrees>
            </Position>
            <AltitudeMeters>-0.4000000059604644775390625</AltitudeMeters>
            <DistanceMeters>34900.484077417</DistanceMeters>
          </Trackpoint>
          <Trackpoint>
            <Time>2021-01-13T15:57:41.000Z</Time>
            <Position>
              <LatitudeDegrees>43.381175883114337921142578125</LatitudeDegrees>
              <LongitudeDegrees>-3.855815269052982330322265625</LongitudeDegrees>
            </Position>
            <AltitudeMeters>-0.60000002384185791015625</AltitudeMeters>
            <DistanceMeters>34932.662654229</DistanceMeters>
          </Trackpoint>
          <Trackpoint>
            <Time>2021-01-13T15:57:47.000Z</Time>
            <Position>
              <LatitudeDegrees>43.38148844428360462188720703125</LatitudeDegrees>
              <LongitudeDegrees>-3.8555827550590038299560546875</LongitudeDegrees>
            </Position>
            <AltitudeMeters>-0.60000002384185791015625</AltitudeMeters>
            <DistanceMeters>34972.210439253</DistanceMeters>
          </Trackpoint>
          <Trackpoint>
            <Time>2021-01-13T15:57:56.000Z</Time>
            <Position>
              <LatitudeDegrees>43.38198314420878887176513671875</LatitudeDegrees>
              <LongitudeDegrees>-3.855245299637317657470703125</LongitudeDegrees>
            </Position>
            <AltitudeMeters>-0.4000000059604644775390625</AltitudeMeters>
            <DistanceMeters>35033.666941865</DistanceMeters>
          </Trackpoint>
          <Trackpoint>
            <Time>2021-01-13T15:58:03.000Z</Time>
            <Position>
              <LatitudeDegrees>43.382366113364696502685546875</LatitudeDegrees>
              <LongitudeDegrees>-3.85502024553716182708740234375</LongitudeDegrees>
            </Position>
            <AltitudeMeters>-0.4000000059604644775390625</AltitudeMeters>
            <DistanceMeters>35080.017092422</DistanceMeters>
          </Trackpoint>
          <Trackpoint>
            <Time>2021-01-13T15:58:09.000Z</Time>
            <Position>
              <LatitudeDegrees>43.38270700536668300628662109375</LatitudeDegrees>
              <LongitudeDegrees>-3.8547898270189762115478515625</LongitudeDegrees>
            </Position>
            <AltitudeMeters>-0.20000000298023223876953125</AltitudeMeters>
            <DistanceMeters>35122.290204538</DistanceMeters>
          </Trackpoint>
          <Trackpoint>
            <Time>2021-01-13T15:58:11.000Z</Time>
            <Position>
              <LatitudeDegrees>43.3828143775463104248046875</LatitudeDegrees>
              <LongitudeDegrees>-3.854702822864055633544921875</LongitudeDegrees>
            </Position>
            <AltitudeMeters>-0.20000000298023223876953125</AltitudeMeters>
            <DistanceMeters>35136.159222468</DistanceMeters>
          </Trackpoint>
          <Trackpoint>
            <Time>2021-01-13T15:58:16.000Z</Time>
            <Position>
              <LatitudeDegrees>43.38307530619204044342041015625</LatitudeDegrees>
              <LongitudeDegrees>-3.8544656150043010711669921875</LongitudeDegrees>
            </Position>
            <AltitudeMeters>0</AltitudeMeters>
            <DistanceMeters>35170.967548152</DistanceMeters>
          </Trackpoint>
          <Trackpoint>
            <Time>2021-01-13T15:58:22.000Z</Time>
            <Position>
              <LatitudeDegrees>43.3833590336143970489501953125</LatitudeDegrees>
              <LongitudeDegrees>-3.85411650873720645904541015625</LongitudeDegrees>
            </Position>
            <AltitudeMeters>0</AltitudeMeters>
            <DistanceMeters>35213.331987879</DistanceMeters>
          </Trackpoint>
          <Trackpoint>
            <Time>2021-01-13T15:58:29.000Z</Time>
            <Position>
              <LatitudeDegrees>43.38368316181004047393798828125</LatitudeDegrees>
              <LongitudeDegrees>-3.853648044168949127197265625</LongitudeDegrees>
            </Position>
            <AltitudeMeters>0</AltitudeMeters>
            <DistanceMeters>35265.653061686</DistanceMeters>
          </Trackpoint>
          <Trackpoint>
            <Time>2021-01-13T15:58:35.000Z</Time>
            <Position>
              <LatitudeDegrees>43.3839803002774715423583984375</LatitudeDegrees>
              <LongitudeDegrees>-3.853256441652774810791015625</LongitudeDegrees>
            </Position>
            <AltitudeMeters>0</AltitudeMeters>
            <DistanceMeters>35311.448248483</DistanceMeters>
          </Trackpoint>
          <Trackpoint>
            <Time>2021-01-13T15:58:37.000Z</Time>
            <Position>
              <LatitudeDegrees>43.38407627306878566741943359375</LatitudeDegrees>
              <LongitudeDegrees>-3.85311185382306575775146484375</LongitudeDegrees>
            </Position>
            <AltitudeMeters>0</AltitudeMeters>
            <DistanceMeters>35327.287807944</DistanceMeters>
          </Trackpoint>
          <Trackpoint>
            <Time>2021-01-13T15:58:42.000Z</Time>
            <Position>
              <LatitudeDegrees>43.38430141098797321319580078125</LatitudeDegrees>
              <LongitudeDegrees>-3.85278395377099514007568359375</LongitudeDegrees>
            </Position>
            <AltitudeMeters>0</AltitudeMeters>
            <DistanceMeters>35363.776705177</DistanceMeters>
          </Trackpoint>
          <Trackpoint>
            <Time>2021-01-13T15:58:43.000Z</Time>
            <Position>
              <LatitudeDegrees>43.384344242513179779052734375</LatitudeDegrees>
              <LongitudeDegrees>-3.85271823965013027191162109375</LongitudeDegrees>
            </Position>
            <AltitudeMeters>0</AltitudeMeters>
            <DistanceMeters>35370.916367741</DistanceMeters>
          </Trackpoint>
          <Trackpoint>
            <Time>2021-01-13T15:58:47.000Z</Time>
            <Position>
              <LatitudeDegrees>43.384518586099147796630859375</LatitudeDegrees>
              <LongitudeDegrees>-3.8524536229670047760009765625</LongitudeDegrees>
            </Position>
            <AltitudeMeters>0.20000000298023223876953125</AltitudeMeters>
            <DistanceMeters>35399.807614619</DistanceMeters>
          </Trackpoint>
          <Trackpoint>
            <Time>2021-01-13T15:58:52.000Z</Time>
            <Position>
              <LatitudeDegrees>43.3847849629819393157958984375</LatitudeDegrees>
              <LongitudeDegrees>-3.8521377928555011749267578125</LongitudeDegrees>
            </Position>
            <AltitudeMeters>0.20000000298023223876953125</AltitudeMeters>
            <DistanceMeters>35438.944548921</DistanceMeters>
          </Trackpoint>
          <Trackpoint>
            <Time>2021-01-13T15:58:58.000Z</Time>
            <Position>
              <LatitudeDegrees>43.3850927464663982391357421875</LatitudeDegrees>
              <LongitudeDegrees>-3.85176815092563629150390625</LongitudeDegrees>
            </Position>
            <AltitudeMeters>0</AltitudeMeters>
            <DistanceMeters>35484.414806923</DistanceMeters>
          </Trackpoint>
          <Trackpoint>
            <Time>2021-01-13T15:59:04.000Z</Time>
            <Position>
              <LatitudeDegrees>43.3853784017264842987060546875</LatitudeDegrees>
              <LongitudeDegrees>-3.85141686536371707916259765625</LongitudeDegrees>
            </Position>
            <AltitudeMeters>0</AltitudeMeters>
            <DistanceMeters>35527.056079566</DistanceMeters>
          </Trackpoint>
          <Trackpoint>
            <Time>2021-01-13T15:59:07.000Z</Time>
            <Position>
              <LatitudeDegrees>43.385511673986911773681640625</LatitudeDegrees>
              <LongitudeDegrees>-3.8512415997684001922607421875</LongitudeDegrees>
            </Position>
            <AltitudeMeters>-0.20000000298023223876953125</AltitudeMeters>
            <DistanceMeters>35547.574809647</DistanceMeters>
          </Trackpoint>
          <Trackpoint>
            <Time>2021-01-13T15:59:09.000Z</Time>
            <Position>
              <LatitudeDegrees>43.38560882024466991424560546875</LatitudeDegrees>
              <LongitudeDegrees>-3.8511282764375209808349609375</LongitudeDegrees>
            </Position>
            <AltitudeMeters>-0.20000000298023223876953125</AltitudeMeters>
            <DistanceMeters>35561.750362233</DistanceMeters>
          </Trackpoint>
          <Trackpoint>
            <Time>2021-01-13T15:59:10.000Z</Time>
            <Position>
              <LatitudeDegrees>43.38565550744533538818359375</LatitudeDegrees>
              <LongitudeDegrees>-3.85106666944921016693115234375</LongitudeDegrees>
            </Position>
            <AltitudeMeters>-0.20000000298023223876953125</AltitudeMeters>
            <DistanceMeters>35568.950478125</DistanceMeters>
          </Trackpoint>
          <Trackpoint>
            <Time>2021-01-13T15:59:17.000Z</Time>
            <Position>
              <LatitudeDegrees>43.3860033564269542694091796875</LatitudeDegrees>
              <LongitudeDegrees>-3.8506610691547393798828125</LongitudeDegrees>
            </Position>
            <AltitudeMeters>-0.20000000298023223876953125</AltitudeMeters>
            <DistanceMeters>35619.698124586</DistanceMeters>
          </Trackpoint>
          <Trackpoint>
            <Time>2021-01-13T15:59:25.000Z</Time>
            <Position>
              <LatitudeDegrees>43.38641080074012279510498046875</LatitudeDegrees>
              <LongitudeDegrees>-3.85024306364357471466064453125</LongitudeDegrees>
            </Position>
            <AltitudeMeters>-0.20000000298023223876953125</AltitudeMeters>
            <DistanceMeters>35676.264647085</DistanceMeters>
          </Trackpoint>
          <Trackpoint>
            <Time>2021-01-13T15:59:33.000Z</Time>
            <Position>
              <LatitudeDegrees>43.3868204243481159210205078125</LatitudeDegrees>
              <LongitudeDegrees>-3.8498327694833278656005859375</LongitudeDegrees>
            </Position>
            <AltitudeMeters>-0.4000000059604644775390625</AltitudeMeters>
            <DistanceMeters>35732.656497123</DistanceMeters>
          </Trackpoint>
          <Trackpoint>
            <Time>2021-01-13T15:59:40.000Z</Time>
            <Position>
              <LatitudeDegrees>43.38715829886496067047119140625</LatitudeDegrees>
              <LongitudeDegrees>-3.84945550002157688140869140625</LongitudeDegrees>
            </Position>
            <AltitudeMeters>-0.60000002384185791015625</AltitudeMeters>
            <DistanceMeters>35781.086384541</DistanceMeters>
          </Trackpoint>
          <Trackpoint>
            <Time>2021-01-13T15:59:49.000Z</Time>
            <Position>
              <LatitudeDegrees>43.3876026235520839691162109375</LatitudeDegrees>
              <LongitudeDegrees>-3.84900354780256748199462890625</LongitudeDegrees>
            </Position>
            <AltitudeMeters>-0.4000000059604644775390625</AltitudeMeters>
            <DistanceMeters>35842.585189712</DistanceMeters>
          </Trackpoint>
          <Trackpoint>
            <Time>2021-01-13T15:59:50.000Z</Time>
            <Position>
              <LatitudeDegrees>43.38765115477144718170166015625</LatitudeDegrees>
              <LongitudeDegrees>-3.84895191527903079986572265625</LongitudeDegrees>
            </Position>
            <AltitudeMeters>-0.4000000059604644775390625</AltitudeMeters>
            <DistanceMeters>35849.41257974</DistanceMeters>
          </Trackpoint>
          <Trackpoint>
            <Time>2021-01-13T15:59:59.000Z</Time>
            <Position>
              <LatitudeDegrees>43.38808969594538211822509765625</LatitudeDegrees>
              <LongitudeDegrees>-3.84847976267337799072265625</LongitudeDegrees>
            </Position>
            <AltitudeMeters>-0.20000000298023223876953125</AltitudeMeters>
            <DistanceMeters>35911.38806744</DistanceMeters>
          </Trackpoint>
          <Trackpoint>
            <Time>2021-01-13T16:00:08.000Z</Time>
            <Position>
              <LatitudeDegrees>43.38853829540312290191650390625</LatitudeDegrees>
              <LongitudeDegrees>-3.84800140745937824249267578125</LongitudeDegrees>
            </Position>
            <AltitudeMeters>-0.4000000059604644775390625</AltitudeMeters>
            <DistanceMeters>35974.554891309</DistanceMeters>
          </Trackpoint>
          <Trackpoint>
            <Time>2021-01-13T16:00:10.000Z</Time>
            <Position>
              <LatitudeDegrees>43.38863384909927845001220703125</LatitudeDegrees>
              <LongitudeDegrees>-3.84789529256522655487060546875</LongitudeDegrees>
            </Position>
            <AltitudeMeters>-0.4000000059604644775390625</AltitudeMeters>
            <DistanceMeters>35988.221569807</DistanceMeters>
          </Trackpoint>
          <Trackpoint>
            <Time>2021-01-13T16:00:17.000Z</Time>
            <Position>
              <LatitudeDegrees>43.3889806084334850311279296875</LatitudeDegrees>
              <LongitudeDegrees>-3.8475465215742588043212890625</LongitudeDegrees>
            </Position>
            <AltitudeMeters>-0.4000000059604644775390625</AltitudeMeters>
            <DistanceMeters>36036.027279999</DistanceMeters>
          </Trackpoint>
          <Trackpoint>
            <Time>2021-01-13T16:00:23.000Z</Time>
            <Position>
              <LatitudeDegrees>43.38927783071994781494140625</LatitudeDegrees>
              <LongitudeDegrees>-3.8472347147762775421142578125</LongitudeDegrees>
            </Position>
            <AltitudeMeters>-0.4000000059604644775390625</AltitudeMeters>
            <DistanceMeters>36077.625760127</DistanceMeters>
          </Trackpoint>
          <Trackpoint>
            <Time>2021-01-13T16:00:31.000Z</Time>
            <Position>
              <LatitudeDegrees>43.3896776475012302398681640625</LatitudeDegrees>
              <LongitudeDegrees>-3.84681536816060543060302734375</LongitudeDegrees>
            </Position>
            <AltitudeMeters>0</AltitudeMeters>
            <DistanceMeters>36133.578664458</DistanceMeters>
          </Trackpoint>
          <Trackpoint>
            <Time>2021-01-13T16:00:38.000Z</Time>
            <Position>
              <LatitudeDegrees>43.39001770131289958953857421875</LatitudeDegrees>
              <LongitudeDegrees>-3.8464186526834964752197265625</LongitudeDegrees>
            </Position>
            <AltitudeMeters>0.20000000298023223876953125</AltitudeMeters>
            <DistanceMeters>36183.198444618</DistanceMeters>
          </Trackpoint>
          <Trackpoint>
            <Time>2021-01-13T16:00:43.000Z</Time>
            <Position>
              <LatitudeDegrees>43.39021232910454273223876953125</LatitudeDegrees>
              <LongitudeDegrees>-3.8460773415863513946533203125</LongitudeDegrees>
            </Position>
            <AltitudeMeters>0.20000000298023223876953125</AltitudeMeters>
            <DistanceMeters>36218.289173935</DistanceMeters>
          </Trackpoint>
          <Trackpoint>
            <Time>2021-01-13T16:00:44.000Z</Time>
            <Position>
              <LatitudeDegrees>43.39024820365011692047119140625</LatitudeDegrees>
              <LongitudeDegrees>-3.846003748476505279541015625</LongitudeDegrees>
            </Position>
            <AltitudeMeters>0.20000000298023223876953125</AltitudeMeters>
            <DistanceMeters>36225.457237479</DistanceMeters>
          </Trackpoint>
          <Trackpoint>
            <Time>2021-01-13T16:00:53.000Z</Time>
            <Position>
              <LatitudeDegrees>43.39058163575828075408935546875</LatitudeDegrees>
              <LongitudeDegrees>-3.84536571800708770751953125</LongitudeDegrees>
            </Position>
            <AltitudeMeters>0</AltitudeMeters>
            <DistanceMeters>36289.021089027</DistanceMeters>
          </Trackpoint>
          <Trackpoint>
            <Time>2021-01-13T16:01:00.000Z</Time>
            <Position>
              <LatitudeDegrees>43.39081465266644954681396484375</LatitudeDegrees>
              <LongitudeDegrees>-3.844919465482234954833984375</LongitudeDegrees>
            </Position>
            <AltitudeMeters>0</AltitudeMeters>
            <DistanceMeters>36333.466374521</DistanceMeters>
          </Trackpoint>
          <Trackpoint>
            <Time>2021-01-13T16:01:07.000Z</Time>
            <Position>
              <LatitudeDegrees>43.3910636790096759796142578125</LatitudeDegrees>
              <LongitudeDegrees>-3.844431973993778228759765625</LongitudeDegrees>
            </Position>
            <AltitudeMeters>0</AltitudeMeters>
            <DistanceMeters>36381.662627532</DistanceMeters>
          </Trackpoint>
          <Trackpoint>
            <Time>2021-01-13T16:01:13.000Z</Time>
            <Position>
              <LatitudeDegrees>43.391299545764923095703125</LatitudeDegrees>
              <LongitudeDegrees>-3.84399200789630413055419921875</LongitudeDegrees>
            </Position>
            <AltitudeMeters>0</AltitudeMeters>
            <DistanceMeters>36425.88344971</DistanceMeters>
          </Trackpoint>
          <Trackpoint>
            <Time>2021-01-13T16:01:19.000Z</Time>
            <Position>
              <LatitudeDegrees>43.39153985492885112762451171875</LatitudeDegrees>
              <LongitudeDegrees>-3.84356352500617504119873046875</LongitudeDegrees>
            </Position>
            <AltitudeMeters>0.20000000298023223876953125</AltitudeMeters>
            <DistanceMeters>36469.660556324</DistanceMeters>
          </Trackpoint>
          <Trackpoint>
            <Time>2021-01-13T16:01:24.000Z</Time>
            <Position>
              <LatitudeDegrees>43.391711600124835968017578125</LatitudeDegrees>
              <LongitudeDegrees>-3.84321282617747783660888671875</LongitudeDegrees>
            </Position>
            <AltitudeMeters>0.4000000059604644775390625</AltitudeMeters>
            <DistanceMeters>36503.865157831</DistanceMeters>
          </Trackpoint>
          <Trackpoint>
            <Time>2021-01-13T16:01:25.000Z</Time>
            <Position>
              <LatitudeDegrees>43.39174278080463409423828125</LatitudeDegrees>
              <LongitudeDegrees>-3.84314225055277347564697265625</LongitudeDegrees>
            </Position>
            <AltitudeMeters>0.4000000059604644775390625</AltitudeMeters>
            <DistanceMeters>36510.545475023</DistanceMeters>
          </Trackpoint>
          <Trackpoint>
            <Time>2021-01-13T16:01:29.000Z</Time>
            <Position>
              <LatitudeDegrees>43.39181109331548213958740234375</LatitudeDegrees>
              <LongitudeDegrees>-3.8428184576332569122314453125</LongitudeDegrees>
            </Position>
            <AltitudeMeters>0.800000011920928955078125</AltitudeMeters>
            <DistanceMeters>36537.815327522</DistanceMeters>
          </Trackpoint>
          <Trackpoint>
            <Time>2021-01-13T16:01:32.000Z</Time>
            <Position>
              <LatitudeDegrees>43.39183372445404529571533203125</LatitudeDegrees>
              <LongitudeDegrees>-3.842564485967159271240234375</LongitudeDegrees>
            </Position>
            <AltitudeMeters>1</AltitudeMeters>
            <DistanceMeters>36558.510217364</DistanceMeters>
          </Trackpoint>
          <Trackpoint>
            <Time>2021-01-13T16:01:36.000Z</Time>
            <Position>
              <LatitudeDegrees>43.39186741970479488372802734375</LatitudeDegrees>
              <LongitudeDegrees>-3.8422340713441371917724609375</LongitudeDegrees>
            </Position>
            <AltitudeMeters>1.2000000476837158203125</AltitudeMeters>
            <DistanceMeters>36585.496131188</DistanceMeters>
          </Trackpoint>
          <Trackpoint>
            <Time>2021-01-13T16:01:40.000Z</Time>
            <Position>
              <LatitudeDegrees>43.39188669808208942413330078125</LatitudeDegrees>
              <LongitudeDegrees>-3.8418991304934024810791015625</LongitudeDegrees>
            </Position>
            <AltitudeMeters>1.2000000476837158203125</AltitudeMeters>
            <DistanceMeters>36612.670947131</DistanceMeters>
          </Trackpoint>
          <Trackpoint>
            <Time>2021-01-13T16:01:43.000Z</Time>
            <Position>
              <LatitudeDegrees>43.39188921265304088592529296875</LatitudeDegrees>
              <LongitudeDegrees>-3.8416503556072711944580078125</LongitudeDegrees>
            </Position>
            <AltitudeMeters>1.2000000476837158203125</AltitudeMeters>
            <DistanceMeters>36632.793737392</DistanceMeters>
          </Trackpoint>
          <Trackpoint>
            <Time>2021-01-13T16:01:49.000Z</Time>
            <Position>
              <LatitudeDegrees>43.39193296618759632110595703125</LatitudeDegrees>
              <LongitudeDegrees>-3.84113260544836521148681640625</LongitudeDegrees>
            </Position>
            <AltitudeMeters>1.2000000476837158203125</AltitudeMeters>
            <DistanceMeters>36674.951555001</DistanceMeters>
          </Trackpoint>
          <Trackpoint>
            <Time>2021-01-13T16:01:55.000Z</Time>
            <Position>
              <LatitudeDegrees>43.39199893176555633544921875</LatitudeDegrees>
              <LongitudeDegrees>-3.840609155595302581787109375</LongitudeDegrees>
            </Position>
            <AltitudeMeters>0.800000011920928955078125</AltitudeMeters>
            <DistanceMeters>36717.92013026</DistanceMeters>
          </Trackpoint>
          <Trackpoint>
            <Time>2021-01-13T16:02:01.000Z</Time>
            <Position>
              <LatitudeDegrees>43.39211753569543361663818359375</LatitudeDegrees>
              <LongitudeDegrees>-3.84004815481603145599365234375</LongitudeDegrees>
            </Position>
            <AltitudeMeters>0.60000002384185791015625</AltitudeMeters>
            <DistanceMeters>36765.175072263</DistanceMeters>
          </Trackpoint>
          <Trackpoint>
            <Time>2021-01-13T16:02:05.000Z</Time>
            <Position>
              <LatitudeDegrees>43.39221493341028690338134765625</LatitudeDegrees>
              <LongitudeDegrees>-3.83969041518867015838623046875</LongitudeDegrees>
            </Position>
            <AltitudeMeters>0.4000000059604644775390625</AltitudeMeters>
            <DistanceMeters>36796.072932089</DistanceMeters>
          </Trackpoint>
          <Trackpoint>
            <Time>2021-01-13T16:02:06.000Z</Time>
            <Position>
              <LatitudeDegrees>43.39224980212748050689697265625</LatitudeDegrees>
              <LongitudeDegrees>-3.83961061947047710418701171875</LongitudeDegrees>
            </Position>
            <AltitudeMeters>0.4000000059604644775390625</AltitudeMeters>
            <DistanceMeters>36803.603461955</DistanceMeters>
          </Trackpoint>
          <Trackpoint>
            <Time>2021-01-13T16:02:12.000Z</Time>
            <Position>
              <LatitudeDegrees>43.39250729419291019439697265625</LatitudeDegrees>
              <LongitudeDegrees>-3.83915715850889682769775390625</LongitudeDegrees>
            </Position>
            <AltitudeMeters>0.4000000059604644775390625</AltitudeMeters>
            <DistanceMeters>36850.148706826</DistanceMeters>
          </Trackpoint>
          <Trackpoint>
            <Time>2021-01-13T16:02:20.000Z</Time>
            <Position>
              <LatitudeDegrees>43.3928887546062469482421875</LatitudeDegrees>
              <LongitudeDegrees>-3.8386174477636814117431640625</LongitudeDegrees>
            </Position>
            <AltitudeMeters>0.4000000059604644775390625</AltitudeMeters>
            <DistanceMeters>36911.042519406</DistanceMeters>
          </Trackpoint>
          <Trackpoint>
            <Time>2021-01-13T16:02:27.000Z</Time>
            <Position>
              <LatitudeDegrees>43.39321020059287548065185546875</LatitudeDegrees>
              <LongitudeDegrees>-3.83813624270260334014892578125</LongitudeDegrees>
            </Position>
            <AltitudeMeters>0.4000000059604644775390625</AltitudeMeters>
            <DistanceMeters>36963.907786064</DistanceMeters>
          </Trackpoint>
          <Trackpoint>
            <Time>2021-01-13T16:02:33.000Z</Time>
            <Position>
              <LatitudeDegrees>43.393483199179172515869140625</LatitudeDegrees>
              <LongitudeDegrees>-3.8377272896468639373779296875</LongitudeDegrees>
            </Position>
            <AltitudeMeters>0.4000000059604644775390625</AltitudeMeters>
            <DistanceMeters>37008.821557192</DistanceMeters>
          </Trackpoint>
          <Trackpoint>
            <Time>2021-01-13T16:02:39.000Z</Time>
            <Position>
              <LatitudeDegrees>43.39375200681388378143310546875</LatitudeDegrees>
              <LongitudeDegrees>-3.837334178388118743896484375</LongitudeDegrees>
            </Position>
            <AltitudeMeters>0.20000000298023223876953125</AltitudeMeters>
            <DistanceMeters>37052.479274668</DistanceMeters>
          </Trackpoint>
          <Trackpoint>
            <Time>2021-01-13T16:02:47.000Z</Time>
            <Position>
              <LatitudeDegrees>43.3940922282636165618896484375</LatitudeDegrees>
              <LongitudeDegrees>-3.83677996695041656494140625</LongitudeDegrees>
            </Position>
            <AltitudeMeters>-0.20000000298023223876953125</AltitudeMeters>
            <DistanceMeters>37111.156712641</DistanceMeters>
          </Trackpoint>
          <Trackpoint>
            <Time>2021-01-13T16:02:55.000Z</Time>
            <Position>
              <LatitudeDegrees>43.39445047080516815185546875</LatitudeDegrees>
              <LongitudeDegrees>-3.83624444715678691864013671875</LongitudeDegrees>
            </Position>
            <AltitudeMeters>-0.20000000298023223876953125</AltitudeMeters>
            <DistanceMeters>37170.027123537</DistanceMeters>
          </Trackpoint>
          <Trackpoint>
            <Time>2021-01-13T16:03:02.000Z</Time>
            <Position>
              <LatitudeDegrees>43.39475548826158046722412109375</LatitudeDegrees>
              <LongitudeDegrees>-3.8357669301331043243408203125</LongitudeDegrees>
            </Position>
            <AltitudeMeters>0</AltitudeMeters>
            <DistanceMeters>37221.447201745</DistanceMeters>
          </Trackpoint>
          <Trackpoint>
            <Time>2021-01-13T16:03:08.000Z</Time>
            <Position>
              <LatitudeDegrees>43.395016752183437347412109375</LatitudeDegrees>
              <LongitudeDegrees>-3.83536619134247303009033203125</LongitudeDegrees>
            </Position>
            <AltitudeMeters>0</AltitudeMeters>
            <DistanceMeters>37264.990387557</DistanceMeters>
          </Trackpoint>
          <Trackpoint>
            <Time>2021-01-13T16:03:14.000Z</Time>
            <Position>
              <LatitudeDegrees>43.395258150994777679443359375</LatitudeDegrees>
              <LongitudeDegrees>-3.8349250517785549163818359375</LongitudeDegrees>
            </Position>
            <AltitudeMeters>0</AltitudeMeters>
            <DistanceMeters>37309.653347678</DistanceMeters>
          </Trackpoint>
          <Trackpoint>
            <Time>2021-01-13T16:03:18.000Z</Time>
            <Position>
              <LatitudeDegrees>43.395378179848194122314453125</LatitudeDegrees>
              <LongitudeDegrees>-3.83460695855319499969482421875</LongitudeDegrees>
            </Position>
            <AltitudeMeters>0.20000000298023223876953125</AltitudeMeters>
            <DistanceMeters>37338.641012872</DistanceMeters>
          </Trackpoint>
          <Trackpoint>
            <Time>2021-01-13T16:03:19.000Z</Time>
            <Position>
              <LatitudeDegrees>43.39540910907089710235595703125</LatitudeDegrees>
              <LongitudeDegrees>-3.8345254026353359222412109375</LongitudeDegrees>
            </Position>
            <AltitudeMeters>0.20000000298023223876953125</AltitudeMeters>
            <DistanceMeters>37346.080457645</DistanceMeters>
          </Trackpoint>
          <Trackpoint>
            <Time>2021-01-13T16:03:25.000Z</Time>
            <Position>
              <LatitudeDegrees>43.39551539160311222076416015625</LatitudeDegrees>
              <LongitudeDegrees>-3.8340161181986331939697265625</LongitudeDegrees>
            </Position>
            <AltitudeMeters>0.20000000298023223876953125</AltitudeMeters>
            <DistanceMeters>37388.933923738</DistanceMeters>
          </Trackpoint>
          <Trackpoint>
            <Time>2021-01-13T16:03:29.000Z</Time>
            <Position>
              <LatitudeDegrees>43.395541794598102569580078125</LatitudeDegrees>
              <LongitudeDegrees>-3.8336969353258609771728515625</LongitudeDegrees>
            </Position>
            <AltitudeMeters>0.20000000298023223876953125</AltitudeMeters>
            <DistanceMeters>37414.914303913</DistanceMeters>
          </Trackpoint>
          <Trackpoint>
            <Time>2021-01-13T16:03:30.000Z</Time>
            <Position>
              <LatitudeDegrees>43.395543806254863739013671875</LatitudeDegrees>
              <LongitudeDegrees>-3.8336131162941455841064453125</LongitudeDegrees>
            </Position>
            <AltitudeMeters>0.20000000298023223876953125</AltitudeMeters>
            <DistanceMeters>37421.696575612</DistanceMeters>
          </Trackpoint>
          <Trackpoint>
            <Time>2021-01-13T16:03:36.000Z</Time>
            <Position>
              <LatitudeDegrees>43.39552913792431354522705078125</LatitudeDegrees>
              <LongitudeDegrees>-3.8330823741853237152099609375</LongitudeDegrees>
            </Position>
            <AltitudeMeters>0.20000000298023223876953125</AltitudeMeters>
            <DistanceMeters>37464.65138349</DistanceMeters>
          </Trackpoint>
          <Trackpoint>
            <Time>2021-01-13T16:03:42.000Z</Time>
            <Position>
              <LatitudeDegrees>43.39546166360378265380859375</LatitudeDegrees>
              <LongitudeDegrees>-3.8325586728751659393310546875</LongitudeDegrees>
            </Position>
            <AltitudeMeters>0.60000002384185791015625</AltitudeMeters>
            <DistanceMeters>37507.666482975</DistanceMeters>
          </Trackpoint>
          <Trackpoint>
            <Time>2021-01-13T16:03:43.000Z</Time>
            <Position>
              <LatitudeDegrees>43.39545235969126224517822265625</LatitudeDegrees>
              <LongitudeDegrees>-3.832469321787357330322265625</LongitudeDegrees>
            </Position>
            <AltitudeMeters>0.60000002384185791015625</AltitudeMeters>
            <DistanceMeters>37514.966860443</DistanceMeters>
          </Trackpoint>
          <Trackpoint>
            <Time>2021-01-13T16:03:52.000Z</Time>
            <Position>
              <LatitudeDegrees>43.3953619189560413360595703125</LatitudeDegrees>
              <LongitudeDegrees>-3.8316929899156093597412109375</LongitudeDegrees>
            </Position>
            <AltitudeMeters>0.800000011920928955078125</AltitudeMeters>
            <DistanceMeters>37578.554858128</DistanceMeters>
          </Trackpoint>
          <Trackpoint>
            <Time>2021-01-13T16:03:54.000Z</Time>
            <Position>
              <LatitudeDegrees>43.3953421376645565032958984375</LatitudeDegrees>
              <LongitudeDegrees>-3.8315230049192905426025390625</LongitudeDegrees>
            </Position>
            <AltitudeMeters>0.800000011920928955078125</AltitudeMeters>
            <DistanceMeters>37592.478136517</DistanceMeters>
          </Trackpoint>
          <Trackpoint>
            <Time>2021-01-13T16:04:02.000Z</Time>
            <Position>
              <LatitudeDegrees>43.395247757434844970703125</LatitudeDegrees>
              <LongitudeDegrees>-3.8308467529714107513427734375</LongitudeDegrees>
            </Position>
            <AltitudeMeters>1</AltitudeMeters>
            <DistanceMeters>37648.170034011</DistanceMeters>
          </Trackpoint>
          <Trackpoint>
            <Time>2021-01-13T16:04:11.000Z</Time>
            <Position>
              <LatitudeDegrees>43.395145498216152191162109375</LatitudeDegrees>
              <LongitudeDegrees>-3.83012448437511920928955078125</LongitudeDegrees>
            </Position>
            <AltitudeMeters>1.2000000476837158203125</AltitudeMeters>
            <DistanceMeters>37707.682405854</DistanceMeters>
          </Trackpoint>
          <Trackpoint>
            <Time>2021-01-13T16:04:12.000Z</Time>
            <Position>
              <LatitudeDegrees>43.39513585902750492095947265625</LatitudeDegrees>
              <LongitudeDegrees>-3.830041252076625823974609375</LongitudeDegrees>
            </Position>
            <AltitudeMeters>1.2000000476837158203125</AltitudeMeters>
            <DistanceMeters>37714.499206671</DistanceMeters>
          </Trackpoint>
          <Trackpoint>
            <Time>2021-01-13T16:04:21.000Z</Time>
            <Position>
              <LatitudeDegrees>43.39506830088794231414794921875</LatitudeDegrees>
              <LongitudeDegrees>-3.82927187718451023101806640625</LongitudeDegrees>
            </Position>
            <AltitudeMeters>1.2000000476837158203125</AltitudeMeters>
            <DistanceMeters>37777.175646386</DistanceMeters>
          </Trackpoint>
          <Trackpoint>
            <Time>2021-01-13T16:04:28.000Z</Time>
            <Position>
              <LatitudeDegrees>43.39509344659745693206787109375</LatitudeDegrees>
              <LongitudeDegrees>-3.82865362800657749176025390625</LongitudeDegrees>
            </Position>
            <AltitudeMeters>1.2000000476837158203125</AltitudeMeters>
            <DistanceMeters>37827.255355962</DistanceMeters>
          </Trackpoint>
          <Trackpoint>
            <Time>2021-01-13T16:04:37.000Z</Time>
            <Position>
              <LatitudeDegrees>43.39516703970730304718017578125</LatitudeDegrees>
              <LongitudeDegrees>-3.82785533554852008819580078125</LongitudeDegrees>
            </Position>
            <AltitudeMeters>1.39999997615814208984375</AltitudeMeters>
            <DistanceMeters>37892.335405707</DistanceMeters>
          </Trackpoint>
          <Trackpoint>
            <Time>2021-01-13T16:04:43.000Z</Time>
            <Position>
              <LatitudeDegrees>43.39520945213735103607177734375</LatitudeDegrees>
              <LongitudeDegrees>-3.8273287005722522735595703125</LongitudeDegrees>
            </Position>
            <AltitudeMeters>1.2000000476837158203125</AltitudeMeters>
            <DistanceMeters>37935.188134275</DistanceMeters>
          </Trackpoint>
          <Trackpoint>
            <Time>2021-01-13T16:04:46.000Z</Time>
            <Position>
              <LatitudeDegrees>43.39522873051464557647705078125</LatitudeDegrees>
              <LongitudeDegrees>-3.82707129232585430145263671875</LongitudeDegrees>
            </Position>
            <AltitudeMeters>1</AltitudeMeters>
            <DistanceMeters>37956.116460243</DistanceMeters>
          </Trackpoint>
          <Trackpoint>
            <Time>2021-01-13T16:04:48.000Z</Time>
            <Position>
              <LatitudeDegrees>43.39524448849260807037353515625</LatitudeDegrees>
              <LongitudeDegrees>-3.8268993794918060302734375</LongitudeDegrees>
            </Position>
            <AltitudeMeters>1</AltitudeMeters>
            <DistanceMeters>37970.130242834</DistanceMeters>
          </Trackpoint>
          <Trackpoint>
            <Time>2021-01-13T16:04:51.000Z</Time>
            <Position>
              <LatitudeDegrees>43.39530735276639461517333984375</LatitudeDegrees>
              <LongitudeDegrees>-3.8266531191766262054443359375</LongitudeDegrees>
            </Position>
            <AltitudeMeters>1</AltitudeMeters>
            <DistanceMeters>37991.239866524</DistanceMeters>
          </Trackpoint>
          <Trackpoint>
            <Time>2021-01-13T16:04:58.000Z</Time>
            <Position>
              <LatitudeDegrees>43.39550080709159374237060546875</LatitudeDegrees>
              <LongitudeDegrees>-3.826069571077823638916015625</LongitudeDegrees>
            </Position>
            <AltitudeMeters>1</AltitudeMeters>
            <DistanceMeters>38043.1141831</DistanceMeters>
          </Trackpoint>
          <Trackpoint>
            <Time>2021-01-13T16:05:05.000Z</Time>
            <Position>
              <LatitudeDegrees>43.39568286202847957611083984375</LatitudeDegrees>
              <LongitudeDegrees>-3.82549666799604892730712890625</LongitudeDegrees>
            </Position>
            <AltitudeMeters>1</AltitudeMeters>
            <DistanceMeters>38093.684825666</DistanceMeters>
          </Trackpoint>
          <Trackpoint>
            <Time>2021-01-13T16:05:09.000Z</Time>
            <Position>
              <LatitudeDegrees>43.39577472768723964691162109375</LatitudeDegrees>
              <LongitudeDegrees>-3.82518938742578029632568359375</LongitudeDegrees>
            </Position>
            <AltitudeMeters>1</AltitudeMeters>
            <DistanceMeters>38120.557399291</DistanceMeters>
          </Trackpoint>
          <Trackpoint>
            <Time>2021-01-13T16:05:11.000Z</Time>
            <Position>
              <LatitudeDegrees>43.39577816426753997802734375</LatitudeDegrees>
              <LongitudeDegrees>-3.825033567845821380615234375</LongitudeDegrees>
            </Position>
            <AltitudeMeters>0.800000011920928955078125</AltitudeMeters>
            <DistanceMeters>38133.165550056</DistanceMeters>
          </Trackpoint>
          <Trackpoint>
            <Time>2021-01-13T16:05:13.000Z</Time>
            <Position>
              <LatitudeDegrees>43.3958088420331478118896484375</LatitudeDegrees>
              <LongitudeDegrees>-3.82488981820642948150634765625</LongitudeDegrees>
            </Position>
            <AltitudeMeters>0.800000011920928955078125</AltitudeMeters>
            <DistanceMeters>38145.282108265</DistanceMeters>
          </Trackpoint>
          <Trackpoint>
            <Time>2021-01-13T16:05:17.000Z</Time>
            <Position>
              <LatitudeDegrees>43.395893163979053497314453125</LatitudeDegrees>
              <LongitudeDegrees>-3.8245780952274799346923828125</LongitudeDegrees>
            </Position>
            <AltitudeMeters>0.800000011920928955078125</AltitudeMeters>
            <DistanceMeters>38172.182893868</DistanceMeters>
          </Trackpoint>
          <Trackpoint>
            <Time>2021-01-13T16:05:24.000Z</Time>
            <Position>
              <LatitudeDegrees>43.3960323035717010498046875</LatitudeDegrees>
              <LongitudeDegrees>-3.823931179940700531005859375</LongitudeDegrees>
            </Position>
            <AltitudeMeters>0.4000000059604644775390625</AltitudeMeters>
            <DistanceMeters>38226.745773582</DistanceMeters>
          </Trackpoint>
          <Trackpoint>
            <Time>2021-01-13T16:05:28.000Z</Time>
            <Position>
              <LatitudeDegrees>43.396115787327289581298828125</LatitudeDegrees>
              <LongitudeDegrees>-3.8235786370933055877685546875</LongitudeDegrees>
            </Position>
            <AltitudeMeters>-0.4000000059604644775390625</AltitudeMeters>
            <DistanceMeters>38256.733289861</DistanceMeters>
          </Trackpoint>
          <Trackpoint>
            <Time>2021-01-13T16:05:34.000Z</Time>
            <Position>
              <LatitudeDegrees>43.39623858220875263214111328125</LatitudeDegrees>
              <LongitudeDegrees>-3.8230740465223789215087890625</LongitudeDegrees>
            </Position>
            <AltitudeMeters>-1</AltitudeMeters>
            <DistanceMeters>38299.769586857</DistanceMeters>
          </Trackpoint>
          <Trackpoint>
            <Time>2021-01-13T16:05:35.000Z</Time>
            <Position>
              <LatitudeDegrees>43.39625827968120574951171875</LatitudeDegrees>
              <LongitudeDegrees>-3.82299349643290042877197265625</LongitudeDegrees>
            </Position>
            <AltitudeMeters>-1</AltitudeMeters>
            <DistanceMeters>38306.643112877</DistanceMeters>
          </Trackpoint>
          <Trackpoint>
            <Time>2021-01-13T16:05:39.000Z</Time>
            <Position>
              <LatitudeDegrees>43.3963479660451412200927734375</LatitudeDegrees>
              <LongitudeDegrees>-3.8226841203868389129638671875</LongitudeDegrees>
            </Position>
            <AltitudeMeters>-1</AltitudeMeters>
            <DistanceMeters>38333.581468491</DistanceMeters>
          </Trackpoint>
          <Trackpoint>
            <Time>2021-01-13T16:05:47.000Z</Time>
            <Position>
              <LatitudeDegrees>43.39652490802109241485595703125</LatitudeDegrees>
              <LongitudeDegrees>-3.82205422036349773406982421875</LongitudeDegrees>
            </Position>
            <AltitudeMeters>-0.800000011920928955078125</AltitudeMeters>
            <DistanceMeters>38388.198191411</DistanceMeters>
          </Trackpoint>
          <Trackpoint>
            <Time>2021-01-13T16:05:52.000Z</Time>
            <Position>
              <LatitudeDegrees>43.396630100905895233154296875</LatitudeDegrees>
              <LongitudeDegrees>-3.8216637074947357177734375</LongitudeDegrees>
            </Position>
            <AltitudeMeters>-0.60000002384185791015625</AltitudeMeters>
            <DistanceMeters>38421.880838935</DistanceMeters>
          </Trackpoint>
          <Trackpoint>
            <Time>2021-01-13T16:05:57.000Z</Time>
            <Position>
              <LatitudeDegrees>43.396738059818744659423828125</LatitudeDegrees>
              <LongitudeDegrees>-3.82127135060727596282958984375</LongitudeDegrees>
            </Position>
            <AltitudeMeters>-0.20000000298023223876953125</AltitudeMeters>
            <DistanceMeters>38455.811364516</DistanceMeters>
          </Trackpoint>
          <Trackpoint>
            <Time>2021-01-13T16:06:02.000Z</Time>
            <Position>
              <LatitudeDegrees>43.39684258215129375457763671875</LatitudeDegrees>
              <LongitudeDegrees>-3.8208742998540401458740234375</LongitudeDegrees>
            </Position>
            <AltitudeMeters>0.60000002384185791015625</AltitudeMeters>
            <DistanceMeters>38489.964711271</DistanceMeters>
          </Trackpoint>
          <Trackpoint>
            <Time>2021-01-13T16:06:03.000Z</Time>
            <Position>
              <LatitudeDegrees>43.39686714112758636474609375</LatitudeDegrees>
              <LongitudeDegrees>-3.820796348154544830322265625</LongitudeDegrees>
            </Position>
            <AltitudeMeters>0.800000011920928955078125</AltitudeMeters>
            <DistanceMeters>38496.835609294</DistanceMeters>
          </Trackpoint>
          <Trackpoint>
            <Time>2021-01-13T16:06:06.000Z</Time>
            <Position>
              <LatitudeDegrees>43.39693964459002017974853515625</LatitudeDegrees>
              <LongitudeDegrees>-3.82056207396090030670166015625</LongitudeDegrees>
            </Position>
            <AltitudeMeters>1.7999999523162841796875</AltitudeMeters>
            <DistanceMeters>38517.429237925</DistanceMeters>
          </Trackpoint>
          <Trackpoint>
            <Time>2021-01-13T16:06:07.000Z</Time>
            <Position>
              <LatitudeDegrees>43.39696411974728107452392578125</LatitudeDegrees>
              <LongitudeDegrees>-3.8204853795468807220458984375</LongitudeDegrees>
            </Position>
            <AltitudeMeters>1.7999999523162841796875</AltitudeMeters>
            <DistanceMeters>38524.203516373</DistanceMeters>
          </Trackpoint>
          <Trackpoint>
            <Time>2021-01-13T16:06:11.000Z</Time>
            <Position>
              <LatitudeDegrees>43.39706587605178356170654296875</LatitudeDegrees>
              <LongitudeDegrees>-3.8201863132417201995849609375</LongitudeDegrees>
            </Position>
            <AltitudeMeters>2</AltitudeMeters>
            <DistanceMeters>38550.910249943</DistanceMeters>
          </Trackpoint>
          <Trackpoint>
            <Time>2021-01-13T16:06:14.000Z</Time>
            <Position>
              <LatitudeDegrees>43.397137038409709930419921875</LatitudeDegrees>
              <LongitudeDegrees>-3.81999830715358257293701171875</LongitudeDegrees>
            </Position>
            <AltitudeMeters>2.2000000476837158203125</AltitudeMeters>
            <DistanceMeters>38568.054080557</DistanceMeters>
          </Trackpoint>
          <Trackpoint>
            <Time>2021-01-13T16:06:15.000Z</Time>
            <Position>
              <LatitudeDegrees>43.39715304784476757049560546875</LatitudeDegrees>
              <LongitudeDegrees>-3.8199405558407306671142578125</LongitudeDegrees>
            </Position>
            <AltitudeMeters>2.2000000476837158203125</AltitudeMeters>
            <DistanceMeters>38573.051799181</DistanceMeters>
          </Trackpoint>
          <Trackpoint>
            <Time>2021-01-13T16:06:18.000Z</Time>
            <Position>
              <LatitudeDegrees>43.39718556962907314300537109375</LatitudeDegrees>
              <LongitudeDegrees>-3.8197524659335613250732421875</LongitudeDegrees>
            </Position>
            <AltitudeMeters>3</AltitudeMeters>
            <DistanceMeters>38588.687664671</DistanceMeters>
          </Trackpoint>
          <Trackpoint>
            <Time>2021-01-13T16:06:21.000Z</Time>
            <Position>
              <LatitudeDegrees>43.39731163345277309417724609375</LatitudeDegrees>
              <LongitudeDegrees>-3.81965314038097858428955078125</LongitudeDegrees>
            </Position>
            <AltitudeMeters>3.400000095367431640625</AltitudeMeters>
            <DistanceMeters>38604.855057558</DistanceMeters>
          </Trackpoint>
          <Trackpoint>
            <Time>2021-01-13T16:06:25.000Z</Time>
            <Position>
              <LatitudeDegrees>43.397532664239406585693359375</LatitudeDegrees>
              <LongitudeDegrees>-3.81968080066144466400146484375</LongitudeDegrees>
            </Position>
            <AltitudeMeters>3.7999999523162841796875</AltitudeMeters>
            <DistanceMeters>38629.557799832</DistanceMeters>
          </Trackpoint>
          <Trackpoint>
            <Time>2021-01-13T16:06:26.000Z</Time>
            <Position>
              <LatitudeDegrees>43.39758521877229213714599609375</LatitudeDegrees>
              <LongitudeDegrees>-3.8196549005806446075439453125</LongitudeDegrees>
            </Position>
            <AltitudeMeters>4.19999980926513671875</AltitudeMeters>
            <DistanceMeters>38635.770977505</DistanceMeters>
          </Trackpoint>
          <Trackpoint>
            <Time>2021-01-13T16:06:27.000Z</Time>
            <Position>
              <LatitudeDegrees>43.3976344205439090728759765625</LatitudeDegrees>
              <LongitudeDegrees>-3.8196190260350704193115234375</LongitudeDegrees>
            </Position>
            <AltitudeMeters>4.400000095367431640625</AltitudeMeters>
            <DistanceMeters>38641.967418826</DistanceMeters>
          </Trackpoint>
          <Trackpoint>
            <Time>2021-01-13T16:06:29.000Z</Time>
            <Position>
              <LatitudeDegrees>43.397727124392986297607421875</LatitudeDegrees>
              <LongitudeDegrees>-3.81954601965844631195068359375</LongitudeDegrees>
            </Position>
            <AltitudeMeters>4.80000019073486328125</AltitudeMeters>
            <DistanceMeters>38653.855256995</DistanceMeters>
          </Trackpoint>
          <Trackpoint>
            <Time>2021-01-13T16:06:30.000Z</Time>
            <Position>
              <LatitudeDegrees>43.3977645076811313629150390625</LatitudeDegrees>
              <LongitudeDegrees>-3.819508217275142669677734375</LongitudeDegrees>
            </Position>
            <AltitudeMeters>4.80000019073486328125</AltitudeMeters>
            <DistanceMeters>38659.018277977</DistanceMeters>
          </Trackpoint>
          <Trackpoint>
            <Time>2021-01-13T16:06:32.000Z</Time>
            <Position>
              <LatitudeDegrees>43.39783114381134510040283203125</LatitudeDegrees>
              <LongitudeDegrees>-3.81946421228349208831787109375</LongitudeDegrees>
            </Position>
            <AltitudeMeters>4.80000019073486328125</AltitudeMeters>
            <DistanceMeters>38667.244540365</DistanceMeters>
          </Trackpoint>
          <Trackpoint>
            <Time>2021-01-13T16:06:35.000Z</Time>
            <Position>
              <LatitudeDegrees>43.39791747741401195526123046875</LatitudeDegrees>
              <LongitudeDegrees>-3.81933898665010929107666015625</LongitudeDegrees>
            </Position>
            <AltitudeMeters>4.80000019073486328125</AltitudeMeters>
            <DistanceMeters>38681.204737707</DistanceMeters>
          </Trackpoint>
          <Trackpoint>
            <Time>2021-01-13T16:06:39.000Z</Time>
            <Position>
              <LatitudeDegrees>43.39798386208713054656982421875</LatitudeDegrees>
              <LongitudeDegrees>-3.81905098445713520050048828125</LongitudeDegrees>
            </Position>
            <AltitudeMeters>5</AltitudeMeters>
            <DistanceMeters>38705.639726032</DistanceMeters>
          </Trackpoint>
          <Trackpoint>
            <Time>2021-01-13T16:06:40.000Z</Time>
            <Position>
              <LatitudeDegrees>43.3980149589478969573974609375</LatitudeDegrees>
              <LongitudeDegrees>-3.81896833889186382293701171875</LongitudeDegrees>
            </Position>
            <AltitudeMeters>5</AltitudeMeters>
            <DistanceMeters>38713.166657652</DistanceMeters>
          </Trackpoint>
          <Trackpoint>
            <Time>2021-01-13T16:06:41.000Z</Time>
            <Position>
              <LatitudeDegrees>43.398052342236042022705078125</LatitudeDegrees>
              <LongitudeDegrees>-3.81888871081173419952392578125</LongitudeDegrees>
            </Position>
            <AltitudeMeters>5</AltitudeMeters>
            <DistanceMeters>38720.834436191</DistanceMeters>
          </Trackpoint>
          <Trackpoint>
            <Time>2021-01-13T16:06:43.000Z</Time>
            <Position>
              <LatitudeDegrees>43.39815082959830760955810546875</LatitudeDegrees>
              <LongitudeDegrees>-3.8187553547322750091552734375</LongitudeDegrees>
            </Position>
            <AltitudeMeters>5</AltitudeMeters>
            <DistanceMeters>38736.212330778</DistanceMeters>
          </Trackpoint>
          <Trackpoint>
            <Time>2021-01-13T16:06:50.000Z</Time>
            <Position>
              <LatitudeDegrees>43.398531116545200347900390625</LatitudeDegrees>
              <LongitudeDegrees>-3.818370290100574493408203125</LongitudeDegrees>
            </Position>
            <AltitudeMeters>4.599999904632568359375</AltitudeMeters>
            <DistanceMeters>38788.760385411</DistanceMeters>
          </Trackpoint>
          <Trackpoint>
            <Time>2021-01-13T16:06:58.000Z</Time>
            <Position>
              <LatitudeDegrees>43.3989604376256465911865234375</LatitudeDegrees>
              <LongitudeDegrees>-3.81786913610994815826416015625</LongitudeDegrees>
            </Position>
            <AltitudeMeters>2.7999999523162841796875</AltitudeMeters>
            <DistanceMeters>38851.417516169</DistanceMeters>
          </Trackpoint>
          <Trackpoint>
            <Time>2021-01-13T16:06:59.000Z</Time>
            <Position>
              <LatitudeDegrees>43.39901030994951725006103515625</LatitudeDegrees>
              <LongitudeDegrees>-3.817800991237163543701171875</LongitudeDegrees>
            </Position>
            <AltitudeMeters>2.7999999523162841796875</AltitudeMeters>
            <DistanceMeters>38859.239201915</DistanceMeters>
          </Trackpoint>
          <Trackpoint>
            <Time>2021-01-13T16:07:04.000Z</Time>
            <Position>
              <LatitudeDegrees>43.39923880062997341156005859375</LatitudeDegrees>
              <LongitudeDegrees>-3.817450292408466339111328125</LongitudeDegrees>
            </Position>
            <AltitudeMeters>2.2000000476837158203125</AltitudeMeters>
            <DistanceMeters>38897.332708243</DistanceMeters>
          </Trackpoint>
          <Trackpoint>
            <Time>2021-01-13T16:07:06.000Z</Time>
            <Position>
              <LatitudeDegrees>43.39932865463197231292724609375</LatitudeDegrees>
              <LongitudeDegrees>-3.81731593050062656402587890625</LongitudeDegrees>
            </Position>
            <AltitudeMeters>2</AltitudeMeters>
            <DistanceMeters>38912.100727957</DistanceMeters>
          </Trackpoint>
          <Trackpoint>
            <Time>2021-01-13T16:07:09.000Z</Time>
            <Position>
              <LatitudeDegrees>43.39946310035884380340576171875</LatitudeDegrees>
              <LongitudeDegrees>-3.8171249069273471832275390625</LongitudeDegrees>
            </Position>
            <AltitudeMeters>1.7999999523162841796875</AltitudeMeters>
            <DistanceMeters>38933.6082777</DistanceMeters>
          </Trackpoint>
          <Trackpoint>
            <Time>2021-01-13T16:07:10.000Z</Time>
            <Position>
              <LatitudeDegrees>43.39950333349406719207763671875</LatitudeDegrees>
              <LongitudeDegrees>-3.81706229411065578460693359375</LongitudeDegrees>
            </Position>
            <AltitudeMeters>1.7999999523162841796875</AltitudeMeters>
            <DistanceMeters>38940.367877304</DistanceMeters>
          </Trackpoint>
          <Trackpoint>
            <Time>2021-01-13T16:07:13.000Z</Time>
            <Position>
              <LatitudeDegrees>43.399613387882709503173828125</LatitudeDegrees>
              <LongitudeDegrees>-3.81688191555440425872802734375</LongitudeDegrees>
            </Position>
            <AltitudeMeters>1.39999997615814208984375</AltitudeMeters>
            <DistanceMeters>38959.4159342</DistanceMeters>
          </Trackpoint>
          <Trackpoint>
            <Time>2021-01-13T16:07:19.000Z</Time>
            <Position>
              <LatitudeDegrees>43.39980994351208209991455078125</LatitudeDegrees>
              <LongitudeDegrees>-3.81654538214206695556640625</LongitudeDegrees>
            </Position>
            <AltitudeMeters>0.800000011920928955078125</AltitudeMeters>
            <DistanceMeters>38994.334211246</DistanceMeters>
          </Trackpoint>
          <Trackpoint>
            <Time>2021-01-13T16:07:20.000Z</Time>
            <Position>
              <LatitudeDegrees>43.39981111697852611541748046875</LatitudeDegrees>
              <LongitudeDegrees>-3.8164738006889820098876953125</LongitudeDegrees>
            </Position>
            <AltitudeMeters>0.800000011920928955078125</AltitudeMeters>
            <DistanceMeters>39000.123826411</DistanceMeters>
          </Trackpoint>
          <Trackpoint>
            <Time>2021-01-13T16:07:22.000Z</Time>
            <Position>
              <LatitudeDegrees>43.3997895754873752593994140625</LatitudeDegrees>
              <LongitudeDegrees>-3.81633910350501537322998046875</LongitudeDegrees>
            </Position>
            <AltitudeMeters>0.60000002384185791015625</AltitudeMeters>
            <DistanceMeters>39011.277226479</DistanceMeters>
          </Trackpoint>
          <Trackpoint>
            <Time>2021-01-13T16:07:24.000Z</Time>
            <Position>
              <LatitudeDegrees>43.39977155439555644989013671875</LatitudeDegrees>
              <LongitudeDegrees>-3.81621136330068111419677734375</LongitudeDegrees>
            </Position>
            <AltitudeMeters>0.4000000059604644775390625</AltitudeMeters>
            <DistanceMeters>39021.800764739</DistanceMeters>
          </Trackpoint>
          <Trackpoint>
            <Time>2021-01-13T16:07:25.000Z</Time>
            <Position>
              <LatitudeDegrees>43.39976736344397068023681640625</LatitudeDegrees>
              <LongitudeDegrees>-3.81614866666495800018310546875</LongitudeDegrees>
            </Position>
            <AltitudeMeters>0.20000000298023223876953125</AltitudeMeters>
            <DistanceMeters>39026.891572081</DistanceMeters>
          </Trackpoint>
          <Trackpoint>
            <Time>2021-01-13T16:07:26.000Z</Time>
            <Position>
              <LatitudeDegrees>43.39976870454847812652587890625</LatitudeDegrees>
              <LongitudeDegrees>-3.8160892389714717864990234375</LongitudeDegrees>
            </Position>
            <AltitudeMeters>0.20000000298023223876953125</AltitudeMeters>
            <DistanceMeters>39031.699585777</DistanceMeters>
          </Trackpoint>
          <Trackpoint>
            <Time>2021-01-13T16:07:28.000Z</Time>
            <Position>
              <LatitudeDegrees>43.3998063392937183380126953125</LatitudeDegrees>
              <LongitudeDegrees>-3.8160471618175506591796875</LongitudeDegrees>
            </Position>
            <AltitudeMeters>0</AltitudeMeters>
            <DistanceMeters>39037.095229062</DistanceMeters>
          </Trackpoint>
          <Trackpoint>
            <Time>2021-01-13T16:07:30.000Z</Time>
            <Position>
              <LatitudeDegrees>43.39986777864396572113037109375</LatitudeDegrees>
              <LongitudeDegrees>-3.81609334610402584075927734375</LongitudeDegrees>
            </Position>
            <AltitudeMeters>-0.20000000298023223876953125</AltitudeMeters>
            <DistanceMeters>39044.88741964</DistanceMeters>
          </Trackpoint>
          <Trackpoint>
            <Time>2021-01-13T16:07:31.000Z</Time>
            <Position>
              <LatitudeDegrees>43.39989962987601757049560546875</LatitudeDegrees>
              <LongitudeDegrees>-3.8161231018602848052978515625</LongitudeDegrees>
            </Position>
            <AltitudeMeters>-0.4000000059604644775390625</AltitudeMeters>
            <DistanceMeters>39049.171006377</DistanceMeters>
          </Trackpoint>
          <Trackpoint>
            <Time>2021-01-13T16:07:33.000Z</Time>
            <Position>
              <LatitudeDegrees>43.39996199123561382293701171875</LatitudeDegrees>
              <LongitudeDegrees>-3.8161861337721347808837890625</LongitudeDegrees>
            </Position>
            <AltitudeMeters>-0.60000002384185791015625</AltitudeMeters>
            <DistanceMeters>39057.782335412</DistanceMeters>
          </Trackpoint>
          <Trackpoint>
            <Time>2021-01-13T16:07:36.000Z</Time>
            <Position>
              <LatitudeDegrees>43.40006089769303798675537109375</LatitudeDegrees>
              <LongitudeDegrees>-3.81627020426094532012939453125</LongitudeDegrees>
            </Position>
            <AltitudeMeters>-0.60000002384185791015625</AltitudeMeters>
            <DistanceMeters>39070.720982451</DistanceMeters>
          </Trackpoint>
          <Trackpoint>
            <Time>2021-01-13T16:07:38.000Z</Time>
            <Position>
              <LatitudeDegrees>43.40012141503393650054931640625</LatitudeDegrees>
              <LongitudeDegrees>-3.8163282908499240875244140625</LongitudeDegrees>
            </Position>
            <AltitudeMeters>-0.60000002384185791015625</AltitudeMeters>
            <DistanceMeters>39078.932962169</DistanceMeters>
          </Trackpoint>
          <Trackpoint>
            <Time>2021-01-13T16:07:39.000Z</Time>
            <Position>
              <LatitudeDegrees>43.40015192516148090362548828125</LatitudeDegrees>
              <LongitudeDegrees>-3.816356956958770751953125</LongitudeDegrees>
            </Position>
            <AltitudeMeters>-0.60000002384185791015625</AltitudeMeters>
            <DistanceMeters>39083.043348164</DistanceMeters>
          </Trackpoint>
          <Trackpoint>
            <Time>2021-01-13T16:07:41.000Z</Time>
            <Position>
              <LatitudeDegrees>43.4002183936536312103271484375</LatitudeDegrees>
              <LongitudeDegrees>-3.81640414707362651824951171875</LongitudeDegrees>
            </Position>
            <AltitudeMeters>-0.20000000298023223876953125</AltitudeMeters>
            <DistanceMeters>39091.367818515</DistanceMeters>
          </Trackpoint>
          <Trackpoint>
            <Time>2021-01-13T16:07:44.000Z</Time>
            <Position>
              <LatitudeDegrees>43.4003307111561298370361328125</LatitudeDegrees>
              <LongitudeDegrees>-3.8164563663303852081298828125</LongitudeDegrees>
            </Position>
            <AltitudeMeters>1</AltitudeMeters>
            <DistanceMeters>39104.563193993</DistanceMeters>
          </Trackpoint>
          <Trackpoint>
            <Time>2021-01-13T16:07:46.000Z</Time>
            <Position>
              <LatitudeDegrees>43.40041427873075008392333984375</LatitudeDegrees>
              <LongitudeDegrees>-3.8164691068232059478759765625</LongitudeDegrees>
            </Position>
            <AltitudeMeters>1.60000002384185791015625</AltitudeMeters>
            <DistanceMeters>39113.921275065</DistanceMeters>
          </Trackpoint>
          <Trackpoint>
            <Time>2021-01-13T16:07:48.000Z</Time>
            <Position>
              <LatitudeDegrees>43.40050463564693927764892578125</LatitudeDegrees>
              <LongitudeDegrees>-3.81645561195909976959228515625</LongitudeDegrees>
            </Position>
            <AltitudeMeters>2.2000000476837158203125</AltitudeMeters>
            <DistanceMeters>39124.03704623</DistanceMeters>
          </Trackpoint>
          <Trackpoint>
            <Time>2021-01-13T16:07:49.000Z</Time>
            <Position>
              <LatitudeDegrees>43.40054319240152835845947265625</LatitudeDegrees>
              <LongitudeDegrees>-3.8164493255317211151123046875</LongitudeDegrees>
            </Position>
            <AltitudeMeters>2.599999904632568359375</AltitudeMeters>
            <DistanceMeters>39128.358411533</DistanceMeters>
          </Trackpoint>
          <Trackpoint>
            <Time>2021-01-13T16:07:52.000Z</Time>
            <Position>
              <LatitudeDegrees>43.400665819644927978515625</LatitudeDegrees>
              <LongitudeDegrees>-3.81649031303822994232177734375</LongitudeDegrees>
            </Position>
            <AltitudeMeters>3.599999904632568359375</AltitudeMeters>
            <DistanceMeters>39142.404054277</DistanceMeters>
          </Trackpoint>
          <Trackpoint>
            <Time>2021-01-13T16:07:53.000Z</Time>
            <Position>
              <LatitudeDegrees>43.4007072262465953826904296875</LatitudeDegrees>
              <LongitudeDegrees>-3.8165193982422351837158203125</LongitudeDegrees>
            </Position>
            <AltitudeMeters>3.7999999523162841796875</AltitudeMeters>
            <DistanceMeters>39147.579303713</DistanceMeters>
          </Trackpoint>
          <Trackpoint>
            <Time>2021-01-13T16:07:56.000Z</Time>
            <Position>
              <LatitudeDegrees>43.40083002112805843353271484375</LatitudeDegrees>
              <LongitudeDegrees>-3.81660732440650463104248046875</LongitudeDegrees>
            </Position>
            <AltitudeMeters>4.80000019073486328125</AltitudeMeters>
            <DistanceMeters>39162.985944795</DistanceMeters>
          </Trackpoint>
          <Trackpoint>
            <Time>2021-01-13T16:07:57.000Z</Time>
            <Position>
              <LatitudeDegrees>43.40087947435677051544189453125</LatitudeDegrees>
              <LongitudeDegrees>-3.8166283629834651947021484375</LongitudeDegrees>
            </Position>
            <AltitudeMeters>5</AltitudeMeters>
            <DistanceMeters>39168.747416916</DistanceMeters>
          </Trackpoint>
          <Trackpoint>
            <Time>2021-01-13T16:07:58.000Z</Time>
            <Position>
              <LatitudeDegrees>43.40093127451837062835693359375</LatitudeDegrees>
              <LongitudeDegrees>-3.816659711301326751708984375</LongitudeDegrees>
            </Position>
            <AltitudeMeters>5.400000095367431640625</AltitudeMeters>
            <DistanceMeters>39175.046476838</DistanceMeters>
          </Trackpoint>
          <Trackpoint>
            <Time>2021-01-13T16:08:00.000Z</Time>
            <Position>
              <LatitudeDegrees>43.4010200388729572296142578125</LatitudeDegrees>
              <LongitudeDegrees>-3.81675467826426029205322265625</LongitudeDegrees>
            </Position>
            <AltitudeMeters>5.80000019073486328125</AltitudeMeters>
            <DistanceMeters>39187.559730832</DistanceMeters>
          </Trackpoint>
          <Trackpoint>
            <Time>2021-01-13T16:08:02.000Z</Time>
            <Position>
              <LatitudeDegrees>43.4011051990091800689697265625</LatitudeDegrees>
              <LongitudeDegrees>-3.8168586976826190948486328125</LongitudeDegrees>
            </Position>
            <AltitudeMeters>6.19999980926513671875</AltitudeMeters>
            <DistanceMeters>39200.232532794</DistanceMeters>
          </Trackpoint>
          <Trackpoint>
            <Time>2021-01-13T16:08:07.000Z</Time>
            <Position>
              <LatitudeDegrees>43.40131885372102260589599609375</LatitudeDegrees>
              <LongitudeDegrees>-3.81710722111165523529052734375</LongitudeDegrees>
            </Position>
            <AltitudeMeters>6.599999904632568359375</AltitudeMeters>
            <DistanceMeters>39231.367669961</DistanceMeters>
          </Trackpoint>
          <Trackpoint>
            <Time>2021-01-13T16:08:09.000Z</Time>
            <Position>
              <LatitudeDegrees>43.40140870772302150726318359375</LatitudeDegrees>
              <LongitudeDegrees>-3.81718182004988193511962890625</LongitudeDegrees>
            </Position>
            <AltitudeMeters>6.80000019073486328125</AltitudeMeters>
            <DistanceMeters>39243.047067838</DistanceMeters>
          </Trackpoint>
          <Trackpoint>
            <Time>2021-01-13T16:08:10.000Z</Time>
            <Position>
              <LatitudeDegrees>43.40144701302051544189453125</LatitudeDegrees>
              <LongitudeDegrees>-3.817224316298961639404296875</LongitudeDegrees>
            </Position>
            <AltitudeMeters>6.80000019073486328125</AltitudeMeters>
            <DistanceMeters>39248.522454015</DistanceMeters>
          </Trackpoint>
          <Trackpoint>
            <Time>2021-01-13T16:08:13.000Z</Time>
            <Position>
              <LatitudeDegrees>43.4015326760709285736083984375</LatitudeDegrees>
              <LongitudeDegrees>-3.81737552583217620849609375</LongitudeDegrees>
            </Position>
            <AltitudeMeters>7</AltitudeMeters>
            <DistanceMeters>39264.027832284</DistanceMeters>
          </Trackpoint>
          <Trackpoint>
            <Time>2021-01-13T16:08:16.000Z</Time>
            <Position>
              <LatitudeDegrees>43.4016354382038116455078125</LatitudeDegrees>
              <LongitudeDegrees>-3.81752497516572475433349609375</LongitudeDegrees>
            </Position>
            <AltitudeMeters>7</AltitudeMeters>
            <DistanceMeters>39280.667549947</DistanceMeters>
          </Trackpoint>
          <Trackpoint>
            <Time>2021-01-13T16:08:18.000Z</Time>
            <Position>
              <LatitudeDegrees>43.40172135271131992340087890625</LatitudeDegrees>
              <LongitudeDegrees>-3.81762455217540264129638671875</LongitudeDegrees>
            </Position>
            <AltitudeMeters>7</AltitudeMeters>
            <DistanceMeters>39293.169252355</DistanceMeters>
          </Trackpoint>
          <Trackpoint>
            <Time>2021-01-13T16:08:24.000Z</Time>
            <Position>
              <LatitudeDegrees>43.40196828357875347137451171875</LatitudeDegrees>
              <LongitudeDegrees>-3.817960582673549652099609375</LongitudeDegrees>
            </Position>
            <AltitudeMeters>7.19999980926513671875</AltitudeMeters>
            <DistanceMeters>39331.81861594</DistanceMeters>
          </Trackpoint>
          <Trackpoint>
            <Time>2021-01-13T16:08:25.000Z</Time>
            <Position>
              <LatitudeDegrees>43.40199686586856842041015625</LatitudeDegrees>
              <LongitudeDegrees>-3.81802596151828765869140625</LongitudeDegrees>
            </Position>
            <AltitudeMeters>7</AltitudeMeters>
            <DistanceMeters>39337.988770094</DistanceMeters>
          </Trackpoint>
          <Trackpoint>
            <Time>2021-01-13T16:08:28.000Z</Time>
            <Position>
              <LatitudeDegrees>43.4020738117396831512451171875</LatitudeDegrees>
              <LongitudeDegrees>-3.81821564398705959320068359375</LongitudeDegrees>
            </Position>
            <AltitudeMeters>7</AltitudeMeters>
            <DistanceMeters>39355.556380137</DistanceMeters>
          </Trackpoint>
          <Trackpoint>
            <Time>2021-01-13T16:08:30.000Z</Time>
            <Position>
              <LatitudeDegrees>43.4021321497857570648193359375</LatitudeDegrees>
              <LongitudeDegrees>-3.81833575665950775146484375</LongitudeDegrees>
            </Position>
            <AltitudeMeters>6.80000019073486328125</AltitudeMeters>
            <DistanceMeters>39367.240029636</DistanceMeters>
          </Trackpoint>
          <Trackpoint>
            <Time>2021-01-13T16:08:31.000Z</Time>
            <Position>
              <LatitudeDegrees>43.40217431075870990753173828125</LatitudeDegrees>
              <LongitudeDegrees>-3.8183972798287868499755859375</LongitudeDegrees>
            </Position>
            <AltitudeMeters>6.80000019073486328125</AltitudeMeters>
            <DistanceMeters>39374.07931293</DistanceMeters>
          </Trackpoint>
          <Trackpoint>
            <Time>2021-01-13T16:08:35.000Z</Time>
            <Position>
              <LatitudeDegrees>43.40241872705519199371337890625</LatitudeDegrees>
              <LongitudeDegrees>-3.81863524205982685089111328125</LongitudeDegrees>
            </Position>
            <AltitudeMeters>6.19999980926513671875</AltitudeMeters>
            <DistanceMeters>39407.401457066</DistanceMeters>
          </Trackpoint>
          <Trackpoint>
            <Time>2021-01-13T16:08:36.000Z</Time>
            <Position>
              <LatitudeDegrees>43.40248502790927886962890625</LatitudeDegrees>
              <LongitudeDegrees>-3.818707577884197235107421875</LongitudeDegrees>
            </Position>
            <AltitudeMeters>6.19999980926513671875</AltitudeMeters>
            <DistanceMeters>39416.818216098</DistanceMeters>
          </Trackpoint>
          <Trackpoint>
            <Time>2021-01-13T16:08:39.000Z</Time>
            <Position>
              <LatitudeDegrees>43.40266196988523006439208984375</LatitudeDegrees>
              <LongitudeDegrees>-3.81893313489854335784912109375</LongitudeDegrees>
            </Position>
            <AltitudeMeters>5.80000019073486328125</AltitudeMeters>
            <DistanceMeters>39443.661202515</DistanceMeters>
          </Trackpoint>
          <Trackpoint>
            <Time>2021-01-13T16:08:41.000Z</Time>
            <Position>
              <LatitudeDegrees>43.4027651511132717132568359375</LatitudeDegrees>
              <LongitudeDegrees>-3.81907244212925434112548828125</LongitudeDegrees>
            </Position>
            <AltitudeMeters>5.599999904632568359375</AltitudeMeters>
            <DistanceMeters>39459.748526434</DistanceMeters>
          </Trackpoint>
          <Trackpoint>
            <Time>2021-01-13T16:08:44.000Z</Time>
            <Position>
              <LatitudeDegrees>43.40290806256234645843505859375</LatitudeDegrees>
              <LongitudeDegrees>-3.81925919093191623687744140625</LongitudeDegrees>
            </Position>
            <AltitudeMeters>4</AltitudeMeters>
            <DistanceMeters>39481.681795513</DistanceMeters>
          </Trackpoint>
          <Trackpoint>
            <Time>2021-01-13T16:08:45.000Z</Time>
            <Position>
              <LatitudeDegrees>43.40295231901109218597412109375</LatitudeDegrees>
              <LongitudeDegrees>-3.81932322867214679718017578125</LongitudeDegrees>
            </Position>
            <AltitudeMeters>3.599999904632568359375</AltitudeMeters>
            <DistanceMeters>39488.828410961</DistanceMeters>
          </Trackpoint>
          <Trackpoint>
            <Time>2021-01-13T16:08:47.000Z</Time>
            <Position>
              <LatitudeDegrees>43.40303680859506130218505859375</LatitudeDegrees>
              <LongitudeDegrees>-3.81945935077965259552001953125</LongitudeDegrees>
            </Position>
            <AltitudeMeters>2.7999999523162841796875</AltitudeMeters>
            <DistanceMeters>39503.305879813</DistanceMeters>
          </Trackpoint>
          <Trackpoint>
            <Time>2021-01-13T16:08:52.000Z</Time>
            <Position>
              <LatitudeDegrees>43.40321416966617107391357421875</LatitudeDegrees>
              <LongitudeDegrees>-3.8198263943195343017578125</LongitudeDegrees>
            </Position>
            <AltitudeMeters>2.2000000476837158203125</AltitudeMeters>
            <DistanceMeters>39538.952045759</DistanceMeters>
          </Trackpoint>
          <Trackpoint>
            <Time>2021-01-13T16:08:57.000Z</Time>
            <Position>
              <LatitudeDegrees>43.4033458493649959564208984375</LatitudeDegrees>
              <LongitudeDegrees>-3.82021422497928142547607421875</LongitudeDegrees>
            </Position>
            <AltitudeMeters>1.7999999523162841796875</AltitudeMeters>
            <DistanceMeters>39573.569692196</DistanceMeters>
          </Trackpoint>
          <Trackpoint>
            <Time>2021-01-13T16:08:59.000Z</Time>
            <Position>
              <LatitudeDegrees>43.40338222682476043701171875</LatitudeDegrees>
              <LongitudeDegrees>-3.82037951610982418060302734375</LongitudeDegrees>
            </Position>
            <AltitudeMeters>1.7999999523162841796875</AltitudeMeters>
            <DistanceMeters>39587.535709925</DistanceMeters>
          </Trackpoint>
          <Trackpoint>
            <Time>2021-01-13T16:09:03.000Z</Time>
            <Position>
              <LatitudeDegrees>43.40344165451824665069580078125</LatitudeDegrees>
              <LongitudeDegrees>-3.82071814499795436859130859375</LongitudeDegrees>
            </Position>
            <AltitudeMeters>1.7999999523162841796875</AltitudeMeters>
            <DistanceMeters>39615.706282834</DistanceMeters>
          </Trackpoint>
          <Trackpoint>
            <Time>2021-01-13T16:09:06.000Z</Time>
            <Position>
              <LatitudeDegrees>43.4034762717783451080322265625</LatitudeDegrees>
              <LongitudeDegrees>-3.82096641696989536285400390625</LongitudeDegrees>
            </Position>
            <AltitudeMeters>1.7999999523162841796875</AltitudeMeters>
            <DistanceMeters>39636.148956528</DistanceMeters>
          </Trackpoint>
          <Trackpoint>
            <Time>2021-01-13T16:09:11.000Z</Time>
            <Position>
              <LatitudeDegrees>43.4034796245396137237548828125</LatitudeDegrees>
              <LongitudeDegrees>-3.82134946994483470916748046875</LongitudeDegrees>
            </Position>
            <AltitudeMeters>1.60000002384185791015625</AltitudeMeters>
            <DistanceMeters>39667.12664517</DistanceMeters>
          </Trackpoint>
          <Trackpoint>
            <Time>2021-01-13T16:09:14.000Z</Time>
            <Position>
              <LatitudeDegrees>43.40347786433994770050048828125</LatitudeDegrees>
              <LongitudeDegrees>-3.821592293679714202880859375</LongitudeDegrees>
            </Position>
            <AltitudeMeters>1.39999997615814208984375</AltitudeMeters>
            <DistanceMeters>39686.763404687</DistanceMeters>
          </Trackpoint>
          <Trackpoint>
            <Time>2021-01-13T16:09:16.000Z</Time>
            <Position>
              <LatitudeDegrees>43.4034740924835205078125</LatitudeDegrees>
              <LongitudeDegrees>-3.8217709958553314208984375</LongitudeDegrees>
            </Position>
            <AltitudeMeters>1.60000002384185791015625</AltitudeMeters>
            <DistanceMeters>39701.219963379</DistanceMeters>
          </Trackpoint>
          <Trackpoint>
            <Time>2021-01-13T16:09:19.000Z</Time>
            <Position>
              <LatitudeDegrees>43.40347384102642536163330078125</LatitudeDegrees>
              <LongitudeDegrees>-3.82203963585197925567626953125</LongitudeDegrees>
            </Position>
            <AltitudeMeters>1.60000002384185791015625</AltitudeMeters>
            <DistanceMeters>39722.943494284</DistanceMeters>
          </Trackpoint>
          <Trackpoint>
            <Time>2021-01-13T16:09:22.000Z</Time>
            <Position>
              <LatitudeDegrees>43.4034719131886959075927734375</LatitudeDegrees>
              <LongitudeDegrees>-3.82230618037283420562744140625</LongitudeDegrees>
            </Position>
            <AltitudeMeters>1.39999997615814208984375</AltitudeMeters>
            <DistanceMeters>39744.498435555</DistanceMeters>
          </Trackpoint>
          <Trackpoint>
            <Time>2021-01-13T16:09:24.000Z</Time>
            <Position>
              <LatitudeDegrees>43.40346998535096645355224609375</LatitudeDegrees>
              <LongitudeDegrees>-3.8224764168262481689453125</LongitudeDegrees>
            </Position>
            <AltitudeMeters>1.39999997615814208984375</AltitudeMeters>
            <DistanceMeters>39758.266163567</DistanceMeters>
          </Trackpoint>
          <Trackpoint>
            <Time>2021-01-13T16:09:28.000Z</Time>
            <Position>
              <LatitudeDegrees>43.4034700691699981689453125</LatitudeDegrees>
              <LongitudeDegrees>-3.82279518060386180877685546875</LongitudeDegrees>
            </Position>
            <AltitudeMeters>1.39999997615814208984375</AltitudeMeters>
            <DistanceMeters>39784.042761961</DistanceMeters>
          </Trackpoint>
          <Trackpoint>
            <Time>2021-01-13T16:09:30.000Z</Time>
            <Position>
              <LatitudeDegrees>43.40347903780639171600341796875</LatitudeDegrees>
              <LongitudeDegrees>-3.8229463063180446624755859375</LongitudeDegrees>
            </Position>
            <AltitudeMeters>1.39999997615814208984375</AltitudeMeters>
            <DistanceMeters>39796.304522552</DistanceMeters>
          </Trackpoint>
          <Trackpoint>
            <Time>2021-01-13T16:09:34.000Z</Time>
            <Position>
              <LatitudeDegrees>43.40354156680405139923095703125</LatitudeDegrees>
              <LongitudeDegrees>-3.8232467137277126312255859375</LongitudeDegrees>
            </Position>
            <AltitudeMeters>1.39999997615814208984375</AltitudeMeters>
            <DistanceMeters>39821.574125352</DistanceMeters>
          </Trackpoint>
          <Trackpoint>
            <Time>2021-01-13T16:09:35.000Z</Time>
            <Position>
              <LatitudeDegrees>43.40356704778969287872314453125</LatitudeDegrees>
              <LongitudeDegrees>-3.82331452332437038421630859375</LongitudeDegrees>
            </Position>
            <AltitudeMeters>1.39999997615814208984375</AltitudeMeters>
            <DistanceMeters>39827.747937195</DistanceMeters>
          </Trackpoint>
          <Trackpoint>
            <Time>2021-01-13T16:09:39.000Z</Time>
            <Position>
              <LatitudeDegrees>43.40365271084010601043701171875</LatitudeDegrees>
              <LongitudeDegrees>-3.82353764958679676055908203125</LongitudeDegrees>
            </Position>
            <AltitudeMeters>1.2000000476837158203125</AltitudeMeters>
            <DistanceMeters>39848.155020902</DistanceMeters>
          </Trackpoint>
          <Trackpoint>
            <Time>2021-01-13T16:09:40.000Z</Time>
            <Position>
              <LatitudeDegrees>43.4036633558571338653564453125</LatitudeDegrees>
              <LongitudeDegrees>-3.82358391769230365753173828125</LongitudeDegrees>
            </Position>
            <AltitudeMeters>1</AltitudeMeters>
            <DistanceMeters>39852.079980827</DistanceMeters>
          </Trackpoint>
          <Trackpoint>
            <Time>2021-01-13T16:09:41.000Z</Time>
            <Position>
              <LatitudeDegrees>43.4036672115325927734375</LatitudeDegrees>
              <LongitudeDegrees>-3.823637478053569793701171875</LongitudeDegrees>
            </Position>
            <AltitudeMeters>1</AltitudeMeters>
            <DistanceMeters>39856.433614994</DistanceMeters>
          </Trackpoint>
          <Trackpoint>
            <Time>2021-01-13T16:09:42.000Z</Time>
            <Position>
              <LatitudeDegrees>43.4036683849990367889404296875</LatitudeDegrees>
              <LongitudeDegrees>-3.82369690574705600738525390625</LongitudeDegrees>
            </Position>
            <AltitudeMeters>1</AltitudeMeters>
            <DistanceMeters>39861.241628689</DistanceMeters>
          </Trackpoint>
          <Trackpoint>
            <Time>2021-01-13T16:09:43.000Z</Time>
            <Position>
              <LatitudeDegrees>43.40368355624377727508544921875</LatitudeDegrees>
              <LongitudeDegrees>-3.82375180721282958984375</LongitudeDegrees>
            </Position>
            <AltitudeMeters>0.800000011920928955078125</AltitudeMeters>
            <DistanceMeters>39865.992014045</DistanceMeters>
          </Trackpoint>
          <Trackpoint>
            <Time>2021-01-13T16:09:46.000Z</Time>
            <Position>
              <LatitudeDegrees>43.40379201807081699371337890625</LatitudeDegrees>
              <LongitudeDegrees>-3.8238673098385334014892578125</LongitudeDegrees>
            </Position>
            <AltitudeMeters>0.800000011920928955078125</AltitudeMeters>
            <DistanceMeters>39881.255564493</DistanceMeters>
          </Trackpoint>
          <Trackpoint>
            <Time>2021-01-13T16:09:48.000Z</Time>
            <Position>
              <LatitudeDegrees>43.40388254262506961822509765625</LatitudeDegrees>
              <LongitudeDegrees>-3.82395138032734394073486328125</LongitudeDegrees>
            </Position>
            <AltitudeMeters>0.4000000059604644775390625</AltitudeMeters>
            <DistanceMeters>39893.410071913</DistanceMeters>
          </Trackpoint>
          <Trackpoint>
            <Time>2021-01-13T16:09:51.000Z</Time>
            <Position>
              <LatitudeDegrees>43.4040472470223903656005859375</LatitudeDegrees>
              <LongitudeDegrees>-3.82404224015772342681884765625</LongitudeDegrees>
            </Position>
            <AltitudeMeters>0</AltitudeMeters>
            <DistanceMeters>39913.159631956</DistanceMeters>
          </Trackpoint>
          <Trackpoint>
            <Time>2021-01-13T16:09:57.000Z</Time>
            <Position>
              <LatitudeDegrees>43.4043466486036777496337890625</LatitudeDegrees>
              <LongitudeDegrees>-3.82414952851831912994384765625</LongitudeDegrees>
            </Position>
            <AltitudeMeters>0</AltitudeMeters>
            <DistanceMeters>39947.594460227</DistanceMeters>
          </Trackpoint>
          <Trackpoint>
            <Time>2021-01-13T16:10:03.000Z</Time>
            <Position>
              <LatitudeDegrees>43.4046209044754505157470703125</LatitudeDegrees>
              <LongitudeDegrees>-3.82420853711664676666259765625</LongitudeDegrees>
            </Position>
            <AltitudeMeters>0.4000000059604644775390625</AltitudeMeters>
            <DistanceMeters>39978.490274195</DistanceMeters>
          </Trackpoint>
          <Trackpoint>
            <Time>2021-01-13T16:10:04.000Z</Time>
            <Position>
              <LatitudeDegrees>43.404665999114513397216796875</LatitudeDegrees>
              <LongitudeDegrees>-3.82421088404953479766845703125</LongitudeDegrees>
            </Position>
            <AltitudeMeters>0.4000000059604644775390625</AltitudeMeters>
            <DistanceMeters>39983.51322488</DistanceMeters>
          </Trackpoint>
          <Trackpoint>
            <Time>2021-01-13T16:10:11.000Z</Time>
            <Position>
              <LatitudeDegrees>43.40499297715723514556884765625</LatitudeDegrees>
              <LongitudeDegrees>-3.82418439723551273345947265625</LongitudeDegrees>
            </Position>
            <AltitudeMeters>1.7999999523162841796875</AltitudeMeters>
            <DistanceMeters>40019.969440826</DistanceMeters>
          </Trackpoint>
          <Trackpoint>
            <Time>2021-01-13T16:10:13.000Z</Time>
            <Position>
              <LatitudeDegrees>43.40508132241666316986083984375</LatitudeDegrees>
              <LongitudeDegrees>-3.8241881690919399261474609375</LongitudeDegrees>
            </Position>
            <AltitudeMeters>2.2000000476837158203125</AltitudeMeters>
            <DistanceMeters>40029.80734504</DistanceMeters>
          </Trackpoint>
          <Trackpoint>
            <Time>2021-01-13T16:10:15.000Z</Time>
            <Position>
              <LatitudeDegrees>43.40517737902700901031494140625</LatitudeDegrees>
              <LongitudeDegrees>-3.82415355183184146881103515625</LongitudeDegrees>
            </Position>
            <AltitudeMeters>2.400000095367431640625</AltitudeMeters>
            <DistanceMeters>40040.858670024</DistanceMeters>
          </Trackpoint>
          <Trackpoint>
            <Time>2021-01-13T16:10:18.000Z</Time>
            <Position>
              <LatitudeDegrees>43.4053296782076358795166015625</LatitudeDegrees>
              <LongitudeDegrees>-3.82416344247758388519287109375</LongitudeDegrees>
            </Position>
            <AltitudeMeters>2.400000095367431640625</AltitudeMeters>
            <DistanceMeters>40057.828589525</DistanceMeters>
          </Trackpoint>
          <Trackpoint>
            <Time>2021-01-13T16:10:21.000Z</Time>
            <Position>
              <LatitudeDegrees>43.40540519915521144866943359375</LatitudeDegrees>
              <LongitudeDegrees>-3.82433761842548847198486328125</LongitudeDegrees>
            </Position>
            <AltitudeMeters>2.400000095367431640625</AltitudeMeters>
            <DistanceMeters>40074.230541769</DistanceMeters>
          </Trackpoint>
          <Trackpoint>
            <Time>2021-01-13T16:10:24.000Z</Time>
            <Position>
              <LatitudeDegrees>43.4054798819124698638916015625</LatitudeDegrees>
              <LongitudeDegrees>-3.8245241157710552215576171875</LongitudeDegrees>
            </Position>
            <AltitudeMeters>1.2000000476837158203125</AltitudeMeters>
            <DistanceMeters>40091.45005367</DistanceMeters>
          </Trackpoint>
          <Trackpoint>
            <Time>2021-01-13T16:10:25.000Z</Time>
            <Position>
              <LatitudeDegrees>43.40550930239260196685791015625</LatitudeDegrees>
              <LongitudeDegrees>-3.82458354346454143524169921875</LongitudeDegrees>
            </Position>
            <AltitudeMeters>0.20000000298023223876953125</AltitudeMeters>
            <DistanceMeters>40097.264570521</DistanceMeters>
          </Trackpoint>
          <Trackpoint>
            <Time>2021-01-13T16:10:26.000Z</Time>
            <Position>
              <LatitudeDegrees>43.405536711215972900390625</LatitudeDegrees>
              <LongitudeDegrees>-3.8246451504528522491455078125</LongitudeDegrees>
            </Position>
            <AltitudeMeters>-0.4000000059604644775390625</AltitudeMeters>
            <DistanceMeters>40103.106202047</DistanceMeters>
          </Trackpoint>
          <Trackpoint>
            <Time>2021-01-13T16:10:28.000Z</Time>
            <Position>
              <LatitudeDegrees>43.405593372881412506103515625</LatitudeDegrees>
              <LongitudeDegrees>-3.82477297447621822357177734375</LongitudeDegrees>
            </Position>
            <AltitudeMeters>-1</AltitudeMeters>
            <DistanceMeters>40115.214186646</DistanceMeters>
          </Trackpoint>
          <Trackpoint>
            <Time>2021-01-13T16:10:33.000Z</Time>
            <Position>
              <LatitudeDegrees>43.405720107257366180419921875</LatitudeDegrees>
              <LongitudeDegrees>-3.82510422728955745697021484375</LongitudeDegrees>
            </Position>
            <AltitudeMeters>-1.2000000476837158203125</AltitudeMeters>
            <DistanceMeters>40145.487019321</DistanceMeters>
          </Trackpoint>
          <Trackpoint>
            <Time>2021-01-13T16:10:40.000Z</Time>
            <Position>
              <LatitudeDegrees>43.405916579067707061767578125</LatitudeDegrees>
              <LongitudeDegrees>-3.82554612122476100921630859375</LongitudeDegrees>
            </Position>
            <AltitudeMeters>-1.2000000476837158203125</AltitudeMeters>
            <DistanceMeters>40187.379576259</DistanceMeters>
          </Trackpoint>
          <Trackpoint>
            <Time>2021-01-13T16:10:50.000Z</Time>
            <Position>
              <LatitudeDegrees>43.40619494207203388214111328125</LatitudeDegrees>
              <LongitudeDegrees>-3.8261934556066989898681640625</LongitudeDegrees>
            </Position>
            <AltitudeMeters>-1.2000000476837158203125</AltitudeMeters>
            <DistanceMeters>40248.205730016</DistanceMeters>
          </Trackpoint>
          <Trackpoint>
            <Time>2021-01-13T16:10:51.000Z</Time>
            <Position>
              <LatitudeDegrees>43.40622226707637310028076171875</LatitudeDegrees>
              <LongitudeDegrees>-3.82625791244208812713623046875</LongitudeDegrees>
            </Position>
            <AltitudeMeters>-1.2000000476837158203125</AltitudeMeters>
            <DistanceMeters>40254.239739315</DistanceMeters>
          </Trackpoint>
          <Trackpoint>
            <Time>2021-01-13T16:11:01.000Z</Time>
            <Position>
              <LatitudeDegrees>43.40649534948170185089111328125</LatitudeDegrees>
              <LongitudeDegrees>-3.826929889619350433349609375</LongitudeDegrees>
            </Position>
            <AltitudeMeters>-1.39999997615814208984375</AltitudeMeters>
            <DistanceMeters>40316.499571748</DistanceMeters>
          </Trackpoint>
          <Trackpoint>
            <Time>2021-01-13T16:11:09.000Z</Time>
            <Position>
              <LatitudeDegrees>43.40671495534479618072509765625</LatitudeDegrees>
              <LongitudeDegrees>-3.8274752162396907806396484375</LongitudeDegrees>
            </Position>
            <AltitudeMeters>-1.39999997615814208984375</AltitudeMeters>
            <DistanceMeters>40366.916236631</DistanceMeters>
          </Trackpoint>
          <Trackpoint>
            <Time>2021-01-13T16:11:12.000Z</Time>
            <Position>
              <LatitudeDegrees>43.40678502805531024932861328125</LatitudeDegrees>
              <LongitudeDegrees>-3.82768099196255207061767578125</LongitudeDegrees>
            </Position>
            <AltitudeMeters>-1.39999997615814208984375</AltitudeMeters>
            <DistanceMeters>40385.292545801</DistanceMeters>
          </Trackpoint>
          <Trackpoint>
            <Time>2021-01-13T16:11:15.000Z</Time>
            <Position>
              <LatitudeDegrees>43.40683531947433948516845703125</LatitudeDegrees>
              <LongitudeDegrees>-3.827888779342174530029296875</LongitudeDegrees>
            </Position>
            <AltitudeMeters>-1.2000000476837158203125</AltitudeMeters>
            <DistanceMeters>40403.002221548</DistanceMeters>
          </Trackpoint>
          <Trackpoint>
            <Time>2021-01-13T16:11:17.000Z</Time>
            <Position>
              <LatitudeDegrees>43.4068846888840198516845703125</LatitudeDegrees>
              <LongitudeDegrees>-3.828015513718128204345703125</LongitudeDegrees>
            </Position>
            <AltitudeMeters>-1.2000000476837158203125</AltitudeMeters>
            <DistanceMeters>40414.630478712</DistanceMeters>
          </Trackpoint>
          <Trackpoint>
            <Time>2021-01-13T16:11:22.000Z</Time>
            <Position>
              <LatitudeDegrees>43.4070174582302570343017578125</LatitudeDegrees>
              <LongitudeDegrees>-3.82830410264432430267333984375</LongitudeDegrees>
            </Position>
            <AltitudeMeters>-1.2000000476837158203125</AltitudeMeters>
            <DistanceMeters>40442.251395395</DistanceMeters>
          </Trackpoint>
          <Trackpoint>
            <Time>2021-01-13T16:11:24.000Z</Time>
            <Position>
              <LatitudeDegrees>43.40706397779285907745361328125</LatitudeDegrees>
              <LongitudeDegrees>-3.8283811323344707489013671875</LongitudeDegrees>
            </Position>
            <AltitudeMeters>-1.2000000476837158203125</AltitudeMeters>
            <DistanceMeters>40450.350994482</DistanceMeters>
          </Trackpoint>
          <Trackpoint>
            <Time>2021-01-13T16:11:29.000Z</Time>
            <Position>
              <LatitudeDegrees>43.40717679820954799652099609375</LatitudeDegrees>
              <LongitudeDegrees>-3.82858581840991973876953125</LongitudeDegrees>
            </Position>
            <AltitudeMeters>-1.2000000476837158203125</AltitudeMeters>
            <DistanceMeters>40471.126451008</DistanceMeters>
          </Trackpoint>
          <Trackpoint>
            <Time>2021-01-13T16:11:31.000Z</Time>
            <Position>
              <LatitudeDegrees>43.4071951545774936676025390625</LatitudeDegrees>
              <LongitudeDegrees>-3.828616999089717864990234375</LongitudeDegrees>
            </Position>
            <AltitudeMeters>-1.39999997615814208984375</AltitudeMeters>
            <DistanceMeters>40474.374085422</DistanceMeters>
          </Trackpoint>
          <Trackpoint>
            <Time>2021-01-13T16:11:32.000Z</Time>
            <Position>
              <LatitudeDegrees>43.40720077045261859893798828125</LatitudeDegrees>
              <LongitudeDegrees>-3.82862127386033535003662109375</LongitudeDegrees>
            </Position>
            <AltitudeMeters>-1.39999997615814208984375</AltitudeMeters>
            <DistanceMeters>40475.085200237</DistanceMeters>
          </Trackpoint>
          <Trackpoint>
            <Time>2021-01-13T16:11:34.000Z</Time>
            <Position>
              <LatitudeDegrees>43.40720462612807750701904296875</LatitudeDegrees>
              <LongitudeDegrees>-3.828623704612255096435546875</LongitudeDegrees>
            </Position>
            <AltitudeMeters>-1.39999997615814208984375</AltitudeMeters>
            <DistanceMeters>40475.550734162</DistanceMeters>
          </Trackpoint>
          <Trackpoint>
            <Time>2021-01-13T16:11:41.000Z</Time>
            <Position>
              <LatitudeDegrees>43.4071715176105499267578125</LatitudeDegrees>
              <LongitudeDegrees>-3.82857332937419414520263671875</LongitudeDegrees>
            </Position>
            <AltitudeMeters>-2.7999999523162841796875</AltitudeMeters>
            <DistanceMeters>40481.042587703</DistanceMeters>
          </Trackpoint>
          <Trackpoint>
            <Time>2021-01-13T16:11:42.000Z</Time>
            <Position>
              <LatitudeDegrees>43.4071572683751583099365234375</LatitudeDegrees>
              <LongitudeDegrees>-3.82854784838855266571044921875</LongitudeDegrees>
            </Position>
            <AltitudeMeters>-2.7999999523162841796875</AltitudeMeters>
            <DistanceMeters>40483.643265933</DistanceMeters>
          </Trackpoint>
          <Trackpoint>
            <Time>2021-01-13T16:11:47.000Z</Time>
            <Position>
              <LatitudeDegrees>43.40706263668835163116455078125</LatitudeDegrees>
              <LongitudeDegrees>-3.82836177013814449310302734375</LongitudeDegrees>
            </Position>
            <AltitudeMeters>-2.7999999523162841796875</AltitudeMeters>
            <DistanceMeters>40502.009744519</DistanceMeters>
          </Trackpoint>
          <Trackpoint>
            <Time>2021-01-13T16:11:48.000Z</Time>
            <Position>
              <LatitudeDegrees>43.40704620815813541412353515625</LatitudeDegrees>
              <LongitudeDegrees>-3.8283449225127696990966796875</LongitudeDegrees>
            </Position>
            <AltitudeMeters>-2.7999999523162841796875</AltitudeMeters>
            <DistanceMeters>40504.290385664</DistanceMeters>
          </Trackpoint>
          <Trackpoint>
            <Time>2021-01-13T16:11:50.000Z</Time>
            <Position>
              <LatitudeDegrees>43.4070278517901897430419921875</LatitudeDegrees>
              <LongitudeDegrees>-3.82834668271243572235107421875</LongitudeDegrees>
            </Position>
            <AltitudeMeters>-2.7999999523162841796875</AltitudeMeters>
            <DistanceMeters>40506.337323736</DistanceMeters>
          </Trackpoint>
          <Trackpoint>
            <Time>2021-01-13T16:11:51.000Z</Time>
            <Position>
              <LatitudeDegrees>43.40702927671372890472412109375</LatitudeDegrees>
              <LongitudeDegrees>-3.82835908792912960052490234375</LongitudeDegrees>
            </Position>
            <AltitudeMeters>-2.599999904632568359375</AltitudeMeters>
            <DistanceMeters>40507.356371719</DistanceMeters>
          </Trackpoint>
          <Trackpoint>
            <Time>2021-01-13T16:11:54.000Z</Time>
            <Position>
              <LatitudeDegrees>43.407062552869319915771484375</LatitudeDegrees>
              <LongitudeDegrees>-3.82840636186301708221435546875</LongitudeDegrees>
            </Position>
            <AltitudeMeters>-1.60000002384185791015625</AltitudeMeters>
            <DistanceMeters>40512.679564359</DistanceMeters>
          </Trackpoint>
          <Trackpoint>
            <Time>2021-01-13T16:11:56.000Z</Time>
            <Position>
              <LatitudeDegrees>43.40709147043526172637939453125</LatitudeDegrees>
              <LongitudeDegrees>-3.8284850679337978363037109375</LongitudeDegrees>
            </Position>
            <AltitudeMeters>-1.2000000476837158203125</AltitudeMeters>
            <DistanceMeters>40519.811001137</DistanceMeters>
          </Trackpoint>
          <Trackpoint>
            <Time>2021-01-13T16:11:58.000Z</Time>
            <Position>
              <LatitudeDegrees>43.4071274287998676300048828125</LatitudeDegrees>
              <LongitudeDegrees>-3.82857936434447765350341796875</LongitudeDegrees>
            </Position>
            <AltitudeMeters>-1</AltitudeMeters>
            <DistanceMeters>40528.422330173</DistanceMeters>
          </Trackpoint>
          <Trackpoint>
            <Time>2021-01-13T16:12:02.000Z</Time>
            <Position>
              <LatitudeDegrees>43.40719959698617458343505859375</LatitudeDegrees>
              <LongitudeDegrees>-3.82877717725932598114013671875</LongitudeDegrees>
            </Position>
            <AltitudeMeters>-0.800000011920928955078125</AltitudeMeters>
            <DistanceMeters>40546.32118634</DistanceMeters>
          </Trackpoint>
          <Trackpoint>
            <Time>2021-01-13T16:12:04.000Z</Time>
            <Position>
              <LatitudeDegrees>43.407245613634586334228515625</LatitudeDegrees>
              <LongitudeDegrees>-3.8288894109427928924560546875</LongitudeDegrees>
            </Position>
            <AltitudeMeters>-0.60000002384185791015625</AltitudeMeters>
            <DistanceMeters>40556.742112369</DistanceMeters>
          </Trackpoint>
          <Trackpoint>
            <Time>2021-01-13T16:12:05.000Z</Time>
            <Position>
              <LatitudeDegrees>43.4072746150195598602294921875</LatitudeDegrees>
              <LongitudeDegrees>-3.82894925773143768310546875</LongitudeDegrees>
            </Position>
            <AltitudeMeters>-0.4000000059604644775390625</AltitudeMeters>
            <DistanceMeters>40562.559734436</DistanceMeters>
          </Trackpoint>
          <Trackpoint>
            <Time>2021-01-13T16:12:07.000Z</Time>
            <Position>
              <LatitudeDegrees>43.40733873657882213592529296875</LatitudeDegrees>
              <LongitudeDegrees>-3.8290764950215816497802734375</LongitudeDegrees>
            </Position>
            <AltitudeMeters>-0.4000000059604644775390625</AltitudeMeters>
            <DistanceMeters>40575.080923965</DistanceMeters>
          </Trackpoint>
          <Trackpoint>
            <Time>2021-01-13T16:12:09.000Z</Time>
            <Position>
              <LatitudeDegrees>43.4073887765407562255859375</LatitudeDegrees>
              <LongitudeDegrees>-3.82922175340354442596435546875</LongitudeDegrees>
            </Position>
            <AltitudeMeters>-0.20000000298023223876953125</AltitudeMeters>
            <DistanceMeters>40588.080495134</DistanceMeters>
          </Trackpoint>
          <Trackpoint>
            <Time>2021-01-13T16:12:11.000Z</Time>
            <Position>
              <LatitudeDegrees>43.40743697248399257659912109375</LatitudeDegrees>
              <LongitudeDegrees>-3.82937095127999782562255859375</LongitudeDegrees>
            </Position>
            <AltitudeMeters>-0.20000000298023223876953125</AltitudeMeters>
            <DistanceMeters>40601.283396166</DistanceMeters>
          </Trackpoint>
          <Trackpoint>
            <Time>2021-01-13T16:12:13.000Z</Time>
            <Position>
              <LatitudeDegrees>43.4074868448078632354736328125</LatitudeDegrees>
              <LongitudeDegrees>-3.82953305728733539581298828125</LongitudeDegrees>
            </Position>
            <AltitudeMeters>-0.20000000298023223876953125</AltitudeMeters>
            <DistanceMeters>40615.518068109</DistanceMeters>
          </Trackpoint>
          <Trackpoint>
            <Time>2021-01-13T16:12:14.000Z</Time>
            <Position>
              <LatitudeDegrees>43.40750637464225292205810546875</LatitudeDegrees>
              <LongitudeDegrees>-3.829616792500019073486328125</LongitudeDegrees>
            </Position>
            <AltitudeMeters>-0.20000000298023223876953125</AltitudeMeters>
            <DistanceMeters>40622.629216265</DistanceMeters>
          </Trackpoint>
          <Trackpoint>
            <Time>2021-01-13T16:12:16.000Z</Time>
            <Position>
              <LatitudeDegrees>43.4075435064733028411865234375</LatitudeDegrees>
              <LongitudeDegrees>-3.8297805748879909515380859375</LongitudeDegrees>
            </Position>
            <AltitudeMeters>-0.20000000298023223876953125</AltitudeMeters>
            <DistanceMeters>40636.502140227</DistanceMeters>
          </Trackpoint>
          <Trackpoint>
            <Time>2021-01-13T16:12:17.000Z</Time>
            <Position>
              <LatitudeDegrees>43.4075689874589443206787109375</LatitudeDegrees>
              <LongitudeDegrees>-3.82985726930201053619384765625</LongitudeDegrees>
            </Position>
            <AltitudeMeters>-0.4000000059604644775390625</AltitudeMeters>
            <DistanceMeters>40643.321589888</DistanceMeters>
          </Trackpoint>
          <Trackpoint>
            <Time>2021-01-13T16:12:24.000Z</Time>
            <Position>
              <LatitudeDegrees>43.40777493081986904144287109375</LatitudeDegrees>
              <LongitudeDegrees>-3.830356411635875701904296875</LongitudeDegrees>
            </Position>
            <AltitudeMeters>-1.2000000476837158203125</AltitudeMeters>
            <DistanceMeters>40689.736668448</DistanceMeters>
          </Trackpoint>
          <Trackpoint>
            <Time>2021-01-13T16:12:32.000Z</Time>
            <Position>
              <LatitudeDegrees>43.407918177545070648193359375</LatitudeDegrees>
              <LongitudeDegrees>-3.8309520296752452850341796875</LongitudeDegrees>
            </Position>
            <AltitudeMeters>-1.39999997615814208984375</AltitudeMeters>
            <DistanceMeters>40740.468119713</DistanceMeters>
          </Trackpoint>
          <Trackpoint>
            <Time>2021-01-13T16:12:37.000Z</Time>
            <Position>
              <LatitudeDegrees>43.40797391720116138458251953125</LatitudeDegrees>
              <LongitudeDegrees>-3.831272386014461517333984375</LongitudeDegrees>
            </Position>
            <AltitudeMeters>-1.39999997615814208984375</AltitudeMeters>
            <DistanceMeters>40767.104431511</DistanceMeters>
          </Trackpoint>
          <Trackpoint>
            <Time>2021-01-13T16:12:42.000Z</Time>
            <Position>
              <LatitudeDegrees>43.40801599435508251190185546875</LatitudeDegrees>
              <LongitudeDegrees>-3.8315414451062679290771484375</LongitudeDegrees>
            </Position>
            <AltitudeMeters>-1</AltitudeMeters>
            <DistanceMeters>40789.358543771</DistanceMeters>
          </Trackpoint>
          <Trackpoint>
            <Time>2021-01-13T16:12:44.000Z</Time>
            <Position>
              <LatitudeDegrees>43.40802337042987346649169921875</LatitudeDegrees>
              <LongitudeDegrees>-3.83168083615601062774658203125</LongitudeDegrees>
            </Position>
            <AltitudeMeters>-0.4000000059604644775390625</AltitudeMeters>
            <DistanceMeters>40800.659134069</DistanceMeters>
          </Trackpoint>
          <Trackpoint>
            <Time>2021-01-13T16:12:48.000Z</Time>
            <Position>
              <LatitudeDegrees>43.40797006152570247650146484375</LatitudeDegrees>
              <LongitudeDegrees>-3.83196850307285785675048828125</LongitudeDegrees>
            </Position>
            <AltitudeMeters>0.800000011920928955078125</AltitudeMeters>
            <DistanceMeters>40824.664243904</DistanceMeters>
          </Trackpoint>
          <Trackpoint>
            <Time>2021-01-13T16:12:50.000Z</Time>
            <Position>
              <LatitudeDegrees>43.407936953008174896240234375</LatitudeDegrees>
              <LongitudeDegrees>-3.832109235227108001708984375</LongitudeDegrees>
            </Position>
            <AltitudeMeters>1.39999997615814208984375</AltitudeMeters>
            <DistanceMeters>40836.625536943</DistanceMeters>
          </Trackpoint>
          <Trackpoint>
            <Time>2021-01-13T16:12:52.000Z</Time>
            <Position>
              <LatitudeDegrees>43.40793720446527004241943359375</LatitudeDegrees>
              <LongitudeDegrees>-3.83225466124713420867919921875</LongitudeDegrees>
            </Position>
            <AltitudeMeters>1.60000002384185791015625</AltitudeMeters>
            <DistanceMeters>40848.384300931</DistanceMeters>
          </Trackpoint>
          <Trackpoint>
            <Time>2021-01-13T16:12:55.000Z</Time>
            <Position>
              <LatitudeDegrees>43.4080115519464015960693359375</LatitudeDegrees>
              <LongitudeDegrees>-3.83244954049587249755859375</LongitudeDegrees>
            </Position>
            <AltitudeMeters>1.7999999523162841796875</AltitudeMeters>
            <DistanceMeters>40866.182477288</DistanceMeters>
          </Trackpoint>
          <Trackpoint>
            <Time>2021-01-13T16:12:56.000Z</Time>
            <Position>
              <LatitudeDegrees>43.40804449282586574554443359375</LatitudeDegrees>
              <LongitudeDegrees>-3.8325077109038829803466796875</LongitudeDegrees>
            </Position>
            <AltitudeMeters>1.7999999523162841796875</AltitudeMeters>
            <DistanceMeters>40872.146491969</DistanceMeters>
          </Trackpoint>
          <Trackpoint>
            <Time>2021-01-13T16:13:05.000Z</Time>
            <Position>
              <LatitudeDegrees>43.4083270467817783355712890625</LatitudeDegrees>
              <LongitudeDegrees>-3.83307290263473987579345703125</LongitudeDegrees>
            </Position>
            <AltitudeMeters>2.7999999523162841796875</AltitudeMeters>
            <DistanceMeters>40927.622238138</DistanceMeters>
          </Trackpoint>
          <Trackpoint>
            <Time>2021-01-13T16:13:06.000Z</Time>
            <Position>
              <LatitudeDegrees>43.4083570539951324462890625</LatitudeDegrees>
              <LongitudeDegrees>-3.83313878439366817474365234375</LongitudeDegrees>
            </Position>
            <AltitudeMeters>2.7999999523162841796875</AltitudeMeters>
            <DistanceMeters>40933.908382785</DistanceMeters>
          </Trackpoint>
          <Trackpoint>
            <Time>2021-01-13T16:13:15.000Z</Time>
            <Position>
              <LatitudeDegrees>43.40861127711832523345947265625</LatitudeDegrees>
              <LongitudeDegrees>-3.8337509147822856903076171875</LongitudeDegrees>
            </Position>
            <AltitudeMeters>3.400000095367431640625</AltitudeMeters>
            <DistanceMeters>40990.921006181</DistanceMeters>
          </Trackpoint>
          <Trackpoint>
            <Time>2021-01-13T16:13:24.000Z</Time>
            <Position>
              <LatitudeDegrees>43.408826775848865509033203125</LatitudeDegrees>
              <LongitudeDegrees>-3.83439506404101848602294921875</LongitudeDegrees>
            </Position>
            <AltitudeMeters>3.599999904632568359375</AltitudeMeters>
            <DistanceMeters>41048.262758729</DistanceMeters>
          </Trackpoint>
          <Trackpoint>
            <Time>2021-01-13T16:13:25.000Z</Time>
            <Position>
              <LatitudeDegrees>43.4088551066815853118896484375</LatitudeDegrees>
              <LongitudeDegrees>-3.834463544189929962158203125</LongitudeDegrees>
            </Position>
            <AltitudeMeters>3.599999904632568359375</AltitudeMeters>
            <DistanceMeters>41054.63451074</DistanceMeters>
          </Trackpoint>
          <Trackpoint>
            <Time>2021-01-13T16:13:33.000Z</Time>
            <Position>
              <LatitudeDegrees>43.4091317094862461090087890625</LatitudeDegrees>
              <LongitudeDegrees>-3.834971822798252105712890625</LongitudeDegrees>
            </Position>
            <AltitudeMeters>3.7999999523162841796875</AltitudeMeters>
            <DistanceMeters>41105.984735006</DistanceMeters>
          </Trackpoint>
          <Trackpoint>
            <Time>2021-01-13T16:13:43.000Z</Time>
            <Position>
              <LatitudeDegrees>43.4095263294875621795654296875</LatitudeDegrees>
              <LongitudeDegrees>-3.8355543650686740875244140625</LongitudeDegrees>
            </Position>
            <AltitudeMeters>4</AltitudeMeters>
            <DistanceMeters>41170.388034712</DistanceMeters>
          </Trackpoint>
          <Trackpoint>
            <Time>2021-01-13T16:13:50.000Z</Time>
            <Position>
              <LatitudeDegrees>43.409837298095226287841796875</LatitudeDegrees>
              <LongitudeDegrees>-3.8358832709491252899169921875</LongitudeDegrees>
            </Position>
            <AltitudeMeters>4</AltitudeMeters>
            <DistanceMeters>41214.036650365</DistanceMeters>
          </Trackpoint>
          <Trackpoint>
            <Time>2021-01-13T16:13:52.000Z</Time>
            <Position>
              <LatitudeDegrees>43.40993662364780902862548828125</LatitudeDegrees>
              <LongitudeDegrees>-3.8359278626739978790283203125</LongitudeDegrees>
            </Position>
            <AltitudeMeters>3.7999999523162841796875</AltitudeMeters>
            <DistanceMeters>41225.664907529</DistanceMeters>
          </Trackpoint>
          <Trackpoint>
            <Time>2021-01-13T16:13:55.000Z</Time>
            <Position>
              <LatitudeDegrees>43.41004860587418079376220703125</LatitudeDegrees>
              <LongitudeDegrees>-3.8358316384255886077880859375</LongitudeDegrees>
            </Position>
            <AltitudeMeters>3.7999999523162841796875</AltitudeMeters>
            <DistanceMeters>41240.357217674</DistanceMeters>
          </Trackpoint>
          <Trackpoint>
            <Time>2021-01-13T16:13:59.000Z</Time>
            <Position>
              <LatitudeDegrees>43.41013443656265735626220703125</LatitudeDegrees>
              <LongitudeDegrees>-3.8356150500476360321044921875</LongitudeDegrees>
            </Position>
            <AltitudeMeters>3.7999999523162841796875</AltitudeMeters>
            <DistanceMeters>41260.305586247</DistanceMeters>
          </Trackpoint>
          <Trackpoint>
            <Time>2021-01-13T16:14:00.000Z</Time>
            <Position>
              <LatitudeDegrees>43.41016561724245548248291015625</LatitudeDegrees>
              <LongitudeDegrees>-3.83557138033211231231689453125</LongitudeDegrees>
            </Position>
            <AltitudeMeters>3.7999999523162841796875</AltitudeMeters>
            <DistanceMeters>41265.256104147</DistanceMeters>
          </Trackpoint>
          <Trackpoint>
            <Time>2021-01-13T16:14:04.000Z</Time>
            <Position>
              <LatitudeDegrees>43.41032118536531925201416015625</LatitudeDegrees>
              <LongitudeDegrees>-3.8354958593845367431640625</LongitudeDegrees>
            </Position>
            <AltitudeMeters>4.19999980926513671875</AltitudeMeters>
            <DistanceMeters>41283.61619003</DistanceMeters>
          </Trackpoint>
          <Trackpoint>
            <Time>2021-01-13T16:14:07.000Z</Time>
            <Position>
              <LatitudeDegrees>43.41044557280838489532470703125</LatitudeDegrees>
              <LongitudeDegrees>-3.8355194963514804840087890625</LongitudeDegrees>
            </Position>
            <AltitudeMeters>5.599999904632568359375</AltitudeMeters>
            <DistanceMeters>41297.591903017</DistanceMeters>
          </Trackpoint>
          <Trackpoint>
            <Time>2021-01-13T16:14:08.000Z</Time>
            <Position>
              <LatitudeDegrees>43.410485051572322845458984375</LatitudeDegrees>
              <LongitudeDegrees>-3.83553986437618732452392578125</LongitudeDegrees>
            </Position>
            <AltitudeMeters>6.19999980926513671875</AltitudeMeters>
            <DistanceMeters>41302.283952289</DistanceMeters>
          </Trackpoint>
          <Trackpoint>
            <Time>2021-01-13T16:14:09.000Z</Time>
            <Position>
              <LatitudeDegrees>43.41052100993692874908447265625</LatitudeDegrees>
              <LongitudeDegrees>-3.83555998094379901885986328125</LongitudeDegrees>
            </Position>
            <AltitudeMeters>6.599999904632568359375</AltitudeMeters>
            <DistanceMeters>41306.604272648</DistanceMeters>
          </Trackpoint>
          <Trackpoint>
            <Time>2021-01-13T16:14:12.000Z</Time>
            <Position>
              <LatitudeDegrees>43.41060809791088104248046875</LatitudeDegrees>
              <LongitudeDegrees>-3.8355910778045654296875</LongitudeDegrees>
            </Position>
            <AltitudeMeters>8</AltitudeMeters>
            <DistanceMeters>41316.618212877</DistanceMeters>
          </Trackpoint>
          <Trackpoint>
            <Time>2021-01-13T16:14:13.000Z</Time>
            <Position>
              <LatitudeDegrees>43.41063735075294971466064453125</LatitudeDegrees>
              <LongitudeDegrees>-3.8355862163007259368896484375</LongitudeDegrees>
            </Position>
            <AltitudeMeters>8.6000003814697265625</AltitudeMeters>
            <DistanceMeters>41319.896290205</DistanceMeters>
          </Trackpoint>
          <Trackpoint>
            <Time>2021-01-13T16:14:14.000Z</Time>
            <Position>
              <LatitudeDegrees>43.41067154891788959503173828125</LatitudeDegrees>
              <LongitudeDegrees>-3.8355721347033977508544921875</LongitudeDegrees>
            </Position>
            <AltitudeMeters>9</AltitudeMeters>
            <DistanceMeters>41323.869270651</DistanceMeters>
          </Trackpoint>
          <Trackpoint>
            <Time>2021-01-13T16:14:17.000Z</Time>
            <Position>
              <LatitudeDegrees>43.41080029495060443878173828125</LatitudeDegrees>
              <LongitudeDegrees>-3.83549745194613933563232421875</LongitudeDegrees>
            </Position>
            <AltitudeMeters>10</AltitudeMeters>
            <DistanceMeters>41339.419427789</DistanceMeters>
          </Trackpoint>
          <Trackpoint>
            <Time>2021-01-13T16:14:18.000Z</Time>
            <Position>
              <LatitudeDegrees>43.41085243038833141326904296875</LatitudeDegrees>
              <LongitudeDegrees>-3.8354809395968914031982421875</LongitudeDegrees>
            </Position>
            <AltitudeMeters>10</AltitudeMeters>
            <DistanceMeters>41345.373592728</DistanceMeters>
          </Trackpoint>
          <Trackpoint>
            <Time>2021-01-13T16:14:21.000Z</Time>
            <Position>
              <LatitudeDegrees>43.41100900433957576751708984375</LatitudeDegrees>
              <LongitudeDegrees>-3.835524022579193115234375</LongitudeDegrees>
            </Position>
            <AltitudeMeters>10.19999980926513671875</AltitudeMeters>
            <DistanceMeters>41363.145366801</DistanceMeters>
          </Trackpoint>
          <Trackpoint>
            <Time>2021-01-13T16:14:24.000Z</Time>
            <Position>
              <LatitudeDegrees>43.411106653511524200439453125</LatitudeDegrees>
              <LongitudeDegrees>-3.8357085920870304107666015625</LongitudeDegrees>
            </Position>
            <AltitudeMeters>10.3999996185302734375</AltitudeMeters>
            <DistanceMeters>41381.60673661</DistanceMeters>
          </Trackpoint>
          <Trackpoint>
            <Time>2021-01-13T16:14:27.000Z</Time>
            <Position>
              <LatitudeDegrees>43.41107622720301151275634765625</LatitudeDegrees>
              <LongitudeDegrees>-3.83594906888902187347412109375</LongitudeDegrees>
            </Position>
            <AltitudeMeters>10.80000019073486328125</AltitudeMeters>
            <DistanceMeters>41401.343032551</DistanceMeters>
          </Trackpoint>
          <Trackpoint>
            <Time>2021-01-13T16:14:29.000Z</Time>
            <Position>
              <LatitudeDegrees>43.41098536737263202667236328125</LatitudeDegrees>
              <LongitudeDegrees>-3.8360591232776641845703125</LongitudeDegrees>
            </Position>
            <AltitudeMeters>11</AltitudeMeters>
            <DistanceMeters>41414.813718731</DistanceMeters>
          </Trackpoint>
          <Trackpoint>
            <Time>2021-01-13T16:14:30.000Z</Time>
            <Position>
              <LatitudeDegrees>43.4109254367649555206298828125</LatitudeDegrees>
              <LongitudeDegrees>-3.83608686737716197967529296875</LongitudeDegrees>
            </Position>
            <AltitudeMeters>11</AltitudeMeters>
            <DistanceMeters>41421.852113389</DistanceMeters>
          </Trackpoint>
          <Trackpoint>
            <Time>2021-01-13T16:14:35.000Z</Time>
            <Position>
              <LatitudeDegrees>43.41061974875628948211669921875</LatitudeDegrees>
              <LongitudeDegrees>-3.83619432337582111358642578125</LongitudeDegrees>
            </Position>
            <AltitudeMeters>11.19999980926513671875</AltitudeMeters>
            <DistanceMeters>41456.96779534</DistanceMeters>
          </Trackpoint>
          <Trackpoint>
            <Time>2021-01-13T16:14:38.000Z</Time>
            <Position>
              <LatitudeDegrees>43.4104607440531253814697265625</LatitudeDegrees>
              <LongitudeDegrees>-3.836358524858951568603515625</LongitudeDegrees>
            </Position>
            <AltitudeMeters>10.80000019073486328125</AltitudeMeters>
            <DistanceMeters>41479.091883879</DistanceMeters>
          </Trackpoint>
          <Trackpoint>
            <Time>2021-01-13T16:14:39.000Z</Time>
            <Position>
              <LatitudeDegrees>43.4104097820818424224853515625</LatitudeDegrees>
              <LongitudeDegrees>-3.83642365224659442901611328125</LongitudeDegrees>
            </Position>
            <AltitudeMeters>10.80000019073486328125</AltitudeMeters>
            <DistanceMeters>41486.831749971</DistanceMeters>
          </Trackpoint>
          <Trackpoint>
            <Time>2021-01-13T16:14:47.000Z</Time>
            <Position>
              <LatitudeDegrees>43.4099972248077392578125</LatitudeDegrees>
              <LongitudeDegrees>-3.83693343959748744964599609375</LongitudeDegrees>
            </Position>
            <AltitudeMeters>10.19999980926513671875</AltitudeMeters>
            <DistanceMeters>41548.536803836</DistanceMeters>
          </Trackpoint>
          <Trackpoint>
            <Time>2021-01-13T16:14:50.000Z</Time>
            <Position>
              <LatitudeDegrees>43.40983830392360687255859375</LatitudeDegrees>
              <LongitudeDegrees>-3.83710627444088459014892578125</LongitudeDegrees>
            </Position>
            <AltitudeMeters>9.80000019073486328125</AltitudeMeters>
            <DistanceMeters>41571.079576114</DistanceMeters>
          </Trackpoint>
          <Trackpoint>
            <Time>2021-01-13T16:14:53.000Z</Time>
            <Position>
              <LatitudeDegrees>43.40967142023146152496337890625</LatitudeDegrees>
              <LongitudeDegrees>-3.8372642733156681060791015625</LongitudeDegrees>
            </Position>
            <AltitudeMeters>9.3999996185302734375</AltitudeMeters>
            <DistanceMeters>41593.623349807</DistanceMeters>
          </Trackpoint>
          <Trackpoint>
            <Time>2021-01-13T16:14:55.000Z</Time>
            <Position>
              <LatitudeDegrees>43.4095565043389797210693359375</LatitudeDegrees>
              <LongitudeDegrees>-3.837364017963409423828125</LongitudeDegrees>
            </Position>
            <AltitudeMeters>9.19999980926513671875</AltitudeMeters>
            <DistanceMeters>41608.74424712</DistanceMeters>
          </Trackpoint>
          <Trackpoint>
            <Time>2021-01-13T16:14:57.000Z</Time>
            <Position>
              <LatitudeDegrees>43.4094361402094364166259765625</LatitudeDegrees>
              <LongitudeDegrees>-3.837457560002803802490234375</LongitudeDegrees>
            </Position>
            <AltitudeMeters>8.80000019073486328125</AltitudeMeters>
            <DistanceMeters>41624.128893157</DistanceMeters>
          </Trackpoint>
          <Trackpoint>
            <Time>2021-01-13T16:15:00.000Z</Time>
            <Position>
              <LatitudeDegrees>43.4092400036752223968505859375</LatitudeDegrees>
              <LongitudeDegrees>-3.837586976587772369384765625</LongitudeDegrees>
            </Position>
            <AltitudeMeters>8</AltitudeMeters>
            <DistanceMeters>41648.337776266</DistanceMeters>
          </Trackpoint>
          <Trackpoint>
            <Time>2021-01-13T16:15:02.000Z</Time>
            <Position>
              <LatitudeDegrees>43.40910145081579685211181640625</LatitudeDegrees>
              <LongitudeDegrees>-3.83766786195337772369384765625</LongitudeDegrees>
            </Position>
            <AltitudeMeters>7.599999904632568359375</AltitudeMeters>
            <DistanceMeters>41665.088374323</DistanceMeters>
          </Trackpoint>
          <Trackpoint>
            <Time>2021-01-13T16:15:04.000Z</Time>
            <Position>
              <LatitudeDegrees>43.40896046720445156097412109375</LatitudeDegrees>
              <LongitudeDegrees>-3.83773826994001865386962890625</LongitudeDegrees>
            </Position>
            <AltitudeMeters>7.19999980926513671875</AltitudeMeters>
            <DistanceMeters>41681.78091963</DistanceMeters>
          </Trackpoint>
          <Trackpoint>
            <Time>2021-01-13T16:15:05.000Z</Time>
            <Position>
              <LatitudeDegrees>43.40888855047523975372314453125</LatitudeDegrees>
              <LongitudeDegrees>-3.837769366800785064697265625</LongitudeDegrees>
            </Position>
            <AltitudeMeters>7</AltitudeMeters>
            <DistanceMeters>41690.171299595</DistanceMeters>
          </Trackpoint>
          <Trackpoint>
            <Time>2021-01-13T16:15:06.000Z</Time>
            <Position>
              <LatitudeDegrees>43.40881638228893280029296875</LatitudeDegrees>
              <LongitudeDegrees>-3.83780029602348804473876953125</LongitudeDegrees>
            </Position>
            <AltitudeMeters>6.80000019073486328125</AltitudeMeters>
            <DistanceMeters>41698.583713582</DistanceMeters>
          </Trackpoint>
          <Trackpoint>
            <Time>2021-01-13T16:15:08.000Z</Time>
            <Position>
              <LatitudeDegrees>43.4086727164685726165771484375</LatitudeDegrees>
              <LongitudeDegrees>-3.837853856384754180908203125</LongitudeDegrees>
            </Position>
            <AltitudeMeters>6.599999904632568359375</AltitudeMeters>
            <DistanceMeters>41715.150007171</DistanceMeters>
          </Trackpoint>
          <Trackpoint>
            <Time>2021-01-13T16:15:09.000Z</Time>
            <Position>
              <LatitudeDegrees>43.40860105119645595550537109375</LatitudeDegrees>
              <LongitudeDegrees>-3.8378751464188098907470703125</LongitudeDegrees>
            </Position>
            <AltitudeMeters>6.400000095367431640625</AltitudeMeters>
            <DistanceMeters>41723.310140975</DistanceMeters>
          </Trackpoint>
          <Trackpoint>
            <Time>2021-01-13T16:15:12.000Z</Time>
            <Position>
              <LatitudeDegrees>43.40838664211332798004150390625</LatitudeDegrees>
              <LongitudeDegrees>-3.8379217498004436492919921875</LongitudeDegrees>
            </Position>
            <AltitudeMeters>5.599999904632568359375</AltitudeMeters>
            <DistanceMeters>41747.470110788</DistanceMeters>
          </Trackpoint>
          <Trackpoint>
            <Time>2021-01-13T16:15:14.000Z</Time>
            <Position>
              <LatitudeDegrees>43.40824641287326812744140625</LatitudeDegrees>
              <LongitudeDegrees>-3.83794002234935760498046875</LongitudeDegrees>
            </Position>
            <AltitudeMeters>4.80000019073486328125</AltitudeMeters>
            <DistanceMeters>41763.147502811</DistanceMeters>
          </Trackpoint>
          <Trackpoint>
            <Time>2021-01-13T16:15:15.000Z</Time>
            <Position>
              <LatitudeDegrees>43.40817726217210292816162109375</LatitudeDegrees>
              <LongitudeDegrees>-3.83794605731964111328125</LongitudeDegrees>
            </Position>
            <AltitudeMeters>4.599999904632568359375</AltitudeMeters>
            <DistanceMeters>41770.859902796</DistanceMeters>
          </Trackpoint>
          <Trackpoint>
            <Time>2021-01-13T16:15:16.000Z</Time>
            <Position>
              <LatitudeDegrees>43.40810869820415973663330078125</LatitudeDegrees>
              <LongitudeDegrees>-3.83794915862381458282470703125</LongitudeDegrees>
            </Position>
            <AltitudeMeters>4.19999980926513671875</AltitudeMeters>
            <DistanceMeters>41778.495226858</DistanceMeters>
          </Trackpoint>
          <Trackpoint>
            <Time>2021-01-13T16:15:21.000Z</Time>
            <Position>
              <LatitudeDegrees>43.40777191333472728729248046875</LatitudeDegrees>
              <LongitudeDegrees>-3.8379351608455181121826171875</LongitudeDegrees>
            </Position>
            <AltitudeMeters>3.400000095367431640625</AltitudeMeters>
            <DistanceMeters>41815.99720395</DistanceMeters>
          </Trackpoint>
          <Trackpoint>
            <Time>2021-01-13T16:15:24.000Z</Time>
            <Position>
              <LatitudeDegrees>43.40757317841053009033203125</LatitudeDegrees>
              <LongitudeDegrees>-3.83790037594735622406005859375</LongitudeDegrees>
            </Position>
            <AltitudeMeters>2.599999904632568359375</AltitudeMeters>
            <DistanceMeters>41838.294691451</DistanceMeters>
          </Trackpoint>
          <Trackpoint>
            <Time>2021-01-13T16:15:26.000Z</Time>
            <Position>
              <LatitudeDegrees>43.4074422530829906463623046875</LatitudeDegrees>
              <LongitudeDegrees>-3.83786533959209918975830078125</LongitudeDegrees>
            </Position>
            <AltitudeMeters>2.400000095367431640625</AltitudeMeters>
            <DistanceMeters>41853.139555396</DistanceMeters>
          </Trackpoint>
          <Trackpoint>
            <Time>2021-01-13T16:15:28.000Z</Time>
            <Position>
              <LatitudeDegrees>43.40731342323124408721923828125</LatitudeDegrees>
              <LongitudeDegrees>-3.83782544173300266265869140625</LongitudeDegrees>
            </Position>
            <AltitudeMeters>2.2000000476837158203125</AltitudeMeters>
            <DistanceMeters>41867.837088818</DistanceMeters>
          </Trackpoint>
          <Trackpoint>
            <Time>2021-01-13T16:15:33.000Z</Time>
            <Position>
              <LatitudeDegrees>43.40699516236782073974609375</LatitudeDegrees>
              <LongitudeDegrees>-3.83769133128225803375244140625</LongitudeDegrees>
            </Position>
            <AltitudeMeters>1.39999997615814208984375</AltitudeMeters>
            <DistanceMeters>41904.88300692</DistanceMeters>
          </Trackpoint>
          <Trackpoint>
            <Time>2021-01-13T16:15:37.000Z</Time>
            <Position>
              <LatitudeDegrees>43.406742699444293975830078125</LatitudeDegrees>
              <LongitudeDegrees>-3.83756275288760662078857421875</LongitudeDegrees>
            </Position>
            <AltitudeMeters>1</AltitudeMeters>
            <DistanceMeters>41934.844313622</DistanceMeters>
          </Trackpoint>
          <Trackpoint>
            <Time>2021-01-13T16:15:45.000Z</Time>
            <Position>
              <LatitudeDegrees>43.4062275476753711700439453125</LatitudeDegrees>
              <LongitudeDegrees>-3.837331831455230712890625</LongitudeDegrees>
            </Position>
            <AltitudeMeters>0.60000002384185791015625</AltitudeMeters>
            <DistanceMeters>41995.145559153</DistanceMeters>
          </Trackpoint>
          <Trackpoint>
            <Time>2021-01-13T16:15:52.000Z</Time>
            <Position>
              <LatitudeDegrees>43.4057792834937572479248046875</LatitudeDegrees>
              <LongitudeDegrees>-3.83723719976842403411865234375</LongitudeDegrees>
            </Position>
            <AltitudeMeters>0.4000000059604644775390625</AltitudeMeters>
            <DistanceMeters>42045.621653184</DistanceMeters>
          </Trackpoint>
          <Trackpoint>
            <Time>2021-01-13T16:15:56.000Z</Time>
            <Position>
              <LatitudeDegrees>43.4055380523204803466796875</LatitudeDegrees>
              <LongitudeDegrees>-3.8372607529163360595703125</LongitudeDegrees>
            </Position>
            <AltitudeMeters>0.20000000298023223876953125</AltitudeMeters>
            <DistanceMeters>42072.538546642</DistanceMeters>
          </Trackpoint>
          <Trackpoint>
            <Time>2021-01-13T16:15:57.000Z</Time>
            <Position>
              <LatitudeDegrees>43.40548197738826274871826171875</LatitudeDegrees>
              <LongitudeDegrees>-3.83729000575840473175048828125</LongitudeDegrees>
            </Position>
            <AltitudeMeters>0.20000000298023223876953125</AltitudeMeters>
            <DistanceMeters>42079.213454669</DistanceMeters>
          </Trackpoint>
          <Trackpoint>
            <Time>2021-01-13T16:16:00.000Z</Time>
            <Position>
              <LatitudeDegrees>43.40533353388309478759765625</LatitudeDegrees>
              <LongitudeDegrees>-3.837455213069915771484375</LongitudeDegrees>
            </Position>
            <AltitudeMeters>0.20000000298023223876953125</AltitudeMeters>
            <DistanceMeters>42100.460586515</DistanceMeters>
          </Trackpoint>
          <Trackpoint>
            <Time>2021-01-13T16:16:01.000Z</Time>
            <Position>
              <LatitudeDegrees>43.40528282336890697479248046875</LatitudeDegrees>
              <LongitudeDegrees>-3.83751229383051395416259765625</LongitudeDegrees>
            </Position>
            <AltitudeMeters>0.20000000298023223876953125</AltitudeMeters>
            <DistanceMeters>42107.751681085</DistanceMeters>
          </Trackpoint>
          <Trackpoint>
            <Time>2021-01-13T16:16:03.000Z</Time>
            <Position>
              <LatitudeDegrees>43.40516388416290283203125</LatitudeDegrees>
              <LongitudeDegrees>-3.837586976587772369384765625</LongitudeDegrees>
            </Position>
            <AltitudeMeters>0.20000000298023223876953125</AltitudeMeters>
            <DistanceMeters>42122.302254005</DistanceMeters>
          </Trackpoint>
          <Trackpoint>
            <Time>2021-01-13T16:16:04.000Z</Time>
            <Position>
              <LatitudeDegrees>43.40510009787976741790771484375</LatitudeDegrees>
              <LongitudeDegrees>-3.83760432712733745574951171875</LongitudeDegrees>
            </Position>
            <AltitudeMeters>0.20000000298023223876953125</AltitudeMeters>
            <DistanceMeters>42129.539272961</DistanceMeters>
          </Trackpoint>
          <Trackpoint>
            <Time>2021-01-13T16:16:05.000Z</Time>
            <Position>
              <LatitudeDegrees>43.4050366468727588653564453125</LatitudeDegrees>
              <LongitudeDegrees>-3.83761958219110965728759765625</LongitudeDegrees>
            </Position>
            <AltitudeMeters>0.20000000298023223876953125</AltitudeMeters>
            <DistanceMeters>42136.708596159</DistanceMeters>
          </Trackpoint>
          <Trackpoint>
            <Time>2021-01-13T16:16:07.000Z</Time>
            <Position>
              <LatitudeDegrees>43.40491770766675472259521484375</LatitudeDegrees>
              <LongitudeDegrees>-3.83768781088292598724365234375</LongitudeDegrees>
            </Position>
            <AltitudeMeters>0.4000000059604644775390625</AltitudeMeters>
            <DistanceMeters>42151.050391069</DistanceMeters>
          </Trackpoint>
          <Trackpoint>
            <Time>2021-01-13T16:16:08.000Z</Time>
            <Position>
              <LatitudeDegrees>43.40486624278128147125244140625</LatitudeDegrees>
              <LongitudeDegrees>-3.83774078451097011566162109375</LongitudeDegrees>
            </Position>
            <AltitudeMeters>0.60000002384185791015625</AltitudeMeters>
            <DistanceMeters>42158.203321457</DistanceMeters>
          </Trackpoint>
          <Trackpoint>
            <Time>2021-01-13T16:16:09.000Z</Time>
            <Position>
              <LatitudeDegrees>43.404817543923854827880859375</LatitudeDegrees>
              <LongitudeDegrees>-3.8378000445663928985595703125</LongitudeDegrees>
            </Position>
            <AltitudeMeters>0.800000011920928955078125</AltitudeMeters>
            <DistanceMeters>42165.438468528</DistanceMeters>
          </Trackpoint>
          <Trackpoint>
            <Time>2021-01-13T16:16:12.000Z</Time>
            <Position>
              <LatitudeDegrees>43.40468066744506359100341796875</LatitudeDegrees>
              <LongitudeDegrees>-3.8379888050258159637451171875</LongitudeDegrees>
            </Position>
            <AltitudeMeters>1.2000000476837158203125</AltitudeMeters>
            <DistanceMeters>42187.004299307</DistanceMeters>
          </Trackpoint>
          <Trackpoint>
            <Time>2021-01-13T16:16:15.000Z</Time>
            <Position>
              <LatitudeDegrees>43.40455678291618824005126953125</LatitudeDegrees>
              <LongitudeDegrees>-3.838197849690914154052734375</LongitudeDegrees>
            </Position>
            <AltitudeMeters>1.7999999523162841796875</AltitudeMeters>
            <DistanceMeters>42208.818674578</DistanceMeters>
          </Trackpoint>
          <Trackpoint>
            <Time>2021-01-13T16:16:18.000Z</Time>
            <Position>
              <LatitudeDegrees>43.4044391848146915435791015625</LatitudeDegrees>
              <LongitudeDegrees>-3.83841343224048614501953125</LongitudeDegrees>
            </Position>
            <AltitudeMeters>2.2000000476837158203125</AltitudeMeters>
            <DistanceMeters>42230.618349644</DistanceMeters>
          </Trackpoint>
          <Trackpoint>
            <Time>2021-01-13T16:16:22.000Z</Time>
            <Position>
              <LatitudeDegrees>43.40429074130952358245849609375</LatitudeDegrees>
              <LongitudeDegrees>-3.83869104087352752685546875</LongitudeDegrees>
            </Position>
            <AltitudeMeters>2.7999999523162841796875</AltitudeMeters>
            <DistanceMeters>42258.491484684</DistanceMeters>
          </Trackpoint>
          <Trackpoint>
            <Time>2021-01-13T16:16:25.000Z</Time>
            <Position>
              <LatitudeDegrees>43.40418026782572269439697265625</LatitudeDegrees>
              <LongitudeDegrees>-3.83889094926416873931884765625</LongitudeDegrees>
            </Position>
            <AltitudeMeters>3.599999904632568359375</AltitudeMeters>
            <DistanceMeters>42278.801874934</DistanceMeters>
          </Trackpoint>
          <Trackpoint>
            <Time>2021-01-13T16:16:26.000Z</Time>
            <Position>
              <LatitudeDegrees>43.40414464473724365234375</LatitudeDegrees>
              <LongitudeDegrees>-3.83895934559404850006103515625</LongitudeDegrees>
            </Position>
            <AltitudeMeters>3.599999904632568359375</AltitudeMeters>
            <DistanceMeters>42285.608070065</DistanceMeters>
          </Trackpoint>
          <Trackpoint>
            <Time>2021-01-13T16:16:35.000Z</Time>
            <Position>
              <LatitudeDegrees>43.40381498448550701141357421875</LatitudeDegrees>
              <LongitudeDegrees>-3.83957105688750743865966796875</LongitudeDegrees>
            </Position>
            <AltitudeMeters>4.400000095367431640625</AltitudeMeters>
            <DistanceMeters>42347.196231837</DistanceMeters>
          </Trackpoint>
          <Trackpoint>
            <Time>2021-01-13T16:16:37.000Z</Time>
            <Position>
              <LatitudeDegrees>43.40374155901372432708740234375</LatitudeDegrees>
              <LongitudeDegrees>-3.839709945023059844970703125</LongitudeDegrees>
            </Position>
            <AltitudeMeters>4.599999904632568359375</AltitudeMeters>
            <DistanceMeters>42361.085744181</DistanceMeters>
          </Trackpoint>
          <Trackpoint>
            <Time>2021-01-13T16:16:44.000Z</Time>
            <Position>
              <LatitudeDegrees>43.40347350575029850006103515625</LatitudeDegrees>
              <LongitudeDegrees>-3.84020422585308551788330078125</LongitudeDegrees>
            </Position>
            <AltitudeMeters>5.19999980926513671875</AltitudeMeters>
            <DistanceMeters>42410.962640532</DistanceMeters>
          </Trackpoint>
          <Trackpoint>
            <Time>2021-01-13T16:16:46.000Z</Time>
            <Position>
              <LatitudeDegrees>43.40339102782309055328369140625</LatitudeDegrees>
              <LongitudeDegrees>-3.8403434492647647857666015625</LongitudeDegrees>
            </Position>
            <AltitudeMeters>5.80000019073486328125</AltitudeMeters>
            <DistanceMeters>42425.488989913</DistanceMeters>
          </Trackpoint>
          <Trackpoint>
            <Time>2021-01-13T16:16:47.000Z</Time>
            <Position>
              <LatitudeDegrees>43.40335146524012088775634765625</LatitudeDegrees>
              <LongitudeDegrees>-3.84041528217494487762451171875</LongitudeDegrees>
            </Position>
            <AltitudeMeters>6</AltitudeMeters>
            <DistanceMeters>42432.778226485</DistanceMeters>
          </Trackpoint>
          <Trackpoint>
            <Time>2021-01-13T16:16:55.000Z</Time>
            <Position>
              <LatitudeDegrees>43.40304133482277393341064453125</LatitudeDegrees>
              <LongitudeDegrees>-3.84098977781832218170166015625</LongitudeDegrees>
            </Position>
            <AltitudeMeters>6.599999904632568359375</AltitudeMeters>
            <DistanceMeters>42490.654878573</DistanceMeters>
          </Trackpoint>
          <Trackpoint>
            <Time>2021-01-13T16:16:58.000Z</Time>
            <Position>
              <LatitudeDegrees>43.40292633511126041412353515625</LatitudeDegrees>
              <LongitudeDegrees>-3.84120158851146697998046875</LongitudeDegrees>
            </Position>
            <AltitudeMeters>6.80000019073486328125</AltitudeMeters>
            <DistanceMeters>42512.036945132</DistanceMeters>
          </Trackpoint>
          <Trackpoint>
            <Time>2021-01-13T16:17:01.000Z</Time>
            <Position>
              <LatitudeDegrees>43.4028134308755397796630859375</LatitudeDegrees>
              <LongitudeDegrees>-3.841405101120471954345703125</LongitudeDegrees>
            </Position>
            <AltitudeMeters>7.19999980926513671875</AltitudeMeters>
            <DistanceMeters>42532.743176792</DistanceMeters>
          </Trackpoint>
          <Trackpoint>
            <Time>2021-01-13T16:17:08.000Z</Time>
            <Position>
              <LatitudeDegrees>43.4025312960147857666015625</LatitudeDegrees>
              <LongitudeDegrees>-3.841891586780548095703125</LongitudeDegrees>
            </Position>
            <AltitudeMeters>7.599999904632568359375</AltitudeMeters>
            <DistanceMeters>42583.079267812</DistanceMeters>
          </Trackpoint>
          <Trackpoint>
            <Time>2021-01-13T16:17:10.000Z</Time>
            <Position>
              <LatitudeDegrees>43.40246013365685939788818359375</LatitudeDegrees>
              <LongitudeDegrees>-3.84204841218888759613037109375</LongitudeDegrees>
            </Position>
            <AltitudeMeters>7.80000019073486328125</AltitudeMeters>
            <DistanceMeters>42598.031412561</DistanceMeters>
          </Trackpoint>
          <Trackpoint>
            <Time>2021-01-13T16:17:15.000Z</Time>
            <Position>
              <LatitudeDegrees>43.40232937596738338470458984375</LatitudeDegrees>
              <LongitudeDegrees>-3.84247924201190471649169921875</LongitudeDegrees>
            </Position>
            <AltitudeMeters>7.599999904632568359375</AltitudeMeters>
            <DistanceMeters>42635.78848115</DistanceMeters>
          </Trackpoint>
          <Trackpoint>
            <Time>2021-01-13T16:17:18.000Z</Time>
            <Position>
              <LatitudeDegrees>43.40217783115804195404052734375</LatitudeDegrees>
              <LongitudeDegrees>-3.842644281685352325439453125</LongitudeDegrees>
            </Position>
            <AltitudeMeters>7.599999904632568359375</AltitudeMeters>
            <DistanceMeters>42657.297290423</DistanceMeters>
          </Trackpoint>
          <Trackpoint>
            <Time>2021-01-13T16:17:19.000Z</Time>
            <Position>
              <LatitudeDegrees>43.402114212512969970703125</LatitudeDegrees>
              <LongitudeDegrees>-3.84267814457416534423828125</LongitudeDegrees>
            </Position>
            <AltitudeMeters>7.400000095367431640625</AltitudeMeters>
            <DistanceMeters>42664.889324271</DistanceMeters>
          </Trackpoint>
          <Trackpoint>
            <Time>2021-01-13T16:17:22.000Z</Time>
            <Position>
              <LatitudeDegrees>43.4019296430051326751708984375</LatitudeDegrees>
              <LongitudeDegrees>-3.84280152618885040283203125</LongitudeDegrees>
            </Position>
            <AltitudeMeters>7.19999980926513671875</AltitudeMeters>
            <DistanceMeters>42687.727191626</DistanceMeters>
          </Trackpoint>
          <Trackpoint>
            <Time>2021-01-13T16:17:23.000Z</Time>
            <Position>
              <LatitudeDegrees>43.40187608264386653900146484375</LatitudeDegrees>
              <LongitudeDegrees>-3.8428613729774951934814453125</LongitudeDegrees>
            </Position>
            <AltitudeMeters>7.19999980926513671875</AltitudeMeters>
            <DistanceMeters>42695.406149835</DistanceMeters>
          </Trackpoint>
          <Trackpoint>
            <Time>2021-01-13T16:17:26.000Z</Time>
            <Position>
              <LatitudeDegrees>43.40174213983118534088134765625</LatitudeDegrees>
              <LongitudeDegrees>-3.843071423470973968505859375</LongitudeDegrees>
            </Position>
            <AltitudeMeters>6.80000019073486328125</AltitudeMeters>
            <DistanceMeters>42718.006531336</DistanceMeters>
          </Trackpoint>
          <Trackpoint>
            <Time>2021-01-13T16:17:28.000Z</Time>
            <Position>
              <LatitudeDegrees>43.40165664441883563995361328125</LatitudeDegrees>
              <LongitudeDegrees>-3.84321592748165130615234375</LongitudeDegrees>
            </Position>
            <AltitudeMeters>6.599999904632568359375</AltitudeMeters>
            <DistanceMeters>42733.076581852</DistanceMeters>
          </Trackpoint>
          <Trackpoint>
            <Time>2021-01-13T16:17:31.000Z</Time>
            <Position>
              <LatitudeDegrees>43.40152706019580364227294921875</LatitudeDegrees>
              <LongitudeDegrees>-3.8434336893260478973388671875</LongitudeDegrees>
            </Position>
            <AltitudeMeters>6.599999904632568359375</AltitudeMeters>
            <DistanceMeters>42755.839001016</DistanceMeters>
          </Trackpoint>
          <Trackpoint>
            <Time>2021-01-13T16:17:38.000Z</Time>
            <Position>
              <LatitudeDegrees>43.40122346766293048858642578125</LatitudeDegrees>
              <LongitudeDegrees>-3.8439421355724334716796875</LongitudeDegrees>
            </Position>
            <AltitudeMeters>6.400000095367431640625</AltitudeMeters>
            <DistanceMeters>42809.059136374</DistanceMeters>
          </Trackpoint>
          <Trackpoint>
            <Time>2021-01-13T16:17:39.000Z</Time>
            <Position>
              <LatitudeDegrees>43.401180468499660491943359375</LatitudeDegrees>
              <LongitudeDegrees>-3.844012208282947540283203125</LongitudeDegrees>
            </Position>
            <AltitudeMeters>6.400000095367431640625</AltitudeMeters>
            <DistanceMeters>42816.476091659</DistanceMeters>
          </Trackpoint>
          <Trackpoint>
            <Time>2021-01-13T16:17:48.000Z</Time>
            <Position>
              <LatitudeDegrees>43.4008093178272247314453125</LatitudeDegrees>
              <LongitudeDegrees>-3.84462970308959484100341796875</LongitudeDegrees>
            </Position>
            <AltitudeMeters>6.400000095367431640625</AltitudeMeters>
            <DistanceMeters>42881.283892852</DistanceMeters>
          </Trackpoint>
          <Trackpoint>
            <Time>2021-01-13T16:17:52.000Z</Time>
            <Position>
              <LatitudeDegrees>43.40064771473407745361328125</LatitudeDegrees>
              <LongitudeDegrees>-3.84490395896136760711669921875</LongitudeDegrees>
            </Position>
            <AltitudeMeters>6.400000095367431640625</AltitudeMeters>
            <DistanceMeters>42909.839380992</DistanceMeters>
          </Trackpoint>
          <Trackpoint>
            <Time>2021-01-13T16:18:01.000Z</Time>
            <Position>
              <LatitudeDegrees>43.40027865953743457794189453125</LatitudeDegrees>
              <LongitudeDegrees>-3.8455214537680149078369140625</LongitudeDegrees>
            </Position>
            <AltitudeMeters>5.80000019073486328125</AltitudeMeters>
            <DistanceMeters>42974.499177413</DistanceMeters>
          </Trackpoint>
          <Trackpoint>
            <Time>2021-01-13T16:18:04.000Z</Time>
            <Position>
              <LatitudeDegrees>43.4001533500850200653076171875</LatitudeDegrees>
              <LongitudeDegrees>-3.8457316718995571136474609375</LongitudeDegrees>
            </Position>
            <AltitudeMeters>5.599999904632568359375</AltitudeMeters>
            <DistanceMeters>42996.488367332</DistanceMeters>
          </Trackpoint>
          <Trackpoint>
            <Time>2021-01-13T16:18:13.000Z</Time>
            <Position>
              <LatitudeDegrees>43.399788402020931243896484375</LatitudeDegrees>
              <LongitudeDegrees>-3.8463418744504451751708984375</LongitudeDegrees>
            </Position>
            <AltitudeMeters>5.80000019073486328125</AltitudeMeters>
            <DistanceMeters>43060.402575312</DistanceMeters>
          </Trackpoint>
          <Trackpoint>
            <Time>2021-01-13T16:18:17.000Z</Time>
            <Position>
              <LatitudeDegrees>43.3996232785284519195556640625</LatitudeDegrees>
              <LongitudeDegrees>-3.8466131128370761871337890625</LongitudeDegrees>
            </Position>
            <AltitudeMeters>5.80000019073486328125</AltitudeMeters>
            <DistanceMeters>43089.019030585</DistanceMeters>
          </Trackpoint>
          <Trackpoint>
            <Time>2021-01-13T16:18:26.000Z</Time>
            <Position>
              <LatitudeDegrees>43.3992621861398220062255859375</LatitudeDegrees>
              <LongitudeDegrees>-3.847210407257080078125</LongitudeDegrees>
            </Position>
            <AltitudeMeters>6</AltitudeMeters>
            <DistanceMeters>43151.855764313</DistanceMeters>
          </Trackpoint>
          <Trackpoint>
            <Time>2021-01-13T16:18:29.000Z</Time>
            <Position>
              <LatitudeDegrees>43.39914559386670589447021484375</LatitudeDegrees>
              <LongitudeDegrees>-3.84740377776324748992919921875</LongitudeDegrees>
            </Position>
            <AltitudeMeters>6.400000095367431640625</AltitudeMeters>
            <DistanceMeters>43172.176822253</DistanceMeters>
          </Trackpoint>
          <Trackpoint>
            <Time>2021-01-13T16:18:33.000Z</Time>
            <Position>
              <LatitudeDegrees>43.398991785943508148193359375</LatitudeDegrees>
              <LongitudeDegrees>-3.8476598449051380157470703125</LongitudeDegrees>
            </Position>
            <AltitudeMeters>6.80000019073486328125</AltitudeMeters>
            <DistanceMeters>43199.044691001</DistanceMeters>
          </Trackpoint>
          <Trackpoint>
            <Time>2021-01-13T16:18:38.000Z</Time>
            <Position>
              <LatitudeDegrees>43.39881702326238155364990234375</LatitudeDegrees>
              <LongitudeDegrees>-3.8480058498680591583251953125</LongitudeDegrees>
            </Position>
            <AltitudeMeters>7.599999904632568359375</AltitudeMeters>
            <DistanceMeters>43233.122865999</DistanceMeters>
          </Trackpoint>
          <Trackpoint>
            <Time>2021-01-13T16:18:42.000Z</Time>
            <Position>
              <LatitudeDegrees>43.398722894489765167236328125</LatitudeDegrees>
              <LongitudeDegrees>-3.848326206207275390625</LongitudeDegrees>
            </Position>
            <AltitudeMeters>8</AltitudeMeters>
            <DistanceMeters>43261.068476229</DistanceMeters>
          </Trackpoint>
          <Trackpoint>
            <Time>2021-01-13T16:18:43.000Z</Time>
            <Position>
              <LatitudeDegrees>43.39871174655854701995849609375</LatitudeDegrees>
              <LongitudeDegrees>-3.8484108634293079376220703125</LongitudeDegrees>
            </Position>
            <AltitudeMeters>8.19999980926513671875</AltitudeMeters>
            <DistanceMeters>43268.026222978</DistanceMeters>
          </Trackpoint>
          <Trackpoint>
            <Time>2021-01-13T16:18:47.000Z</Time>
            <Position>
              <LatitudeDegrees>43.398608230054378509521484375</LatitudeDegrees>
              <LongitudeDegrees>-3.8487162999808788299560546875</LongitudeDegrees>
            </Position>
            <AltitudeMeters>8.80000019073486328125</AltitudeMeters>
            <DistanceMeters>43295.282164145</DistanceMeters>
          </Trackpoint>
          <Trackpoint>
            <Time>2021-01-13T16:18:49.000Z</Time>
            <Position>
              <LatitudeDegrees>43.3984994329512119293212890625</LatitudeDegrees>
              <LongitudeDegrees>-3.84879969991743564605712890625</LongitudeDegrees>
            </Position>
            <AltitudeMeters>9</AltitudeMeters>
            <DistanceMeters>43309.143040972</DistanceMeters>
          </Trackpoint>
          <Trackpoint>
            <Time>2021-01-13T16:18:50.000Z</Time>
            <Position>
              <LatitudeDegrees>43.3984374068677425384521484375</LatitudeDegrees>
              <LongitudeDegrees>-3.8488266058266162872314453125</LongitudeDegrees>
            </Position>
            <AltitudeMeters>9.19999980926513671875</AltitudeMeters>
            <DistanceMeters>43316.380683783</DistanceMeters>
          </Trackpoint>
          <Trackpoint>
            <Time>2021-01-13T16:18:53.000Z</Time>
            <Position>
              <LatitudeDegrees>43.3982550166547298431396484375</LatitudeDegrees>
              <LongitudeDegrees>-3.8489298708736896514892578125</LongitudeDegrees>
            </Position>
            <AltitudeMeters>9.3999996185302734375</AltitudeMeters>
            <DistanceMeters>43338.331649116</DistanceMeters>
          </Trackpoint>
          <Trackpoint>
            <Time>2021-01-13T16:18:55.000Z</Time>
            <Position>
              <LatitudeDegrees>43.39815502054989337921142578125</LatitudeDegrees>
              <LongitudeDegrees>-3.84903900325298309326171875</LongitudeDegrees>
            </Position>
            <AltitudeMeters>9.3999996185302734375</AltitudeMeters>
            <DistanceMeters>43352.536156431</DistanceMeters>
          </Trackpoint>
          <Trackpoint>
            <Time>2021-01-13T16:19:03.000Z</Time>
            <Position>
              <LatitudeDegrees>43.397811949253082275390625</LatitudeDegrees>
              <LongitudeDegrees>-3.84953848086297512054443359375</LongitudeDegrees>
            </Position>
            <AltitudeMeters>9.6000003814697265625</AltitudeMeters>
            <DistanceMeters>43408.121261143</DistanceMeters>
          </Trackpoint>
          <Trackpoint>
            <Time>2021-01-13T16:19:12.000Z</Time>
            <Position>
              <LatitudeDegrees>43.3974553830921649932861328125</LatitudeDegrees>
              <LongitudeDegrees>-3.85007760487496852874755859375</LongitudeDegrees>
            </Position>
            <AltitudeMeters>9.6000003814697265625</AltitudeMeters>
            <DistanceMeters>43467.078885807</DistanceMeters>
          </Trackpoint>
          <Trackpoint>
            <Time>2021-01-13T16:19:18.000Z</Time>
            <Position>
              <LatitudeDegrees>43.39726553298532962799072265625</LatitudeDegrees>
              <LongitudeDegrees>-3.8503732345998287200927734375</LongitudeDegrees>
            </Position>
            <AltitudeMeters>10.19999980926513671875</AltitudeMeters>
            <DistanceMeters>43498.986926469</DistanceMeters>
          </Trackpoint>
          <Trackpoint>
            <Time>2021-01-13T16:19:19.000Z</Time>
            <Position>
              <LatitudeDegrees>43.39723736979067325592041015625</LatitudeDegrees>
              <LongitudeDegrees>-3.850421011447906494140625</LongitudeDegrees>
            </Position>
            <AltitudeMeters>10.3999996185302734375</AltitudeMeters>
            <DistanceMeters>43503.962008331</DistanceMeters>
          </Trackpoint>
          <Trackpoint>
            <Time>2021-01-13T16:19:24.000Z</Time>
            <Position>
              <LatitudeDegrees>43.3971053548157215118408203125</LatitudeDegrees>
              <LongitudeDegrees>-3.850671462714672088623046875</LongitudeDegrees>
            </Position>
            <AltitudeMeters>11.3999996185302734375</AltitudeMeters>
            <DistanceMeters>43528.985088292</DistanceMeters>
          </Trackpoint>
          <Trackpoint>
            <Time>2021-01-13T16:19:28.000Z</Time>
            <Position>
              <LatitudeDegrees>43.397012315690517425537109375</LatitudeDegrees>
              <LongitudeDegrees>-3.85089299641549587249755859375</LongitudeDegrees>
            </Position>
            <AltitudeMeters>12.3999996185302734375</AltitudeMeters>
            <DistanceMeters>43549.678669063</DistanceMeters>
          </Trackpoint>
          <Trackpoint>
            <Time>2021-01-13T16:19:29.000Z</Time>
            <Position>
              <LatitudeDegrees>43.39699027128517627716064453125</LatitudeDegrees>
              <LongitudeDegrees>-3.850951753556728363037109375</LongitudeDegrees>
            </Position>
            <AltitudeMeters>12.6000003814697265625</AltitudeMeters>
            <DistanceMeters>43555.025558067</DistanceMeters>
          </Trackpoint>
          <Trackpoint>
            <Time>2021-01-13T16:19:32.000Z</Time>
            <Position>
              <LatitudeDegrees>43.3969310112297534942626953125</LatitudeDegrees>
              <LongitudeDegrees>-3.851129449903964996337890625</LongitudeDegrees>
            </Position>
            <AltitudeMeters>13.80000019073486328125</AltitudeMeters>
            <DistanceMeters>43570.837158126</DistanceMeters>
          </Trackpoint>
          <Trackpoint>
            <Time>2021-01-13T16:19:36.000Z</Time>
            <Position>
              <LatitudeDegrees>43.39686269871890544891357421875</LatitudeDegrees>
              <LongitudeDegrees>-3.85137210600078105926513671875</LongitudeDegrees>
            </Position>
            <AltitudeMeters>14.80000019073486328125</AltitudeMeters>
            <DistanceMeters>43591.882732946</DistanceMeters>
          </Trackpoint>
          <Trackpoint>
            <Time>2021-01-13T16:19:38.000Z</Time>
            <Position>
              <LatitudeDegrees>43.3968351222574710845947265625</LatitudeDegrees>
              <LongitudeDegrees>-3.85149766691029071807861328125</LongitudeDegrees>
            </Position>
            <AltitudeMeters>15.3999996185302734375</AltitudeMeters>
            <DistanceMeters>43602.490881353</DistanceMeters>
          </Trackpoint>
          <Trackpoint>
            <Time>2021-01-13T16:19:40.000Z</Time>
            <Position>
              <LatitudeDegrees>43.39681341312825679779052734375</LatitudeDegrees>
              <LongitudeDegrees>-3.85162423364818096160888671875</LongitudeDegrees>
            </Position>
            <AltitudeMeters>16.200000762939453125</AltitudeMeters>
            <DistanceMeters>43613.008411312</DistanceMeters>
          </Trackpoint>
          <Trackpoint>
            <Time>2021-01-13T16:19:48.000Z</Time>
            <Position>
              <LatitudeDegrees>43.39672439731657505035400390625</LatitudeDegrees>
              <LongitudeDegrees>-3.85217341594398021697998046875</LongitudeDegrees>
            </Position>
            <AltitudeMeters>17.200000762939453125</AltitudeMeters>
            <DistanceMeters>43658.51440202</DistanceMeters>
          </Trackpoint>
          <Trackpoint>
            <Time>2021-01-13T16:19:54.000Z</Time>
            <Position>
              <LatitudeDegrees>43.39657478034496307373046875</LatitudeDegrees>
              <LongitudeDegrees>-3.85261195711791515350341796875</LongitudeDegrees>
            </Position>
            <AltitudeMeters>17.3999996185302734375</AltitudeMeters>
            <DistanceMeters>43697.695841964</DistanceMeters>
          </Trackpoint>
          <Trackpoint>
            <Time>2021-01-13T16:19:59.000Z</Time>
            <Position>
              <LatitudeDegrees>43.3963560126721858978271484375</LatitudeDegrees>
              <LongitudeDegrees>-3.8530105166137218475341796875</LongitudeDegrees>
            </Position>
            <AltitudeMeters>16.799999237060546875</AltitudeMeters>
            <DistanceMeters>43738.092144202</DistanceMeters>
          </Trackpoint>
          <Trackpoint>
            <Time>2021-01-13T16:20:00.000Z</Time>
            <Position>
              <LatitudeDegrees>43.39630731381475925445556640625</LatitudeDegrees>
              <LongitudeDegrees>-3.85309207253158092498779296875</LongitudeDegrees>
            </Position>
            <AltitudeMeters>16.799999237060546875</AltitudeMeters>
            <DistanceMeters>43746.629753765</DistanceMeters>
          </Trackpoint>
          <Trackpoint>
            <Time>2021-01-13T16:20:03.000Z</Time>
            <Position>
              <LatitudeDegrees>43.39616348035633563995361328125</LatitudeDegrees>
              <LongitudeDegrees>-3.85333120822906494140625</LongitudeDegrees>
            </Position>
            <AltitudeMeters>16</AltitudeMeters>
            <DistanceMeters>43771.736056281</DistanceMeters>
          </Trackpoint>
          <Trackpoint>
            <Time>2021-01-13T16:20:06.000Z</Time>
            <Position>
              <LatitudeDegrees>43.396029956638813018798828125</LatitudeDegrees>
              <LongitudeDegrees>-3.8535563461482524871826171875</LongitudeDegrees>
            </Position>
            <AltitudeMeters>15</AltitudeMeters>
            <DistanceMeters>43795.239180889</DistanceMeters>
          </Trackpoint>
          <Trackpoint>
            <Time>2021-01-13T16:20:08.000Z</Time>
            <Position>
              <LatitudeDegrees>43.39594773016870021820068359375</LatitudeDegrees>
              <LongitudeDegrees>-3.8536904565989971160888671875</LongitudeDegrees>
            </Position>
            <AltitudeMeters>14.6000003814697265625</AltitudeMeters>
            <DistanceMeters>43809.430968127</DistanceMeters>
          </Trackpoint>
          <Trackpoint>
            <Time>2021-01-13T16:20:10.000Z</Time>
            <Position>
              <LatitudeDegrees>43.39587078429758548736572265625</LatitudeDegrees>
              <LongitudeDegrees>-3.85381476022303104400634765625</LongitudeDegrees>
            </Position>
            <AltitudeMeters>13.80000019073486328125</AltitudeMeters>
            <DistanceMeters>43822.637288448</DistanceMeters>
          </Trackpoint>
          <Trackpoint>
            <Time>2021-01-13T16:20:18.000Z</Time>
            <Position>
              <LatitudeDegrees>43.395557217299938201904296875</LatitudeDegrees>
              <LongitudeDegrees>-3.85430661030113697052001953125</LongitudeDegrees>
            </Position>
            <AltitudeMeters>12.80000019073486328125</AltitudeMeters>
            <DistanceMeters>43875.555821936</DistanceMeters>
          </Trackpoint>
          <Trackpoint>
            <Time>2021-01-13T16:20:19.000Z</Time>
            <Position>
              <LatitudeDegrees>43.395516313612461090087890625</LatitudeDegrees>
              <LongitudeDegrees>-3.85436863638460636138916015625</LongitudeDegrees>
            </Position>
            <AltitudeMeters>12.80000019073486328125</AltitudeMeters>
            <DistanceMeters>43882.330100384</DistanceMeters>
          </Trackpoint>
          <Trackpoint>
            <Time>2021-01-13T16:20:23.000Z</Time>
            <Position>
              <LatitudeDegrees>43.39535295031964778900146484375</LatitudeDegrees>
              <LongitudeDegrees>-3.8546134717762470245361328125</LongitudeDegrees>
            </Position>
            <AltitudeMeters>12.6000003814697265625</AltitudeMeters>
            <DistanceMeters>43909.213089019</DistanceMeters>
          </Trackpoint>
          <Trackpoint>
            <Time>2021-01-13T16:20:27.000Z</Time>
            <Position>
              <LatitudeDegrees>43.395191766321659088134765625</LatitudeDegrees>
              <LongitudeDegrees>-3.85485646314918994903564453125</LongitudeDegrees>
            </Position>
            <AltitudeMeters>12.6000003814697265625</AltitudeMeters>
            <DistanceMeters>43935.822265894</DistanceMeters>
          </Trackpoint>
          <Trackpoint>
            <Time>2021-01-13T16:20:30.000Z</Time>
            <Position>
              <LatitudeDegrees>43.39507567696273326873779296875</LatitudeDegrees>
              <LongitudeDegrees>-3.85503851808607578277587890625</LongitudeDegrees>
            </Position>
            <AltitudeMeters>12.80000019073486328125</AltitudeMeters>
            <DistanceMeters>43955.411142034</DistanceMeters>
          </Trackpoint>
          <Trackpoint>
            <Time>2021-01-13T16:20:35.000Z</Time>
            <Position>
              <LatitudeDegrees>43.3948802947998046875</LatitudeDegrees>
              <LongitudeDegrees>-3.855343870818614959716796875</LongitudeDegrees>
            </Position>
            <AltitudeMeters>12.80000019073486328125</AltitudeMeters>
            <DistanceMeters>43988.316740437</DistanceMeters>
          </Trackpoint>
          <Trackpoint>
            <Time>2021-01-13T16:20:40.000Z</Time>
            <Position>
              <LatitudeDegrees>43.39466915465891361236572265625</LatitudeDegrees>
              <LongitudeDegrees>-3.8556632213294506072998046875</LongitudeDegrees>
            </Position>
            <AltitudeMeters>12.80000019073486328125</AltitudeMeters>
            <DistanceMeters>44023.235793292</DistanceMeters>
          </Trackpoint>
          <Trackpoint>
            <Time>2021-01-13T16:20:42.000Z</Time>
            <Position>
              <LatitudeDegrees>43.3945783786475658416748046875</LatitudeDegrees>
              <LongitudeDegrees>-3.8557969965040683746337890625</LongitudeDegrees>
            </Position>
            <AltitudeMeters>12.80000019073486328125</AltitudeMeters>
            <DistanceMeters>44038.039235295</DistanceMeters>
          </Trackpoint>
          <Trackpoint>
            <Time>2021-01-13T16:20:45.000Z</Time>
            <Position>
              <LatitudeDegrees>43.39443580247461795806884765625</LatitudeDegrees>
              <LongitudeDegrees>-3.85601542890071868896484375</LongitudeDegrees>
            </Position>
            <AltitudeMeters>12.3999996185302734375</AltitudeMeters>
            <DistanceMeters>44061.786409315</DistanceMeters>
          </Trackpoint>
          <Trackpoint>
            <Time>2021-01-13T16:20:47.000Z</Time>
            <Position>
              <LatitudeDegrees>43.3943356387317180633544921875</LatitudeDegrees>
              <LongitudeDegrees>-3.85616605170071125030517578125</LongitudeDegrees>
            </Position>
            <AltitudeMeters>12.3999996185302734375</AltitudeMeters>
            <DistanceMeters>44078.299744788</DistanceMeters>
          </Trackpoint>
          <Trackpoint>
            <Time>2021-01-13T16:20:50.000Z</Time>
            <Position>
              <LatitudeDegrees>43.3941829204559326171875</LatitudeDegrees>
              <LongitudeDegrees>-3.856391273438930511474609375</LongitudeDegrees>
            </Position>
            <AltitudeMeters>11.80000019073486328125</AltitudeMeters>
            <DistanceMeters>44103.213784898</DistanceMeters>
          </Trackpoint>
          <Trackpoint>
            <Time>2021-01-13T16:20:52.000Z</Time>
            <Position>
              <LatitudeDegrees>43.3940850198268890380859375</LatitudeDegrees>
              <LongitudeDegrees>-3.85653980076313018798828125</LongitudeDegrees>
            </Position>
            <AltitudeMeters>11.3999996185302734375</AltitudeMeters>
            <DistanceMeters>44119.432203339</DistanceMeters>
          </Trackpoint>
          <Trackpoint>
            <Time>2021-01-13T16:20:55.000Z</Time>
            <Position>
              <LatitudeDegrees>43.393944539129734039306640625</LatitudeDegrees>
              <LongitudeDegrees>-3.85673685930669307708740234375</LongitudeDegrees>
            </Position>
            <AltitudeMeters>10.80000019073486328125</AltitudeMeters>
            <DistanceMeters>44141.759234938</DistanceMeters>
          </Trackpoint>
          <Trackpoint>
            <Time>2021-01-13T16:20:56.000Z</Time>
            <Position>
              <LatitudeDegrees>43.39390070177614688873291015625</LatitudeDegrees>
              <LongitudeDegrees>-3.85680005885660648345947265625</LongitudeDegrees>
            </Position>
            <AltitudeMeters>10.6000003814697265625</AltitudeMeters>
            <DistanceMeters>44148.825798653</DistanceMeters>
          </Trackpoint>
          <Trackpoint>
            <Time>2021-01-13T16:20:59.000Z</Time>
            <Position>
              <LatitudeDegrees>43.39377396740019321441650390625</LatitudeDegrees>
              <LongitudeDegrees>-3.856994099915027618408203125</LongitudeDegrees>
            </Position>
            <AltitudeMeters>9.80000019073486328125</AltitudeMeters>
            <DistanceMeters>44169.927293137</DistanceMeters>
          </Trackpoint>
          <Trackpoint>
            <Time>2021-01-13T16:21:01.000Z</Time>
            <Position>
              <LatitudeDegrees>43.39369283057749271392822265625</LatitudeDegrees>
              <LongitudeDegrees>-3.85712477378547191619873046875</LongitudeDegrees>
            </Position>
            <AltitudeMeters>9.3999996185302734375</AltitudeMeters>
            <DistanceMeters>44183.828503009</DistanceMeters>
          </Trackpoint>
          <Trackpoint>
            <Time>2021-01-13T16:21:03.000Z</Time>
            <Position>
              <LatitudeDegrees>43.39360934682190418243408203125</LatitudeDegrees>
              <LongitudeDegrees>-3.8572500832378864288330078125</LongitudeDegrees>
            </Position>
            <AltitudeMeters>9.19999980926513671875</AltitudeMeters>
            <DistanceMeters>44197.578182293</DistanceMeters>
          </Trackpoint>
          <Trackpoint>
            <Time>2021-01-13T16:21:04.000Z</Time>
            <Position>
              <LatitudeDegrees>43.3935668505728244781494140625</LatitudeDegrees>
              <LongitudeDegrees>-3.85731252841651439666748046875</LongitudeDegrees>
            </Position>
            <AltitudeMeters>9</AltitudeMeters>
            <DistanceMeters>44204.496884139</DistanceMeters>
          </Trackpoint>
          <Trackpoint>
            <Time>2021-01-13T16:21:07.000Z</Time>
            <Position>
              <LatitudeDegrees>43.393444977700710296630859375</LatitudeDegrees>
              <LongitudeDegrees>-3.85749558918178081512451171875</LongitudeDegrees>
            </Position>
            <AltitudeMeters>9</AltitudeMeters>
            <DistanceMeters>44224.576998018</DistanceMeters>
          </Trackpoint>
          <Trackpoint>
            <Time>2021-01-13T16:21:09.000Z</Time>
            <Position>
              <LatitudeDegrees>43.3933673612773418426513671875</LatitudeDegrees>
              <LongitudeDegrees>-3.85761377401649951934814453125</LongitudeDegrees>
            </Position>
            <AltitudeMeters>9</AltitudeMeters>
            <DistanceMeters>44237.46109268</DistanceMeters>
          </Trackpoint>
          <Trackpoint>
            <Time>2021-01-13T16:21:11.000Z</Time>
            <Position>
              <LatitudeDegrees>43.39329100213944911956787109375</LatitudeDegrees>
              <LongitudeDegrees>-3.85772776789963245391845703125</LongitudeDegrees>
            </Position>
            <AltitudeMeters>9</AltitudeMeters>
            <DistanceMeters>44250.000298837</DistanceMeters>
          </Trackpoint>
          <Trackpoint>
            <Time>2021-01-13T16:21:14.000Z</Time>
            <Position>
              <LatitudeDegrees>43.393180780112743377685546875</LatitudeDegrees>
              <LongitudeDegrees>-3.85789699852466583251953125</LongitudeDegrees>
            </Position>
            <AltitudeMeters>9.19999980926513671875</AltitudeMeters>
            <DistanceMeters>44268.381030054</DistanceMeters>
          </Trackpoint>
          <Trackpoint>
            <Time>2021-01-13T16:21:15.000Z</Time>
            <Position>
              <LatitudeDegrees>43.393144905567169189453125</LatitudeDegrees>
              <LongitudeDegrees>-3.85795290581881999969482421875</LongitudeDegrees>
            </Position>
            <AltitudeMeters>9.19999980926513671875</AltitudeMeters>
            <DistanceMeters>44274.413542637</DistanceMeters>
          </Trackpoint>
          <Trackpoint>
            <Time>2021-01-13T16:21:18.000Z</Time>
            <Position>
              <LatitudeDegrees>43.39303803630173206329345703125</LatitudeDegrees>
              <LongitudeDegrees>-3.8581161014735698699951171875</LongitudeDegrees>
            </Position>
            <AltitudeMeters>9.80000019073486328125</AltitudeMeters>
            <DistanceMeters>44292.181505451</DistanceMeters>
          </Trackpoint>
          <Trackpoint>
            <Time>2021-01-13T16:21:21.000Z</Time>
            <Position>
              <LatitudeDegrees>43.39293099939823150634765625</LatitudeDegrees>
              <LongitudeDegrees>-3.8582793809473514556884765625</LongitudeDegrees>
            </Position>
            <AltitudeMeters>10.6000003814697265625</AltitudeMeters>
            <DistanceMeters>44309.966993295</DistanceMeters>
          </Trackpoint>
          <Trackpoint>
            <Time>2021-01-13T16:21:24.000Z</Time>
            <Position>
              <LatitudeDegrees>43.39282513596117496490478515625</LatitudeDegrees>
              <LongitudeDegrees>-3.8584409840404987335205078125</LongitudeDegrees>
            </Position>
            <AltitudeMeters>11.19999980926513671875</AltitudeMeters>
            <DistanceMeters>44327.56413458</DistanceMeters>
          </Trackpoint>
          <Trackpoint>
            <Time>2021-01-13T16:21:26.000Z</Time>
            <Position>
              <LatitudeDegrees>43.39275506325066089630126953125</LatitudeDegrees>
              <LongitudeDegrees>-3.8585445843636989593505859375</LongitudeDegrees>
            </Position>
            <AltitudeMeters>11.6000003814697265625</AltitudeMeters>
            <DistanceMeters>44339.01160021</DistanceMeters>
          </Trackpoint>
          <Trackpoint>
            <Time>2021-01-13T16:21:30.000Z</Time>
            <Position>
              <LatitudeDegrees>43.3926190249621868133544921875</LatitudeDegrees>
              <LongitudeDegrees>-3.85875237174332141876220703125</LongitudeDegrees>
            </Position>
            <AltitudeMeters>12.80000019073486328125</AltitudeMeters>
            <DistanceMeters>44361.632349795</DistanceMeters>
          </Trackpoint>
          <Trackpoint>
            <Time>2021-01-13T16:21:34.000Z</Time>
            <Position>
              <LatitudeDegrees>43.3924859203398227691650390625</LatitudeDegrees>
              <LongitudeDegrees>-3.85895605199038982391357421875</LongitudeDegrees>
            </Position>
            <AltitudeMeters>13.80000019073486328125</AltitudeMeters>
            <DistanceMeters>44383.78723267</DistanceMeters>
          </Trackpoint>
          <Trackpoint>
            <Time>2021-01-13T16:21:35.000Z</Time>
            <Position>
              <LatitudeDegrees>43.392453230917453765869140625</LatitudeDegrees>
              <LongitudeDegrees>-3.8590062595903873443603515625</LongitudeDegrees>
            </Position>
            <AltitudeMeters>14</AltitudeMeters>
            <DistanceMeters>44389.239480981</DistanceMeters>
          </Trackpoint>
          <Trackpoint>
            <Time>2021-01-13T16:21:39.000Z</Time>
            <Position>
              <LatitudeDegrees>43.39231434278190135955810546875</LatitudeDegrees>
              <LongitudeDegrees>-3.85920189321041107177734375</LongitudeDegrees>
            </Position>
            <AltitudeMeters>14.6000003814697265625</AltitudeMeters>
            <DistanceMeters>44411.360304032</DistanceMeters>
          </Trackpoint>
          <Trackpoint>
            <Time>2021-01-13T16:21:42.000Z</Time>
            <Position>
              <LatitudeDegrees>43.3922123350203037261962890625</LatitudeDegrees>
              <LongitudeDegrees>-3.859357126057147979736328125</LongitudeDegrees>
            </Position>
            <AltitudeMeters>15</AltitudeMeters>
            <DistanceMeters>44428.287600202</DistanceMeters>
          </Trackpoint>
          <Trackpoint>
            <Time>2021-01-13T16:21:44.000Z</Time>
            <Position>
              <LatitudeDegrees>43.3921431005001068115234375</LatitudeDegrees>
              <LongitudeDegrees>-3.85946114547550678253173828125</LongitudeDegrees>
            </Position>
            <AltitudeMeters>15.3999996185302734375</AltitudeMeters>
            <DistanceMeters>44439.695952046</DistanceMeters>
          </Trackpoint>
          <Trackpoint>
            <Time>2021-01-13T16:21:47.000Z</Time>
            <Position>
              <LatitudeDegrees>43.39203673414885997772216796875</LatitudeDegrees>
              <LongitudeDegrees>-3.85961688123643398284912109375</LongitudeDegrees>
            </Position>
            <AltitudeMeters>16</AltitudeMeters>
            <DistanceMeters>44456.98193566</DistanceMeters>
          </Trackpoint>
          <Trackpoint>
            <Time>2021-01-13T16:21:49.000Z</Time>
            <Position>
              <LatitudeDegrees>43.391967751085758209228515625</LatitudeDegrees>
              <LongitudeDegrees>-3.85972358286380767822265625</LongitudeDegrees>
            </Position>
            <AltitudeMeters>16</AltitudeMeters>
            <DistanceMeters>44468.533057231</DistanceMeters>
          </Trackpoint>
          <Trackpoint>
            <Time>2021-01-13T16:21:56.000Z</Time>
            <Position>
              <LatitudeDegrees>43.39173062704503536224365234375</LatitudeDegrees>
              <LongitudeDegrees>-3.8600955717265605926513671875</LongitudeDegrees>
            </Position>
            <AltitudeMeters>17.200000762939453125</AltitudeMeters>
            <DistanceMeters>44508.554988214</DistanceMeters>
          </Trackpoint>
          <Trackpoint>
            <Time>2021-01-13T16:21:57.000Z</Time>
            <Position>
              <LatitudeDegrees>43.39169852435588836669921875</LatitudeDegrees>
              <LongitudeDegrees>-3.86014846153557300567626953125</LongitudeDegrees>
            </Position>
            <AltitudeMeters>17.3999996185302734375</AltitudeMeters>
            <DistanceMeters>44514.128448806</DistanceMeters>
          </Trackpoint>
          <Trackpoint>
            <Time>2021-01-13T16:22:01.000Z</Time>
            <Position>
              <LatitudeDegrees>43.39156868867576122283935546875</LatitudeDegrees>
              <LongitudeDegrees>-3.8603532314300537109375</LongitudeDegrees>
            </Position>
            <AltitudeMeters>18.6000003814697265625</AltitudeMeters>
            <DistanceMeters>44536.108807765</DistanceMeters>
          </Trackpoint>
          <Trackpoint>
            <Time>2021-01-13T16:22:05.000Z</Time>
            <Position>
              <LatitudeDegrees>43.3914331533014774322509765625</LatitudeDegrees>
              <LongitudeDegrees>-3.8605471886694431304931640625</LongitudeDegrees>
            </Position>
            <AltitudeMeters>19.200000762939453125</AltitudeMeters>
            <DistanceMeters>44557.872622454</DistanceMeters>
          </Trackpoint>
          <Trackpoint>
            <Time>2021-01-13T16:22:08.000Z</Time>
            <Position>
              <LatitudeDegrees>43.391332738101482391357421875</LatitudeDegrees>
              <LongitudeDegrees>-3.86069429107010364532470703125</LongitudeDegrees>
            </Position>
            <AltitudeMeters>19.6000003814697265625</AltitudeMeters>
            <DistanceMeters>44574.196762733</DistanceMeters>
          </Trackpoint>
          <Trackpoint>
            <Time>2021-01-13T16:22:09.000Z</Time>
            <Position>
              <LatitudeDegrees>43.39130415581166744232177734375</LatitudeDegrees>
              <LongitudeDegrees>-3.860749192535877227783203125</LongitudeDegrees>
            </Position>
            <AltitudeMeters>20</AltitudeMeters>
            <DistanceMeters>44579.660592226</DistanceMeters>
          </Trackpoint>
          <Trackpoint>
            <Time>2021-01-13T16:22:11.000Z</Time>
            <Position>
              <LatitudeDegrees>43.39126945473253726959228515625</LatitudeDegrees>
              <LongitudeDegrees>-3.86087399907410144805908203125</LongitudeDegrees>
            </Position>
            <AltitudeMeters>20.3999996185302734375</AltitudeMeters>
            <DistanceMeters>44590.468601704</DistanceMeters>
          </Trackpoint>
          <Trackpoint>
            <Time>2021-01-13T16:22:13.000Z</Time>
            <Position>
              <LatitudeDegrees>43.391273058950901031494140625</LatitudeDegrees>
              <LongitudeDegrees>-3.8610132224857807159423828125</LongitudeDegrees>
            </Position>
            <AltitudeMeters>20.799999237060546875</AltitudeMeters>
            <DistanceMeters>44601.736382089</DistanceMeters>
          </Trackpoint>
          <Trackpoint>
            <Time>2021-01-13T16:22:14.000Z</Time>
            <Position>
              <LatitudeDegrees>43.39128269813954830169677734375</LatitudeDegrees>
              <LongitudeDegrees>-3.86108388192951679229736328125</LongitudeDegrees>
            </Position>
            <AltitudeMeters>21</AltitudeMeters>
            <DistanceMeters>44607.552451755</DistanceMeters>
          </Trackpoint>
          <Trackpoint>
            <Time>2021-01-13T16:22:15.000Z</Time>
            <Position>
              <LatitudeDegrees>43.39128755964338779449462890625</LatitudeDegrees>
              <LongitudeDegrees>-3.86115496046841144561767578125</LongitudeDegrees>
            </Position>
            <AltitudeMeters>21.200000762939453125</AltitudeMeters>
            <DistanceMeters>44613.32644883</DistanceMeters>
          </Trackpoint>
          <Trackpoint>
            <Time>2021-01-13T16:22:18.000Z</Time>
            <Position>
              <LatitudeDegrees>43.39123181998729705810546875</LatitudeDegrees>
              <LongitudeDegrees>-3.86134522967040538787841796875</LongitudeDegrees>
            </Position>
            <AltitudeMeters>21.799999237060546875</AltitudeMeters>
            <DistanceMeters>44629.918885982</DistanceMeters>
          </Trackpoint>
          <Trackpoint>
            <Time>2021-01-13T16:22:22.000Z</Time>
            <Position>
              <LatitudeDegrees>43.39104364626109600067138671875</LatitudeDegrees>
              <LongitudeDegrees>-3.86147146113216876983642578125</LongitudeDegrees>
            </Position>
            <AltitudeMeters>22.6000003814697265625</AltitudeMeters>
            <DistanceMeters>44653.218847265</DistanceMeters>
          </Trackpoint>
          <Trackpoint>
            <Time>2021-01-13T16:22:26.000Z</Time>
            <Position>
              <LatitudeDegrees>43.3908812887966632843017578125</LatitudeDegrees>
              <LongitudeDegrees>-3.86167849414050579071044921875</LongitudeDegrees>
            </Position>
            <AltitudeMeters>22.799999237060546875</AltitudeMeters>
            <DistanceMeters>44677.855152956</DistanceMeters>
          </Trackpoint>
          <Trackpoint>
            <Time>2021-01-13T16:22:27.000Z</Time>
            <Position>
              <LatitudeDegrees>43.3908457495272159576416015625</LatitudeDegrees>
              <LongitudeDegrees>-3.861744292080402374267578125</LongitudeDegrees>
            </Position>
            <AltitudeMeters>22.799999237060546875</AltitudeMeters>
            <DistanceMeters>44684.486628831</DistanceMeters>
          </Trackpoint>
          <Trackpoint>
            <Time>2021-01-13T16:22:36.000Z</Time>
            <Position>
              <LatitudeDegrees>43.3905265666544437408447265625</LatitudeDegrees>
              <LongitudeDegrees>-3.86236765421926975250244140625</LongitudeDegrees>
            </Position>
            <AltitudeMeters>22.799999237060546875</AltitudeMeters>
            <DistanceMeters>44746.164017748</DistanceMeters>
          </Trackpoint>
          <Trackpoint>
            <Time>2021-01-13T16:22:43.000Z</Time>
            <Position>
              <LatitudeDegrees>43.39028525166213512420654296875</LatitudeDegrees>
              <LongitudeDegrees>-3.86289395391941070556640625</LongitudeDegrees>
            </Position>
            <AltitudeMeters>22</AltitudeMeters>
            <DistanceMeters>44796.497417761</DistanceMeters>
          </Trackpoint>
          <Trackpoint>
            <Time>2021-01-13T16:22:46.000Z</Time>
            <Position>
              <LatitudeDegrees>43.39018969796597957611083984375</LatitudeDegrees>
              <LongitudeDegrees>-3.86310693807899951934814453125</LongitudeDegrees>
            </Position>
            <AltitudeMeters>21.799999237060546875</AltitudeMeters>
            <DistanceMeters>44816.742568779</DistanceMeters>
          </Trackpoint>
          <Trackpoint>
            <Time>2021-01-13T16:22:51.000Z</Time>
            <Position>
              <LatitudeDegrees>43.3900384046137332916259765625</LatitudeDegrees>
              <LongitudeDegrees>-3.86346719227731227874755859375</LongitudeDegrees>
            </Position>
            <AltitudeMeters>21.200000762939453125</AltitudeMeters>
            <DistanceMeters>44850.396786465</DistanceMeters>
          </Trackpoint>
          <Trackpoint>
            <Time>2021-01-13T16:22:54.000Z</Time>
            <Position>
              <LatitudeDegrees>43.38994511403143405914306640625</LatitudeDegrees>
              <LongitudeDegrees>-3.86368076317012310028076171875</LongitudeDegrees>
            </Position>
            <AltitudeMeters>21</AltitudeMeters>
            <DistanceMeters>44870.551636721</DistanceMeters>
          </Trackpoint>
          <Trackpoint>
            <Time>2021-01-13T16:22:55.000Z</Time>
            <Position>
              <LatitudeDegrees>43.38991410098969936370849609375</LatitudeDegrees>
              <LongitudeDegrees>-3.86375267989933490753173828125</LongitudeDegrees>
            </Position>
            <AltitudeMeters>21</AltitudeMeters>
            <DistanceMeters>44877.315910321</DistanceMeters>
          </Trackpoint>
          <Trackpoint>
            <Time>2021-01-13T16:23:00.000Z</Time>
            <Position>
              <LatitudeDegrees>43.38975685648620128631591796875</LatitudeDegrees>
              <LongitudeDegrees>-3.86411058716475963592529296875</LongitudeDegrees>
            </Position>
            <AltitudeMeters>21</AltitudeMeters>
            <DistanceMeters>44911.143819025</DistanceMeters>
          </Trackpoint>
          <Trackpoint>
            <Time>2021-01-13T16:23:07.000Z</Time>
            <Position>
              <LatitudeDegrees>43.3895036391913890838623046875</LatitudeDegrees>
              <LongitudeDegrees>-3.86460981331765651702880859375</LongitudeDegrees>
            </Position>
            <AltitudeMeters>21</AltitudeMeters>
            <DistanceMeters>44960.385815196</DistanceMeters>
          </Trackpoint>
          <Trackpoint>
            <Time>2021-01-13T16:23:11.000Z</Time>
            <Position>
              <LatitudeDegrees>43.38934061117470264434814453125</LatitudeDegrees>
              <LongitudeDegrees>-3.8648856617510318756103515625</LongitudeDegrees>
            </Position>
            <AltitudeMeters>20.799999237060546875</AltitudeMeters>
            <DistanceMeters>44989.144233813</DistanceMeters>
          </Trackpoint>
          <Trackpoint>
            <Time>2021-01-13T16:23:16.000Z</Time>
            <Position>
              <LatitudeDegrees>43.3891281299293041229248046875</LatitudeDegrees>
              <LongitudeDegrees>-3.86520056985318660736083984375</LongitudeDegrees>
            </Position>
            <AltitudeMeters>20.6000003814697265625</AltitudeMeters>
            <DistanceMeters>45023.901545517</DistanceMeters>
          </Trackpoint>
          <Trackpoint>
            <Time>2021-01-13T16:23:22.000Z</Time>
            <Position>
              <LatitudeDegrees>43.38886971585452556610107421875</LatitudeDegrees>
              <LongitudeDegrees>-3.86552142910659313201904296875</LongitudeDegrees>
            </Position>
            <AltitudeMeters>20.3999996185302734375</AltitudeMeters>
            <DistanceMeters>45062.64145575</DistanceMeters>
          </Trackpoint>
          <Trackpoint>
            <Time>2021-01-13T16:23:26.000Z</Time>
            <Position>
              <LatitudeDegrees>43.3887160755693912506103515625</LatitudeDegrees>
              <LongitudeDegrees>-3.8657469861209392547607421875</LongitudeDegrees>
            </Position>
            <AltitudeMeters>20.3999996185302734375</AltitudeMeters>
            <DistanceMeters>45087.646666269</DistanceMeters>
          </Trackpoint>
          <Trackpoint>
            <Time>2021-01-13T16:23:29.000Z</Time>
            <Position>
              <LatitudeDegrees>43.38859898038208484649658203125</LatitudeDegrees>
              <LongitudeDegrees>-3.8659213297069072723388671875</LongitudeDegrees>
            </Position>
            <AltitudeMeters>20.200000762939453125</AltitudeMeters>
            <DistanceMeters>45106.848647453</DistanceMeters>
          </Trackpoint>
          <Trackpoint>
            <Time>2021-01-13T16:23:37.000Z</Time>
            <Position>
              <LatitudeDegrees>43.38829656131565570831298828125</LatitudeDegrees>
              <LongitudeDegrees>-3.86639825999736785888671875</LongitudeDegrees>
            </Position>
            <AltitudeMeters>20.200000762939453125</AltitudeMeters>
            <DistanceMeters>45158.045563074</DistanceMeters>
          </Trackpoint>
          <Trackpoint>
            <Time>2021-01-13T16:23:47.000Z</Time>
            <Position>
              <LatitudeDegrees>43.38793597184121608734130859375</LatitudeDegrees>
              <LongitudeDegrees>-3.8669831492006778717041015625</LongitudeDegrees>
            </Position>
            <AltitudeMeters>20.6000003814697265625</AltitudeMeters>
            <DistanceMeters>45220.084981855</DistanceMeters>
          </Trackpoint>
          <Trackpoint>
            <Time>2021-01-13T16:23:49.000Z</Time>
            <Position>
              <LatitudeDegrees>43.3878654800355434417724609375</LatitudeDegrees>
              <LongitudeDegrees>-3.8670947961509227752685546875</LongitudeDegrees>
            </Position>
            <AltitudeMeters>20.799999237060546875</AltitudeMeters>
            <DistanceMeters>45232.047784682</DistanceMeters>
          </Trackpoint>
          <Trackpoint>
            <Time>2021-01-13T16:23:52.000Z</Time>
            <Position>
              <LatitudeDegrees>43.38776514865458011627197265625</LatitudeDegrees>
              <LongitudeDegrees>-3.867265284061431884765625</LongitudeDegrees>
            </Position>
            <AltitudeMeters>21.3999996185302734375</AltitudeMeters>
            <DistanceMeters>45249.792608311</DistanceMeters>
          </Trackpoint>
          <Trackpoint>
            <Time>2021-01-13T16:23:54.000Z</Time>
            <Position>
              <LatitudeDegrees>43.3876985125243663787841796875</LatitudeDegrees>
              <LongitudeDegrees>-3.86737860739231109619140625</LongitudeDegrees>
            </Position>
            <AltitudeMeters>22.200000762939453125</AltitudeMeters>
            <DistanceMeters>45261.583198917</DistanceMeters>
          </Trackpoint>
          <Trackpoint>
            <Time>2021-01-13T16:23:59.000Z</Time>
            <Position>
              <LatitudeDegrees>43.3875419385731220245361328125</LatitudeDegrees>
              <LongitudeDegrees>-3.86767323128879070281982421875</LongitudeDegrees>
            </Position>
            <AltitudeMeters>23.200000762939453125</AltitudeMeters>
            <DistanceMeters>45291.106088995</DistanceMeters>
          </Trackpoint>
          <Trackpoint>
            <Time>2021-01-13T16:24:00.000Z</Time>
            <Position>
              <LatitudeDegrees>43.3875141106545925140380859375</LatitudeDegrees>
              <LongitudeDegrees>-3.86773559264838695526123046875</LongitudeDegrees>
            </Position>
            <AltitudeMeters>23.3999996185302734375</AltitudeMeters>
            <DistanceMeters>45297.025269394</DistanceMeters>
          </Trackpoint>
          <Trackpoint>
            <Time>2021-01-13T16:24:01.000Z</Time>
            <Position>
              <LatitudeDegrees>43.3874882943928241729736328125</LatitudeDegrees>
              <LongitudeDegrees>-3.8678003847599029541015625</LongitudeDegrees>
            </Position>
            <AltitudeMeters>23.6000003814697265625</AltitudeMeters>
            <DistanceMeters>45303.002140015</DistanceMeters>
          </Trackpoint>
          <Trackpoint>
            <Time>2021-01-13T16:24:03.000Z</Time>
            <Position>
              <LatitudeDegrees>43.38744848035275936126708984375</LatitudeDegrees>
              <LongitudeDegrees>-3.86793524958193302154541015625</LongitudeDegrees>
            </Position>
            <AltitudeMeters>24</AltitudeMeters>
            <DistanceMeters>45314.776636337</DistanceMeters>
          </Trackpoint>
          <Trackpoint>
            <Time>2021-01-13T16:24:05.000Z</Time>
            <Position>
              <LatitudeDegrees>43.3874385058879852294921875</LatitudeDegrees>
              <LongitudeDegrees>-3.86807958595454692840576171875</LongitudeDegrees>
            </Position>
            <AltitudeMeters>24.6000003814697265625</AltitudeMeters>
            <DistanceMeters>45326.504642322</DistanceMeters>
          </Trackpoint>
          <Trackpoint>
            <Time>2021-01-13T16:24:08.000Z</Time>
            <Position>
              <LatitudeDegrees>43.38751830160617828369140625</LatitudeDegrees>
              <LongitudeDegrees>-3.86826432310044765472412109375</LongitudeDegrees>
            </Position>
            <AltitudeMeters>25</AltitudeMeters>
            <DistanceMeters>45343.887519471</DistanceMeters>
          </Trackpoint>
          <Trackpoint>
            <Time>2021-01-13T16:24:12.000Z</Time>
            <Position>
              <LatitudeDegrees>43.38761779479682445526123046875</LatitudeDegrees>
              <LongitudeDegrees>-3.86854092590510845184326171875</LongitudeDegrees>
            </Position>
            <AltitudeMeters>25.6000003814697265625</AltitudeMeters>
            <DistanceMeters>45368.851346614</DistanceMeters>
          </Trackpoint>
          <Trackpoint>
            <Time>2021-01-13T16:24:15.000Z</Time>
            <Position>
              <LatitudeDegrees>43.387564234435558319091796875</LatitudeDegrees>
              <LongitudeDegrees>-3.86876455508172512054443359375</LongitudeDegrees>
            </Position>
            <AltitudeMeters>26</AltitudeMeters>
            <DistanceMeters>45387.896795957</DistanceMeters>
          </Trackpoint>
          <Trackpoint>
            <Time>2021-01-13T16:24:18.000Z</Time>
            <Position>
              <LatitudeDegrees>43.3874098397791385650634765625</LatitudeDegrees>
              <LongitudeDegrees>-3.868864886462688446044921875</LongitudeDegrees>
            </Position>
            <AltitudeMeters>26</AltitudeMeters>
            <DistanceMeters>45406.90118854</DistanceMeters>
          </Trackpoint>
          <Trackpoint>
            <Time>2021-01-13T16:24:19.000Z</Time>
            <Position>
              <LatitudeDegrees>43.38735443539917469024658203125</LatitudeDegrees>
              <LongitudeDegrees>-3.86887921951711177825927734375</LongitudeDegrees>
            </Position>
            <AltitudeMeters>26.200000762939453125</AltitudeMeters>
            <DistanceMeters>45413.175830625</DistanceMeters>
          </Trackpoint>
          <Trackpoint>
            <Time>2021-01-13T16:24:23.000Z</Time>
            <Position>
              <LatitudeDegrees>43.38715611957013607025146484375</LatitudeDegrees>
              <LongitudeDegrees>-3.86896152980625629425048828125</LongitudeDegrees>
            </Position>
            <AltitudeMeters>26.3999996185302734375</AltitudeMeters>
            <DistanceMeters>45436.230925284</DistanceMeters>
          </Trackpoint>
          <Trackpoint>
            <Time>2021-01-13T16:24:24.000Z</Time>
            <Position>
              <LatitudeDegrees>43.3871166408061981201171875</LatitudeDegrees>
              <LongitudeDegrees>-3.868998996913433074951171875</LongitudeDegrees>
            </Position>
            <AltitudeMeters>26.3999996185302734375</AltitudeMeters>
            <DistanceMeters>45441.569363376</DistanceMeters>
          </Trackpoint>
          <Trackpoint>
            <Time>2021-01-13T16:24:30.000Z</Time>
            <Position>
              <LatitudeDegrees>43.3868643455207347869873046875</LatitudeDegrees>
              <LongitudeDegrees>-3.869292028248310089111328125</LongitudeDegrees>
            </Position>
            <AltitudeMeters>26.3999996185302734375</AltitudeMeters>
            <DistanceMeters>45478.316330207</DistanceMeters>
          </Trackpoint>
          <Trackpoint>
            <Time>2021-01-13T16:24:38.000Z</Time>
            <Position>
              <LatitudeDegrees>43.38649529032409191131591796875</LatitudeDegrees>
              <LongitudeDegrees>-3.86975160799920558929443359375</LongitudeDegrees>
            </Position>
            <AltitudeMeters>26.3999996185302734375</AltitudeMeters>
            <DistanceMeters>45533.71666019</DistanceMeters>
          </Trackpoint>
          <Trackpoint>
            <Time>2021-01-13T16:24:46.000Z</Time>
            <Position>
              <LatitudeDegrees>43.38615230284631252288818359375</LatitudeDegrees>
              <LongitudeDegrees>-3.8702058233320713043212890625</LongitudeDegrees>
            </Position>
            <AltitudeMeters>25.6000003814697265625</AltitudeMeters>
            <DistanceMeters>45586.699656748</DistanceMeters>
          </Trackpoint>
          <Trackpoint>
            <Time>2021-01-13T16:24:49.000Z</Time>
            <Position>
              <LatitudeDegrees>43.38602833449840545654296875</LatitudeDegrees>
              <LongitudeDegrees>-3.87038444168865680694580078125</LongitudeDegrees>
            </Position>
            <AltitudeMeters>25.6000003814697265625</AltitudeMeters>
            <DistanceMeters>45606.677879362</DistanceMeters>
          </Trackpoint>
          <Trackpoint>
            <Time>2021-01-13T16:24:58.000Z</Time>
            <Position>
              <LatitudeDegrees>43.38567486964166164398193359375</LatitudeDegrees>
              <LongitudeDegrees>-3.87095508165657520294189453125</LongitudeDegrees>
            </Position>
            <AltitudeMeters>26</AltitudeMeters>
            <DistanceMeters>45667.326814048</DistanceMeters>
          </Trackpoint>
          <Trackpoint>
            <Time>2021-01-13T16:25:01.000Z</Time>
            <Position>
              <LatitudeDegrees>43.38556473143398761749267578125</LatitudeDegrees>
              <LongitudeDegrees>-3.8711553253233432769775390625</LongitudeDegrees>
            </Position>
            <AltitudeMeters>26</AltitudeMeters>
            <DistanceMeters>45687.640316287</DistanceMeters>
          </Trackpoint>
          <Trackpoint>
            <Time>2021-01-13T16:25:09.000Z</Time>
            <Position>
              <LatitudeDegrees>43.38528963737189769744873046875</LatitudeDegrees>
              <LongitudeDegrees>-3.87171163223683834075927734375</LongitudeDegrees>
            </Position>
            <AltitudeMeters>25.799999237060546875</AltitudeMeters>
            <DistanceMeters>45742.068230523</DistanceMeters>
          </Trackpoint>
          <Trackpoint>
            <Time>2021-01-13T16:25:12.000Z</Time>
            <Position>
              <LatitudeDegrees>43.385192491114139556884765625</LatitudeDegrees>
              <LongitudeDegrees>-3.8719147257506847381591796875</LongitudeDegrees>
            </Position>
            <AltitudeMeters>25.6000003814697265625</AltitudeMeters>
            <DistanceMeters>45761.7353171</DistanceMeters>
          </Trackpoint>
          <Trackpoint>
            <Time>2021-01-13T16:25:21.000Z</Time>
            <Position>
              <LatitudeDegrees>43.3849334903061389923095703125</LatitudeDegrees>
              <LongitudeDegrees>-3.872475810348987579345703125</LongitudeDegrees>
            </Position>
            <AltitudeMeters>25.3999996185302734375</AltitudeMeters>
            <DistanceMeters>45815.502218095</DistanceMeters>
          </Trackpoint>
          <Trackpoint>
            <Time>2021-01-13T16:25:28.000Z</Time>
            <Position>
              <LatitudeDegrees>43.38473358191549777984619140625</LatitudeDegrees>
              <LongitudeDegrees>-3.872890882194042205810546875</LongitudeDegrees>
            </Position>
            <AltitudeMeters>26.200000762939453125</AltitudeMeters>
            <DistanceMeters>45855.780543954</DistanceMeters>
          </Trackpoint>
          <Trackpoint>
            <Time>2021-01-13T16:25:29.000Z</Time>
            <Position>
              <LatitudeDegrees>43.38470332324504852294921875</LatitudeDegrees>
              <LongitudeDegrees>-3.87295081280171871185302734375</LongitudeDegrees>
            </Position>
            <AltitudeMeters>26.200000762939453125</AltitudeMeters>
            <DistanceMeters>45861.682919316</DistanceMeters>
          </Trackpoint>
          <Trackpoint>
            <Time>2021-01-13T16:25:32.000Z</Time>
            <Position>
              <LatitudeDegrees>43.38461522944271564483642578125</LatitudeDegrees>
              <LongitudeDegrees>-3.873130939900875091552734375</LongitudeDegrees>
            </Position>
            <AltitudeMeters>26.799999237060546875</AltitudeMeters>
            <DistanceMeters>45879.245131336</DistanceMeters>
          </Trackpoint>
          <Trackpoint>
            <Time>2021-01-13T16:25:37.000Z</Time>
            <Position>
              <LatitudeDegrees>43.3844845555722713470458984375</LatitudeDegrees>
              <LongitudeDegrees>-3.87342455796897411346435546875</LongitudeDegrees>
            </Position>
            <AltitudeMeters>27.799999237060546875</AltitudeMeters>
            <DistanceMeters>45907.095254963</DistanceMeters>
          </Trackpoint>
          <Trackpoint>
            <Time>2021-01-13T16:25:38.000Z</Time>
            <Position>
              <LatitudeDegrees>43.38445614092051982879638671875</LatitudeDegrees>
              <LongitudeDegrees>-3.87348138727247714996337890625</LongitudeDegrees>
            </Position>
            <AltitudeMeters>28</AltitudeMeters>
            <DistanceMeters>45912.674383345</DistanceMeters>
          </Trackpoint>
          <Trackpoint>
            <Time>2021-01-13T16:25:46.000Z</Time>
            <Position>
              <LatitudeDegrees>43.3842039294540882110595703125</LatitudeDegrees>
              <LongitudeDegrees>-3.8739726506173610687255859375</LongitudeDegrees>
            </Position>
            <AltitudeMeters>29.200000762939453125</AltitudeMeters>
            <DistanceMeters>45961.327689903</DistanceMeters>
          </Trackpoint>
          <Trackpoint>
            <Time>2021-01-13T16:25:53.000Z</Time>
            <Position>
              <LatitudeDegrees>43.38399061001837253570556640625</LatitudeDegrees>
              <LongitudeDegrees>-3.87444295920431613922119140625</LongitudeDegrees>
            </Position>
            <AltitudeMeters>30.200000762939453125</AltitudeMeters>
            <DistanceMeters>46006.172245252</DistanceMeters>
          </Trackpoint>
          <Trackpoint>
            <Time>2021-01-13T16:25:55.000Z</Time>
            <Position>
              <LatitudeDegrees>43.38393889367580413818359375</LatitudeDegrees>
              <LongitudeDegrees>-3.87457740493118762969970703125</LongitudeDegrees>
            </Position>
            <AltitudeMeters>30.3999996185302734375</AltitudeMeters>
            <DistanceMeters>46018.477012285</DistanceMeters>
          </Trackpoint>
          <Trackpoint>
            <Time>2021-01-13T16:26:04.000Z</Time>
            <Position>
              <LatitudeDegrees>43.38375256396830081939697265625</LatitudeDegrees>
              <LongitudeDegrees>-3.8752272538840770721435546875</LongitudeDegrees>
            </Position>
            <AltitudeMeters>30.6000003814697265625</AltitudeMeters>
            <DistanceMeters>46074.986835443</DistanceMeters>
          </Trackpoint>
          <Trackpoint>
            <Time>2021-01-13T16:26:11.000Z</Time>
            <Position>
              <LatitudeDegrees>43.38365751318633556365966796875</LatitudeDegrees>
              <LongitudeDegrees>-3.8757563196122646331787109375</LongitudeDegrees>
            </Position>
            <AltitudeMeters>31.3999996185302734375</AltitudeMeters>
            <DistanceMeters>46119.071652698</DistanceMeters>
          </Trackpoint>
          <Trackpoint>
            <Time>2021-01-13T16:26:13.000Z</Time>
            <Position>
              <LatitudeDegrees>43.383638150990009307861328125</LatitudeDegrees>
              <LongitudeDegrees>-3.87590593658387660980224609375</LongitudeDegrees>
            </Position>
            <AltitudeMeters>31.6000003814697265625</AltitudeMeters>
            <DistanceMeters>46131.364672233</DistanceMeters>
          </Trackpoint>
          <Trackpoint>
            <Time>2021-01-13T16:26:19.000Z</Time>
            <Position>
              <LatitudeDegrees>43.38358274661004543304443359375</LatitudeDegrees>
              <LongitudeDegrees>-3.87636157684028148651123046875</LongitudeDegrees>
            </Position>
            <AltitudeMeters>32.40000152587890625</AltitudeMeters>
            <DistanceMeters>46168.734222162</DistanceMeters>
          </Trackpoint>
          <Trackpoint>
            <Time>2021-01-13T16:26:24.000Z</Time>
            <Position>
              <LatitudeDegrees>43.38353580795228481292724609375</LatitudeDegrees>
              <LongitudeDegrees>-3.8767497427761554718017578125</LongitudeDegrees>
            </Position>
            <AltitudeMeters>33.200000762939453125</AltitudeMeters>
            <DistanceMeters>46200.565192887</DistanceMeters>
          </Trackpoint>
          <Trackpoint>
            <Time>2021-01-13T16:26:26.000Z</Time>
            <Position>
              <LatitudeDegrees>43.3835162781178951263427734375</LatitudeDegrees>
              <LongitudeDegrees>-3.876903466880321502685546875</LongitudeDegrees>
            </Position>
            <AltitudeMeters>33.200000762939453125</AltitudeMeters>
            <DistanceMeters>46213.188732764</DistanceMeters>
          </Trackpoint>
          <Trackpoint>
            <Time>2021-01-13T16:26:35.000Z</Time>
            <Position>
              <LatitudeDegrees>43.38342617265880107879638671875</LatitudeDegrees>
              <LongitudeDegrees>-3.8776033557951450347900390625</LongitudeDegrees>
            </Position>
            <AltitudeMeters>33.799999237060546875</AltitudeMeters>
            <DistanceMeters>46270.684999472</DistanceMeters>
          </Trackpoint>
          <Trackpoint>
            <Time>2021-01-13T16:26:43.000Z</Time>
            <Position>
              <LatitudeDegrees>43.3832691796123981475830078125</LatitudeDegrees>
              <LongitudeDegrees>-3.87825454585254192352294921875</LongitudeDegrees>
            </Position>
            <AltitudeMeters>33.40000152587890625</AltitudeMeters>
            <DistanceMeters>46326.183204075</DistanceMeters>
          </Trackpoint>
          <Trackpoint>
            <Time>2021-01-13T16:26:50.000Z</Time>
            <Position>
              <LatitudeDegrees>43.38305988349020481109619140625</LatitudeDegrees>
              <LongitudeDegrees>-3.878811858594417572021484375</LongitudeDegrees>
            </Position>
            <AltitudeMeters>33.200000762939453125</AltitudeMeters>
            <DistanceMeters>46376.928003404</DistanceMeters>
          </Trackpoint>
          <Trackpoint>
            <Time>2021-01-13T16:26:52.000Z</Time>
            <Position>
              <LatitudeDegrees>43.38298679329454898834228515625</LatitudeDegrees>
              <LongitudeDegrees>-3.8789575360715389251708984375</LongitudeDegrees>
            </Position>
            <AltitudeMeters>32.799999237060546875</AltitudeMeters>
            <DistanceMeters>46391.247113562</DistanceMeters>
          </Trackpoint>
          <Trackpoint>
            <Time>2021-01-13T16:26:55.000Z</Time>
            <Position>
              <LatitudeDegrees>43.38286332786083221435546875</LatitudeDegrees>
              <LongitudeDegrees>-3.87917370535433292388916015625</LongitudeDegrees>
            </Position>
            <AltitudeMeters>32.40000152587890625</AltitudeMeters>
            <DistanceMeters>46413.487019298</DistanceMeters>
          </Trackpoint>
          <Trackpoint>
            <Time>2021-01-13T16:26:58.000Z</Time>
            <Position>
              <LatitudeDegrees>43.3827256970107555389404296875</LatitudeDegrees>
              <LongitudeDegrees>-3.87937746942043304443359375</LongitudeDegrees>
            </Position>
            <AltitudeMeters>32.200000762939453125</AltitudeMeters>
            <DistanceMeters>46435.989096457</DistanceMeters>
          </Trackpoint>
          <Trackpoint>
            <Time>2021-01-13T16:27:02.000Z</Time>
            <Position>
              <LatitudeDegrees>43.38252897374331951141357421875</LatitudeDegrees>
              <LongitudeDegrees>-3.87962599284946918487548828125</LongitudeDegrees>
            </Position>
            <AltitudeMeters>32</AltitudeMeters>
            <DistanceMeters>46465.714388382</DistanceMeters>
          </Trackpoint>
          <Trackpoint>
            <Time>2021-01-13T16:27:06.000Z</Time>
            <Position>
              <LatitudeDegrees>43.3823237009346485137939453125</LatitudeDegrees>
              <LongitudeDegrees>-3.8798430003225803375244140625</LongitudeDegrees>
            </Position>
            <AltitudeMeters>31.6000003814697265625</AltitudeMeters>
            <DistanceMeters>46494.526763981</DistanceMeters>
          </Trackpoint>
          <Trackpoint>
            <Time>2021-01-13T16:27:09.000Z</Time>
            <Position>
              <LatitudeDegrees>43.38216838426887989044189453125</LatitudeDegrees>
              <LongitudeDegrees>-3.8799821399152278900146484375</LongitudeDegrees>
            </Position>
            <AltitudeMeters>31.200000762939453125</AltitudeMeters>
            <DistanceMeters>46515.155004145</DistanceMeters>
          </Trackpoint>
          <Trackpoint>
            <Time>2021-01-13T16:27:14.000Z</Time>
            <Position>
              <LatitudeDegrees>43.3819015882909297943115234375</LatitudeDegrees>
              <LongitudeDegrees>-3.8801682181656360626220703125</LongitudeDegrees>
            </Position>
            <AltitudeMeters>30.799999237060546875</AltitudeMeters>
            <DistanceMeters>46548.44691882</DistanceMeters>
          </Trackpoint>
          <Trackpoint>
            <Time>2021-01-13T16:27:22.000Z</Time>
            <Position>
              <LatitudeDegrees>43.38147587142884731292724609375</LatitudeDegrees>
              <LongitudeDegrees>-3.88041255064308643341064453125</LongitudeDegrees>
            </Position>
            <AltitudeMeters>30.799999237060546875</AltitudeMeters>
            <DistanceMeters>46599.787206446</DistanceMeters>
          </Trackpoint>
          <Trackpoint>
            <Time>2021-01-13T16:27:25.000Z</Time>
            <Position>
              <LatitudeDegrees>43.38131829164922237396240234375</LatitudeDegrees>
              <LongitudeDegrees>-3.88049955479800701141357421875</LongitudeDegrees>
            </Position>
            <AltitudeMeters>31</AltitudeMeters>
            <DistanceMeters>46618.685819716</DistanceMeters>
          </Trackpoint>
          <Trackpoint>
            <Time>2021-01-13T16:27:30.000Z</Time>
            <Position>
              <LatitudeDegrees>43.38105551898479461669921875</LatitudeDegrees>
              <LongitudeDegrees>-3.88063668273389339447021484375</LongitudeDegrees>
            </Position>
            <AltitudeMeters>31.6000003814697265625</AltitudeMeters>
            <DistanceMeters>46649.966068006</DistanceMeters>
          </Trackpoint>
          <Trackpoint>
            <Time>2021-01-13T16:27:33.000Z</Time>
            <Position>
              <LatitudeDegrees>43.38090305216610431671142578125</LatitudeDegrees>
              <LongitudeDegrees>-3.88071597553789615631103515625</LongitudeDegrees>
            </Position>
            <AltitudeMeters>32.200000762939453125</AltitudeMeters>
            <DistanceMeters>46668.107959479</DistanceMeters>
          </Trackpoint>
          <Trackpoint>
            <Time>2021-01-13T16:27:35.000Z</Time>
            <Position>
              <LatitudeDegrees>43.38080070912837982177734375</LatitudeDegrees>
              <LongitudeDegrees>-3.8807693682610988616943359375</LongitudeDegrees>
            </Position>
            <AltitudeMeters>32.59999847412109375</AltitudeMeters>
            <DistanceMeters>46680.290665928</DistanceMeters>
          </Trackpoint>
          <Trackpoint>
            <Time>2021-01-13T16:27:39.000Z</Time>
            <Position>
              <LatitudeDegrees>43.380597531795501708984375</LatitudeDegrees>
              <LongitudeDegrees>-3.88087305240333080291748046875</LongitudeDegrees>
            </Position>
            <AltitudeMeters>33.40000152587890625</AltitudeMeters>
            <DistanceMeters>46704.410235676</DistanceMeters>
          </Trackpoint>
          <Trackpoint>
            <Time>2021-01-13T16:27:44.000Z</Time>
            <Position>
              <LatitudeDegrees>43.38034414686262607574462890625</LatitudeDegrees>
              <LongitudeDegrees>-3.8810062408447265625</LongitudeDegrees>
            </Position>
            <AltitudeMeters>34</AltitudeMeters>
            <DistanceMeters>46734.600628121</DistanceMeters>
          </Trackpoint>
          <Trackpoint>
            <Time>2021-01-13T16:27:46.000Z</Time>
            <Position>
              <LatitudeDegrees>43.3802423067390918731689453125</LatitudeDegrees>
              <LongitudeDegrees>-3.881057538092136383056640625</LongitudeDegrees>
            </Position>
            <AltitudeMeters>34.40000152587890625</AltitudeMeters>
            <DistanceMeters>46746.671639408</DistanceMeters>
          </Trackpoint>
          <Trackpoint>
            <Time>2021-01-13T16:27:47.000Z</Time>
            <Position>
              <LatitudeDegrees>43.38019109331071376800537109375</LatitudeDegrees>
              <LongitudeDegrees>-3.88108243234455585479736328125</LongitudeDegrees>
            </Position>
            <AltitudeMeters>34.59999847412109375</AltitudeMeters>
            <DistanceMeters>46752.716862263</DistanceMeters>
          </Trackpoint>
          <Trackpoint>
            <Time>2021-01-13T16:27:56.000Z</Time>
            <Position>
              <LatitudeDegrees>43.379707038402557373046875</LatitudeDegrees>
              <LongitudeDegrees>-3.8813589513301849365234375</LongitudeDegrees>
            </Position>
            <AltitudeMeters>35.200000762939453125</AltitudeMeters>
            <DistanceMeters>46811.052430216</DistanceMeters>
          </Trackpoint>
          <Trackpoint>
            <Time>2021-01-13T16:28:04.000Z</Time>
            <Position>
              <LatitudeDegrees>43.37929842062294483184814453125</LatitudeDegrees>
              <LongitudeDegrees>-3.881706632673740386962890625</LongitudeDegrees>
            </Position>
            <AltitudeMeters>35.40000152587890625</AltitudeMeters>
            <DistanceMeters>46864.526808727</DistanceMeters>
          </Trackpoint>
          <Trackpoint>
            <Time>2021-01-13T16:28:05.000Z</Time>
            <Position>
              <LatitudeDegrees>43.3792569302022457122802734375</LatitudeDegrees>
              <LongitudeDegrees>-3.88175516389310359954833984375</LongitudeDegrees>
            </Position>
            <AltitudeMeters>35.40000152587890625</AltitudeMeters>
            <DistanceMeters>46870.588440607</DistanceMeters>
          </Trackpoint>
          <Trackpoint>
            <Time>2021-01-13T16:28:08.000Z</Time>
            <Position>
              <LatitudeDegrees>43.3791456185281276702880859375</LatitudeDegrees>
              <LongitudeDegrees>-3.88191408477723598480224609375</LongitudeDegrees>
            </Position>
            <AltitudeMeters>35</AltitudeMeters>
            <DistanceMeters>46888.442845068</DistanceMeters>
          </Trackpoint>
          <Trackpoint>
            <Time>2021-01-13T16:28:10.000Z</Time>
            <Position>
              <LatitudeDegrees>43.37907747365534305572509765625</LatitudeDegrees>
              <LongitudeDegrees>-3.882022798061370849609375</LongitudeDegrees>
            </Position>
            <AltitudeMeters>34.799999237060546875</AltitudeMeters>
            <DistanceMeters>46900.056338158</DistanceMeters>
          </Trackpoint>
          <Trackpoint>
            <Time>2021-01-13T16:28:15.000Z</Time>
            <Position>
              <LatitudeDegrees>43.37892592884600162506103515625</LatitudeDegrees>
              <LongitudeDegrees>-3.88229428790509700775146484375</LongitudeDegrees>
            </Position>
            <AltitudeMeters>34.200000762939453125</AltitudeMeters>
            <DistanceMeters>46927.748759719</DistanceMeters>
          </Trackpoint>
          <Trackpoint>
            <Time>2021-01-13T16:28:18.000Z</Time>
            <Position>
              <LatitudeDegrees>43.37884579785168170928955078125</LatitudeDegrees>
              <LongitudeDegrees>-3.8824708946049213409423828125</LongitudeDegrees>
            </Position>
            <AltitudeMeters>34</AltitudeMeters>
            <DistanceMeters>46944.591289856</DistanceMeters>
          </Trackpoint>
          <Trackpoint>
            <Time>2021-01-13T16:28:25.000Z</Time>
            <Position>
              <LatitudeDegrees>43.3786849491298198699951171875</LatitudeDegrees>
              <LongitudeDegrees>-3.882976658642292022705078125</LongitudeDegrees>
            </Position>
            <AltitudeMeters>33.59999847412109375</AltitudeMeters>
            <DistanceMeters>46989.251621525</DistanceMeters>
          </Trackpoint>
          <Trackpoint>
            <Time>2021-01-13T16:28:27.000Z</Time>
            <Position>
              <LatitudeDegrees>43.3786534331738948822021484375</LatitudeDegrees>
              <LongitudeDegrees>-3.88313180766999721527099609375</LongitudeDegrees>
            </Position>
            <AltitudeMeters>33.59999847412109375</AltitudeMeters>
            <DistanceMeters>47002.283800075</DistanceMeters>
          </Trackpoint>
          <Trackpoint>
            <Time>2021-01-13T16:28:31.000Z</Time>
            <Position>
              <LatitudeDegrees>43.3786101825535297393798828125</LatitudeDegrees>
              <LongitudeDegrees>-3.88345367275178432464599609375</LongitudeDegrees>
            </Position>
            <AltitudeMeters>33.40000152587890625</AltitudeMeters>
            <DistanceMeters>47028.763194813</DistanceMeters>
          </Trackpoint>
          <Trackpoint>
            <Time>2021-01-13T16:28:33.000Z</Time>
            <Position>
              <LatitudeDegrees>43.37858981452882289886474609375</LatitudeDegrees>
              <LongitudeDegrees>-3.88361711986362934112548828125</LongitudeDegrees>
            </Position>
            <AltitudeMeters>33.40000152587890625</AltitudeMeters>
            <DistanceMeters>47042.178799667</DistanceMeters>
          </Trackpoint>
          <Trackpoint>
            <Time>2021-01-13T16:28:42.000Z</Time>
            <Position>
              <LatitudeDegrees>43.378507755696773529052734375</LatitudeDegrees>
              <LongitudeDegrees>-3.88436411507427692413330078125</LongitudeDegrees>
            </Position>
            <AltitudeMeters>33</AltitudeMeters>
            <DistanceMeters>47103.295384491</DistanceMeters>
          </Trackpoint>
          <Trackpoint>
            <Time>2021-01-13T16:28:43.000Z</Time>
            <Position>
              <LatitudeDegrees>43.3784975297749042510986328125</LatitudeDegrees>
              <LongitudeDegrees>-3.88444810174405574798583984375</LongitudeDegrees>
            </Position>
            <AltitudeMeters>32.799999237060546875</AltitudeMeters>
            <DistanceMeters>47110.184002039</DistanceMeters>
          </Trackpoint>
          <Trackpoint>
            <Time>2021-01-13T16:28:49.000Z</Time>
            <Position>
              <LatitudeDegrees>43.37842133827507495880126953125</LatitudeDegrees>
              <LongitudeDegrees>-3.88492285273969173431396484375</LongitudeDegrees>
            </Position>
            <AltitudeMeters>32.40000152587890625</AltitudeMeters>
            <DistanceMeters>47149.515420215</DistanceMeters>
          </Trackpoint>
          <Trackpoint>
            <Time>2021-01-13T16:28:50.000Z</Time>
            <Position>
              <LatitudeDegrees>43.3784070052206516265869140625</LatitudeDegrees>
              <LongitudeDegrees>-3.884997703135013580322265625</LongitudeDegrees>
            </Position>
            <AltitudeMeters>32.40000152587890625</AltitudeMeters>
            <DistanceMeters>47155.777096661</DistanceMeters>
          </Trackpoint>
          <Trackpoint>
            <Time>2021-01-13T16:28:51.000Z</Time>
            <Position>
              <LatitudeDegrees>43.37839200161397457122802734375</LatitudeDegrees>
              <LongitudeDegrees>-3.88507205061614513397216796875</LongitudeDegrees>
            </Position>
            <AltitudeMeters>32.40000152587890625</AltitudeMeters>
            <DistanceMeters>47162.019997424</DistanceMeters>
          </Trackpoint>
          <Trackpoint>
            <Time>2021-01-13T16:28:57.000Z</Time>
            <Position>
              <LatitudeDegrees>43.37829024530947208404541015625</LatitudeDegrees>
              <LongitudeDegrees>-3.8855004496872425079345703125</LongitudeDegrees>
            </Position>
            <AltitudeMeters>31.799999237060546875</AltitudeMeters>
            <DistanceMeters>47198.480300133</DistanceMeters>
          </Trackpoint>
          <Trackpoint>
            <Time>2021-01-13T16:29:01.000Z</Time>
            <Position>
              <LatitudeDegrees>43.37821246124804019927978515625</LatitudeDegrees>
              <LongitudeDegrees>-3.8857669942080974578857421875</LongitudeDegrees>
            </Position>
            <AltitudeMeters>31.3999996185302734375</AltitudeMeters>
            <DistanceMeters>47221.716420736</DistanceMeters>
          </Trackpoint>
          <Trackpoint>
            <Time>2021-01-13T16:29:04.000Z</Time>
            <Position>
              <LatitudeDegrees>43.37815127335488796234130859375</LatitudeDegrees>
              <LongitudeDegrees>-3.88595852069556713104248046875</LongitudeDegrees>
            </Position>
            <AltitudeMeters>31</AltitudeMeters>
            <DistanceMeters>47238.641316155</DistanceMeters>
          </Trackpoint>
          <Trackpoint>
            <Time>2021-01-13T16:29:08.000Z</Time>
            <Position>
              <LatitudeDegrees>43.37806485593318939208984375</LatitudeDegrees>
              <LongitudeDegrees>-3.88620578683912754058837890625</LongitudeDegrees>
            </Position>
            <AltitudeMeters>31</AltitudeMeters>
            <DistanceMeters>47260.837327297</DistanceMeters>
          </Trackpoint>
          <Trackpoint>
            <Time>2021-01-13T16:29:12.000Z</Time>
            <Position>
              <LatitudeDegrees>43.37797701358795166015625</LatitudeDegrees>
              <LongitudeDegrees>-3.88645422644913196563720703125</LongitudeDegrees>
            </Position>
            <AltitudeMeters>30.3999996185302734375</AltitudeMeters>
            <DistanceMeters>47283.187804448</DistanceMeters>
          </Trackpoint>
          <Trackpoint>
            <Time>2021-01-13T16:29:14.000Z</Time>
            <Position>
              <LatitudeDegrees>43.377931751310825347900390625</LatitudeDegrees>
              <LongitudeDegrees>-3.8865812122821807861328125</LongitudeDegrees>
            </Position>
            <AltitudeMeters>30.3999996185302734375</AltitudeMeters>
            <DistanceMeters>47294.629746953</DistanceMeters>
          </Trackpoint>
          <Trackpoint>
            <Time>2021-01-13T16:29:17.000Z</Time>
            <Position>
              <LatitudeDegrees>43.377861343324184417724609375</LatitudeDegrees>
              <LongitudeDegrees>-3.886772654950618743896484375</LongitudeDegrees>
            </Position>
            <AltitudeMeters>30.200000762939453125</AltitudeMeters>
            <DistanceMeters>47311.987410982</DistanceMeters>
          </Trackpoint>
          <Trackpoint>
            <Time>2021-01-13T16:29:20.000Z</Time>
            <Position>
              <LatitudeDegrees>43.37779319845139980316162109375</LatitudeDegrees>
              <LongitudeDegrees>-3.8869692943990230560302734375</LongitudeDegrees>
            </Position>
            <AltitudeMeters>29.799999237060546875</AltitudeMeters>
            <DistanceMeters>47329.611216172</DistanceMeters>
          </Trackpoint>
          <Trackpoint>
            <Time>2021-01-13T16:29:23.000Z</Time>
            <Position>
              <LatitudeDegrees>43.37772153317928314208984375</LatitudeDegrees>
              <LongitudeDegrees>-3.8871697895228862762451171875</LongitudeDegrees>
            </Position>
            <AltitudeMeters>29.200000762939453125</AltitudeMeters>
            <DistanceMeters>47347.686286455</DistanceMeters>
          </Trackpoint>
          <Trackpoint>
            <Time>2021-01-13T16:29:25.000Z</Time>
            <Position>
              <LatitudeDegrees>43.377673923969268798828125</LatitudeDegrees>
              <LongitudeDegrees>-3.887302391231060028076171875</LongitudeDegrees>
            </Position>
            <AltitudeMeters>29</AltitudeMeters>
            <DistanceMeters>47359.651353607</DistanceMeters>
          </Trackpoint>
          <Trackpoint>
            <Time>2021-01-13T16:29:26.000Z</Time>
            <Position>
              <LatitudeDegrees>43.37765045464038848876953125</LatitudeDegrees>
              <LongitudeDegrees>-3.887369446456432342529296875</LongitudeDegrees>
            </Position>
            <AltitudeMeters>28.799999237060546875</AltitudeMeters>
            <DistanceMeters>47365.672628964</DistanceMeters>
          </Trackpoint>
          <Trackpoint>
            <Time>2021-01-13T16:29:28.000Z</Time>
            <Position>
              <LatitudeDegrees>43.37760259397327899932861328125</LatitudeDegrees>
              <LongitudeDegrees>-3.88750347308814525604248046875</LongitudeDegrees>
            </Position>
            <AltitudeMeters>28.3999996185302734375</AltitudeMeters>
            <DistanceMeters>47377.752987626</DistanceMeters>
          </Trackpoint>
          <Trackpoint>
            <Time>2021-01-13T16:29:29.000Z</Time>
            <Position>
              <LatitudeDegrees>43.3775785379111766815185546875</LatitudeDegrees>
              <LongitudeDegrees>-3.88757161796092987060546875</LongitudeDegrees>
            </Position>
            <AltitudeMeters>28.3999996185302734375</AltitudeMeters>
            <DistanceMeters>47383.88202654</DistanceMeters>
          </Trackpoint>
          <Trackpoint>
            <Time>2021-01-13T16:29:31.000Z</Time>
            <Position>
              <LatitudeDegrees>43.377530761063098907470703125</LatitudeDegrees>
              <LongitudeDegrees>-3.887710757553577423095703125</LongitudeDegrees>
            </Position>
            <AltitudeMeters>28.200000762939453125</AltitudeMeters>
            <DistanceMeters>47396.330888815</DistanceMeters>
          </Trackpoint>
          <Trackpoint>
            <Time>2021-01-13T16:29:33.000Z</Time>
            <Position>
              <LatitudeDegrees>43.37748105637729167938232421875</LatitudeDegrees>
              <LongitudeDegrees>-3.8878530822694301605224609375</LongitudeDegrees>
            </Position>
            <AltitudeMeters>27.6000003814697265625</AltitudeMeters>
            <DistanceMeters>47409.104826396</DistanceMeters>
          </Trackpoint>
          <Trackpoint>
            <Time>2021-01-13T16:29:35.000Z</Time>
            <Position>
              <LatitudeDegrees>43.377430178225040435791015625</LatitudeDegrees>
              <LongitudeDegrees>-3.88799733482301235198974609375</LongitudeDegrees>
            </Position>
            <AltitudeMeters>27.3999996185302734375</AltitudeMeters>
            <DistanceMeters>47422.075885887</DistanceMeters>
          </Trackpoint>
          <Trackpoint>
            <Time>2021-01-13T16:29:38.000Z</Time>
            <Position>
              <LatitudeDegrees>43.3773488737642765045166015625</LatitudeDegrees>
              <LongitudeDegrees>-3.8882195390760898590087890625</LongitudeDegrees>
            </Position>
            <AltitudeMeters>27.200000762939453125</AltitudeMeters>
            <DistanceMeters>47442.20136846</DistanceMeters>
          </Trackpoint>
          <Trackpoint>
            <Time>2021-01-13T16:29:39.000Z</Time>
            <Position>
              <LatitudeDegrees>43.37732096202671527862548828125</LatitudeDegrees>
              <LongitudeDegrees>-3.8882953114807605743408203125</LongitudeDegrees>
            </Position>
            <AltitudeMeters>27</AltitudeMeters>
            <DistanceMeters>47449.072923577</DistanceMeters>
          </Trackpoint>
          <Trackpoint>
            <Time>2021-01-13T16:29:44.000Z</Time>
            <Position>
              <LatitudeDegrees>43.37718106806278228759765625</LatitudeDegrees>
              <LongitudeDegrees>-3.8886802084743976593017578125</LongitudeDegrees>
            </Position>
            <AltitudeMeters>26</AltitudeMeters>
            <DistanceMeters>47483.886956097</DistanceMeters>
          </Trackpoint>
          <Trackpoint>
            <Time>2021-01-13T16:29:49.000Z</Time>
            <Position>
              <LatitudeDegrees>43.37704561650753021240234375</LatitudeDegrees>
              <LongitudeDegrees>-3.889051862061023712158203125</LongitudeDegrees>
            </Position>
            <AltitudeMeters>25.200000762939453125</AltitudeMeters>
            <DistanceMeters>47517.52158077</DistanceMeters>
          </Trackpoint>
          <Trackpoint>
            <Time>2021-01-13T16:29:50.000Z</Time>
            <Position>
              <LatitudeDegrees>43.377019129693508148193359375</LatitudeDegrees>
              <LongitudeDegrees>-3.88912134803831577301025390625</LongitudeDegrees>
            </Position>
            <AltitudeMeters>25</AltitudeMeters>
            <DistanceMeters>47523.869194581</DistanceMeters>
          </Trackpoint>
          <Trackpoint>
            <Time>2021-01-13T16:29:52.000Z</Time>
            <Position>
              <LatitudeDegrees>43.37696850299835205078125</LatitudeDegrees>
              <LongitudeDegrees>-3.88926115818321704864501953125</LongitudeDegrees>
            </Position>
            <AltitudeMeters>24.3999996185302734375</AltitudeMeters>
            <DistanceMeters>47536.505603951</DistanceMeters>
          </Trackpoint>
          <Trackpoint>
            <Time>2021-01-13T16:29:55.000Z</Time>
            <Position>
              <LatitudeDegrees>43.37689298205077648162841796875</LatitudeDegrees>
              <LongitudeDegrees>-3.88947020284831523895263671875</LongitudeDegrees>
            </Position>
            <AltitudeMeters>24</AltitudeMeters>
            <DistanceMeters>47555.390833609</DistanceMeters>
          </Trackpoint>
          <Trackpoint>
            <Time>2021-01-13T16:29:56.000Z</Time>
            <Position>
              <LatitudeDegrees>43.3768687583506107330322265625</LatitudeDegrees>
              <LongitudeDegrees>-3.8895395211875438690185546875</LongitudeDegrees>
            </Position>
            <AltitudeMeters>23.799999237060546875</AltitudeMeters>
            <DistanceMeters>47561.613451048</DistanceMeters>
          </Trackpoint>
          <Trackpoint>
            <Time>2021-01-13T16:30:00.000Z</Time>
            <Position>
              <LatitudeDegrees>43.37676809169352054595947265625</LatitudeDegrees>
              <LongitudeDegrees>-3.88981260359287261962890625</LongitudeDegrees>
            </Position>
            <AltitudeMeters>23.3999996185302734375</AltitudeMeters>
            <DistanceMeters>47586.385003576</DistanceMeters>
          </Trackpoint>
          <Trackpoint>
            <Time>2021-01-13T16:30:08.000Z</Time>
            <Position>
              <LatitudeDegrees>43.37656692601740360260009765625</LatitudeDegrees>
              <LongitudeDegrees>-3.89036270789802074432373046875</LongitudeDegrees>
            </Position>
            <AltitudeMeters>23.3999996185302734375</AltitudeMeters>
            <DistanceMeters>47636.203477964</DistanceMeters>
          </Trackpoint>
          <Trackpoint>
            <Time>2021-01-13T16:30:09.000Z</Time>
            <Position>
              <LatitudeDegrees>43.37654211558401584625244140625</LatitudeDegrees>
              <LongitudeDegrees>-3.8904316909611225128173828125</LongitudeDegrees>
            </Position>
            <AltitudeMeters>23.200000762939453125</AltitudeMeters>
            <DistanceMeters>47642.430447392</DistanceMeters>
          </Trackpoint>
          <Trackpoint>
            <Time>2021-01-13T16:30:12.000Z</Time>
            <Position>
              <LatitudeDegrees>43.37646567262709140777587890625</LatitudeDegrees>
              <LongitudeDegrees>-3.89064165763556957244873046875</LongitudeDegrees>
            </Position>
            <AltitudeMeters>23.200000762939453125</AltitudeMeters>
            <DistanceMeters>47661.428661925</DistanceMeters>
          </Trackpoint>
          <Trackpoint>
            <Time>2021-01-13T16:30:18.000Z</Time>
            <Position>
              <LatitudeDegrees>43.3763100206851959228515625</LatitudeDegrees>
              <LongitudeDegrees>-3.89107181690633296966552734375</LongitudeDegrees>
            </Position>
            <AltitudeMeters>23.3999996185302734375</AltitudeMeters>
            <DistanceMeters>47700.302719123</DistanceMeters>
          </Trackpoint>
          <Trackpoint>
            <Time>2021-01-13T16:30:26.000Z</Time>
            <Position>
              <LatitudeDegrees>43.37611111812293529510498046875</LatitudeDegrees>
              <LongitudeDegrees>-3.891630806028842926025390625</LongitudeDegrees>
            </Position>
            <AltitudeMeters>23.3999996185302734375</AltitudeMeters>
            <DistanceMeters>47750.653428767</DistanceMeters>
          </Trackpoint>
          <Trackpoint>
            <Time>2021-01-13T16:30:28.000Z</Time>
            <Position>
              <LatitudeDegrees>43.3760624192655086517333984375</LatitudeDegrees>
              <LongitudeDegrees>-3.89176919125020503997802734375</LongitudeDegrees>
            </Position>
            <AltitudeMeters>23.3999996185302734375</AltitudeMeters>
            <DistanceMeters>47763.092131665</DistanceMeters>
          </Trackpoint>
          <Trackpoint>
            <Time>2021-01-13T16:30:31.000Z</Time>
            <Position>
              <LatitudeDegrees>43.37598086334764957427978515625</LatitudeDegrees>
              <LongitudeDegrees>-3.8919885456562042236328125</LongitudeDegrees>
            </Position>
            <AltitudeMeters>23.200000762939453125</AltitudeMeters>
            <DistanceMeters>47783.025103434</DistanceMeters>
          </Trackpoint>
          <Trackpoint>
            <Time>2021-01-13T16:30:37.000Z</Time>
            <Position>
              <LatitudeDegrees>43.37581691332161426544189453125</LatitudeDegrees>
              <LongitudeDegrees>-3.89245013706386089324951171875</LongitudeDegrees>
            </Position>
            <AltitudeMeters>22.799999237060546875</AltitudeMeters>
            <DistanceMeters>47824.588619458</DistanceMeters>
          </Trackpoint>
          <Trackpoint>
            <Time>2021-01-13T16:30:38.000Z</Time>
            <Position>
              <LatitudeDegrees>43.37578891776502132415771484375</LatitudeDegrees>
              <LongitudeDegrees>-3.8925298489630222320556640625</LongitudeDegrees>
            </Position>
            <AltitudeMeters>22.6000003814697265625</AltitudeMeters>
            <DistanceMeters>47831.751011816</DistanceMeters>
          </Trackpoint>
          <Trackpoint>
            <Time>2021-01-13T16:30:42.000Z</Time>
            <Position>
              <LatitudeDegrees>43.37567727081477642059326171875</LatitudeDegrees>
              <LongitudeDegrees>-3.8928537257015705108642578125</LongitudeDegrees>
            </Position>
            <AltitudeMeters>22</AltitudeMeters>
            <DistanceMeters>47860.750512143</DistanceMeters>
          </Trackpoint>
          <Trackpoint>
            <Time>2021-01-13T16:30:44.000Z</Time>
            <Position>
              <LatitudeDegrees>43.3756205253303050994873046875</LatitudeDegrees>
              <LongitudeDegrees>-3.89301759190857410430908203125</LongitudeDegrees>
            </Position>
            <AltitudeMeters>21.799999237060546875</AltitudeMeters>
            <DistanceMeters>47875.435445086</DistanceMeters>
          </Trackpoint>
          <Trackpoint>
            <Time>2021-01-13T16:30:45.000Z</Time>
            <Position>
              <LatitudeDegrees>43.37559320032596588134765625</LatitudeDegrees>
              <LongitudeDegrees>-3.8930989801883697509765625</LongitudeDegrees>
            </Position>
            <AltitudeMeters>21.6000003814697265625</AltitudeMeters>
            <DistanceMeters>47882.688044295</DistanceMeters>
          </Trackpoint>
          <Trackpoint>
            <Time>2021-01-13T16:30:48.000Z</Time>
            <Position>
              <LatitudeDegrees>43.37551985867321491241455078125</LatitudeDegrees>
              <LongitudeDegrees>-3.8933350145816802978515625</LongitudeDegrees>
            </Position>
            <AltitudeMeters>21.3999996185302734375</AltitudeMeters>
            <DistanceMeters>47903.455240807</DistanceMeters>
          </Trackpoint>
          <Trackpoint>
            <Time>2021-01-13T16:30:52.000Z</Time>
            <Position>
              <LatitudeDegrees>43.37543620727956295013427734375</LatitudeDegrees>
              <LongitudeDegrees>-3.89362561516463756561279296875</LongitudeDegrees>
            </Position>
            <AltitudeMeters>20.3999996185302734375</AltitudeMeters>
            <DistanceMeters>47928.741812005</DistanceMeters>
          </Trackpoint>
          <Trackpoint>
            <Time>2021-01-13T16:30:54.000Z</Time>
            <Position>
              <LatitudeDegrees>43.3753989078104496002197265625</LatitudeDegrees>
              <LongitudeDegrees>-3.89376844279468059539794921875</LongitudeDegrees>
            </Position>
            <AltitudeMeters>20.200000762939453125</AltitudeMeters>
            <DistanceMeters>47941.019763632</DistanceMeters>
          </Trackpoint>
          <Trackpoint>
            <Time>2021-01-13T16:30:56.000Z</Time>
            <Position>
              <LatitudeDegrees>43.375361859798431396484375</LatitudeDegrees>
              <LongitudeDegrees>-3.89391177333891391754150390625</LongitudeDegrees>
            </Position>
            <AltitudeMeters>20</AltitudeMeters>
            <DistanceMeters>47953.326732072</DistanceMeters>
          </Trackpoint>
          <Trackpoint>
            <Time>2021-01-13T16:30:58.000Z</Time>
            <Position>
              <LatitudeDegrees>43.3753241412341594696044921875</LatitudeDegrees>
              <LongitudeDegrees>-3.89405074529349803924560546875</LongitudeDegrees>
            </Position>
            <AltitudeMeters>20</AltitudeMeters>
            <DistanceMeters>47965.327970312</DistanceMeters>
          </Trackpoint>
          <Trackpoint>
            <Time>2021-01-13T16:31:05.000Z</Time>
            <Position>
              <LatitudeDegrees>43.37519229389727115631103515625</LatitudeDegrees>
              <LongitudeDegrees>-3.89451694674789905548095703125</LongitudeDegrees>
            </Position>
            <AltitudeMeters>20.6000003814697265625</AltitudeMeters>
            <DistanceMeters>48005.799088232</DistanceMeters>
          </Trackpoint>
          <Trackpoint>
            <Time>2021-01-13T16:31:06.000Z</Time>
            <Position>
              <LatitudeDegrees>43.37517200969159603118896484375</LatitudeDegrees>
              <LongitudeDegrees>-3.89458433724939823150634765625</LongitudeDegrees>
            </Position>
            <AltitudeMeters>20.6000003814697265625</AltitudeMeters>
            <DistanceMeters>48011.699933491</DistanceMeters>
          </Trackpoint>
          <Trackpoint>
            <Time>2021-01-13T16:31:09.000Z</Time>
            <Position>
              <LatitudeDegrees>43.3751030266284942626953125</LatitudeDegrees>
              <LongitudeDegrees>-3.89478634111583232879638671875</LongitudeDegrees>
            </Position>
            <AltitudeMeters>21</AltitudeMeters>
            <DistanceMeters>48029.756259529</DistanceMeters>
          </Trackpoint>
          <Trackpoint>
            <Time>2021-01-13T16:31:12.000Z</Time>
            <Position>
              <LatitudeDegrees>43.37502934969961643218994140625</LatitudeDegrees>
              <LongitudeDegrees>-3.8950061984360218048095703125</LongitudeDegrees>
            </Position>
            <AltitudeMeters>21.799999237060546875</AltitudeMeters>
            <DistanceMeters>48049.342369594</DistanceMeters>
          </Trackpoint>
          <Trackpoint>
            <Time>2021-01-13T16:31:14.000Z</Time>
            <Position>
              <LatitudeDegrees>43.3749767951667308807373046875</LatitudeDegrees>
              <LongitudeDegrees>-3.89515799470245838165283203125</LongitudeDegrees>
            </Position>
            <AltitudeMeters>22.200000762939453125</AltitudeMeters>
            <DistanceMeters>48062.94546948</DistanceMeters>
          </Trackpoint>
          <Trackpoint>
            <Time>2021-01-13T16:31:22.000Z</Time>
            <Position>
              <LatitudeDegrees>43.37473891675472259521484375</LatitudeDegrees>
              <LongitudeDegrees>-3.89577155001461505889892578125</LongitudeDegrees>
            </Position>
            <AltitudeMeters>22.3999996185302734375</AltitudeMeters>
            <DistanceMeters>48119.203531595</DistanceMeters>
          </Trackpoint>
          <Trackpoint>
            <Time>2021-01-13T16:31:23.000Z</Time>
            <Position>
              <LatitudeDegrees>43.37470865808427333831787109375</LatitudeDegrees>
              <LongitudeDegrees>-3.89585033990442752838134765625</LongitudeDegrees>
            </Position>
            <AltitudeMeters>22.3999996185302734375</AltitudeMeters>
            <DistanceMeters>48126.411794899</DistanceMeters>
          </Trackpoint>
          <Trackpoint>
            <Time>2021-01-13T16:31:32.000Z</Time>
            <Position>
              <LatitudeDegrees>43.37444865144789218902587890625</LatitudeDegrees>
              <LongitudeDegrees>-3.8965306989848613739013671875</LongitudeDegrees>
            </Position>
            <AltitudeMeters>21.799999237060546875</AltitudeMeters>
            <DistanceMeters>48188.598920561</DistanceMeters>
          </Trackpoint>
          <Trackpoint>
            <Time>2021-01-13T16:31:34.000Z</Time>
            <Position>
              <LatitudeDegrees>43.3743934147059917449951171875</LatitudeDegrees>
              <LongitudeDegrees>-3.896678723394870758056640625</LongitudeDegrees>
            </Position>
            <AltitudeMeters>21.799999237060546875</AltitudeMeters>
            <DistanceMeters>48202.060218567</DistanceMeters>
          </Trackpoint>
          <Trackpoint>
            <Time>2021-01-13T16:31:42.000Z</Time>
            <Position>
              <LatitudeDegrees>43.37419400922954082489013671875</LatitudeDegrees>
              <LongitudeDegrees>-3.89723838306963443756103515625</LongitudeDegrees>
            </Position>
            <AltitudeMeters>21.200000762939453125</AltitudeMeters>
            <DistanceMeters>48252.485479947</DistanceMeters>
          </Trackpoint>
          <Trackpoint>
            <Time>2021-01-13T16:31:45.000Z</Time>
            <Position>
              <LatitudeDegrees>43.37412192486226558685302734375</LatitudeDegrees>
              <LongitudeDegrees>-3.89744457788765430450439453125</LongitudeDegrees>
            </Position>
            <AltitudeMeters>21</AltitudeMeters>
            <DistanceMeters>48270.99643024</DistanceMeters>
          </Trackpoint>
          <Trackpoint>
            <Time>2021-01-13T16:31:49.000Z</Time>
            <Position>
              <LatitudeDegrees>43.3740242756903171539306640625</LatitudeDegrees>
              <LongitudeDegrees>-3.89771145768463611602783203125</LongitudeDegrees>
            </Position>
            <AltitudeMeters>21</AltitudeMeters>
            <DistanceMeters>48295.169104617</DistanceMeters>
          </Trackpoint>
          <Trackpoint>
            <Time>2021-01-13T16:31:53.000Z</Time>
            <Position>
              <LatitudeDegrees>43.37392226792871952056884765625</LatitudeDegrees>
              <LongitudeDegrees>-3.89799929223954677581787109375</LongitudeDegrees>
            </Position>
            <AltitudeMeters>21.3999996185302734375</AltitudeMeters>
            <DistanceMeters>48321.07639166</DistanceMeters>
          </Trackpoint>
          <Trackpoint>
            <Time>2021-01-13T16:31:57.000Z</Time>
            <Position>
              <LatitudeDegrees>43.373820595443248748779296875</LatitudeDegrees>
              <LongitudeDegrees>-3.89828645624220371246337890625</LongitudeDegrees>
            </Position>
            <AltitudeMeters>22.3999996185302734375</AltitudeMeters>
            <DistanceMeters>48346.918766425</DistanceMeters>
          </Trackpoint>
          <Trackpoint>
            <Time>2021-01-13T16:31:58.000Z</Time>
            <Position>
              <LatitudeDegrees>43.3737956173717975616455078125</LatitudeDegrees>
              <LongitudeDegrees>-3.89835736714303493499755859375</LongitudeDegrees>
            </Position>
            <AltitudeMeters>22.799999237060546875</AltitudeMeters>
            <DistanceMeters>48353.294768632</DistanceMeters>
          </Trackpoint>
          <Trackpoint>
            <Time>2021-01-13T16:32:02.000Z</Time>
            <Position>
              <LatitudeDegrees>43.37369478307664394378662109375</LatitudeDegrees>
              <LongitudeDegrees>-3.8986442796885967254638671875</LongitudeDegrees>
            </Position>
            <AltitudeMeters>23.799999237060546875</AltitudeMeters>
            <DistanceMeters>48379.077847145</DistanceMeters>
          </Trackpoint>
          <Trackpoint>
            <Time>2021-01-13T16:32:03.000Z</Time>
            <Position>
              <LatitudeDegrees>43.373669050633907318115234375</LatitudeDegrees>
              <LongitudeDegrees>-3.8987182080745697021484375</LongitudeDegrees>
            </Position>
            <AltitudeMeters>24.200000762939453125</AltitudeMeters>
            <DistanceMeters>48385.70932302</DistanceMeters>
          </Trackpoint>
          <Trackpoint>
            <Time>2021-01-13T16:32:12.000Z</Time>
            <Position>
              <LatitudeDegrees>43.37343745864927768707275390625</LatitudeDegrees>
              <LongitudeDegrees>-3.899382390081882476806640625</LongitudeDegrees>
            </Position>
            <AltitudeMeters>24.6000003814697265625</AltitudeMeters>
            <DistanceMeters>48445.307287404</DistanceMeters>
          </Trackpoint>
          <Trackpoint>
            <Time>2021-01-13T16:32:13.000Z</Time>
            <Position>
              <LatitudeDegrees>43.37341164238750934600830078125</LatitudeDegrees>
              <LongitudeDegrees>-3.899457156658172607421875</LongitudeDegrees>
            </Position>
            <AltitudeMeters>24.6000003814697265625</AltitudeMeters>
            <DistanceMeters>48452.003805874</DistanceMeters>
          </Trackpoint>
          <Trackpoint>
            <Time>2021-01-13T16:32:22.000Z</Time>
            <Position>
              <LatitudeDegrees>43.37317644618451595306396484375</LatitudeDegrees>
              <LongitudeDegrees>-3.9001285471022129058837890625</LongitudeDegrees>
            </Position>
            <AltitudeMeters>24.200000762939453125</AltitudeMeters>
            <DistanceMeters>48512.301382432</DistanceMeters>
          </Trackpoint>
          <Trackpoint>
            <Time>2021-01-13T16:32:25.000Z</Time>
            <Position>
              <LatitudeDegrees>43.3730989135801792144775390625</LatitudeDegrees>
              <LongitudeDegrees>-3.90034588985145092010498046875</LongitudeDegrees>
            </Position>
            <AltitudeMeters>24.200000762939453125</AltitudeMeters>
            <DistanceMeters>48531.888875584</DistanceMeters>
          </Trackpoint>
          <Trackpoint>
            <Time>2021-01-13T16:32:33.000Z</Time>
            <Position>
              <LatitudeDegrees>43.37286673486232757568359375</LatitudeDegrees>
              <LongitudeDegrees>-3.90086741186678409576416015625</LongitudeDegrees>
            </Position>
            <AltitudeMeters>24.200000762939453125</AltitudeMeters>
            <DistanceMeters>48581.367507281</DistanceMeters>
          </Trackpoint>
          <Trackpoint>
            <Time>2021-01-13T16:32:39.000Z</Time>
            <Position>
              <LatitudeDegrees>43.37264218367636203765869140625</LatitudeDegrees>
              <LongitudeDegrees>-3.9011417515575885772705078125</LongitudeDegrees>
            </Position>
            <AltitudeMeters>24.200000762939453125</AltitudeMeters>
            <DistanceMeters>48614.793550847</DistanceMeters>
          </Trackpoint>
          <Trackpoint>
            <Time>2021-01-13T16:32:45.000Z</Time>
            <Position>
              <LatitudeDegrees>43.37238938547670841217041015625</LatitudeDegrees>
              <LongitudeDegrees>-3.901316262781620025634765625</LongitudeDegrees>
            </Position>
            <AltitudeMeters>25</AltitudeMeters>
            <DistanceMeters>48646.274224753</DistanceMeters>
          </Trackpoint>
          <Trackpoint>
            <Time>2021-01-13T16:32:49.000Z</Time>
            <Position>
              <LatitudeDegrees>43.37222124449908733367919921875</LatitudeDegrees>
              <LongitudeDegrees>-3.90139438211917877197265625</LongitudeDegrees>
            </Position>
            <AltitudeMeters>26.200000762939453125</AltitudeMeters>
            <DistanceMeters>48666.026985142</DistanceMeters>
          </Trackpoint>
          <Trackpoint>
            <Time>2021-01-13T16:32:52.000Z</Time>
            <Position>
              <LatitudeDegrees>43.372095264494419097900390625</LatitudeDegrees>
              <LongitudeDegrees>-3.901451043784618377685546875</LongitudeDegrees>
            </Position>
            <AltitudeMeters>27</AltitudeMeters>
            <DistanceMeters>48680.779098289</DistanceMeters>
          </Trackpoint>
          <Trackpoint>
            <Time>2021-01-13T16:32:54.000Z</Time>
            <Position>
              <LatitudeDegrees>43.37200867943465709686279296875</LatitudeDegrees>
              <LongitudeDegrees>-3.9014904387295246124267578125</LongitudeDegrees>
            </Position>
            <AltitudeMeters>27.200000762939453125</AltitudeMeters>
            <DistanceMeters>48690.929624001</DistanceMeters>
          </Trackpoint>
          <Trackpoint>
            <Time>2021-01-13T16:32:59.000Z</Time>
            <Position>
              <LatitudeDegrees>43.37179762311279773712158203125</LatitudeDegrees>
              <LongitudeDegrees>-3.90157551504671573638916015625</LongitudeDegrees>
            </Position>
            <AltitudeMeters>28.3999996185302734375</AltitudeMeters>
            <DistanceMeters>48715.408365443</DistanceMeters>
          </Trackpoint>
          <Trackpoint>
            <Time>2021-01-13T16:33:02.000Z</Time>
            <Position>
              <LatitudeDegrees>43.37167642079293727874755859375</LatitudeDegrees>
              <LongitudeDegrees>-3.9016262255609035491943359375</LongitudeDegrees>
            </Position>
            <AltitudeMeters>29.200000762939453125</AltitudeMeters>
            <DistanceMeters>48729.508549593</DistanceMeters>
          </Trackpoint>
          <Trackpoint>
            <Time>2021-01-13T16:33:03.000Z</Time>
            <Position>
              <LatitudeDegrees>43.3716344274580478668212890625</LatitudeDegrees>
              <LongitudeDegrees>-3.901642821729183197021484375</LongitudeDegrees>
            </Position>
            <AltitudeMeters>29.3999996185302734375</AltitudeMeters>
            <DistanceMeters>48734.372580872</DistanceMeters>
          </Trackpoint>
          <Trackpoint>
            <Time>2021-01-13T16:33:08.000Z</Time>
            <Position>
              <LatitudeDegrees>43.371430076658725738525390625</LatitudeDegrees>
              <LongitudeDegrees>-3.9017258025705814361572265625</LongitudeDegrees>
            </Position>
            <AltitudeMeters>30.6000003814697265625</AltitudeMeters>
            <DistanceMeters>48758.087220462</DistanceMeters>
          </Trackpoint>
          <Trackpoint>
            <Time>2021-01-13T16:33:11.000Z</Time>
            <Position>
              <LatitudeDegrees>43.3713152445852756500244140625</LatitudeDegrees>
              <LongitudeDegrees>-3.9017770998179912567138671875</LongitudeDegrees>
            </Position>
            <AltitudeMeters>31.200000762939453125</AltitudeMeters>
            <DistanceMeters>48771.525019338</DistanceMeters>
          </Trackpoint>
          <Trackpoint>
            <Time>2021-01-13T16:33:13.000Z</Time>
            <Position>
              <LatitudeDegrees>43.3712418191134929656982421875</LatitudeDegrees>
              <LongitudeDegrees>-3.9018116332590579986572265625</LongitudeDegrees>
            </Position>
            <AltitudeMeters>32</AltitudeMeters>
            <DistanceMeters>48780.161478765</DistanceMeters>
          </Trackpoint>
          <Trackpoint>
            <Time>2021-01-13T16:33:16.000Z</Time>
            <Position>
              <LatitudeDegrees>43.37113008834421634674072265625</LatitudeDegrees>
              <LongitudeDegrees>-3.90187290497124195098876953125</LongitudeDegrees>
            </Position>
            <AltitudeMeters>33</AltitudeMeters>
            <DistanceMeters>48793.548783467</DistanceMeters>
          </Trackpoint>
          <Trackpoint>
            <Time>2021-01-13T16:33:20.000Z</Time>
            <Position>
              <LatitudeDegrees>43.37098248302936553955078125</LatitudeDegrees>
              <LongitudeDegrees>-3.9019772596657276153564453125</LongitudeDegrees>
            </Position>
            <AltitudeMeters>34</AltitudeMeters>
            <DistanceMeters>48812.020422226</DistanceMeters>
          </Trackpoint>
          <Trackpoint>
            <Time>2021-01-13T16:33:21.000Z</Time>
            <Position>
              <LatitudeDegrees>43.3709467761218547821044921875</LatitudeDegrees>
              <LongitudeDegrees>-3.90200634486973285675048828125</LongitudeDegrees>
            </Position>
            <AltitudeMeters>34.200000762939453125</AltitudeMeters>
            <DistanceMeters>48816.63875965</DistanceMeters>
          </Trackpoint>
          <Trackpoint>
            <Time>2021-01-13T16:33:24.000Z</Time>
            <Position>
              <LatitudeDegrees>43.37084426544606685638427734375</LatitudeDegrees>
              <LongitudeDegrees>-3.90210307203233242034912109375</LongitudeDegrees>
            </Position>
            <AltitudeMeters>34.799999237060546875</AltitudeMeters>
            <DistanceMeters>48830.474205449</DistanceMeters>
          </Trackpoint>
          <Trackpoint>
            <Time>2021-01-13T16:33:26.000Z</Time>
            <Position>
              <LatitudeDegrees>43.370780646800994873046875</LatitudeDegrees>
              <LongitudeDegrees>-3.90217959880828857421875</LongitudeDegrees>
            </Position>
            <AltitudeMeters>35.200000762939453125</AltitudeMeters>
            <DistanceMeters>48839.879930244</DistanceMeters>
          </Trackpoint>
          <Trackpoint>
            <Time>2021-01-13T16:33:29.000Z</Time>
            <Position>
              <LatitudeDegrees>43.37068970315158367156982421875</LatitudeDegrees>
              <LongitudeDegrees>-3.90229837037622928619384765625</LongitudeDegrees>
            </Position>
            <AltitudeMeters>36</AltitudeMeters>
            <DistanceMeters>48853.837216482</DistanceMeters>
          </Trackpoint>
          <Trackpoint>
            <Time>2021-01-13T16:33:31.000Z</Time>
            <Position>
              <LatitudeDegrees>43.37062868289649486541748046875</LatitudeDegrees>
              <LongitudeDegrees>-3.90237799845635890960693359375</LongitudeDegrees>
            </Position>
            <AltitudeMeters>36.40000152587890625</AltitudeMeters>
            <DistanceMeters>48863.198191955</DistanceMeters>
          </Trackpoint>
          <Trackpoint>
            <Time>2021-01-13T16:33:36.000Z</Time>
            <Position>
              <LatitudeDegrees>43.370488621294498443603515625</LatitudeDegrees>
              <LongitudeDegrees>-3.90257145278155803680419921875</LongitudeDegrees>
            </Position>
            <AltitudeMeters>37.59999847412109375</AltitudeMeters>
            <DistanceMeters>48885.28919513</DistanceMeters>
          </Trackpoint>
          <Trackpoint>
            <Time>2021-01-13T16:33:39.000Z</Time>
            <Position>
              <LatitudeDegrees>43.37040807120501995086669921875</LatitudeDegrees>
              <LongitudeDegrees>-3.90268511138856410980224609375</LongitudeDegrees>
            </Position>
            <AltitudeMeters>38.40000152587890625</AltitudeMeters>
            <DistanceMeters>48898.132926537</DistanceMeters>
          </Trackpoint>
          <Trackpoint>
            <Time>2021-01-13T16:33:40.000Z</Time>
            <Position>
              <LatitudeDegrees>43.37038108147680759429931640625</LatitudeDegrees>
              <LongitudeDegrees>-3.90272350050508975982666015625</LongitudeDegrees>
            </Position>
            <AltitudeMeters>38.799999237060546875</AltitudeMeters>
            <DistanceMeters>48902.454291841</DistanceMeters>
          </Trackpoint>
          <Trackpoint>
            <Time>2021-01-13T16:33:44.000Z</Time>
            <Position>
              <LatitudeDegrees>43.3702688477933406829833984375</LatitudeDegrees>
              <LongitudeDegrees>-3.90287286601960659027099609375</LongitudeDegrees>
            </Position>
            <AltitudeMeters>40</AltitudeMeters>
            <DistanceMeters>48919.835090941</DistanceMeters>
          </Trackpoint>
          <Trackpoint>
            <Time>2021-01-13T16:33:49.000Z</Time>
            <Position>
              <LatitudeDegrees>43.37013582699000835418701171875</LatitudeDegrees>
              <LongitudeDegrees>-3.90304972417652606964111328125</LongitudeDegrees>
            </Position>
            <AltitudeMeters>40.799999237060546875</AltitudeMeters>
            <DistanceMeters>48940.425211362</DistanceMeters>
          </Trackpoint>
          <Trackpoint>
            <Time>2021-01-13T16:33:51.000Z</Time>
            <Position>
              <LatitudeDegrees>43.37008000351488590240478515625</LatitudeDegrees>
              <LongitudeDegrees>-3.90310856513679027557373046875</LongitudeDegrees>
            </Position>
            <AltitudeMeters>41.200000762939453125</AltitudeMeters>
            <DistanceMeters>48948.2520906</DistanceMeters>
          </Trackpoint>
          <Trackpoint>
            <Time>2021-01-13T16:33:56.000Z</Time>
            <Position>
              <LatitudeDegrees>43.3699362538754940032958984375</LatitudeDegrees>
              <LongitudeDegrees>-3.90326614491641521453857421875</LongitudeDegrees>
            </Position>
            <AltitudeMeters>42.40000152587890625</AltitudeMeters>
            <DistanceMeters>48968.710660277</DistanceMeters>
          </Trackpoint>
          <Trackpoint>
            <Time>2021-01-13T16:34:01.000Z</Time>
            <Position>
              <LatitudeDegrees>43.36978378705680370330810546875</LatitudeDegrees>
              <LongitudeDegrees>-3.90342858619987964630126953125</LongitudeDegrees>
            </Position>
            <AltitudeMeters>43.200000762939453125</AltitudeMeters>
            <DistanceMeters>48990.174921275</DistanceMeters>
          </Trackpoint>
          <Trackpoint>
            <Time>2021-01-13T16:34:02.000Z</Time>
            <Position>
              <LatitudeDegrees>43.3697508461773395538330078125</LatitudeDegrees>
              <LongitudeDegrees>-3.90346177853643894195556640625</LongitudeDegrees>
            </Position>
            <AltitudeMeters>43.40000152587890625</AltitudeMeters>
            <DistanceMeters>48994.718351119</DistanceMeters>
          </Trackpoint>
          <Trackpoint>
            <Time>2021-01-13T16:34:07.000Z</Time>
            <Position>
              <LatitudeDegrees>43.36958505213260650634765625</LatitudeDegrees>
              <LongitudeDegrees>-3.9036212861537933349609375</LongitudeDegrees>
            </Position>
            <AltitudeMeters>44.40000152587890625</AltitudeMeters>
            <DistanceMeters>49017.23667505</DistanceMeters>
          </Trackpoint>
          <Trackpoint>
            <Time>2021-01-13T16:34:11.000Z</Time>
            <Position>
              <LatitudeDegrees>43.36944364942610263824462890625</LatitudeDegrees>
              <LongitudeDegrees>-3.90374206937849521636962890625</LongitudeDegrees>
            </Position>
            <AltitudeMeters>45.200000762939453125</AltitudeMeters>
            <DistanceMeters>49035.762254267</DistanceMeters>
          </Trackpoint>
          <Trackpoint>
            <Time>2021-01-13T16:34:12.000Z</Time>
            <Position>
              <LatitudeDegrees>43.3694071881473064422607421875</LatitudeDegrees>
              <LongitudeDegrees>-3.90377174131572246551513671875</LongitudeDegrees>
            </Position>
            <AltitudeMeters>45.40000152587890625</AltitudeMeters>
            <DistanceMeters>49040.477341562</DistanceMeters>
          </Trackpoint>
          <Trackpoint>
            <Time>2021-01-13T16:34:15.000Z</Time>
            <Position>
              <LatitudeDegrees>43.36929738521575927734375</LatitudeDegrees>
              <LongitudeDegrees>-3.90386310406029224395751953125</LongitudeDegrees>
            </Position>
            <AltitudeMeters>46.59999847412109375</AltitudeMeters>
            <DistanceMeters>49054.760144402</DistanceMeters>
          </Trackpoint>
          <Trackpoint>
            <Time>2021-01-13T16:34:20.000Z</Time>
            <Position>
              <LatitudeDegrees>43.36910896003246307373046875</LatitudeDegrees>
              <LongitudeDegrees>-3.90400417149066925048828125</LongitudeDegrees>
            </Position>
            <AltitudeMeters>47.799999237060546875</AltitudeMeters>
            <DistanceMeters>49078.637012836</DistanceMeters>
          </Trackpoint>
          <Trackpoint>
            <Time>2021-01-13T16:34:21.000Z</Time>
            <Position>
              <LatitudeDegrees>43.36906948126852512359619140625</LatitudeDegrees>
              <LongitudeDegrees>-3.9040316641330718994140625</LongitudeDegrees>
            </Position>
            <AltitudeMeters>48</AltitudeMeters>
            <DistanceMeters>49083.561927589</DistanceMeters>
          </Trackpoint>
          <Trackpoint>
            <Time>2021-01-13T16:34:27.000Z</Time>
            <Position>
              <LatitudeDegrees>43.36883210577070713043212890625</LatitudeDegrees>
              <LongitudeDegrees>-3.90419435687363147735595703125</LongitudeDegrees>
            </Position>
            <AltitudeMeters>48.799999237060546875</AltitudeMeters>
            <DistanceMeters>49113.079923389</DistanceMeters>
          </Trackpoint>
          <Trackpoint>
            <Time>2021-01-13T16:34:32.000Z</Time>
            <Position>
              <LatitudeDegrees>43.3686343766748905181884765625</LatitudeDegrees>
              <LongitudeDegrees>-3.9043272100389003753662109375</LongitudeDegrees>
            </Position>
            <AltitudeMeters>49.59999847412109375</AltitudeMeters>
            <DistanceMeters>49137.572494474</DistanceMeters>
          </Trackpoint>
          <Trackpoint>
            <Time>2021-01-13T16:34:35.000Z</Time>
            <Position>
              <LatitudeDegrees>43.36851485073566436767578125</LatitudeDegrees>
              <LongitudeDegrees>-3.904401473701000213623046875</LongitudeDegrees>
            </Position>
            <AltitudeMeters>51.200000762939453125</AltitudeMeters>
            <DistanceMeters>49152.17015675</DistanceMeters>
          </Trackpoint>
          <Trackpoint>
            <Time>2021-01-13T16:34:44.000Z</Time>
            <Position>
              <LatitudeDegrees>43.36814780719578266143798828125</LatitudeDegrees>
              <LongitudeDegrees>-3.90463809482753276824951171875</LongitudeDegrees>
            </Position>
            <AltitudeMeters>52</AltitudeMeters>
            <DistanceMeters>49197.286535055</DistanceMeters>
          </Trackpoint>
          <Trackpoint>
            <Time>2021-01-13T16:34:45.000Z</Time>
            <Position>
              <LatitudeDegrees>43.3681069873273372650146484375</LatitudeDegrees>
              <LongitudeDegrees>-3.90466508455574512481689453125</LongitudeDegrees>
            </Position>
            <AltitudeMeters>52</AltitudeMeters>
            <DistanceMeters>49202.327431316</DistanceMeters>
          </Trackpoint>
          <Trackpoint>
            <Time>2021-01-13T16:34:55.000Z</Time>
            <Position>
              <LatitudeDegrees>43.36770557798445224761962890625</LatitudeDegrees>
              <LongitudeDegrees>-3.90493313781917095184326171875</LongitudeDegrees>
            </Position>
            <AltitudeMeters>52.40000152587890625</AltitudeMeters>
            <DistanceMeters>49251.99123242</DistanceMeters>
          </Trackpoint>
          <Trackpoint>
            <Time>2021-01-13T16:34:59.000Z</Time>
            <Position>
              <LatitudeDegrees>43.36755487136542797088623046875</LatitudeDegrees>
              <LongitudeDegrees>-3.90502986498177051544189453125</LongitudeDegrees>
            </Position>
            <AltitudeMeters>53</AltitudeMeters>
            <DistanceMeters>49270.500963114</DistanceMeters>
          </Trackpoint>
          <Trackpoint>
            <Time>2021-01-13T16:35:02.000Z</Time>
            <Position>
              <LatitudeDegrees>43.367432244122028350830078125</LatitudeDegrees>
              <LongitudeDegrees>-3.905106894671916961669921875</LongitudeDegrees>
            </Position>
            <AltitudeMeters>53.40000152587890625</AltitudeMeters>
            <DistanceMeters>49285.50555794</DistanceMeters>
          </Trackpoint>
          <Trackpoint>
            <Time>2021-01-13T16:35:07.000Z</Time>
            <Position>
              <LatitudeDegrees>43.36724356748163700103759765625</LatitudeDegrees>
              <LongitudeDegrees>-3.9052386581897735595703125</LongitudeDegrees>
            </Position>
            <AltitudeMeters>54.200000762939453125</AltitudeMeters>
            <DistanceMeters>49309.057042937</DistanceMeters>
          </Trackpoint>
          <Trackpoint>
            <Time>2021-01-13T16:35:10.000Z</Time>
            <Position>
              <LatitudeDegrees>43.36713359691202640533447265625</LatitudeDegrees>
              <LongitudeDegrees>-3.90531820245087146759033203125</LongitudeDegrees>
            </Position>
            <AltitudeMeters>55.40000152587890625</AltitudeMeters>
            <DistanceMeters>49322.885960427</DistanceMeters>
          </Trackpoint>
          <Trackpoint>
            <Time>2021-01-13T16:35:14.000Z</Time>
            <Position>
              <LatitudeDegrees>43.36699068546295166015625</LatitudeDegrees>
              <LongitudeDegrees>-3.90544560737907886505126953125</LongitudeDegrees>
            </Position>
            <AltitudeMeters>56.59999847412109375</AltitudeMeters>
            <DistanceMeters>49341.840395828</DistanceMeters>
          </Trackpoint>
          <Trackpoint>
            <Time>2021-01-13T16:35:18.000Z</Time>
            <Position>
              <LatitudeDegrees>43.36685950867831707000732421875</LatitudeDegrees>
              <LongitudeDegrees>-3.90560721047222614288330078125</LongitudeDegrees>
            </Position>
            <AltitudeMeters>57.59999847412109375</AltitudeMeters>
            <DistanceMeters>49361.439871636</DistanceMeters>
          </Trackpoint>
          <Trackpoint>
            <Time>2021-01-13T16:35:22.000Z</Time>
            <Position>
              <LatitudeDegrees>43.366751968860626220703125</LatitudeDegrees>
              <LongitudeDegrees>-3.90580100007355213165283203125</LongitudeDegrees>
            </Position>
            <AltitudeMeters>58.799999237060546875</AltitudeMeters>
            <DistanceMeters>49381.16655697</DistanceMeters>
          </Trackpoint>
          <Trackpoint>
            <Time>2021-01-13T16:35:24.000Z</Time>
            <Position>
              <LatitudeDegrees>43.3667082153260707855224609375</LatitudeDegrees>
              <LongitudeDegrees>-3.9059053547680377960205078125</LongitudeDegrees>
            </Position>
            <AltitudeMeters>59.59999847412109375</AltitudeMeters>
            <DistanceMeters>49390.914093292</DistanceMeters>
          </Trackpoint>
          <Trackpoint>
            <Time>2021-01-13T16:35:25.000Z</Time>
            <Position>
              <LatitudeDegrees>43.36669120006263256072998046875</LatitudeDegrees>
              <LongitudeDegrees>-3.90596008859574794769287109375</LongitudeDegrees>
            </Position>
            <AltitudeMeters>59.799999237060546875</AltitudeMeters>
            <DistanceMeters>49395.731488486</DistanceMeters>
          </Trackpoint>
          <Trackpoint>
            <Time>2021-01-13T16:35:29.000Z</Time>
            <Position>
              <LatitudeDegrees>43.366636969149112701416015625</LatitudeDegrees>
              <LongitudeDegrees>-3.90618883073329925537109375</LongitudeDegrees>
            </Position>
            <AltitudeMeters>61</AltitudeMeters>
            <DistanceMeters>49415.199213273</DistanceMeters>
          </Trackpoint>
          <Trackpoint>
            <Time>2021-01-13T16:35:32.000Z</Time>
            <Position>
              <LatitudeDegrees>43.3666165173053741455078125</LatitudeDegrees>
              <LongitudeDegrees>-3.9063690416514873504638671875</LongitudeDegrees>
            </Position>
            <AltitudeMeters>61.799999237060546875</AltitudeMeters>
            <DistanceMeters>49429.957446359</DistanceMeters>
          </Trackpoint>
          <Trackpoint>
            <Time>2021-01-13T16:35:33.000Z</Time>
            <Position>
              <LatitudeDegrees>43.36661308072507381439208984375</LatitudeDegrees>
              <LongitudeDegrees>-3.90643291175365447998046875</LongitudeDegrees>
            </Position>
            <AltitudeMeters>62.200000762939453125</AltitudeMeters>
            <DistanceMeters>49435.139670529</DistanceMeters>
          </Trackpoint>
          <Trackpoint>
            <Time>2021-01-13T16:35:37.000Z</Time>
            <Position>
              <LatitudeDegrees>43.3665999211370944976806640625</LatitudeDegrees>
              <LongitudeDegrees>-3.906702138483524322509765625</LongitudeDegrees>
            </Position>
            <AltitudeMeters>63.200000762939453125</AltitudeMeters>
            <DistanceMeters>49456.973079229</DistanceMeters>
          </Trackpoint>
          <Trackpoint>
            <Time>2021-01-13T16:35:41.000Z</Time>
            <Position>
              <LatitudeDegrees>43.36658642627298831939697265625</LatitudeDegrees>
              <LongitudeDegrees>-3.90697848983108997344970703125</LongitudeDegrees>
            </Position>
            <AltitudeMeters>64</AltitudeMeters>
            <DistanceMeters>49479.383876219</DistanceMeters>
          </Trackpoint>
          <Trackpoint>
            <Time>2021-01-13T16:35:47.000Z</Time>
            <Position>
              <LatitudeDegrees>43.36655675433576107025146484375</LatitudeDegrees>
              <LongitudeDegrees>-3.907410912215709686279296875</LongitudeDegrees>
            </Position>
            <AltitudeMeters>64.1999969482421875</AltitudeMeters>
            <DistanceMeters>49514.52834742</DistanceMeters>
          </Trackpoint>
          <Trackpoint>
            <Time>2021-01-13T16:35:51.000Z</Time>
            <Position>
              <LatitudeDegrees>43.36652196943759918212890625</LatitudeDegrees>
              <LongitudeDegrees>-3.9077074639499187469482421875</LongitudeDegrees>
            </Position>
            <AltitudeMeters>64.40000152587890625</AltitudeMeters>
            <DistanceMeters>49538.833647274</DistanceMeters>
          </Trackpoint>
          <Trackpoint>
            <Time>2021-01-13T16:35:57.000Z</Time>
            <Position>
              <LatitudeDegrees>43.3664309419691562652587890625</LatitudeDegrees>
              <LongitudeDegrees>-3.9081476815044879913330078125</LongitudeDegrees>
            </Position>
            <AltitudeMeters>64.40000152587890625</AltitudeMeters>
            <DistanceMeters>49575.866278421</DistanceMeters>
          </Trackpoint>
          <Trackpoint>
            <Time>2021-01-13T16:35:58.000Z</Time>
            <Position>
              <LatitudeDegrees>43.366406299173831939697265625</LatitudeDegrees>
              <LongitudeDegrees>-3.9082184247672557830810546875</LongitudeDegrees>
            </Position>
            <AltitudeMeters>64.40000152587890625</AltitudeMeters>
            <DistanceMeters>49582.213892232</DistanceMeters>
          </Trackpoint>
          <Trackpoint>
            <Time>2021-01-13T16:36:05.000Z</Time>
            <Position>
              <LatitudeDegrees>43.36618962697684764862060546875</LatitudeDegrees>
              <LongitudeDegrees>-3.90873785130679607391357421875</LongitudeDegrees>
            </Position>
            <AltitudeMeters>64.1999969482421875</AltitudeMeters>
            <DistanceMeters>49630.670435622</DistanceMeters>
          </Trackpoint>
          <Trackpoint>
            <Time>2021-01-13T16:36:06.000Z</Time>
            <Position>
              <LatitudeDegrees>43.36615450680255889892578125</LatitudeDegrees>
              <LongitudeDegrees>-3.90881530009210109710693359375</LongitudeDegrees>
            </Position>
            <AltitudeMeters>63.799999237060546875</AltitudeMeters>
            <DistanceMeters>49638.05689092</DistanceMeters>
          </Trackpoint>
          <Trackpoint>
            <Time>2021-01-13T16:36:08.000Z</Time>
            <Position>
              <LatitudeDegrees>43.36608150042593479156494140625</LatitudeDegrees>
              <LongitudeDegrees>-3.9089727960526943206787109375</LongitudeDegrees>
            </Position>
            <AltitudeMeters>63.40000152587890625</AltitudeMeters>
            <DistanceMeters>49653.170620232</DistanceMeters>
          </Trackpoint>
          <Trackpoint>
            <Time>2021-01-13T16:36:10.000Z</Time>
            <Position>
              <LatitudeDegrees>43.36600958369672298431396484375</LatitudeDegrees>
              <LongitudeDegrees>-3.909136243164539337158203125</LongitudeDegrees>
            </Position>
            <AltitudeMeters>63.200000762939453125</AltitudeMeters>
            <DistanceMeters>49668.629921742</DistanceMeters>
          </Trackpoint>
          <Trackpoint>
            <Time>2021-01-13T16:36:12.000Z</Time>
            <Position>
              <LatitudeDegrees>43.365935571491718292236328125</LatitudeDegrees>
              <LongitudeDegrees>-3.909296505153179168701171875</LongitudeDegrees>
            </Position>
            <AltitudeMeters>62.799999237060546875</AltitudeMeters>
            <DistanceMeters>49683.992835138</DistanceMeters>
          </Trackpoint>
          <Trackpoint>
            <Time>2021-01-13T16:36:14.000Z</Time>
            <Position>
              <LatitudeDegrees>43.3658656664192676544189453125</LatitudeDegrees>
              <LongitudeDegrees>-3.909454755485057830810546875</LongitudeDegrees>
            </Position>
            <AltitudeMeters>62.40000152587890625</AltitudeMeters>
            <DistanceMeters>49698.975748753</DistanceMeters>
          </Trackpoint>
          <Trackpoint>
            <Time>2021-01-13T16:36:15.000Z</Time>
            <Position>
              <LatitudeDegrees>43.36583130061626434326171875</LatitudeDegrees>
              <LongitudeDegrees>-3.9095323719084262847900390625</LongitudeDegrees>
            </Position>
            <AltitudeMeters>62</AltitudeMeters>
            <DistanceMeters>49706.329121975</DistanceMeters>
          </Trackpoint>
          <Trackpoint>
            <Time>2021-01-13T16:36:17.000Z</Time>
            <Position>
              <LatitudeDegrees>43.365763239562511444091796875</LatitudeDegrees>
              <LongitudeDegrees>-3.909686096012592315673828125</LongitudeDegrees>
            </Position>
            <AltitudeMeters>61.59999847412109375</AltitudeMeters>
            <DistanceMeters>49720.892721651</DistanceMeters>
          </Trackpoint>
          <Trackpoint>
            <Time>2021-01-13T16:36:20.000Z</Time>
            <Position>
              <LatitudeDegrees>43.365666009485721588134765625</LatitudeDegrees>
              <LongitudeDegrees>-3.90991534106433391571044921875</LongitudeDegrees>
            </Position>
            <AltitudeMeters>60.799999237060546875</AltitudeMeters>
            <DistanceMeters>49742.368128381</DistanceMeters>
          </Trackpoint>
          <Trackpoint>
            <Time>2021-01-13T16:36:23.000Z</Time>
            <Position>
              <LatitudeDegrees>43.365572802722454071044921875</LatitudeDegrees>
              <LongitudeDegrees>-3.91013612039387226104736328125</LongitudeDegrees>
            </Position>
            <AltitudeMeters>60</AltitudeMeters>
            <DistanceMeters>49763.026332871</DistanceMeters>
          </Trackpoint>
          <Trackpoint>
            <Time>2021-01-13T16:36:25.000Z</Time>
            <Position>
              <LatitudeDegrees>43.36551479995250701904296875</LatitudeDegrees>
              <LongitudeDegrees>-3.91028322279453277587890625</LongitudeDegrees>
            </Position>
            <AltitudeMeters>59.799999237060546875</AltitudeMeters>
            <DistanceMeters>49776.566889437</DistanceMeters>
          </Trackpoint>
          <Trackpoint>
            <Time>2021-01-13T16:36:27.000Z</Time>
            <Position>
              <LatitudeDegrees>43.3654578030109405517578125</LatitudeDegrees>
              <LongitudeDegrees>-3.91042730771005153656005859375</LongitudeDegrees>
            </Position>
            <AltitudeMeters>59.40000152587890625</AltitudeMeters>
            <DistanceMeters>49789.840050004</DistanceMeters>
          </Trackpoint>
          <Trackpoint>
            <Time>2021-01-13T16:36:34.000Z</Time>
            <Position>
              <LatitudeDegrees>43.365246243774890899658203125</LatitudeDegrees>
              <LongitudeDegrees>-3.91093642450869083404541015625</LongitudeDegrees>
            </Position>
            <AltitudeMeters>58.799999237060546875</AltitudeMeters>
            <DistanceMeters>49837.290267498</DistanceMeters>
          </Trackpoint>
          <Trackpoint>
            <Time>2021-01-13T16:36:43.000Z</Time>
            <Position>
              <LatitudeDegrees>43.364956565201282501220703125</LatitudeDegrees>
              <LongitudeDegrees>-3.9116550050675868988037109375</LongitudeDegrees>
            </Position>
            <AltitudeMeters>57.799999237060546875</AltitudeMeters>
            <DistanceMeters>49903.775631978</DistanceMeters>
          </Trackpoint>
          <Trackpoint>
            <Time>2021-01-13T16:36:45.000Z</Time>
            <Position>
              <LatitudeDegrees>43.364895544946193695068359375</LatitudeDegrees>
              <LongitudeDegrees>-3.9118065498769283294677734375</LongitudeDegrees>
            </Position>
            <AltitudeMeters>57.799999237060546875</AltitudeMeters>
            <DistanceMeters>49917.793280262</DistanceMeters>
          </Trackpoint>
          <Trackpoint>
            <Time>2021-01-13T16:36:46.000Z</Time>
            <Position>
              <LatitudeDegrees>43.36486478336155414581298828125</LatitudeDegrees>
              <LongitudeDegrees>-3.9118823222815990447998046875</LongitudeDegrees>
            </Position>
            <AltitudeMeters>57.59999847412109375</AltitudeMeters>
            <DistanceMeters>49924.815619435</DistanceMeters>
          </Trackpoint>
          <Trackpoint>
            <Time>2021-01-13T16:36:55.000Z</Time>
            <Position>
              <LatitudeDegrees>43.36459103040397167205810546875</LatitudeDegrees>
              <LongitudeDegrees>-3.91254901885986328125</LongitudeDegrees>
            </Position>
            <AltitudeMeters>57.200000762939453125</AltitudeMeters>
            <DistanceMeters>49986.772162719</DistanceMeters>
          </Trackpoint>
          <Trackpoint>
            <Time>2021-01-13T16:36:57.000Z</Time>
            <Position>
              <LatitudeDegrees>43.36453235708177089691162109375</LatitudeDegrees>
              <LongitudeDegrees>-3.91269721090793609619140625</LongitudeDegrees>
            </Position>
            <AltitudeMeters>57</AltitudeMeters>
            <DistanceMeters>50000.426942777</DistanceMeters>
          </Trackpoint>
          <Trackpoint>
            <Time>2021-01-13T16:37:00.000Z</Time>
            <Position>
              <LatitudeDegrees>43.36444728076457977294921875</LatitudeDegrees>
              <LongitudeDegrees>-3.912918157875537872314453125</LongitudeDegrees>
            </Position>
            <AltitudeMeters>56.799999237060546875</AltitudeMeters>
            <DistanceMeters>50020.658261937</DistanceMeters>
          </Trackpoint>
          <Trackpoint>
            <Time>2021-01-13T16:37:03.000Z</Time>
            <Position>
              <LatitudeDegrees>43.36436119861900806427001953125</LatitudeDegrees>
              <LongitudeDegrees>-3.9131399430334568023681640625</LongitudeDegrees>
            </Position>
            <AltitudeMeters>56.59999847412109375</AltitudeMeters>
            <DistanceMeters>50041.001748204</DistanceMeters>
          </Trackpoint>
          <Trackpoint>
            <Time>2021-01-13T16:37:07.000Z</Time>
            <Position>
              <LatitudeDegrees>43.36425642482936382293701171875</LatitudeDegrees>
              <LongitudeDegrees>-3.91344680450856685638427734375</LongitudeDegrees>
            </Position>
            <AltitudeMeters>56.40000152587890625</AltitudeMeters>
            <DistanceMeters>50068.434036671</DistanceMeters>
          </Trackpoint>
          <Trackpoint>
            <Time>2021-01-13T16:37:14.000Z</Time>
            <Position>
              <LatitudeDegrees>43.36409498937427997589111328125</LatitudeDegrees>
              <LongitudeDegrees>-3.91398693434894084930419921875</LongitudeDegrees>
            </Position>
            <AltitudeMeters>56.200000762939453125</AltitudeMeters>
            <DistanceMeters>50115.68907422</DistanceMeters>
          </Trackpoint>
          <Trackpoint>
            <Time>2021-01-13T16:37:18.000Z</Time>
            <Position>
              <LatitudeDegrees>43.36401938460767269134521484375</LatitudeDegrees>
              <LongitudeDegrees>-3.914300166070461273193359375</LongitudeDegrees>
            </Position>
            <AltitudeMeters>56.200000762939453125</AltitudeMeters>
            <DistanceMeters>50142.395131543</DistanceMeters>
          </Trackpoint>
          <Trackpoint>
            <Time>2021-01-13T16:37:27.000Z</Time>
            <Position>
              <LatitudeDegrees>43.36384973488748073577880859375</LatitudeDegrees>
              <LongitudeDegrees>-3.91504053957760334014892578125</LongitudeDegrees>
            </Position>
            <AltitudeMeters>56.200000762939453125</AltitudeMeters>
            <DistanceMeters>50205.209442983</DistanceMeters>
          </Trackpoint>
          <Trackpoint>
            <Time>2021-01-13T16:37:29.000Z</Time>
            <Position>
              <LatitudeDegrees>43.3638121001422405242919921875</LatitudeDegrees>
              <LongitudeDegrees>-3.91520666889846324920654296875</LongitudeDegrees>
            </Position>
            <AltitudeMeters>56.200000762939453125</AltitudeMeters>
            <DistanceMeters>50219.289760037</DistanceMeters>
          </Trackpoint>
          <Trackpoint>
            <Time>2021-01-13T16:37:38.000Z</Time>
            <Position>
              <LatitudeDegrees>43.3636602200567722320556640625</LatitudeDegrees>
              <LongitudeDegrees>-3.91596104018390178680419921875</LongitudeDegrees>
            </Position>
            <AltitudeMeters>56.59999847412109375</AltitudeMeters>
            <DistanceMeters>50282.629181904</DistanceMeters>
          </Trackpoint>
          <Trackpoint>
            <Time>2021-01-13T16:37:39.000Z</Time>
            <Position>
              <LatitudeDegrees>43.36364571936428546905517578125</LatitudeDegrees>
              <LongitudeDegrees>-3.9160430990159511566162109375</LongitudeDegrees>
            </Position>
            <AltitudeMeters>56.59999847412109375</AltitudeMeters>
            <DistanceMeters>50289.463181858</DistanceMeters>
          </Trackpoint>
          <Trackpoint>
            <Time>2021-01-13T16:37:48.000Z</Time>
            <Position>
              <LatitudeDegrees>43.363545052707195281982421875</LatitudeDegrees>
              <LongitudeDegrees>-3.91678749583661556243896484375</LongitudeDegrees>
            </Position>
            <AltitudeMeters>56.799999237060546875</AltitudeMeters>
            <DistanceMeters>50350.731319725</DistanceMeters>
          </Trackpoint>
          <Trackpoint>
            <Time>2021-01-13T16:37:50.000Z</Time>
            <Position>
              <LatitudeDegrees>43.36353105492889881134033203125</LatitudeDegrees>
              <LongitudeDegrees>-3.9169530384242534637451171875</LongitudeDegrees>
            </Position>
            <AltitudeMeters>56.799999237060546875</AltitudeMeters>
            <DistanceMeters>50364.217080348</DistanceMeters>
          </Trackpoint>
          <Trackpoint>
            <Time>2021-01-13T16:37:57.000Z</Time>
            <Position>
              <LatitudeDegrees>43.3635002933442592620849609375</LatitudeDegrees>
              <LongitudeDegrees>-3.9175364188849925994873046875</LongitudeDegrees>
            </Position>
            <AltitudeMeters>57.59999847412109375</AltitudeMeters>
            <DistanceMeters>50411.547062217</DistanceMeters>
          </Trackpoint>
          <Trackpoint>
            <Time>2021-01-13T16:38:00.000Z</Time>
            <Position>
              <LatitudeDegrees>43.3634982816874980926513671875</LatitudeDegrees>
              <LongitudeDegrees>-3.91778779216110706329345703125</LongitudeDegrees>
            </Position>
            <AltitudeMeters>57.799999237060546875</AltitudeMeters>
            <DistanceMeters>50431.888994843</DistanceMeters>
          </Trackpoint>
          <Trackpoint>
            <Time>2021-01-13T16:38:06.000Z</Time>
            <Position>
              <LatitudeDegrees>43.36350456811487674713134765625</LatitudeDegrees>
              <LongitudeDegrees>-3.9183001779019832611083984375</LongitudeDegrees>
            </Position>
            <AltitudeMeters>58.40000152587890625</AltitudeMeters>
            <DistanceMeters>50473.356153133</DistanceMeters>
          </Trackpoint>
          <Trackpoint>
            <Time>2021-01-13T16:38:11.000Z</Time>
            <Position>
              <LatitudeDegrees>43.3635137043893337249755859375</LatitudeDegrees>
              <LongitudeDegrees>-3.918730504810810089111328125</LongitudeDegrees>
            </Position>
            <AltitudeMeters>59</AltitudeMeters>
            <DistanceMeters>50508.192226007</DistanceMeters>
          </Trackpoint>
          <Trackpoint>
            <Time>2021-01-13T16:38:12.000Z</Time>
            <Position>
              <LatitudeDegrees>43.36351655423641204833984375</LatitudeDegrees>
              <LongitudeDegrees>-3.918815664947032928466796875</LongitudeDegrees>
            </Position>
            <AltitudeMeters>59</AltitudeMeters>
            <DistanceMeters>50515.090668068</DistanceMeters>
          </Trackpoint>
          <Trackpoint>
            <Time>2021-01-13T16:38:20.000Z</Time>
            <Position>
              <LatitudeDegrees>43.363495767116546630859375</LatitudeDegrees>
              <LongitudeDegrees>-3.91947322525084018707275390625</LongitudeDegrees>
            </Position>
            <AltitudeMeters>59.200000762939453125</AltitudeMeters>
            <DistanceMeters>50568.349390286</DistanceMeters>
          </Trackpoint>
          <Trackpoint>
            <Time>2021-01-13T16:38:25.000Z</Time>
            <Position>
              <LatitudeDegrees>43.36344220675528049468994140625</LatitudeDegrees>
              <LongitudeDegrees>-3.91984739340841770172119140625</LongitudeDegrees>
            </Position>
            <AltitudeMeters>59.40000152587890625</AltitudeMeters>
            <DistanceMeters>50599.207624051</DistanceMeters>
          </Trackpoint>
          <Trackpoint>
            <Time>2021-01-13T16:38:26.000Z</Time>
            <Position>
              <LatitudeDegrees>43.363423012197017669677734375</LatitudeDegrees>
              <LongitudeDegrees>-3.9199108444154262542724609375</LongitudeDegrees>
            </Position>
            <AltitudeMeters>59.40000152587890625</AltitudeMeters>
            <DistanceMeters>50604.768107999</DistanceMeters>
          </Trackpoint>
          <Trackpoint>
            <Time>2021-01-13T16:38:32.000Z</Time>
            <Position>
              <LatitudeDegrees>43.36327507160604000091552734375</LatitudeDegrees>
              <LongitudeDegrees>-3.92032004892826080322265625</LongitudeDegrees>
            </Position>
            <AltitudeMeters>59.40000152587890625</AltitudeMeters>
            <DistanceMeters>50641.748276155</DistanceMeters>
          </Trackpoint>
          <Trackpoint>
            <Time>2021-01-13T16:38:34.000Z</Time>
            <Position>
              <LatitudeDegrees>43.36321069858968257904052734375</LatitudeDegrees>
              <LongitudeDegrees>-3.92045374028384685516357421875</LongitudeDegrees>
            </Position>
            <AltitudeMeters>59.40000152587890625</AltitudeMeters>
            <DistanceMeters>50654.724207928</DistanceMeters>
          </Trackpoint>
          <Trackpoint>
            <Time>2021-01-13T16:38:38.000Z</Time>
            <Position>
              <LatitudeDegrees>43.363054879009723663330078125</LatitudeDegrees>
              <LongitudeDegrees>-3.920707292854785919189453125</LongitudeDegrees>
            </Position>
            <AltitudeMeters>59.200000762939453125</AltitudeMeters>
            <DistanceMeters>50681.589387806</DistanceMeters>
          </Trackpoint>
          <Trackpoint>
            <Time>2021-01-13T16:38:40.000Z</Time>
            <Position>
              <LatitudeDegrees>43.36296460591256618499755859375</LatitudeDegrees>
              <LongitudeDegrees>-3.920823298394680023193359375</LongitudeDegrees>
            </Position>
            <AltitudeMeters>59.200000762939453125</AltitudeMeters>
            <DistanceMeters>50695.339723823</DistanceMeters>
          </Trackpoint>
          <Trackpoint>
            <Time>2021-01-13T16:38:48.000Z</Time>
            <Position>
              <LatitudeDegrees>43.3625568263232707977294921875</LatitudeDegrees>
              <LongitudeDegrees>-3.92124113626778125762939453125</LongitudeDegrees>
            </Position>
            <AltitudeMeters>58.59999847412109375</AltitudeMeters>
            <DistanceMeters>50751.935930905</DistanceMeters>
          </Trackpoint>
          <Trackpoint>
            <Time>2021-01-13T16:38:49.000Z</Time>
            <Position>
              <LatitudeDegrees>43.36250510998070240020751953125</LatitudeDegrees>
              <LongitudeDegrees>-3.9212884940207004547119140625</LongitudeDegrees>
            </Position>
            <AltitudeMeters>58.40000152587890625</AltitudeMeters>
            <DistanceMeters>50758.850063149</DistanceMeters>
          </Trackpoint>
          <Trackpoint>
            <Time>2021-01-13T16:38:51.000Z</Time>
            <Position>
              <LatitudeDegrees>43.3624029345810413360595703125</LatitudeDegrees>
              <LongitudeDegrees>-3.92138262279331684112548828125</LongitudeDegrees>
            </Position>
            <AltitudeMeters>58</AltitudeMeters>
            <DistanceMeters>50772.53720916</DistanceMeters>
          </Trackpoint>
          <Trackpoint>
            <Time>2021-01-13T16:38:53.000Z</Time>
            <Position>
              <LatitudeDegrees>43.36230017244815826416015625</LatitudeDegrees>
              <LongitudeDegrees>-3.92147205770015716552734375</LongitudeDegrees>
            </Position>
            <AltitudeMeters>57.799999237060546875</AltitudeMeters>
            <DistanceMeters>50786.072095964</DistanceMeters>
          </Trackpoint>
          <Trackpoint>
            <Time>2021-01-13T16:38:55.000Z</Time>
            <Position>
              <LatitudeDegrees>43.36219799704849720001220703125</LatitudeDegrees>
              <LongitudeDegrees>-3.9215640909969806671142578125</LongitudeDegrees>
            </Position>
            <AltitudeMeters>57.59999847412109375</AltitudeMeters>
            <DistanceMeters>50799.665899124</DistanceMeters>
          </Trackpoint>
          <Trackpoint>
            <Time>2021-01-13T16:38:56.000Z</Time>
            <Position>
              <LatitudeDegrees>43.3621467836201190948486328125</LatitudeDegrees>
              <LongitudeDegrees>-3.921611867845058441162109375</LongitudeDegrees>
            </Position>
            <AltitudeMeters>57.200000762939453125</AltitudeMeters>
            <DistanceMeters>50806.553205678</DistanceMeters>
          </Trackpoint>
          <Trackpoint>
            <Time>2021-01-13T16:38:58.000Z</Time>
            <Position>
              <LatitudeDegrees>43.36204393766820430755615234375</LatitudeDegrees>
              <LongitudeDegrees>-3.92171253450214862823486328125</LongitudeDegrees>
            </Position>
            <AltitudeMeters>56.799999237060546875</AltitudeMeters>
            <DistanceMeters>50820.602705348</DistanceMeters>
          </Trackpoint>
          <Trackpoint>
            <Time>2021-01-13T16:39:00.000Z</Time>
            <Position>
              <LatitudeDegrees>43.3619382418692111968994140625</LatitudeDegrees>
              <LongitudeDegrees>-3.9218121953308582305908203125</LongitudeDegrees>
            </Position>
            <AltitudeMeters>56.200000762939453125</AltitudeMeters>
            <DistanceMeters>50834.865578906</DistanceMeters>
          </Trackpoint>
          <Trackpoint>
            <Time>2021-01-13T16:39:02.000Z</Time>
            <Position>
              <LatitudeDegrees>43.3618312887847423553466796875</LatitudeDegrees>
              <LongitudeDegrees>-3.92191185615956783294677734375</LongitudeDegrees>
            </Position>
            <AltitudeMeters>55.799999237060546875</AltitudeMeters>
            <DistanceMeters>50849.243846191</DistanceMeters>
          </Trackpoint>
          <Trackpoint>
            <Time>2021-01-13T16:39:04.000Z</Time>
            <Position>
              <LatitudeDegrees>43.3617253415286540985107421875</LatitudeDegrees>
              <LongitudeDegrees>-3.92201009206473827362060546875</LongitudeDegrees>
            </Position>
            <AltitudeMeters>55.200000762939453125</AltitudeMeters>
            <DistanceMeters>50863.464872596</DistanceMeters>
          </Trackpoint>
          <Trackpoint>
            <Time>2021-01-13T16:39:06.000Z</Time>
            <Position>
              <LatitudeDegrees>43.36162081919610500335693359375</LatitudeDegrees>
              <LongitudeDegrees>-3.92210908234119415283203125</LongitudeDegrees>
            </Position>
            <AltitudeMeters>54.799999237060546875</AltitudeMeters>
            <DistanceMeters>50877.589691496</DistanceMeters>
          </Trackpoint>
          <Trackpoint>
            <Time>2021-01-13T16:39:08.000Z</Time>
            <Position>
              <LatitudeDegrees>43.361517973244190216064453125</LatitudeDegrees>
              <LongitudeDegrees>-3.92220622859895229339599609375</LongitudeDegrees>
            </Position>
            <AltitudeMeters>54.40000152587890625</AltitudeMeters>
            <DistanceMeters>50891.475952778</DistanceMeters>
          </Trackpoint>
          <Trackpoint>
            <Time>2021-01-13T16:39:09.000Z</Time>
            <Position>
              <LatitudeDegrees>43.3614668436348438262939453125</LatitudeDegrees>
              <LongitudeDegrees>-3.92225417308509349822998046875</LongitudeDegrees>
            </Position>
            <AltitudeMeters>54.200000762939453125</AltitudeMeters>
            <DistanceMeters>50898.362603741</DistanceMeters>
          </Trackpoint>
          <Trackpoint>
            <Time>2021-01-13T16:39:10.000Z</Time>
            <Position>
              <LatitudeDegrees>43.3614155463874340057373046875</LatitudeDegrees>
              <LongitudeDegrees>-3.92230086028575897216796875</LongitudeDegrees>
            </Position>
            <AltitudeMeters>54.200000762939453125</AltitudeMeters>
            <DistanceMeters>50905.208485477</DistanceMeters>
          </Trackpoint>
          <Trackpoint>
            <Time>2021-01-13T16:39:15.000Z</Time>
            <Position>
              <LatitudeDegrees>43.3611662685871124267578125</LatitudeDegrees>
              <LongitudeDegrees>-3.92253714613616466522216796875</LongitudeDegrees>
            </Position>
            <AltitudeMeters>53.200000762939453125</AltitudeMeters>
            <DistanceMeters>50938.903999</DistanceMeters>
          </Trackpoint>
          <Trackpoint>
            <Time>2021-01-13T16:39:16.000Z</Time>
            <Position>
              <LatitudeDegrees>43.3611161448061466217041015625</LatitudeDegrees>
              <LongitudeDegrees>-3.9225829951465129852294921875</LongitudeDegrees>
            </Position>
            <AltitudeMeters>53.200000762939453125</AltitudeMeters>
            <DistanceMeters>50945.603213874</DistanceMeters>
          </Trackpoint>
          <Trackpoint>
            <Time>2021-01-13T16:39:20.000Z</Time>
            <Position>
              <LatitudeDegrees>43.36092042736709117889404296875</LatitudeDegrees>
              <LongitudeDegrees>-3.9227643795311450958251953125</LongitudeDegrees>
            </Position>
            <AltitudeMeters>52.59999847412109375</AltitudeMeters>
            <DistanceMeters>50971.870495441</DistanceMeters>
          </Trackpoint>
          <Trackpoint>
            <Time>2021-01-13T16:39:23.000Z</Time>
            <Position>
              <LatitudeDegrees>43.3607771806418895721435546875</LatitudeDegrees>
              <LongitudeDegrees>-3.92289941199123859405517578125</LongitudeDegrees>
            </Position>
            <AltitudeMeters>52</AltitudeMeters>
            <DistanceMeters>50991.199265519</DistanceMeters>
          </Trackpoint>
          <Trackpoint>
            <Time>2021-01-13T16:39:28.000Z</Time>
            <Position>
              <LatitudeDegrees>43.36052614264190196990966796875</LatitudeDegrees>
              <LongitudeDegrees>-3.9231331832706928253173828125</LongitudeDegrees>
            </Position>
            <AltitudeMeters>51.40000152587890625</AltitudeMeters>
            <DistanceMeters>51024.9419124</DistanceMeters>
          </Trackpoint>
          <Trackpoint>
            <Time>2021-01-13T16:39:29.000Z</Time>
            <Position>
              <LatitudeDegrees>43.36047383956611156463623046875</LatitudeDegrees>
              <LongitudeDegrees>-3.92318121157586574554443359375</LongitudeDegrees>
            </Position>
            <AltitudeMeters>51.200000762939453125</AltitudeMeters>
            <DistanceMeters>51031.941712024</DistanceMeters>
          </Trackpoint>
          <Trackpoint>
            <Time>2021-01-13T16:39:30.000Z</Time>
            <Position>
              <LatitudeDegrees>43.36042128503322601318359375</LatitudeDegrees>
              <LongitudeDegrees>-3.92322949133813381195068359375</LongitudeDegrees>
            </Position>
            <AltitudeMeters>51</AltitudeMeters>
            <DistanceMeters>51038.976256709</DistanceMeters>
          </Trackpoint>
          <Trackpoint>
            <Time>2021-01-13T16:39:39.000Z</Time>
            <Position>
              <LatitudeDegrees>43.35996530950069427490234375</LatitudeDegrees>
              <LongitudeDegrees>-3.92366945743560791015625</LongitudeDegrees>
            </Position>
            <AltitudeMeters>50.59999847412109375</AltitudeMeters>
            <DistanceMeters>51100.970100394</DistanceMeters>
          </Trackpoint>
          <Trackpoint>
            <Time>2021-01-13T16:39:41.000Z</Time>
            <Position>
              <LatitudeDegrees>43.3598655648529529571533203125</LatitudeDegrees>
              <LongitudeDegrees>-3.92376408912241458892822265625</LongitudeDegrees>
            </Position>
            <AltitudeMeters>50.59999847412109375</AltitudeMeters>
            <DistanceMeters>51114.456865381</DistanceMeters>
          </Trackpoint>
          <Trackpoint>
            <Time>2021-01-13T16:39:44.000Z</Time>
            <Position>
              <LatitudeDegrees>43.35971661843359470367431640625</LatitudeDegrees>
              <LongitudeDegrees>-3.92390825785696506500244140625</LongitudeDegrees>
            </Position>
            <AltitudeMeters>50.40000152587890625</AltitudeMeters>
            <DistanceMeters>51134.728760923</DistanceMeters>
          </Trackpoint>
          <Trackpoint>
            <Time>2021-01-13T16:39:49.000Z</Time>
            <Position>
              <LatitudeDegrees>43.35946566425263881683349609375</LatitudeDegrees>
              <LongitudeDegrees>-3.9241487346589565277099609375</LongitudeDegrees>
            </Position>
            <AltitudeMeters>50.40000152587890625</AltitudeMeters>
            <DistanceMeters>51168.7708794</DistanceMeters>
          </Trackpoint>
          <Trackpoint>
            <Time>2021-01-13T16:39:54.000Z</Time>
            <Position>
              <LatitudeDegrees>43.35921370424330234527587890625</LatitudeDegrees>
              <LongitudeDegrees>-3.92439030110836029052734375</LongitudeDegrees>
            </Position>
            <AltitudeMeters>50</AltitudeMeters>
            <DistanceMeters>51202.955410881</DistanceMeters>
          </Trackpoint>
          <Trackpoint>
            <Time>2021-01-13T16:39:55.000Z</Time>
            <Position>
              <LatitudeDegrees>43.3591628260910511016845703125</LatitudeDegrees>
              <LongitudeDegrees>-3.92443832941353321075439453125</LongitudeDegrees>
            </Position>
            <AltitudeMeters>49.799999237060546875</AltitudeMeters>
            <DistanceMeters>51209.823679902</DistanceMeters>
          </Trackpoint>
          <Trackpoint>
            <Time>2021-01-13T16:40:03.000Z</Time>
            <Position>
              <LatitudeDegrees>43.358764685690402984619140625</LatitudeDegrees>
              <LongitudeDegrees>-3.924825489521026611328125</LongitudeDegrees>
            </Position>
            <AltitudeMeters>49.200000762939453125</AltitudeMeters>
            <DistanceMeters>51264.094334159</DistanceMeters>
          </Trackpoint>
          <Trackpoint>
            <Time>2021-01-13T16:40:06.000Z</Time>
            <Position>
              <LatitudeDegrees>43.35861557163298130035400390625</LatitudeDegrees>
              <LongitudeDegrees>-3.92496253363788127899169921875</LongitudeDegrees>
            </Position>
            <AltitudeMeters>49</AltitudeMeters>
            <DistanceMeters>51284.055373536</DistanceMeters>
          </Trackpoint>
          <Trackpoint>
            <Time>2021-01-13T16:40:08.000Z</Time>
            <Position>
              <LatitudeDegrees>43.35851599462330341339111328125</LatitudeDegrees>
              <LongitudeDegrees>-3.9250548183917999267578125</LongitudeDegrees>
            </Position>
            <AltitudeMeters>49</AltitudeMeters>
            <DistanceMeters>51297.420062536</DistanceMeters>
          </Trackpoint>
          <Trackpoint>
            <Time>2021-01-13T16:40:15.000Z</Time>
            <Position>
              <LatitudeDegrees>43.358157165348529815673828125</LatitudeDegrees>
              <LongitudeDegrees>-3.9253859035670757293701171875</LongitudeDegrees>
            </Position>
            <AltitudeMeters>48.40000152587890625</AltitudeMeters>
            <DistanceMeters>51345.513156845</DistanceMeters>
          </Trackpoint>
          <Trackpoint>
            <Time>2021-01-13T16:40:18.000Z</Time>
            <Position>
              <LatitudeDegrees>43.3580047823488712310791015625</LatitudeDegrees>
              <LongitudeDegrees>-3.92552630044519901275634765625</LongitudeDegrees>
            </Position>
            <AltitudeMeters>47.799999237060546875</AltitudeMeters>
            <DistanceMeters>51365.927319279</DistanceMeters>
          </Trackpoint>
          <Trackpoint>
            <Time>2021-01-13T16:40:22.000Z</Time>
            <Position>
              <LatitudeDegrees>43.357799090445041656494140625</LatitudeDegrees>
              <LongitudeDegrees>-3.9257173240184783935546875</LongitudeDegrees>
            </Position>
            <AltitudeMeters>47.40000152587890625</AltitudeMeters>
            <DistanceMeters>51393.551668503</DistanceMeters>
          </Trackpoint>
          <Trackpoint>
            <Time>2021-01-13T16:40:27.000Z</Time>
            <Position>
              <LatitudeDegrees>43.35754151456058025360107421875</LatitudeDegrees>
              <LongitudeDegrees>-3.92595746554434299468994140625</LongitudeDegrees>
            </Position>
            <AltitudeMeters>47.40000152587890625</AltitudeMeters>
            <DistanceMeters>51428.186266159</DistanceMeters>
          </Trackpoint>
          <Trackpoint>
            <Time>2021-01-13T16:40:29.000Z</Time>
            <Position>
              <LatitudeDegrees>43.3574408479034900665283203125</LatitudeDegrees>
              <LongitudeDegrees>-3.926053605973720550537109375</LongitudeDegrees>
            </Position>
            <AltitudeMeters>47.40000152587890625</AltitudeMeters>
            <DistanceMeters>51441.826489583</DistanceMeters>
          </Trackpoint>
          <Trackpoint>
            <Time>2021-01-13T16:40:38.000Z</Time>
            <Position>
              <LatitudeDegrees>43.3569919131696224212646484375</LatitudeDegrees>
              <LongitudeDegrees>-3.9264715276658535003662109375</LongitudeDegrees>
            </Position>
            <AltitudeMeters>47.799999237060546875</AltitudeMeters>
            <DistanceMeters>51502.1637391</DistanceMeters>
          </Trackpoint>
          <Trackpoint>
            <Time>2021-01-13T16:40:40.000Z</Time>
            <Position>
              <LatitudeDegrees>43.3568906597793102264404296875</LatitudeDegrees>
              <LongitudeDegrees>-3.92656364478170871734619140625</LongitudeDegrees>
            </Position>
            <AltitudeMeters>47.799999237060546875</AltitudeMeters>
            <DistanceMeters>51515.67558892</DistanceMeters>
          </Trackpoint>
          <Trackpoint>
            <Time>2021-01-13T16:40:49.000Z</Time>
            <Position>
              <LatitudeDegrees>43.35643543861806392669677734375</LatitudeDegrees>
              <LongitudeDegrees>-3.9269967377185821533203125</LongitudeDegrees>
            </Position>
            <AltitudeMeters>48.59999847412109375</AltitudeMeters>
            <DistanceMeters>51577.283834402</DistanceMeters>
          </Trackpoint>
          <Trackpoint>
            <Time>2021-01-13T16:40:51.000Z</Time>
            <Position>
              <LatitudeDegrees>43.3563344366848468780517578125</LatitudeDegrees>
              <LongitudeDegrees>-3.927092291414737701416015625</LongitudeDegrees>
            </Position>
            <AltitudeMeters>48.799999237060546875</AltitudeMeters>
            <DistanceMeters>51590.928360266</DistanceMeters>
          </Trackpoint>
          <Trackpoint>
            <Time>2021-01-13T16:40:57.000Z</Time>
            <Position>
              <LatitudeDegrees>43.356026820838451385498046875</LatitudeDegrees>
              <LongitudeDegrees>-3.92738440074026584625244140625</LongitudeDegrees>
            </Position>
            <AltitudeMeters>49</AltitudeMeters>
            <DistanceMeters>51632.534762953</DistanceMeters>
          </Trackpoint>
          <Trackpoint>
            <Time>2021-01-13T16:41:04.000Z</Time>
            <Position>
              <LatitudeDegrees>43.35567134432494640350341796875</LatitudeDegrees>
              <LongitudeDegrees>-3.92771615646779537200927734375</LongitudeDegrees>
            </Position>
            <AltitudeMeters>48.799999237060546875</AltitudeMeters>
            <DistanceMeters>51680.349350205</DistanceMeters>
          </Trackpoint>
          <Trackpoint>
            <Time>2021-01-13T16:41:13.000Z</Time>
            <Position>
              <LatitudeDegrees>43.35521377623081207275390625</LatitudeDegrees>
              <LongitudeDegrees>-3.92814480699598789215087890625</LongitudeDegrees>
            </Position>
            <AltitudeMeters>48.799999237060546875</AltitudeMeters>
            <DistanceMeters>51741.96990655</DistanceMeters>
          </Trackpoint>
          <Trackpoint>
            <Time>2021-01-13T16:41:17.000Z</Time>
            <Position>
              <LatitudeDegrees>43.35500682704150676727294921875</LatitudeDegrees>
              <LongitudeDegrees>-3.9283386804163455963134765625</LongitudeDegrees>
            </Position>
            <AltitudeMeters>48.799999237060546875</AltitudeMeters>
            <DistanceMeters>51769.839801695</DistanceMeters>
          </Trackpoint>
          <Trackpoint>
            <Time>2021-01-13T16:41:21.000Z</Time>
            <Position>
              <LatitudeDegrees>43.35479199886322021484375</LatitudeDegrees>
              <LongitudeDegrees>-3.92853875644505023956298828125</LongitudeDegrees>
            </Position>
            <AltitudeMeters>49.200000762939453125</AltitudeMeters>
            <DistanceMeters>51798.71729292</DistanceMeters>
          </Trackpoint>
          <Trackpoint>
            <Time>2021-01-13T16:41:27.000Z</Time>
            <Position>
              <LatitudeDegrees>43.35447038523852825164794921875</LatitudeDegrees>
              <LongitudeDegrees>-3.92884301953017711639404296875</LongitudeDegrees>
            </Position>
            <AltitudeMeters>49.40000152587890625</AltitudeMeters>
            <DistanceMeters>51842.165186085</DistanceMeters>
          </Trackpoint>
          <Trackpoint>
            <Time>2021-01-13T16:41:36.000Z</Time>
            <Position>
              <LatitudeDegrees>43.353972248733043670654296875</LatitudeDegrees>
              <LongitudeDegrees>-3.9293190278112888336181640625</LongitudeDegrees>
            </Position>
            <AltitudeMeters>49.200000762939453125</AltitudeMeters>
            <DistanceMeters>51909.678506816</DistanceMeters>
          </Trackpoint>
          <Trackpoint>
            <Time>2021-01-13T16:41:40.000Z</Time>
            <Position>
              <LatitudeDegrees>43.35374585352838039398193359375</LatitudeDegrees>
              <LongitudeDegrees>-3.92953771166503429412841796875</LongitudeDegrees>
            </Position>
            <AltitudeMeters>48.799999237060546875</AltitudeMeters>
            <DistanceMeters>51940.470974836</DistanceMeters>
          </Trackpoint>
          <Trackpoint>
            <Time>2021-01-13T16:41:45.000Z</Time>
            <Position>
              <LatitudeDegrees>43.3534691669046878814697265625</LatitudeDegrees>
              <LongitudeDegrees>-3.92980434000492095947265625</LongitudeDegrees>
            </Position>
            <AltitudeMeters>48.200000762939453125</AltitudeMeters>
            <DistanceMeters>51978.0741876</DistanceMeters>
          </Trackpoint>
          <Trackpoint>
            <Time>2021-01-13T16:41:47.000Z</Time>
            <Position>
              <LatitudeDegrees>43.35336380638182163238525390625</LatitudeDegrees>
              <LongitudeDegrees>-3.92990467138588428497314453125</LongitudeDegrees>
            </Position>
            <AltitudeMeters>47.799999237060546875</AltitudeMeters>
            <DistanceMeters>51992.338327337</DistanceMeters>
          </Trackpoint>
          <Trackpoint>
            <Time>2021-01-13T16:41:50.000Z</Time>
            <Position>
              <LatitudeDegrees>43.3532096631824970245361328125</LatitudeDegrees>
              <LongitudeDegrees>-3.93005386926233768463134765625</LongitudeDegrees>
            </Position>
            <AltitudeMeters>47.200000762939453125</AltitudeMeters>
            <DistanceMeters>52013.317936152</DistanceMeters>
          </Trackpoint>
          <Trackpoint>
            <Time>2021-01-13T16:41:53.000Z</Time>
            <Position>
              <LatitudeDegrees>43.3530487306416034698486328125</LatitudeDegrees>
              <LongitudeDegrees>-3.9302044920623302459716796875</LongitudeDegrees>
            </Position>
            <AltitudeMeters>46.799999237060546875</AltitudeMeters>
            <DistanceMeters>52034.984443808</DistanceMeters>
          </Trackpoint>
          <Trackpoint>
            <Time>2021-01-13T16:42:01.000Z</Time>
            <Position>
              <LatitudeDegrees>43.35260189138352870941162109375</LatitudeDegrees>
              <LongitudeDegrees>-3.93062350340187549591064453125</LongitudeDegrees>
            </Position>
            <AltitudeMeters>46</AltitudeMeters>
            <DistanceMeters>52095.179648388</DistanceMeters>
          </Trackpoint>
          <Trackpoint>
            <Time>2021-01-13T16:42:05.000Z</Time>
            <Position>
              <LatitudeDegrees>43.352372311055660247802734375</LatitudeDegrees>
              <LongitudeDegrees>-3.93083489499986171722412109375</LongitudeDegrees>
            </Position>
            <AltitudeMeters>46</AltitudeMeters>
            <DistanceMeters>52125.930886335</DistanceMeters>
          </Trackpoint>
          <Trackpoint>
            <Time>2021-01-13T16:42:07.000Z</Time>
            <Position>
              <LatitudeDegrees>43.35225521586835384368896484375</LatitudeDegrees>
              <LongitudeDegrees>-3.930936567485332489013671875</LongitudeDegrees>
            </Position>
            <AltitudeMeters>45.59999847412109375</AltitudeMeters>
            <DistanceMeters>52141.343973342</DistanceMeters>
          </Trackpoint>
          <Trackpoint>
            <Time>2021-01-13T16:42:11.000Z</Time>
            <Position>
              <LatitudeDegrees>43.35202504880726337432861328125</LatitudeDegrees>
              <LongitudeDegrees>-3.93113664351403713226318359375</LongitudeDegrees>
            </Position>
            <AltitudeMeters>45.200000762939453125</AltitudeMeters>
            <DistanceMeters>52171.650494017</DistanceMeters>
          </Trackpoint>
          <Trackpoint>
            <Time>2021-01-13T16:42:17.000Z</Time>
            <Position>
              <LatitudeDegrees>43.35169077850878238677978515625</LatitudeDegrees>
              <LongitudeDegrees>-3.93141643144190311431884765625</LongitudeDegrees>
            </Position>
            <AltitudeMeters>45.200000762939453125</AltitudeMeters>
            <DistanceMeters>52215.204669693</DistanceMeters>
          </Trackpoint>
          <Trackpoint>
            <Time>2021-01-13T16:42:21.000Z</Time>
            <Position>
              <LatitudeDegrees>43.3514635451138019561767578125</LatitudeDegrees>
              <LongitudeDegrees>-3.93161483108997344970703125</LongitudeDegrees>
            </Position>
            <AltitudeMeters>45.59999847412109375</AltitudeMeters>
            <DistanceMeters>52245.16296233</DistanceMeters>
          </Trackpoint>
          <Trackpoint>
            <Time>2021-01-13T16:42:29.000Z</Time>
            <Position>
              <LatitudeDegrees>43.3510367386043071746826171875</LatitudeDegrees>
              <LongitudeDegrees>-3.93208497203886508941650390625</LongitudeDegrees>
            </Position>
            <AltitudeMeters>46</AltitudeMeters>
            <DistanceMeters>52306.027702702</DistanceMeters>
          </Trackpoint>
          <Trackpoint>
            <Time>2021-01-13T16:42:37.000Z</Time>
            <Position>
              <LatitudeDegrees>43.3506667613983154296875</LatitudeDegrees>
              <LongitudeDegrees>-3.93265443854033946990966796875</LongitudeDegrees>
            </Position>
            <AltitudeMeters>45.799999237060546875</AltitudeMeters>
            <DistanceMeters>52367.833650458</DistanceMeters>
          </Trackpoint>
          <Trackpoint>
            <Time>2021-01-13T16:42:38.000Z</Time>
            <Position>
              <LatitudeDegrees>43.35062409751117229461669921875</LatitudeDegrees>
              <LongitudeDegrees>-3.93273171968758106231689453125</LongitudeDegrees>
            </Position>
            <AltitudeMeters>45.799999237060546875</AltitudeMeters>
            <DistanceMeters>52375.685870651</DistanceMeters>
          </Trackpoint>
          <Trackpoint>
            <Time>2021-01-13T16:42:45.000Z</Time>
            <Position>
              <LatitudeDegrees>43.35036157630383968353271484375</LatitudeDegrees>
              <LongitudeDegrees>-3.9333302713930606842041015625</LongitudeDegrees>
            </Position>
            <AltitudeMeters>44.799999237060546875</AltitudeMeters>
            <DistanceMeters>52432.259416716</DistanceMeters>
          </Trackpoint>
          <Trackpoint>
            <Time>2021-01-13T16:42:47.000Z</Time>
            <Position>
              <LatitudeDegrees>43.3502994664013385772705078125</LatitudeDegrees>
              <LongitudeDegrees>-3.93351106904447078704833984375</LongitudeDegrees>
            </Position>
            <AltitudeMeters>44.40000152587890625</AltitudeMeters>
            <DistanceMeters>52448.44299905</DistanceMeters>
          </Trackpoint>
          <Trackpoint>
            <Time>2021-01-13T16:42:52.000Z</Time>
            <Position>
              <LatitudeDegrees>43.35018538869917392730712890625</LatitudeDegrees>
              <LongitudeDegrees>-3.9339745044708251953125</LongitudeDegrees>
            </Position>
            <AltitudeMeters>43.40000152587890625</AltitudeMeters>
            <DistanceMeters>52488.042125741</DistanceMeters>
          </Trackpoint>
          <Trackpoint>
            <Time>2021-01-13T16:42:53.000Z</Time>
            <Position>
              <LatitudeDegrees>43.35016787052154541015625</LatitudeDegrees>
              <LongitudeDegrees>-3.9340665377676486968994140625</LongitudeDegrees>
            </Position>
            <AltitudeMeters>43.40000152587890625</AltitudeMeters>
            <DistanceMeters>52495.741049158</DistanceMeters>
          </Trackpoint>
          <Trackpoint>
            <Time>2021-01-13T16:42:58.000Z</Time>
            <Position>
              <LatitudeDegrees>43.35011246614158153533935546875</LatitudeDegrees>
              <LongitudeDegrees>-3.93449191935360431671142578125</LongitudeDegrees>
            </Position>
            <AltitudeMeters>43</AltitudeMeters>
            <DistanceMeters>52530.717593245</DistanceMeters>
          </Trackpoint>
          <Trackpoint>
            <Time>2021-01-13T16:43:04.000Z</Time>
            <Position>
              <LatitudeDegrees>43.3501016534864902496337890625</LatitudeDegrees>
              <LongitudeDegrees>-3.9349452964961528778076171875</LongitudeDegrees>
            </Position>
            <AltitudeMeters>43</AltitudeMeters>
            <DistanceMeters>52567.431862555</DistanceMeters>
          </Trackpoint>
          <Trackpoint>
            <Time>2021-01-13T16:43:10.000Z</Time>
            <Position>
              <LatitudeDegrees>43.35014314390718936920166015625</LatitudeDegrees>
              <LongitudeDegrees>-3.9353741146624088287353515625</LongitudeDegrees>
            </Position>
            <AltitudeMeters>43.200000762939453125</AltitudeMeters>
            <DistanceMeters>52602.444532515</DistanceMeters>
          </Trackpoint>
          <Trackpoint>
            <Time>2021-01-13T16:43:12.000Z</Time>
            <Position>
              <LatitudeDegrees>43.35016795434057712554931640625</LatitudeDegrees>
              <LongitudeDegrees>-3.9355139248073101043701171875</LongitudeDegrees>
            </Position>
            <AltitudeMeters>43.40000152587890625</AltitudeMeters>
            <DistanceMeters>52614.092575208</DistanceMeters>
          </Trackpoint>
          <Trackpoint>
            <Time>2021-01-13T16:43:15.000Z</Time>
            <Position>
              <LatitudeDegrees>43.3502052538096904754638671875</LatitudeDegrees>
              <LongitudeDegrees>-3.93572322092950344085693359375</LongitudeDegrees>
            </Position>
            <AltitudeMeters>43.799999237060546875</AltitudeMeters>
            <DistanceMeters>52631.533537196</DistanceMeters>
          </Trackpoint>
          <Trackpoint>
            <Time>2021-01-13T16:43:18.000Z</Time>
            <Position>
              <LatitudeDegrees>43.3502461574971675872802734375</LatitudeDegrees>
              <LongitudeDegrees>-3.935924470424652099609375</LongitudeDegrees>
            </Position>
            <AltitudeMeters>44.40000152587890625</AltitudeMeters>
            <DistanceMeters>52648.446156788</DistanceMeters>
          </Trackpoint>
          <Trackpoint>
            <Time>2021-01-13T16:43:19.000Z</Time>
            <Position>
              <LatitudeDegrees>43.35026032291352748870849609375</LatitudeDegrees>
              <LongitudeDegrees>-3.9359903521835803985595703125</LongitudeDegrees>
            </Position>
            <AltitudeMeters>44.59999847412109375</AltitudeMeters>
            <DistanceMeters>52654.006640736</DistanceMeters>
          </Trackpoint>
          <Trackpoint>
            <Time>2021-01-13T16:43:20.000Z</Time>
            <Position>
              <LatitudeDegrees>43.3502776734530925750732421875</LatitudeDegrees>
              <LongitudeDegrees>-3.9360547251999378204345703125</LongitudeDegrees>
            </Position>
            <AltitudeMeters>44.799999237060546875</AltitudeMeters>
            <DistanceMeters>52659.56387579</DistanceMeters>
          </Trackpoint>
          <Trackpoint>
            <Time>2021-01-13T16:43:23.000Z</Time>
            <Position>
              <LatitudeDegrees>43.3503393642604351043701171875</LatitudeDegrees>
              <LongitudeDegrees>-3.9362458325922489166259765625</LongitudeDegrees>
            </Position>
            <AltitudeMeters>45.59999847412109375</AltitudeMeters>
            <DistanceMeters>52676.487170519</DistanceMeters>
          </Trackpoint>
          <Trackpoint>
            <Time>2021-01-13T16:43:25.000Z</Time>
            <Position>
              <LatitudeDegrees>43.350387476384639739990234375</LatitudeDegrees>
              <LongitudeDegrees>-3.936374075710773468017578125</LongitudeDegrees>
            </Position>
            <AltitudeMeters>46.200000762939453125</AltitudeMeters>
            <DistanceMeters>52688.166568396</DistanceMeters>
          </Trackpoint>
          <Trackpoint>
            <Time>2021-01-13T16:43:26.000Z</Time>
            <Position>
              <LatitudeDegrees>43.35041069425642490386962890625</LatitudeDegrees>
              <LongitudeDegrees>-3.93644071184098720550537109375</LongitudeDegrees>
            </Position>
            <AltitudeMeters>46.799999237060546875</AltitudeMeters>
            <DistanceMeters>52694.147214916</DistanceMeters>
          </Trackpoint>
          <Trackpoint>
            <Time>2021-01-13T16:43:30.000Z</Time>
            <Position>
              <LatitudeDegrees>43.35051412694156169891357421875</LatitudeDegrees>
              <LongitudeDegrees>-3.93668420612812042236328125</LongitudeDegrees>
            </Position>
            <AltitudeMeters>47.799999237060546875</AltitudeMeters>
            <DistanceMeters>52716.970645634</DistanceMeters>
          </Trackpoint>
          <Trackpoint>
            <Time>2021-01-13T16:43:33.000Z</Time>
            <Position>
              <LatitudeDegrees>43.3505995385348796844482421875</LatitudeDegrees>
              <LongitudeDegrees>-3.9368526823818683624267578125</LongitudeDegrees>
            </Position>
            <AltitudeMeters>49</AltitudeMeters>
            <DistanceMeters>52733.5929884</DistanceMeters>
          </Trackpoint>
          <Trackpoint>
            <Time>2021-01-13T16:43:36.000Z</Time>
            <Position>
              <LatitudeDegrees>43.35069383494555950164794921875</LatitudeDegrees>
              <LongitudeDegrees>-3.93701814115047454833984375</LongitudeDegrees>
            </Position>
            <AltitudeMeters>50.40000152587890625</AltitudeMeters>
            <DistanceMeters>52750.607282115</DistanceMeters>
          </Trackpoint>
          <Trackpoint>
            <Time>2021-01-13T16:43:40.000Z</Time>
            <Position>
              <LatitudeDegrees>43.35083012469112873077392578125</LatitudeDegrees>
              <LongitudeDegrees>-3.937229029834270477294921875</LongitudeDegrees>
            </Position>
            <AltitudeMeters>51.40000152587890625</AltitudeMeters>
            <DistanceMeters>52773.442183783</DistanceMeters>
          </Trackpoint>
          <Trackpoint>
            <Time>2021-01-13T16:43:42.000Z</Time>
            <Position>
              <LatitudeDegrees>43.35090212523937225341796875</LatitudeDegrees>
              <LongitudeDegrees>-3.93733103759586811065673828125</LongitudeDegrees>
            </Position>
            <AltitudeMeters>51.799999237060546875</AltitudeMeters>
            <DistanceMeters>52784.947874578</DistanceMeters>
          </Trackpoint>
          <Trackpoint>
            <Time>2021-01-13T16:43:45.000Z</Time>
            <Position>
              <LatitudeDegrees>43.3510114252567291259765625</LatitudeDegrees>
              <LongitudeDegrees>-3.93748593516647815704345703125</LongitudeDegrees>
            </Position>
            <AltitudeMeters>52.59999847412109375</AltitudeMeters>
            <DistanceMeters>52802.41677275</DistanceMeters>
          </Trackpoint>
          <Trackpoint>
            <Time>2021-01-13T16:43:51.000Z</Time>
            <Position>
              <LatitudeDegrees>43.35124502889811992645263671875</LatitudeDegrees>
              <LongitudeDegrees>-3.9377968199551105499267578125</LongitudeDegrees>
            </Position>
            <AltitudeMeters>53.40000152587890625</AltitudeMeters>
            <DistanceMeters>52838.598498418</DistanceMeters>
          </Trackpoint>
          <Trackpoint>
            <Time>2021-01-13T16:43:53.000Z</Time>
            <Position>
              <LatitudeDegrees>43.35132264532148838043212890625</LatitudeDegrees>
              <LongitudeDegrees>-3.93790788017213344573974609375</LongitudeDegrees>
            </Position>
            <AltitudeMeters>53.799999237060546875</AltitudeMeters>
            <DistanceMeters>52851.06511968</DistanceMeters>
          </Trackpoint>
          <Trackpoint>
            <Time>2021-01-13T16:44:00.000Z</Time>
            <Position>
              <LatitudeDegrees>43.35157812573015689849853515625</LatitudeDegrees>
              <LongitudeDegrees>-3.93833644688129425048828125</LongitudeDegrees>
            </Position>
            <AltitudeMeters>54.59999847412109375</AltitudeMeters>
            <DistanceMeters>52895.916621546</DistanceMeters>
          </Trackpoint>
          <Trackpoint>
            <Time>2021-01-13T16:44:01.000Z</Time>
            <Position>
              <LatitudeDegrees>43.35161131806671619415283203125</LatitudeDegrees>
              <LongitudeDegrees>-3.93840610049664974212646484375</LongitudeDegrees>
            </Position>
            <AltitudeMeters>54.59999847412109375</AltitudeMeters>
            <DistanceMeters>52902.656153022</DistanceMeters>
          </Trackpoint>
          <Trackpoint>
            <Time>2021-01-13T16:44:08.000Z</Time>
            <Position>
              <LatitudeDegrees>43.3518061973154544830322265625</LatitudeDegrees>
              <LongitudeDegrees>-3.93894664943218231201171875</LongitudeDegrees>
            </Position>
            <AltitudeMeters>54.59999847412109375</AltitudeMeters>
            <DistanceMeters>52951.486571259</DistanceMeters>
          </Trackpoint>
          <Trackpoint>
            <Time>2021-01-13T16:44:12.000Z</Time>
            <Position>
              <LatitudeDegrees>43.35187149234116077423095703125</LatitudeDegrees>
              <LongitudeDegrees>-3.9392965100705623626708984375</LongitudeDegrees>
            </Position>
            <AltitudeMeters>54.40000152587890625</AltitudeMeters>
            <DistanceMeters>52980.7196059</DistanceMeters>
          </Trackpoint>
          <Trackpoint>
            <Time>2021-01-13T16:44:14.000Z</Time>
            <Position>
              <LatitudeDegrees>43.35188917815685272216796875</LatitudeDegrees>
              <LongitudeDegrees>-3.939486779272556304931640625</LongitudeDegrees>
            </Position>
            <AltitudeMeters>54</AltitudeMeters>
            <DistanceMeters>52996.243609254</DistanceMeters>
          </Trackpoint>
          <Trackpoint>
            <Time>2021-01-13T16:44:17.000Z</Time>
            <Position>
              <LatitudeDegrees>43.35190367884933948516845703125</LatitudeDegrees>
              <LongitudeDegrees>-3.93979397602379322052001953125</LongitudeDegrees>
            </Position>
            <AltitudeMeters>53.799999237060546875</AltitudeMeters>
            <DistanceMeters>53021.158374252</DistanceMeters>
          </Trackpoint>
          <Trackpoint>
            <Time>2021-01-13T16:44:20.000Z</Time>
            <Position>
              <LatitudeDegrees>43.35190518759191036224365234375</LatitudeDegrees>
              <LongitudeDegrees>-3.940125815570354461669921875</LongitudeDegrees>
            </Position>
            <AltitudeMeters>53.40000152587890625</AltitudeMeters>
            <DistanceMeters>53048.015822127</DistanceMeters>
          </Trackpoint>
          <Trackpoint>
            <Time>2021-01-13T16:44:21.000Z</Time>
            <Position>
              <LatitudeDegrees>43.35190393030643463134765625</LatitudeDegrees>
              <LongitudeDegrees>-3.94024073146283626556396484375</LongitudeDegrees>
            </Position>
            <AltitudeMeters>53.200000762939453125</AltitudeMeters>
            <DistanceMeters>53057.317767756</DistanceMeters>
          </Trackpoint>
          <Trackpoint>
            <Time>2021-01-13T16:44:25.000Z</Time>
            <Position>
              <LatitudeDegrees>43.35189965553581714630126953125</LatitudeDegrees>
              <LongitudeDegrees>-3.94071430899202823638916015625</LongitudeDegrees>
            </Position>
            <AltitudeMeters>52.200000762939453125</AltitudeMeters>
            <DistanceMeters>53095.648769283</DistanceMeters>
          </Trackpoint>
          <Trackpoint>
            <Time>2021-01-13T16:44:27.000Z</Time>
            <Position>
              <LatitudeDegrees>43.3518943749368190765380859375</LatitudeDegrees>
              <LongitudeDegrees>-3.94095294177532196044921875</LongitudeDegrees>
            </Position>
            <AltitudeMeters>51.59999847412109375</AltitudeMeters>
            <DistanceMeters>53114.970997689</DistanceMeters>
          </Trackpoint>
          <Trackpoint>
            <Time>2021-01-13T16:44:28.000Z</Time>
            <Position>
              <LatitudeDegrees>43.3518923632800579071044921875</LatitudeDegrees>
              <LongitudeDegrees>-3.9410717971622943878173828125</LongitudeDegrees>
            </Position>
            <AltitudeMeters>51.200000762939453125</AltitudeMeters>
            <DistanceMeters>53124.592657821</DistanceMeters>
          </Trackpoint>
          <Trackpoint>
            <Time>2021-01-13T16:44:29.000Z</Time>
            <Position>
              <LatitudeDegrees>43.351890183985233306884765625</LatitudeDegrees>
              <LongitudeDegrees>-3.9411901496350765228271484375</LongitudeDegrees>
            </Position>
            <AltitudeMeters>50.799999237060546875</AltitudeMeters>
            <DistanceMeters>53134.174348028</DistanceMeters>
          </Trackpoint>
          <Trackpoint>
            <Time>2021-01-13T16:44:31.000Z</Time>
            <Position>
              <LatitudeDegrees>43.351886831223964691162109375</LatitudeDegrees>
              <LongitudeDegrees>-3.94142811186611652374267578125</LongitudeDegrees>
            </Position>
            <AltitudeMeters>49.799999237060546875</AltitudeMeters>
            <DistanceMeters>53153.43689825</DistanceMeters>
          </Trackpoint>
          <Trackpoint>
            <Time>2021-01-13T16:44:35.000Z</Time>
            <Position>
              <LatitudeDegrees>43.35188004188239574432373046875</LatitudeDegrees>
              <LongitudeDegrees>-3.94191828556358814239501953125</LongitudeDegrees>
            </Position>
            <AltitudeMeters>48.799999237060546875</AltitudeMeters>
            <DistanceMeters>53193.115530132</DistanceMeters>
          </Trackpoint>
          <Trackpoint>
            <Time>2021-01-13T16:44:36.000Z</Time>
            <Position>
              <LatitudeDegrees>43.35187937133014202117919921875</LatitudeDegrees>
              <LongitudeDegrees>-3.9420444332063198089599609375</LongitudeDegrees>
            </Position>
            <AltitudeMeters>48.40000152587890625</AltitudeMeters>
            <DistanceMeters>53203.325486178</DistanceMeters>
          </Trackpoint>
          <Trackpoint>
            <Time>2021-01-13T16:44:38.000Z</Time>
            <Position>
              <LatitudeDegrees>43.35187618620693683624267578125</LatitudeDegrees>
              <LongitudeDegrees>-3.9423009194433689117431640625</LongitudeDegrees>
            </Position>
            <AltitudeMeters>47.799999237060546875</AltitudeMeters>
            <DistanceMeters>53224.086594261</DistanceMeters>
          </Trackpoint>
          <Trackpoint>
            <Time>2021-01-13T16:44:39.000Z</Time>
            <Position>
              <LatitudeDegrees>43.35187442600727081298828125</LatitudeDegrees>
              <LongitudeDegrees>-3.94243083894252777099609375</LongitudeDegrees>
            </Position>
            <AltitudeMeters>47.59999847412109375</AltitudeMeters>
            <DistanceMeters>53234.603265611</DistanceMeters>
          </Trackpoint>
          <Trackpoint>
            <Time>2021-01-13T16:44:42.000Z</Time>
            <Position>
              <LatitudeDegrees>43.35187467746436595916748046875</LatitudeDegrees>
              <LongitudeDegrees>-3.942822776734828948974609375</LongitudeDegrees>
            </Position>
            <AltitudeMeters>46.40000152587890625</AltitudeMeters>
            <DistanceMeters>53266.324258946</DistanceMeters>
          </Trackpoint>
          <Trackpoint>
            <Time>2021-01-13T16:44:46.000Z</Time>
            <Position>
              <LatitudeDegrees>43.35186579264700412750244140625</LatitudeDegrees>
              <LongitudeDegrees>-3.94335008226335048675537109375</LongitudeDegrees>
            </Position>
            <AltitudeMeters>45.40000152587890625</AltitudeMeters>
            <DistanceMeters>53309.012306763</DistanceMeters>
          </Trackpoint>
          <Trackpoint>
            <Time>2021-01-13T16:44:50.000Z</Time>
            <Position>
              <LatitudeDegrees>43.3518554829061031341552734375</LatitudeDegrees>
              <LongitudeDegrees>-3.943841345608234405517578125</LongitudeDegrees>
            </Position>
            <AltitudeMeters>44.200000762939453125</AltitudeMeters>
            <DistanceMeters>53348.788677811</DistanceMeters>
          </Trackpoint>
          <Trackpoint>
            <Time>2021-01-13T16:44:51.000Z</Time>
            <Position>
              <LatitudeDegrees>43.35185925476253032684326171875</LatitudeDegrees>
              <LongitudeDegrees>-3.9439524896442890167236328125</LongitudeDegrees>
            </Position>
            <AltitudeMeters>43.59999847412109375</AltitudeMeters>
            <DistanceMeters>53357.794182602</DistanceMeters>
          </Trackpoint>
          <Trackpoint>
            <Time>2021-01-13T16:44:52.000Z</Time>
            <Position>
              <LatitudeDegrees>43.35187953896820545196533203125</LatitudeDegrees>
              <LongitudeDegrees>-3.94405064173042774200439453125</LongitudeDegrees>
            </Position>
            <AltitudeMeters>43.40000152587890625</AltitudeMeters>
            <DistanceMeters>53366.052764041</DistanceMeters>
          </Trackpoint>
          <Trackpoint>
            <Time>2021-01-13T16:44:53.000Z</Time>
            <Position>
              <LatitudeDegrees>43.35192094556987285614013671875</LatitudeDegrees>
              <LongitudeDegrees>-3.944127000868320465087890625</LongitudeDegrees>
            </Position>
            <AltitudeMeters>43</AltitudeMeters>
            <DistanceMeters>53373.761064956</DistanceMeters>
          </Trackpoint>
          <Trackpoint>
            <Time>2021-01-13T16:44:54.000Z</Time>
            <Position>
              <LatitudeDegrees>43.35198062472045421600341796875</LatitudeDegrees>
              <LongitudeDegrees>-3.94416212104260921478271484375</LongitudeDegrees>
            </Position>
            <AltitudeMeters>42.59999847412109375</AltitudeMeters>
            <DistanceMeters>53380.986220451</DistanceMeters>
          </Trackpoint>
          <Trackpoint>
            <Time>2021-01-13T16:44:56.000Z</Time>
            <Position>
              <LatitudeDegrees>43.3521035872399806976318359375</LatitudeDegrees>
              <LongitudeDegrees>-3.94417284987866878509521484375</LongitudeDegrees>
            </Position>
            <AltitudeMeters>42</AltitudeMeters>
            <DistanceMeters>53394.699731016</DistanceMeters>
          </Trackpoint>
          <Trackpoint>
            <Time>2021-01-13T16:44:57.000Z</Time>
            <Position>
              <LatitudeDegrees>43.35216142237186431884765625</LatitudeDegrees>
              <LongitudeDegrees>-3.9442057907581329345703125</LongitudeDegrees>
            </Position>
            <AltitudeMeters>41.59999847412109375</AltitudeMeters>
            <DistanceMeters>53401.667204802</DistanceMeters>
          </Trackpoint>
          <Trackpoint>
            <Time>2021-01-13T16:44:58.000Z</Time>
            <Position>
              <LatitudeDegrees>43.3522075228393077850341796875</LatitudeDegrees>
              <LongitudeDegrees>-3.9442669786512851715087890625</LongitudeDegrees>
            </Position>
            <AltitudeMeters>41.40000152587890625</AltitudeMeters>
            <DistanceMeters>53408.797375234</DistanceMeters>
          </Trackpoint>
          <Trackpoint>
            <Time>2021-01-13T16:45:00.000Z</Time>
            <Position>
              <LatitudeDegrees>43.3522668667137622833251953125</LatitudeDegrees>
              <LongitudeDegrees>-3.94442330114543437957763671875</LongitudeDegrees>
            </Position>
            <AltitudeMeters>41.40000152587890625</AltitudeMeters>
            <DistanceMeters>53423.069426044</DistanceMeters>
          </Trackpoint>
          <Trackpoint>
            <Time>2021-01-13T16:45:01.000Z</Time>
            <Position>
              <LatitudeDegrees>43.35228991694748401641845703125</LatitudeDegrees>
              <LongitudeDegrees>-3.9445035159587860107421875</LongitudeDegrees>
            </Position>
            <AltitudeMeters>41.200000762939453125</AltitudeMeters>
            <DistanceMeters>53430.04984813</DistanceMeters>
          </Trackpoint>
          <Trackpoint>
            <Time>2021-01-13T16:45:06.000Z</Time>
            <Position>
              <LatitudeDegrees>43.35242159664630889892578125</LatitudeDegrees>
              <LongitudeDegrees>-3.94493744708597660064697265625</LongitudeDegrees>
            </Position>
            <AltitudeMeters>41</AltitudeMeters>
            <DistanceMeters>53468.104695646</DistanceMeters>
          </Trackpoint>
          <Trackpoint>
            <Time>2021-01-13T16:45:07.000Z</Time>
            <Position>
              <LatitudeDegrees>43.35244975984096527099609375</LatitudeDegrees>
              <LongitudeDegrees>-3.94503383897244930267333984375</LongitudeDegrees>
            </Position>
            <AltitudeMeters>41</AltitudeMeters>
            <DistanceMeters>53476.512277843</DistanceMeters>
          </Trackpoint>
          <Trackpoint>
            <Time>2021-01-13T16:45:10.000Z</Time>
            <Position>
              <LatitudeDegrees>43.35253198631107807159423828125</LatitudeDegrees>
              <LongitudeDegrees>-3.9453391917049884796142578125</LongitudeDegrees>
            </Position>
            <AltitudeMeters>41</AltitudeMeters>
            <DistanceMeters>53502.865363415</DistanceMeters>
          </Trackpoint>
          <Trackpoint>
            <Time>2021-01-13T16:45:12.000Z</Time>
            <Position>
              <LatitudeDegrees>43.352584876120090484619140625</LatitudeDegrees>
              <LongitudeDegrees>-3.94555435515940189361572265625</LongitudeDegrees>
            </Position>
            <AltitudeMeters>41</AltitudeMeters>
            <DistanceMeters>53521.247077165</DistanceMeters>
          </Trackpoint>
          <Trackpoint>
            <Time>2021-01-13T16:45:13.000Z</Time>
            <Position>
              <LatitudeDegrees>43.35261781699955463409423828125</LatitudeDegrees>
              <LongitudeDegrees>-3.9456595480442047119140625</LongitudeDegrees>
            </Position>
            <AltitudeMeters>40.799999237060546875</AltitudeMeters>
            <DistanceMeters>53530.516931934</DistanceMeters>
          </Trackpoint>
          <Trackpoint>
            <Time>2021-01-13T16:45:18.000Z</Time>
            <Position>
              <LatitudeDegrees>43.3528482355177402496337890625</LatitudeDegrees>
              <LongitudeDegrees>-3.946151398122310638427734375</LongitudeDegrees>
            </Position>
            <AltitudeMeters>39.799999237060546875</AltitudeMeters>
            <DistanceMeters>53577.869612343</DistanceMeters>
          </Trackpoint>
          <Trackpoint>
            <Time>2021-01-13T16:45:19.000Z</Time>
            <Position>
              <LatitudeDegrees>43.35289861075580120086669921875</LatitudeDegrees>
              <LongitudeDegrees>-3.94624955020844936370849609375</LongitudeDegrees>
            </Position>
            <AltitudeMeters>39.40000152587890625</AltitudeMeters>
            <DistanceMeters>53587.592568185</DistanceMeters>
          </Trackpoint>
          <Trackpoint>
            <Time>2021-01-13T16:45:21.000Z</Time>
            <Position>
              <LatitudeDegrees>43.35299651138484477996826171875</LatitudeDegrees>
              <LongitudeDegrees>-3.9464543201029300689697265625</LongitudeDegrees>
            </Position>
            <AltitudeMeters>38.799999237060546875</AltitudeMeters>
            <DistanceMeters>53607.426535267</DistanceMeters>
          </Trackpoint>
          <Trackpoint>
            <Time>2021-01-13T16:45:24.000Z</Time>
            <Position>
              <LatitudeDegrees>43.3531338907778263092041015625</LatitudeDegrees>
              <LongitudeDegrees>-3.94677224569022655487060546875</LongitudeDegrees>
            </Position>
            <AltitudeMeters>38</AltitudeMeters>
            <DistanceMeters>53637.35738597</DistanceMeters>
          </Trackpoint>
          <Trackpoint>
            <Time>2021-01-13T16:45:25.000Z</Time>
            <Position>
              <LatitudeDegrees>43.35316716693341732025146484375</LatitudeDegrees>
              <LongitudeDegrees>-3.94688372500240802764892578125</LongitudeDegrees>
            </Position>
            <AltitudeMeters>37.59999847412109375</AltitudeMeters>
            <DistanceMeters>53647.110016138</DistanceMeters>
          </Trackpoint>
          <Trackpoint>
            <Time>2021-01-13T16:45:28.000Z</Time>
            <Position>
              <LatitudeDegrees>43.35324109531939029693603515625</LatitudeDegrees>
              <LongitudeDegrees>-3.9472152292728424072265625</LongitudeDegrees>
            </Position>
            <AltitudeMeters>36.59999847412109375</AltitudeMeters>
            <DistanceMeters>53675.17267757</DistanceMeters>
          </Trackpoint>
          <Trackpoint>
            <Time>2021-01-13T16:45:29.000Z</Time>
            <Position>
              <LatitudeDegrees>43.35327185690402984619140625</LatitudeDegrees>
              <LongitudeDegrees>-3.94731757231056690216064453125</LongitudeDegrees>
            </Position>
            <AltitudeMeters>36.40000152587890625</AltitudeMeters>
            <DistanceMeters>53684.135465086</DistanceMeters>
          </Trackpoint>
          <Trackpoint>
            <Time>2021-01-13T16:45:31.000Z</Time>
            <Position>
              <LatitudeDegrees>43.3533424325287342071533203125</LatitudeDegrees>
              <LongitudeDegrees>-3.94751362502574920654296875</LongitudeDegrees>
            </Position>
            <AltitudeMeters>35.40000152587890625</AltitudeMeters>
            <DistanceMeters>53701.840551182</DistanceMeters>
          </Trackpoint>
          <Trackpoint>
            <Time>2021-01-13T16:45:32.000Z</Time>
            <Position>
              <LatitudeDegrees>43.353382162749767303466796875</LatitudeDegrees>
              <LongitudeDegrees>-3.94760540686547756195068359375</LongitudeDegrees>
            </Position>
            <AltitudeMeters>35</AltitudeMeters>
            <DistanceMeters>53710.485371171</DistanceMeters>
          </Trackpoint>
          <Trackpoint>
            <Time>2021-01-13T16:45:33.000Z</Time>
            <Position>
              <LatitudeDegrees>43.35342474281787872314453125</LatitudeDegrees>
              <LongitudeDegrees>-3.9476928301155567169189453125</LongitudeDegrees>
            </Position>
            <AltitudeMeters>34.40000152587890625</AltitudeMeters>
            <DistanceMeters>53719.00127065</DistanceMeters>
          </Trackpoint>
          <Trackpoint>
            <Time>2021-01-13T16:45:34.000Z</Time>
            <Position>
              <LatitudeDegrees>43.35347411222755908966064453125</LatitudeDegrees>
              <LongitudeDegrees>-3.9477716200053691864013671875</LongitudeDegrees>
            </Position>
            <AltitudeMeters>34.200000762939453125</AltitudeMeters>
            <DistanceMeters>53727.418513653</DistanceMeters>
          </Trackpoint>
          <Trackpoint>
            <Time>2021-01-13T16:45:35.000Z</Time>
            <Position>
              <LatitudeDegrees>43.35352532565593719482421875</LatitudeDegrees>
              <LongitudeDegrees>-3.947843872010707855224609375</LongitudeDegrees>
            </Position>
            <AltitudeMeters>34</AltitudeMeters>
            <DistanceMeters>53735.585284411</DistanceMeters>
          </Trackpoint>
          <Trackpoint>
            <Time>2021-01-13T16:45:38.000Z</Time>
            <Position>
              <LatitudeDegrees>43.35368650965392589569091796875</LatitudeDegrees>
              <LongitudeDegrees>-3.94804730080068111419677734375</LongitudeDegrees>
            </Position>
            <AltitudeMeters>32.799999237060546875</AltitudeMeters>
            <DistanceMeters>53759.934941272</DistanceMeters>
          </Trackpoint>
          <Trackpoint>
            <Time>2021-01-13T16:45:40.000Z</Time>
            <Position>
              <LatitudeDegrees>43.35379832424223423004150390625</LatitudeDegrees>
              <LongitudeDegrees>-3.9481930620968341827392578125</LongitudeDegrees>
            </Position>
            <AltitudeMeters>32.200000762939453125</AltitudeMeters>
            <DistanceMeters>53777.082458561</DistanceMeters>
          </Trackpoint>
          <Trackpoint>
            <Time>2021-01-13T16:45:42.000Z</Time>
            <Position>
              <LatitudeDegrees>43.35389739833772182464599609375</LatitudeDegrees>
              <LongitudeDegrees>-3.948331363499164581298828125</LongitudeDegrees>
            </Position>
            <AltitudeMeters>31.6000003814697265625</AltitudeMeters>
            <DistanceMeters>53792.794372188</DistanceMeters>
          </Trackpoint>
          <Trackpoint>
            <Time>2021-01-13T16:45:43.000Z</Time>
            <Position>
              <LatitudeDegrees>43.353943414986133575439453125</LatitudeDegrees>
              <LongitudeDegrees>-3.9483948983252048492431640625</LongitudeDegrees>
            </Position>
            <AltitudeMeters>31.3999996185302734375</AltitudeMeters>
            <DistanceMeters>53800.051327873</DistanceMeters>
          </Trackpoint>
          <Trackpoint>
            <Time>2021-01-13T16:45:46.000Z</Time>
            <Position>
              <LatitudeDegrees>43.35407090373337268829345703125</LatitudeDegrees>
              <LongitudeDegrees>-3.94856295548379421234130859375</LongitudeDegrees>
            </Position>
            <AltitudeMeters>31.200000762939453125</AltitudeMeters>
            <DistanceMeters>53819.706473012</DistanceMeters>
          </Trackpoint>
          <Trackpoint>
            <Time>2021-01-13T16:45:47.000Z</Time>
            <Position>
              <LatitudeDegrees>43.3540877513587474822998046875</LatitudeDegrees>
              <LongitudeDegrees>-3.94863034598529338836669921875</LongitudeDegrees>
            </Position>
            <AltitudeMeters>31.200000762939453125</AltitudeMeters>
            <DistanceMeters>53825.473428148</DistanceMeters>
          </Trackpoint>
          <Trackpoint>
            <Time>2021-01-13T16:45:50.000Z</Time>
            <Position>
              <LatitudeDegrees>43.35404123179614543914794921875</LatitudeDegrees>
              <LongitudeDegrees>-3.948777280747890472412109375</LongitudeDegrees>
            </Position>
            <AltitudeMeters>31.200000762939453125</AltitudeMeters>
            <DistanceMeters>53838.443095222</DistanceMeters>
          </Trackpoint>
          <Trackpoint>
            <Time>2021-01-13T16:45:52.000Z</Time>
            <Position>
              <LatitudeDegrees>43.3540227077901363372802734375</LatitudeDegrees>
              <LongitudeDegrees>-3.94883058965206146240234375</LongitudeDegrees>
            </Position>
            <AltitudeMeters>31</AltitudeMeters>
            <DistanceMeters>53843.225686949</DistanceMeters>
          </Trackpoint>
          <Trackpoint>
            <Time>2021-01-13T16:45:54.000Z</Time>
            <Position>
              <LatitudeDegrees>43.35402228869497776031494140625</LatitudeDegrees>
              <LongitudeDegrees>-3.9488461799919605255126953125</LongitudeDegrees>
            </Position>
            <AltitudeMeters>30.799999237060546875</AltitudeMeters>
            <DistanceMeters>53844.489935157</DistanceMeters>
          </Trackpoint>
          <Trackpoint>
            <Time>2021-01-13T16:45:55.000Z</Time>
            <Position>
              <LatitudeDegrees>43.354022204875946044921875</LatitudeDegrees>
              <LongitudeDegrees>-3.9488448388874530792236328125</LongitudeDegrees>
            </Position>
            <AltitudeMeters>30.799999237060546875</AltitudeMeters>
            <DistanceMeters>53844.624323225</DistanceMeters>
          </Trackpoint>
        </Track>
      </Lap>
    </Activity>
  </Activities>
</TrainingCenterDatabase>
